<?xml version="1.0" encoding="UTF-8" standalone="no" ?><gpx xmlns="http://www.topografix.com/GPX/1/1" xmlns:gpxx="http://www.garmin.com/xmlschemas/GpxExtensions/v3" xmlns:gpxtrkx="http://www.garmin.com/xmlschemas/TrackStatsExtension/v1" xmlns:wptx1="http://www.garmin.com/xmlschemas/WaypointExtension/v1" xmlns:gpxtpx="http://www.garmin.com/xmlschemas/TrackPointExtension/v1" creator="Alpha 300i" version="1.1" xmlns:xsi="http://www.w3.org/2001/XMLSchema-instance" xsi:schemaLocation="http://www.topografix.com/GPX/1/1 http://www.topografix.com/GPX/1/1/gpx.xsd http://www.garmin.com/xmlschemas/GpxExtensions/v3 http://www8.garmin.com/xmlschemas/GpxExtensionsv3.xsd http://www.garmin.com/xmlschemas/TrackStatsExtension/v1 http://www8.garmin.com/xmlschemas/TrackStatsExtension.xsd http://www.garmin.com/xmlschemas/WaypointExtension/v1 http://www8.garmin.com/xmlschemas/WaypointExtensionv1.xsd http://www.garmin.com/xmlschemas/TrackPointExtension/v1 http://www.garmin.com/xmlschemas/TrackPointExtensionv1.xsd"><metadata><link href="http://www.garmin.com"><text>Garmin International</text></link><time>2026-08-21T01:09:41Z</time></metadata><trk><name>2026-08-21 02:20:31</name><extensions><gpxx:TrackExtension><gpxx:DisplayColor>Cyan</gpxx:DisplayColor></gpxx:TrackExtension><gpxtrkx:TrackStatsExtension><gpxtrkx:Distance>8738.000</gpxtrkx:Distance><gpxtrkx:TimerTime>18347</gpxtrkx:TimerTime><gpxtrkx:TotalElapsedTime>18347</gpxtrkx:TotalElapsedTime><gpxtrkx:MovingSpeed>1.085</gpxtrkx:MovingSpeed><gpxtrkx:MaxElevation>305.200</gpxtrkx:MaxElevation><gpxtrkx:MinElevation>291.000</gpxtrkx:MinElevation><gpxtrkx:Ascent>9.000</gpxtrkx:Ascent><gpxtrkx:Descent>14.000</gpxtrkx:Descent><gpxtrkx:Calories>332</gpxtrkx:Calories><gpxtrkx:AvgCadence>0</gpxtrkx:AvgCadence></gpxtrkx:TrackStatsExtension></extensions><trkseg><trkpt lat="59.0995138977" lon="30.4592292756"><ele>298.15</ele><time>2026-08-20T18:14:44Z</time></trkpt><trkpt lat="59.0995138977" lon="30.4592292756"><ele>298.15</ele><time>2026-08-20T18:14:45Z</time></trkpt><trkpt lat="59.0995138977" lon="30.4592292756"><ele>298.15</ele><time>2026-08-20T18:14:46Z</time></trkpt><trkpt lat="59.0995138977" lon="30.4592292756"><ele>298.15</ele><time>2026-08-20T18:14:47Z</time></trkpt><trkpt lat="59.0995138977" lon="30.4592292756"><ele>298.15</ele><time>2026-08-20T18:14:48Z</time></trkpt><trkpt lat="59.0995138977" lon="30.4592292756"><ele>298.15</ele><time>2026-08-20T18:14:49Z</time></trkpt><trkpt lat="59.0995138977" lon="30.4592292756"><ele>298.15</ele><time>2026-08-20T18:14:50Z</time></trkpt><trkpt lat="59.0995138977" lon="30.4592292756"><ele>298.15</ele><time>2026-08-20T18:14:51Z</time></trkpt><trkpt lat="59.0995138977" lon="30.4592292756"><ele>298.15</ele><time>2026-08-20T18:14:52Z</time></trkpt><trkpt lat="59.0995138977" lon="30.4592292756"><ele>298.15</ele><time>2026-08-20T18:14:53Z</time></trkpt><trkpt lat="59.0995138977" lon="30.4592292756"><ele>298.15</ele><time>2026-08-20T18:14:54Z</time></trkpt><trkpt lat="59.0995138977" lon="30.4592292756"><ele>298.15</ele><time>2026-08-20T18:14:55Z</time></trkpt><trkpt lat="59.0995138977" lon="30.4592292756"><ele>298.15</ele><time>2026-08-20T18:14:56Z</time></trkpt><trkpt lat="59.0995138977" lon="30.4592292756"><ele>298.15</ele><time>2026-08-20T18:14:57Z</time></trkpt><trkpt lat="59.0995138977" lon="30.4592292756"><ele>298.15</ele><time>2026-08-20T18:14:58Z</time></trkpt><trkpt lat="59.0995138977" lon="30.4592292756"><ele>298.15</ele><time>2026-08-20T18:14:59Z</time></trkpt><trkpt lat="59.0995138977" lon="30.4592292756"><ele>298.15</ele><time>2026-08-20T18:15:00Z</time></trkpt><trkpt lat="59.0995138977" lon="30.4592292756"><ele>298.15</ele><time>2026-08-20T18:15:01Z</time></trkpt><trkpt lat="59.0995138977" lon="30.4592292756"><ele>298.15</ele><time>2026-08-20T18:15:02Z</time></trkpt><trkpt lat="59.0995138977" lon="30.4592292756"><ele>298.15</ele><time>2026-08-20T18:15:03Z</time></trkpt><trkpt lat="59.0995138977" lon="30.4592292756"><ele>298.15</ele><time>2026-08-20T18:15:04Z</time></trkpt><trkpt lat="59.0995138977" lon="30.4592292756"><ele>298.15</ele><time>2026-08-20T18:15:05Z</time></trkpt><trkpt lat="59.0995138977" lon="30.4592292756"><ele>298.15</ele><time>2026-08-20T18:15:06Z</time></trkpt><trkpt lat="59.0995138977" lon="30.4592292756"><ele>298.15</ele><time>2026-08-20T18:15:07Z</time></trkpt><trkpt lat="59.0995138977" lon="30.4592292756"><ele>298.15</ele><time>2026-08-20T18:15:08Z</time></trkpt><trkpt lat="59.0995138977" lon="30.4592292756"><ele>298.15</ele><time>2026-08-20T18:15:09Z</time></trkpt><trkpt lat="59.0995138977" lon="30.4592292756"><ele>298.15</ele><time>2026-08-20T18:15:10Z</time></trkpt><trkpt lat="59.0995138977" lon="30.4592292756"><ele>298.15</ele><time>2026-08-20T18:15:11Z</time></trkpt><trkpt lat="59.0995138977" lon="30.4592292756"><ele>298.15</ele><time>2026-08-20T18:15:12Z</time></trkpt><trkpt lat="59.0995138977" lon="30.4592292756"><ele>298.15</ele><time>2026-08-20T18:15:13Z</time></trkpt><trkpt lat="59.0995138977" lon="30.4592292756"><ele>298.15</ele><time>2026-08-20T18:15:14Z</time></trkpt><trkpt lat="59.0995138977" lon="30.4592292756"><ele>298.15</ele><time>2026-08-20T18:15:15Z</time></trkpt><trkpt lat="59.0995138977" lon="30.4592292756"><ele>298.15</ele><time>2026-08-20T18:15:16Z</time></trkpt><trkpt lat="59.0995138977" lon="30.4592292756"><ele>298.15</ele><time>2026-08-20T18:15:17Z</time></trkpt><trkpt lat="59.0995138977" lon="30.4592292756"><ele>298.15</ele><time>2026-08-20T18:15:18Z</time></trkpt><trkpt lat="59.0995138977" lon="30.4592292756"><ele>298.15</ele><time>2026-08-20T18:15:19Z</time></trkpt><trkpt lat="59.0995138977" lon="30.4592292756"><ele>298.15</ele><time>2026-08-20T18:15:20Z</time></trkpt><trkpt lat="59.0995138977" lon="30.4592292756"><ele>298.15</ele><time>2026-08-20T18:15:21Z</time></trkpt><trkpt lat="59.0995138977" lon="30.4592292756"><ele>298.15</ele><time>2026-08-20T18:15:22Z</time></trkpt><trkpt lat="59.0995138977" lon="30.4592292756"><ele>298.15</ele><time>2026-08-20T18:15:23Z</time></trkpt><trkpt lat="59.0995138977" lon="30.4592292756"><ele>298.15</ele><time>2026-08-20T18:15:24Z</time></trkpt><trkpt lat="59.0995138977" lon="30.4592292756"><ele>298.15</ele><time>2026-08-20T18:15:25Z</time></trkpt><trkpt lat="59.0995138977" lon="30.4592292756"><ele>298.15</ele><time>2026-08-20T18:15:26Z</time></trkpt><trkpt lat="59.0995138977" lon="30.4592292756"><ele>298.15</ele><time>2026-08-20T18:15:27Z</time></trkpt><trkpt lat="59.0995138977" lon="30.4592292756"><ele>298.15</ele><time>2026-08-20T18:15:28Z</time></trkpt><trkpt lat="59.0995138977" lon="30.4592292756"><ele>298.15</ele><time>2026-08-20T18:15:29Z</time></trkpt><trkpt lat="59.0995138977" lon="30.4592292756"><ele>298.15</ele><time>2026-08-20T18:15:30Z</time></trkpt><trkpt lat="59.0995138977" lon="30.4592292756"><ele>298.15</ele><time>2026-08-20T18:15:31Z</time></trkpt><trkpt lat="59.0995138977" lon="30.4592292756"><ele>298.15</ele><time>2026-08-20T18:15:32Z</time></trkpt><trkpt lat="59.0995138977" lon="30.4592292756"><ele>298.15</ele><time>2026-08-20T18:15:33Z</time></trkpt><trkpt lat="59.0995138977" lon="30.4592292756"><ele>298.15</ele><time>2026-08-20T18:15:34Z</time></trkpt><trkpt lat="59.0995138977" lon="30.4592292756"><ele>298.15</ele><time>2026-08-20T18:15:35Z</time></trkpt><trkpt lat="59.0995138977" lon="30.4592292756"><ele>298.15</ele><time>2026-08-20T18:15:36Z</time></trkpt><trkpt lat="59.0995138977" lon="30.4592292756"><ele>298.15</ele><time>2026-08-20T18:15:37Z</time></trkpt><trkpt lat="59.0995138977" lon="30.4592292756"><ele>298.15</ele><time>2026-08-20T18:15:38Z</time></trkpt><trkpt lat="59.0995138977" lon="30.4592292756"><ele>298.15</ele><time>2026-08-20T18:15:39Z</time></trkpt><trkpt lat="59.0995138977" lon="30.4592292756"><ele>298.15</ele><time>2026-08-20T18:15:40Z</time></trkpt><trkpt lat="59.0995138977" lon="30.4592292756"><ele>298.15</ele><time>2026-08-20T18:15:41Z</time></trkpt><trkpt lat="59.0995138977" lon="30.4592292756"><ele>298.15</ele><time>2026-08-20T18:15:42Z</time></trkpt><trkpt lat="59.0995138977" lon="30.4592292756"><ele>298.15</ele><time>2026-08-20T18:15:43Z</time></trkpt><trkpt lat="59.0995138977" lon="30.4592292756"><ele>298.15</ele><time>2026-08-20T18:15:44Z</time></trkpt><trkpt lat="59.0995138977" lon="30.4592292756"><ele>298.15</ele><time>2026-08-20T18:15:45Z</time></trkpt><trkpt lat="59.0995138977" lon="30.4592292756"><ele>298.15</ele><time>2026-08-20T18:15:46Z</time></trkpt><trkpt lat="59.0995138977" lon="30.4592292756"><ele>298.15</ele><time>2026-08-20T18:15:47Z</time></trkpt><trkpt lat="59.0995138977" lon="30.4592292756"><ele>298.15</ele><time>2026-08-20T18:15:48Z</time></trkpt><trkpt lat="59.0995138977" lon="30.4592292756"><ele>298.15</ele><time>2026-08-20T18:15:49Z</time></trkpt><trkpt lat="59.0995138977" lon="30.4592292756"><ele>298.15</ele><time>2026-08-20T18:15:50Z</time></trkpt><trkpt lat="59.0995138977" lon="30.4592292756"><ele>298.15</ele><time>2026-08-20T18:15:51Z</time></trkpt><trkpt lat="59.0995138977" lon="30.4592292756"><ele>298.15</ele><time>2026-08-20T18:15:52Z</time></trkpt><trkpt lat="59.0995138977" lon="30.4592292756"><ele>297.67</ele><time>2026-08-20T18:15:53Z</time></trkpt><trkpt lat="59.0995138977" lon="30.4592292756"><ele>297.67</ele><time>2026-08-20T18:15:54Z</time></trkpt><trkpt lat="59.0995138977" lon="30.4592292756"><ele>297.67</ele><time>2026-08-20T18:15:55Z</time></trkpt><trkpt lat="59.0995138977" lon="30.4592292756"><ele>298.15</ele><time>2026-08-20T18:15:56Z</time></trkpt><trkpt lat="59.0995138977" lon="30.4592292756"><ele>298.15</ele><time>2026-08-20T18:15:57Z</time></trkpt><trkpt lat="59.0995138977" lon="30.4592292756"><ele>298.15</ele><time>2026-08-20T18:15:58Z</time></trkpt><trkpt lat="59.0995138977" lon="30.4592292756"><ele>298.15</ele><time>2026-08-20T18:15:59Z</time></trkpt><trkpt lat="59.0995138977" lon="30.4592292756"><ele>298.15</ele><time>2026-08-20T18:16:00Z</time></trkpt><trkpt lat="59.0995292366" lon="30.4592402559"><ele>298.15</ele><time>2026-08-20T18:16:01Z</time></trkpt><trkpt lat="59.0995262191" lon="30.4592507333"><ele>298.15</ele><time>2026-08-20T18:16:02Z</time></trkpt><trkpt lat="59.0995267220" lon="30.4592527449"><ele>298.15</ele><time>2026-08-20T18:16:03Z</time></trkpt><trkpt lat="59.0995271411" lon="30.4592515714"><ele>298.15</ele><time>2026-08-20T18:16:04Z</time></trkpt><trkpt lat="59.0995305777" lon="30.4592423514"><ele>298.15</ele><time>2026-08-20T18:16:05Z</time></trkpt><trkpt lat="59.0995305777" lon="30.4592423514"><ele>298.15</ele><time>2026-08-20T18:16:06Z</time></trkpt><trkpt lat="59.0995367803" lon="30.4592167865"><ele>298.15</ele><time>2026-08-20T18:16:07Z</time></trkpt><trkpt lat="59.0995385405" lon="30.4592184629"><ele>298.15</ele><time>2026-08-20T18:16:08Z</time></trkpt><trkpt lat="59.0995428991" lon="30.4592251685"><ele>298.15</ele><time>2026-08-20T18:16:09Z</time></trkpt><trkpt lat="59.0995459165" lon="30.4592304491"><ele>298.15</ele><time>2026-08-20T18:16:10Z</time></trkpt><trkpt lat="59.0995447431" lon="30.4592454527"><ele>298.15</ele><time>2026-08-20T18:16:11Z</time></trkpt><trkpt lat="59.0995461680" lon="30.4592605401"><ele>297.67</ele><time>2026-08-20T18:16:12Z</time></trkpt><trkpt lat="59.0995496884" lon="30.4592777230"><ele>297.67</ele><time>2026-08-20T18:16:13Z</time></trkpt><trkpt lat="59.0995560586" lon="30.4592965823"><ele>297.67</ele><time>2026-08-20T18:16:14Z</time></trkpt><trkpt lat="59.0995608363" lon="30.4593159445"><ele>297.67</ele><time>2026-08-20T18:16:15Z</time></trkpt><trkpt lat="59.0995644405" lon="30.4593335465"><ele>297.67</ele><time>2026-08-20T18:16:16Z</time></trkpt><trkpt lat="59.0995673742" lon="30.4593519866"><ele>297.67</ele><time>2026-08-20T18:16:17Z</time></trkpt><trkpt lat="59.0995686315" lon="30.4593669903"><ele>297.67</ele><time>2026-08-20T18:16:18Z</time></trkpt><trkpt lat="59.0995659493" lon="30.4593752883"><ele>297.67</ele><time>2026-08-20T18:16:19Z</time></trkpt><trkpt lat="59.0995638538" lon="30.4593777191"><ele>297.67</ele><time>2026-08-20T18:16:20Z</time></trkpt><trkpt lat="59.0995638538" lon="30.4593777191"><ele>298.15</ele><time>2026-08-20T18:16:21Z</time></trkpt><trkpt lat="59.0995638538" lon="30.4593777191"><ele>298.15</ele><time>2026-08-20T18:16:22Z</time></trkpt><trkpt lat="59.0995632671" lon="30.4593858495"><ele>298.15</ele><time>2026-08-20T18:16:23Z</time></trkpt><trkpt lat="59.0995700564" lon="30.4593979195"><ele>298.15</ele><time>2026-08-20T18:16:24Z</time></trkpt><trkpt lat="59.0995792765" lon="30.4594098218"><ele>298.15</ele><time>2026-08-20T18:16:25Z</time></trkpt><trkpt lat="59.0995861497" lon="30.4594240710"><ele>298.15</ele><time>2026-08-20T18:16:26Z</time></trkpt><trkpt lat="59.0995950345" lon="30.4594371468"><ele>298.15</ele><time>2026-08-20T18:16:27Z</time></trkpt><trkpt lat="59.0996031649" lon="30.4594525695"><ele>298.15</ele><time>2026-08-20T18:16:28Z</time></trkpt><trkpt lat="59.0996140614" lon="30.4594608676"><ele>297.67</ele><time>2026-08-20T18:16:29Z</time></trkpt><trkpt lat="59.0996227786" lon="30.4594707582"><ele>297.67</ele><time>2026-08-20T18:16:30Z</time></trkpt><trkpt lat="59.0996284783" lon="30.4594844207"><ele>297.67</ele><time>2026-08-20T18:16:31Z</time></trkpt><trkpt lat="59.0996315796" lon="30.4595088959"><ele>297.67</ele><time>2026-08-20T18:16:32Z</time></trkpt><trkpt lat="59.0996356867" lon="30.4595324490"><ele>297.67</ele><time>2026-08-20T18:16:33Z</time></trkpt><trkpt lat="59.0996417217" lon="30.4595534876"><ele>297.67</ele><time>2026-08-20T18:16:34Z</time></trkpt><trkpt lat="59.0996494330" lon="30.4595757835"><ele>297.67</ele><time>2026-08-20T18:16:35Z</time></trkpt><trkpt lat="59.0996587370" lon="30.4595944751"><ele>297.67</ele><time>2026-08-20T18:16:36Z</time></trkpt><trkpt lat="59.0996653587" lon="30.4596174415"><ele>298.15</ele><time>2026-08-20T18:16:37Z</time></trkpt><trkpt lat="59.0996720642" lon="30.4596376419"><ele>298.15</ele><time>2026-08-20T18:16:38Z</time></trkpt><trkpt lat="59.0996824577" lon="30.4596548248"><ele>298.15</ele><time>2026-08-20T18:16:39Z</time></trkpt><trkpt lat="59.0996907558" lon="30.4596750252"><ele>298.15</ele><time>2026-08-20T18:16:40Z</time></trkpt><trkpt lat="59.0996965393" lon="30.4597026855"><ele>298.15</ele><time>2026-08-20T18:16:41Z</time></trkpt><trkpt lat="59.0997025743" lon="30.4597239755"><ele>298.15</ele><time>2026-08-20T18:16:42Z</time></trkpt><trkpt lat="59.0997079387" lon="30.4597423319"><ele>298.15</ele><time>2026-08-20T18:16:43Z</time></trkpt><trkpt lat="59.0997122973" lon="30.4597643763"><ele>298.15</ele><time>2026-08-20T18:16:44Z</time></trkpt><trkpt lat="59.0997172426" lon="30.4597897734"><ele>298.15</ele><time>2026-08-20T18:16:45Z</time></trkpt><trkpt lat="59.0997228585" lon="30.4598115664"><ele>298.15</ele><time>2026-08-20T18:16:46Z</time></trkpt><trkpt lat="59.0997289773" lon="30.4598329403"><ele>298.15</ele><time>2026-08-20T18:16:47Z</time></trkpt><trkpt lat="59.0997340903" lon="30.4598569963"><ele>298.15</ele><time>2026-08-20T18:16:48Z</time></trkpt><trkpt lat="59.0997380298" lon="30.4598787893"><ele>298.15</ele><time>2026-08-20T18:16:49Z</time></trkpt><trkpt lat="59.0997437295" lon="30.4598976485"><ele>298.15</ele><time>2026-08-20T18:16:50Z</time></trkpt><trkpt lat="59.0997487586" lon="30.4599218722"><ele>298.15</ele><time>2026-08-20T18:16:51Z</time></trkpt><trkpt lat="59.0997525305" lon="30.4599442519"><ele>298.15</ele><time>2026-08-20T18:16:52Z</time></trkpt><trkpt lat="59.0997560509" lon="30.4599662963"><ele>298.15</ele><time>2026-08-20T18:16:53Z</time></trkpt><trkpt lat="59.0997585654" lon="30.4599864967"><ele>298.15</ele><time>2026-08-20T18:16:54Z</time></trkpt><trkpt lat="59.0997625887" lon="30.4600051884"><ele>298.15</ele><time>2026-08-20T18:16:55Z</time></trkpt><trkpt lat="59.0997675341" lon="30.4600241315"><ele>298.15</ele><time>2026-08-20T18:16:56Z</time></trkpt><trkpt lat="59.0997720603" lon="30.4600468464"><ele>298.15</ele><time>2026-08-20T18:16:57Z</time></trkpt><trkpt lat="59.0997758321" lon="30.4600773565"><ele>298.15</ele><time>2026-08-20T18:16:58Z</time></trkpt><trkpt lat="59.0997803584" lon="30.4601078667"><ele>298.15</ele><time>2026-08-20T18:16:59Z</time></trkpt><trkpt lat="59.0997834597" lon="30.4601344373"><ele>298.15</ele><time>2026-08-20T18:17:00Z</time></trkpt><trkpt lat="59.0997864772" lon="30.4601603374"><ele>298.15</ele><time>2026-08-20T18:17:01Z</time></trkpt><trkpt lat="59.0997909196" lon="30.4601787776"><ele>298.15</ele><time>2026-08-20T18:17:02Z</time></trkpt><trkpt lat="59.0997978766" lon="30.4601867404"><ele>298.15</ele><time>2026-08-20T18:17:03Z</time></trkpt><trkpt lat="59.0998024866" lon="30.4602036718"><ele>298.15</ele><time>2026-08-20T18:17:04Z</time></trkpt><trkpt lat="59.0998084377" lon="30.4602240399"><ele>298.15</ele><time>2026-08-20T18:17:05Z</time></trkpt><trkpt lat="59.0998139698" lon="30.4602421448"><ele>298.15</ele><time>2026-08-20T18:17:06Z</time></trkpt><trkpt lat="59.0998185799" lon="30.4602589924"><ele>298.15</ele><time>2026-08-20T18:17:07Z</time></trkpt><trkpt lat="59.0998247825" lon="30.4602731578"><ele>298.15</ele><time>2026-08-20T18:17:08Z</time></trkpt><trkpt lat="59.0998337511" lon="30.4602878261"><ele>298.15</ele><time>2026-08-20T18:17:09Z</time></trkpt><trkpt lat="59.0998439770" lon="30.4603064340"><ele>298.15</ele><time>2026-08-20T18:17:10Z</time></trkpt><trkpt lat="59.0998527780" lon="30.4603268858"><ele>298.15</ele><time>2026-08-20T18:17:11Z</time></trkpt><trkpt lat="59.0998613276" lon="30.4603494331"><ele>298.15</ele><time>2026-08-20T18:17:12Z</time></trkpt><trkpt lat="59.0998698771" lon="30.4603746627"><ele>298.15</ele><time>2026-08-20T18:17:13Z</time></trkpt><trkpt lat="59.0998770855" lon="30.4603996407"><ele>298.15</ele><time>2026-08-20T18:17:14Z</time></trkpt><trkpt lat="59.0998833720" lon="30.4604259599"><ele>298.15</ele><time>2026-08-20T18:17:15Z</time></trkpt><trkpt lat="59.0998902451" lon="30.4604483396"><ele>298.15</ele><time>2026-08-20T18:17:16Z</time></trkpt><trkpt lat="59.0998946875" lon="30.4604718927"><ele>298.15</ele><time>2026-08-20T18:17:17Z</time></trkpt><trkpt lat="59.0999032371" lon="30.4604890756"><ele>298.15</ele><time>2026-08-20T18:17:18Z</time></trkpt><trkpt lat="59.0999110322" lon="30.4605075996"><ele>298.15</ele><time>2026-08-20T18:17:19Z</time></trkpt><trkpt lat="59.0999177378" lon="30.4605252855"><ele>298.15</ele><time>2026-08-20T18:17:20Z</time></trkpt><trkpt lat="59.0999256168" lon="30.4605463240"><ele>298.15</ele><time>2026-08-20T18:17:21Z</time></trkpt><trkpt lat="59.0999310650" lon="30.4605675302"><ele>298.15</ele><time>2026-08-20T18:17:22Z</time></trkpt><trkpt lat="59.0999353398" lon="30.4605887365"><ele>298.15</ele><time>2026-08-20T18:17:23Z</time></trkpt><trkpt lat="59.0999384411" lon="30.4606101941"><ele>298.15</ele><time>2026-08-20T18:17:24Z</time></trkpt><trkpt lat="59.0999432188" lon="30.4606318194"><ele>298.15</ele><time>2026-08-20T18:17:25Z</time></trkpt><trkpt lat="59.0999455657" lon="30.4606514331"><ele>298.15</ele><time>2026-08-20T18:17:26Z</time></trkpt><trkpt lat="59.0999483317" lon="30.4606704600"><ele>298.15</ele><time>2026-08-20T18:17:27Z</time></trkpt><trkpt lat="59.0999517683" lon="30.4606927559"><ele>298.15</ele><time>2026-08-20T18:17:28Z</time></trkpt><trkpt lat="59.0999543667" lon="30.4607133754"><ele>298.15</ele><time>2026-08-20T18:17:29Z</time></trkpt><trkpt lat="59.0999562945" lon="30.4607287981"><ele>298.15</ele><time>2026-08-20T18:17:30Z</time></trkpt><trkpt lat="59.0999562945" lon="30.4607323185"><ele>298.15</ele><time>2026-08-20T18:17:31Z</time></trkpt><trkpt lat="59.0999557916" lon="30.4607347492"><ele>298.15</ele><time>2026-08-20T18:17:32Z</time></trkpt><trkpt lat="59.0999557916" lon="30.4607347492"><ele>298.15</ele><time>2026-08-20T18:17:33Z</time></trkpt><trkpt lat="59.0999557916" lon="30.4607347492"><ele>298.15</ele><time>2026-08-20T18:17:34Z</time></trkpt><trkpt lat="59.0999557916" lon="30.4607347492"><ele>298.15</ele><time>2026-08-20T18:17:35Z</time></trkpt><trkpt lat="59.0999557916" lon="30.4607347492"><ele>298.15</ele><time>2026-08-20T18:17:36Z</time></trkpt><trkpt lat="59.0999568813" lon="30.4607491661"><ele>298.15</ele><time>2026-08-20T18:17:37Z</time></trkpt><trkpt lat="59.0999590605" lon="30.4607615713"><ele>298.15</ele><time>2026-08-20T18:17:38Z</time></trkpt><trkpt lat="59.0999604855" lon="30.4607827775"><ele>298.15</ele><time>2026-08-20T18:17:39Z</time></trkpt><trkpt lat="59.0999627486" lon="30.4608054925"><ele>298.15</ele><time>2026-08-20T18:17:40Z</time></trkpt><trkpt lat="59.0999650955" lon="30.4608257767"><ele>298.15</ele><time>2026-08-20T18:17:41Z</time></trkpt><trkpt lat="59.0999656823" lon="30.4608475696"><ele>298.15</ele><time>2026-08-20T18:17:42Z</time></trkpt><trkpt lat="59.0999681968" lon="30.4608678538"><ele>298.15</ele><time>2026-08-20T18:17:43Z</time></trkpt><trkpt lat="59.0999712981" lon="30.4608906526"><ele>298.15</ele><time>2026-08-20T18:17:44Z</time></trkpt><trkpt lat="59.0999781713" lon="30.4609089252"><ele>298.15</ele><time>2026-08-20T18:17:45Z</time></trkpt><trkpt lat="59.0999795962" lon="30.4609357473"><ele>298.15</ele><time>2026-08-20T18:17:46Z</time></trkpt><trkpt lat="59.0999832842" lon="30.4609619826"><ele>297.67</ele><time>2026-08-20T18:17:47Z</time></trkpt><trkpt lat="59.0999876428" lon="30.4609853681"><ele>297.67</ele><time>2026-08-20T18:17:48Z</time></trkpt><trkpt lat="59.0999899898" lon="30.4610055685"><ele>297.67</ele><time>2026-08-20T18:17:49Z</time></trkpt><trkpt lat="59.0999918338" lon="30.4610219970"><ele>297.67</ele><time>2026-08-20T18:17:50Z</time></trkpt><trkpt lat="59.0999973658" lon="30.4610353243"><ele>297.67</ele><time>2026-08-20T18:17:51Z</time></trkpt><trkpt lat="59.1000047419" lon="30.4610452987"><ele>297.67</ele><time>2026-08-20T18:17:52Z</time></trkpt><trkpt lat="59.1000042390" lon="30.4610657506"><ele>298.15</ele><time>2026-08-20T18:17:53Z</time></trkpt><trkpt lat="59.1000088491" lon="30.4610800836"><ele>298.15</ele><time>2026-08-20T18:17:54Z</time></trkpt><trkpt lat="59.1000080947" lon="30.4610927403"><ele>298.15</ele><time>2026-08-20T18:17:55Z</time></trkpt><trkpt lat="59.1000077594" lon="30.4611048941"><ele>298.15</ele><time>2026-08-20T18:17:56Z</time></trkpt><trkpt lat="59.1000058316" lon="30.4611164611"><ele>298.15</ele><time>2026-08-20T18:17:57Z</time></trkpt><trkpt lat="59.1000129562" lon="30.4611331411"><ele>298.15</ele><time>2026-08-20T18:17:58Z</time></trkpt><trkpt lat="59.1000145487" lon="30.4611506592"><ele>298.15</ele><time>2026-08-20T18:17:59Z</time></trkpt><trkpt lat="59.1000150517" lon="30.4611650761"><ele>297.67</ele><time>2026-08-20T18:18:00Z</time></trkpt><trkpt lat="59.1000177339" lon="30.4611790739"><ele>297.67</ele><time>2026-08-20T18:18:01Z</time></trkpt><trkpt lat="59.1000209190" lon="30.4611956701"><ele>297.67</ele><time>2026-08-20T18:18:02Z</time></trkpt><trkpt lat="59.1000221763" lon="30.4612111766"><ele>297.67</ele><time>2026-08-20T18:18:03Z</time></trkpt><trkpt lat="59.1000191588" lon="30.4612321313"><ele>297.67</ele><time>2026-08-20T18:18:04Z</time></trkpt><trkpt lat="59.1000174824" lon="30.4612501524"><ele>297.67</ele><time>2026-08-20T18:18:05Z</time></trkpt><trkpt lat="59.1000140458" lon="30.4612790700"><ele>297.67</ele><time>2026-08-20T18:18:06Z</time></trkpt><trkpt lat="59.1000145487" lon="30.4612966720"><ele>297.67</ele><time>2026-08-20T18:18:07Z</time></trkpt><trkpt lat="59.1000144649" lon="30.4613136873"><ele>297.67</ele><time>2026-08-20T18:18:08Z</time></trkpt><trkpt lat="59.1000131238" lon="30.4613323789"><ele>297.67</ele><time>2026-08-20T18:18:09Z</time></trkpt><trkpt lat="59.1000119504" lon="30.4613520764"><ele>297.67</ele><time>2026-08-20T18:18:10Z</time></trkpt><trkpt lat="59.1000190750" lon="30.4613655712"><ele>297.67</ele><time>2026-08-20T18:18:11Z</time></trkpt><trkpt lat="59.1000186559" lon="30.4613829218"><ele>297.67</ele><time>2026-08-20T18:18:12Z</time></trkpt><trkpt lat="59.1000177339" lon="30.4614017811"><ele>297.67</ele><time>2026-08-20T18:18:13Z</time></trkpt><trkpt lat="59.1000176501" lon="30.4614232387"><ele>297.67</ele><time>2026-08-20T18:18:14Z</time></trkpt><trkpt lat="59.1000187397" lon="30.4614464566"><ele>297.67</ele><time>2026-08-20T18:18:15Z</time></trkpt><trkpt lat="59.1000203323" lon="30.4614698421"><ele>298.15</ele><time>2026-08-20T18:18:16Z</time></trkpt><trkpt lat="59.1000210866" lon="30.4614932276"><ele>298.15</ele><time>2026-08-20T18:18:17Z</time></trkpt><trkpt lat="59.1000229307" lon="30.4615172837"><ele>298.15</ele><time>2026-08-20T18:18:18Z</time></trkpt><trkpt lat="59.1000250261" lon="30.4615316167"><ele>298.15</ele><time>2026-08-20T18:18:19Z</time></trkpt><trkpt lat="59.1000259481" lon="30.4615514819"><ele>297.67</ele><time>2026-08-20T18:18:20Z</time></trkpt><trkpt lat="59.1000228468" lon="30.4615719337"><ele>297.67</ele><time>2026-08-20T18:18:21Z</time></trkpt><trkpt lat="59.1000207514" lon="30.4615904577"><ele>297.67</ele><time>2026-08-20T18:18:22Z</time></trkpt><trkpt lat="59.1000130400" lon="30.4616191238"><ele>297.67</ele><time>2026-08-20T18:18:23Z</time></trkpt><trkpt lat="59.1000061668" lon="30.4616445210"><ele>297.67</ele><time>2026-08-20T18:18:24Z</time></trkpt><trkpt lat="59.0999996290" lon="30.4616695829"><ele>297.67</ele><time>2026-08-20T18:18:25Z</time></trkpt><trkpt lat="59.0999959409" lon="30.4616939742"><ele>297.67</ele><time>2026-08-20T18:18:26Z</time></trkpt><trkpt lat="59.0999922529" lon="30.4617218859"><ele>297.67</ele><time>2026-08-20T18:18:27Z</time></trkpt><trkpt lat="59.0999864694" lon="30.4617494624"><ele>297.67</ele><time>2026-08-20T18:18:28Z</time></trkpt><trkpt lat="59.0999802668" lon="30.4617758654"><ele>297.67</ele><time>2026-08-20T18:18:29Z</time></trkpt><trkpt lat="59.0999762435" lon="30.4617982451"><ele>297.67</ele><time>2026-08-20T18:18:30Z</time></trkpt><trkpt lat="59.0999680292" lon="30.4618271627"><ele>297.67</ele><time>2026-08-20T18:18:31Z</time></trkpt><trkpt lat="59.0999609884" lon="30.4618614446"><ele>297.67</ele><time>2026-08-20T18:18:32Z</time></trkpt><trkpt lat="59.0999565460" lon="30.4618817288"><ele>297.18</ele><time>2026-08-20T18:18:33Z</time></trkpt><trkpt lat="59.0999551211" lon="30.4618991632"><ele>297.18</ele><time>2026-08-20T18:18:34Z</time></trkpt><trkpt lat="59.0999551211" lon="30.4619216267"><ele>297.18</ele><time>2026-08-20T18:18:35Z</time></trkpt><trkpt lat="59.0999534447" lon="30.4619386420"><ele>297.18</ele><time>2026-08-20T18:18:36Z</time></trkpt><trkpt lat="59.0999518521" lon="30.4619546514"><ele>297.18</ele><time>2026-08-20T18:18:37Z</time></trkpt><trkpt lat="59.0999518521" lon="30.4619666375"><ele>297.18</ele><time>2026-08-20T18:18:38Z</time></trkpt><trkpt lat="59.0999476612" lon="30.4619936273"><ele>297.18</ele><time>2026-08-20T18:18:39Z</time></trkpt><trkpt lat="59.0999445599" lon="30.4620148335"><ele>297.18</ele><time>2026-08-20T18:18:40Z</time></trkpt><trkpt lat="59.0999423806" lon="30.4620325193"><ele>297.18</ele><time>2026-08-20T18:18:41Z</time></trkpt><trkpt lat="59.0999395307" lon="30.4620364588"><ele>297.18</ele><time>2026-08-20T18:18:42Z</time></trkpt><trkpt lat="59.0999392793" lon="30.4620374646"><ele>297.18</ele><time>2026-08-20T18:18:43Z</time></trkpt><trkpt lat="59.0999385249" lon="30.4620455950"><ele>297.18</ele><time>2026-08-20T18:18:44Z</time></trkpt><trkpt lat="59.0999366809" lon="30.4620606825"><ele>297.18</ele><time>2026-08-20T18:18:45Z</time></trkpt><trkpt lat="59.0999366809" lon="30.4620606825"><ele>296.70</ele><time>2026-08-20T18:18:46Z</time></trkpt><trkpt lat="59.0999366809" lon="30.4620606825"><ele>296.70</ele><time>2026-08-20T18:18:47Z</time></trkpt><trkpt lat="59.0999366809" lon="30.4620606825"><ele>296.70</ele><time>2026-08-20T18:18:48Z</time></trkpt><trkpt lat="59.0999348368" lon="30.4620825592"><ele>296.70</ele><time>2026-08-20T18:18:49Z</time></trkpt><trkpt lat="59.0999320708" lon="30.4620873369"><ele>296.70</ele><time>2026-08-20T18:18:50Z</time></trkpt><trkpt lat="59.0999291372" lon="30.4620929528"><ele>296.70</ele><time>2026-08-20T18:18:51Z</time></trkpt><trkpt lat="59.0999250300" lon="30.4620972276"><ele>296.70</ele><time>2026-08-20T18:18:52Z</time></trkpt><trkpt lat="59.0999209229" lon="30.4621097166"><ele>296.70</ele><time>2026-08-20T18:18:53Z</time></trkpt><trkpt lat="59.0999146365" lon="30.4621178471"><ele>296.70</ele><time>2026-08-20T18:18:54Z</time></trkpt><trkpt lat="59.0999112837" lon="30.4621254746"><ele>296.70</ele><time>2026-08-20T18:18:55Z</time></trkpt><trkpt lat="59.0999067575" lon="30.4621354491"><ele>296.70</ele><time>2026-08-20T18:18:56Z</time></trkpt><trkpt lat="59.0999053326" lon="30.4621522967"><ele>296.70</ele><time>2026-08-20T18:18:57Z</time></trkpt><trkpt lat="59.0999052487" lon="30.4621689767"><ele>296.70</ele><time>2026-08-20T18:18:58Z</time></trkpt><trkpt lat="59.0999064222" lon="30.4621858243"><ele>296.70</ele><time>2026-08-20T18:18:59Z</time></trkpt><trkpt lat="59.0999074280" lon="30.4622003250"><ele>296.70</ele><time>2026-08-20T18:19:00Z</time></trkpt><trkpt lat="59.0999079309" lon="30.4622014984"><ele>296.70</ele><time>2026-08-20T18:19:01Z</time></trkpt><trkpt lat="59.0999086853" lon="30.4622064438"><ele>296.70</ele><time>2026-08-20T18:19:02Z</time></trkpt><trkpt lat="59.0999107808" lon="30.4622147419"><ele>296.70</ele><time>2026-08-20T18:19:03Z</time></trkpt><trkpt lat="59.0999139659" lon="30.4622261412"><ele>297.18</ele><time>2026-08-20T18:19:04Z</time></trkpt><trkpt lat="59.0999191627" lon="30.4622384626"><ele>297.18</ele><time>2026-08-20T18:19:05Z</time></trkpt><trkpt lat="59.0999267902" lon="30.4622575734"><ele>297.18</ele><time>2026-08-20T18:19:06Z</time></trkpt><trkpt lat="59.0999334957" lon="30.4622729961"><ele>297.18</ele><time>2026-08-20T18:19:07Z</time></trkpt><trkpt lat="59.0999389440" lon="30.4622908495"><ele>297.18</ele><time>2026-08-20T18:19:08Z</time></trkpt><trkpt lat="59.0999404527" lon="30.4623118881"><ele>297.18</ele><time>2026-08-20T18:19:09Z</time></trkpt><trkpt lat="59.0999454819" lon="30.4623322561"><ele>297.18</ele><time>2026-08-20T18:19:10Z</time></trkpt><trkpt lat="59.0999490861" lon="30.4623531271"><ele>297.18</ele><time>2026-08-20T18:19:11Z</time></trkpt><trkpt lat="59.0999525227" lon="30.4623728245"><ele>297.18</ele><time>2026-08-20T18:19:12Z</time></trkpt><trkpt lat="59.0999546181" lon="30.4623846430"><ele>297.18</ele><time>2026-08-20T18:19:13Z</time></trkpt><trkpt lat="59.0999561269" lon="30.4623890854"><ele>297.18</ele><time>2026-08-20T18:19:14Z</time></trkpt><trkpt lat="59.0999547858" lon="30.4623980541"><ele>297.18</ele><time>2026-08-20T18:19:15Z</time></trkpt><trkpt lat="59.0999557916" lon="30.4624049272"><ele>297.18</ele><time>2026-08-20T18:19:16Z</time></trkpt><trkpt lat="59.0999575518" lon="30.4624096211"><ele>297.18</ele><time>2026-08-20T18:19:17Z</time></trkpt><trkpt lat="59.0999575518" lon="30.4624096211"><ele>297.67</ele><time>2026-08-20T18:19:18Z</time></trkpt><trkpt lat="59.0999587253" lon="30.4624145664"><ele>297.67</ele><time>2026-08-20T18:19:19Z</time></trkpt><trkpt lat="59.0999628324" lon="30.4624245409"><ele>297.67</ele><time>2026-08-20T18:19:20Z</time></trkpt><trkpt lat="59.0999652632" lon="30.4624363594"><ele>297.67</ele><time>2026-08-20T18:19:21Z</time></trkpt><trkpt lat="59.0999693703" lon="30.4624482617"><ele>297.67</ele><time>2026-08-20T18:19:22Z</time></trkpt><trkpt lat="59.0999722201" lon="30.4624590743"><ele>297.67</ele><time>2026-08-20T18:19:23Z</time></trkpt><trkpt lat="59.0999730583" lon="30.4624730721"><ele>297.67</ele><time>2026-08-20T18:19:24Z</time></trkpt><trkpt lat="59.0999785904" lon="30.4624859802"><ele>297.67</ele><time>2026-08-20T18:19:25Z</time></trkpt><trkpt lat="59.0999810211" lon="30.4625024926"><ele>297.67</ele><time>2026-08-20T18:19:26Z</time></trkpt><trkpt lat="59.0999818593" lon="30.4625250399"><ele>297.67</ele><time>2026-08-20T18:19:27Z</time></trkpt><trkpt lat="59.0999791771" lon="30.4625454918"><ele>297.67</ele><time>2026-08-20T18:19:28Z</time></trkpt><trkpt lat="59.0999782551" lon="30.4625622556"><ele>297.67</ele><time>2026-08-20T18:19:29Z</time></trkpt><trkpt lat="59.0999779198" lon="30.4625796899"><ele>297.67</ele><time>2026-08-20T18:19:30Z</time></trkpt><trkpt lat="59.0999787580" lon="30.4625952803"><ele>297.67</ele><time>2026-08-20T18:19:31Z</time></trkpt><trkpt lat="59.0999774169" lon="30.4626122955"><ele>297.67</ele><time>2026-08-20T18:19:32Z</time></trkpt><trkpt lat="59.0999793448" lon="30.4626259580"><ele>297.67</ele><time>2026-08-20T18:19:33Z</time></trkpt><trkpt lat="59.0999779198" lon="30.4626455717"><ele>298.15</ele><time>2026-08-20T18:19:34Z</time></trkpt><trkpt lat="59.0999783389" lon="30.4626648501"><ele>298.15</ele><time>2026-08-20T18:19:35Z</time></trkpt><trkpt lat="59.0999777522" lon="30.4626858886"><ele>298.15</ele><time>2026-08-20T18:19:36Z</time></trkpt><trkpt lat="59.0999790933" lon="30.4627093580"><ele>298.15</ele><time>2026-08-20T18:19:37Z</time></trkpt><trkpt lat="59.0999796800" lon="30.4627336655"><ele>298.15</ele><time>2026-08-20T18:19:38Z</time></trkpt><trkpt lat="59.0999800991" lon="30.4627587274"><ele>298.63</ele><time>2026-08-20T18:19:39Z</time></trkpt><trkpt lat="59.0999786742" lon="30.4627856333"><ele>298.63</ele><time>2026-08-20T18:19:40Z</time></trkpt><trkpt lat="59.0999759920" lon="30.4628105275"><ele>298.63</ele><time>2026-08-20T18:19:41Z</time></trkpt><trkpt lat="59.0999736451" lon="30.4628337454"><ele>298.63</ele><time>2026-08-20T18:19:42Z</time></trkpt><trkpt lat="59.0999769978" lon="30.4628510959"><ele>298.63</ele><time>2026-08-20T18:19:43Z</time></trkpt><trkpt lat="59.0999778360" lon="30.4628691170"><ele>298.63</ele><time>2026-08-20T18:19:44Z</time></trkpt><trkpt lat="59.0999832842" lon="30.4628884792"><ele>298.63</ele><time>2026-08-20T18:19:45Z</time></trkpt><trkpt lat="59.0999843739" lon="30.4629098531"><ele>298.63</ele><time>2026-08-20T18:19:46Z</time></trkpt><trkpt lat="59.0999847930" lon="30.4629311431"><ele>298.63</ele><time>2026-08-20T18:19:47Z</time></trkpt><trkpt lat="59.0999863856" lon="30.4629569594"><ele>298.63</ele><time>2026-08-20T18:19:48Z</time></trkpt><trkpt lat="59.0999848768" lon="30.4629831947"><ele>298.63</ele><time>2026-08-20T18:19:49Z</time></trkpt><trkpt lat="59.0999845415" lon="30.4630015511"><ele>298.63</ele><time>2026-08-20T18:19:50Z</time></trkpt><trkpt lat="59.0999854635" lon="30.4630175605"><ele>298.63</ele><time>2026-08-20T18:19:51Z</time></trkpt><trkpt lat="59.0999847930" lon="30.4630344920"><ele>298.63</ele><time>2026-08-20T18:19:52Z</time></trkpt><trkpt lat="59.0999845415" lon="30.4630622361"><ele>298.63</ele><time>2026-08-20T18:19:53Z</time></trkpt><trkpt lat="59.0999835357" lon="30.4630844481"><ele>298.63</ele><time>2026-08-20T18:19:54Z</time></trkpt><trkpt lat="59.0999807697" lon="30.4631135333"><ele>298.63</ele><time>2026-08-20T18:19:55Z</time></trkpt><trkpt lat="59.0999798477" lon="30.4631437920"><ele>298.63</ele><time>2026-08-20T18:19:56Z</time></trkpt><trkpt lat="59.0999740642" lon="30.4631705303"><ele>298.63</ele><time>2026-08-20T18:19:57Z</time></trkpt><trkpt lat="59.0999683645" lon="30.4631911498"><ele>298.63</ele><time>2026-08-20T18:19:58Z</time></trkpt><trkpt lat="59.0999645926" lon="30.4632061534"><ele>298.63</ele><time>2026-08-20T18:19:59Z</time></trkpt><trkpt lat="59.0999607369" lon="30.4632240906"><ele>298.63</ele><time>2026-08-20T18:20:00Z</time></trkpt><trkpt lat="59.0999566298" lon="30.4632421955"><ele>298.63</ele><time>2026-08-20T18:20:01Z</time></trkpt><trkpt lat="59.0999526903" lon="30.4632640723"><ele>298.63</ele><time>2026-08-20T18:20:02Z</time></trkpt><trkpt lat="59.0999481641" lon="30.4632876255"><ele>298.63</ele><time>2026-08-20T18:20:03Z</time></trkpt><trkpt lat="59.0999415424" lon="30.4633082449"><ele>298.63</ele><time>2026-08-20T18:20:04Z</time></trkpt><trkpt lat="59.0999363456" lon="30.4633325525"><ele>298.63</ele><time>2026-08-20T18:20:05Z</time></trkpt><trkpt lat="59.0999318194" lon="30.4633598775"><ele>298.63</ele><time>2026-08-20T18:20:06Z</time></trkpt><trkpt lat="59.0999277961" lon="30.4633830953"><ele>298.63</ele><time>2026-08-20T18:20:07Z</time></trkpt><trkpt lat="59.0999227669" lon="30.4634017870"><ele>298.63</ele><time>2026-08-20T18:20:08Z</time></trkpt><trkpt lat="59.0999163967" lon="30.4634234961"><ele>298.63</ele><time>2026-08-20T18:20:09Z</time></trkpt><trkpt lat="59.0999117866" lon="30.4634494800"><ele>298.63</ele><time>2026-08-20T18:20:10Z</time></trkpt><trkpt lat="59.0999055840" lon="30.4634721950"><ele>298.63</ele><time>2026-08-20T18:20:11Z</time></trkpt><trkpt lat="59.0999036562" lon="30.4634954967"><ele>298.63</ele><time>2026-08-20T18:20:12Z</time></trkpt><trkpt lat="59.0999059193" lon="30.4635118414"><ele>298.63</ele><time>2026-08-20T18:20:13Z</time></trkpt><trkpt lat="59.0999023989" lon="30.4635283537"><ele>298.63</ele><time>2026-08-20T18:20:14Z</time></trkpt><trkpt lat="59.0998950228" lon="30.4635349754"><ele>298.63</ele><time>2026-08-20T18:20:15Z</time></trkpt><trkpt lat="59.0998863894" lon="30.4635455366"><ele>298.63</ele><time>2026-08-20T18:20:16Z</time></trkpt><trkpt lat="59.0998794325" lon="30.4635546729"><ele>298.63</ele><time>2026-08-20T18:20:17Z</time></trkpt><trkpt lat="59.0998738166" lon="30.4635620490"><ele>298.63</ele><time>2026-08-20T18:20:18Z</time></trkpt><trkpt lat="59.0998687875" lon="30.4635765497"><ele>298.63</ele><time>2026-08-20T18:20:19Z</time></trkpt><trkpt lat="59.0998630878" lon="30.4635989293"><ele>298.63</ele><time>2026-08-20T18:20:20Z</time></trkpt><trkpt lat="59.0998606570" lon="30.4636169504"><ele>298.63</ele><time>2026-08-20T18:20:21Z</time></trkpt><trkpt lat="59.0998586453" lon="30.4636319540"><ele>298.63</ele><time>2026-08-20T18:20:22Z</time></trkpt><trkpt lat="59.0998567175" lon="30.4636480473"><ele>298.63</ele><time>2026-08-20T18:20:23Z</time></trkpt><trkpt lat="59.0998560470" lon="30.4636630509"><ele>298.63</ele><time>2026-08-20T18:20:24Z</time></trkpt><trkpt lat="59.0998561308" lon="30.4636802338"><ele>298.63</ele><time>2026-08-20T18:20:25Z</time></trkpt><trkpt lat="59.0998539515" lon="30.4636964947"><ele>298.63</ele><time>2026-08-20T18:20:26Z</time></trkpt><trkpt lat="59.0998529457" lon="30.4637124203"><ele>298.63</ele><time>2026-08-20T18:20:27Z</time></trkpt><trkpt lat="59.0998517722" lon="30.4637255799"><ele>298.63</ele><time>2026-08-20T18:20:28Z</time></trkpt><trkpt lat="59.0998495929" lon="30.4637412541"><ele>298.63</ele><time>2026-08-20T18:20:29Z</time></trkpt><trkpt lat="59.0998534486" lon="30.4637556709"><ele>298.63</ele><time>2026-08-20T18:20:30Z</time></trkpt><trkpt lat="59.0998517722" lon="30.4637679923"><ele>298.63</ele><time>2026-08-20T18:20:31Z</time></trkpt><trkpt lat="59.0998512693" lon="30.4637780506"><ele>298.63</ele><time>2026-08-20T18:20:32Z</time></trkpt><trkpt lat="59.0998483356" lon="30.4637878574"><ele>298.63</ele><time>2026-08-20T18:20:33Z</time></trkpt><trkpt lat="59.0998495929" lon="30.4637968261"><ele>298.63</ele><time>2026-08-20T18:20:34Z</time></trkpt><trkpt lat="59.0998485871" lon="30.4638076387"><ele>298.63</ele><time>2026-08-20T18:20:35Z</time></trkpt><trkpt lat="59.0998485871" lon="30.4638076387"><ele>298.63</ele><time>2026-08-20T18:20:36Z</time></trkpt><trkpt lat="59.0998453181" lon="30.4638329521"><ele>298.63</ele><time>2026-08-20T18:20:37Z</time></trkpt><trkpt lat="59.0998449828" lon="30.4638453573"><ele>298.63</ele><time>2026-08-20T18:20:38Z</time></trkpt><trkpt lat="59.0998455696" lon="30.4638584331"><ele>298.63</ele><time>2026-08-20T18:20:39Z</time></trkpt><trkpt lat="59.0998493414" lon="30.4638656415"><ele>298.63</ele><time>2026-08-20T18:20:40Z</time></trkpt><trkpt lat="59.0998524427" lon="30.4638775438"><ele>298.63</ele><time>2026-08-20T18:20:41Z</time></trkpt><trkpt lat="59.0998555440" lon="30.4638881888"><ele>298.63</ele><time>2026-08-20T18:20:42Z</time></trkpt><trkpt lat="59.0998555440" lon="30.4639009293"><ele>298.63</ele><time>2026-08-20T18:20:43Z</time></trkpt><trkpt lat="59.0998551250" lon="30.4639195371"><ele>298.63</ele><time>2026-08-20T18:20:44Z</time></trkpt><trkpt lat="59.0998576395" lon="30.4639347922"><ele>298.63</ele><time>2026-08-20T18:20:45Z</time></trkpt><trkpt lat="59.0998608246" lon="30.4639473651"><ele>298.63</ele><time>2026-08-20T18:20:46Z</time></trkpt><trkpt lat="59.0998648480" lon="30.4639616981"><ele>298.63</ele><time>2026-08-20T18:20:47Z</time></trkpt><trkpt lat="59.0998664405" lon="30.4639782943"><ele>298.63</ele><time>2026-08-20T18:20:48Z</time></trkpt><trkpt lat="59.0998705477" lon="30.4639937170"><ele>298.63</ele><time>2026-08-20T18:20:49Z</time></trkpt><trkpt lat="59.0998763312" lon="30.4640029371"><ele>298.63</ele><time>2026-08-20T18:20:50Z</time></trkpt><trkpt lat="59.0998836234" lon="30.4640175216"><ele>298.63</ele><time>2026-08-20T18:20:51Z</time></trkpt><trkpt lat="59.0998867247" lon="30.4640393984"><ele>298.63</ele><time>2026-08-20T18:20:52Z</time></trkpt><trkpt lat="59.0998963639" lon="30.4640523903"><ele>298.63</ele><time>2026-08-20T18:20:53Z</time></trkpt><trkpt lat="59.0999026503" lon="30.4640705790"><ele>298.63</ele><time>2026-08-20T18:20:54Z</time></trkpt><trkpt lat="59.0999009740" lon="30.4640854988"><ele>298.63</ele><time>2026-08-20T18:20:55Z</time></trkpt><trkpt lat="59.0999005549" lon="30.4641010892"><ele>298.63</ele><time>2026-08-20T18:20:56Z</time></trkpt><trkpt lat="59.0999024827" lon="30.4641078785"><ele>298.63</ele><time>2026-08-20T18:20:57Z</time></trkpt><trkpt lat="59.0999024827" lon="30.4641180206"><ele>298.63</ele><time>2026-08-20T18:20:58Z</time></trkpt><trkpt lat="59.0999024827" lon="30.4641180206"><ele>298.63</ele><time>2026-08-20T18:20:59Z</time></trkpt><trkpt lat="59.0999024827" lon="30.4641180206"><ele>298.63</ele><time>2026-08-20T18:21:00Z</time></trkpt><trkpt lat="59.0999024827" lon="30.4641180206"><ele>298.63</ele><time>2026-08-20T18:21:01Z</time></trkpt><trkpt lat="59.0999024827" lon="30.4641180206"><ele>298.63</ele><time>2026-08-20T18:21:02Z</time></trkpt><trkpt lat="59.0999094397" lon="30.4641468544"><ele>298.63</ele><time>2026-08-20T18:21:03Z</time></trkpt><trkpt lat="59.0999129601" lon="30.4641493689"><ele>298.63</ele><time>2026-08-20T18:21:04Z</time></trkpt><trkpt lat="59.0999142174" lon="30.4641480278"><ele>298.63</ele><time>2026-08-20T18:21:05Z</time></trkpt><trkpt lat="59.0999169834" lon="30.4641505424"><ele>298.63</ele><time>2026-08-20T18:21:06Z</time></trkpt><trkpt lat="59.0999211743" lon="30.4641568288"><ele>298.63</ele><time>2026-08-20T18:21:07Z</time></trkpt><trkpt lat="59.0999211743" lon="30.4641568288"><ele>298.63</ele><time>2026-08-20T18:21:08Z</time></trkpt><trkpt lat="59.0999211743" lon="30.4641568288"><ele>298.63</ele><time>2026-08-20T18:21:09Z</time></trkpt><trkpt lat="59.0999211743" lon="30.4641568288"><ele>298.63</ele><time>2026-08-20T18:21:10Z</time></trkpt><trkpt lat="59.0999250300" lon="30.4641794600"><ele>298.63</ele><time>2026-08-20T18:21:11Z</time></trkpt><trkpt lat="59.0999270417" lon="30.4641862493"><ele>298.63</ele><time>2026-08-20T18:21:12Z</time></trkpt><trkpt lat="59.0999280475" lon="30.4641882610"><ele>298.63</ele><time>2026-08-20T18:21:13Z</time></trkpt><trkpt lat="59.0999288857" lon="30.4641903564"><ele>298.63</ele><time>2026-08-20T18:21:14Z</time></trkpt><trkpt lat="59.0999303944" lon="30.4641903564"><ele>298.63</ele><time>2026-08-20T18:21:15Z</time></trkpt><trkpt lat="59.0999303944" lon="30.4641903564"><ele>298.63</ele><time>2026-08-20T18:21:16Z</time></trkpt><trkpt lat="59.0999303944" lon="30.4641903564"><ele>298.63</ele><time>2026-08-20T18:21:17Z</time></trkpt><trkpt lat="59.0999303944" lon="30.4641903564"><ele>298.63</ele><time>2026-08-20T18:21:18Z</time></trkpt><trkpt lat="59.0999303944" lon="30.4641903564"><ele>298.63</ele><time>2026-08-20T18:21:19Z</time></trkpt><trkpt lat="59.0999303944" lon="30.4641903564"><ele>298.63</ele><time>2026-08-20T18:21:20Z</time></trkpt><trkpt lat="59.0999303944" lon="30.4641903564"><ele>298.63</ele><time>2026-08-20T18:21:21Z</time></trkpt><trkpt lat="59.0999303944" lon="30.4641903564"><ele>298.63</ele><time>2026-08-20T18:21:22Z</time></trkpt><trkpt lat="59.0999303944" lon="30.4641903564"><ele>298.63</ele><time>2026-08-20T18:21:23Z</time></trkpt><trkpt lat="59.0999303944" lon="30.4641903564"><ele>298.63</ele><time>2026-08-20T18:21:24Z</time></trkpt><trkpt lat="59.0999303944" lon="30.4641903564"><ele>298.63</ele><time>2026-08-20T18:21:25Z</time></trkpt><trkpt lat="59.0999290533" lon="30.4642210342"><ele>298.63</ele><time>2026-08-20T18:21:26Z</time></trkpt><trkpt lat="59.0999287181" lon="30.4642300867"><ele>298.63</ele><time>2026-08-20T18:21:27Z</time></trkpt><trkpt lat="59.0999286342" lon="30.4642390553"><ele>298.63</ele><time>2026-08-20T18:21:28Z</time></trkpt><trkpt lat="59.0999277961" lon="30.4642481916"><ele>298.63</ele><time>2026-08-20T18:21:29Z</time></trkpt><trkpt lat="59.0999274608" lon="30.4642562382"><ele>298.63</ele><time>2026-08-20T18:21:30Z</time></trkpt><trkpt lat="59.0999262873" lon="30.4642637819"><ele>298.63</ele><time>2026-08-20T18:21:31Z</time></trkpt><trkpt lat="59.0999252815" lon="30.4642705712"><ele>298.63</ele><time>2026-08-20T18:21:32Z</time></trkpt><trkpt lat="59.0999243595" lon="30.4642791208"><ele>298.63</ele><time>2026-08-20T18:21:33Z</time></trkpt><trkpt lat="59.0999243595" lon="30.4642791208"><ele>298.63</ele><time>2026-08-20T18:21:34Z</time></trkpt><trkpt lat="59.0999243595" lon="30.4642791208"><ele>298.63</ele><time>2026-08-20T18:21:35Z</time></trkpt><trkpt lat="59.0999243595" lon="30.4642791208"><ele>298.63</ele><time>2026-08-20T18:21:36Z</time></trkpt><trkpt lat="59.0999243595" lon="30.4642791208"><ele>298.63</ele><time>2026-08-20T18:21:37Z</time></trkpt><trkpt lat="59.0999243595" lon="30.4642791208"><ele>298.63</ele><time>2026-08-20T18:21:38Z</time></trkpt><trkpt lat="59.0999243595" lon="30.4642791208"><ele>298.63</ele><time>2026-08-20T18:21:39Z</time></trkpt><trkpt lat="59.0999243595" lon="30.4642791208"><ele>298.63</ele><time>2026-08-20T18:21:40Z</time></trkpt><trkpt lat="59.0999288857" lon="30.4643327650"><ele>298.63</ele><time>2026-08-20T18:21:41Z</time></trkpt><trkpt lat="59.0999305621" lon="30.4643414821"><ele>298.63</ele><time>2026-08-20T18:21:42Z</time></trkpt><trkpt lat="59.0999319870" lon="30.4643542226"><ele>298.63</ele><time>2026-08-20T18:21:43Z</time></trkpt><trkpt lat="59.0999362618" lon="30.4643658735"><ele>298.63</ele><time>2026-08-20T18:21:44Z</time></trkpt><trkpt lat="59.0999381896" lon="30.4643833917"><ele>298.63</ele><time>2026-08-20T18:21:45Z</time></trkpt><trkpt lat="59.0999396984" lon="30.4643971380"><ele>298.63</ele><time>2026-08-20T18:21:46Z</time></trkpt><trkpt lat="59.0999413747" lon="30.4644024186"><ele>298.63</ele><time>2026-08-20T18:21:47Z</time></trkpt><trkpt lat="59.0999453980" lon="30.4644103814"><ele>298.63</ele><time>2026-08-20T18:21:48Z</time></trkpt><trkpt lat="59.0999488346" lon="30.4644205235"><ele>298.63</ele><time>2026-08-20T18:21:49Z</time></trkpt><trkpt lat="59.0999514330" lon="30.4644269776"><ele>298.63</ele><time>2026-08-20T18:21:50Z</time></trkpt><trkpt lat="59.0999514330" lon="30.4644269776"><ele>298.63</ele><time>2026-08-20T18:21:51Z</time></trkpt><trkpt lat="59.0999634191" lon="30.4644481838"><ele>298.63</ele><time>2026-08-20T18:21:52Z</time></trkpt><trkpt lat="59.0999664366" lon="30.4644570686"><ele>298.63</ele><time>2026-08-20T18:21:53Z</time></trkpt><trkpt lat="59.0999735612" lon="30.4644642770"><ele>298.63</ele><time>2026-08-20T18:21:54Z</time></trkpt><trkpt lat="59.0999788418" lon="30.4644726589"><ele>298.63</ele><time>2026-08-20T18:21:55Z</time></trkpt><trkpt lat="59.0999839548" lon="30.4644758441"><ele>298.63</ele><time>2026-08-20T18:21:56Z</time></trkpt><trkpt lat="59.0999839548" lon="30.4644758441"><ele>298.63</ele><time>2026-08-20T18:21:57Z</time></trkpt><trkpt lat="59.0999959409" lon="30.4644949548"><ele>298.63</ele><time>2026-08-20T18:21:58Z</time></trkpt><trkpt lat="59.1000038199" lon="30.4645014927"><ele>298.63</ele><time>2026-08-20T18:21:59Z</time></trkpt><trkpt lat="59.1000118665" lon="30.4645115510"><ele>298.63</ele><time>2026-08-20T18:22:00Z</time></trkpt><trkpt lat="59.1000179853" lon="30.4645206872"><ele>298.63</ele><time>2026-08-20T18:22:01Z</time></trkpt><trkpt lat="59.1000248585" lon="30.4645301588"><ele>298.63</ele><time>2026-08-20T18:22:02Z</time></trkpt><trkpt lat="59.1000322346" lon="30.4645400494"><ele>298.63</ele><time>2026-08-20T18:22:03Z</time></trkpt><trkpt lat="59.1000398621" lon="30.4645508621"><ele>298.63</ele><time>2026-08-20T18:22:04Z</time></trkpt><trkpt lat="59.1000496689" lon="30.4645626806"><ele>298.63</ele><time>2026-08-20T18:22:05Z</time></trkpt><trkpt lat="59.1000597272" lon="30.4645725712"><ele>298.63</ele><time>2026-08-20T18:22:06Z</time></trkpt><trkpt lat="59.1000684444" lon="30.4645801987"><ele>298.63</ele><time>2026-08-20T18:22:07Z</time></trkpt><trkpt lat="59.1000764910" lon="30.4645893350"><ele>298.63</ele><time>2026-08-20T18:22:08Z</time></trkpt><trkpt lat="59.1000807658" lon="30.4645953700"><ele>298.63</ele><time>2026-08-20T18:22:09Z</time></trkpt><trkpt lat="59.1000852920" lon="30.4646019917"><ele>298.63</ele><time>2026-08-20T18:22:10Z</time></trkpt><trkpt lat="59.1000868846" lon="30.4646124691"><ele>298.63</ele><time>2026-08-20T18:22:11Z</time></trkpt><trkpt lat="59.1000868846" lon="30.4646124691"><ele>298.63</ele><time>2026-08-20T18:22:12Z</time></trkpt><trkpt lat="59.1000868846" lon="30.4646124691"><ele>298.63</ele><time>2026-08-20T18:22:13Z</time></trkpt><trkpt lat="59.1000868846" lon="30.4646124691"><ele>298.63</ele><time>2026-08-20T18:22:14Z</time></trkpt><trkpt lat="59.1000868846" lon="30.4646124691"><ele>298.63</ele><time>2026-08-20T18:22:15Z</time></trkpt><trkpt lat="59.1000868846" lon="30.4646124691"><ele>298.15</ele><time>2026-08-20T18:22:16Z</time></trkpt><trkpt lat="59.1000868846" lon="30.4646124691"><ele>298.15</ele><time>2026-08-20T18:22:17Z</time></trkpt><trkpt lat="59.1000868846" lon="30.4646124691"><ele>298.15</ele><time>2026-08-20T18:22:18Z</time></trkpt><trkpt lat="59.1000868846" lon="30.4646124691"><ele>298.15</ele><time>2026-08-20T18:22:19Z</time></trkpt><trkpt lat="59.1000868846" lon="30.4646124691"><ele>298.15</ele><time>2026-08-20T18:22:20Z</time></trkpt><trkpt lat="59.1000868846" lon="30.4646124691"><ele>298.63</ele><time>2026-08-20T18:22:21Z</time></trkpt><trkpt lat="59.1000868846" lon="30.4646124691"><ele>298.63</ele><time>2026-08-20T18:22:22Z</time></trkpt><trkpt lat="59.1000868846" lon="30.4646124691"><ele>298.63</ele><time>2026-08-20T18:22:23Z</time></trkpt><trkpt lat="59.1000868846" lon="30.4646124691"><ele>298.63</ele><time>2026-08-20T18:22:24Z</time></trkpt><trkpt lat="59.1000868846" lon="30.4646124691"><ele>298.63</ele><time>2026-08-20T18:22:25Z</time></trkpt><trkpt lat="59.1000868846" lon="30.4646124691"><ele>298.63</ele><time>2026-08-20T18:22:26Z</time></trkpt><trkpt lat="59.1000868846" lon="30.4646124691"><ele>298.63</ele><time>2026-08-20T18:22:27Z</time></trkpt><trkpt lat="59.1000868846" lon="30.4646124691"><ele>298.63</ele><time>2026-08-20T18:22:28Z</time></trkpt><trkpt lat="59.1000868846" lon="30.4646124691"><ele>298.63</ele><time>2026-08-20T18:22:29Z</time></trkpt><trkpt lat="59.1000868846" lon="30.4646124691"><ele>298.63</ele><time>2026-08-20T18:22:30Z</time></trkpt><trkpt lat="59.1000868846" lon="30.4646124691"><ele>298.63</ele><time>2026-08-20T18:22:31Z</time></trkpt><trkpt lat="59.1000868846" lon="30.4646124691"><ele>298.63</ele><time>2026-08-20T18:22:32Z</time></trkpt><trkpt lat="59.1000868846" lon="30.4646124691"><ele>298.63</ele><time>2026-08-20T18:22:33Z</time></trkpt><trkpt lat="59.1000868846" lon="30.4646124691"><ele>298.63</ele><time>2026-08-20T18:22:34Z</time></trkpt><trkpt lat="59.1000868846" lon="30.4646124691"><ele>298.63</ele><time>2026-08-20T18:22:35Z</time></trkpt><trkpt lat="59.1000868846" lon="30.4646124691"><ele>298.63</ele><time>2026-08-20T18:22:36Z</time></trkpt><trkpt lat="59.1000868846" lon="30.4646124691"><ele>298.63</ele><time>2026-08-20T18:22:37Z</time></trkpt><trkpt lat="59.1000868846" lon="30.4646124691"><ele>298.63</ele><time>2026-08-20T18:22:38Z</time></trkpt><trkpt lat="59.1000868846" lon="30.4646124691"><ele>298.63</ele><time>2026-08-20T18:22:39Z</time></trkpt><trkpt lat="59.1000868846" lon="30.4646124691"><ele>298.63</ele><time>2026-08-20T18:22:40Z</time></trkpt><trkpt lat="59.1000868846" lon="30.4646124691"><ele>298.63</ele><time>2026-08-20T18:22:41Z</time></trkpt><trkpt lat="59.1000868846" lon="30.4646124691"><ele>298.63</ele><time>2026-08-20T18:22:42Z</time></trkpt><trkpt lat="59.1000868846" lon="30.4646124691"><ele>298.63</ele><time>2026-08-20T18:22:43Z</time></trkpt><trkpt lat="59.1000868846" lon="30.4646124691"><ele>298.63</ele><time>2026-08-20T18:22:44Z</time></trkpt><trkpt lat="59.1000868846" lon="30.4646124691"><ele>298.63</ele><time>2026-08-20T18:22:45Z</time></trkpt><trkpt lat="59.1000868846" lon="30.4646124691"><ele>298.63</ele><time>2026-08-20T18:22:46Z</time></trkpt><trkpt lat="59.1000868846" lon="30.4646124691"><ele>298.63</ele><time>2026-08-20T18:22:47Z</time></trkpt><trkpt lat="59.1000868846" lon="30.4646124691"><ele>298.63</ele><time>2026-08-20T18:22:48Z</time></trkpt><trkpt lat="59.1000868846" lon="30.4646124691"><ele>298.63</ele><time>2026-08-20T18:22:49Z</time></trkpt><trkpt lat="59.1000868846" lon="30.4646124691"><ele>298.63</ele><time>2026-08-20T18:22:50Z</time></trkpt><trkpt lat="59.1000868846" lon="30.4646124691"><ele>298.63</ele><time>2026-08-20T18:22:51Z</time></trkpt><trkpt lat="59.1000868846" lon="30.4646124691"><ele>298.63</ele><time>2026-08-20T18:22:52Z</time></trkpt><trkpt lat="59.1000868846" lon="30.4646124691"><ele>298.63</ele><time>2026-08-20T18:22:53Z</time></trkpt><trkpt lat="59.1000868846" lon="30.4646124691"><ele>298.63</ele><time>2026-08-20T18:22:54Z</time></trkpt><trkpt lat="59.1001142934" lon="30.4646943603"><ele>298.63</ele><time>2026-08-20T18:22:55Z</time></trkpt><trkpt lat="59.1001208313" lon="30.4647009820"><ele>298.63</ele><time>2026-08-20T18:22:56Z</time></trkpt><trkpt lat="59.1001269501" lon="30.4647092801"><ele>298.63</ele><time>2026-08-20T18:22:57Z</time></trkpt><trkpt lat="59.1001330689" lon="30.4647182487"><ele>298.63</ele><time>2026-08-20T18:22:58Z</time></trkpt><trkpt lat="59.1001392715" lon="30.4647327494"><ele>299.11</ele><time>2026-08-20T18:22:59Z</time></trkpt><trkpt lat="59.1001452226" lon="30.4647450708"><ele>299.11</ele><time>2026-08-20T18:23:00Z</time></trkpt><trkpt lat="59.1001498327" lon="30.4647592362"><ele>299.11</ele><time>2026-08-20T18:23:01Z</time></trkpt><trkpt lat="59.1001551971" lon="30.4647701327"><ele>299.11</ele><time>2026-08-20T18:23:02Z</time></trkpt><trkpt lat="59.1001607291" lon="30.4647807777"><ele>299.11</ele><time>2026-08-20T18:23:03Z</time></trkpt><trkpt lat="59.1001678538" lon="30.4647942726"><ele>299.11</ele><time>2026-08-20T18:23:04Z</time></trkpt><trkpt lat="59.1001752298" lon="30.4648053367"><ele>299.11</ele><time>2026-08-20T18:23:05Z</time></trkpt><trkpt lat="59.1001796722" lon="30.4648197535"><ele>299.11</ele><time>2026-08-20T18:23:06Z</time></trkpt><trkpt lat="59.1001801752" lon="30.4648439772"><ele>299.59</ele><time>2026-08-20T18:23:07Z</time></trkpt><trkpt lat="59.1001824383" lon="30.4648665246"><ele>299.59</ele><time>2026-08-20T18:23:08Z</time></trkpt><trkpt lat="59.1001858748" lon="30.4648854677"><ele>299.59</ele><time>2026-08-20T18:23:09Z</time></trkpt><trkpt lat="59.1001894791" lon="30.4649085179"><ele>299.59</ele><time>2026-08-20T18:23:10Z</time></trkpt><trkpt lat="59.1001927480" lon="30.4649295565"><ele>299.59</ele><time>2026-08-20T18:23:11Z</time></trkpt><trkpt lat="59.1001932509" lon="30.4649543669"><ele>299.59</ele><time>2026-08-20T18:23:12Z</time></trkpt><trkpt lat="59.1001960170" lon="30.4649762437"><ele>299.59</ele><time>2026-08-20T18:23:13Z</time></trkpt><trkpt lat="59.1001979448" lon="30.4649950191"><ele>299.59</ele><time>2026-08-20T18:23:14Z</time></trkpt><trkpt lat="59.1001963522" lon="30.4650117829"><ele>299.59</ele><time>2026-08-20T18:23:15Z</time></trkpt><trkpt lat="59.1001946758" lon="30.4650298879"><ele>299.59</ele><time>2026-08-20T18:23:16Z</time></trkpt><trkpt lat="59.1001937538" lon="30.4650551174"><ele>299.59</ele><time>2026-08-20T18:23:17Z</time></trkpt><trkpt lat="59.1001974419" lon="30.4650790896"><ele>299.11</ele><time>2026-08-20T18:23:18Z</time></trkpt><trkpt lat="59.1001999564" lon="30.4651007988"><ele>299.59</ele><time>2026-08-20T18:23:19Z</time></trkpt><trkpt lat="59.1002029739" lon="30.4651203286"><ele>299.59</ele><time>2026-08-20T18:23:20Z</time></trkpt><trkpt lat="59.1002026387" lon="30.4651438817"><ele>299.59</ele><time>2026-08-20T18:23:21Z</time></trkpt><trkpt lat="59.1002036445" lon="30.4651624896"><ele>299.59</ele><time>2026-08-20T18:23:22Z</time></trkpt><trkpt lat="59.1002047341" lon="30.4651795886"><ele>299.59</ele><time>2026-08-20T18:23:23Z</time></trkpt><trkpt lat="59.1002038959" lon="30.4651983641"><ele>299.59</ele><time>2026-08-20T18:23:24Z</time></trkpt><trkpt lat="59.1002026387" lon="30.4652063269"><ele>299.59</ele><time>2026-08-20T18:23:25Z</time></trkpt><trkpt lat="59.1001977772" lon="30.4652180616"><ele>299.59</ele><time>2026-08-20T18:23:26Z</time></trkpt><trkpt lat="59.1001924966" lon="30.4652278684"><ele>299.59</ele><time>2026-08-20T18:23:27Z</time></trkpt><trkpt lat="59.1001887247" lon="30.4652359989"><ele>299.59</ele><time>2026-08-20T18:23:28Z</time></trkpt><trkpt lat="59.1001853719" lon="30.4652409442"><ele>299.59</ele><time>2026-08-20T18:23:29Z</time></trkpt><trkpt lat="59.1001826897" lon="30.4652446322"><ele>299.59</ele><time>2026-08-20T18:23:30Z</time></trkpt><trkpt lat="59.1001811810" lon="30.4652492423"><ele>299.59</ele><time>2026-08-20T18:23:31Z</time></trkpt><trkpt lat="59.1001784988" lon="30.4652515892"><ele>299.59</ele><time>2026-08-20T18:23:32Z</time></trkpt><trkpt lat="59.1001784988" lon="30.4652515892"><ele>299.59</ele><time>2026-08-20T18:23:33Z</time></trkpt><trkpt lat="59.1001784988" lon="30.4652515892"><ele>299.59</ele><time>2026-08-20T18:23:34Z</time></trkpt><trkpt lat="59.1001784988" lon="30.4652515892"><ele>299.59</ele><time>2026-08-20T18:23:35Z</time></trkpt><trkpt lat="59.1001784988" lon="30.4652515892"><ele>299.59</ele><time>2026-08-20T18:23:36Z</time></trkpt><trkpt lat="59.1001784988" lon="30.4652515892"><ele>299.59</ele><time>2026-08-20T18:23:37Z</time></trkpt><trkpt lat="59.1001660936" lon="30.4652754776"><ele>299.59</ele><time>2026-08-20T18:23:38Z</time></trkpt><trkpt lat="59.1001652554" lon="30.4652802553"><ele>299.59</ele><time>2026-08-20T18:23:39Z</time></trkpt><trkpt lat="59.1001609806" lon="30.4652861226"><ele>299.59</ele><time>2026-08-20T18:23:40Z</time></trkpt><trkpt lat="59.1001555324" lon="30.4652944207"><ele>299.59</ele><time>2026-08-20T18:23:41Z</time></trkpt><trkpt lat="59.1001522634" lon="30.4653034732"><ele>299.59</ele><time>2026-08-20T18:23:42Z</time></trkpt><trkpt lat="59.1001512576" lon="30.4653108492"><ele>299.59</ele><time>2026-08-20T18:23:43Z</time></trkpt><trkpt lat="59.1001473181" lon="30.4653238412"><ele>299.59</ele><time>2026-08-20T18:23:44Z</time></trkpt><trkpt lat="59.1001515929" lon="30.4653357435"><ele>299.59</ele><time>2026-08-20T18:23:45Z</time></trkpt><trkpt lat="59.1001511738" lon="30.4653453827"><ele>299.59</ele><time>2026-08-20T18:23:46Z</time></trkpt><trkpt lat="59.1001516767" lon="30.4653576203"><ele>299.59</ele><time>2026-08-20T18:23:47Z</time></trkpt><trkpt lat="59.1001509223" lon="30.4653738812"><ele>299.59</ele><time>2026-08-20T18:23:48Z</time></trkpt><trkpt lat="59.1001548618" lon="30.4653824307"><ele>299.59</ele><time>2026-08-20T18:23:49Z</time></trkpt><trkpt lat="59.1001576278" lon="30.4653918184"><ele>299.59</ele><time>2026-08-20T18:23:50Z</time></trkpt><trkpt lat="59.1001631599" lon="30.4653985240"><ele>299.59</ele><time>2026-08-20T18:23:51Z</time></trkpt><trkpt lat="59.1001722962" lon="30.4654024635"><ele>299.59</ele><time>2026-08-20T18:23:52Z</time></trkpt><trkpt lat="59.1001759842" lon="30.4654086661"><ele>299.59</ele><time>2026-08-20T18:23:53Z</time></trkpt><trkpt lat="59.1001824383" lon="30.4654131923"><ele>299.59</ele><time>2026-08-20T18:23:54Z</time></trkpt><trkpt lat="59.1001857910" lon="30.4654144496"><ele>299.11</ele><time>2026-08-20T18:23:55Z</time></trkpt><trkpt lat="59.1001857910" lon="30.4654144496"><ele>299.11</ele><time>2026-08-20T18:23:56Z</time></trkpt><trkpt lat="59.1001857910" lon="30.4654144496"><ele>299.59</ele><time>2026-08-20T18:23:57Z</time></trkpt><trkpt lat="59.1001857910" lon="30.4654144496"><ele>299.59</ele><time>2026-08-20T18:23:58Z</time></trkpt><trkpt lat="59.1001857910" lon="30.4654144496"><ele>299.59</ele><time>2026-08-20T18:23:59Z</time></trkpt><trkpt lat="59.1001857910" lon="30.4654144496"><ele>299.59</ele><time>2026-08-20T18:24:00Z</time></trkpt><trkpt lat="59.1001857910" lon="30.4654144496"><ele>299.59</ele><time>2026-08-20T18:24:01Z</time></trkpt><trkpt lat="59.1001857910" lon="30.4654144496"><ele>299.59</ele><time>2026-08-20T18:24:02Z</time></trkpt><trkpt lat="59.1001857910" lon="30.4654144496"><ele>299.59</ele><time>2026-08-20T18:24:03Z</time></trkpt><trkpt lat="59.1001857910" lon="30.4654144496"><ele>299.59</ele><time>2026-08-20T18:24:04Z</time></trkpt><trkpt lat="59.1001857910" lon="30.4654144496"><ele>299.59</ele><time>2026-08-20T18:24:05Z</time></trkpt><trkpt lat="59.1001857910" lon="30.4654144496"><ele>299.59</ele><time>2026-08-20T18:24:06Z</time></trkpt><trkpt lat="59.1001857910" lon="30.4654144496"><ele>299.59</ele><time>2026-08-20T18:24:07Z</time></trkpt><trkpt lat="59.1001857910" lon="30.4654144496"><ele>299.59</ele><time>2026-08-20T18:24:08Z</time></trkpt><trkpt lat="59.1001857910" lon="30.4654144496"><ele>299.59</ele><time>2026-08-20T18:24:09Z</time></trkpt><trkpt lat="59.1001857910" lon="30.4654144496"><ele>299.59</ele><time>2026-08-20T18:24:10Z</time></trkpt><trkpt lat="59.1001857910" lon="30.4654144496"><ele>299.59</ele><time>2026-08-20T18:24:11Z</time></trkpt><trkpt lat="59.1001857910" lon="30.4654144496"><ele>299.59</ele><time>2026-08-20T18:24:12Z</time></trkpt><trkpt lat="59.1001857910" lon="30.4654144496"><ele>299.59</ele><time>2026-08-20T18:24:13Z</time></trkpt><trkpt lat="59.1001857910" lon="30.4654144496"><ele>299.59</ele><time>2026-08-20T18:24:14Z</time></trkpt><trkpt lat="59.1001857910" lon="30.4654144496"><ele>299.59</ele><time>2026-08-20T18:24:15Z</time></trkpt><trkpt lat="59.1001857910" lon="30.4654144496"><ele>299.59</ele><time>2026-08-20T18:24:16Z</time></trkpt><trkpt lat="59.1001857910" lon="30.4654144496"><ele>299.59</ele><time>2026-08-20T18:24:17Z</time></trkpt><trkpt lat="59.1001857910" lon="30.4654144496"><ele>299.59</ele><time>2026-08-20T18:24:18Z</time></trkpt><trkpt lat="59.1001857910" lon="30.4654144496"><ele>299.59</ele><time>2026-08-20T18:24:19Z</time></trkpt><trkpt lat="59.1001857910" lon="30.4654144496"><ele>299.59</ele><time>2026-08-20T18:24:20Z</time></trkpt><trkpt lat="59.1001857910" lon="30.4654144496"><ele>299.59</ele><time>2026-08-20T18:24:21Z</time></trkpt><trkpt lat="59.1001857910" lon="30.4654144496"><ele>299.59</ele><time>2026-08-20T18:24:22Z</time></trkpt><trkpt lat="59.1001857910" lon="30.4654144496"><ele>299.59</ele><time>2026-08-20T18:24:23Z</time></trkpt><trkpt lat="59.1001857910" lon="30.4654144496"><ele>299.59</ele><time>2026-08-20T18:24:24Z</time></trkpt><trkpt lat="59.1001857910" lon="30.4654144496"><ele>299.59</ele><time>2026-08-20T18:24:25Z</time></trkpt><trkpt lat="59.1001857910" lon="30.4654144496"><ele>299.59</ele><time>2026-08-20T18:24:26Z</time></trkpt><trkpt lat="59.1002168879" lon="30.4654828459"><ele>299.59</ele><time>2026-08-20T18:24:27Z</time></trkpt><trkpt lat="59.1002222523" lon="30.4654964246"><ele>299.59</ele><time>2026-08-20T18:24:28Z</time></trkpt><trkpt lat="59.1002259403" lon="30.4655076563"><ele>299.59</ele><time>2026-08-20T18:24:29Z</time></trkpt><trkpt lat="59.1002295446" lon="30.4655243363"><ele>299.59</ele><time>2026-08-20T18:24:30Z</time></trkpt><trkpt lat="59.1002332326" lon="30.4655429441"><ele>299.59</ele><time>2026-08-20T18:24:31Z</time></trkpt><trkpt lat="59.1002378426" lon="30.4655597918"><ele>299.59</ele><time>2026-08-20T18:24:32Z</time></trkpt><trkpt lat="59.1002434585" lon="30.4655705206"><ele>299.59</ele><time>2026-08-20T18:24:33Z</time></trkpt><trkpt lat="59.1002518404" lon="30.4655879550"><ele>299.59</ele><time>2026-08-20T18:24:34Z</time></trkpt><trkpt lat="59.1002615634" lon="30.4656154476"><ele>299.59</ele><time>2026-08-20T18:24:35Z</time></trkpt><trkpt lat="59.1002687719" lon="30.4656344745"><ele>299.59</ele><time>2026-08-20T18:24:36Z</time></trkpt><trkpt lat="59.1002759803" lon="30.4656574409"><ele>299.59</ele><time>2026-08-20T18:24:37Z</time></trkpt><trkpt lat="59.1002823506" lon="30.4656780604"><ele>299.59</ele><time>2026-08-20T18:24:38Z</time></trkpt><trkpt lat="59.1002835240" lon="30.4656996857"><ele>299.59</ele><time>2026-08-20T18:24:39Z</time></trkpt><trkpt lat="59.1002839431" lon="30.4657181259"><ele>299.59</ele><time>2026-08-20T18:24:40Z</time></trkpt><trkpt lat="59.1002851166" lon="30.4657377396"><ele>299.59</ele><time>2026-08-20T18:24:41Z</time></trkpt><trkpt lat="59.1002845298" lon="30.4657603707"><ele>299.59</ele><time>2026-08-20T18:24:42Z</time></trkpt><trkpt lat="59.1002842784" lon="30.4657865223"><ele>299.59</ele><time>2026-08-20T18:24:43Z</time></trkpt><trkpt lat="59.1002844460" lon="30.4658129252"><ele>299.59</ele><time>2026-08-20T18:24:44Z</time></trkpt><trkpt lat="59.1002851166" lon="30.4658362269"><ele>299.59</ele><time>2026-08-20T18:24:45Z</time></trkpt><trkpt lat="59.1002833564" lon="30.4658584390"><ele>299.59</ele><time>2026-08-20T18:24:46Z</time></trkpt><trkpt lat="59.1002825182" lon="30.4658754542"><ele>299.59</ele><time>2026-08-20T18:24:47Z</time></trkpt><trkpt lat="59.1002796683" lon="30.4658969957"><ele>299.59</ele><time>2026-08-20T18:24:48Z</time></trkpt><trkpt lat="59.1002773214" lon="30.4659190401"><ele>299.59</ele><time>2026-08-20T18:24:49Z</time></trkpt><trkpt lat="59.1002796683" lon="30.4659377318"><ele>299.59</ele><time>2026-08-20T18:24:50Z</time></trkpt><trkpt lat="59.1002805904" lon="30.4659593571"><ele>299.59</ele><time>2026-08-20T18:24:51Z</time></trkpt><trkpt lat="59.1002820991" lon="30.4659795575"><ele>299.59</ele><time>2026-08-20T18:24:52Z</time></trkpt><trkpt lat="59.1002823506" lon="30.4659961537"><ele>299.59</ele><time>2026-08-20T18:24:53Z</time></trkpt><trkpt lat="59.1002838593" lon="30.4660144262"><ele>299.59</ele><time>2026-08-20T18:24:54Z</time></trkpt><trkpt lat="59.1002849489" lon="30.4660326988"><ele>299.59</ele><time>2026-08-20T18:24:55Z</time></trkpt><trkpt lat="59.1002864577" lon="30.4660543241"><ele>299.59</ele><time>2026-08-20T18:24:56Z</time></trkpt><trkpt lat="59.1002890561" lon="30.4660777934"><ele>299.59</ele><time>2026-08-20T18:24:57Z</time></trkpt><trkpt lat="59.1002915706" lon="30.4660968203"><ele>299.59</ele><time>2026-08-20T18:24:58Z</time></trkpt><trkpt lat="59.1002925765" lon="30.4661174398"><ele>299.59</ele><time>2026-08-20T18:24:59Z</time></trkpt><trkpt lat="59.1002946720" lon="30.4661355447"><ele>299.59</ele><time>2026-08-20T18:25:00Z</time></trkpt><trkpt lat="59.1002965998" lon="30.4661543202"><ele>299.59</ele><time>2026-08-20T18:25:01Z</time></trkpt><trkpt lat="59.1002947558" lon="30.4661692400"><ele>299.59</ele><time>2026-08-20T18:25:02Z</time></trkpt><trkpt lat="59.1002952587" lon="30.4661767837"><ele>299.59</ele><time>2026-08-20T18:25:03Z</time></trkpt><trkpt lat="59.1002949234" lon="30.4661949724"><ele>299.59</ele><time>2026-08-20T18:25:04Z</time></trkpt><trkpt lat="59.1002934985" lon="30.4662115686"><ele>299.59</ele><time>2026-08-20T18:25:05Z</time></trkpt><trkpt lat="59.1002938338" lon="30.4662274942"><ele>299.59</ele><time>2026-08-20T18:25:06Z</time></trkpt><trkpt lat="59.1002931632" lon="30.4662438389"><ele>299.59</ele><time>2026-08-20T18:25:07Z</time></trkpt><trkpt lat="59.1002926603" lon="30.4662637878"><ele>299.59</ele><time>2026-08-20T18:25:08Z</time></trkpt><trkpt lat="59.1002935823" lon="30.4662776180"><ele>299.59</ele><time>2026-08-20T18:25:09Z</time></trkpt><trkpt lat="59.1002981924" lon="30.4662950523"><ele>299.59</ele><time>2026-08-20T18:25:10Z</time></trkpt><trkpt lat="59.1002961807" lon="30.4663233832"><ele>299.59</ele><time>2026-08-20T18:25:11Z</time></trkpt><trkpt lat="59.1002955940" lon="30.4663406499"><ele>299.59</ele><time>2026-08-20T18:25:12Z</time></trkpt><trkpt lat="59.1002920736" lon="30.4663618561"><ele>299.59</ele><time>2026-08-20T18:25:13Z</time></trkpt><trkpt lat="59.1002929956" lon="30.4663805477"><ele>299.59</ele><time>2026-08-20T18:25:14Z</time></trkpt><trkpt lat="59.1002944205" lon="30.4663974792"><ele>299.59</ele><time>2026-08-20T18:25:15Z</time></trkpt><trkpt lat="59.1002962645" lon="30.4664115608"><ele>299.59</ele><time>2026-08-20T18:25:16Z</time></trkpt><trkpt lat="59.1002984438" lon="30.4664365388"><ele>299.59</ele><time>2026-08-20T18:25:17Z</time></trkpt><trkpt lat="59.1002940852" lon="30.4664495308"><ele>300.07</ele><time>2026-08-20T18:25:18Z</time></trkpt><trkpt lat="59.1002962645" lon="30.4664515425"><ele>300.07</ele><time>2026-08-20T18:25:19Z</time></trkpt><trkpt lat="59.1002958454" lon="30.4664497823"><ele>300.07</ele><time>2026-08-20T18:25:20Z</time></trkpt><trkpt lat="59.1002962645" lon="30.4664480221"><ele>300.07</ele><time>2026-08-20T18:25:21Z</time></trkpt><trkpt lat="59.1002962645" lon="30.4664480221"><ele>300.07</ele><time>2026-08-20T18:25:22Z</time></trkpt><trkpt lat="59.1002962645" lon="30.4664480221"><ele>300.07</ele><time>2026-08-20T18:25:23Z</time></trkpt><trkpt lat="59.1002962645" lon="30.4664480221"><ele>300.07</ele><time>2026-08-20T18:25:24Z</time></trkpt><trkpt lat="59.1002962645" lon="30.4664480221"><ele>300.07</ele><time>2026-08-20T18:25:25Z</time></trkpt><trkpt lat="59.1003031377" lon="30.4664379638"><ele>300.07</ele><time>2026-08-20T18:25:26Z</time></trkpt><trkpt lat="59.1003083345" lon="30.4664312582"><ele>300.07</ele><time>2026-08-20T18:25:27Z</time></trkpt><trkpt lat="59.1003114358" lon="30.4664261453"><ele>300.07</ele><time>2026-08-20T18:25:28Z</time></trkpt><trkpt lat="59.1003139503" lon="30.4664246365"><ele>300.07</ele><time>2026-08-20T18:25:29Z</time></trkpt><trkpt lat="59.1003194824" lon="30.4664261453"><ele>300.07</ele><time>2026-08-20T18:25:30Z</time></trkpt><trkpt lat="59.1003259365" lon="30.4664241336"><ele>300.07</ele><time>2026-08-20T18:25:31Z</time></trkpt><trkpt lat="59.1003395990" lon="30.4664268997"><ele>300.07</ele><time>2026-08-20T18:25:32Z</time></trkpt><trkpt lat="59.1003500763" lon="30.4664237984"><ele>300.07</ele><time>2026-08-20T18:25:33Z</time></trkpt><trkpt lat="59.1003594641" lon="30.4664230440"><ele>300.07</ele><time>2026-08-20T18:25:34Z</time></trkpt><trkpt lat="59.1003691871" lon="30.4664261453"><ele>299.59</ele><time>2026-08-20T18:25:35Z</time></trkpt><trkpt lat="59.1003742162" lon="30.4664286599"><ele>299.59</ele><time>2026-08-20T18:25:36Z</time></trkpt><trkpt lat="59.1003807541" lon="30.4664412327"><ele>299.59</ele><time>2026-08-20T18:25:37Z</time></trkpt><trkpt lat="59.1003889684" lon="30.4664522968"><ele>299.59</ele><time>2026-08-20T18:25:38Z</time></trkpt><trkpt lat="59.1003911477" lon="30.4664519615"><ele>299.59</ele><time>2026-08-20T18:25:39Z</time></trkpt><trkpt lat="59.1003958415" lon="30.4664539732"><ele>299.59</ele><time>2026-08-20T18:25:40Z</time></trkpt><trkpt lat="59.1003988590" lon="30.4664564878"><ele>300.07</ele><time>2026-08-20T18:25:41Z</time></trkpt><trkpt lat="59.1004028823" lon="30.4664580803"><ele>300.07</ele><time>2026-08-20T18:25:42Z</time></trkpt><trkpt lat="59.1004062351" lon="30.4664599244"><ele>300.07</ele><time>2026-08-20T18:25:43Z</time></trkpt><trkpt lat="59.1004062351" lon="30.4664599244"><ele>300.07</ele><time>2026-08-20T18:25:44Z</time></trkpt><trkpt lat="59.1004062351" lon="30.4664599244"><ele>300.07</ele><time>2026-08-20T18:25:45Z</time></trkpt><trkpt lat="59.1004062351" lon="30.4664599244"><ele>300.07</ele><time>2026-08-20T18:25:46Z</time></trkpt><trkpt lat="59.1004062351" lon="30.4664599244"><ele>300.07</ele><time>2026-08-20T18:25:47Z</time></trkpt><trkpt lat="59.1004062351" lon="30.4664599244"><ele>299.59</ele><time>2026-08-20T18:25:48Z</time></trkpt><trkpt lat="59.1004200652" lon="30.4664761852"><ele>299.59</ele><time>2026-08-20T18:25:49Z</time></trkpt><trkpt lat="59.1004211549" lon="30.4664793704"><ele>299.59</ele><time>2026-08-20T18:25:50Z</time></trkpt><trkpt lat="59.1004235856" lon="30.4664813820"><ele>299.59</ele><time>2026-08-20T18:25:51Z</time></trkpt><trkpt lat="59.1004265193" lon="30.4664849862"><ele>299.59</ele><time>2026-08-20T18:25:52Z</time></trkpt><trkpt lat="59.1004265193" lon="30.4664849862"><ele>299.59</ele><time>2026-08-20T18:25:53Z</time></trkpt><trkpt lat="59.1004265193" lon="30.4664849862"><ele>300.07</ele><time>2026-08-20T18:25:54Z</time></trkpt><trkpt lat="59.1004265193" lon="30.4664849862"><ele>300.07</ele><time>2026-08-20T18:25:55Z</time></trkpt><trkpt lat="59.1004265193" lon="30.4664849862"><ele>300.07</ele><time>2026-08-20T18:25:56Z</time></trkpt><trkpt lat="59.1004265193" lon="30.4664849862"><ele>300.07</ele><time>2026-08-20T18:25:57Z</time></trkpt><trkpt lat="59.1004265193" lon="30.4664849862"><ele>300.07</ele><time>2026-08-20T18:25:58Z</time></trkpt><trkpt lat="59.1004265193" lon="30.4664849862"><ele>300.07</ele><time>2026-08-20T18:25:59Z</time></trkpt><trkpt lat="59.1004265193" lon="30.4664849862"><ele>300.07</ele><time>2026-08-20T18:26:00Z</time></trkpt><trkpt lat="59.1004265193" lon="30.4664849862"><ele>300.07</ele><time>2026-08-20T18:26:01Z</time></trkpt><trkpt lat="59.1004265193" lon="30.4664849862"><ele>300.07</ele><time>2026-08-20T18:26:02Z</time></trkpt><trkpt lat="59.1004265193" lon="30.4664849862"><ele>300.07</ele><time>2026-08-20T18:26:03Z</time></trkpt><trkpt lat="59.1004265193" lon="30.4664849862"><ele>300.07</ele><time>2026-08-20T18:26:04Z</time></trkpt><trkpt lat="59.1004206520" lon="30.4664832260"><ele>300.07</ele><time>2026-08-20T18:26:05Z</time></trkpt><trkpt lat="59.1004191432" lon="30.4664767720"><ele>300.07</ele><time>2026-08-20T18:26:06Z</time></trkpt><trkpt lat="59.1004173830" lon="30.4664722458"><ele>300.07</ele><time>2026-08-20T18:26:07Z</time></trkpt><trkpt lat="59.1004155390" lon="30.4664702341"><ele>300.07</ele><time>2026-08-20T18:26:08Z</time></trkpt><trkpt lat="59.1004155390" lon="30.4664702341"><ele>300.07</ele><time>2026-08-20T18:26:09Z</time></trkpt><trkpt lat="59.1004155390" lon="30.4664702341"><ele>300.07</ele><time>2026-08-20T18:26:10Z</time></trkpt><trkpt lat="59.1004155390" lon="30.4664702341"><ele>300.07</ele><time>2026-08-20T18:26:11Z</time></trkpt><trkpt lat="59.1004155390" lon="30.4664702341"><ele>300.07</ele><time>2026-08-20T18:26:12Z</time></trkpt><trkpt lat="59.1004155390" lon="30.4664702341"><ele>300.07</ele><time>2026-08-20T18:26:13Z</time></trkpt><trkpt lat="59.1004155390" lon="30.4664702341"><ele>300.07</ele><time>2026-08-20T18:26:14Z</time></trkpt><trkpt lat="59.1004155390" lon="30.4664702341"><ele>300.07</ele><time>2026-08-20T18:26:15Z</time></trkpt><trkpt lat="59.1004155390" lon="30.4664702341"><ele>300.07</ele><time>2026-08-20T18:26:16Z</time></trkpt><trkpt lat="59.1004155390" lon="30.4664702341"><ele>300.07</ele><time>2026-08-20T18:26:17Z</time></trkpt><trkpt lat="59.1004155390" lon="30.4664702341"><ele>300.07</ele><time>2026-08-20T18:26:18Z</time></trkpt><trkpt lat="59.1004155390" lon="30.4664702341"><ele>300.07</ele><time>2026-08-20T18:26:19Z</time></trkpt><trkpt lat="59.1004155390" lon="30.4664702341"><ele>300.07</ele><time>2026-08-20T18:26:20Z</time></trkpt><trkpt lat="59.1004155390" lon="30.4664702341"><ele>300.07</ele><time>2026-08-20T18:26:21Z</time></trkpt><trkpt lat="59.1004155390" lon="30.4664702341"><ele>300.07</ele><time>2026-08-20T18:26:22Z</time></trkpt><trkpt lat="59.1004155390" lon="30.4664702341"><ele>300.07</ele><time>2026-08-20T18:26:23Z</time></trkpt><trkpt lat="59.1004155390" lon="30.4664702341"><ele>300.07</ele><time>2026-08-20T18:26:24Z</time></trkpt><trkpt lat="59.1004155390" lon="30.4664702341"><ele>300.07</ele><time>2026-08-20T18:26:25Z</time></trkpt><trkpt lat="59.1004155390" lon="30.4664702341"><ele>300.07</ele><time>2026-08-20T18:26:26Z</time></trkpt><trkpt lat="59.1004155390" lon="30.4664702341"><ele>300.07</ele><time>2026-08-20T18:26:27Z</time></trkpt><trkpt lat="59.1004155390" lon="30.4664702341"><ele>300.07</ele><time>2026-08-20T18:26:28Z</time></trkpt><trkpt lat="59.1004155390" lon="30.4664702341"><ele>300.55</ele><time>2026-08-20T18:26:29Z</time></trkpt><trkpt lat="59.1004155390" lon="30.4664702341"><ele>300.55</ele><time>2026-08-20T18:26:30Z</time></trkpt><trkpt lat="59.1004155390" lon="30.4664702341"><ele>300.55</ele><time>2026-08-20T18:26:31Z</time></trkpt><trkpt lat="59.1004155390" lon="30.4664702341"><ele>300.55</ele><time>2026-08-20T18:26:32Z</time></trkpt><trkpt lat="59.1004155390" lon="30.4664702341"><ele>300.07</ele><time>2026-08-20T18:26:33Z</time></trkpt><trkpt lat="59.1004155390" lon="30.4664702341"><ele>300.07</ele><time>2026-08-20T18:26:34Z</time></trkpt><trkpt lat="59.1004155390" lon="30.4664702341"><ele>300.07</ele><time>2026-08-20T18:26:35Z</time></trkpt><trkpt lat="59.1004155390" lon="30.4664702341"><ele>300.07</ele><time>2026-08-20T18:26:36Z</time></trkpt><trkpt lat="59.1004155390" lon="30.4664702341"><ele>300.07</ele><time>2026-08-20T18:26:37Z</time></trkpt><trkpt lat="59.1004155390" lon="30.4664702341"><ele>300.07</ele><time>2026-08-20T18:26:38Z</time></trkpt><trkpt lat="59.1004155390" lon="30.4664702341"><ele>300.07</ele><time>2026-08-20T18:26:39Z</time></trkpt><trkpt lat="59.1004155390" lon="30.4664702341"><ele>300.07</ele><time>2026-08-20T18:26:40Z</time></trkpt><trkpt lat="59.1004155390" lon="30.4664702341"><ele>300.07</ele><time>2026-08-20T18:26:41Z</time></trkpt><trkpt lat="59.1004155390" lon="30.4664702341"><ele>300.07</ele><time>2026-08-20T18:26:42Z</time></trkpt><trkpt lat="59.1004155390" lon="30.4664702341"><ele>300.07</ele><time>2026-08-20T18:26:43Z</time></trkpt><trkpt lat="59.1004155390" lon="30.4664702341"><ele>300.07</ele><time>2026-08-20T18:26:44Z</time></trkpt><trkpt lat="59.1004155390" lon="30.4664702341"><ele>300.07</ele><time>2026-08-20T18:26:45Z</time></trkpt><trkpt lat="59.1004155390" lon="30.4664702341"><ele>300.07</ele><time>2026-08-20T18:26:46Z</time></trkpt><trkpt lat="59.1004155390" lon="30.4664702341"><ele>300.07</ele><time>2026-08-20T18:26:47Z</time></trkpt><trkpt lat="59.1004155390" lon="30.4664702341"><ele>300.07</ele><time>2026-08-20T18:26:48Z</time></trkpt><trkpt lat="59.1004155390" lon="30.4664702341"><ele>300.55</ele><time>2026-08-20T18:26:49Z</time></trkpt><trkpt lat="59.1004155390" lon="30.4664702341"><ele>300.55</ele><time>2026-08-20T18:26:50Z</time></trkpt><trkpt lat="59.1004155390" lon="30.4664702341"><ele>300.55</ele><time>2026-08-20T18:26:51Z</time></trkpt><trkpt lat="59.1004155390" lon="30.4664702341"><ele>300.55</ele><time>2026-08-20T18:26:52Z</time></trkpt><trkpt lat="59.1004155390" lon="30.4664702341"><ele>300.55</ele><time>2026-08-20T18:26:53Z</time></trkpt><trkpt lat="59.1004155390" lon="30.4664702341"><ele>300.55</ele><time>2026-08-20T18:26:54Z</time></trkpt><trkpt lat="59.1004155390" lon="30.4664702341"><ele>300.55</ele><time>2026-08-20T18:26:55Z</time></trkpt><trkpt lat="59.1004125215" lon="30.4664402269"><ele>300.55</ele><time>2026-08-20T18:26:56Z</time></trkpt><trkpt lat="59.1004142817" lon="30.4664442502"><ele>300.55</ele><time>2026-08-20T18:26:57Z</time></trkpt><trkpt lat="59.1004147846" lon="30.4664467648"><ele>300.55</ele><time>2026-08-20T18:26:58Z</time></trkpt><trkpt lat="59.1004176345" lon="30.4664490279"><ele>300.55</ele><time>2026-08-20T18:26:59Z</time></trkpt><trkpt lat="59.1004176345" lon="30.4664490279"><ele>300.55</ele><time>2026-08-20T18:27:00Z</time></trkpt><trkpt lat="59.1004176345" lon="30.4664490279"><ele>300.55</ele><time>2026-08-20T18:27:01Z</time></trkpt><trkpt lat="59.1004176345" lon="30.4664490279"><ele>300.55</ele><time>2026-08-20T18:27:02Z</time></trkpt><trkpt lat="59.1004176345" lon="30.4664490279"><ele>300.55</ele><time>2026-08-20T18:27:03Z</time></trkpt><trkpt lat="59.1004391760" lon="30.4664430767"><ele>300.55</ele><time>2026-08-20T18:27:04Z</time></trkpt><trkpt lat="59.1004434507" lon="30.4664414842"><ele>300.55</ele><time>2026-08-20T18:27:05Z</time></trkpt><trkpt lat="59.1004473902" lon="30.4664393887"><ele>300.55</ele><time>2026-08-20T18:27:06Z</time></trkpt><trkpt lat="59.1004528385" lon="30.4664332699"><ele>300.55</ele><time>2026-08-20T18:27:07Z</time></trkpt><trkpt lat="59.1004573647" lon="30.4664309230"><ele>300.55</ele><time>2026-08-20T18:27:08Z</time></trkpt><trkpt lat="59.1004617233" lon="30.4664334375"><ele>300.55</ele><time>2026-08-20T18:27:09Z</time></trkpt><trkpt lat="59.1004673392" lon="30.4664350301"><ele>300.55</ele><time>2026-08-20T18:27:10Z</time></trkpt><trkpt lat="59.1004716977" lon="30.4664390534"><ele>300.55</ele><time>2026-08-20T18:27:11Z</time></trkpt><trkpt lat="59.1004768945" lon="30.4664392211"><ele>300.55</ele><time>2026-08-20T18:27:12Z</time></trkpt><trkpt lat="59.1004828457" lon="30.4664372932"><ele>300.55</ele><time>2026-08-20T18:27:13Z</time></trkpt><trkpt lat="59.1004850250" lon="30.4664323479"><ele>300.55</ele><time>2026-08-20T18:27:14Z</time></trkpt><trkpt lat="59.1004876234" lon="30.4664281569"><ele>300.55</ele><time>2026-08-20T18:27:15Z</time></trkpt><trkpt lat="59.1004876234" lon="30.4664281569"><ele>300.55</ele><time>2026-08-20T18:27:16Z</time></trkpt><trkpt lat="59.1004876234" lon="30.4664281569"><ele>300.55</ele><time>2026-08-20T18:27:17Z</time></trkpt><trkpt lat="59.1004876234" lon="30.4664281569"><ele>300.55</ele><time>2026-08-20T18:27:18Z</time></trkpt><trkpt lat="59.1004876234" lon="30.4664281569"><ele>300.55</ele><time>2026-08-20T18:27:19Z</time></trkpt><trkpt lat="59.1004876234" lon="30.4664281569"><ele>300.55</ele><time>2026-08-20T18:27:20Z</time></trkpt><trkpt lat="59.1004876234" lon="30.4664281569"><ele>300.55</ele><time>2026-08-20T18:27:21Z</time></trkpt><trkpt lat="59.1004876234" lon="30.4664281569"><ele>300.55</ele><time>2026-08-20T18:27:22Z</time></trkpt><trkpt lat="59.1004876234" lon="30.4664281569"><ele>300.55</ele><time>2026-08-20T18:27:23Z</time></trkpt><trkpt lat="59.1004876234" lon="30.4664281569"><ele>300.55</ele><time>2026-08-20T18:27:24Z</time></trkpt><trkpt lat="59.1004876234" lon="30.4664281569"><ele>300.55</ele><time>2026-08-20T18:27:25Z</time></trkpt><trkpt lat="59.1004876234" lon="30.4664281569"><ele>300.55</ele><time>2026-08-20T18:27:26Z</time></trkpt><trkpt lat="59.1004876234" lon="30.4664281569"><ele>300.55</ele><time>2026-08-20T18:27:27Z</time></trkpt><trkpt lat="59.1004876234" lon="30.4664281569"><ele>300.55</ele><time>2026-08-20T18:27:28Z</time></trkpt><trkpt lat="59.1004876234" lon="30.4664281569"><ele>300.55</ele><time>2026-08-20T18:27:29Z</time></trkpt><trkpt lat="59.1004876234" lon="30.4664281569"><ele>300.55</ele><time>2026-08-20T18:27:30Z</time></trkpt><trkpt lat="59.1004876234" lon="30.4664281569"><ele>300.55</ele><time>2026-08-20T18:27:31Z</time></trkpt><trkpt lat="59.1004876234" lon="30.4664281569"><ele>300.55</ele><time>2026-08-20T18:27:32Z</time></trkpt><trkpt lat="59.1005173791" lon="30.4663712438"><ele>300.55</ele><time>2026-08-20T18:27:33Z</time></trkpt><trkpt lat="59.1005203966" lon="30.4663775302"><ele>300.55</ele><time>2026-08-20T18:27:34Z</time></trkpt><trkpt lat="59.1005238332" lon="30.4663759377"><ele>300.55</ele><time>2026-08-20T18:27:35Z</time></trkpt><trkpt lat="59.1005262639" lon="30.4663749319"><ele>300.55</ele><time>2026-08-20T18:27:36Z</time></trkpt><trkpt lat="59.1005304549" lon="30.4663787875"><ele>300.55</ele><time>2026-08-20T18:27:37Z</time></trkpt><trkpt lat="59.1005356517" lon="30.4663847387"><ele>300.55</ele><time>2026-08-20T18:27:38Z</time></trkpt><trkpt lat="59.1005356517" lon="30.4663847387"><ele>300.55</ele><time>2026-08-20T18:27:39Z</time></trkpt><trkpt lat="59.1005356517" lon="30.4663847387"><ele>300.55</ele><time>2026-08-20T18:27:40Z</time></trkpt><trkpt lat="59.1005356517" lon="30.4663847387"><ele>300.55</ele><time>2026-08-20T18:27:41Z</time></trkpt><trkpt lat="59.1005356517" lon="30.4663847387"><ele>300.55</ele><time>2026-08-20T18:27:42Z</time></trkpt><trkpt lat="59.1005356517" lon="30.4663847387"><ele>300.55</ele><time>2026-08-20T18:27:43Z</time></trkpt><trkpt lat="59.1005356517" lon="30.4663847387"><ele>300.55</ele><time>2026-08-20T18:27:44Z</time></trkpt><trkpt lat="59.1005356517" lon="30.4663847387"><ele>300.55</ele><time>2026-08-20T18:27:45Z</time></trkpt><trkpt lat="59.1005356517" lon="30.4663847387"><ele>300.55</ele><time>2026-08-20T18:27:46Z</time></trkpt><trkpt lat="59.1005356517" lon="30.4663847387"><ele>300.55</ele><time>2026-08-20T18:27:47Z</time></trkpt><trkpt lat="59.1005356517" lon="30.4663847387"><ele>300.55</ele><time>2026-08-20T18:27:48Z</time></trkpt><trkpt lat="59.1005356517" lon="30.4663847387"><ele>300.55</ele><time>2026-08-20T18:27:49Z</time></trkpt><trkpt lat="59.1005356517" lon="30.4663847387"><ele>300.55</ele><time>2026-08-20T18:27:50Z</time></trkpt><trkpt lat="59.1005356517" lon="30.4663847387"><ele>300.55</ele><time>2026-08-20T18:27:51Z</time></trkpt><trkpt lat="59.1005356517" lon="30.4663847387"><ele>300.55</ele><time>2026-08-20T18:27:52Z</time></trkpt><trkpt lat="59.1005356517" lon="30.4663847387"><ele>300.55</ele><time>2026-08-20T18:27:53Z</time></trkpt><trkpt lat="59.1005356517" lon="30.4663847387"><ele>300.55</ele><time>2026-08-20T18:27:54Z</time></trkpt><trkpt lat="59.1005356517" lon="30.4663847387"><ele>300.55</ele><time>2026-08-20T18:27:55Z</time></trkpt><trkpt lat="59.1005356517" lon="30.4663847387"><ele>300.55</ele><time>2026-08-20T18:27:56Z</time></trkpt><trkpt lat="59.1005356517" lon="30.4663847387"><ele>300.55</ele><time>2026-08-20T18:27:57Z</time></trkpt><trkpt lat="59.1006127652" lon="30.4664025921"><ele>300.55</ele><time>2026-08-20T18:27:58Z</time></trkpt><trkpt lat="59.1006190516" lon="30.4664033465"><ele>300.55</ele><time>2026-08-20T18:27:59Z</time></trkpt><trkpt lat="59.1006236617" lon="30.4664021730"><ele>300.55</ele><time>2026-08-20T18:28:00Z</time></trkpt><trkpt lat="59.1006261762" lon="30.4664028436"><ele>300.55</ele><time>2026-08-20T18:28:01Z</time></trkpt><trkpt lat="59.1006350610" lon="30.4664033465"><ele>300.55</ele><time>2026-08-20T18:28:02Z</time></trkpt><trkpt lat="59.1006401740" lon="30.4664067831"><ele>300.55</ele><time>2026-08-20T18:28:03Z</time></trkpt><trkpt lat="59.1006453708" lon="30.4664059449"><ele>300.55</ele><time>2026-08-20T18:28:04Z</time></trkpt><trkpt lat="59.1006477177" lon="30.4664081242"><ele>300.55</ele><time>2026-08-20T18:28:05Z</time></trkpt><trkpt lat="59.1006504837" lon="30.4664088786"><ele>300.55</ele><time>2026-08-20T18:28:06Z</time></trkpt><trkpt lat="59.1006537527" lon="30.4664033465"><ele>300.55</ele><time>2026-08-20T18:28:07Z</time></trkpt><trkpt lat="59.1006537527" lon="30.4664033465"><ele>300.55</ele><time>2026-08-20T18:28:08Z</time></trkpt><trkpt lat="59.1006537527" lon="30.4664033465"><ele>300.55</ele><time>2026-08-20T18:28:09Z</time></trkpt><trkpt lat="59.1006537527" lon="30.4664033465"><ele>300.55</ele><time>2026-08-20T18:28:10Z</time></trkpt><trkpt lat="59.1006537527" lon="30.4664033465"><ele>300.55</ele><time>2026-08-20T18:28:11Z</time></trkpt><trkpt lat="59.1006668285" lon="30.4663824756"><ele>300.55</ele><time>2026-08-20T18:28:12Z</time></trkpt><trkpt lat="59.1006706841" lon="30.4663795419"><ele>300.55</ele><time>2026-08-20T18:28:13Z</time></trkpt><trkpt lat="59.1006730311" lon="30.4663790390"><ele>300.55</ele><time>2026-08-20T18:28:14Z</time></trkpt><trkpt lat="59.1006743722" lon="30.4663757700"><ele>300.55</ele><time>2026-08-20T18:28:15Z</time></trkpt><trkpt lat="59.1006744560" lon="30.4663736746"><ele>300.55</ele><time>2026-08-20T18:28:16Z</time></trkpt><trkpt lat="59.1006744560" lon="30.4663736746"><ele>300.55</ele><time>2026-08-20T18:28:17Z</time></trkpt><trkpt lat="59.1006744560" lon="30.4663736746"><ele>300.55</ele><time>2026-08-20T18:28:18Z</time></trkpt><trkpt lat="59.1006744560" lon="30.4663736746"><ele>300.55</ele><time>2026-08-20T18:28:19Z</time></trkpt><trkpt lat="59.1006744560" lon="30.4663736746"><ele>300.55</ele><time>2026-08-20T18:28:20Z</time></trkpt><trkpt lat="59.1006744560" lon="30.4663736746"><ele>300.55</ele><time>2026-08-20T18:28:21Z</time></trkpt><trkpt lat="59.1006865259" lon="30.4663734231"><ele>300.55</ele><time>2026-08-20T18:28:22Z</time></trkpt><trkpt lat="59.1006875318" lon="30.4663745966"><ele>300.55</ele><time>2026-08-20T18:28:23Z</time></trkpt><trkpt lat="59.1006885376" lon="30.4663756862"><ele>300.55</ele><time>2026-08-20T18:28:24Z</time></trkpt><trkpt lat="59.1006903816" lon="30.4663735908"><ele>300.55</ele><time>2026-08-20T18:28:25Z</time></trkpt><trkpt lat="59.1006903816" lon="30.4663735908"><ele>300.55</ele><time>2026-08-20T18:28:26Z</time></trkpt><trkpt lat="59.1006903816" lon="30.4663735908"><ele>300.55</ele><time>2026-08-20T18:28:27Z</time></trkpt><trkpt lat="59.1006903816" lon="30.4663735908"><ele>300.55</ele><time>2026-08-20T18:28:28Z</time></trkpt><trkpt lat="59.1006903816" lon="30.4663735908"><ele>300.55</ele><time>2026-08-20T18:28:29Z</time></trkpt><trkpt lat="59.1006903816" lon="30.4663735908"><ele>300.55</ele><time>2026-08-20T18:28:30Z</time></trkpt><trkpt lat="59.1006903816" lon="30.4663735908"><ele>300.55</ele><time>2026-08-20T18:28:31Z</time></trkpt><trkpt lat="59.1006903816" lon="30.4663735908"><ele>300.55</ele><time>2026-08-20T18:28:32Z</time></trkpt><trkpt lat="59.1007057205" lon="30.4663567431"><ele>300.55</ele><time>2026-08-20T18:28:33Z</time></trkpt><trkpt lat="59.1007095762" lon="30.4663493671"><ele>300.55</ele><time>2026-08-20T18:28:34Z</time></trkpt><trkpt lat="59.1007117555" lon="30.4663476907"><ele>300.55</ele><time>2026-08-20T18:28:35Z</time></trkpt><trkpt lat="59.1007165331" lon="30.4663466848"><ele>300.55</ele><time>2026-08-20T18:28:36Z</time></trkpt><trkpt lat="59.1007194668" lon="30.4663416557"><ele>300.55</ele><time>2026-08-20T18:28:37Z</time></trkpt><trkpt lat="59.1007231548" lon="30.4663376324"><ele>300.55</ele><time>2026-08-20T18:28:38Z</time></trkpt><trkpt lat="59.1007244959" lon="30.4663284961"><ele>300.55</ele><time>2026-08-20T18:28:39Z</time></trkpt><trkpt lat="59.1007236578" lon="30.4663214553"><ele>300.55</ele><time>2026-08-20T18:28:40Z</time></trkpt><trkpt lat="59.1007231548" lon="30.4663174320"><ele>300.55</ele><time>2026-08-20T18:28:41Z</time></trkpt><trkpt lat="59.1007231548" lon="30.4663174320"><ele>300.55</ele><time>2026-08-20T18:28:42Z</time></trkpt><trkpt lat="59.1007231548" lon="30.4663174320"><ele>300.55</ele><time>2026-08-20T18:28:43Z</time></trkpt><trkpt lat="59.1007231548" lon="30.4663174320"><ele>300.55</ele><time>2026-08-20T18:28:44Z</time></trkpt><trkpt lat="59.1007231548" lon="30.4663174320"><ele>300.55</ele><time>2026-08-20T18:28:45Z</time></trkpt><trkpt lat="59.1007231548" lon="30.4663174320"><ele>300.55</ele><time>2026-08-20T18:28:46Z</time></trkpt><trkpt lat="59.1007231548" lon="30.4663174320"><ele>300.55</ele><time>2026-08-20T18:28:47Z</time></trkpt><trkpt lat="59.1007231548" lon="30.4663174320"><ele>300.55</ele><time>2026-08-20T18:28:48Z</time></trkpt><trkpt lat="59.1007231548" lon="30.4663174320"><ele>300.55</ele><time>2026-08-20T18:28:49Z</time></trkpt><trkpt lat="59.1007348895" lon="30.4662748519"><ele>300.55</ele><time>2026-08-20T18:28:50Z</time></trkpt><trkpt lat="59.1007362306" lon="30.4662661348"><ele>300.55</ele><time>2026-08-20T18:28:51Z</time></trkpt><trkpt lat="59.1007391643" lon="30.4662585910"><ele>300.55</ele><time>2026-08-20T18:28:52Z</time></trkpt><trkpt lat="59.1007423494" lon="30.4662485328"><ele>300.55</ele><time>2026-08-20T18:28:53Z</time></trkpt><trkpt lat="59.1007459536" lon="30.4662361275"><ele>301.03</ele><time>2026-08-20T18:28:54Z</time></trkpt><trkpt lat="59.1007495578" lon="30.4662286676"><ele>300.55</ele><time>2026-08-20T18:28:55Z</time></trkpt><trkpt lat="59.1007522400" lon="30.4662216268"><ele>300.55</ele><time>2026-08-20T18:28:56Z</time></trkpt><trkpt lat="59.1007552575" lon="30.4662214592"><ele>300.55</ele><time>2026-08-20T18:28:57Z</time></trkpt><trkpt lat="59.1007582750" lon="30.4662230518"><ele>300.55</ele><time>2026-08-20T18:28:58Z</time></trkpt><trkpt lat="59.1007637233" lon="30.4662244767"><ele>300.55</ele><time>2026-08-20T18:28:59Z</time></trkpt><trkpt lat="59.1007637233" lon="30.4662244767"><ele>300.55</ele><time>2026-08-20T18:29:00Z</time></trkpt><trkpt lat="59.1007777210" lon="30.4662305955"><ele>300.55</ele><time>2026-08-20T18:29:01Z</time></trkpt><trkpt lat="59.1007841751" lon="30.4662328586"><ele>300.55</ele><time>2026-08-20T18:29:02Z</time></trkpt><trkpt lat="59.1007937305" lon="30.4662329424"><ele>300.55</ele><time>2026-08-20T18:29:03Z</time></trkpt><trkpt lat="59.1008022800" lon="30.4662321880"><ele>300.55</ele><time>2026-08-20T18:29:04Z</time></trkpt><trkpt lat="59.1008103266" lon="30.4662312660"><ele>300.55</ele><time>2026-08-20T18:29:05Z</time></trkpt><trkpt lat="59.1008210555" lon="30.4662251472"><ele>300.55</ele><time>2026-08-20T18:29:06Z</time></trkpt><trkpt lat="59.1008272581" lon="30.4662174359"><ele>300.55</ele><time>2026-08-20T18:29:07Z</time></trkpt><trkpt lat="59.1008329578" lon="30.4662093893"><ele>300.55</ele><time>2026-08-20T18:29:08Z</time></trkpt><trkpt lat="59.1008378193" lon="30.4661982413"><ele>300.55</ele><time>2026-08-20T18:29:09Z</time></trkpt><trkpt lat="59.1008433513" lon="30.4661894403"><ele>300.55</ele><time>2026-08-20T18:29:10Z</time></trkpt><trkpt lat="59.1008492187" lon="30.4661823995"><ele>300.55</ele><time>2026-08-20T18:29:11Z</time></trkpt><trkpt lat="59.1008526552" lon="30.4661788791"><ele>300.55</ele><time>2026-08-20T18:29:12Z</time></trkpt><trkpt lat="59.1008589417" lon="30.4661727604"><ele>300.55</ele><time>2026-08-20T18:29:13Z</time></trkpt><trkpt lat="59.1008629650" lon="30.4661692400"><ele>300.55</ele><time>2026-08-20T18:29:14Z</time></trkpt><trkpt lat="59.1008681618" lon="30.4661614448"><ele>300.55</ele><time>2026-08-20T18:29:15Z</time></trkpt><trkpt lat="59.1008729395" lon="30.4661592655"><ele>300.55</ele><time>2026-08-20T18:29:16Z</time></trkpt><trkpt lat="59.1008753702" lon="30.4661563318"><ele>300.55</ele><time>2026-08-20T18:29:17Z</time></trkpt><trkpt lat="59.1008791421" lon="30.4661530629"><ele>300.55</ele><time>2026-08-20T18:29:18Z</time></trkpt><trkpt lat="59.1008840874" lon="30.4661510512"><ele>300.55</ele><time>2026-08-20T18:29:19Z</time></trkpt><trkpt lat="59.1008906253" lon="30.4661381431"><ele>300.55</ele><time>2026-08-20T18:29:20Z</time></trkpt><trkpt lat="59.1008960735" lon="30.4661349580"><ele>300.07</ele><time>2026-08-20T18:29:21Z</time></trkpt><trkpt lat="59.1008977499" lon="30.4661325272"><ele>300.07</ele><time>2026-08-20T18:29:22Z</time></trkpt><trkpt lat="59.1009001806" lon="30.4661336169"><ele>300.07</ele><time>2026-08-20T18:29:23Z</time></trkpt><trkpt lat="59.1009009350" lon="30.4661283363"><ele>300.07</ele><time>2026-08-20T18:29:24Z</time></trkpt><trkpt lat="59.1009009350" lon="30.4661283363"><ele>300.07</ele><time>2026-08-20T18:29:25Z</time></trkpt><trkpt lat="59.1009009350" lon="30.4661283363"><ele>300.07</ele><time>2026-08-20T18:29:26Z</time></trkpt><trkpt lat="59.1009009350" lon="30.4661283363"><ele>300.07</ele><time>2026-08-20T18:29:27Z</time></trkpt><trkpt lat="59.1009009350" lon="30.4661283363"><ele>300.07</ele><time>2026-08-20T18:29:28Z</time></trkpt><trkpt lat="59.1009009350" lon="30.4661283363"><ele>300.07</ele><time>2026-08-20T18:29:29Z</time></trkpt><trkpt lat="59.1009009350" lon="30.4661283363"><ele>300.07</ele><time>2026-08-20T18:29:30Z</time></trkpt><trkpt lat="59.1009009350" lon="30.4661283363"><ele>300.07</ele><time>2026-08-20T18:29:31Z</time></trkpt><trkpt lat="59.1009009350" lon="30.4661283363"><ele>300.07</ele><time>2026-08-20T18:29:32Z</time></trkpt><trkpt lat="59.1009009350" lon="30.4661283363"><ele>300.07</ele><time>2026-08-20T18:29:33Z</time></trkpt><trkpt lat="59.1009009350" lon="30.4661283363"><ele>300.07</ele><time>2026-08-20T18:29:34Z</time></trkpt><trkpt lat="59.1009396594" lon="30.4661162663"><ele>300.07</ele><time>2026-08-20T18:29:35Z</time></trkpt><trkpt lat="59.1009566747" lon="30.4661100637"><ele>300.07</ele><time>2026-08-20T18:29:36Z</time></trkpt><trkpt lat="59.1009677388" lon="30.4661029391"><ele>300.07</ele><time>2026-08-20T18:29:37Z</time></trkpt><trkpt lat="59.1009760369" lon="30.4660990834"><ele>300.07</ele><time>2026-08-20T18:29:38Z</time></trkpt><trkpt lat="59.1009841673" lon="30.4660961498"><ele>300.07</ele><time>2026-08-20T18:29:39Z</time></trkpt><trkpt lat="59.1009925492" lon="30.4660927970"><ele>300.07</ele><time>2026-08-20T18:29:40Z</time></trkpt><trkpt lat="59.1009925492" lon="30.4660927970"><ele>300.55</ele><time>2026-08-20T18:29:41Z</time></trkpt><trkpt lat="59.1009925492" lon="30.4660927970"><ele>300.55</ele><time>2026-08-20T18:29:42Z</time></trkpt><trkpt lat="59.1009925492" lon="30.4660927970"><ele>300.55</ele><time>2026-08-20T18:29:43Z</time></trkpt><trkpt lat="59.1009925492" lon="30.4660927970"><ele>300.55</ele><time>2026-08-20T18:29:44Z</time></trkpt><trkpt lat="59.1009925492" lon="30.4660927970"><ele>300.55</ele><time>2026-08-20T18:29:45Z</time></trkpt><trkpt lat="59.1009925492" lon="30.4660927970"><ele>300.55</ele><time>2026-08-20T18:29:46Z</time></trkpt><trkpt lat="59.1009925492" lon="30.4660927970"><ele>300.55</ele><time>2026-08-20T18:29:47Z</time></trkpt><trkpt lat="59.1009925492" lon="30.4660927970"><ele>300.55</ele><time>2026-08-20T18:29:48Z</time></trkpt><trkpt lat="59.1009925492" lon="30.4660927970"><ele>300.07</ele><time>2026-08-20T18:29:49Z</time></trkpt><trkpt lat="59.1009925492" lon="30.4660927970"><ele>300.07</ele><time>2026-08-20T18:29:50Z</time></trkpt><trkpt lat="59.1009925492" lon="30.4660927970"><ele>300.07</ele><time>2026-08-20T18:29:51Z</time></trkpt><trkpt lat="59.1009925492" lon="30.4660927970"><ele>300.07</ele><time>2026-08-20T18:29:52Z</time></trkpt><trkpt lat="59.1009925492" lon="30.4660927970"><ele>300.07</ele><time>2026-08-20T18:29:53Z</time></trkpt><trkpt lat="59.1009925492" lon="30.4660927970"><ele>300.07</ele><time>2026-08-20T18:29:54Z</time></trkpt><trkpt lat="59.1009925492" lon="30.4660927970"><ele>300.07</ele><time>2026-08-20T18:29:55Z</time></trkpt><trkpt lat="59.1009925492" lon="30.4660927970"><ele>299.59</ele><time>2026-08-20T18:29:56Z</time></trkpt><trkpt lat="59.1009925492" lon="30.4660927970"><ele>299.59</ele><time>2026-08-20T18:29:57Z</time></trkpt><trkpt lat="59.1010183655" lon="30.4660776258"><ele>299.59</ele><time>2026-08-20T18:29:58Z</time></trkpt><trkpt lat="59.1010312736" lon="30.4660696629"><ele>299.59</ele><time>2026-08-20T18:29:59Z</time></trkpt><trkpt lat="59.1010397393" lon="30.4660658911"><ele>299.59</ele><time>2026-08-20T18:30:00Z</time></trkpt><trkpt lat="59.1010495462" lon="30.4660548270"><ele>300.07</ele><time>2026-08-20T18:30:01Z</time></trkpt><trkpt lat="59.1010569222" lon="30.4660391528"><ele>300.07</ele><time>2026-08-20T18:30:02Z</time></trkpt><trkpt lat="59.1010634601" lon="30.4660265800"><ele>300.07</ele><time>2026-08-20T18:30:03Z</time></trkpt><trkpt lat="59.1010718420" lon="30.4660161864"><ele>300.07</ele><time>2026-08-20T18:30:04Z</time></trkpt><trkpt lat="59.1010777932" lon="30.4660022724"><ele>300.07</ele><time>2026-08-20T18:30:05Z</time></trkpt><trkpt lat="59.1010867618" lon="30.4659888614"><ele>300.07</ele><time>2026-08-20T18:30:06Z</time></trkpt><trkpt lat="59.1010974906" lon="30.4659769591"><ele>300.55</ele><time>2026-08-20T18:30:07Z</time></trkpt><trkpt lat="59.1011065431" lon="30.4659656435"><ele>300.07</ele><time>2026-08-20T18:30:08Z</time></trkpt><trkpt lat="59.1011146735" lon="30.4659546632"><ele>300.07</ele><time>2026-08-20T18:30:09Z</time></trkpt><trkpt lat="59.1011219658" lon="30.4659419227"><ele>300.07</ele><time>2026-08-20T18:30:10Z</time></trkpt><trkpt lat="59.1011294257" lon="30.4659290984"><ele>300.07</ele><time>2026-08-20T18:30:11Z</time></trkpt><trkpt lat="59.1011391487" lon="30.4659165256"><ele>300.07</ele><time>2026-08-20T18:30:12Z</time></trkpt><trkpt lat="59.1011466924" lon="30.4659084789"><ele>300.07</ele><time>2026-08-20T18:30:13Z</time></trkpt><trkpt lat="59.1011544876" lon="30.4658934753"><ele>300.07</ele><time>2026-08-20T18:30:14Z</time></trkpt><trkpt lat="59.1011626180" lon="30.4658746999"><ele>300.07</ele><time>2026-08-20T18:30:15Z</time></trkpt><trkpt lat="59.1011715867" lon="30.4658568464"><ele>300.07</ele><time>2026-08-20T18:30:16Z</time></trkpt><trkpt lat="59.1011810582" lon="30.4658427648"><ele>300.07</ele><time>2026-08-20T18:30:17Z</time></trkpt><trkpt lat="59.1011899430" lon="30.4658302758"><ele>300.07</ele><time>2026-08-20T18:30:18Z</time></trkpt><trkpt lat="59.1011978220" lon="30.4658145178"><ele>300.07</ele><time>2026-08-20T18:30:19Z</time></trkpt><trkpt lat="59.1012030188" lon="30.4657929763"><ele>300.07</ele><time>2026-08-20T18:30:20Z</time></trkpt><trkpt lat="59.1012070421" lon="30.4657777213"><ele>300.07</ele><time>2026-08-20T18:30:21Z</time></trkpt><trkpt lat="59.1012107302" lon="30.4657619633"><ele>300.07</ele><time>2026-08-20T18:30:22Z</time></trkpt><trkpt lat="59.1012143344" lon="30.4657449480"><ele>300.07</ele><time>2026-08-20T18:30:23Z</time></trkpt><trkpt lat="59.1012189444" lon="30.4657273460"><ele>300.07</ele><time>2026-08-20T18:30:24Z</time></trkpt><trkpt lat="59.1012263205" lon="30.4657120910"><ele>300.07</ele><time>2026-08-20T18:30:25Z</time></trkpt><trkpt lat="59.1012322716" lon="30.4656973388"><ele>300.07</ele><time>2026-08-20T18:30:26Z</time></trkpt><trkpt lat="59.1012373846" lon="30.4656845983"><ele>300.07</ele><time>2026-08-20T18:30:27Z</time></trkpt><trkpt lat="59.1012410726" lon="30.4656744562"><ele>300.07</ele><time>2026-08-20T18:30:28Z</time></trkpt><trkpt lat="59.1012448445" lon="30.4656613804"><ele>300.07</ele><time>2026-08-20T18:30:29Z</time></trkpt><trkpt lat="59.1012475267" lon="30.4656493943"><ele>300.07</ele><time>2026-08-20T18:30:30Z</time></trkpt><trkpt lat="59.1012510471" lon="30.4656396713"><ele>300.07</ele><time>2026-08-20T18:30:31Z</time></trkpt><trkpt lat="59.1012550704" lon="30.4656261764"><ele>300.07</ele><time>2026-08-20T18:30:32Z</time></trkpt><trkpt lat="59.1012594290" lon="30.4656148609"><ele>300.07</ele><time>2026-08-20T18:30:33Z</time></trkpt><trkpt lat="59.1012625303" lon="30.4656032939"><ele>300.07</ele><time>2026-08-20T18:30:34Z</time></trkpt><trkpt lat="59.1012617759" lon="30.4655948281"><ele>300.07</ele><time>2026-08-20T18:30:35Z</time></trkpt><trkpt lat="59.1012585908" lon="30.4655818362"><ele>300.07</ele><time>2026-08-20T18:30:36Z</time></trkpt><trkpt lat="59.1012527235" lon="30.4655728675"><ele>300.07</ele><time>2026-08-20T18:30:37Z</time></trkpt><trkpt lat="59.1012470238" lon="30.4655648209"><ele>300.07</ele><time>2026-08-20T18:30:38Z</time></trkpt><trkpt lat="59.1012429167" lon="30.4655574448"><ele>300.07</ele><time>2026-08-20T18:30:39Z</time></trkpt><trkpt lat="59.1012359597" lon="30.4655545950"><ele>300.07</ele><time>2026-08-20T18:30:40Z</time></trkpt><trkpt lat="59.1012319364" lon="30.4655526672"><ele>300.07</ele><time>2026-08-20T18:30:41Z</time></trkpt><trkpt lat="59.1012278292" lon="30.4655511584"><ele>300.07</ele><time>2026-08-20T18:30:42Z</time></trkpt><trkpt lat="59.1012212913" lon="30.4655505717"><ele>300.07</ele><time>2026-08-20T18:30:43Z</time></trkpt><trkpt lat="59.1012142505" lon="30.4655533377"><ele>300.07</ele><time>2026-08-20T18:30:44Z</time></trkpt><trkpt lat="59.1012084670" lon="30.4655468836"><ele>300.07</ele><time>2026-08-20T18:30:45Z</time></trkpt><trkpt lat="59.1012024321" lon="30.4655443691"><ele>300.07</ele><time>2026-08-20T18:30:46Z</time></trkpt><trkpt lat="59.1011987440" lon="30.4655381665"><ele>300.07</ele><time>2026-08-20T18:30:47Z</time></trkpt><trkpt lat="59.1011968162" lon="30.4655304551"><ele>300.07</ele><time>2026-08-20T18:30:48Z</time></trkpt><trkpt lat="59.1012006719" lon="30.4655200616"><ele>300.07</ele><time>2026-08-20T18:30:49Z</time></trkpt><trkpt lat="59.1011984926" lon="30.4655103385"><ele>300.07</ele><time>2026-08-20T18:30:50Z</time></trkpt><trkpt lat="59.1011970676" lon="30.4655047227"><ele>300.07</ele><time>2026-08-20T18:30:51Z</time></trkpt><trkpt lat="59.1011970676" lon="30.4655047227"><ele>300.07</ele><time>2026-08-20T18:30:52Z</time></trkpt><trkpt lat="59.1011944693" lon="30.4654695187"><ele>300.07</ele><time>2026-08-20T18:30:53Z</time></trkpt><trkpt lat="59.1011938825" lon="30.4654555209"><ele>300.07</ele><time>2026-08-20T18:30:54Z</time></trkpt><trkpt lat="59.1011942178" lon="30.4654448759"><ele>299.59</ele><time>2026-08-20T18:30:55Z</time></trkpt><trkpt lat="59.1011988278" lon="30.4654281959"><ele>299.59</ele><time>2026-08-20T18:30:56Z</time></trkpt><trkpt lat="59.1012025997" lon="30.4654095881"><ele>299.59</ele><time>2026-08-20T18:30:57Z</time></trkpt><trkpt lat="59.1012037732" lon="30.4653913993"><ele>299.59</ele><time>2026-08-20T18:30:58Z</time></trkpt><trkpt lat="59.1012049466" lon="30.4653772339"><ele>299.59</ele><time>2026-08-20T18:30:59Z</time></trkpt><trkpt lat="59.1012047790" lon="30.4653602187"><ele>299.59</ele><time>2026-08-20T18:31:00Z</time></trkpt><trkpt lat="59.1012067907" lon="30.4653674271"><ele>299.59</ele><time>2026-08-20T18:31:01Z</time></trkpt><trkpt lat="59.1012078803" lon="30.4653571174"><ele>299.59</ele><time>2026-08-20T18:31:02Z</time></trkpt><trkpt lat="59.1012096405" lon="30.4653526749"><ele>299.59</ele><time>2026-08-20T18:31:03Z</time></trkpt><trkpt lat="59.1012120713" lon="30.4653463885"><ele>299.59</ele><time>2026-08-20T18:31:04Z</time></trkpt><trkpt lat="59.1012120713" lon="30.4653463885"><ele>299.59</ele><time>2026-08-20T18:31:05Z</time></trkpt><trkpt lat="59.1012120713" lon="30.4653463885"><ele>299.59</ele><time>2026-08-20T18:31:06Z</time></trkpt><trkpt lat="59.1012120713" lon="30.4653463885"><ele>299.59</ele><time>2026-08-20T18:31:07Z</time></trkpt><trkpt lat="59.1012120713" lon="30.4653463885"><ele>299.59</ele><time>2026-08-20T18:31:08Z</time></trkpt><trkpt lat="59.1012120713" lon="30.4653463885"><ele>299.59</ele><time>2026-08-20T18:31:09Z</time></trkpt><trkpt lat="59.1012120713" lon="30.4653463885"><ele>299.59</ele><time>2026-08-20T18:31:10Z</time></trkpt><trkpt lat="59.1012120713" lon="30.4653463885"><ele>299.59</ele><time>2026-08-20T18:31:11Z</time></trkpt><trkpt lat="59.1012120713" lon="30.4653463885"><ele>299.59</ele><time>2026-08-20T18:31:12Z</time></trkpt><trkpt lat="59.1012120713" lon="30.4653463885"><ele>299.59</ele><time>2026-08-20T18:31:13Z</time></trkpt><trkpt lat="59.1012120713" lon="30.4653463885"><ele>299.59</ele><time>2026-08-20T18:31:14Z</time></trkpt><trkpt lat="59.1012120713" lon="30.4653463885"><ele>299.59</ele><time>2026-08-20T18:31:15Z</time></trkpt><trkpt lat="59.1012120713" lon="30.4653463885"><ele>299.59</ele><time>2026-08-20T18:31:16Z</time></trkpt><trkpt lat="59.1012120713" lon="30.4653463885"><ele>299.59</ele><time>2026-08-20T18:31:17Z</time></trkpt><trkpt lat="59.1012120713" lon="30.4653463885"><ele>299.59</ele><time>2026-08-20T18:31:18Z</time></trkpt><trkpt lat="59.1012120713" lon="30.4653463885"><ele>299.59</ele><time>2026-08-20T18:31:19Z</time></trkpt><trkpt lat="59.1012120713" lon="30.4653463885"><ele>299.59</ele><time>2026-08-20T18:31:20Z</time></trkpt><trkpt lat="59.1012120713" lon="30.4653463885"><ele>299.59</ele><time>2026-08-20T18:31:21Z</time></trkpt><trkpt lat="59.1012120713" lon="30.4653463885"><ele>299.59</ele><time>2026-08-20T18:31:22Z</time></trkpt><trkpt lat="59.1012120713" lon="30.4653463885"><ele>299.59</ele><time>2026-08-20T18:31:23Z</time></trkpt><trkpt lat="59.1012120713" lon="30.4653463885"><ele>299.59</ele><time>2026-08-20T18:31:24Z</time></trkpt><trkpt lat="59.1012450960" lon="30.4652558640"><ele>299.59</ele><time>2026-08-20T18:31:25Z</time></trkpt><trkpt lat="59.1012522206" lon="30.4652334843"><ele>299.59</ele><time>2026-08-20T18:31:26Z</time></trkpt><trkpt lat="59.1012554895" lon="30.4652121942"><ele>299.59</ele><time>2026-08-20T18:31:27Z</time></trkpt><trkpt lat="59.1012580879" lon="30.4651908204"><ele>299.59</ele><time>2026-08-20T18:31:28Z</time></trkpt><trkpt lat="59.1012601834" lon="30.4651722964"><ele>299.59</ele><time>2026-08-20T18:31:29Z</time></trkpt><trkpt lat="59.1012624465" lon="30.4651614837"><ele>299.59</ele><time>2026-08-20T18:31:30Z</time></trkpt><trkpt lat="59.1012630332" lon="30.4651652556"><ele>299.59</ele><time>2026-08-20T18:31:31Z</time></trkpt><trkpt lat="59.1012645420" lon="30.4651593883"><ele>299.59</ele><time>2026-08-20T18:31:32Z</time></trkpt><trkpt lat="59.1012645420" lon="30.4651593883"><ele>299.59</ele><time>2026-08-20T18:31:33Z</time></trkpt><trkpt lat="59.1012645420" lon="30.4651593883"><ele>299.59</ele><time>2026-08-20T18:31:34Z</time></trkpt><trkpt lat="59.1012645420" lon="30.4651593883"><ele>299.59</ele><time>2026-08-20T18:31:35Z</time></trkpt><trkpt lat="59.1012645420" lon="30.4651593883"><ele>299.59</ele><time>2026-08-20T18:31:36Z</time></trkpt><trkpt lat="59.1012645420" lon="30.4651593883"><ele>299.59</ele><time>2026-08-20T18:31:37Z</time></trkpt><trkpt lat="59.1012645420" lon="30.4651593883"><ele>299.59</ele><time>2026-08-20T18:31:38Z</time></trkpt><trkpt lat="59.1012645420" lon="30.4651593883"><ele>299.59</ele><time>2026-08-20T18:31:39Z</time></trkpt><trkpt lat="59.1012773663" lon="30.4651285429"><ele>299.59</ele><time>2026-08-20T18:31:40Z</time></trkpt><trkpt lat="59.1012824792" lon="30.4651189875"><ele>299.59</ele><time>2026-08-20T18:31:41Z</time></trkpt><trkpt lat="59.1012870893" lon="30.4651095998"><ele>299.59</ele><time>2026-08-20T18:31:42Z</time></trkpt><trkpt lat="59.1012891848" lon="30.4651019722"><ele>299.59</ele><time>2026-08-20T18:31:43Z</time></trkpt><trkpt lat="59.1012919508" lon="30.4650911596"><ele>299.59</ele><time>2026-08-20T18:31:44Z</time></trkpt><trkpt lat="59.1012957226" lon="30.4650832806"><ele>299.59</ele><time>2026-08-20T18:31:45Z</time></trkpt><trkpt lat="59.1012997460" lon="30.4650735576"><ele>299.59</ele><time>2026-08-20T18:31:46Z</time></trkpt><trkpt lat="59.1012993269" lon="30.4650745634"><ele>299.59</ele><time>2026-08-20T18:31:47Z</time></trkpt><trkpt lat="59.1013014223" lon="30.4650696181"><ele>299.59</ele><time>2026-08-20T18:31:48Z</time></trkpt><trkpt lat="59.1013026796" lon="30.4650644213"><ele>299.59</ele><time>2026-08-20T18:31:49Z</time></trkpt><trkpt lat="59.1013026796" lon="30.4650644213"><ele>299.59</ele><time>2026-08-20T18:31:50Z</time></trkpt><trkpt lat="59.1013026796" lon="30.4650644213"><ele>299.11</ele><time>2026-08-20T18:31:51Z</time></trkpt><trkpt lat="59.1013026796" lon="30.4650644213"><ele>299.11</ele><time>2026-08-20T18:31:52Z</time></trkpt><trkpt lat="59.1013026796" lon="30.4650644213"><ele>299.11</ele><time>2026-08-20T18:31:53Z</time></trkpt><trkpt lat="59.1013068706" lon="30.4650472384"><ele>299.11</ele><time>2026-08-20T18:31:54Z</time></trkpt><trkpt lat="59.1013077926" lon="30.4650400300"><ele>299.11</ele><time>2026-08-20T18:31:55Z</time></trkpt><trkpt lat="59.1013101395" lon="30.4650318995"><ele>299.11</ele><time>2026-08-20T18:31:56Z</time></trkpt><trkpt lat="59.1013143305" lon="30.4650211707"><ele>299.11</ele><time>2026-08-20T18:31:57Z</time></trkpt><trkpt lat="59.1013190243" lon="30.4650028981"><ele>299.11</ele><time>2026-08-20T18:31:58Z</time></trkpt><trkpt lat="59.1013214551" lon="30.4649875592"><ele>299.11</ele><time>2026-08-20T18:31:59Z</time></trkpt><trkpt lat="59.1013232991" lon="30.4649811890"><ele>299.11</ele><time>2026-08-20T18:32:00Z</time></trkpt><trkpt lat="59.1013249755" lon="30.4649712984"><ele>299.11</ele><time>2026-08-20T18:32:01Z</time></trkpt><trkpt lat="59.1013274901" lon="30.4649675265"><ele>299.11</ele><time>2026-08-20T18:32:02Z</time></trkpt><trkpt lat="59.1013274901" lon="30.4649675265"><ele>299.11</ele><time>2026-08-20T18:32:03Z</time></trkpt><trkpt lat="59.1013274901" lon="30.4649675265"><ele>299.11</ele><time>2026-08-20T18:32:04Z</time></trkpt><trkpt lat="59.1013274901" lon="30.4649675265"><ele>299.11</ele><time>2026-08-20T18:32:05Z</time></trkpt><trkpt lat="59.1013274901" lon="30.4649675265"><ele>299.11</ele><time>2026-08-20T18:32:06Z</time></trkpt><trkpt lat="59.1013274901" lon="30.4649675265"><ele>299.11</ele><time>2026-08-20T18:32:07Z</time></trkpt><trkpt lat="59.1013274901" lon="30.4649675265"><ele>299.59</ele><time>2026-08-20T18:32:08Z</time></trkpt><trkpt lat="59.1013274901" lon="30.4649675265"><ele>299.59</ele><time>2026-08-20T18:32:09Z</time></trkpt><trkpt lat="59.1013274901" lon="30.4649675265"><ele>299.59</ele><time>2026-08-20T18:32:10Z</time></trkpt><trkpt lat="59.1013274901" lon="30.4649675265"><ele>299.59</ele><time>2026-08-20T18:32:11Z</time></trkpt><trkpt lat="59.1013359558" lon="30.4649512656"><ele>299.59</ele><time>2026-08-20T18:32:12Z</time></trkpt><trkpt lat="59.1013371293" lon="30.4649393633"><ele>299.11</ele><time>2026-08-20T18:32:13Z</time></trkpt><trkpt lat="59.1013385542" lon="30.4649287183"><ele>299.11</ele><time>2026-08-20T18:32:14Z</time></trkpt><trkpt lat="59.1013403982" lon="30.4649222642"><ele>299.11</ele><time>2026-08-20T18:32:15Z</time></trkpt><trkpt lat="59.1013416555" lon="30.4649170674"><ele>299.59</ele><time>2026-08-20T18:32:16Z</time></trkpt><trkpt lat="59.1013433319" lon="30.4649104457"><ele>299.59</ele><time>2026-08-20T18:32:17Z</time></trkpt><trkpt lat="59.1013485286" lon="30.4649009742"><ele>299.59</ele><time>2026-08-20T18:32:18Z</time></trkpt><trkpt lat="59.1013485286" lon="30.4649009742"><ele>299.59</ele><time>2026-08-20T18:32:19Z</time></trkpt><trkpt lat="59.1013485286" lon="30.4649009742"><ele>299.59</ele><time>2026-08-20T18:32:20Z</time></trkpt><trkpt lat="59.1013485286" lon="30.4649009742"><ele>299.59</ele><time>2026-08-20T18:32:21Z</time></trkpt><trkpt lat="59.1013485286" lon="30.4649009742"><ele>299.11</ele><time>2026-08-20T18:32:22Z</time></trkpt><trkpt lat="59.1013485286" lon="30.4649009742"><ele>299.11</ele><time>2026-08-20T18:32:23Z</time></trkpt><trkpt lat="59.1013485286" lon="30.4649009742"><ele>299.11</ele><time>2026-08-20T18:32:24Z</time></trkpt><trkpt lat="59.1013485286" lon="30.4649009742"><ele>299.11</ele><time>2026-08-20T18:32:25Z</time></trkpt><trkpt lat="59.1013485286" lon="30.4649009742"><ele>299.11</ele><time>2026-08-20T18:32:26Z</time></trkpt><trkpt lat="59.1013485286" lon="30.4649009742"><ele>299.11</ele><time>2026-08-20T18:32:27Z</time></trkpt><trkpt lat="59.1013485286" lon="30.4649009742"><ele>299.11</ele><time>2026-08-20T18:32:28Z</time></trkpt><trkpt lat="59.1013576649" lon="30.4648665246"><ele>299.59</ele><time>2026-08-20T18:32:29Z</time></trkpt><trkpt lat="59.1013596766" lon="30.4648540355"><ele>299.11</ele><time>2026-08-20T18:32:30Z</time></trkpt><trkpt lat="59.1013615206" lon="30.4648410436"><ele>299.11</ele><time>2026-08-20T18:32:31Z</time></trkpt><trkpt lat="59.1013638675" lon="30.4648321588"><ele>299.11</ele><time>2026-08-20T18:32:32Z</time></trkpt><trkpt lat="59.1013654601" lon="30.4648214299"><ele>299.11</ele><time>2026-08-20T18:32:33Z</time></trkpt><trkpt lat="59.1013677232" lon="30.4648143891"><ele>299.11</ele><time>2026-08-20T18:32:34Z</time></trkpt><trkpt lat="59.1013740934" lon="30.4647994693"><ele>299.11</ele><time>2026-08-20T18:32:35Z</time></trkpt><trkpt lat="59.1013775300" lon="30.4647881538"><ele>299.11</ele><time>2026-08-20T18:32:36Z</time></trkpt><trkpt lat="59.1013823915" lon="30.4647781793"><ele>299.11</ele><time>2026-08-20T18:32:37Z</time></trkpt><trkpt lat="59.1013874207" lon="30.4647672828"><ele>299.11</ele><time>2026-08-20T18:32:38Z</time></trkpt><trkpt lat="59.1013949644" lon="30.4647529498"><ele>299.11</ele><time>2026-08-20T18:32:39Z</time></trkpt><trkpt lat="59.1014011670" lon="30.4647410475"><ele>299.11</ele><time>2026-08-20T18:32:40Z</time></trkpt><trkpt lat="59.1014020890" lon="30.4647418857"><ele>299.11</ele><time>2026-08-20T18:32:41Z</time></trkpt><trkpt lat="59.1014046874" lon="30.4647336714"><ele>299.11</ele><time>2026-08-20T18:32:42Z</time></trkpt><trkpt lat="59.1014107224" lon="30.4647236969"><ele>299.11</ele><time>2026-08-20T18:32:43Z</time></trkpt><trkpt lat="59.1014175955" lon="30.4647143930"><ele>299.11</ele><time>2026-08-20T18:32:44Z</time></trkpt><trkpt lat="59.1014175955" lon="30.4647143930"><ele>299.11</ele><time>2026-08-20T18:32:45Z</time></trkpt><trkpt lat="59.1014175955" lon="30.4647143930"><ele>299.11</ele><time>2026-08-20T18:32:46Z</time></trkpt><trkpt lat="59.1014175955" lon="30.4647143930"><ele>299.11</ele><time>2026-08-20T18:32:47Z</time></trkpt><trkpt lat="59.1014175955" lon="30.4647143930"><ele>299.11</ele><time>2026-08-20T18:32:48Z</time></trkpt><trkpt lat="59.1014175955" lon="30.4647143930"><ele>299.11</ele><time>2026-08-20T18:32:49Z</time></trkpt><trkpt lat="59.1014175955" lon="30.4647143930"><ele>299.11</ele><time>2026-08-20T18:32:50Z</time></trkpt><trkpt lat="59.1014628578" lon="30.4646568932"><ele>299.11</ele><time>2026-08-20T18:32:51Z</time></trkpt><trkpt lat="59.1014677193" lon="30.4646468349"><ele>299.11</ele><time>2026-08-20T18:32:52Z</time></trkpt><trkpt lat="59.1014727484" lon="30.4646439850"><ele>299.11</ele><time>2026-08-20T18:32:53Z</time></trkpt><trkpt lat="59.1014774423" lon="30.4646388721"><ele>299.11</ele><time>2026-08-20T18:32:54Z</time></trkpt><trkpt lat="59.1014830582" lon="30.4646293167"><ele>299.11</ele><time>2026-08-20T18:32:55Z</time></trkpt><trkpt lat="59.1014897637" lon="30.4646173306"><ele>299.11</ele><time>2026-08-20T18:32:56Z</time></trkpt><trkpt lat="59.1014934517" lon="30.4645994771"><ele>299.11</ele><time>2026-08-20T18:32:57Z</time></trkpt><trkpt lat="59.1014960501" lon="30.4645828810"><ele>299.11</ele><time>2026-08-20T18:32:58Z</time></trkpt><trkpt lat="59.1014984809" lon="30.4645692185"><ele>299.59</ele><time>2026-08-20T18:32:59Z</time></trkpt><trkpt lat="59.1015015822" lon="30.4645569809"><ele>299.59</ele><time>2026-08-20T18:33:00Z</time></trkpt><trkpt lat="59.1015081201" lon="30.4645387921"><ele>299.59</ele><time>2026-08-20T18:33:01Z</time></trkpt><trkpt lat="59.1015132330" lon="30.4645212740"><ele>299.59</ele><time>2026-08-20T18:33:02Z</time></trkpt><trkpt lat="59.1015147418" lon="30.4645061865"><ele>299.59</ele><time>2026-08-20T18:33:03Z</time></trkpt><trkpt lat="59.1015167534" lon="30.4644903447"><ele>299.59</ele><time>2026-08-20T18:33:04Z</time></trkpt><trkpt lat="59.1015195195" lon="30.4644736648"><ele>299.59</ele><time>2026-08-20T18:33:05Z</time></trkpt><trkpt lat="59.1015202738" lon="30.4644550569"><ele>299.59</ele><time>2026-08-20T18:33:06Z</time></trkpt><trkpt lat="59.1015215311" lon="30.4644380417"><ele>299.59</ele><time>2026-08-20T18:33:07Z</time></trkpt><trkpt lat="59.1015231237" lon="30.4644200206"><ele>299.11</ele><time>2026-08-20T18:33:08Z</time></trkpt><trkpt lat="59.1015284881" lon="30.4643997364"><ele>299.11</ele><time>2026-08-20T18:33:09Z</time></trkpt><trkpt lat="59.1015330981" lon="30.4643826373"><ele>299.11</ele><time>2026-08-20T18:33:10Z</time></trkpt><trkpt lat="59.1015412286" lon="30.4643575754"><ele>299.11</ele><time>2026-08-20T18:33:11Z</time></trkpt><trkpt lat="59.1015453357" lon="30.4643344413"><ele>299.11</ele><time>2026-08-20T18:33:12Z</time></trkpt><trkpt lat="59.1015442461" lon="30.4643118940"><ele>299.11</ele><time>2026-08-20T18:33:13Z</time></trkpt><trkpt lat="59.1015440784" lon="30.4642931186"><ele>299.11</ele><time>2026-08-20T18:33:14Z</time></trkpt><trkpt lat="59.1015459225" lon="30.4642740916"><ele>299.11</ele><time>2026-08-20T18:33:15Z</time></trkpt><trkpt lat="59.1015472636" lon="30.4642544780"><ele>299.11</ele><time>2026-08-20T18:33:16Z</time></trkpt><trkpt lat="59.1015462577" lon="30.4642339423"><ele>299.11</ele><time>2026-08-20T18:33:17Z</time></trkpt><trkpt lat="59.1015427373" lon="30.4642181844"><ele>299.11</ele><time>2026-08-20T18:33:18Z</time></trkpt><trkpt lat="59.1015404742" lon="30.4642021749"><ele>299.11</ele><time>2026-08-20T18:33:19Z</time></trkpt><trkpt lat="59.1015367862" lon="30.4641817231"><ele>299.11</ele><time>2026-08-20T18:33:20Z</time></trkpt><trkpt lat="59.1015339363" lon="30.4641663842"><ele>299.11</ele><time>2026-08-20T18:33:21Z</time></trkpt><trkpt lat="59.1015309189" lon="30.4641558230"><ele>299.11</ele><time>2026-08-20T18:33:22Z</time></trkpt><trkpt lat="59.1015260573" lon="30.4641449265"><ele>299.11</ele><time>2026-08-20T18:33:23Z</time></trkpt><trkpt lat="59.1015227884" lon="30.4641305935"><ele>299.11</ele><time>2026-08-20T18:33:24Z</time></trkpt><trkpt lat="59.1015178431" lon="30.4641128238"><ele>299.11</ele><time>2026-08-20T18:33:25Z</time></trkpt><trkpt lat="59.1015138198" lon="30.4641051963"><ele>299.11</ele><time>2026-08-20T18:33:26Z</time></trkpt><trkpt lat="59.1015134845" lon="30.4640979879"><ele>299.11</ele><time>2026-08-20T18:33:27Z</time></trkpt><trkpt lat="59.1015131492" lon="30.4640866723"><ele>299.11</ele><time>2026-08-20T18:33:28Z</time></trkpt><trkpt lat="59.1015101317" lon="30.4640764464"><ele>299.11</ele><time>2026-08-20T18:33:29Z</time></trkpt><trkpt lat="59.1015086230" lon="30.4640671425"><ele>299.11</ele><time>2026-08-20T18:33:30Z</time></trkpt><trkpt lat="59.1015090421" lon="30.4640523903"><ele>299.11</ele><time>2026-08-20T18:33:31Z</time></trkpt><trkpt lat="59.1015080363" lon="30.4640393984"><ele>299.11</ele><time>2026-08-20T18:33:32Z</time></trkpt><trkpt lat="59.1015061922" lon="30.4640213773"><ele>299.11</ele><time>2026-08-20T18:33:33Z</time></trkpt><trkpt lat="59.1015028395" lon="30.4640073795"><ele>299.11</ele><time>2026-08-20T18:33:34Z</time></trkpt><trkpt lat="59.1015022527" lon="30.4639927950"><ele>299.11</ele><time>2026-08-20T18:33:35Z</time></trkpt><trkpt lat="59.1014994867" lon="30.4639766179"><ele>299.11</ele><time>2026-08-20T18:33:36Z</time></trkpt><trkpt lat="59.1014984809" lon="30.4639645480"><ele>299.11</ele><time>2026-08-20T18:33:37Z</time></trkpt><trkpt lat="59.1014975589" lon="30.4639504664"><ele>299.59</ele><time>2026-08-20T18:33:38Z</time></trkpt><trkpt lat="59.1015013307" lon="30.4639376421"><ele>299.59</ele><time>2026-08-20T18:33:39Z</time></trkpt><trkpt lat="59.1015014984" lon="30.4639189504"><ele>299.59</ele><time>2026-08-20T18:33:40Z</time></trkpt><trkpt lat="59.1015037615" lon="30.4638996720"><ele>299.59</ele><time>2026-08-20T18:33:41Z</time></trkpt><trkpt lat="59.1015024204" lon="30.4638845846"><ele>299.59</ele><time>2026-08-20T18:33:42Z</time></trkpt><trkpt lat="59.1015011631" lon="30.4638673179"><ele>299.59</ele><time>2026-08-20T18:33:43Z</time></trkpt><trkpt lat="59.1014993191" lon="30.4638557509"><ele>299.59</ele><time>2026-08-20T18:33:44Z</time></trkpt><trkpt lat="59.1014963854" lon="30.4638436809"><ele>299.59</ele><time>2026-08-20T18:33:45Z</time></trkpt><trkpt lat="59.1014968883" lon="30.4638305213"><ele>299.59</ele><time>2026-08-20T18:33:46Z</time></trkpt><trkpt lat="59.1014993191" lon="30.4638091475"><ele>299.59</ele><time>2026-08-20T18:33:47Z</time></trkpt><trkpt lat="59.1015036777" lon="30.4637900367"><ele>299.59</ele><time>2026-08-20T18:33:48Z</time></trkpt><trkpt lat="59.1015072819" lon="30.4637702554"><ele>299.59</ele><time>2026-08-20T18:33:49Z</time></trkpt><trkpt lat="59.1015158314" lon="30.4637546651"><ele>299.59</ele><time>2026-08-20T18:33:50Z</time></trkpt><trkpt lat="59.1015231237" lon="30.4637379851"><ele>299.59</ele><time>2026-08-20T18:33:51Z</time></trkpt><trkpt lat="59.1015254706" lon="30.4637187906"><ele>299.59</ele><time>2026-08-20T18:33:52Z</time></trkpt><trkpt lat="59.1015294939" lon="30.4637034517"><ele>299.59</ele><time>2026-08-20T18:33:53Z</time></trkpt><trkpt lat="59.1015364509" lon="30.4636873584"><ele>299.59</ele><time>2026-08-20T18:33:54Z</time></trkpt><trkpt lat="59.1015415639" lon="30.4636736959"><ele>299.59</ele><time>2026-08-20T18:33:55Z</time></trkpt><trkpt lat="59.1015478503" lon="30.4636583570"><ele>299.59</ele><time>2026-08-20T18:33:56Z</time></trkpt><trkpt lat="59.1015509516" lon="30.4636478797"><ele>299.59</ele><time>2026-08-20T18:33:57Z</time></trkpt><trkpt lat="59.1015528794" lon="30.4636352230"><ele>299.59</ele><time>2026-08-20T18:33:58Z</time></trkpt><trkpt lat="59.1015557293" lon="30.4636195488"><ele>299.59</ele><time>2026-08-20T18:33:59Z</time></trkpt><trkpt lat="59.1015592497" lon="30.4636093229"><ele>299.59</ele><time>2026-08-20T18:34:00Z</time></trkpt><trkpt lat="59.1015601717" lon="30.4635958280"><ele>299.59</ele><time>2026-08-20T18:34:01Z</time></trkpt><trkpt lat="59.1015629377" lon="30.4635840934"><ele>299.59</ele><time>2026-08-20T18:34:02Z</time></trkpt><trkpt lat="59.1015645303" lon="30.4635707662"><ele>299.59</ele><time>2026-08-20T18:34:03Z</time></trkpt><trkpt lat="59.1015654523" lon="30.4635574389"><ele>299.59</ele><time>2026-08-20T18:34:04Z</time></trkpt><trkpt lat="59.1015649494" lon="30.4635451175"><ele>299.59</ele><time>2026-08-20T18:34:05Z</time></trkpt><trkpt lat="59.1015629377" lon="30.4635295272"><ele>299.59</ele><time>2026-08-20T18:34:06Z</time></trkpt><trkpt lat="59.1015611775" lon="30.4635143559"><ele>299.59</ele><time>2026-08-20T18:34:07Z</time></trkpt><trkpt lat="59.1015592497" lon="30.4635008611"><ele>299.59</ele><time>2026-08-20T18:34:08Z</time></trkpt><trkpt lat="59.1015567351" lon="30.4634931497"><ele>299.59</ele><time>2026-08-20T18:34:09Z</time></trkpt><trkpt lat="59.1015546396" lon="30.4634834267"><ele>299.59</ele><time>2026-08-20T18:34:10Z</time></trkpt><trkpt lat="59.1015537176" lon="30.4634781461"><ele>299.59</ele><time>2026-08-20T18:34:11Z</time></trkpt><trkpt lat="59.1015547235" lon="30.4634792358"><ele>299.59</ele><time>2026-08-20T18:34:12Z</time></trkpt><trkpt lat="59.1015551426" lon="30.4634742904"><ele>299.59</ele><time>2026-08-20T18:34:13Z</time></trkpt><trkpt lat="59.1015568189" lon="30.4634562694"><ele>299.59</ele><time>2026-08-20T18:34:14Z</time></trkpt><trkpt lat="59.1015599202" lon="30.4634426907"><ele>299.59</ele><time>2026-08-20T18:34:15Z</time></trkpt><trkpt lat="59.1015658714" lon="30.4634260945"><ele>299.59</ele><time>2026-08-20T18:34:16Z</time></trkpt><trkpt lat="59.1015686374" lon="30.4634107556"><ele>299.59</ele><time>2026-08-20T18:34:17Z</time></trkpt><trkpt lat="59.1015724931" lon="30.4633933213"><ele>299.59</ele><time>2026-08-20T18:34:18Z</time></trkpt><trkpt lat="59.1015755944" lon="30.4633772280"><ele>299.59</ele><time>2026-08-20T18:34:19Z</time></trkpt><trkpt lat="59.1015782766" lon="30.4633582849"><ele>299.59</ele><time>2026-08-20T18:34:20Z</time></trkpt><trkpt lat="59.1015832219" lon="30.4633491486"><ele>299.59</ele><time>2026-08-20T18:34:21Z</time></trkpt><trkpt lat="59.1015899274" lon="30.4633359890"><ele>299.59</ele><time>2026-08-20T18:34:22Z</time></trkpt><trkpt lat="59.1015933640" lon="30.4633213207"><ele>299.59</ele><time>2026-08-20T18:34:23Z</time></trkpt><trkpt lat="59.1015979741" lon="30.4633046407"><ele>299.59</ele><time>2026-08-20T18:34:24Z</time></trkpt><trkpt lat="59.1016058531" lon="30.4632879607"><ele>299.59</ele><time>2026-08-20T18:34:25Z</time></trkpt><trkpt lat="59.1016130615" lon="30.4632670898"><ele>299.59</ele><time>2026-08-20T18:34:26Z</time></trkpt><trkpt lat="59.1016198508" lon="30.4632575344"><ele>299.59</ele><time>2026-08-20T18:34:27Z</time></trkpt><trkpt lat="59.1016278975" lon="30.4632461350"><ele>299.59</ele><time>2026-08-20T18:34:28Z</time></trkpt><trkpt lat="59.1016335972" lon="30.4632350709"><ele>299.59</ele><time>2026-08-20T18:34:29Z</time></trkpt><trkpt lat="59.1016386263" lon="30.4632220790"><ele>299.59</ele><time>2026-08-20T18:34:30Z</time></trkpt><trkpt lat="59.1016404703" lon="30.4632155411"><ele>300.07</ele><time>2026-08-20T18:34:31Z</time></trkpt><trkpt lat="59.1016411409" lon="30.4632104281"><ele>300.07</ele><time>2026-08-20T18:34:32Z</time></trkpt><trkpt lat="59.1016440745" lon="30.4632055666"><ele>300.07</ele><time>2026-08-20T18:34:33Z</time></trkpt><trkpt lat="59.1016446613" lon="30.4632083327"><ele>300.07</ele><time>2026-08-20T18:34:34Z</time></trkpt><trkpt lat="59.1016487684" lon="30.4632026330"><ele>300.07</ele><time>2026-08-20T18:34:35Z</time></trkpt><trkpt lat="59.1016507801" lon="30.4631990287"><ele>300.07</ele><time>2026-08-20T18:34:36Z</time></trkpt><trkpt lat="59.1016524564" lon="30.4631974362"><ele>300.07</ele><time>2026-08-20T18:34:37Z</time></trkpt><trkpt lat="59.1016504448" lon="30.4631918203"><ele>299.59</ele><time>2026-08-20T18:34:38Z</time></trkpt><trkpt lat="59.1016521212" lon="30.4631839413"><ele>299.59</ele><time>2026-08-20T18:34:39Z</time></trkpt><trkpt lat="59.1016521212" lon="30.4631839413"><ele>299.59</ele><time>2026-08-20T18:34:40Z</time></trkpt><trkpt lat="59.1016521212" lon="30.4631839413"><ele>299.59</ele><time>2026-08-20T18:34:41Z</time></trkpt><trkpt lat="59.1016521212" lon="30.4631839413"><ele>299.59</ele><time>2026-08-20T18:34:42Z</time></trkpt><trkpt lat="59.1016521212" lon="30.4631839413"><ele>299.59</ele><time>2026-08-20T18:34:43Z</time></trkpt><trkpt lat="59.1016521212" lon="30.4631839413"><ele>299.59</ele><time>2026-08-20T18:34:44Z</time></trkpt><trkpt lat="59.1016521212" lon="30.4631839413"><ele>299.59</ele><time>2026-08-20T18:34:45Z</time></trkpt><trkpt lat="59.1016521212" lon="30.4631839413"><ele>299.59</ele><time>2026-08-20T18:34:46Z</time></trkpt><trkpt lat="59.1016521212" lon="30.4631839413"><ele>299.59</ele><time>2026-08-20T18:34:47Z</time></trkpt><trkpt lat="59.1016521212" lon="30.4631839413"><ele>299.59</ele><time>2026-08-20T18:34:48Z</time></trkpt><trkpt lat="59.1016521212" lon="30.4631839413"><ele>299.59</ele><time>2026-08-20T18:34:49Z</time></trkpt><trkpt lat="59.1016521212" lon="30.4631839413"><ele>299.59</ele><time>2026-08-20T18:34:50Z</time></trkpt><trkpt lat="59.1016521212" lon="30.4631839413"><ele>299.59</ele><time>2026-08-20T18:34:51Z</time></trkpt><trkpt lat="59.1016521212" lon="30.4631839413"><ele>299.59</ele><time>2026-08-20T18:34:52Z</time></trkpt><trkpt lat="59.1016521212" lon="30.4631839413"><ele>299.59</ele><time>2026-08-20T18:34:53Z</time></trkpt><trkpt lat="59.1016521212" lon="30.4631839413"><ele>299.59</ele><time>2026-08-20T18:34:54Z</time></trkpt><trkpt lat="59.1016521212" lon="30.4631839413"><ele>299.59</ele><time>2026-08-20T18:34:55Z</time></trkpt><trkpt lat="59.1016521212" lon="30.4631839413"><ele>299.59</ele><time>2026-08-20T18:34:56Z</time></trkpt><trkpt lat="59.1016521212" lon="30.4631839413"><ele>299.59</ele><time>2026-08-20T18:34:57Z</time></trkpt><trkpt lat="59.1016521212" lon="30.4631839413"><ele>299.59</ele><time>2026-08-20T18:34:58Z</time></trkpt><trkpt lat="59.1016521212" lon="30.4631839413"><ele>299.59</ele><time>2026-08-20T18:34:59Z</time></trkpt><trkpt lat="59.1016521212" lon="30.4631839413"><ele>299.59</ele><time>2026-08-20T18:35:00Z</time></trkpt><trkpt lat="59.1016521212" lon="30.4631839413"><ele>299.59</ele><time>2026-08-20T18:35:01Z</time></trkpt><trkpt lat="59.1016521212" lon="30.4631839413"><ele>299.59</ele><time>2026-08-20T18:35:02Z</time></trkpt><trkpt lat="59.1016521212" lon="30.4631839413"><ele>299.59</ele><time>2026-08-20T18:35:03Z</time></trkpt><trkpt lat="59.1016521212" lon="30.4631839413"><ele>299.59</ele><time>2026-08-20T18:35:04Z</time></trkpt><trkpt lat="59.1016521212" lon="30.4631839413"><ele>299.59</ele><time>2026-08-20T18:35:05Z</time></trkpt><trkpt lat="59.1016521212" lon="30.4631839413"><ele>299.59</ele><time>2026-08-20T18:35:06Z</time></trkpt><trkpt lat="59.1016521212" lon="30.4631839413"><ele>299.59</ele><time>2026-08-20T18:35:07Z</time></trkpt><trkpt lat="59.1016521212" lon="30.4631839413"><ele>299.59</ele><time>2026-08-20T18:35:08Z</time></trkpt><trkpt lat="59.1016521212" lon="30.4631839413"><ele>299.59</ele><time>2026-08-20T18:35:09Z</time></trkpt><trkpt lat="59.1016521212" lon="30.4631839413"><ele>299.59</ele><time>2026-08-20T18:35:10Z</time></trkpt><trkpt lat="59.1016521212" lon="30.4631839413"><ele>299.59</ele><time>2026-08-20T18:35:11Z</time></trkpt><trkpt lat="59.1016521212" lon="30.4631839413"><ele>299.59</ele><time>2026-08-20T18:35:12Z</time></trkpt><trkpt lat="59.1016521212" lon="30.4631839413"><ele>299.59</ele><time>2026-08-20T18:35:13Z</time></trkpt><trkpt lat="59.1016521212" lon="30.4631839413"><ele>299.59</ele><time>2026-08-20T18:35:14Z</time></trkpt><trkpt lat="59.1016521212" lon="30.4631839413"><ele>299.59</ele><time>2026-08-20T18:35:15Z</time></trkpt><trkpt lat="59.1016521212" lon="30.4631839413"><ele>299.59</ele><time>2026-08-20T18:35:16Z</time></trkpt><trkpt lat="59.1016521212" lon="30.4631839413"><ele>299.59</ele><time>2026-08-20T18:35:17Z</time></trkpt><trkpt lat="59.1016521212" lon="30.4631839413"><ele>299.59</ele><time>2026-08-20T18:35:18Z</time></trkpt><trkpt lat="59.1016521212" lon="30.4631839413"><ele>299.59</ele><time>2026-08-20T18:35:19Z</time></trkpt><trkpt lat="59.1016521212" lon="30.4631839413"><ele>299.59</ele><time>2026-08-20T18:35:20Z</time></trkpt><trkpt lat="59.1016521212" lon="30.4631839413"><ele>299.59</ele><time>2026-08-20T18:35:21Z</time></trkpt><trkpt lat="59.1016521212" lon="30.4631839413"><ele>299.59</ele><time>2026-08-20T18:35:22Z</time></trkpt><trkpt lat="59.1016521212" lon="30.4631839413"><ele>299.59</ele><time>2026-08-20T18:35:23Z</time></trkpt><trkpt lat="59.1016521212" lon="30.4631839413"><ele>299.59</ele><time>2026-08-20T18:35:24Z</time></trkpt><trkpt lat="59.1016521212" lon="30.4631839413"><ele>299.59</ele><time>2026-08-20T18:35:25Z</time></trkpt><trkpt lat="59.1016521212" lon="30.4631839413"><ele>299.59</ele><time>2026-08-20T18:35:26Z</time></trkpt><trkpt lat="59.1016521212" lon="30.4631839413"><ele>299.59</ele><time>2026-08-20T18:35:27Z</time></trkpt><trkpt lat="59.1016521212" lon="30.4631839413"><ele>300.07</ele><time>2026-08-20T18:35:28Z</time></trkpt><trkpt lat="59.1016521212" lon="30.4631839413"><ele>300.07</ele><time>2026-08-20T18:35:29Z</time></trkpt><trkpt lat="59.1016521212" lon="30.4631839413"><ele>300.07</ele><time>2026-08-20T18:35:30Z</time></trkpt><trkpt lat="59.1016521212" lon="30.4631839413"><ele>299.59</ele><time>2026-08-20T18:35:31Z</time></trkpt><trkpt lat="59.1016521212" lon="30.4631839413"><ele>299.59</ele><time>2026-08-20T18:35:32Z</time></trkpt><trkpt lat="59.1016521212" lon="30.4631839413"><ele>299.59</ele><time>2026-08-20T18:35:33Z</time></trkpt><trkpt lat="59.1016521212" lon="30.4631839413"><ele>299.59</ele><time>2026-08-20T18:35:34Z</time></trkpt><trkpt lat="59.1016521212" lon="30.4631839413"><ele>299.59</ele><time>2026-08-20T18:35:35Z</time></trkpt><trkpt lat="59.1016521212" lon="30.4631839413"><ele>299.59</ele><time>2026-08-20T18:35:36Z</time></trkpt><trkpt lat="59.1016521212" lon="30.4631839413"><ele>299.59</ele><time>2026-08-20T18:35:37Z</time></trkpt><trkpt lat="59.1016521212" lon="30.4631839413"><ele>299.59</ele><time>2026-08-20T18:35:38Z</time></trkpt><trkpt lat="59.1016521212" lon="30.4631839413"><ele>300.07</ele><time>2026-08-20T18:35:39Z</time></trkpt><trkpt lat="59.1016521212" lon="30.4631839413"><ele>300.07</ele><time>2026-08-20T18:35:40Z</time></trkpt><trkpt lat="59.1016521212" lon="30.4631839413"><ele>300.07</ele><time>2026-08-20T18:35:41Z</time></trkpt><trkpt lat="59.1016521212" lon="30.4631839413"><ele>300.07</ele><time>2026-08-20T18:35:42Z</time></trkpt><trkpt lat="59.1016521212" lon="30.4631839413"><ele>300.07</ele><time>2026-08-20T18:35:43Z</time></trkpt><trkpt lat="59.1016521212" lon="30.4631839413"><ele>300.07</ele><time>2026-08-20T18:35:44Z</time></trkpt><trkpt lat="59.1016521212" lon="30.4631839413"><ele>300.07</ele><time>2026-08-20T18:35:45Z</time></trkpt><trkpt lat="59.1016521212" lon="30.4631839413"><ele>300.07</ele><time>2026-08-20T18:35:46Z</time></trkpt><trkpt lat="59.1016521212" lon="30.4631839413"><ele>300.07</ele><time>2026-08-20T18:35:47Z</time></trkpt><trkpt lat="59.1016521212" lon="30.4631839413"><ele>300.07</ele><time>2026-08-20T18:35:48Z</time></trkpt><trkpt lat="59.1016521212" lon="30.4631839413"><ele>300.07</ele><time>2026-08-20T18:35:49Z</time></trkpt><trkpt lat="59.1016521212" lon="30.4631839413"><ele>300.07</ele><time>2026-08-20T18:35:50Z</time></trkpt><trkpt lat="59.1016521212" lon="30.4631839413"><ele>300.07</ele><time>2026-08-20T18:35:51Z</time></trkpt><trkpt lat="59.1016521212" lon="30.4631839413"><ele>300.07</ele><time>2026-08-20T18:35:52Z</time></trkpt><trkpt lat="59.1016521212" lon="30.4631839413"><ele>300.07</ele><time>2026-08-20T18:35:53Z</time></trkpt><trkpt lat="59.1016521212" lon="30.4631839413"><ele>300.07</ele><time>2026-08-20T18:35:54Z</time></trkpt><trkpt lat="59.1016521212" lon="30.4631839413"><ele>300.07</ele><time>2026-08-20T18:35:55Z</time></trkpt><trkpt lat="59.1016521212" lon="30.4631839413"><ele>300.07</ele><time>2026-08-20T18:35:56Z</time></trkpt><trkpt lat="59.1016521212" lon="30.4631839413"><ele>299.59</ele><time>2026-08-20T18:35:57Z</time></trkpt><trkpt lat="59.1016521212" lon="30.4631839413"><ele>299.59</ele><time>2026-08-20T18:35:58Z</time></trkpt><trkpt lat="59.1016521212" lon="30.4631839413"><ele>299.59</ele><time>2026-08-20T18:35:59Z</time></trkpt><trkpt lat="59.1016521212" lon="30.4631839413"><ele>299.59</ele><time>2026-08-20T18:36:00Z</time></trkpt><trkpt lat="59.1016521212" lon="30.4631839413"><ele>299.59</ele><time>2026-08-20T18:36:01Z</time></trkpt><trkpt lat="59.1016521212" lon="30.4631839413"><ele>299.59</ele><time>2026-08-20T18:36:02Z</time></trkpt><trkpt lat="59.1016521212" lon="30.4631839413"><ele>299.59</ele><time>2026-08-20T18:36:03Z</time></trkpt><trkpt lat="59.1016521212" lon="30.4631839413"><ele>299.59</ele><time>2026-08-20T18:36:04Z</time></trkpt><trkpt lat="59.1016521212" lon="30.4631839413"><ele>299.59</ele><time>2026-08-20T18:36:05Z</time></trkpt><trkpt lat="59.1016521212" lon="30.4631839413"><ele>299.59</ele><time>2026-08-20T18:36:06Z</time></trkpt><trkpt lat="59.1016521212" lon="30.4631839413"><ele>299.59</ele><time>2026-08-20T18:36:07Z</time></trkpt><trkpt lat="59.1016521212" lon="30.4631839413"><ele>299.59</ele><time>2026-08-20T18:36:08Z</time></trkpt><trkpt lat="59.1016521212" lon="30.4631839413"><ele>299.59</ele><time>2026-08-20T18:36:09Z</time></trkpt><trkpt lat="59.1016521212" lon="30.4631839413"><ele>299.59</ele><time>2026-08-20T18:36:10Z</time></trkpt><trkpt lat="59.1016521212" lon="30.4631839413"><ele>299.59</ele><time>2026-08-20T18:36:11Z</time></trkpt><trkpt lat="59.1016521212" lon="30.4631839413"><ele>299.59</ele><time>2026-08-20T18:36:12Z</time></trkpt><trkpt lat="59.1016521212" lon="30.4631839413"><ele>299.59</ele><time>2026-08-20T18:36:13Z</time></trkpt><trkpt lat="59.1016521212" lon="30.4631839413"><ele>299.59</ele><time>2026-08-20T18:36:14Z</time></trkpt><trkpt lat="59.1016521212" lon="30.4631839413"><ele>299.59</ele><time>2026-08-20T18:36:15Z</time></trkpt><trkpt lat="59.1016521212" lon="30.4631839413"><ele>299.59</ele><time>2026-08-20T18:36:16Z</time></trkpt><trkpt lat="59.1016521212" lon="30.4631839413"><ele>299.59</ele><time>2026-08-20T18:36:17Z</time></trkpt><trkpt lat="59.1016521212" lon="30.4631839413"><ele>299.59</ele><time>2026-08-20T18:36:18Z</time></trkpt><trkpt lat="59.1016521212" lon="30.4631839413"><ele>299.59</ele><time>2026-08-20T18:36:19Z</time></trkpt><trkpt lat="59.1016521212" lon="30.4631839413"><ele>299.59</ele><time>2026-08-20T18:36:20Z</time></trkpt><trkpt lat="59.1016521212" lon="30.4631839413"><ele>299.59</ele><time>2026-08-20T18:36:21Z</time></trkpt><trkpt lat="59.1016521212" lon="30.4631839413"><ele>299.59</ele><time>2026-08-20T18:36:22Z</time></trkpt><trkpt lat="59.1016521212" lon="30.4631839413"><ele>299.59</ele><time>2026-08-20T18:36:23Z</time></trkpt><trkpt lat="59.1016521212" lon="30.4631839413"><ele>299.59</ele><time>2026-08-20T18:36:24Z</time></trkpt><trkpt lat="59.1016521212" lon="30.4631839413"><ele>299.59</ele><time>2026-08-20T18:36:25Z</time></trkpt><trkpt lat="59.1016521212" lon="30.4631839413"><ele>299.59</ele><time>2026-08-20T18:36:26Z</time></trkpt><trkpt lat="59.1016521212" lon="30.4631839413"><ele>299.59</ele><time>2026-08-20T18:36:27Z</time></trkpt><trkpt lat="59.1016521212" lon="30.4631839413"><ele>299.59</ele><time>2026-08-20T18:36:28Z</time></trkpt><trkpt lat="59.1016521212" lon="30.4631839413"><ele>299.59</ele><time>2026-08-20T18:36:29Z</time></trkpt><trkpt lat="59.1016521212" lon="30.4631839413"><ele>299.59</ele><time>2026-08-20T18:36:30Z</time></trkpt><trkpt lat="59.1016521212" lon="30.4631839413"><ele>299.59</ele><time>2026-08-20T18:36:31Z</time></trkpt><trkpt lat="59.1016521212" lon="30.4631839413"><ele>299.59</ele><time>2026-08-20T18:36:32Z</time></trkpt><trkpt lat="59.1016521212" lon="30.4631839413"><ele>299.59</ele><time>2026-08-20T18:36:33Z</time></trkpt><trkpt lat="59.1016521212" lon="30.4631839413"><ele>299.59</ele><time>2026-08-20T18:36:34Z</time></trkpt><trkpt lat="59.1016521212" lon="30.4631839413"><ele>299.59</ele><time>2026-08-20T18:36:35Z</time></trkpt><trkpt lat="59.1016521212" lon="30.4631839413"><ele>299.59</ele><time>2026-08-20T18:36:36Z</time></trkpt><trkpt lat="59.1016521212" lon="30.4631839413"><ele>299.59</ele><time>2026-08-20T18:36:37Z</time></trkpt><trkpt lat="59.1016521212" lon="30.4631839413"><ele>299.59</ele><time>2026-08-20T18:36:38Z</time></trkpt><trkpt lat="59.1016521212" lon="30.4631839413"><ele>299.59</ele><time>2026-08-20T18:36:39Z</time></trkpt><trkpt lat="59.1016521212" lon="30.4631839413"><ele>299.59</ele><time>2026-08-20T18:36:40Z</time></trkpt><trkpt lat="59.1016521212" lon="30.4631839413"><ele>299.59</ele><time>2026-08-20T18:36:41Z</time></trkpt><trkpt lat="59.1016521212" lon="30.4631839413"><ele>299.59</ele><time>2026-08-20T18:36:42Z</time></trkpt><trkpt lat="59.1016521212" lon="30.4631839413"><ele>299.59</ele><time>2026-08-20T18:36:43Z</time></trkpt><trkpt lat="59.1016521212" lon="30.4631839413"><ele>299.59</ele><time>2026-08-20T18:36:44Z</time></trkpt><trkpt lat="59.1016521212" lon="30.4631839413"><ele>299.59</ele><time>2026-08-20T18:36:45Z</time></trkpt><trkpt lat="59.1016521212" lon="30.4631839413"><ele>299.59</ele><time>2026-08-20T18:36:46Z</time></trkpt><trkpt lat="59.1016521212" lon="30.4631839413"><ele>299.59</ele><time>2026-08-20T18:36:47Z</time></trkpt><trkpt lat="59.1016521212" lon="30.4631839413"><ele>299.59</ele><time>2026-08-20T18:36:48Z</time></trkpt><trkpt lat="59.1016521212" lon="30.4631839413"><ele>299.59</ele><time>2026-08-20T18:36:49Z</time></trkpt><trkpt lat="59.1016521212" lon="30.4631839413"><ele>299.59</ele><time>2026-08-20T18:36:50Z</time></trkpt><trkpt lat="59.1016521212" lon="30.4631839413"><ele>299.59</ele><time>2026-08-20T18:36:51Z</time></trkpt><trkpt lat="59.1016521212" lon="30.4631839413"><ele>299.59</ele><time>2026-08-20T18:36:52Z</time></trkpt><trkpt lat="59.1016521212" lon="30.4631839413"><ele>299.59</ele><time>2026-08-20T18:36:53Z</time></trkpt><trkpt lat="59.1016521212" lon="30.4631839413"><ele>299.59</ele><time>2026-08-20T18:36:54Z</time></trkpt><trkpt lat="59.1016521212" lon="30.4631839413"><ele>299.59</ele><time>2026-08-20T18:36:55Z</time></trkpt><trkpt lat="59.1016521212" lon="30.4631839413"><ele>299.59</ele><time>2026-08-20T18:36:56Z</time></trkpt><trkpt lat="59.1016521212" lon="30.4631839413"><ele>299.59</ele><time>2026-08-20T18:36:57Z</time></trkpt><trkpt lat="59.1016521212" lon="30.4631839413"><ele>299.59</ele><time>2026-08-20T18:36:58Z</time></trkpt><trkpt lat="59.1016521212" lon="30.4631839413"><ele>299.59</ele><time>2026-08-20T18:36:59Z</time></trkpt><trkpt lat="59.1016521212" lon="30.4631839413"><ele>299.59</ele><time>2026-08-20T18:37:00Z</time></trkpt><trkpt lat="59.1016521212" lon="30.4631839413"><ele>299.59</ele><time>2026-08-20T18:37:01Z</time></trkpt><trkpt lat="59.1016521212" lon="30.4631839413"><ele>299.59</ele><time>2026-08-20T18:37:02Z</time></trkpt><trkpt lat="59.1016521212" lon="30.4631839413"><ele>299.59</ele><time>2026-08-20T18:37:03Z</time></trkpt><trkpt lat="59.1016521212" lon="30.4631839413"><ele>299.59</ele><time>2026-08-20T18:37:04Z</time></trkpt><trkpt lat="59.1016521212" lon="30.4631839413"><ele>299.59</ele><time>2026-08-20T18:37:05Z</time></trkpt><trkpt lat="59.1016521212" lon="30.4631839413"><ele>299.59</ele><time>2026-08-20T18:37:06Z</time></trkpt><trkpt lat="59.1016521212" lon="30.4631839413"><ele>299.59</ele><time>2026-08-20T18:37:07Z</time></trkpt><trkpt lat="59.1016521212" lon="30.4631839413"><ele>299.59</ele><time>2026-08-20T18:37:08Z</time></trkpt><trkpt lat="59.1016521212" lon="30.4631839413"><ele>299.59</ele><time>2026-08-20T18:37:09Z</time></trkpt><trkpt lat="59.1016521212" lon="30.4631839413"><ele>299.59</ele><time>2026-08-20T18:37:10Z</time></trkpt><trkpt lat="59.1016521212" lon="30.4631839413"><ele>299.59</ele><time>2026-08-20T18:37:11Z</time></trkpt><trkpt lat="59.1016521212" lon="30.4631839413"><ele>299.59</ele><time>2026-08-20T18:37:12Z</time></trkpt><trkpt lat="59.1016521212" lon="30.4631839413"><ele>299.59</ele><time>2026-08-20T18:37:13Z</time></trkpt><trkpt lat="59.1016521212" lon="30.4631839413"><ele>299.59</ele><time>2026-08-20T18:37:14Z</time></trkpt><trkpt lat="59.1016521212" lon="30.4631839413"><ele>299.59</ele><time>2026-08-20T18:37:15Z</time></trkpt><trkpt lat="59.1016521212" lon="30.4631839413"><ele>300.07</ele><time>2026-08-20T18:37:16Z</time></trkpt><trkpt lat="59.1016521212" lon="30.4631839413"><ele>300.07</ele><time>2026-08-20T18:37:17Z</time></trkpt><trkpt lat="59.1016521212" lon="30.4631839413"><ele>300.07</ele><time>2026-08-20T18:37:18Z</time></trkpt><trkpt lat="59.1016521212" lon="30.4631839413"><ele>300.07</ele><time>2026-08-20T18:37:19Z</time></trkpt><trkpt lat="59.1016521212" lon="30.4631839413"><ele>300.07</ele><time>2026-08-20T18:37:20Z</time></trkpt><trkpt lat="59.1016521212" lon="30.4631839413"><ele>300.07</ele><time>2026-08-20T18:37:21Z</time></trkpt><trkpt lat="59.1016521212" lon="30.4631839413"><ele>300.07</ele><time>2026-08-20T18:37:22Z</time></trkpt><trkpt lat="59.1016521212" lon="30.4631839413"><ele>300.07</ele><time>2026-08-20T18:37:23Z</time></trkpt><trkpt lat="59.1016521212" lon="30.4631839413"><ele>300.07</ele><time>2026-08-20T18:37:24Z</time></trkpt><trkpt lat="59.1016521212" lon="30.4631839413"><ele>300.07</ele><time>2026-08-20T18:37:25Z</time></trkpt><trkpt lat="59.1016521212" lon="30.4631839413"><ele>300.07</ele><time>2026-08-20T18:37:26Z</time></trkpt><trkpt lat="59.1016521212" lon="30.4631839413"><ele>300.07</ele><time>2026-08-20T18:37:27Z</time></trkpt><trkpt lat="59.1016521212" lon="30.4631839413"><ele>300.07</ele><time>2026-08-20T18:37:28Z</time></trkpt><trkpt lat="59.1016521212" lon="30.4631839413"><ele>300.07</ele><time>2026-08-20T18:37:29Z</time></trkpt><trkpt lat="59.1016521212" lon="30.4631839413"><ele>299.59</ele><time>2026-08-20T18:37:30Z</time></trkpt><trkpt lat="59.1016521212" lon="30.4631839413"><ele>299.59</ele><time>2026-08-20T18:37:31Z</time></trkpt><trkpt lat="59.1016521212" lon="30.4631839413"><ele>299.59</ele><time>2026-08-20T18:37:32Z</time></trkpt><trkpt lat="59.1016521212" lon="30.4631839413"><ele>299.59</ele><time>2026-08-20T18:37:33Z</time></trkpt><trkpt lat="59.1016521212" lon="30.4631839413"><ele>299.59</ele><time>2026-08-20T18:37:34Z</time></trkpt><trkpt lat="59.1016521212" lon="30.4631839413"><ele>299.59</ele><time>2026-08-20T18:37:35Z</time></trkpt><trkpt lat="59.1016521212" lon="30.4631839413"><ele>299.59</ele><time>2026-08-20T18:37:36Z</time></trkpt><trkpt lat="59.1016521212" lon="30.4631839413"><ele>300.07</ele><time>2026-08-20T18:37:37Z</time></trkpt><trkpt lat="59.1016521212" lon="30.4631839413"><ele>300.07</ele><time>2026-08-20T18:37:38Z</time></trkpt><trkpt lat="59.1016521212" lon="30.4631839413"><ele>300.07</ele><time>2026-08-20T18:37:39Z</time></trkpt><trkpt lat="59.1016521212" lon="30.4631839413"><ele>300.07</ele><time>2026-08-20T18:37:40Z</time></trkpt><trkpt lat="59.1016521212" lon="30.4631839413"><ele>300.07</ele><time>2026-08-20T18:37:41Z</time></trkpt><trkpt lat="59.1016521212" lon="30.4631839413"><ele>300.07</ele><time>2026-08-20T18:37:42Z</time></trkpt><trkpt lat="59.1016521212" lon="30.4631839413"><ele>300.07</ele><time>2026-08-20T18:37:43Z</time></trkpt><trkpt lat="59.1016521212" lon="30.4631839413"><ele>299.59</ele><time>2026-08-20T18:37:44Z</time></trkpt><trkpt lat="59.1016521212" lon="30.4631839413"><ele>299.59</ele><time>2026-08-20T18:37:45Z</time></trkpt><trkpt lat="59.1016521212" lon="30.4631839413"><ele>299.59</ele><time>2026-08-20T18:37:46Z</time></trkpt><trkpt lat="59.1016521212" lon="30.4631839413"><ele>299.59</ele><time>2026-08-20T18:37:47Z</time></trkpt><trkpt lat="59.1016521212" lon="30.4631839413"><ele>299.59</ele><time>2026-08-20T18:37:48Z</time></trkpt><trkpt lat="59.1016521212" lon="30.4631839413"><ele>299.59</ele><time>2026-08-20T18:37:49Z</time></trkpt><trkpt lat="59.1016521212" lon="30.4631839413"><ele>299.59</ele><time>2026-08-20T18:37:50Z</time></trkpt><trkpt lat="59.1016521212" lon="30.4631839413"><ele>299.59</ele><time>2026-08-20T18:37:51Z</time></trkpt><trkpt lat="59.1016521212" lon="30.4631839413"><ele>299.59</ele><time>2026-08-20T18:37:52Z</time></trkpt><trkpt lat="59.1016521212" lon="30.4631839413"><ele>299.59</ele><time>2026-08-20T18:37:53Z</time></trkpt><trkpt lat="59.1016521212" lon="30.4631839413"><ele>299.59</ele><time>2026-08-20T18:37:54Z</time></trkpt><trkpt lat="59.1016521212" lon="30.4631839413"><ele>299.59</ele><time>2026-08-20T18:37:55Z</time></trkpt><trkpt lat="59.1016521212" lon="30.4631839413"><ele>299.59</ele><time>2026-08-20T18:37:56Z</time></trkpt><trkpt lat="59.1016521212" lon="30.4631839413"><ele>299.59</ele><time>2026-08-20T18:37:57Z</time></trkpt><trkpt lat="59.1016521212" lon="30.4631839413"><ele>299.59</ele><time>2026-08-20T18:37:58Z</time></trkpt><trkpt lat="59.1016521212" lon="30.4631839413"><ele>299.59</ele><time>2026-08-20T18:37:59Z</time></trkpt><trkpt lat="59.1016521212" lon="30.4631839413"><ele>299.59</ele><time>2026-08-20T18:38:00Z</time></trkpt><trkpt lat="59.1016521212" lon="30.4631839413"><ele>299.59</ele><time>2026-08-20T18:38:01Z</time></trkpt><trkpt lat="59.1016521212" lon="30.4631839413"><ele>299.59</ele><time>2026-08-20T18:38:02Z</time></trkpt><trkpt lat="59.1016521212" lon="30.4631839413"><ele>299.59</ele><time>2026-08-20T18:38:03Z</time></trkpt><trkpt lat="59.1016521212" lon="30.4631839413"><ele>299.59</ele><time>2026-08-20T18:38:04Z</time></trkpt><trkpt lat="59.1016521212" lon="30.4631839413"><ele>299.59</ele><time>2026-08-20T18:38:05Z</time></trkpt><trkpt lat="59.1016521212" lon="30.4631839413"><ele>299.59</ele><time>2026-08-20T18:38:06Z</time></trkpt><trkpt lat="59.1016521212" lon="30.4631839413"><ele>299.59</ele><time>2026-08-20T18:38:07Z</time></trkpt><trkpt lat="59.1016521212" lon="30.4631839413"><ele>299.59</ele><time>2026-08-20T18:38:08Z</time></trkpt><trkpt lat="59.1016521212" lon="30.4631839413"><ele>299.59</ele><time>2026-08-20T18:38:09Z</time></trkpt><trkpt lat="59.1016521212" lon="30.4631839413"><ele>299.59</ele><time>2026-08-20T18:38:10Z</time></trkpt><trkpt lat="59.1016521212" lon="30.4631839413"><ele>299.59</ele><time>2026-08-20T18:38:11Z</time></trkpt><trkpt lat="59.1016521212" lon="30.4631839413"><ele>299.59</ele><time>2026-08-20T18:38:12Z</time></trkpt><trkpt lat="59.1016521212" lon="30.4631839413"><ele>299.59</ele><time>2026-08-20T18:38:13Z</time></trkpt><trkpt lat="59.1016521212" lon="30.4631839413"><ele>299.59</ele><time>2026-08-20T18:38:14Z</time></trkpt><trkpt lat="59.1016521212" lon="30.4631839413"><ele>299.59</ele><time>2026-08-20T18:38:15Z</time></trkpt><trkpt lat="59.1016521212" lon="30.4631839413"><ele>299.59</ele><time>2026-08-20T18:38:16Z</time></trkpt><trkpt lat="59.1016521212" lon="30.4631839413"><ele>299.59</ele><time>2026-08-20T18:38:17Z</time></trkpt><trkpt lat="59.1016521212" lon="30.4631839413"><ele>299.59</ele><time>2026-08-20T18:38:18Z</time></trkpt><trkpt lat="59.1016521212" lon="30.4631839413"><ele>299.59</ele><time>2026-08-20T18:38:19Z</time></trkpt><trkpt lat="59.1016521212" lon="30.4631839413"><ele>299.59</ele><time>2026-08-20T18:38:20Z</time></trkpt><trkpt lat="59.1016521212" lon="30.4631839413"><ele>299.59</ele><time>2026-08-20T18:38:21Z</time></trkpt><trkpt lat="59.1016521212" lon="30.4631839413"><ele>299.59</ele><time>2026-08-20T18:38:22Z</time></trkpt><trkpt lat="59.1016521212" lon="30.4631839413"><ele>299.59</ele><time>2026-08-20T18:38:23Z</time></trkpt><trkpt lat="59.1016521212" lon="30.4631839413"><ele>299.59</ele><time>2026-08-20T18:38:24Z</time></trkpt><trkpt lat="59.1016521212" lon="30.4631839413"><ele>299.59</ele><time>2026-08-20T18:38:25Z</time></trkpt><trkpt lat="59.1016521212" lon="30.4631839413"><ele>299.59</ele><time>2026-08-20T18:38:26Z</time></trkpt><trkpt lat="59.1016521212" lon="30.4631839413"><ele>299.59</ele><time>2026-08-20T18:38:27Z</time></trkpt><trkpt lat="59.1016521212" lon="30.4631839413"><ele>299.59</ele><time>2026-08-20T18:38:28Z</time></trkpt><trkpt lat="59.1016521212" lon="30.4631839413"><ele>299.59</ele><time>2026-08-20T18:38:29Z</time></trkpt><trkpt lat="59.1016521212" lon="30.4631839413"><ele>299.59</ele><time>2026-08-20T18:38:30Z</time></trkpt><trkpt lat="59.1016521212" lon="30.4631839413"><ele>299.59</ele><time>2026-08-20T18:38:31Z</time></trkpt><trkpt lat="59.1016521212" lon="30.4631839413"><ele>299.59</ele><time>2026-08-20T18:38:32Z</time></trkpt><trkpt lat="59.1016521212" lon="30.4631839413"><ele>300.07</ele><time>2026-08-20T18:38:33Z</time></trkpt><trkpt lat="59.1016521212" lon="30.4631839413"><ele>300.07</ele><time>2026-08-20T18:38:34Z</time></trkpt><trkpt lat="59.1016521212" lon="30.4631839413"><ele>300.07</ele><time>2026-08-20T18:38:35Z</time></trkpt><trkpt lat="59.1016521212" lon="30.4631839413"><ele>300.07</ele><time>2026-08-20T18:38:36Z</time></trkpt><trkpt lat="59.1016521212" lon="30.4631839413"><ele>300.07</ele><time>2026-08-20T18:38:37Z</time></trkpt><trkpt lat="59.1016521212" lon="30.4631839413"><ele>300.07</ele><time>2026-08-20T18:38:38Z</time></trkpt><trkpt lat="59.1016521212" lon="30.4631839413"><ele>300.07</ele><time>2026-08-20T18:38:39Z</time></trkpt><trkpt lat="59.1016521212" lon="30.4631839413"><ele>300.07</ele><time>2026-08-20T18:38:40Z</time></trkpt><trkpt lat="59.1016521212" lon="30.4631839413"><ele>300.07</ele><time>2026-08-20T18:38:41Z</time></trkpt><trkpt lat="59.1016521212" lon="30.4631839413"><ele>300.07</ele><time>2026-08-20T18:38:42Z</time></trkpt><trkpt lat="59.1016521212" lon="30.4631839413"><ele>300.07</ele><time>2026-08-20T18:38:43Z</time></trkpt><trkpt lat="59.1016521212" lon="30.4631839413"><ele>300.07</ele><time>2026-08-20T18:38:44Z</time></trkpt><trkpt lat="59.1016521212" lon="30.4631839413"><ele>300.07</ele><time>2026-08-20T18:38:45Z</time></trkpt><trkpt lat="59.1016521212" lon="30.4631839413"><ele>300.07</ele><time>2026-08-20T18:38:46Z</time></trkpt><trkpt lat="59.1016521212" lon="30.4631839413"><ele>300.07</ele><time>2026-08-20T18:38:47Z</time></trkpt><trkpt lat="59.1016521212" lon="30.4631839413"><ele>300.07</ele><time>2026-08-20T18:38:48Z</time></trkpt><trkpt lat="59.1016521212" lon="30.4631839413"><ele>300.07</ele><time>2026-08-20T18:38:49Z</time></trkpt><trkpt lat="59.1016521212" lon="30.4631839413"><ele>300.07</ele><time>2026-08-20T18:38:50Z</time></trkpt><trkpt lat="59.1016521212" lon="30.4631839413"><ele>300.07</ele><time>2026-08-20T18:38:51Z</time></trkpt><trkpt lat="59.1016521212" lon="30.4631839413"><ele>300.07</ele><time>2026-08-20T18:38:52Z</time></trkpt><trkpt lat="59.1016521212" lon="30.4631839413"><ele>300.07</ele><time>2026-08-20T18:38:53Z</time></trkpt><trkpt lat="59.1016521212" lon="30.4631839413"><ele>300.07</ele><time>2026-08-20T18:38:54Z</time></trkpt><trkpt lat="59.1016521212" lon="30.4631839413"><ele>300.07</ele><time>2026-08-20T18:38:55Z</time></trkpt><trkpt lat="59.1016521212" lon="30.4631839413"><ele>300.07</ele><time>2026-08-20T18:38:56Z</time></trkpt><trkpt lat="59.1016521212" lon="30.4631839413"><ele>300.07</ele><time>2026-08-20T18:38:57Z</time></trkpt><trkpt lat="59.1016521212" lon="30.4631839413"><ele>300.07</ele><time>2026-08-20T18:38:58Z</time></trkpt><trkpt lat="59.1016521212" lon="30.4631839413"><ele>300.07</ele><time>2026-08-20T18:38:59Z</time></trkpt><trkpt lat="59.1016521212" lon="30.4631839413"><ele>300.07</ele><time>2026-08-20T18:39:00Z</time></trkpt><trkpt lat="59.1016521212" lon="30.4631839413"><ele>300.07</ele><time>2026-08-20T18:39:01Z</time></trkpt><trkpt lat="59.1016521212" lon="30.4631839413"><ele>300.07</ele><time>2026-08-20T18:39:02Z</time></trkpt><trkpt lat="59.1016521212" lon="30.4631839413"><ele>300.07</ele><time>2026-08-20T18:39:03Z</time></trkpt><trkpt lat="59.1016521212" lon="30.4631839413"><ele>300.07</ele><time>2026-08-20T18:39:04Z</time></trkpt><trkpt lat="59.1016521212" lon="30.4631839413"><ele>300.07</ele><time>2026-08-20T18:39:05Z</time></trkpt><trkpt lat="59.1016521212" lon="30.4631839413"><ele>300.07</ele><time>2026-08-20T18:39:06Z</time></trkpt><trkpt lat="59.1016521212" lon="30.4631839413"><ele>300.07</ele><time>2026-08-20T18:39:07Z</time></trkpt><trkpt lat="59.1016521212" lon="30.4631839413"><ele>300.07</ele><time>2026-08-20T18:39:08Z</time></trkpt><trkpt lat="59.1016521212" lon="30.4631839413"><ele>300.07</ele><time>2026-08-20T18:39:09Z</time></trkpt><trkpt lat="59.1016521212" lon="30.4631839413"><ele>300.07</ele><time>2026-08-20T18:39:10Z</time></trkpt><trkpt lat="59.1016521212" lon="30.4631839413"><ele>300.07</ele><time>2026-08-20T18:39:11Z</time></trkpt><trkpt lat="59.1016521212" lon="30.4631839413"><ele>300.07</ele><time>2026-08-20T18:39:12Z</time></trkpt><trkpt lat="59.1016521212" lon="30.4631839413"><ele>300.07</ele><time>2026-08-20T18:39:13Z</time></trkpt><trkpt lat="59.1016521212" lon="30.4631839413"><ele>300.07</ele><time>2026-08-20T18:39:14Z</time></trkpt><trkpt lat="59.1016521212" lon="30.4631839413"><ele>300.07</ele><time>2026-08-20T18:39:15Z</time></trkpt><trkpt lat="59.1016521212" lon="30.4631839413"><ele>300.07</ele><time>2026-08-20T18:39:16Z</time></trkpt><trkpt lat="59.1016521212" lon="30.4631839413"><ele>300.07</ele><time>2026-08-20T18:39:17Z</time></trkpt><trkpt lat="59.1016521212" lon="30.4631839413"><ele>300.07</ele><time>2026-08-20T18:39:18Z</time></trkpt><trkpt lat="59.1016521212" lon="30.4631839413"><ele>300.07</ele><time>2026-08-20T18:39:19Z</time></trkpt><trkpt lat="59.1016521212" lon="30.4631839413"><ele>300.07</ele><time>2026-08-20T18:39:20Z</time></trkpt><trkpt lat="59.1016521212" lon="30.4631839413"><ele>300.07</ele><time>2026-08-20T18:39:21Z</time></trkpt><trkpt lat="59.1016521212" lon="30.4631839413"><ele>300.07</ele><time>2026-08-20T18:39:22Z</time></trkpt><trkpt lat="59.1016521212" lon="30.4631839413"><ele>300.07</ele><time>2026-08-20T18:39:23Z</time></trkpt><trkpt lat="59.1016521212" lon="30.4631839413"><ele>300.07</ele><time>2026-08-20T18:39:24Z</time></trkpt><trkpt lat="59.1016521212" lon="30.4631839413"><ele>300.07</ele><time>2026-08-20T18:39:25Z</time></trkpt><trkpt lat="59.1016521212" lon="30.4631839413"><ele>300.07</ele><time>2026-08-20T18:39:26Z</time></trkpt><trkpt lat="59.1016521212" lon="30.4631839413"><ele>300.07</ele><time>2026-08-20T18:39:27Z</time></trkpt><trkpt lat="59.1016521212" lon="30.4631839413"><ele>300.07</ele><time>2026-08-20T18:39:28Z</time></trkpt><trkpt lat="59.1016521212" lon="30.4631839413"><ele>300.07</ele><time>2026-08-20T18:39:29Z</time></trkpt><trkpt lat="59.1016521212" lon="30.4631839413"><ele>300.07</ele><time>2026-08-20T18:39:30Z</time></trkpt><trkpt lat="59.1016521212" lon="30.4631839413"><ele>300.07</ele><time>2026-08-20T18:39:31Z</time></trkpt><trkpt lat="59.1016521212" lon="30.4631839413"><ele>300.07</ele><time>2026-08-20T18:39:32Z</time></trkpt><trkpt lat="59.1016521212" lon="30.4631839413"><ele>300.07</ele><time>2026-08-20T18:39:33Z</time></trkpt><trkpt lat="59.1016521212" lon="30.4631839413"><ele>300.07</ele><time>2026-08-20T18:39:34Z</time></trkpt><trkpt lat="59.1016521212" lon="30.4631839413"><ele>300.07</ele><time>2026-08-20T18:39:35Z</time></trkpt><trkpt lat="59.1016521212" lon="30.4631839413"><ele>300.07</ele><time>2026-08-20T18:39:36Z</time></trkpt><trkpt lat="59.1016521212" lon="30.4631839413"><ele>300.07</ele><time>2026-08-20T18:39:37Z</time></trkpt><trkpt lat="59.1016521212" lon="30.4631839413"><ele>300.07</ele><time>2026-08-20T18:39:38Z</time></trkpt><trkpt lat="59.1016521212" lon="30.4631839413"><ele>299.59</ele><time>2026-08-20T18:39:39Z</time></trkpt><trkpt lat="59.1016284842" lon="30.4631565325"><ele>299.59</ele><time>2026-08-20T18:39:40Z</time></trkpt><trkpt lat="59.1016318370" lon="30.4631409422"><ele>299.59</ele><time>2026-08-20T18:39:41Z</time></trkpt><trkpt lat="59.1016335972" lon="30.4631273635"><ele>299.59</ele><time>2026-08-20T18:39:42Z</time></trkpt><trkpt lat="59.1016366985" lon="30.4631181434"><ele>299.59</ele><time>2026-08-20T18:39:43Z</time></trkpt><trkpt lat="59.1016388778" lon="30.4631030560"><ele>299.59</ele><time>2026-08-20T18:39:44Z</time></trkpt><trkpt lat="59.1016443260" lon="30.4630867951"><ele>299.59</ele><time>2026-08-20T18:39:45Z</time></trkpt><trkpt lat="59.1016503610" lon="30.4630720429"><ele>299.59</ele><time>2026-08-20T18:39:46Z</time></trkpt><trkpt lat="59.1016544681" lon="30.4630618170"><ele>299.59</ele><time>2026-08-20T18:39:47Z</time></trkpt><trkpt lat="59.1016618442" lon="30.4630510882"><ele>299.59</ele><time>2026-08-20T18:39:48Z</time></trkpt><trkpt lat="59.1016712319" lon="30.4630311392"><ele>299.59</ele><time>2026-08-20T18:39:49Z</time></trkpt><trkpt lat="59.1016754229" lon="30.4630210809"><ele>299.59</ele><time>2026-08-20T18:39:50Z</time></trkpt><trkpt lat="59.1016866546" lon="30.4630005453"><ele>299.59</ele><time>2026-08-20T18:39:51Z</time></trkpt><trkpt lat="59.1016934440" lon="30.4629861284"><ele>299.59</ele><time>2026-08-20T18:39:52Z</time></trkpt><trkpt lat="59.1017027479" lon="30.4629712924"><ele>299.59</ele><time>2026-08-20T18:39:53Z</time></trkpt><trkpt lat="59.1017083637" lon="30.4629563726"><ele>299.59</ele><time>2026-08-20T18:39:54Z</time></trkpt><trkpt lat="59.1017102916" lon="30.4629385192"><ele>299.59</ele><time>2026-08-20T18:39:55Z</time></trkpt><trkpt lat="59.1017115489" lon="30.4629320651"><ele>299.59</ele><time>2026-08-20T18:39:56Z</time></trkpt><trkpt lat="59.1017175838" lon="30.4629234318"><ele>299.59</ele><time>2026-08-20T18:39:57Z</time></trkpt><trkpt lat="59.1017222777" lon="30.4629172292"><ele>299.59</ele><time>2026-08-20T18:39:58Z</time></trkpt><trkpt lat="59.1017222777" lon="30.4629172292"><ele>299.59</ele><time>2026-08-20T18:39:59Z</time></trkpt><trkpt lat="59.1017222777" lon="30.4629172292"><ele>299.59</ele><time>2026-08-20T18:40:00Z</time></trkpt><trkpt lat="59.1017222777" lon="30.4629172292"><ele>299.59</ele><time>2026-08-20T18:40:01Z</time></trkpt><trkpt lat="59.1017222777" lon="30.4629172292"><ele>299.59</ele><time>2026-08-20T18:40:02Z</time></trkpt><trkpt lat="59.1017222777" lon="30.4629172292"><ele>299.59</ele><time>2026-08-20T18:40:03Z</time></trkpt><trkpt lat="59.1017222777" lon="30.4629172292"><ele>299.59</ele><time>2026-08-20T18:40:04Z</time></trkpt><trkpt lat="59.1017222777" lon="30.4629172292"><ele>299.59</ele><time>2026-08-20T18:40:05Z</time></trkpt><trkpt lat="59.1017222777" lon="30.4629172292"><ele>299.59</ele><time>2026-08-20T18:40:06Z</time></trkpt><trkpt lat="59.1017222777" lon="30.4629172292"><ele>299.59</ele><time>2026-08-20T18:40:07Z</time></trkpt><trkpt lat="59.1017222777" lon="30.4629172292"><ele>299.59</ele><time>2026-08-20T18:40:08Z</time></trkpt><trkpt lat="59.1017222777" lon="30.4629172292"><ele>299.59</ele><time>2026-08-20T18:40:09Z</time></trkpt><trkpt lat="59.1017222777" lon="30.4629172292"><ele>299.59</ele><time>2026-08-20T18:40:10Z</time></trkpt><trkpt lat="59.1017222777" lon="30.4629172292"><ele>299.59</ele><time>2026-08-20T18:40:11Z</time></trkpt><trkpt lat="59.1017222777" lon="30.4629172292"><ele>299.59</ele><time>2026-08-20T18:40:12Z</time></trkpt><trkpt lat="59.1017222777" lon="30.4629172292"><ele>299.59</ele><time>2026-08-20T18:40:13Z</time></trkpt><trkpt lat="59.1017222777" lon="30.4629172292"><ele>299.59</ele><time>2026-08-20T18:40:14Z</time></trkpt><trkpt lat="59.1017222777" lon="30.4629172292"><ele>299.59</ele><time>2026-08-20T18:40:15Z</time></trkpt><trkpt lat="59.1017222777" lon="30.4629172292"><ele>299.59</ele><time>2026-08-20T18:40:16Z</time></trkpt><trkpt lat="59.1017222777" lon="30.4629172292"><ele>299.59</ele><time>2026-08-20T18:40:17Z</time></trkpt><trkpt lat="59.1017481778" lon="30.4628736433"><ele>299.59</ele><time>2026-08-20T18:40:18Z</time></trkpt><trkpt lat="59.1017501894" lon="30.4628642555"><ele>299.59</ele><time>2026-08-20T18:40:19Z</time></trkpt><trkpt lat="59.1017503571" lon="30.4628526885"><ele>299.59</ele><time>2026-08-20T18:40:20Z</time></trkpt><trkpt lat="59.1017507762" lon="30.4628393613"><ele>299.59</ele><time>2026-08-20T18:40:21Z</time></trkpt><trkpt lat="59.1017512791" lon="30.4628306441"><ele>299.59</ele><time>2026-08-20T18:40:22Z</time></trkpt><trkpt lat="59.1017553862" lon="30.4628224298"><ele>299.59</ele><time>2026-08-20T18:40:23Z</time></trkpt><trkpt lat="59.1017640196" lon="30.4628065880"><ele>299.59</ele><time>2026-08-20T18:40:24Z</time></trkpt><trkpt lat="59.1017701384" lon="30.4627904948"><ele>299.59</ele><time>2026-08-20T18:40:25Z</time></trkpt><trkpt lat="59.1017759219" lon="30.4627725575"><ele>299.59</ele><time>2026-08-20T18:40:26Z</time></trkpt><trkpt lat="59.1017798614" lon="30.4627564643"><ele>299.59</ele><time>2026-08-20T18:40:27Z</time></trkpt><trkpt lat="59.1017828789" lon="30.4627394490"><ele>299.59</ele><time>2026-08-20T18:40:28Z</time></trkpt><trkpt lat="59.1017837171" lon="30.4627261218"><ele>299.59</ele><time>2026-08-20T18:40:29Z</time></trkpt><trkpt lat="59.1017862316" lon="30.4627134651"><ele>299.59</ele><time>2026-08-20T18:40:30Z</time></trkpt><trkpt lat="59.1017878242" lon="30.4627033230"><ele>299.59</ele><time>2026-08-20T18:40:31Z</time></trkpt><trkpt lat="59.1017888300" lon="30.4626955278"><ele>299.59</ele><time>2026-08-20T18:40:32Z</time></trkpt><trkpt lat="59.1017928533" lon="30.4626931809"><ele>299.59</ele><time>2026-08-20T18:40:33Z</time></trkpt><trkpt lat="59.1017928533" lon="30.4626931809"><ele>299.59</ele><time>2026-08-20T18:40:34Z</time></trkpt><trkpt lat="59.1017928533" lon="30.4626931809"><ele>299.59</ele><time>2026-08-20T18:40:35Z</time></trkpt><trkpt lat="59.1017928533" lon="30.4626931809"><ele>299.59</ele><time>2026-08-20T18:40:36Z</time></trkpt><trkpt lat="59.1017928533" lon="30.4626931809"><ele>299.59</ele><time>2026-08-20T18:40:37Z</time></trkpt><trkpt lat="59.1017928533" lon="30.4626931809"><ele>299.59</ele><time>2026-08-20T18:40:38Z</time></trkpt><trkpt lat="59.1017928533" lon="30.4626931809"><ele>299.59</ele><time>2026-08-20T18:40:39Z</time></trkpt><trkpt lat="59.1017928533" lon="30.4626931809"><ele>299.59</ele><time>2026-08-20T18:40:40Z</time></trkpt><trkpt lat="59.1017928533" lon="30.4626931809"><ele>299.59</ele><time>2026-08-20T18:40:41Z</time></trkpt><trkpt lat="59.1017928533" lon="30.4626931809"><ele>299.59</ele><time>2026-08-20T18:40:42Z</time></trkpt><trkpt lat="59.1017928533" lon="30.4626931809"><ele>299.59</ele><time>2026-08-20T18:40:43Z</time></trkpt><trkpt lat="59.1017928533" lon="30.4626931809"><ele>299.59</ele><time>2026-08-20T18:40:44Z</time></trkpt><trkpt lat="59.1017928533" lon="30.4626931809"><ele>299.59</ele><time>2026-08-20T18:40:45Z</time></trkpt><trkpt lat="59.1017928533" lon="30.4626931809"><ele>299.59</ele><time>2026-08-20T18:40:46Z</time></trkpt><trkpt lat="59.1017928533" lon="30.4626931809"><ele>299.59</ele><time>2026-08-20T18:40:47Z</time></trkpt><trkpt lat="59.1017928533" lon="30.4626931809"><ele>299.59</ele><time>2026-08-20T18:40:48Z</time></trkpt><trkpt lat="59.1017928533" lon="30.4626931809"><ele>299.59</ele><time>2026-08-20T18:40:49Z</time></trkpt><trkpt lat="59.1017928533" lon="30.4626931809"><ele>299.59</ele><time>2026-08-20T18:40:50Z</time></trkpt><trkpt lat="59.1017928533" lon="30.4626931809"><ele>299.59</ele><time>2026-08-20T18:40:51Z</time></trkpt><trkpt lat="59.1017928533" lon="30.4626931809"><ele>299.59</ele><time>2026-08-20T18:40:52Z</time></trkpt><trkpt lat="59.1017928533" lon="30.4626931809"><ele>299.59</ele><time>2026-08-20T18:40:53Z</time></trkpt><trkpt lat="59.1017928533" lon="30.4626931809"><ele>299.59</ele><time>2026-08-20T18:40:54Z</time></trkpt><trkpt lat="59.1017928533" lon="30.4626931809"><ele>299.59</ele><time>2026-08-20T18:40:55Z</time></trkpt><trkpt lat="59.1017928533" lon="30.4626931809"><ele>299.59</ele><time>2026-08-20T18:40:56Z</time></trkpt><trkpt lat="59.1017928533" lon="30.4626931809"><ele>299.59</ele><time>2026-08-20T18:40:57Z</time></trkpt><trkpt lat="59.1017928533" lon="30.4626931809"><ele>299.59</ele><time>2026-08-20T18:40:58Z</time></trkpt><trkpt lat="59.1017928533" lon="30.4626931809"><ele>299.59</ele><time>2026-08-20T18:40:59Z</time></trkpt><trkpt lat="59.1017928533" lon="30.4626931809"><ele>299.59</ele><time>2026-08-20T18:41:00Z</time></trkpt><trkpt lat="59.1017928533" lon="30.4626931809"><ele>299.59</ele><time>2026-08-20T18:41:01Z</time></trkpt><trkpt lat="59.1017928533" lon="30.4626931809"><ele>299.59</ele><time>2026-08-20T18:41:02Z</time></trkpt><trkpt lat="59.1017928533" lon="30.4626931809"><ele>299.59</ele><time>2026-08-20T18:41:03Z</time></trkpt><trkpt lat="59.1017928533" lon="30.4626931809"><ele>299.59</ele><time>2026-08-20T18:41:04Z</time></trkpt><trkpt lat="59.1017928533" lon="30.4626931809"><ele>299.59</ele><time>2026-08-20T18:41:05Z</time></trkpt><trkpt lat="59.1018179990" lon="30.4627455678"><ele>299.59</ele><time>2026-08-20T18:41:06Z</time></trkpt><trkpt lat="59.1018228605" lon="30.4627472442"><ele>299.59</ele><time>2026-08-20T18:41:07Z</time></trkpt><trkpt lat="59.1018270515" lon="30.4627506807"><ele>299.59</ele><time>2026-08-20T18:41:08Z</time></trkpt><trkpt lat="59.1018310748" lon="30.4627548717"><ele>299.59</ele><time>2026-08-20T18:41:09Z</time></trkpt><trkpt lat="59.1018329188" lon="30.4627663549"><ele>299.59</ele><time>2026-08-20T18:41:10Z</time></trkpt><trkpt lat="59.1018375289" lon="30.4627695400"><ele>299.59</ele><time>2026-08-20T18:41:11Z</time></trkpt><trkpt lat="59.1018415522" lon="30.4627712164"><ele>299.59</ele><time>2026-08-20T18:41:12Z</time></trkpt><trkpt lat="59.1018440668" lon="30.4627765808"><ele>299.59</ele><time>2026-08-20T18:41:13Z</time></trkpt><trkpt lat="59.1018467490" lon="30.4627831187"><ele>299.59</ele><time>2026-08-20T18:41:14Z</time></trkpt><trkpt lat="59.1018467490" lon="30.4627831187"><ele>299.59</ele><time>2026-08-20T18:41:15Z</time></trkpt><trkpt lat="59.1018567234" lon="30.4627948534"><ele>299.59</ele><time>2026-08-20T18:41:16Z</time></trkpt><trkpt lat="59.1018615849" lon="30.4627992958"><ele>299.59</ele><time>2026-08-20T18:41:17Z</time></trkpt><trkpt lat="59.1018646862" lon="30.4628070910"><ele>299.59</ele><time>2026-08-20T18:41:18Z</time></trkpt><trkpt lat="59.1018697992" lon="30.4628160596"><ele>299.59</ele><time>2026-08-20T18:41:19Z</time></trkpt><trkpt lat="59.1018759180" lon="30.4628253635"><ele>299.59</ele><time>2026-08-20T18:41:20Z</time></trkpt><trkpt lat="59.1018838808" lon="30.4628327396"><ele>299.59</ele><time>2026-08-20T18:41:21Z</time></trkpt><trkpt lat="59.1018919274" lon="30.4628374334"><ele>299.59</ele><time>2026-08-20T18:41:22Z</time></trkpt><trkpt lat="59.1018992197" lon="30.4628413729"><ele>299.59</ele><time>2026-08-20T18:41:23Z</time></trkpt><trkpt lat="59.1019003931" lon="30.4628458992"><ele>299.59</ele><time>2026-08-20T18:41:24Z</time></trkpt><trkpt lat="59.1019031592" lon="30.4628496710"><ele>299.59</ele><time>2026-08-20T18:41:25Z</time></trkpt><trkpt lat="59.1019052546" lon="30.4628527723"><ele>299.59</ele><time>2026-08-20T18:41:26Z</time></trkpt><trkpt lat="59.1019052546" lon="30.4628527723"><ele>299.59</ele><time>2026-08-20T18:41:27Z</time></trkpt><trkpt lat="59.1019052546" lon="30.4628527723"><ele>299.59</ele><time>2026-08-20T18:41:28Z</time></trkpt><trkpt lat="59.1019052546" lon="30.4628527723"><ele>299.59</ele><time>2026-08-20T18:41:29Z</time></trkpt><trkpt lat="59.1019052546" lon="30.4628527723"><ele>299.59</ele><time>2026-08-20T18:41:30Z</time></trkpt><trkpt lat="59.1019052546" lon="30.4628527723"><ele>299.59</ele><time>2026-08-20T18:41:31Z</time></trkpt><trkpt lat="59.1019052546" lon="30.4628527723"><ele>299.59</ele><time>2026-08-20T18:41:32Z</time></trkpt><trkpt lat="59.1019052546" lon="30.4628527723"><ele>299.59</ele><time>2026-08-20T18:41:33Z</time></trkpt><trkpt lat="59.1019052546" lon="30.4628527723"><ele>299.59</ele><time>2026-08-20T18:41:34Z</time></trkpt><trkpt lat="59.1019052546" lon="30.4628527723"><ele>299.59</ele><time>2026-08-20T18:41:35Z</time></trkpt><trkpt lat="59.1019052546" lon="30.4628527723"><ele>299.59</ele><time>2026-08-20T18:41:36Z</time></trkpt><trkpt lat="59.1019052546" lon="30.4628527723"><ele>299.59</ele><time>2026-08-20T18:41:37Z</time></trkpt><trkpt lat="59.1019052546" lon="30.4628527723"><ele>299.59</ele><time>2026-08-20T18:41:38Z</time></trkpt><trkpt lat="59.1019052546" lon="30.4628527723"><ele>299.59</ele><time>2026-08-20T18:41:39Z</time></trkpt><trkpt lat="59.1019052546" lon="30.4628527723"><ele>299.59</ele><time>2026-08-20T18:41:40Z</time></trkpt><trkpt lat="59.1019207612" lon="30.4628701229"><ele>299.59</ele><time>2026-08-20T18:41:41Z</time></trkpt><trkpt lat="59.1019255389" lon="30.4628771637"><ele>299.59</ele><time>2026-08-20T18:41:42Z</time></trkpt><trkpt lat="59.1019290593" lon="30.4628860485"><ele>299.59</ele><time>2026-08-20T18:41:43Z</time></trkpt><trkpt lat="59.1019324958" lon="30.4628904909"><ele>299.59</ele><time>2026-08-20T18:41:44Z</time></trkpt><trkpt lat="59.1019321606" lon="30.4628888983"><ele>299.59</ele><time>2026-08-20T18:41:45Z</time></trkpt><trkpt lat="59.1019312385" lon="30.4628868867"><ele>299.59</ele><time>2026-08-20T18:41:46Z</time></trkpt><trkpt lat="59.1019312385" lon="30.4628868867"><ele>299.59</ele><time>2026-08-20T18:41:47Z</time></trkpt><trkpt lat="59.1019312385" lon="30.4628868867"><ele>299.59</ele><time>2026-08-20T18:41:48Z</time></trkpt><trkpt lat="59.1019312385" lon="30.4628868867"><ele>299.59</ele><time>2026-08-20T18:41:49Z</time></trkpt><trkpt lat="59.1019312385" lon="30.4628868867"><ele>299.59</ele><time>2026-08-20T18:41:50Z</time></trkpt><trkpt lat="59.1019312385" lon="30.4628868867"><ele>299.59</ele><time>2026-08-20T18:41:51Z</time></trkpt><trkpt lat="59.1019312385" lon="30.4628868867"><ele>299.59</ele><time>2026-08-20T18:41:52Z</time></trkpt><trkpt lat="59.1019312385" lon="30.4628868867"><ele>299.59</ele><time>2026-08-20T18:41:53Z</time></trkpt><trkpt lat="59.1019312385" lon="30.4628868867"><ele>299.59</ele><time>2026-08-20T18:41:54Z</time></trkpt><trkpt lat="59.1019312385" lon="30.4628868867"><ele>299.59</ele><time>2026-08-20T18:41:55Z</time></trkpt><trkpt lat="59.1019312385" lon="30.4628868867"><ele>299.59</ele><time>2026-08-20T18:41:56Z</time></trkpt><trkpt lat="59.1019312385" lon="30.4628868867"><ele>299.59</ele><time>2026-08-20T18:41:57Z</time></trkpt><trkpt lat="59.1019312385" lon="30.4628868867"><ele>299.59</ele><time>2026-08-20T18:41:58Z</time></trkpt><trkpt lat="59.1019312385" lon="30.4628868867"><ele>299.59</ele><time>2026-08-20T18:41:59Z</time></trkpt><trkpt lat="59.1019312385" lon="30.4628868867"><ele>299.59</ele><time>2026-08-20T18:42:00Z</time></trkpt><trkpt lat="59.1019312385" lon="30.4628868867"><ele>299.59</ele><time>2026-08-20T18:42:01Z</time></trkpt><trkpt lat="59.1019312385" lon="30.4628868867"><ele>299.59</ele><time>2026-08-20T18:42:02Z</time></trkpt><trkpt lat="59.1019312385" lon="30.4628868867"><ele>299.59</ele><time>2026-08-20T18:42:03Z</time></trkpt><trkpt lat="59.1019312385" lon="30.4628868867"><ele>299.59</ele><time>2026-08-20T18:42:04Z</time></trkpt><trkpt lat="59.1019312385" lon="30.4628868867"><ele>299.59</ele><time>2026-08-20T18:42:05Z</time></trkpt><trkpt lat="59.1019312385" lon="30.4628868867"><ele>299.59</ele><time>2026-08-20T18:42:06Z</time></trkpt><trkpt lat="59.1019312385" lon="30.4628868867"><ele>299.59</ele><time>2026-08-20T18:42:07Z</time></trkpt><trkpt lat="59.1019312385" lon="30.4628868867"><ele>299.59</ele><time>2026-08-20T18:42:08Z</time></trkpt><trkpt lat="59.1019312385" lon="30.4628868867"><ele>299.59</ele><time>2026-08-20T18:42:09Z</time></trkpt><trkpt lat="59.1019312385" lon="30.4628868867"><ele>299.59</ele><time>2026-08-20T18:42:10Z</time></trkpt><trkpt lat="59.1019312385" lon="30.4628868867"><ele>299.59</ele><time>2026-08-20T18:42:11Z</time></trkpt><trkpt lat="59.1019312385" lon="30.4628868867"><ele>299.59</ele><time>2026-08-20T18:42:12Z</time></trkpt><trkpt lat="59.1019312385" lon="30.4628868867"><ele>299.59</ele><time>2026-08-20T18:42:13Z</time></trkpt><trkpt lat="59.1019312385" lon="30.4628868867"><ele>299.59</ele><time>2026-08-20T18:42:14Z</time></trkpt><trkpt lat="59.1019312385" lon="30.4628868867"><ele>299.59</ele><time>2026-08-20T18:42:15Z</time></trkpt><trkpt lat="59.1019312385" lon="30.4628868867"><ele>299.59</ele><time>2026-08-20T18:42:16Z</time></trkpt><trkpt lat="59.1019312385" lon="30.4628868867"><ele>299.59</ele><time>2026-08-20T18:42:17Z</time></trkpt><trkpt lat="59.1019312385" lon="30.4628868867"><ele>299.59</ele><time>2026-08-20T18:42:18Z</time></trkpt><trkpt lat="59.1019312385" lon="30.4628868867"><ele>299.59</ele><time>2026-08-20T18:42:19Z</time></trkpt><trkpt lat="59.1019312385" lon="30.4628868867"><ele>299.59</ele><time>2026-08-20T18:42:20Z</time></trkpt><trkpt lat="59.1019312385" lon="30.4628868867"><ele>299.59</ele><time>2026-08-20T18:42:21Z</time></trkpt><trkpt lat="59.1019312385" lon="30.4628868867"><ele>299.59</ele><time>2026-08-20T18:42:22Z</time></trkpt><trkpt lat="59.1019312385" lon="30.4628868867"><ele>299.59</ele><time>2026-08-20T18:42:23Z</time></trkpt><trkpt lat="59.1019312385" lon="30.4628868867"><ele>299.59</ele><time>2026-08-20T18:42:24Z</time></trkpt><trkpt lat="59.1019312385" lon="30.4628868867"><ele>299.59</ele><time>2026-08-20T18:42:25Z</time></trkpt><trkpt lat="59.1019312385" lon="30.4628868867"><ele>299.59</ele><time>2026-08-20T18:42:26Z</time></trkpt><trkpt lat="59.1019312385" lon="30.4628868867"><ele>299.59</ele><time>2026-08-20T18:42:27Z</time></trkpt><trkpt lat="59.1019312385" lon="30.4628868867"><ele>299.59</ele><time>2026-08-20T18:42:28Z</time></trkpt><trkpt lat="59.1019312385" lon="30.4628868867"><ele>299.59</ele><time>2026-08-20T18:42:29Z</time></trkpt><trkpt lat="59.1019312385" lon="30.4628868867"><ele>299.59</ele><time>2026-08-20T18:42:30Z</time></trkpt><trkpt lat="59.1019312385" lon="30.4628868867"><ele>299.59</ele><time>2026-08-20T18:42:31Z</time></trkpt><trkpt lat="59.1019312385" lon="30.4628868867"><ele>299.59</ele><time>2026-08-20T18:42:32Z</time></trkpt><trkpt lat="59.1019312385" lon="30.4628868867"><ele>299.59</ele><time>2026-08-20T18:42:33Z</time></trkpt><trkpt lat="59.1019312385" lon="30.4628868867"><ele>299.59</ele><time>2026-08-20T18:42:34Z</time></trkpt><trkpt lat="59.1019312385" lon="30.4628868867"><ele>299.59</ele><time>2026-08-20T18:42:35Z</time></trkpt><trkpt lat="59.1019312385" lon="30.4628868867"><ele>299.59</ele><time>2026-08-20T18:42:36Z</time></trkpt><trkpt lat="59.1019312385" lon="30.4628868867"><ele>299.59</ele><time>2026-08-20T18:42:37Z</time></trkpt><trkpt lat="59.1019312385" lon="30.4628868867"><ele>299.59</ele><time>2026-08-20T18:42:38Z</time></trkpt><trkpt lat="59.1019312385" lon="30.4628868867"><ele>300.07</ele><time>2026-08-20T18:42:39Z</time></trkpt><trkpt lat="59.1019312385" lon="30.4628868867"><ele>300.07</ele><time>2026-08-20T18:42:40Z</time></trkpt><trkpt lat="59.1019312385" lon="30.4628868867"><ele>300.07</ele><time>2026-08-20T18:42:41Z</time></trkpt><trkpt lat="59.1019312385" lon="30.4628868867"><ele>300.07</ele><time>2026-08-20T18:42:42Z</time></trkpt><trkpt lat="59.1019312385" lon="30.4628868867"><ele>300.07</ele><time>2026-08-20T18:42:43Z</time></trkpt><trkpt lat="59.1019312385" lon="30.4628868867"><ele>300.07</ele><time>2026-08-20T18:42:44Z</time></trkpt><trkpt lat="59.1019312385" lon="30.4628868867"><ele>300.07</ele><time>2026-08-20T18:42:45Z</time></trkpt><trkpt lat="59.1019312385" lon="30.4628868867"><ele>300.07</ele><time>2026-08-20T18:42:46Z</time></trkpt><trkpt lat="59.1019312385" lon="30.4628868867"><ele>299.59</ele><time>2026-08-20T18:42:47Z</time></trkpt><trkpt lat="59.1019312385" lon="30.4628868867"><ele>299.59</ele><time>2026-08-20T18:42:48Z</time></trkpt><trkpt lat="59.1019312385" lon="30.4628868867"><ele>299.59</ele><time>2026-08-20T18:42:49Z</time></trkpt><trkpt lat="59.1019312385" lon="30.4628868867"><ele>299.59</ele><time>2026-08-20T18:42:50Z</time></trkpt><trkpt lat="59.1019312385" lon="30.4628868867"><ele>299.59</ele><time>2026-08-20T18:42:51Z</time></trkpt><trkpt lat="59.1019312385" lon="30.4628868867"><ele>299.59</ele><time>2026-08-20T18:42:52Z</time></trkpt><trkpt lat="59.1019312385" lon="30.4628868867"><ele>299.59</ele><time>2026-08-20T18:42:53Z</time></trkpt><trkpt lat="59.1019312385" lon="30.4628868867"><ele>299.59</ele><time>2026-08-20T18:42:54Z</time></trkpt><trkpt lat="59.1019312385" lon="30.4628868867"><ele>299.59</ele><time>2026-08-20T18:42:55Z</time></trkpt><trkpt lat="59.1019312385" lon="30.4628868867"><ele>299.59</ele><time>2026-08-20T18:42:56Z</time></trkpt><trkpt lat="59.1019312385" lon="30.4628868867"><ele>299.59</ele><time>2026-08-20T18:42:57Z</time></trkpt><trkpt lat="59.1019312385" lon="30.4628868867"><ele>299.59</ele><time>2026-08-20T18:42:58Z</time></trkpt><trkpt lat="59.1019312385" lon="30.4628868867"><ele>299.59</ele><time>2026-08-20T18:42:59Z</time></trkpt><trkpt lat="59.1019312385" lon="30.4628868867"><ele>299.59</ele><time>2026-08-20T18:43:00Z</time></trkpt><trkpt lat="59.1019312385" lon="30.4628868867"><ele>299.59</ele><time>2026-08-20T18:43:01Z</time></trkpt><trkpt lat="59.1019312385" lon="30.4628868867"><ele>299.59</ele><time>2026-08-20T18:43:02Z</time></trkpt><trkpt lat="59.1019312385" lon="30.4628868867"><ele>299.59</ele><time>2026-08-20T18:43:03Z</time></trkpt><trkpt lat="59.1019312385" lon="30.4628868867"><ele>299.59</ele><time>2026-08-20T18:43:04Z</time></trkpt><trkpt lat="59.1019312385" lon="30.4628868867"><ele>300.07</ele><time>2026-08-20T18:43:05Z</time></trkpt><trkpt lat="59.1019312385" lon="30.4628868867"><ele>300.07</ele><time>2026-08-20T18:43:06Z</time></trkpt><trkpt lat="59.1019312385" lon="30.4628868867"><ele>300.07</ele><time>2026-08-20T18:43:07Z</time></trkpt><trkpt lat="59.1019312385" lon="30.4628868867"><ele>300.07</ele><time>2026-08-20T18:43:08Z</time></trkpt><trkpt lat="59.1019312385" lon="30.4628868867"><ele>300.07</ele><time>2026-08-20T18:43:09Z</time></trkpt><trkpt lat="59.1019312385" lon="30.4628868867"><ele>300.07</ele><time>2026-08-20T18:43:10Z</time></trkpt><trkpt lat="59.1019312385" lon="30.4628868867"><ele>300.07</ele><time>2026-08-20T18:43:11Z</time></trkpt><trkpt lat="59.1019312385" lon="30.4628868867"><ele>299.59</ele><time>2026-08-20T18:43:12Z</time></trkpt><trkpt lat="59.1019312385" lon="30.4628868867"><ele>300.07</ele><time>2026-08-20T18:43:13Z</time></trkpt><trkpt lat="59.1019312385" lon="30.4628868867"><ele>300.07</ele><time>2026-08-20T18:43:14Z</time></trkpt><trkpt lat="59.1019312385" lon="30.4628868867"><ele>300.07</ele><time>2026-08-20T18:43:15Z</time></trkpt><trkpt lat="59.1019312385" lon="30.4628868867"><ele>300.07</ele><time>2026-08-20T18:43:16Z</time></trkpt><trkpt lat="59.1019312385" lon="30.4628868867"><ele>300.07</ele><time>2026-08-20T18:43:17Z</time></trkpt><trkpt lat="59.1019312385" lon="30.4628868867"><ele>300.07</ele><time>2026-08-20T18:43:18Z</time></trkpt><trkpt lat="59.1019312385" lon="30.4628868867"><ele>300.07</ele><time>2026-08-20T18:43:19Z</time></trkpt><trkpt lat="59.1019312385" lon="30.4628868867"><ele>300.07</ele><time>2026-08-20T18:43:20Z</time></trkpt><trkpt lat="59.1019312385" lon="30.4628868867"><ele>300.07</ele><time>2026-08-20T18:43:21Z</time></trkpt><trkpt lat="59.1019312385" lon="30.4628868867"><ele>300.07</ele><time>2026-08-20T18:43:22Z</time></trkpt><trkpt lat="59.1019312385" lon="30.4628868867"><ele>300.07</ele><time>2026-08-20T18:43:23Z</time></trkpt><trkpt lat="59.1019312385" lon="30.4628868867"><ele>300.07</ele><time>2026-08-20T18:43:24Z</time></trkpt><trkpt lat="59.1019312385" lon="30.4628868867"><ele>300.07</ele><time>2026-08-20T18:43:25Z</time></trkpt><trkpt lat="59.1019312385" lon="30.4628868867"><ele>300.07</ele><time>2026-08-20T18:43:26Z</time></trkpt><trkpt lat="59.1019312385" lon="30.4628868867"><ele>300.07</ele><time>2026-08-20T18:43:27Z</time></trkpt><trkpt lat="59.1019312385" lon="30.4628868867"><ele>300.07</ele><time>2026-08-20T18:43:28Z</time></trkpt><trkpt lat="59.1019312385" lon="30.4628868867"><ele>300.07</ele><time>2026-08-20T18:43:29Z</time></trkpt><trkpt lat="59.1019312385" lon="30.4628868867"><ele>300.07</ele><time>2026-08-20T18:43:30Z</time></trkpt><trkpt lat="59.1019312385" lon="30.4628868867"><ele>299.59</ele><time>2026-08-20T18:43:31Z</time></trkpt><trkpt lat="59.1019312385" lon="30.4628868867"><ele>299.59</ele><time>2026-08-20T18:43:32Z</time></trkpt><trkpt lat="59.1019312385" lon="30.4628868867"><ele>299.59</ele><time>2026-08-20T18:43:33Z</time></trkpt><trkpt lat="59.1019312385" lon="30.4628868867"><ele>299.59</ele><time>2026-08-20T18:43:34Z</time></trkpt><trkpt lat="59.1019312385" lon="30.4628868867"><ele>299.59</ele><time>2026-08-20T18:43:35Z</time></trkpt><trkpt lat="59.1019312385" lon="30.4628868867"><ele>299.59</ele><time>2026-08-20T18:43:36Z</time></trkpt><trkpt lat="59.1019312385" lon="30.4628868867"><ele>299.59</ele><time>2026-08-20T18:43:37Z</time></trkpt><trkpt lat="59.1019312385" lon="30.4628868867"><ele>299.59</ele><time>2026-08-20T18:43:38Z</time></trkpt><trkpt lat="59.1019323282" lon="30.4629296344"><ele>299.59</ele><time>2026-08-20T18:43:39Z</time></trkpt><trkpt lat="59.1019337531" lon="30.4629339930"><ele>300.07</ele><time>2026-08-20T18:43:40Z</time></trkpt><trkpt lat="59.1019356810" lon="30.4629351664"><ele>300.07</ele><time>2026-08-20T18:43:41Z</time></trkpt><trkpt lat="59.1019358486" lon="30.4629365914"><ele>300.07</ele><time>2026-08-20T18:43:42Z</time></trkpt><trkpt lat="59.1019358486" lon="30.4629365914"><ele>300.07</ele><time>2026-08-20T18:43:43Z</time></trkpt><trkpt lat="59.1019358486" lon="30.4629365914"><ele>300.07</ele><time>2026-08-20T18:43:44Z</time></trkpt><trkpt lat="59.1019358486" lon="30.4629365914"><ele>300.07</ele><time>2026-08-20T18:43:45Z</time></trkpt><trkpt lat="59.1019358486" lon="30.4629365914"><ele>300.07</ele><time>2026-08-20T18:43:46Z</time></trkpt><trkpt lat="59.1019358486" lon="30.4629365914"><ele>300.07</ele><time>2026-08-20T18:43:47Z</time></trkpt><trkpt lat="59.1019358486" lon="30.4629365914"><ele>300.07</ele><time>2026-08-20T18:43:48Z</time></trkpt><trkpt lat="59.1019358486" lon="30.4629365914"><ele>300.07</ele><time>2026-08-20T18:43:49Z</time></trkpt><trkpt lat="59.1019358486" lon="30.4629365914"><ele>300.07</ele><time>2026-08-20T18:43:50Z</time></trkpt><trkpt lat="59.1019358486" lon="30.4629365914"><ele>300.07</ele><time>2026-08-20T18:43:51Z</time></trkpt><trkpt lat="59.1019358486" lon="30.4629365914"><ele>300.07</ele><time>2026-08-20T18:43:52Z</time></trkpt><trkpt lat="59.1019358486" lon="30.4629365914"><ele>300.07</ele><time>2026-08-20T18:43:53Z</time></trkpt><trkpt lat="59.1019358486" lon="30.4629365914"><ele>300.07</ele><time>2026-08-20T18:43:54Z</time></trkpt><trkpt lat="59.1019358486" lon="30.4629365914"><ele>299.59</ele><time>2026-08-20T18:43:55Z</time></trkpt><trkpt lat="59.1019358486" lon="30.4629365914"><ele>299.59</ele><time>2026-08-20T18:43:56Z</time></trkpt><trkpt lat="59.1019358486" lon="30.4629805963"><ele>299.59</ele><time>2026-08-20T18:43:57Z</time></trkpt><trkpt lat="59.1019389499" lon="30.4629922472"><ele>299.59</ele><time>2026-08-20T18:43:58Z</time></trkpt><trkpt lat="59.1019401234" lon="30.4630059935"><ele>299.59</ele><time>2026-08-20T18:43:59Z</time></trkpt><trkpt lat="59.1019428894" lon="30.4630174767"><ele>300.07</ele><time>2026-08-20T18:44:00Z</time></trkpt><trkpt lat="59.1019434761" lon="30.4630272835"><ele>300.07</ele><time>2026-08-20T18:44:01Z</time></trkpt><trkpt lat="59.1019463260" lon="30.4630392697"><ele>300.07</ele><time>2026-08-20T18:44:02Z</time></trkpt><trkpt lat="59.1019497626" lon="30.4630538542"><ele>300.07</ele><time>2026-08-20T18:44:03Z</time></trkpt><trkpt lat="59.1019531991" lon="30.4630699474"><ele>300.07</ele><time>2026-08-20T18:44:04Z</time></trkpt><trkpt lat="59.1019554622" lon="30.4630838614"><ele>300.07</ele><time>2026-08-20T18:44:05Z</time></trkpt><trkpt lat="59.1019615810" lon="30.4630966857"><ele>300.07</ele><time>2026-08-20T18:44:06Z</time></trkpt><trkpt lat="59.1019657720" lon="30.4631138686"><ele>300.07</ele><time>2026-08-20T18:44:07Z</time></trkpt><trkpt lat="59.1019691247" lon="30.4631265253"><ele>300.07</ele><time>2026-08-20T18:44:08Z</time></trkpt><trkpt lat="59.1019739863" lon="30.4631372541"><ele>300.07</ele><time>2026-08-20T18:44:09Z</time></trkpt><trkpt lat="59.1019763332" lon="30.4631467257"><ele>300.07</ele><time>2026-08-20T18:44:10Z</time></trkpt><trkpt lat="59.1019789316" lon="30.4631525930"><ele>300.07</ele><time>2026-08-20T18:44:11Z</time></trkpt><trkpt lat="59.1019813623" lon="30.4631581251"><ele>300.07</ele><time>2026-08-20T18:44:12Z</time></trkpt><trkpt lat="59.1019843798" lon="30.4631648306"><ele>300.07</ele><time>2026-08-20T18:44:13Z</time></trkpt><trkpt lat="59.1019830387" lon="30.4631750565"><ele>300.07</ele><time>2026-08-20T18:44:14Z</time></trkpt><trkpt lat="59.1019811947" lon="30.4631838575"><ele>300.07</ele><time>2026-08-20T18:44:15Z</time></trkpt><trkpt lat="59.1019796859" lon="30.4631931614"><ele>300.07</ele><time>2026-08-20T18:44:16Z</time></trkpt><trkpt lat="59.1019756626" lon="30.4632096738"><ele>300.07</ele><time>2026-08-20T18:44:17Z</time></trkpt><trkpt lat="59.1019698791" lon="30.4632272758"><ele>300.07</ele><time>2026-08-20T18:44:18Z</time></trkpt><trkpt lat="59.1019654367" lon="30.4632459674"><ele>300.07</ele><time>2026-08-20T18:44:19Z</time></trkpt><trkpt lat="59.1019653529" lon="30.4632607196"><ele>300.07</ele><time>2026-08-20T18:44:20Z</time></trkpt><trkpt lat="59.1019691247" lon="30.4632780701"><ele>300.07</ele><time>2026-08-20T18:44:21Z</time></trkpt><trkpt lat="59.1019753274" lon="30.4632926546"><ele>300.07</ele><time>2026-08-20T18:44:22Z</time></trkpt><trkpt lat="59.1019807756" lon="30.4633035511"><ele>300.07</ele><time>2026-08-20T18:44:23Z</time></trkpt><trkpt lat="59.1019850504" lon="30.4633134417"><ele>300.07</ele><time>2026-08-20T18:44:24Z</time></trkpt><trkpt lat="59.1019923426" lon="30.4633212369"><ele>300.07</ele><time>2026-08-20T18:44:25Z</time></trkpt><trkpt lat="59.1020006407" lon="30.4633279424"><ele>300.07</ele><time>2026-08-20T18:44:26Z</time></trkpt><trkpt lat="59.1020064242" lon="30.4633365758"><ele>300.07</ele><time>2026-08-20T18:44:27Z</time></trkpt><trkpt lat="59.1020096932" lon="30.4633471370"><ele>300.07</ele><time>2026-08-20T18:44:28Z</time></trkpt><trkpt lat="59.1020132974" lon="30.4633548483"><ele>300.07</ele><time>2026-08-20T18:44:29Z</time></trkpt><trkpt lat="59.1020155605" lon="30.4633650742"><ele>300.07</ele><time>2026-08-20T18:44:30Z</time></trkpt><trkpt lat="59.1020176560" lon="30.4633885436"><ele>300.07</ele><time>2026-08-20T18:44:31Z</time></trkpt><trkpt lat="59.1020177398" lon="30.4634057265"><ele>300.07</ele><time>2026-08-20T18:44:32Z</time></trkpt><trkpt lat="59.1020162310" lon="30.4634190537"><ele>299.59</ele><time>2026-08-20T18:44:33Z</time></trkpt><trkpt lat="59.1020156443" lon="30.4634325486"><ele>299.59</ele><time>2026-08-20T18:44:34Z</time></trkpt><trkpt lat="59.1020132974" lon="30.4634437803"><ele>299.59</ele><time>2026-08-20T18:44:35Z</time></trkpt><trkpt lat="59.1020141356" lon="30.4634492286"><ele>299.59</ele><time>2026-08-20T18:44:36Z</time></trkpt><trkpt lat="59.1020118725" lon="30.4634603765"><ele>299.59</ele><time>2026-08-20T18:44:37Z</time></trkpt><trkpt lat="59.1020069271" lon="30.4634752963"><ele>299.59</ele><time>2026-08-20T18:44:38Z</time></trkpt><trkpt lat="59.1020069271" lon="30.4634752963"><ele>299.59</ele><time>2026-08-20T18:44:39Z</time></trkpt><trkpt lat="59.1020069271" lon="30.4634752963"><ele>299.59</ele><time>2026-08-20T18:44:40Z</time></trkpt><trkpt lat="59.1020069271" lon="30.4634752963"><ele>299.59</ele><time>2026-08-20T18:44:41Z</time></trkpt><trkpt lat="59.1020069271" lon="30.4634752963"><ele>299.59</ele><time>2026-08-20T18:44:42Z</time></trkpt><trkpt lat="59.1019953601" lon="30.4634935688"><ele>299.59</ele><time>2026-08-20T18:44:43Z</time></trkpt><trkpt lat="59.1019913368" lon="30.4635003582"><ele>299.59</ele><time>2026-08-20T18:44:44Z</time></trkpt><trkpt lat="59.1019885708" lon="30.4635070637"><ele>300.07</ele><time>2026-08-20T18:44:45Z</time></trkpt><trkpt lat="59.1019855533" lon="30.4635103326"><ele>300.07</ele><time>2026-08-20T18:44:46Z</time></trkpt><trkpt lat="59.1019803565" lon="30.4635177925"><ele>299.59</ele><time>2026-08-20T18:44:47Z</time></trkpt><trkpt lat="59.1019739863" lon="30.4635284375"><ele>299.59</ele><time>2026-08-20T18:44:48Z</time></trkpt><trkpt lat="59.1019690409" lon="30.4635404237"><ele>299.59</ele><time>2026-08-20T18:44:49Z</time></trkpt><trkpt lat="59.1019630898" lon="30.4635540862"><ele>299.59</ele><time>2026-08-20T18:44:50Z</time></trkpt><trkpt lat="59.1019596532" lon="30.4635665752"><ele>299.59</ele><time>2026-08-20T18:44:51Z</time></trkpt><trkpt lat="59.1019570548" lon="30.4635783937"><ele>299.59</ele><time>2026-08-20T18:44:52Z</time></trkpt><trkpt lat="59.1019574739" lon="30.4635848477"><ele>299.59</ele><time>2026-08-20T18:44:53Z</time></trkpt><trkpt lat="59.1019567195" lon="30.4635936487"><ele>299.59</ele><time>2026-08-20T18:44:54Z</time></trkpt><trkpt lat="59.1019581445" lon="30.4636026174"><ele>299.59</ele><time>2026-08-20T18:44:55Z</time></trkpt><trkpt lat="59.1019566357" lon="30.4636136815"><ele>299.59</ele><time>2026-08-20T18:44:56Z</time></trkpt><trkpt lat="59.1019539535" lon="30.4636278469"><ele>299.59</ele><time>2026-08-20T18:44:57Z</time></trkpt><trkpt lat="59.1019536182" lon="30.4636501428"><ele>299.59</ele><time>2026-08-20T18:44:58Z</time></trkpt><trkpt lat="59.1019503493" lon="30.4636609554"><ele>299.59</ele><time>2026-08-20T18:44:59Z</time></trkpt><trkpt lat="59.1019496787" lon="30.4636712652"><ele>299.59</ele><time>2026-08-20T18:45:00Z</time></trkpt><trkpt lat="59.1019517742" lon="30.4636804853"><ele>299.59</ele><time>2026-08-20T18:45:01Z</time></trkpt><trkpt lat="59.1019537859" lon="30.4636904597"><ele>299.59</ele><time>2026-08-20T18:45:02Z</time></trkpt><trkpt lat="59.1019535344" lon="30.4636999313"><ele>299.59</ele><time>2026-08-20T18:45:03Z</time></trkpt><trkpt lat="59.1019553784" lon="30.4637079779"><ele>299.59</ele><time>2026-08-20T18:45:04Z</time></trkpt><trkpt lat="59.1019590665" lon="30.4637154378"><ele>299.59</ele><time>2026-08-20T18:45:05Z</time></trkpt><trkpt lat="59.1019590665" lon="30.4637154378"><ele>299.59</ele><time>2026-08-20T18:45:06Z</time></trkpt><trkpt lat="59.1019590665" lon="30.4637154378"><ele>299.59</ele><time>2026-08-20T18:45:07Z</time></trkpt><trkpt lat="59.1019590665" lon="30.4637154378"><ele>299.59</ele><time>2026-08-20T18:45:08Z</time></trkpt><trkpt lat="59.1019590665" lon="30.4637154378"><ele>299.59</ele><time>2026-08-20T18:45:09Z</time></trkpt><trkpt lat="59.1019590665" lon="30.4637154378"><ele>299.59</ele><time>2026-08-20T18:45:10Z</time></trkpt><trkpt lat="59.1019590665" lon="30.4637154378"><ele>299.59</ele><time>2026-08-20T18:45:11Z</time></trkpt><trkpt lat="59.1019590665" lon="30.4637154378"><ele>299.59</ele><time>2026-08-20T18:45:12Z</time></trkpt><trkpt lat="59.1019590665" lon="30.4637154378"><ele>299.59</ele><time>2026-08-20T18:45:13Z</time></trkpt><trkpt lat="59.1019590665" lon="30.4637154378"><ele>299.59</ele><time>2026-08-20T18:45:14Z</time></trkpt><trkpt lat="59.1019590665" lon="30.4637154378"><ele>299.59</ele><time>2026-08-20T18:45:15Z</time></trkpt><trkpt lat="59.1019590665" lon="30.4637154378"><ele>299.59</ele><time>2026-08-20T18:45:16Z</time></trkpt><trkpt lat="59.1019590665" lon="30.4637154378"><ele>299.59</ele><time>2026-08-20T18:45:17Z</time></trkpt><trkpt lat="59.1019590665" lon="30.4637154378"><ele>299.59</ele><time>2026-08-20T18:45:18Z</time></trkpt><trkpt lat="59.1019590665" lon="30.4637154378"><ele>299.59</ele><time>2026-08-20T18:45:19Z</time></trkpt><trkpt lat="59.1019590665" lon="30.4637154378"><ele>299.59</ele><time>2026-08-20T18:45:20Z</time></trkpt><trkpt lat="59.1019391175" lon="30.4638133384"><ele>299.59</ele><time>2026-08-20T18:45:21Z</time></trkpt><trkpt lat="59.1019359324" lon="30.4638229776"><ele>299.59</ele><time>2026-08-20T18:45:22Z</time></trkpt><trkpt lat="59.1019331664" lon="30.4638300184"><ele>299.59</ele><time>2026-08-20T18:45:23Z</time></trkpt><trkpt lat="59.1019312385" lon="30.4638331197"><ele>299.59</ele><time>2026-08-20T18:45:24Z</time></trkpt><trkpt lat="59.1019294783" lon="30.4638309404"><ele>299.59</ele><time>2026-08-20T18:45:25Z</time></trkpt><trkpt lat="59.1019268800" lon="30.4638252407"><ele>299.59</ele><time>2026-08-20T18:45:26Z</time></trkpt><trkpt lat="59.1019268800" lon="30.4638252407"><ele>299.59</ele><time>2026-08-20T18:45:27Z</time></trkpt><trkpt lat="59.1019268800" lon="30.4638252407"><ele>299.59</ele><time>2026-08-20T18:45:28Z</time></trkpt><trkpt lat="59.1019268800" lon="30.4638252407"><ele>300.07</ele><time>2026-08-20T18:45:29Z</time></trkpt><trkpt lat="59.1019273829" lon="30.4638208821"><ele>300.07</ele><time>2026-08-20T18:45:30Z</time></trkpt><trkpt lat="59.1019301489" lon="30.4638193734"><ele>300.07</ele><time>2026-08-20T18:45:31Z</time></trkpt><trkpt lat="59.1019326635" lon="30.4638184514"><ele>300.07</ele><time>2026-08-20T18:45:32Z</time></trkpt><trkpt lat="59.1019337531" lon="30.4638264980"><ele>299.59</ele><time>2026-08-20T18:45:33Z</time></trkpt><trkpt lat="59.1019351780" lon="30.4638273362"><ele>299.59</ele><time>2026-08-20T18:45:34Z</time></trkpt><trkpt lat="59.1019351780" lon="30.4638273362"><ele>299.59</ele><time>2026-08-20T18:45:35Z</time></trkpt><trkpt lat="59.1019351780" lon="30.4638273362"><ele>299.59</ele><time>2026-08-20T18:45:36Z</time></trkpt><trkpt lat="59.1019351780" lon="30.4638273362"><ele>299.59</ele><time>2026-08-20T18:45:37Z</time></trkpt><trkpt lat="59.1019351780" lon="30.4638273362"><ele>299.59</ele><time>2026-08-20T18:45:38Z</time></trkpt><trkpt lat="59.1019461583" lon="30.4638719279"><ele>299.59</ele><time>2026-08-20T18:45:39Z</time></trkpt><trkpt lat="59.1019500978" lon="30.4638831597"><ele>299.59</ele><time>2026-08-20T18:45:40Z</time></trkpt><trkpt lat="59.1019537859" lon="30.4638956487"><ele>299.59</ele><time>2026-08-20T18:45:41Z</time></trkpt><trkpt lat="59.1019588988" lon="30.4639146756"><ele>299.59</ele><time>2026-08-20T18:45:42Z</time></trkpt><trkpt lat="59.1019607428" lon="30.4639312718"><ele>299.59</ele><time>2026-08-20T18:45:43Z</time></trkpt><trkpt lat="59.1019616649" lon="30.4639429227"><ele>299.59</ele><time>2026-08-20T18:45:44Z</time></trkpt><trkpt lat="59.1019610781" lon="30.4639570881"><ele>299.59</ele><time>2026-08-20T18:45:45Z</time></trkpt><trkpt lat="59.1019613296" lon="30.4639677331"><ele>299.59</ele><time>2026-08-20T18:45:46Z</time></trkpt><trkpt lat="59.1019604914" lon="30.4639825691"><ele>299.59</ele><time>2026-08-20T18:45:47Z</time></trkpt><trkpt lat="59.1019606590" lon="30.4640023503"><ele>299.59</ele><time>2026-08-20T18:45:48Z</time></trkpt><trkpt lat="59.1019600723" lon="30.4640261550"><ele>299.59</ele><time>2026-08-20T18:45:49Z</time></trkpt><trkpt lat="59.1019587312" lon="30.4640449304"><ele>299.59</ele><time>2026-08-20T18:45:50Z</time></trkpt><trkpt lat="59.1019591503" lon="30.4640642926"><ele>299.59</ele><time>2026-08-20T18:45:51Z</time></trkpt><trkpt lat="59.1019582283" lon="30.4640862532"><ele>299.59</ele><time>2026-08-20T18:45:52Z</time></trkpt><trkpt lat="59.1019606590" lon="30.4641070403"><ele>299.59</ele><time>2026-08-20T18:45:53Z</time></trkpt><trkpt lat="59.1019641794" lon="30.4641261511"><ele>299.59</ele><time>2026-08-20T18:45:54Z</time></trkpt><trkpt lat="59.1019677836" lon="30.4641394783"><ele>299.59</ele><time>2026-08-20T18:45:55Z</time></trkpt><trkpt lat="59.1019673645" lon="30.4641538952"><ele>299.59</ele><time>2026-08-20T18:45:56Z</time></trkpt><trkpt lat="59.1019616649" lon="30.4641790409"><ele>299.59</ele><time>2026-08-20T18:45:57Z</time></trkpt><trkpt lat="59.1019580606" lon="30.4642063659"><ele>299.59</ele><time>2026-08-20T18:45:58Z</time></trkpt><trkpt lat="59.1019604914" lon="30.4642215371"><ele>299.59</ele><time>2026-08-20T18:45:59Z</time></trkpt><trkpt lat="59.1019632574" lon="30.4642340261"><ele>299.59</ele><time>2026-08-20T18:46:00Z</time></trkpt><trkpt lat="59.1019692924" lon="30.4642412346"><ele>299.59</ele><time>2026-08-20T18:46:01Z</time></trkpt><trkpt lat="59.1019703820" lon="30.4642583337"><ele>299.59</ele><time>2026-08-20T18:46:02Z</time></trkpt><trkpt lat="59.1019722261" lon="30.4642717447"><ele>299.59</ele><time>2026-08-20T18:46:03Z</time></trkpt><trkpt lat="59.1019735672" lon="30.4642850719"><ele>300.07</ele><time>2026-08-20T18:46:04Z</time></trkpt><trkpt lat="59.1019742377" lon="30.4643024225"><ele>300.07</ele><time>2026-08-20T18:46:05Z</time></trkpt><trkpt lat="59.1019734833" lon="30.4643089604"><ele>300.07</ele><time>2026-08-20T18:46:06Z</time></trkpt><trkpt lat="59.1019769199" lon="30.4643262271"><ele>300.07</ele><time>2026-08-20T18:46:07Z</time></trkpt><trkpt lat="59.1019769199" lon="30.4643262271"><ele>300.07</ele><time>2026-08-20T18:46:08Z</time></trkpt><trkpt lat="59.1019769199" lon="30.4643262271"><ele>300.07</ele><time>2026-08-20T18:46:09Z</time></trkpt><trkpt lat="59.1019769199" lon="30.4643262271"><ele>300.07</ele><time>2026-08-20T18:46:10Z</time></trkpt><trkpt lat="59.1019769199" lon="30.4643262271"><ele>300.07</ele><time>2026-08-20T18:46:11Z</time></trkpt><trkpt lat="59.1019755788" lon="30.4643545579"><ele>300.07</ele><time>2026-08-20T18:46:12Z</time></trkpt><trkpt lat="59.1019745730" lon="30.4643687233"><ele>300.07</ele><time>2026-08-20T18:46:13Z</time></trkpt><trkpt lat="59.1019732319" lon="30.4643845651"><ele>300.07</ele><time>2026-08-20T18:46:14Z</time></trkpt><trkpt lat="59.1019706335" lon="30.4644012451"><ele>300.07</ele><time>2026-08-20T18:46:15Z</time></trkpt><trkpt lat="59.1019703820" lon="30.4644150753"><ele>300.07</ele><time>2026-08-20T18:46:16Z</time></trkpt><trkpt lat="59.1019717231" lon="30.4644291569"><ele>300.07</ele><time>2026-08-20T18:46:17Z</time></trkpt><trkpt lat="59.1019737348" lon="30.4644412268"><ele>300.07</ele><time>2026-08-20T18:46:18Z</time></trkpt><trkpt lat="59.1019801889" lon="30.4644466750"><ele>300.07</ele><time>2026-08-20T18:46:19Z</time></trkpt><trkpt lat="59.1019813623" lon="30.4644557275"><ele>300.07</ele><time>2026-08-20T18:46:20Z</time></trkpt><trkpt lat="59.1019837931" lon="30.4644623492"><ele>300.07</ele><time>2026-08-20T18:46:21Z</time></trkpt><trkpt lat="59.1019856371" lon="30.4644778557"><ele>300.07</ele><time>2026-08-20T18:46:22Z</time></trkpt><trkpt lat="59.1019864753" lon="30.4644932784"><ele>300.07</ele><time>2026-08-20T18:46:23Z</time></trkpt><trkpt lat="59.1019889899" lon="30.4645036720"><ele>300.07</ele><time>2026-08-20T18:46:24Z</time></trkpt><trkpt lat="59.1019902471" lon="30.4645128921"><ele>300.55</ele><time>2026-08-20T18:46:25Z</time></trkpt><trkpt lat="59.1019938514" lon="30.4645274766"><ele>300.55</ele><time>2026-08-20T18:46:26Z</time></trkpt><trkpt lat="59.1019975394" lon="30.4645384569"><ele>300.55</ele><time>2026-08-20T18:46:27Z</time></trkpt><trkpt lat="59.1020025685" lon="30.4645512812"><ele>300.55</ele><time>2026-08-20T18:46:28Z</time></trkpt><trkpt lat="59.1020066757" lon="30.4645630997"><ele>300.55</ele><time>2026-08-20T18:46:29Z</time></trkpt><trkpt lat="59.1020084359" lon="30.4645767622"><ele>300.55</ele><time>2026-08-20T18:46:30Z</time></trkpt><trkpt lat="59.1020109504" lon="30.4645916820"><ele>300.55</ele><time>2026-08-20T18:46:31Z</time></trkpt><trkpt lat="59.1020120401" lon="30.4646047577"><ele>300.55</ele><time>2026-08-20T18:46:32Z</time></trkpt><trkpt lat="59.1020140518" lon="30.4646195937"><ele>300.07</ele><time>2026-08-20T18:46:33Z</time></trkpt><trkpt lat="59.1020162310" lon="30.4646339267"><ele>300.07</ele><time>2026-08-20T18:46:34Z</time></trkpt><trkpt lat="59.1020149738" lon="30.4646496847"><ele>300.07</ele><time>2026-08-20T18:46:35Z</time></trkpt><trkpt lat="59.1020150576" lon="30.4646643531"><ele>300.07</ele><time>2026-08-20T18:46:36Z</time></trkpt><trkpt lat="59.1020160634" lon="30.4646768421"><ele>300.07</ele><time>2026-08-20T18:46:37Z</time></trkpt><trkpt lat="59.1020176560" lon="30.4646893311"><ele>300.07</ele><time>2026-08-20T18:46:38Z</time></trkpt><trkpt lat="59.1020188294" lon="30.4647011496"><ele>300.07</ele><time>2026-08-20T18:46:39Z</time></trkpt><trkpt lat="59.1020210925" lon="30.4647119623"><ele>300.07</ele><time>2026-08-20T18:46:40Z</time></trkpt><trkpt lat="59.1020245291" lon="30.4647277202"><ele>300.07</ele><time>2026-08-20T18:46:41Z</time></trkpt><trkpt lat="59.1020254511" lon="30.4647422209"><ele>300.07</ele><time>2026-08-20T18:46:42Z</time></trkpt><trkpt lat="59.1020240262" lon="30.4647635948"><ele>300.55</ele><time>2026-08-20T18:46:43Z</time></trkpt><trkpt lat="59.1020256188" lon="30.4647801910"><ele>300.55</ele><time>2026-08-20T18:46:44Z</time></trkpt><trkpt lat="59.1020266246" lon="30.4647952784"><ele>300.55</ele><time>2026-08-20T18:46:45Z</time></trkpt><trkpt lat="59.1020298935" lon="30.4648089409"><ele>300.07</ele><time>2026-08-20T18:46:46Z</time></trkpt><trkpt lat="59.1020327434" lon="30.4648260400"><ele>300.07</ele><time>2026-08-20T18:46:47Z</time></trkpt><trkpt lat="59.1020360962" lon="30.4648404568"><ele>300.07</ele><time>2026-08-20T18:46:48Z</time></trkpt><trkpt lat="59.1020411253" lon="30.4648557957"><ele>300.07</ele><time>2026-08-20T18:46:49Z</time></trkpt><trkpt lat="59.1020445619" lon="30.4648713861"><ele>300.07</ele><time>2026-08-20T18:46:50Z</time></trkpt><trkpt lat="59.1020484176" lon="30.4648922570"><ele>300.07</ele><time>2026-08-20T18:46:51Z</time></trkpt><trkpt lat="59.1020523570" lon="30.4649096914"><ele>300.07</ele><time>2026-08-20T18:46:52Z</time></trkpt><trkpt lat="59.1020566318" lon="30.4649312329"><ele>300.07</ele><time>2026-08-20T18:46:53Z</time></trkpt><trkpt lat="59.1020641755" lon="30.4649494216"><ele>300.07</ele><time>2026-08-20T18:46:54Z</time></trkpt><trkpt lat="59.1020667739" lon="30.4649685323"><ele>300.07</ele><time>2026-08-20T18:46:55Z</time></trkpt><trkpt lat="59.1020699590" lon="30.4649880622"><ele>300.07</ele><time>2026-08-20T18:46:56Z</time></trkpt><trkpt lat="59.1020734794" lon="30.4650064185"><ele>300.07</ele><time>2026-08-20T18:46:57Z</time></trkpt><trkpt lat="59.1020809393" lon="30.4650299717"><ele>300.07</ele><time>2026-08-20T18:46:58Z</time></trkpt><trkpt lat="59.1020868905" lon="30.4650471546"><ele>300.07</ele><time>2026-08-20T18:46:59Z</time></trkpt><trkpt lat="59.1020929255" lon="30.4650658462"><ele>300.07</ele><time>2026-08-20T18:47:00Z</time></trkpt><trkpt lat="59.1020982899" lon="30.4650839511"><ele>300.07</ele><time>2026-08-20T18:47:01Z</time></trkpt><trkpt lat="59.1021031514" lon="30.4651039839"><ele>300.07</ele><time>2026-08-20T18:47:02Z</time></trkpt><trkpt lat="59.1021070909" lon="30.4651262797"><ele>300.07</ele><time>2026-08-20T18:47:03Z</time></trkpt><trkpt lat="59.1021096893" lon="30.4651478212"><ele>300.07</ele><time>2026-08-20T18:47:04Z</time></trkpt><trkpt lat="59.1021075938" lon="30.4651640821"><ele>300.07</ele><time>2026-08-20T18:47:05Z</time></trkpt><trkpt lat="59.1021049954" lon="30.4651786666"><ele>300.07</ele><time>2026-08-20T18:47:06Z</time></trkpt><trkpt lat="59.1021065880" lon="30.4651900660"><ele>300.07</ele><time>2026-08-20T18:47:07Z</time></trkpt><trkpt lat="59.1021059174" lon="30.4652063269"><ele>299.59</ele><time>2026-08-20T18:47:08Z</time></trkpt><trkpt lat="59.1021046601" lon="30.4652230907"><ele>299.59</ele><time>2026-08-20T18:47:09Z</time></trkpt><trkpt lat="59.1021013912" lon="30.4652382620"><ele>299.59</ele><time>2026-08-20T18:47:10Z</time></trkpt><trkpt lat="59.1020993795" lon="30.4652537685"><ele>299.59</ele><time>2026-08-20T18:47:11Z</time></trkpt><trkpt lat="59.1020974517" lon="30.4652650841"><ele>299.59</ele><time>2026-08-20T18:47:12Z</time></trkpt><trkpt lat="59.1020965297" lon="30.4652795848"><ele>299.59</ele><time>2026-08-20T18:47:13Z</time></trkpt><trkpt lat="59.1020948533" lon="30.4652928282"><ele>299.59</ele><time>2026-08-20T18:47:14Z</time></trkpt><trkpt lat="59.1020934284" lon="30.4653087538"><ele>299.59</ele><time>2026-08-20T18:47:15Z</time></trkpt><trkpt lat="59.1020927578" lon="30.4653298762"><ele>299.59</ele><time>2026-08-20T18:47:16Z</time></trkpt><trkpt lat="59.1020929255" lon="30.4653464723"><ele>299.59</ele><time>2026-08-20T18:47:17Z</time></trkpt><trkpt lat="59.1020939313" lon="30.4653624818"><ele>299.11</ele><time>2026-08-20T18:47:18Z</time></trkpt><trkpt lat="59.1020963620" lon="30.4653751384"><ele>299.11</ele><time>2026-08-20T18:47:19Z</time></trkpt><trkpt lat="59.1020984575" lon="30.4653935786"><ele>299.11</ele><time>2026-08-20T18:47:20Z</time></trkpt><trkpt lat="59.1021001339" lon="30.4654086661"><ele>299.11</ele><time>2026-08-20T18:47:21Z</time></trkpt><trkpt lat="59.1021035705" lon="30.4654218256"><ele>299.11</ele><time>2026-08-20T18:47:22Z</time></trkpt><trkpt lat="59.1021063365" lon="30.4654320516"><ele>299.11</ele><time>2026-08-20T18:47:23Z</time></trkpt><trkpt lat="59.1021131258" lon="30.4654425289"><ele>299.11</ele><time>2026-08-20T18:47:24Z</time></trkpt><trkpt lat="59.1021180712" lon="30.4654581193"><ele>299.11</ele><time>2026-08-20T18:47:25Z</time></trkpt><trkpt lat="59.1021225974" lon="30.4654773977"><ele>299.11</ele><time>2026-08-20T18:47:26Z</time></trkpt><trkpt lat="59.1021265369" lon="30.4654944967"><ele>299.11</ele><time>2026-08-20T18:47:27Z</time></trkpt><trkpt lat="59.1021273751" lon="30.4655133560"><ele>299.11</ele><time>2026-08-20T18:47:28Z</time></trkpt><trkpt lat="59.1021273751" lon="30.4655255936"><ele>299.11</ele><time>2026-08-20T18:47:29Z</time></trkpt><trkpt lat="59.1021257825" lon="30.4655384179"><ele>299.11</ele><time>2026-08-20T18:47:30Z</time></trkpt><trkpt lat="59.1021265369" lon="30.4655463807"><ele>299.11</ele><time>2026-08-20T18:47:31Z</time></trkpt><trkpt lat="59.1021266207" lon="30.4655583669"><ele>299.11</ele><time>2026-08-20T18:47:32Z</time></trkpt><trkpt lat="59.1021290515" lon="30.4655683413"><ele>299.11</ele><time>2026-08-20T18:47:33Z</time></trkpt><trkpt lat="59.1021301411" lon="30.4655808304"><ele>299.11</ele><time>2026-08-20T18:47:34Z</time></trkpt><trkpt lat="59.1021302249" lon="30.4655954987"><ele>299.11</ele><time>2026-08-20T18:47:35Z</time></trkpt><trkpt lat="59.1021297220" lon="30.4656140227"><ele>299.11</ele><time>2026-08-20T18:47:36Z</time></trkpt><trkpt lat="59.1021300573" lon="30.4656301998"><ele>299.11</ele><time>2026-08-20T18:47:37Z</time></trkpt><trkpt lat="59.1021287162" lon="30.4656462930"><ele>299.11</ele><time>2026-08-20T18:47:38Z</time></trkpt><trkpt lat="59.1021261178" lon="30.4656641465"><ele>299.11</ele><time>2026-08-20T18:47:39Z</time></trkpt><trkpt lat="59.1021236870" lon="30.4656771384"><ele>299.11</ele><time>2026-08-20T18:47:40Z</time></trkpt><trkpt lat="59.1021184903" lon="30.4656976741"><ele>299.11</ele><time>2026-08-20T18:47:41Z</time></trkpt><trkpt lat="59.1021134611" lon="30.4657173716"><ele>299.11</ele><time>2026-08-20T18:47:42Z</time></trkpt><trkpt lat="59.1021075938" lon="30.4657391645"><ele>299.11</ele><time>2026-08-20T18:47:43Z</time></trkpt><trkpt lat="59.1021037381" lon="30.4657564312"><ele>299.11</ele><time>2026-08-20T18:47:44Z</time></trkpt><trkpt lat="59.1021008883" lon="30.4657713510"><ele>299.11</ele><time>2026-08-20T18:47:45Z</time></trkpt><trkpt lat="59.1020983737" lon="30.4657886177"><ele>299.11</ele><time>2026-08-20T18:47:46Z</time></trkpt><trkpt lat="59.1020998824" lon="30.4658028670"><ele>299.11</ele><time>2026-08-20T18:47:47Z</time></trkpt><trkpt lat="59.1021001339" lon="30.4658181220"><ele>299.11</ele><time>2026-08-20T18:47:48Z</time></trkpt><trkpt lat="59.1020973679" lon="30.4658302758"><ele>299.11</ele><time>2026-08-20T18:47:49Z</time></trkpt><trkpt lat="59.1020967811" lon="30.4658414237"><ele>299.11</ele><time>2026-08-20T18:47:50Z</time></trkpt><trkpt lat="59.1020975355" lon="30.4658534937"><ele>299.11</ele><time>2026-08-20T18:47:51Z</time></trkpt><trkpt lat="59.1020988766" lon="30.4658661503"><ele>299.11</ele><time>2026-08-20T18:47:52Z</time></trkpt><trkpt lat="59.1020991281" lon="30.4658794776"><ele>299.11</ele><time>2026-08-20T18:47:53Z</time></trkpt><trkpt lat="59.1021023970" lon="30.4658925533"><ele>299.11</ele><time>2026-08-20T18:47:54Z</time></trkpt><trkpt lat="59.1021075938" lon="30.4659003485"><ele>299.11</ele><time>2026-08-20T18:47:55Z</time></trkpt><trkpt lat="59.1021128744" lon="30.4659069702"><ele>299.11</ele><time>2026-08-20T18:47:56Z</time></trkpt><trkpt lat="59.1021186579" lon="30.4659159388"><ele>299.11</ele><time>2026-08-20T18:47:57Z</time></trkpt><trkpt lat="59.1021226812" lon="30.4659279250"><ele>299.11</ele><time>2026-08-20T18:47:58Z</time></trkpt><trkpt lat="59.1021266207" lon="30.4659403302"><ele>299.11</ele><time>2026-08-20T18:47:59Z</time></trkpt><trkpt lat="59.1021294706" lon="30.4659567587"><ele>299.11</ele><time>2026-08-20T18:48:00Z</time></trkpt><trkpt lat="59.1021314822" lon="30.4659685772"><ele>299.11</ele><time>2026-08-20T18:48:01Z</time></trkpt><trkpt lat="59.1021347512" lon="30.4659803957"><ele>299.11</ele><time>2026-08-20T18:48:02Z</time></trkpt><trkpt lat="59.1021417920" lon="30.4659897834"><ele>299.11</ele><time>2026-08-20T18:48:03Z</time></trkpt><trkpt lat="59.1021484975" lon="30.4659952316"><ele>299.11</ele><time>2026-08-20T18:48:04Z</time></trkpt><trkpt lat="59.1021513473" lon="30.4660015181"><ele>299.11</ele><time>2026-08-20T18:48:05Z</time></trkpt><trkpt lat="59.1021535266" lon="30.4660052899"><ele>299.11</ele><time>2026-08-20T18:48:06Z</time></trkpt><trkpt lat="59.1021535266" lon="30.4660052899"><ele>299.11</ele><time>2026-08-20T18:48:07Z</time></trkpt><trkpt lat="59.1021535266" lon="30.4660052899"><ele>299.11</ele><time>2026-08-20T18:48:08Z</time></trkpt><trkpt lat="59.1021535266" lon="30.4660052899"><ele>299.11</ele><time>2026-08-20T18:48:09Z</time></trkpt><trkpt lat="59.1021535266" lon="30.4660052899"><ele>299.11</ele><time>2026-08-20T18:48:10Z</time></trkpt><trkpt lat="59.1021535266" lon="30.4660052899"><ele>299.11</ele><time>2026-08-20T18:48:11Z</time></trkpt><trkpt lat="59.1021535266" lon="30.4660052899"><ele>299.11</ele><time>2026-08-20T18:48:12Z</time></trkpt><trkpt lat="59.1021535266" lon="30.4660052899"><ele>299.11</ele><time>2026-08-20T18:48:13Z</time></trkpt><trkpt lat="59.1021672729" lon="30.4660513904"><ele>299.59</ele><time>2026-08-20T18:48:14Z</time></trkpt><trkpt lat="59.1021730565" lon="30.4660565872"><ele>299.59</ele><time>2026-08-20T18:48:15Z</time></trkpt><trkpt lat="59.1021761578" lon="30.4660601914"><ele>299.59</ele><time>2026-08-20T18:48:16Z</time></trkpt><trkpt lat="59.1021799296" lon="30.4660619516"><ele>299.59</ele><time>2026-08-20T18:48:17Z</time></trkpt><trkpt lat="59.1021824442" lon="30.4660669807"><ele>299.59</ele><time>2026-08-20T18:48:18Z</time></trkpt><trkpt lat="59.1021863837" lon="30.4660727642"><ele>299.11</ele><time>2026-08-20T18:48:19Z</time></trkpt><trkpt lat="59.1021913290" lon="30.4660745244"><ele>299.11</ele><time>2026-08-20T18:48:20Z</time></trkpt><trkpt lat="59.1021961905" lon="30.4660752788"><ele>299.11</ele><time>2026-08-20T18:48:21Z</time></trkpt><trkpt lat="59.1021960229" lon="30.4660814814"><ele>299.11</ele><time>2026-08-20T18:48:22Z</time></trkpt><trkpt lat="59.1021960229" lon="30.4660814814"><ele>299.11</ele><time>2026-08-20T18:48:23Z</time></trkpt><trkpt lat="59.1021960229" lon="30.4660814814"><ele>299.11</ele><time>2026-08-20T18:48:24Z</time></trkpt><trkpt lat="59.1021960229" lon="30.4660814814"><ele>299.11</ele><time>2026-08-20T18:48:25Z</time></trkpt><trkpt lat="59.1021960229" lon="30.4660814814"><ele>299.11</ele><time>2026-08-20T18:48:26Z</time></trkpt><trkpt lat="59.1021960229" lon="30.4660814814"><ele>299.11</ele><time>2026-08-20T18:48:27Z</time></trkpt><trkpt lat="59.1021960229" lon="30.4660814814"><ele>299.11</ele><time>2026-08-20T18:48:28Z</time></trkpt><trkpt lat="59.1021960229" lon="30.4660814814"><ele>299.11</ele><time>2026-08-20T18:48:29Z</time></trkpt><trkpt lat="59.1021960229" lon="30.4660814814"><ele>299.11</ele><time>2026-08-20T18:48:30Z</time></trkpt><trkpt lat="59.1021960229" lon="30.4660814814"><ele>299.11</ele><time>2026-08-20T18:48:31Z</time></trkpt><trkpt lat="59.1021885630" lon="30.4661394842"><ele>299.11</ele><time>2026-08-20T18:48:32Z</time></trkpt><trkpt lat="59.1021871381" lon="30.4661496263"><ele>299.11</ele><time>2026-08-20T18:48:33Z</time></trkpt><trkpt lat="59.1021853779" lon="30.4661609419"><ele>299.11</ele><time>2026-08-20T18:48:34Z</time></trkpt><trkpt lat="59.1021829471" lon="30.4661772866"><ele>299.11</ele><time>2026-08-20T18:48:35Z</time></trkpt><trkpt lat="59.1021857969" lon="30.4661829863"><ele>299.11</ele><time>2026-08-20T18:48:36Z</time></trkpt><trkpt lat="59.1021848749" lon="30.4661899433"><ele>299.11</ele><time>2026-08-20T18:48:37Z</time></trkpt><trkpt lat="59.1021844558" lon="30.4661955591"><ele>299.11</ele><time>2026-08-20T18:48:38Z</time></trkpt><trkpt lat="59.1021846235" lon="30.4662005883"><ele>299.59</ele><time>2026-08-20T18:48:39Z</time></trkpt><trkpt lat="59.1021846235" lon="30.4662005883"><ele>299.59</ele><time>2026-08-20T18:48:40Z</time></trkpt><trkpt lat="59.1021809354" lon="30.4662080482"><ele>299.59</ele><time>2026-08-20T18:48:41Z</time></trkpt><trkpt lat="59.1021789238" lon="30.4662130773"><ele>299.59</ele><time>2026-08-20T18:48:42Z</time></trkpt><trkpt lat="59.1021772474" lon="30.4662157595"><ele>299.59</ele><time>2026-08-20T18:48:43Z</time></trkpt><trkpt lat="59.1021774989" lon="30.4662212916"><ele>299.59</ele><time>2026-08-20T18:48:44Z</time></trkpt><trkpt lat="59.1021765769" lon="30.4662150890"><ele>299.59</ele><time>2026-08-20T18:48:45Z</time></trkpt><trkpt lat="59.1021765769" lon="30.4662150890"><ele>299.59</ele><time>2026-08-20T18:48:46Z</time></trkpt><trkpt lat="59.1021765769" lon="30.4662150890"><ele>299.59</ele><time>2026-08-20T18:48:47Z</time></trkpt><trkpt lat="59.1021765769" lon="30.4662150890"><ele>299.59</ele><time>2026-08-20T18:48:48Z</time></trkpt><trkpt lat="59.1021765769" lon="30.4662150890"><ele>299.59</ele><time>2026-08-20T18:48:49Z</time></trkpt><trkpt lat="59.1021675244" lon="30.4662352894"><ele>299.59</ele><time>2026-08-20T18:48:50Z</time></trkpt><trkpt lat="59.1021652613" lon="30.4662391450"><ele>299.59</ele><time>2026-08-20T18:48:51Z</time></trkpt><trkpt lat="59.1021630820" lon="30.4662448447"><ele>299.59</ele><time>2026-08-20T18:48:52Z</time></trkpt><trkpt lat="59.1021606512" lon="30.4662507959"><ele>299.59</ele><time>2026-08-20T18:48:53Z</time></trkpt><trkpt lat="59.1021606512" lon="30.4662507959"><ele>299.11</ele><time>2026-08-20T18:48:54Z</time></trkpt><trkpt lat="59.1021584719" lon="30.4662744328"><ele>299.11</ele><time>2026-08-20T18:48:55Z</time></trkpt><trkpt lat="59.1021616571" lon="30.4662872571"><ele>299.11</ele><time>2026-08-20T18:48:56Z</time></trkpt><trkpt lat="59.1021633334" lon="30.4663002491"><ele>299.11</ele><time>2026-08-20T18:48:57Z</time></trkpt><trkpt lat="59.1021610703" lon="30.4663176835"><ele>299.11</ele><time>2026-08-20T18:48:58Z</time></trkpt><trkpt lat="59.1021612380" lon="30.4663373809"><ele>299.11</ele><time>2026-08-20T18:48:59Z</time></trkpt><trkpt lat="59.1021674406" lon="30.4663507920"><ele>299.11</ele><time>2026-08-20T18:49:00Z</time></trkpt><trkpt lat="59.1021717992" lon="30.4663550667"><ele>299.11</ele><time>2026-08-20T18:49:01Z</time></trkpt><trkpt lat="59.1021725535" lon="30.4663597606"><ele>299.11</ele><time>2026-08-20T18:49:02Z</time></trkpt><trkpt lat="59.1021707933" lon="30.4663638677"><ele>299.11</ele><time>2026-08-20T18:49:03Z</time></trkpt><trkpt lat="59.1021720506" lon="30.4663668852"><ele>299.11</ele><time>2026-08-20T18:49:04Z</time></trkpt><trkpt lat="59.1021720506" lon="30.4663668852"><ele>299.59</ele><time>2026-08-20T18:49:05Z</time></trkpt><trkpt lat="59.1021720506" lon="30.4663668852"><ele>299.59</ele><time>2026-08-20T18:49:06Z</time></trkpt><trkpt lat="59.1021720506" lon="30.4663668852"><ele>299.59</ele><time>2026-08-20T18:49:07Z</time></trkpt><trkpt lat="59.1021720506" lon="30.4663668852"><ele>299.59</ele><time>2026-08-20T18:49:08Z</time></trkpt><trkpt lat="59.1021720506" lon="30.4663668852"><ele>299.59</ele><time>2026-08-20T18:49:09Z</time></trkpt><trkpt lat="59.1021720506" lon="30.4663668852"><ele>299.59</ele><time>2026-08-20T18:49:10Z</time></trkpt><trkpt lat="59.1021720506" lon="30.4663668852"><ele>299.59</ele><time>2026-08-20T18:49:11Z</time></trkpt><trkpt lat="59.1021720506" lon="30.4663668852"><ele>299.59</ele><time>2026-08-20T18:49:12Z</time></trkpt><trkpt lat="59.1021720506" lon="30.4663668852"><ele>299.59</ele><time>2026-08-20T18:49:13Z</time></trkpt><trkpt lat="59.1021720506" lon="30.4663668852"><ele>299.59</ele><time>2026-08-20T18:49:14Z</time></trkpt><trkpt lat="59.1021720506" lon="30.4663668852"><ele>299.59</ele><time>2026-08-20T18:49:15Z</time></trkpt><trkpt lat="59.1021714639" lon="30.4664014187"><ele>299.59</ele><time>2026-08-20T18:49:16Z</time></trkpt><trkpt lat="59.1021709610" lon="30.4664199427"><ele>299.59</ele><time>2026-08-20T18:49:17Z</time></trkpt><trkpt lat="59.1021741461" lon="30.4664330184"><ele>299.59</ele><time>2026-08-20T18:49:18Z</time></trkpt><trkpt lat="59.1021767445" lon="30.4664449207"><ele>299.59</ele><time>2026-08-20T18:49:19Z</time></trkpt><trkpt lat="59.1021798458" lon="30.4664539732"><ele>299.11</ele><time>2026-08-20T18:49:20Z</time></trkpt><trkpt lat="59.1021819413" lon="30.4664619360"><ele>299.11</ele><time>2026-08-20T18:49:21Z</time></trkpt><trkpt lat="59.1021853779" lon="30.4664686415"><ele>299.59</ele><time>2026-08-20T18:49:22Z</time></trkpt><trkpt lat="59.1021871381" lon="30.4664772749"><ele>299.59</ele><time>2026-08-20T18:49:23Z</time></trkpt><trkpt lat="59.1021890659" lon="30.4664836451"><ele>299.59</ele><time>2026-08-20T18:49:24Z</time></trkpt><trkpt lat="59.1021877248" lon="30.4664898477"><ele>299.59</ele><time>2026-08-20T18:49:25Z</time></trkpt><trkpt lat="59.1021890659" lon="30.4665005766"><ele>299.59</ele><time>2026-08-20T18:49:26Z</time></trkpt><trkpt lat="59.1021891497" lon="30.4665098805"><ele>299.59</ele><time>2026-08-20T18:49:27Z</time></trkpt><trkpt lat="59.1021891497" lon="30.4665098805"><ele>299.59</ele><time>2026-08-20T18:49:28Z</time></trkpt><trkpt lat="59.1021891497" lon="30.4665098805"><ele>299.59</ele><time>2026-08-20T18:49:29Z</time></trkpt><trkpt lat="59.1021891497" lon="30.4665098805"><ele>299.59</ele><time>2026-08-20T18:49:30Z</time></trkpt><trkpt lat="59.1021891497" lon="30.4665098805"><ele>299.59</ele><time>2026-08-20T18:49:31Z</time></trkpt><trkpt lat="59.1021891497" lon="30.4665098805"><ele>299.59</ele><time>2026-08-20T18:49:32Z</time></trkpt><trkpt lat="59.1021891497" lon="30.4665098805"><ele>299.59</ele><time>2026-08-20T18:49:33Z</time></trkpt><trkpt lat="59.1021891497" lon="30.4665098805"><ele>299.59</ele><time>2026-08-20T18:49:34Z</time></trkpt><trkpt lat="59.1021891497" lon="30.4665098805"><ele>299.59</ele><time>2026-08-20T18:49:35Z</time></trkpt><trkpt lat="59.1022060812" lon="30.4665692244"><ele>299.59</ele><time>2026-08-20T18:49:36Z</time></trkpt><trkpt lat="59.1022061650" lon="30.4665803723"><ele>299.59</ele><time>2026-08-20T18:49:37Z</time></trkpt><trkpt lat="59.1022060812" lon="30.4665916879"><ele>299.59</ele><time>2026-08-20T18:49:38Z</time></trkpt><trkpt lat="59.1022070870" lon="30.4665996507"><ele>299.59</ele><time>2026-08-20T18:49:39Z</time></trkpt><trkpt lat="59.1022073384" lon="30.4666055180"><ele>299.59</ele><time>2026-08-20T18:49:40Z</time></trkpt><trkpt lat="59.1022106912" lon="30.4666119721"><ele>299.59</ele><time>2026-08-20T18:49:41Z</time></trkpt><trkpt lat="59.1022125352" lon="30.4666207731"><ele>299.59</ele><time>2026-08-20T18:49:42Z</time></trkpt><trkpt lat="59.1022125352" lon="30.4666207731"><ele>299.59</ele><time>2026-08-20T18:49:43Z</time></trkpt><trkpt lat="59.1022125352" lon="30.4666207731"><ele>299.59</ele><time>2026-08-20T18:49:44Z</time></trkpt><trkpt lat="59.1022125352" lon="30.4666207731"><ele>299.59</ele><time>2026-08-20T18:49:45Z</time></trkpt><trkpt lat="59.1022125352" lon="30.4666207731"><ele>299.59</ele><time>2026-08-20T18:49:46Z</time></trkpt><trkpt lat="59.1022125352" lon="30.4666207731"><ele>299.59</ele><time>2026-08-20T18:49:47Z</time></trkpt><trkpt lat="59.1022125352" lon="30.4666207731"><ele>299.59</ele><time>2026-08-20T18:49:48Z</time></trkpt><trkpt lat="59.1022189893" lon="30.4666512832"><ele>299.59</ele><time>2026-08-20T18:49:49Z</time></trkpt><trkpt lat="59.1022180673" lon="30.4666596651"><ele>299.59</ele><time>2026-08-20T18:49:50Z</time></trkpt><trkpt lat="59.1022188216" lon="30.4666694719"><ele>299.59</ele><time>2026-08-20T18:49:51Z</time></trkpt><trkpt lat="59.1022186540" lon="30.4666783568"><ele>299.59</ele><time>2026-08-20T18:49:52Z</time></trkpt><trkpt lat="59.1022194922" lon="30.4666850623"><ele>299.59</ele><time>2026-08-20T18:49:53Z</time></trkpt><trkpt lat="59.1022208333" lon="30.4666931927"><ele>299.59</ele><time>2026-08-20T18:49:54Z</time></trkpt><trkpt lat="59.1022215877" lon="30.4666986410"><ele>299.59</ele><time>2026-08-20T18:49:55Z</time></trkpt><trkpt lat="59.1022228450" lon="30.4667054303"><ele>299.59</ele><time>2026-08-20T18:49:56Z</time></trkpt><trkpt lat="59.1022253595" lon="30.4667206854"><ele>299.59</ele><time>2026-08-20T18:49:57Z</time></trkpt><trkpt lat="59.1022309754" lon="30.4667303246"><ele>299.59</ele><time>2026-08-20T18:49:58Z</time></trkpt><trkpt lat="59.1022327356" lon="30.4667409696"><ele>299.59</ele><time>2026-08-20T18:49:59Z</time></trkpt><trkpt lat="59.1022308916" lon="30.4667517822"><ele>299.59</ele><time>2026-08-20T18:50:00Z</time></trkpt><trkpt lat="59.1022286285" lon="30.4667602479"><ele>299.59</ele><time>2026-08-20T18:50:01Z</time></trkpt><trkpt lat="59.1022288799" lon="30.4667675402"><ele>299.59</ele><time>2026-08-20T18:50:02Z</time></trkpt><trkpt lat="59.1022283770" lon="30.4667740781"><ele>299.59</ele><time>2026-08-20T18:50:03Z</time></trkpt><trkpt lat="59.1022261977" lon="30.4667805322"><ele>299.59</ele><time>2026-08-20T18:50:04Z</time></trkpt><trkpt lat="59.1022249404" lon="30.4667877406"><ele>299.59</ele><time>2026-08-20T18:50:05Z</time></trkpt><trkpt lat="59.1022226773" lon="30.4667946976"><ele>299.59</ele><time>2026-08-20T18:50:06Z</time></trkpt><trkpt lat="59.1022226773" lon="30.4667946976"><ele>299.59</ele><time>2026-08-20T18:50:07Z</time></trkpt><trkpt lat="59.1022226773" lon="30.4667946976"><ele>299.59</ele><time>2026-08-20T18:50:08Z</time></trkpt><trkpt lat="59.1022226773" lon="30.4667946976"><ele>299.59</ele><time>2026-08-20T18:50:09Z</time></trkpt><trkpt lat="59.1022226773" lon="30.4667946976"><ele>299.11</ele><time>2026-08-20T18:50:10Z</time></trkpt><trkpt lat="59.1022226773" lon="30.4667946976"><ele>299.11</ele><time>2026-08-20T18:50:11Z</time></trkpt><trkpt lat="59.1022226773" lon="30.4667946976"><ele>299.11</ele><time>2026-08-20T18:50:12Z</time></trkpt><trkpt lat="59.1022226773" lon="30.4667946976"><ele>299.11</ele><time>2026-08-20T18:50:13Z</time></trkpt><trkpt lat="59.1022226773" lon="30.4667946976"><ele>299.11</ele><time>2026-08-20T18:50:14Z</time></trkpt><trkpt lat="59.1022226773" lon="30.4667946976"><ele>299.11</ele><time>2026-08-20T18:50:15Z</time></trkpt><trkpt lat="59.1022226773" lon="30.4667946976"><ele>299.11</ele><time>2026-08-20T18:50:16Z</time></trkpt><trkpt lat="59.1022226773" lon="30.4667946976"><ele>299.11</ele><time>2026-08-20T18:50:17Z</time></trkpt><trkpt lat="59.1022226773" lon="30.4667946976"><ele>299.11</ele><time>2026-08-20T18:50:18Z</time></trkpt><trkpt lat="59.1022226773" lon="30.4667946976"><ele>299.11</ele><time>2026-08-20T18:50:19Z</time></trkpt><trkpt lat="59.1022226773" lon="30.4667946976"><ele>299.11</ele><time>2026-08-20T18:50:20Z</time></trkpt><trkpt lat="59.1022226773" lon="30.4667946976"><ele>299.11</ele><time>2026-08-20T18:50:21Z</time></trkpt><trkpt lat="59.1022226773" lon="30.4667946976"><ele>299.11</ele><time>2026-08-20T18:50:22Z</time></trkpt><trkpt lat="59.1022226773" lon="30.4667946976"><ele>299.11</ele><time>2026-08-20T18:50:23Z</time></trkpt><trkpt lat="59.1022226773" lon="30.4667946976"><ele>299.11</ele><time>2026-08-20T18:50:24Z</time></trkpt><trkpt lat="59.1022226773" lon="30.4667946976"><ele>299.11</ele><time>2026-08-20T18:50:25Z</time></trkpt><trkpt lat="59.1022226773" lon="30.4667946976"><ele>299.11</ele><time>2026-08-20T18:50:26Z</time></trkpt><trkpt lat="59.1022226773" lon="30.4667946976"><ele>299.11</ele><time>2026-08-20T18:50:27Z</time></trkpt><trkpt lat="59.1022226773" lon="30.4667946976"><ele>299.11</ele><time>2026-08-20T18:50:28Z</time></trkpt><trkpt lat="59.1022226773" lon="30.4667946976"><ele>299.11</ele><time>2026-08-20T18:50:29Z</time></trkpt><trkpt lat="59.1022226773" lon="30.4667946976"><ele>299.11</ele><time>2026-08-20T18:50:30Z</time></trkpt><trkpt lat="59.1022226773" lon="30.4667946976"><ele>299.11</ele><time>2026-08-20T18:50:31Z</time></trkpt><trkpt lat="59.1022226773" lon="30.4667946976"><ele>299.11</ele><time>2026-08-20T18:50:32Z</time></trkpt><trkpt lat="59.1022226773" lon="30.4667946976"><ele>299.59</ele><time>2026-08-20T18:50:33Z</time></trkpt><trkpt lat="59.1022226773" lon="30.4667946976"><ele>299.59</ele><time>2026-08-20T18:50:34Z</time></trkpt><trkpt lat="59.1022226773" lon="30.4667946976"><ele>299.59</ele><time>2026-08-20T18:50:35Z</time></trkpt><trkpt lat="59.1022226773" lon="30.4667946976"><ele>299.59</ele><time>2026-08-20T18:50:36Z</time></trkpt><trkpt lat="59.1022226773" lon="30.4667946976"><ele>299.59</ele><time>2026-08-20T18:50:37Z</time></trkpt><trkpt lat="59.1022226773" lon="30.4667946976"><ele>299.59</ele><time>2026-08-20T18:50:38Z</time></trkpt><trkpt lat="59.1022226773" lon="30.4667946976"><ele>299.11</ele><time>2026-08-20T18:50:39Z</time></trkpt><trkpt lat="59.1022226773" lon="30.4667946976"><ele>299.11</ele><time>2026-08-20T18:50:40Z</time></trkpt><trkpt lat="59.1022226773" lon="30.4667946976"><ele>299.11</ele><time>2026-08-20T18:50:41Z</time></trkpt><trkpt lat="59.1022226773" lon="30.4667946976"><ele>299.11</ele><time>2026-08-20T18:50:42Z</time></trkpt><trkpt lat="59.1022226773" lon="30.4667946976"><ele>299.11</ele><time>2026-08-20T18:50:43Z</time></trkpt><trkpt lat="59.1022226773" lon="30.4667946976"><ele>299.11</ele><time>2026-08-20T18:50:44Z</time></trkpt><trkpt lat="59.1022226773" lon="30.4667946976"><ele>299.11</ele><time>2026-08-20T18:50:45Z</time></trkpt><trkpt lat="59.1022226773" lon="30.4667946976"><ele>299.59</ele><time>2026-08-20T18:50:46Z</time></trkpt><trkpt lat="59.1022226773" lon="30.4667946976"><ele>299.59</ele><time>2026-08-20T18:50:47Z</time></trkpt><trkpt lat="59.1022226773" lon="30.4667946976"><ele>299.59</ele><time>2026-08-20T18:50:48Z</time></trkpt><trkpt lat="59.1022226773" lon="30.4667946976"><ele>299.59</ele><time>2026-08-20T18:50:49Z</time></trkpt><trkpt lat="59.1022226773" lon="30.4667946976"><ele>299.11</ele><time>2026-08-20T18:50:50Z</time></trkpt><trkpt lat="59.1022226773" lon="30.4667946976"><ele>299.11</ele><time>2026-08-20T18:50:51Z</time></trkpt><trkpt lat="59.1022226773" lon="30.4667946976"><ele>299.11</ele><time>2026-08-20T18:50:52Z</time></trkpt><trkpt lat="59.1022226773" lon="30.4667946976"><ele>299.11</ele><time>2026-08-20T18:50:53Z</time></trkpt><trkpt lat="59.1022226773" lon="30.4667946976"><ele>299.11</ele><time>2026-08-20T18:50:54Z</time></trkpt><trkpt lat="59.1022226773" lon="30.4667946976"><ele>299.11</ele><time>2026-08-20T18:50:55Z</time></trkpt><trkpt lat="59.1022226773" lon="30.4667946976"><ele>299.11</ele><time>2026-08-20T18:50:56Z</time></trkpt><trkpt lat="59.1022226773" lon="30.4667946976"><ele>299.11</ele><time>2026-08-20T18:50:57Z</time></trkpt><trkpt lat="59.1022226773" lon="30.4667946976"><ele>299.11</ele><time>2026-08-20T18:50:58Z</time></trkpt><trkpt lat="59.1022226773" lon="30.4667946976"><ele>299.11</ele><time>2026-08-20T18:50:59Z</time></trkpt><trkpt lat="59.1022226773" lon="30.4667946976"><ele>299.11</ele><time>2026-08-20T18:51:00Z</time></trkpt><trkpt lat="59.1022226773" lon="30.4667946976"><ele>299.11</ele><time>2026-08-20T18:51:01Z</time></trkpt><trkpt lat="59.1022226773" lon="30.4667946976"><ele>299.11</ele><time>2026-08-20T18:51:02Z</time></trkpt><trkpt lat="59.1022226773" lon="30.4667946976"><ele>299.11</ele><time>2026-08-20T18:51:03Z</time></trkpt><trkpt lat="59.1022226773" lon="30.4667946976"><ele>299.11</ele><time>2026-08-20T18:51:04Z</time></trkpt><trkpt lat="59.1022226773" lon="30.4667946976"><ele>299.11</ele><time>2026-08-20T18:51:05Z</time></trkpt><trkpt lat="59.1022226773" lon="30.4667946976"><ele>299.11</ele><time>2026-08-20T18:51:06Z</time></trkpt><trkpt lat="59.1022226773" lon="30.4667946976"><ele>299.11</ele><time>2026-08-20T18:51:07Z</time></trkpt><trkpt lat="59.1022226773" lon="30.4667946976"><ele>299.11</ele><time>2026-08-20T18:51:08Z</time></trkpt><trkpt lat="59.1022226773" lon="30.4667946976"><ele>299.11</ele><time>2026-08-20T18:51:09Z</time></trkpt><trkpt lat="59.1022226773" lon="30.4667946976"><ele>299.11</ele><time>2026-08-20T18:51:10Z</time></trkpt><trkpt lat="59.1022226773" lon="30.4667946976"><ele>299.11</ele><time>2026-08-20T18:51:11Z</time></trkpt><trkpt lat="59.1022226773" lon="30.4667946976"><ele>299.11</ele><time>2026-08-20T18:51:12Z</time></trkpt><trkpt lat="59.1022226773" lon="30.4667946976"><ele>299.11</ele><time>2026-08-20T18:51:13Z</time></trkpt><trkpt lat="59.1022226773" lon="30.4667946976"><ele>299.11</ele><time>2026-08-20T18:51:14Z</time></trkpt><trkpt lat="59.1022226773" lon="30.4667946976"><ele>299.11</ele><time>2026-08-20T18:51:15Z</time></trkpt><trkpt lat="59.1022226773" lon="30.4667946976"><ele>299.11</ele><time>2026-08-20T18:51:16Z</time></trkpt><trkpt lat="59.1022226773" lon="30.4667946976"><ele>299.11</ele><time>2026-08-20T18:51:17Z</time></trkpt><trkpt lat="59.1022226773" lon="30.4667946976"><ele>299.11</ele><time>2026-08-20T18:51:18Z</time></trkpt><trkpt lat="59.1022226773" lon="30.4667946976"><ele>299.11</ele><time>2026-08-20T18:51:19Z</time></trkpt><trkpt lat="59.1022226773" lon="30.4667946976"><ele>299.11</ele><time>2026-08-20T18:51:20Z</time></trkpt><trkpt lat="59.1022226773" lon="30.4667946976"><ele>299.11</ele><time>2026-08-20T18:51:21Z</time></trkpt><trkpt lat="59.1022226773" lon="30.4667946976"><ele>299.11</ele><time>2026-08-20T18:51:22Z</time></trkpt><trkpt lat="59.1022226773" lon="30.4667946976"><ele>299.11</ele><time>2026-08-20T18:51:23Z</time></trkpt><trkpt lat="59.1022226773" lon="30.4667946976"><ele>299.11</ele><time>2026-08-20T18:51:24Z</time></trkpt><trkpt lat="59.1022226773" lon="30.4667946976"><ele>299.11</ele><time>2026-08-20T18:51:25Z</time></trkpt><trkpt lat="59.1022226773" lon="30.4667946976"><ele>299.11</ele><time>2026-08-20T18:51:26Z</time></trkpt><trkpt lat="59.1022226773" lon="30.4667946976"><ele>299.11</ele><time>2026-08-20T18:51:27Z</time></trkpt><trkpt lat="59.1022226773" lon="30.4667946976"><ele>299.59</ele><time>2026-08-20T18:51:28Z</time></trkpt><trkpt lat="59.1022226773" lon="30.4667946976"><ele>299.59</ele><time>2026-08-20T18:51:29Z</time></trkpt><trkpt lat="59.1022226773" lon="30.4667946976"><ele>299.59</ele><time>2026-08-20T18:51:30Z</time></trkpt><trkpt lat="59.1022226773" lon="30.4667946976"><ele>299.59</ele><time>2026-08-20T18:51:31Z</time></trkpt><trkpt lat="59.1022226773" lon="30.4667946976"><ele>299.59</ele><time>2026-08-20T18:51:32Z</time></trkpt><trkpt lat="59.1022226773" lon="30.4667946976"><ele>299.59</ele><time>2026-08-20T18:51:33Z</time></trkpt><trkpt lat="59.1022226773" lon="30.4667946976"><ele>299.59</ele><time>2026-08-20T18:51:34Z</time></trkpt><trkpt lat="59.1022226773" lon="30.4667946976"><ele>299.59</ele><time>2026-08-20T18:51:35Z</time></trkpt><trkpt lat="59.1022226773" lon="30.4667946976"><ele>299.59</ele><time>2026-08-20T18:51:36Z</time></trkpt><trkpt lat="59.1021997947" lon="30.4668737389"><ele>299.59</ele><time>2026-08-20T18:51:37Z</time></trkpt><trkpt lat="59.1021955200" lon="30.4668783490"><ele>299.59</ele><time>2026-08-20T18:51:38Z</time></trkpt><trkpt lat="59.1021932568" lon="30.4668830428"><ele>299.59</ele><time>2026-08-20T18:51:39Z</time></trkpt><trkpt lat="59.1021906585" lon="30.4668823723"><ele>299.59</ele><time>2026-08-20T18:51:40Z</time></trkpt><trkpt lat="59.1021868866" lon="30.4668791872"><ele>299.59</ele><time>2026-08-20T18:51:41Z</time></trkpt><trkpt lat="59.1021826956" lon="30.4668813664"><ele>299.59</ele><time>2026-08-20T18:51:42Z</time></trkpt><trkpt lat="59.1021815222" lon="30.4668851383"><ele>299.59</ele><time>2026-08-20T18:51:43Z</time></trkpt><trkpt lat="59.1021762416" lon="30.4668917600"><ele>299.59</ele><time>2026-08-20T18:51:44Z</time></trkpt><trkpt lat="59.1021714639" lon="30.4668955319"><ele>299.59</ele><time>2026-08-20T18:51:45Z</time></trkpt><trkpt lat="59.1021679435" lon="30.4668989684"><ele>299.59</ele><time>2026-08-20T18:51:46Z</time></trkpt><trkpt lat="59.1021618247" lon="30.4669008963"><ele>299.59</ele><time>2026-08-20T18:51:47Z</time></trkpt><trkpt lat="59.1021582205" lon="30.4669027403"><ele>299.59</ele><time>2026-08-20T18:51:48Z</time></trkpt><trkpt lat="59.1021542810" lon="30.4669024888"><ele>299.59</ele><time>2026-08-20T18:51:49Z</time></trkpt><trkpt lat="59.1021486651" lon="30.4669028241"><ele>299.59</ele><time>2026-08-20T18:51:50Z</time></trkpt><trkpt lat="59.1021422949" lon="30.4669040814"><ele>299.59</ele><time>2026-08-20T18:51:51Z</time></trkpt><trkpt lat="59.1021369305" lon="30.4669012316"><ele>299.59</ele><time>2026-08-20T18:51:52Z</time></trkpt><trkpt lat="59.1021344997" lon="30.4668948613"><ele>299.59</ele><time>2026-08-20T18:51:53Z</time></trkpt><trkpt lat="59.1021293867" lon="30.4668938555"><ele>299.59</ele><time>2026-08-20T18:51:54Z</time></trkpt><trkpt lat="59.1021244414" lon="30.4668967891"><ele>299.59</ele><time>2026-08-20T18:51:55Z</time></trkpt><trkpt lat="59.1021182388" lon="30.4668889940"><ele>299.59</ele><time>2026-08-20T18:51:56Z</time></trkpt><trkpt lat="59.1021134611" lon="30.4668847192"><ele>299.59</ele><time>2026-08-20T18:51:57Z</time></trkpt><trkpt lat="59.1021082643" lon="30.4668833781"><ele>299.59</ele><time>2026-08-20T18:51:58Z</time></trkpt><trkpt lat="59.1021011397" lon="30.4668851383"><ele>299.59</ele><time>2026-08-20T18:51:59Z</time></trkpt><trkpt lat="59.1020961944" lon="30.4668916762"><ele>299.59</ele><time>2026-08-20T18:52:00Z</time></trkpt><trkpt lat="59.1020942666" lon="30.4669007286"><ele>299.59</ele><time>2026-08-20T18:52:01Z</time></trkpt><trkpt lat="59.1020935960" lon="30.4669116251"><ele>299.59</ele><time>2026-08-20T18:52:02Z</time></trkpt><trkpt lat="59.1020929255" lon="30.4669204261"><ele>299.59</ele><time>2026-08-20T18:52:03Z</time></trkpt><trkpt lat="59.1020957753" lon="30.4669308197"><ele>299.59</ele><time>2026-08-20T18:52:04Z</time></trkpt><trkpt lat="59.1020962782" lon="30.4669416323"><ele>299.59</ele><time>2026-08-20T18:52:05Z</time></trkpt><trkpt lat="59.1020946857" lon="30.4669490922"><ele>299.59</ele><time>2026-08-20T18:52:06Z</time></trkpt><trkpt lat="59.1020949371" lon="30.4669569712"><ele>299.59</ele><time>2026-08-20T18:52:07Z</time></trkpt><trkpt lat="59.1020961944" lon="30.4669657722"><ele>299.59</ele><time>2026-08-20T18:52:08Z</time></trkpt><trkpt lat="59.1020944342" lon="30.4669771716"><ele>299.59</ele><time>2026-08-20T18:52:09Z</time></trkpt><trkpt lat="59.1020944342" lon="30.4669771716"><ele>299.59</ele><time>2026-08-20T18:52:10Z</time></trkpt><trkpt lat="59.1020937636" lon="30.4670095257"><ele>299.59</ele><time>2026-08-20T18:52:11Z</time></trkpt><trkpt lat="59.1020949371" lon="30.4670281336"><ele>299.59</ele><time>2026-08-20T18:52:12Z</time></trkpt><trkpt lat="59.1020951886" lon="30.4670420475"><ele>299.59</ele><time>2026-08-20T18:52:13Z</time></trkpt><trkpt lat="59.1020965297" lon="30.4670534469"><ele>299.59</ele><time>2026-08-20T18:52:14Z</time></trkpt><trkpt lat="59.1021020617" lon="30.4670621641"><ele>299.59</ele><time>2026-08-20T18:52:15Z</time></trkpt><trkpt lat="59.1021079291" lon="30.4670752399"><ele>299.59</ele><time>2026-08-20T18:52:16Z</time></trkpt><trkpt lat="59.1021093540" lon="30.4670868907"><ele>299.59</ele><time>2026-08-20T18:52:17Z</time></trkpt><trkpt lat="59.1021157242" lon="30.4671004694"><ele>299.59</ele><time>2026-08-20T18:52:18Z</time></trkpt><trkpt lat="59.1021212563" lon="30.4671041574"><ele>299.59</ele><time>2026-08-20T18:52:19Z</time></trkpt><trkpt lat="59.1021260340" lon="30.4671130423"><ele>299.59</ele><time>2026-08-20T18:52:20Z</time></trkpt><trkpt lat="59.1021331586" lon="30.4671161436"><ele>299.59</ele><time>2026-08-20T18:52:21Z</time></trkpt><trkpt lat="59.1021352541" lon="30.4671219271"><ele>299.59</ele><time>2026-08-20T18:52:22Z</time></trkpt><trkpt lat="59.1021429654" lon="30.4671256989"><ele>299.59</ele><time>2026-08-20T18:52:23Z</time></trkpt><trkpt lat="59.1021493357" lon="30.4671351705"><ele>299.59</ele><time>2026-08-20T18:52:24Z</time></trkpt><trkpt lat="59.1021558736" lon="30.4671407863"><ele>299.59</ele><time>2026-08-20T18:52:25Z</time></trkpt><trkpt lat="59.1021565441" lon="30.4671396967"><ele>299.59</ele><time>2026-08-20T18:52:26Z</time></trkpt><trkpt lat="59.1021570470" lon="30.4671401996"><ele>299.59</ele><time>2026-08-20T18:52:27Z</time></trkpt><trkpt lat="59.1021524370" lon="30.4671455640"><ele>299.59</ele><time>2026-08-20T18:52:28Z</time></trkpt><trkpt lat="59.1021524370" lon="30.4671455640"><ele>299.59</ele><time>2026-08-20T18:52:29Z</time></trkpt><trkpt lat="59.1021524370" lon="30.4671455640"><ele>299.59</ele><time>2026-08-20T18:52:30Z</time></trkpt><trkpt lat="59.1021475755" lon="30.4671532754"><ele>299.59</ele><time>2026-08-20T18:52:31Z</time></trkpt><trkpt lat="59.1021425463" lon="30.4671627469"><ele>299.59</ele><time>2026-08-20T18:52:32Z</time></trkpt><trkpt lat="59.1021406185" lon="30.4671737272"><ele>299.59</ele><time>2026-08-20T18:52:33Z</time></trkpt><trkpt lat="59.1021382716" lon="30.4671916645"><ele>299.59</ele><time>2026-08-20T18:52:34Z</time></trkpt><trkpt lat="59.1021388583" lon="30.4672062490"><ele>299.59</ele><time>2026-08-20T18:52:35Z</time></trkpt><trkpt lat="59.1021406185" lon="30.4672189895"><ele>299.59</ele><time>2026-08-20T18:52:36Z</time></trkpt><trkpt lat="59.1021410376" lon="30.4672287963"><ele>299.59</ele><time>2026-08-20T18:52:37Z</time></trkpt><trkpt lat="59.1021423787" lon="30.4672409501"><ele>299.59</ele><time>2026-08-20T18:52:38Z</time></trkpt><trkpt lat="59.1021443903" lon="30.4672518466"><ele>300.07</ele><time>2026-08-20T18:52:39Z</time></trkpt><trkpt lat="59.1021457314" lon="30.4672631621"><ele>300.07</ele><time>2026-08-20T18:52:40Z</time></trkpt><trkpt lat="59.1021472402" lon="30.4672753997"><ele>299.59</ele><time>2026-08-20T18:52:41Z</time></trkpt><trkpt lat="59.1021435522" lon="30.4672889784"><ele>299.59</ele><time>2026-08-20T18:52:42Z</time></trkpt><trkpt lat="59.1021479946" lon="30.4672992881"><ele>299.59</ele><time>2026-08-20T18:52:43Z</time></trkpt><trkpt lat="59.1021496709" lon="30.4673056584"><ele>299.59</ele><time>2026-08-20T18:52:44Z</time></trkpt><trkpt lat="59.1021473240" lon="30.4673148785"><ele>299.59</ele><time>2026-08-20T18:52:45Z</time></trkpt><trkpt lat="59.1021471564" lon="30.4673181474"><ele>299.59</ele><time>2026-08-20T18:52:46Z</time></trkpt><trkpt lat="59.1021459829" lon="30.4673205782"><ele>299.59</ele><time>2026-08-20T18:52:47Z</time></trkpt><trkpt lat="59.1021459829" lon="30.4673205782"><ele>299.59</ele><time>2026-08-20T18:52:48Z</time></trkpt><trkpt lat="59.1021459829" lon="30.4673205782"><ele>299.59</ele><time>2026-08-20T18:52:49Z</time></trkpt><trkpt lat="59.1021459829" lon="30.4673205782"><ele>299.59</ele><time>2026-08-20T18:52:50Z</time></trkpt><trkpt lat="59.1021358408" lon="30.4673292954"><ele>299.59</ele><time>2026-08-20T18:52:51Z</time></trkpt><trkpt lat="59.1021314822" lon="30.4673359171"><ele>299.59</ele><time>2026-08-20T18:52:52Z</time></trkpt><trkpt lat="59.1021290515" lon="30.4673415329"><ele>299.59</ele><time>2026-08-20T18:52:53Z</time></trkpt><trkpt lat="59.1021280456" lon="30.4673502501"><ele>299.59</ele><time>2026-08-20T18:52:54Z</time></trkpt><trkpt lat="59.1021255311" lon="30.4673595540"><ele>299.59</ele><time>2026-08-20T18:52:55Z</time></trkpt><trkpt lat="59.1021245252" lon="30.4673687741"><ele>299.59</ele><time>2026-08-20T18:52:56Z</time></trkpt><trkpt lat="59.1021226812" lon="30.4673777428"><ele>300.07</ele><time>2026-08-20T18:52:57Z</time></trkpt><trkpt lat="59.1021260340" lon="30.4673874658"><ele>300.07</ele><time>2026-08-20T18:52:58Z</time></trkpt><trkpt lat="59.1021285485" lon="30.4673970211"><ele>300.07</ele><time>2026-08-20T18:52:59Z</time></trkpt><trkpt lat="59.1021332424" lon="30.4674039781"><ele>300.07</ele><time>2026-08-20T18:53:00Z</time></trkpt><trkpt lat="59.1021424625" lon="30.4674081691"><ele>300.07</ele><time>2026-08-20T18:53:01Z</time></trkpt><trkpt lat="59.1021464858" lon="30.4674164671"><ele>300.07</ele><time>2026-08-20T18:53:02Z</time></trkpt><trkpt lat="59.1021458991" lon="30.4674226698"><ele>300.07</ele><time>2026-08-20T18:53:03Z</time></trkpt><trkpt lat="59.1021473240" lon="30.4674382601"><ele>300.07</ele><time>2026-08-20T18:53:04Z</time></trkpt><trkpt lat="59.1021504253" lon="30.4674486537"><ele>300.07</ele><time>2026-08-20T18:53:05Z</time></trkpt><trkpt lat="59.1021519341" lon="30.4674562812"><ele>300.07</ele><time>2026-08-20T18:53:06Z</time></trkpt><trkpt lat="59.1021557897" lon="30.4674663395"><ele>300.07</ele><time>2026-08-20T18:53:07Z</time></trkpt><trkpt lat="59.1021568794" lon="30.4674733803"><ele>300.07</ele><time>2026-08-20T18:53:08Z</time></trkpt><trkpt lat="59.1021573823" lon="30.4674820974"><ele>300.07</ele><time>2026-08-20T18:53:09Z</time></trkpt><trkpt lat="59.1021591425" lon="30.4674908984"><ele>300.07</ele><time>2026-08-20T18:53:10Z</time></trkpt><trkpt lat="59.1021627467" lon="30.4674954247"><ele>300.07</ele><time>2026-08-20T18:53:11Z</time></trkpt><trkpt lat="59.1021673568" lon="30.4675001185"><ele>300.07</ele><time>2026-08-20T18:53:12Z</time></trkpt><trkpt lat="59.1021744814" lon="30.4675080813"><ele>300.07</ele><time>2026-08-20T18:53:13Z</time></trkpt><trkpt lat="59.1021794267" lon="30.4675087519"><ele>300.07</ele><time>2026-08-20T18:53:14Z</time></trkpt><trkpt lat="59.1021819413" lon="30.4675102606"><ele>300.07</ele><time>2026-08-20T18:53:15Z</time></trkpt><trkpt lat="59.1021831986" lon="30.4675110988"><ele>300.07</ele><time>2026-08-20T18:53:16Z</time></trkpt><trkpt lat="59.1021842882" lon="30.4675140325"><ele>300.07</ele><time>2026-08-20T18:53:17Z</time></trkpt><trkpt lat="59.1021842882" lon="30.4675140325"><ele>300.07</ele><time>2026-08-20T18:53:18Z</time></trkpt><trkpt lat="59.1021842882" lon="30.4675140325"><ele>300.07</ele><time>2026-08-20T18:53:19Z</time></trkpt><trkpt lat="59.1021881439" lon="30.4675185587"><ele>300.07</ele><time>2026-08-20T18:53:20Z</time></trkpt><trkpt lat="59.1021908261" lon="30.4675233364"><ele>300.07</ele><time>2026-08-20T18:53:21Z</time></trkpt><trkpt lat="59.1021936759" lon="30.4675268568"><ele>300.07</ele><time>2026-08-20T18:53:22Z</time></trkpt><trkpt lat="59.1021964420" lon="30.4675306287"><ele>300.07</ele><time>2026-08-20T18:53:23Z</time></trkpt><trkpt lat="59.1021990404" lon="30.4675347358"><ele>300.07</ele><time>2026-08-20T18:53:24Z</time></trkpt><trkpt lat="59.1022020578" lon="30.4675392620"><ele>300.07</ele><time>2026-08-20T18:53:25Z</time></trkpt><trkpt lat="59.1022020578" lon="30.4675392620"><ele>300.07</ele><time>2026-08-20T18:53:26Z</time></trkpt><trkpt lat="59.1022020578" lon="30.4675392620"><ele>299.59</ele><time>2026-08-20T18:53:27Z</time></trkpt><trkpt lat="59.1022020578" lon="30.4675392620"><ele>299.59</ele><time>2026-08-20T18:53:28Z</time></trkpt><trkpt lat="59.1022020578" lon="30.4675392620"><ele>299.59</ele><time>2026-08-20T18:53:29Z</time></trkpt><trkpt lat="59.1022020578" lon="30.4675392620"><ele>299.59</ele><time>2026-08-20T18:53:30Z</time></trkpt><trkpt lat="59.1022020578" lon="30.4675392620"><ele>299.59</ele><time>2026-08-20T18:53:31Z</time></trkpt><trkpt lat="59.1022020578" lon="30.4675392620"><ele>299.59</ele><time>2026-08-20T18:53:32Z</time></trkpt><trkpt lat="59.1022020578" lon="30.4675392620"><ele>299.59</ele><time>2026-08-20T18:53:33Z</time></trkpt><trkpt lat="59.1022020578" lon="30.4675392620"><ele>299.59</ele><time>2026-08-20T18:53:34Z</time></trkpt><trkpt lat="59.1022020578" lon="30.4675392620"><ele>299.59</ele><time>2026-08-20T18:53:35Z</time></trkpt><trkpt lat="59.1022020578" lon="30.4675392620"><ele>299.59</ele><time>2026-08-20T18:53:36Z</time></trkpt><trkpt lat="59.1022020578" lon="30.4675392620"><ele>299.59</ele><time>2026-08-20T18:53:37Z</time></trkpt><trkpt lat="59.1022020578" lon="30.4675392620"><ele>299.59</ele><time>2026-08-20T18:53:38Z</time></trkpt><trkpt lat="59.1022020578" lon="30.4675392620"><ele>299.59</ele><time>2026-08-20T18:53:39Z</time></trkpt><trkpt lat="59.1022180673" lon="30.4675495718"><ele>299.59</ele><time>2026-08-20T18:53:40Z</time></trkpt><trkpt lat="59.1022155527" lon="30.4675495718"><ele>299.59</ele><time>2026-08-20T18:53:41Z</time></trkpt><trkpt lat="59.1022152174" lon="30.4675498232"><ele>299.59</ele><time>2026-08-20T18:53:42Z</time></trkpt><trkpt lat="59.1022137925" lon="30.4675507452"><ele>299.59</ele><time>2026-08-20T18:53:43Z</time></trkpt><trkpt lat="59.1022137925" lon="30.4675507452"><ele>299.59</ele><time>2026-08-20T18:53:44Z</time></trkpt><trkpt lat="59.1022137925" lon="30.4675507452"><ele>299.59</ele><time>2026-08-20T18:53:45Z</time></trkpt><trkpt lat="59.1022137925" lon="30.4675507452"><ele>299.59</ele><time>2026-08-20T18:53:46Z</time></trkpt><trkpt lat="59.1022137925" lon="30.4675507452"><ele>299.59</ele><time>2026-08-20T18:53:47Z</time></trkpt><trkpt lat="59.1022137925" lon="30.4675507452"><ele>299.59</ele><time>2026-08-20T18:53:48Z</time></trkpt><trkpt lat="59.1022137925" lon="30.4675507452"><ele>299.59</ele><time>2026-08-20T18:53:49Z</time></trkpt><trkpt lat="59.1022137925" lon="30.4675507452"><ele>299.59</ele><time>2026-08-20T18:53:50Z</time></trkpt><trkpt lat="59.1022137925" lon="30.4675507452"><ele>299.59</ele><time>2026-08-20T18:53:51Z</time></trkpt><trkpt lat="59.1022137925" lon="30.4675507452"><ele>299.59</ele><time>2026-08-20T18:53:52Z</time></trkpt><trkpt lat="59.1022137925" lon="30.4675507452"><ele>299.59</ele><time>2026-08-20T18:53:53Z</time></trkpt><trkpt lat="59.1022137925" lon="30.4675507452"><ele>299.59</ele><time>2026-08-20T18:53:54Z</time></trkpt><trkpt lat="59.1022137925" lon="30.4675507452"><ele>299.59</ele><time>2026-08-20T18:53:55Z</time></trkpt><trkpt lat="59.1022137925" lon="30.4675507452"><ele>299.59</ele><time>2026-08-20T18:53:56Z</time></trkpt><trkpt lat="59.1022137925" lon="30.4675507452"><ele>299.59</ele><time>2026-08-20T18:53:57Z</time></trkpt><trkpt lat="59.1022137925" lon="30.4675507452"><ele>299.59</ele><time>2026-08-20T18:53:58Z</time></trkpt><trkpt lat="59.1022137925" lon="30.4675507452"><ele>299.59</ele><time>2026-08-20T18:53:59Z</time></trkpt><trkpt lat="59.1022137925" lon="30.4675507452"><ele>299.59</ele><time>2026-08-20T18:54:00Z</time></trkpt><trkpt lat="59.1022137925" lon="30.4675507452"><ele>299.59</ele><time>2026-08-20T18:54:01Z</time></trkpt><trkpt lat="59.1022137925" lon="30.4675507452"><ele>299.59</ele><time>2026-08-20T18:54:02Z</time></trkpt><trkpt lat="59.1022137925" lon="30.4675507452"><ele>299.59</ele><time>2026-08-20T18:54:03Z</time></trkpt><trkpt lat="59.1022137925" lon="30.4675507452"><ele>299.59</ele><time>2026-08-20T18:54:04Z</time></trkpt><trkpt lat="59.1022137925" lon="30.4675507452"><ele>299.59</ele><time>2026-08-20T18:54:05Z</time></trkpt><trkpt lat="59.1022137925" lon="30.4675507452"><ele>299.59</ele><time>2026-08-20T18:54:06Z</time></trkpt><trkpt lat="59.1022137925" lon="30.4675507452"><ele>299.59</ele><time>2026-08-20T18:54:07Z</time></trkpt><trkpt lat="59.1022137925" lon="30.4675507452"><ele>299.59</ele><time>2026-08-20T18:54:08Z</time></trkpt><trkpt lat="59.1022137925" lon="30.4675507452"><ele>299.59</ele><time>2026-08-20T18:54:09Z</time></trkpt><trkpt lat="59.1022137925" lon="30.4675507452"><ele>299.59</ele><time>2026-08-20T18:54:10Z</time></trkpt><trkpt lat="59.1022137925" lon="30.4675507452"><ele>299.59</ele><time>2026-08-20T18:54:11Z</time></trkpt><trkpt lat="59.1022137925" lon="30.4675507452"><ele>299.59</ele><time>2026-08-20T18:54:12Z</time></trkpt><trkpt lat="59.1022137925" lon="30.4675507452"><ele>299.59</ele><time>2026-08-20T18:54:13Z</time></trkpt><trkpt lat="59.1022137925" lon="30.4675507452"><ele>299.59</ele><time>2026-08-20T18:54:14Z</time></trkpt><trkpt lat="59.1022137925" lon="30.4675507452"><ele>299.59</ele><time>2026-08-20T18:54:15Z</time></trkpt><trkpt lat="59.1022137925" lon="30.4675507452"><ele>299.59</ele><time>2026-08-20T18:54:16Z</time></trkpt><trkpt lat="59.1022137925" lon="30.4675507452"><ele>299.59</ele><time>2026-08-20T18:54:17Z</time></trkpt><trkpt lat="59.1022137925" lon="30.4675507452"><ele>299.59</ele><time>2026-08-20T18:54:18Z</time></trkpt><trkpt lat="59.1022137925" lon="30.4675507452"><ele>299.59</ele><time>2026-08-20T18:54:19Z</time></trkpt><trkpt lat="59.1022137925" lon="30.4675507452"><ele>299.59</ele><time>2026-08-20T18:54:20Z</time></trkpt><trkpt lat="59.1022137925" lon="30.4675507452"><ele>299.59</ele><time>2026-08-20T18:54:21Z</time></trkpt><trkpt lat="59.1022137925" lon="30.4675507452"><ele>299.59</ele><time>2026-08-20T18:54:22Z</time></trkpt><trkpt lat="59.1022137925" lon="30.4675507452"><ele>299.59</ele><time>2026-08-20T18:54:23Z</time></trkpt><trkpt lat="59.1022137925" lon="30.4675507452"><ele>299.59</ele><time>2026-08-20T18:54:24Z</time></trkpt><trkpt lat="59.1022137925" lon="30.4675507452"><ele>299.59</ele><time>2026-08-20T18:54:25Z</time></trkpt><trkpt lat="59.1022137925" lon="30.4675507452"><ele>299.59</ele><time>2026-08-20T18:54:26Z</time></trkpt><trkpt lat="59.1022137925" lon="30.4675507452"><ele>299.59</ele><time>2026-08-20T18:54:27Z</time></trkpt><trkpt lat="59.1022137925" lon="30.4675507452"><ele>299.59</ele><time>2026-08-20T18:54:28Z</time></trkpt><trkpt lat="59.1022137925" lon="30.4675507452"><ele>299.59</ele><time>2026-08-20T18:54:29Z</time></trkpt><trkpt lat="59.1022137925" lon="30.4675507452"><ele>299.59</ele><time>2026-08-20T18:54:30Z</time></trkpt><trkpt lat="59.1022137925" lon="30.4675507452"><ele>299.59</ele><time>2026-08-20T18:54:31Z</time></trkpt><trkpt lat="59.1022137925" lon="30.4675507452"><ele>299.59</ele><time>2026-08-20T18:54:32Z</time></trkpt><trkpt lat="59.1022137925" lon="30.4675507452"><ele>299.59</ele><time>2026-08-20T18:54:33Z</time></trkpt><trkpt lat="59.1022137925" lon="30.4675507452"><ele>299.59</ele><time>2026-08-20T18:54:34Z</time></trkpt><trkpt lat="59.1022137925" lon="30.4675507452"><ele>299.59</ele><time>2026-08-20T18:54:35Z</time></trkpt><trkpt lat="59.1022137925" lon="30.4675507452"><ele>299.59</ele><time>2026-08-20T18:54:36Z</time></trkpt><trkpt lat="59.1022137925" lon="30.4675507452"><ele>299.59</ele><time>2026-08-20T18:54:37Z</time></trkpt><trkpt lat="59.1022137925" lon="30.4675507452"><ele>299.59</ele><time>2026-08-20T18:54:38Z</time></trkpt><trkpt lat="59.1022137925" lon="30.4675507452"><ele>299.59</ele><time>2026-08-20T18:54:39Z</time></trkpt><trkpt lat="59.1022137925" lon="30.4675507452"><ele>299.59</ele><time>2026-08-20T18:54:40Z</time></trkpt><trkpt lat="59.1022137925" lon="30.4675507452"><ele>299.59</ele><time>2026-08-20T18:54:41Z</time></trkpt><trkpt lat="59.1022137925" lon="30.4675507452"><ele>299.59</ele><time>2026-08-20T18:54:42Z</time></trkpt><trkpt lat="59.1022137925" lon="30.4675507452"><ele>299.59</ele><time>2026-08-20T18:54:43Z</time></trkpt><trkpt lat="59.1022137925" lon="30.4675507452"><ele>299.59</ele><time>2026-08-20T18:54:44Z</time></trkpt><trkpt lat="59.1022137925" lon="30.4675507452"><ele>299.59</ele><time>2026-08-20T18:54:45Z</time></trkpt><trkpt lat="59.1022137925" lon="30.4675507452"><ele>299.59</ele><time>2026-08-20T18:54:46Z</time></trkpt><trkpt lat="59.1022137925" lon="30.4675507452"><ele>299.59</ele><time>2026-08-20T18:54:47Z</time></trkpt><trkpt lat="59.1022137925" lon="30.4675507452"><ele>299.59</ele><time>2026-08-20T18:54:48Z</time></trkpt><trkpt lat="59.1022137925" lon="30.4675507452"><ele>299.59</ele><time>2026-08-20T18:54:49Z</time></trkpt><trkpt lat="59.1022137925" lon="30.4675507452"><ele>299.59</ele><time>2026-08-20T18:54:50Z</time></trkpt><trkpt lat="59.1022249404" lon="30.4675680958"><ele>299.59</ele><time>2026-08-20T18:54:51Z</time></trkpt><trkpt lat="59.1022244375" lon="30.4675697722"><ele>299.59</ele><time>2026-08-20T18:54:52Z</time></trkpt><trkpt lat="59.1022216715" lon="30.4675697722"><ele>299.59</ele><time>2026-08-20T18:54:53Z</time></trkpt><trkpt lat="59.1022227611" lon="30.4675717000"><ele>299.59</ele><time>2026-08-20T18:54:54Z</time></trkpt><trkpt lat="59.1022227611" lon="30.4675717000"><ele>299.59</ele><time>2026-08-20T18:54:55Z</time></trkpt><trkpt lat="59.1022227611" lon="30.4675717000"><ele>299.59</ele><time>2026-08-20T18:54:56Z</time></trkpt><trkpt lat="59.1022227611" lon="30.4675717000"><ele>300.07</ele><time>2026-08-20T18:54:57Z</time></trkpt><trkpt lat="59.1022227611" lon="30.4675717000"><ele>300.07</ele><time>2026-08-20T18:54:58Z</time></trkpt><trkpt lat="59.1022227611" lon="30.4675717000"><ele>300.07</ele><time>2026-08-20T18:54:59Z</time></trkpt><trkpt lat="59.1022227611" lon="30.4675717000"><ele>300.07</ele><time>2026-08-20T18:55:00Z</time></trkpt><trkpt lat="59.1022227611" lon="30.4675717000"><ele>300.55</ele><time>2026-08-20T18:55:01Z</time></trkpt><trkpt lat="59.1022227611" lon="30.4675717000"><ele>300.55</ele><time>2026-08-20T18:55:02Z</time></trkpt><trkpt lat="59.1022227611" lon="30.4675717000"><ele>300.55</ele><time>2026-08-20T18:55:03Z</time></trkpt><trkpt lat="59.1022227611" lon="30.4675717000"><ele>300.55</ele><time>2026-08-20T18:55:04Z</time></trkpt><trkpt lat="59.1022227611" lon="30.4675717000"><ele>300.55</ele><time>2026-08-20T18:55:05Z</time></trkpt><trkpt lat="59.1022227611" lon="30.4675717000"><ele>300.55</ele><time>2026-08-20T18:55:06Z</time></trkpt><trkpt lat="59.1022227611" lon="30.4675717000"><ele>300.55</ele><time>2026-08-20T18:55:07Z</time></trkpt><trkpt lat="59.1022227611" lon="30.4675717000"><ele>300.55</ele><time>2026-08-20T18:55:08Z</time></trkpt><trkpt lat="59.1022227611" lon="30.4675717000"><ele>300.55</ele><time>2026-08-20T18:55:09Z</time></trkpt><trkpt lat="59.1022227611" lon="30.4675717000"><ele>300.55</ele><time>2026-08-20T18:55:10Z</time></trkpt><trkpt lat="59.1022227611" lon="30.4675717000"><ele>300.55</ele><time>2026-08-20T18:55:11Z</time></trkpt><trkpt lat="59.1022227611" lon="30.4675717000"><ele>300.55</ele><time>2026-08-20T18:55:12Z</time></trkpt><trkpt lat="59.1022227611" lon="30.4675717000"><ele>300.55</ele><time>2026-08-20T18:55:13Z</time></trkpt><trkpt lat="59.1022227611" lon="30.4675717000"><ele>300.55</ele><time>2026-08-20T18:55:14Z</time></trkpt><trkpt lat="59.1022227611" lon="30.4675717000"><ele>300.55</ele><time>2026-08-20T18:55:15Z</time></trkpt><trkpt lat="59.1022227611" lon="30.4675717000"><ele>300.55</ele><time>2026-08-20T18:55:16Z</time></trkpt><trkpt lat="59.1022227611" lon="30.4675717000"><ele>300.55</ele><time>2026-08-20T18:55:17Z</time></trkpt><trkpt lat="59.1022227611" lon="30.4675717000"><ele>300.55</ele><time>2026-08-20T18:55:18Z</time></trkpt><trkpt lat="59.1022227611" lon="30.4675717000"><ele>300.55</ele><time>2026-08-20T18:55:19Z</time></trkpt><trkpt lat="59.1022227611" lon="30.4675717000"><ele>300.07</ele><time>2026-08-20T18:55:20Z</time></trkpt><trkpt lat="59.1022227611" lon="30.4675717000"><ele>300.07</ele><time>2026-08-20T18:55:21Z</time></trkpt><trkpt lat="59.1022227611" lon="30.4675717000"><ele>300.07</ele><time>2026-08-20T18:55:22Z</time></trkpt><trkpt lat="59.1022227611" lon="30.4675717000"><ele>300.07</ele><time>2026-08-20T18:55:23Z</time></trkpt><trkpt lat="59.1022227611" lon="30.4675717000"><ele>300.07</ele><time>2026-08-20T18:55:24Z</time></trkpt><trkpt lat="59.1022227611" lon="30.4675717000"><ele>300.07</ele><time>2026-08-20T18:55:25Z</time></trkpt><trkpt lat="59.1022227611" lon="30.4675717000"><ele>300.55</ele><time>2026-08-20T18:55:26Z</time></trkpt><trkpt lat="59.1022227611" lon="30.4675717000"><ele>300.55</ele><time>2026-08-20T18:55:27Z</time></trkpt><trkpt lat="59.1022227611" lon="30.4675717000"><ele>300.55</ele><time>2026-08-20T18:55:28Z</time></trkpt><trkpt lat="59.1022227611" lon="30.4675717000"><ele>300.55</ele><time>2026-08-20T18:55:29Z</time></trkpt><trkpt lat="59.1022227611" lon="30.4675717000"><ele>300.55</ele><time>2026-08-20T18:55:30Z</time></trkpt><trkpt lat="59.1022665985" lon="30.4675926547"><ele>300.55</ele><time>2026-08-20T18:55:31Z</time></trkpt><trkpt lat="59.1022703703" lon="30.4675917327"><ele>300.55</ele><time>2026-08-20T18:55:32Z</time></trkpt><trkpt lat="59.1022726335" lon="30.4675926547"><ele>300.55</ele><time>2026-08-20T18:55:33Z</time></trkpt><trkpt lat="59.1022754833" lon="30.4675932415"><ele>300.55</ele><time>2026-08-20T18:55:34Z</time></trkpt><trkpt lat="59.1022780817" lon="30.4675970972"><ele>300.55</ele><time>2026-08-20T18:55:35Z</time></trkpt><trkpt lat="59.1022780817" lon="30.4675970972"><ele>300.55</ele><time>2026-08-20T18:55:36Z</time></trkpt><trkpt lat="59.1022780817" lon="30.4675970972"><ele>300.55</ele><time>2026-08-20T18:55:37Z</time></trkpt><trkpt lat="59.1022780817" lon="30.4675970972"><ele>300.55</ele><time>2026-08-20T18:55:38Z</time></trkpt><trkpt lat="59.1022780817" lon="30.4675970972"><ele>300.55</ele><time>2026-08-20T18:55:39Z</time></trkpt><trkpt lat="59.1022780817" lon="30.4675970972"><ele>300.55</ele><time>2026-08-20T18:55:40Z</time></trkpt><trkpt lat="59.1022780817" lon="30.4675970972"><ele>300.55</ele><time>2026-08-20T18:55:41Z</time></trkpt><trkpt lat="59.1022780817" lon="30.4675970972"><ele>300.55</ele><time>2026-08-20T18:55:42Z</time></trkpt><trkpt lat="59.1022780817" lon="30.4675970972"><ele>300.55</ele><time>2026-08-20T18:55:43Z</time></trkpt><trkpt lat="59.1022780817" lon="30.4675970972"><ele>300.55</ele><time>2026-08-20T18:55:44Z</time></trkpt><trkpt lat="59.1022853740" lon="30.4676314630"><ele>300.55</ele><time>2026-08-20T18:55:45Z</time></trkpt><trkpt lat="59.1022869665" lon="30.4676420242"><ele>300.55</ele><time>2026-08-20T18:55:46Z</time></trkpt><trkpt lat="59.1022886429" lon="30.4676520824"><ele>300.55</ele><time>2026-08-20T18:55:47Z</time></trkpt><trkpt lat="59.1022908222" lon="30.4676622245"><ele>300.55</ele><time>2026-08-20T18:55:48Z</time></trkpt><trkpt lat="59.1022934206" lon="30.4676727857"><ele>300.55</ele><time>2026-08-20T18:55:49Z</time></trkpt><trkpt lat="59.1022970248" lon="30.4676799942"><ele>300.55</ele><time>2026-08-20T18:55:50Z</time></trkpt><trkpt lat="59.1022996232" lon="30.4676886275"><ele>300.55</ele><time>2026-08-20T18:55:51Z</time></trkpt><trkpt lat="59.1023020539" lon="30.4676956683"><ele>300.55</ele><time>2026-08-20T18:55:52Z</time></trkpt><trkpt lat="59.1023081727" lon="30.4677047208"><ele>300.55</ele><time>2026-08-20T18:55:53Z</time></trkpt><trkpt lat="59.1023128666" lon="30.4677143600"><ele>300.55</ele><time>2026-08-20T18:55:54Z</time></trkpt><trkpt lat="59.1023176443" lon="30.4677242506"><ele>300.55</ele><time>2026-08-20T18:55:55Z</time></trkpt><trkpt lat="59.1023210809" lon="30.4677331354"><ele>300.55</ele><time>2026-08-20T18:55:56Z</time></trkpt><trkpt lat="59.1023242660" lon="30.4677378293"><ele>300.55</ele><time>2026-08-20T18:55:57Z</time></trkpt><trkpt lat="59.1023269482" lon="30.4677403439"><ele>300.55</ele><time>2026-08-20T18:55:58Z</time></trkpt><trkpt lat="59.1023269482" lon="30.4677403439"><ele>300.55</ele><time>2026-08-20T18:55:59Z</time></trkpt><trkpt lat="59.1023269482" lon="30.4677403439"><ele>300.55</ele><time>2026-08-20T18:56:00Z</time></trkpt><trkpt lat="59.1023269482" lon="30.4677403439"><ele>300.55</ele><time>2026-08-20T18:56:01Z</time></trkpt><trkpt lat="59.1023334861" lon="30.4677514918"><ele>300.55</ele><time>2026-08-20T18:56:02Z</time></trkpt><trkpt lat="59.1023381799" lon="30.4677585326"><ele>300.55</ele><time>2026-08-20T18:56:03Z</time></trkpt><trkpt lat="59.1023409460" lon="30.4677664954"><ele>300.55</ele><time>2026-08-20T18:56:04Z</time></trkpt><trkpt lat="59.1023420356" lon="30.4677698482"><ele>300.55</ele><time>2026-08-20T18:56:05Z</time></trkpt><trkpt lat="59.1023395211" lon="30.4677711893"><ele>300.55</ele><time>2026-08-20T18:56:06Z</time></trkpt><trkpt lat="59.1023363359" lon="30.4677763861"><ele>300.55</ele><time>2026-08-20T18:56:07Z</time></trkpt><trkpt lat="59.1023363359" lon="30.4677763861"><ele>300.55</ele><time>2026-08-20T18:56:08Z</time></trkpt><trkpt lat="59.1023363359" lon="30.4677763861"><ele>300.55</ele><time>2026-08-20T18:56:09Z</time></trkpt><trkpt lat="59.1023363359" lon="30.4677763861"><ele>300.55</ele><time>2026-08-20T18:56:10Z</time></trkpt><trkpt lat="59.1023363359" lon="30.4677763861"><ele>300.55</ele><time>2026-08-20T18:56:11Z</time></trkpt><trkpt lat="59.1023363359" lon="30.4677763861"><ele>300.55</ele><time>2026-08-20T18:56:12Z</time></trkpt><trkpt lat="59.1023309715" lon="30.4678158648"><ele>300.55</ele><time>2026-08-20T18:56:13Z</time></trkpt><trkpt lat="59.1023288760" lon="30.4678286891"><ele>300.55</ele><time>2026-08-20T18:56:14Z</time></trkpt><trkpt lat="59.1023245174" lon="30.4678371549"><ele>300.55</ele><time>2026-08-20T18:56:15Z</time></trkpt><trkpt lat="59.1023172252" lon="30.4678495601"><ele>300.55</ele><time>2026-08-20T18:56:16Z</time></trkpt><trkpt lat="59.1023088433" lon="30.4678640608"><ele>300.55</ele><time>2026-08-20T18:56:17Z</time></trkpt><trkpt lat="59.1023054905" lon="30.4678758793"><ele>300.55</ele><time>2026-08-20T18:56:18Z</time></trkpt><trkpt lat="59.1023023892" lon="30.4678866919"><ele>300.55</ele><time>2026-08-20T18:56:19Z</time></trkpt><trkpt lat="59.1023009643" lon="30.4678924754"><ele>300.55</ele><time>2026-08-20T18:56:20Z</time></trkpt><trkpt lat="59.1022962704" lon="30.4678991809"><ele>300.55</ele><time>2026-08-20T18:56:21Z</time></trkpt><trkpt lat="59.1022962704" lon="30.4679041263"><ele>300.55</ele><time>2026-08-20T18:56:22Z</time></trkpt><trkpt lat="59.1022953484" lon="30.4679131787"><ele>300.55</ele><time>2026-08-20T18:56:23Z</time></trkpt><trkpt lat="59.1022960190" lon="30.4679342173"><ele>300.55</ele><time>2026-08-20T18:56:24Z</time></trkpt><trkpt lat="59.1022989526" lon="30.4679488856"><ele>300.55</ele><time>2026-08-20T18:56:25Z</time></trkpt><trkpt lat="59.1022988688" lon="30.4679636378"><ele>300.55</ele><time>2026-08-20T18:56:26Z</time></trkpt><trkpt lat="59.1022937559" lon="30.4679790605"><ele>300.55</ele><time>2026-08-20T18:56:27Z</time></trkpt><trkpt lat="59.1022891458" lon="30.4679883644"><ele>300.55</ele><time>2026-08-20T18:56:28Z</time></trkpt><trkpt lat="59.1022876371" lon="30.4680014402"><ele>300.55</ele><time>2026-08-20T18:56:29Z</time></trkpt><trkpt lat="59.1022858769" lon="30.4680217244"><ele>300.55</ele><time>2026-08-20T18:56:30Z</time></trkpt><trkpt lat="59.1022803448" lon="30.4680451937"><ele>300.55</ele><time>2026-08-20T18:56:31Z</time></trkpt><trkpt lat="59.1022753995" lon="30.4680607840"><ele>300.55</ele><time>2026-08-20T18:56:32Z</time></trkpt><trkpt lat="59.1022702865" lon="30.4680740274"><ele>300.55</ele><time>2026-08-20T18:56:33Z</time></trkpt><trkpt lat="59.1022673529" lon="30.4680854268"><ele>300.55</ele><time>2026-08-20T18:56:34Z</time></trkpt><trkpt lat="59.1022648383" lon="30.4680943955"><ele>300.55</ele><time>2026-08-20T18:56:35Z</time></trkpt><trkpt lat="59.1022667661" lon="30.4680967424"><ele>300.55</ele><time>2026-08-20T18:56:36Z</time></trkpt><trkpt lat="59.1022662632" lon="30.4681068845"><ele>300.55</ele><time>2026-08-20T18:56:37Z</time></trkpt><trkpt lat="59.1022647545" lon="30.4681191221"><ele>300.55</ele><time>2026-08-20T18:56:38Z</time></trkpt><trkpt lat="59.1022632457" lon="30.4681346286"><ele>300.55</ele><time>2026-08-20T18:56:39Z</time></trkpt><trkpt lat="59.1022616532" lon="30.4681470338"><ele>300.55</ele><time>2026-08-20T18:56:40Z</time></trkpt><trkpt lat="59.1022609826" lon="30.4681566730"><ele>300.55</ele><time>2026-08-20T18:56:41Z</time></trkpt><trkpt lat="59.1022615694" lon="30.4681688268"><ele>300.55</ele><time>2026-08-20T18:56:42Z</time></trkpt><trkpt lat="59.1022597253" lon="30.4681791365"><ele>300.55</ele><time>2026-08-20T18:56:43Z</time></trkpt><trkpt lat="59.1022560373" lon="30.4681992531"><ele>300.55</ele><time>2026-08-20T18:56:44Z</time></trkpt><trkpt lat="59.1022554506" lon="30.4682073835"><ele>300.55</ele><time>2026-08-20T18:56:45Z</time></trkpt><trkpt lat="59.1022530198" lon="30.4682071321"><ele>300.55</ele><time>2026-08-20T18:56:46Z</time></trkpt><trkpt lat="59.1022547800" lon="30.4682194535"><ele>300.55</ele><time>2026-08-20T18:56:47Z</time></trkpt><trkpt lat="59.1022547800" lon="30.4682194535"><ele>300.55</ele><time>2026-08-20T18:56:48Z</time></trkpt><trkpt lat="59.1022547800" lon="30.4682194535"><ele>300.55</ele><time>2026-08-20T18:56:49Z</time></trkpt><trkpt lat="59.1022547800" lon="30.4682194535"><ele>300.55</ele><time>2026-08-20T18:56:50Z</time></trkpt><trkpt lat="59.1022530198" lon="30.4682374746"><ele>300.55</ele><time>2026-08-20T18:56:51Z</time></trkpt><trkpt lat="59.1022555344" lon="30.4682428390"><ele>300.55</ele><time>2026-08-20T18:56:52Z</time></trkpt><trkpt lat="59.1022594739" lon="30.4682518914"><ele>300.55</ele><time>2026-08-20T18:56:53Z</time></trkpt><trkpt lat="59.1022568755" lon="30.4682591837"><ele>300.55</ele><time>2026-08-20T18:56:54Z</time></trkpt><trkpt lat="59.1022521816" lon="30.4682688229"><ele>300.55</ele><time>2026-08-20T18:56:55Z</time></trkpt><trkpt lat="59.1022491641" lon="30.4682772886"><ele>300.55</ele><time>2026-08-20T18:56:56Z</time></trkpt><trkpt lat="59.1022495832" lon="30.4682820663"><ele>300.55</ele><time>2026-08-20T18:56:57Z</time></trkpt><trkpt lat="59.1022522654" lon="30.4682669789"><ele>300.55</ele><time>2026-08-20T18:56:58Z</time></trkpt><trkpt lat="59.1022495832" lon="30.4682685714"><ele>300.55</ele><time>2026-08-20T18:56:59Z</time></trkpt><trkpt lat="59.1022435483" lon="30.4682790488"><ele>300.55</ele><time>2026-08-20T18:57:00Z</time></trkpt><trkpt lat="59.1022435483" lon="30.4682790488"><ele>300.55</ele><time>2026-08-20T18:57:01Z</time></trkpt><trkpt lat="59.1022292990" lon="30.4682957288"><ele>300.55</ele><time>2026-08-20T18:57:02Z</time></trkpt><trkpt lat="59.1022218391" lon="30.4683045298"><ele>300.55</ele><time>2026-08-20T18:57:03Z</time></trkpt><trkpt lat="59.1022205818" lon="30.4683117382"><ele>300.55</ele><time>2026-08-20T18:57:04Z</time></trkpt><trkpt lat="59.1022201627" lon="30.4683131631"><ele>300.55</ele><time>2026-08-20T18:57:05Z</time></trkpt><trkpt lat="59.1022192407" lon="30.4683159292"><ele>300.55</ele><time>2026-08-20T18:57:06Z</time></trkpt><trkpt lat="59.1022192407" lon="30.4683157615"><ele>300.55</ele><time>2026-08-20T18:57:07Z</time></trkpt><trkpt lat="59.1022192407" lon="30.4683157615"><ele>300.55</ele><time>2026-08-20T18:57:08Z</time></trkpt><trkpt lat="59.1022192407" lon="30.4683157615"><ele>300.55</ele><time>2026-08-20T18:57:09Z</time></trkpt><trkpt lat="59.1022166423" lon="30.4683215450"><ele>300.55</ele><time>2026-08-20T18:57:10Z</time></trkpt><trkpt lat="59.1022158880" lon="30.4683354590"><ele>300.55</ele><time>2026-08-20T18:57:11Z</time></trkpt><trkpt lat="59.1022168938" lon="30.4683421645"><ele>300.55</ele><time>2026-08-20T18:57:12Z</time></trkpt><trkpt lat="59.1022165585" lon="30.4683422484"><ele>300.55</ele><time>2026-08-20T18:57:13Z</time></trkpt><trkpt lat="59.1022184864" lon="30.4683501273"><ele>300.55</ele><time>2026-08-20T18:57:14Z</time></trkpt><trkpt lat="59.1022184864" lon="30.4683501273"><ele>300.55</ele><time>2026-08-20T18:57:15Z</time></trkpt><trkpt lat="59.1022184864" lon="30.4683501273"><ele>300.55</ele><time>2026-08-20T18:57:16Z</time></trkpt><trkpt lat="59.1022184864" lon="30.4683501273"><ele>300.55</ele><time>2026-08-20T18:57:17Z</time></trkpt><trkpt lat="59.1022184864" lon="30.4683501273"><ele>300.55</ele><time>2026-08-20T18:57:18Z</time></trkpt><trkpt lat="59.1022184864" lon="30.4683501273"><ele>300.55</ele><time>2026-08-20T18:57:19Z</time></trkpt><trkpt lat="59.1022184864" lon="30.4683501273"><ele>300.55</ele><time>2026-08-20T18:57:20Z</time></trkpt><trkpt lat="59.1022184864" lon="30.4683501273"><ele>300.55</ele><time>2026-08-20T18:57:21Z</time></trkpt><trkpt lat="59.1022184864" lon="30.4683501273"><ele>300.55</ele><time>2026-08-20T18:57:22Z</time></trkpt><trkpt lat="59.1022184864" lon="30.4683501273"><ele>300.55</ele><time>2026-08-20T18:57:23Z</time></trkpt><trkpt lat="59.1022184864" lon="30.4683501273"><ele>300.55</ele><time>2026-08-20T18:57:24Z</time></trkpt><trkpt lat="59.1022291314" lon="30.4683985747"><ele>300.55</ele><time>2026-08-20T18:57:25Z</time></trkpt><trkpt lat="59.1022361722" lon="30.4683989938"><ele>300.55</ele><time>2026-08-20T18:57:26Z</time></trkpt><trkpt lat="59.1022383515" lon="30.4683982395"><ele>300.55</ele><time>2026-08-20T18:57:27Z</time></trkpt><trkpt lat="59.1022408661" lon="30.4684001673"><ele>300.55</ele><time>2026-08-20T18:57:28Z</time></trkpt><trkpt lat="59.1022415366" lon="30.4683999997"><ele>300.55</ele><time>2026-08-20T18:57:29Z</time></trkpt><trkpt lat="59.1022447217" lon="30.4684124887"><ele>300.55</ele><time>2026-08-20T18:57:30Z</time></trkpt><trkpt lat="59.1022465657" lon="30.4684194457"><ele>300.55</ele><time>2026-08-20T18:57:31Z</time></trkpt><trkpt lat="59.1022493318" lon="30.4684260674"><ele>300.55</ele><time>2026-08-20T18:57:32Z</time></trkpt><trkpt lat="59.1022503376" lon="30.4684367962"><ele>300.55</ele><time>2026-08-20T18:57:33Z</time></trkpt><trkpt lat="59.1022519302" lon="30.4684443399"><ele>300.55</ele><time>2026-08-20T18:57:34Z</time></trkpt><trkpt lat="59.1022563726" lon="30.4684478603"><ele>300.55</ele><time>2026-08-20T18:57:35Z</time></trkpt><trkpt lat="59.1022573784" lon="30.4684546497"><ele>300.55</ele><time>2026-08-20T18:57:36Z</time></trkpt><trkpt lat="59.1022595577" lon="30.4684550688"><ele>300.55</ele><time>2026-08-20T18:57:37Z</time></trkpt><trkpt lat="59.1022595577" lon="30.4684550688"><ele>300.55</ele><time>2026-08-20T18:57:38Z</time></trkpt><trkpt lat="59.1022595577" lon="30.4684550688"><ele>300.55</ele><time>2026-08-20T18:57:39Z</time></trkpt><trkpt lat="59.1022595577" lon="30.4684550688"><ele>300.55</ele><time>2026-08-20T18:57:40Z</time></trkpt><trkpt lat="59.1022595577" lon="30.4684550688"><ele>300.55</ele><time>2026-08-20T18:57:41Z</time></trkpt><trkpt lat="59.1022595577" lon="30.4684550688"><ele>300.55</ele><time>2026-08-20T18:57:42Z</time></trkpt><trkpt lat="59.1022595577" lon="30.4684550688"><ele>300.55</ele><time>2026-08-20T18:57:43Z</time></trkpt><trkpt lat="59.1022595577" lon="30.4684550688"><ele>300.55</ele><time>2026-08-20T18:57:44Z</time></trkpt><trkpt lat="59.1022687778" lon="30.4684643727"><ele>300.55</ele><time>2026-08-20T18:57:45Z</time></trkpt><trkpt lat="59.1022661794" lon="30.4684702400"><ele>300.55</ele><time>2026-08-20T18:57:46Z</time></trkpt><trkpt lat="59.1022658441" lon="30.4684762750"><ele>300.55</ele><time>2026-08-20T18:57:47Z</time></trkpt><trkpt lat="59.1022651736" lon="30.4684843216"><ele>300.55</ele><time>2026-08-20T18:57:48Z</time></trkpt><trkpt lat="59.1022660956" lon="30.4684929550"><ele>300.55</ele><time>2026-08-20T18:57:49Z</time></trkpt><trkpt lat="59.1022660956" lon="30.4684929550"><ele>300.55</ele><time>2026-08-20T18:57:50Z</time></trkpt><trkpt lat="59.1022683587" lon="30.4685134906"><ele>300.55</ele><time>2026-08-20T18:57:51Z</time></trkpt><trkpt lat="59.1022695322" lon="30.4685265664"><ele>300.07</ele><time>2026-08-20T18:57:52Z</time></trkpt><trkpt lat="59.1022705380" lon="30.4685360380"><ele>300.07</ele><time>2026-08-20T18:57:53Z</time></trkpt><trkpt lat="59.1022725496" lon="30.4685495328"><ele>300.07</ele><time>2026-08-20T18:57:54Z</time></trkpt><trkpt lat="59.1022743937" lon="30.4685591720"><ele>300.55</ele><time>2026-08-20T18:57:55Z</time></trkpt><trkpt lat="59.1022743937" lon="30.4685591720"><ele>300.55</ele><time>2026-08-20T18:57:56Z</time></trkpt><trkpt lat="59.1022743937" lon="30.4685591720"><ele>300.55</ele><time>2026-08-20T18:57:57Z</time></trkpt><trkpt lat="59.1022743937" lon="30.4685591720"><ele>300.55</ele><time>2026-08-20T18:57:58Z</time></trkpt><trkpt lat="59.1022743937" lon="30.4685591720"><ele>300.55</ele><time>2026-08-20T18:57:59Z</time></trkpt><trkpt lat="59.1022743937" lon="30.4685591720"><ele>300.55</ele><time>2026-08-20T18:58:00Z</time></trkpt><trkpt lat="59.1022743937" lon="30.4685591720"><ele>300.55</ele><time>2026-08-20T18:58:01Z</time></trkpt><trkpt lat="59.1022743937" lon="30.4685591720"><ele>300.55</ele><time>2026-08-20T18:58:02Z</time></trkpt><trkpt lat="59.1022743937" lon="30.4685591720"><ele>300.55</ele><time>2026-08-20T18:58:03Z</time></trkpt><trkpt lat="59.1022743937" lon="30.4685591720"><ele>300.55</ele><time>2026-08-20T18:58:04Z</time></trkpt><trkpt lat="59.1022801772" lon="30.4685899336"><ele>300.55</ele><time>2026-08-20T18:58:05Z</time></trkpt><trkpt lat="59.1022792552" lon="30.4685988184"><ele>300.55</ele><time>2026-08-20T18:58:06Z</time></trkpt><trkpt lat="59.1022820212" lon="30.4685991537"><ele>300.55</ele><time>2026-08-20T18:58:07Z</time></trkpt><trkpt lat="59.1022837814" lon="30.4686024226"><ele>300.55</ele><time>2026-08-20T18:58:08Z</time></trkpt><trkpt lat="59.1022837814" lon="30.4686024226"><ele>300.55</ele><time>2026-08-20T18:58:09Z</time></trkpt><trkpt lat="59.1022837814" lon="30.4686024226"><ele>300.55</ele><time>2026-08-20T18:58:10Z</time></trkpt><trkpt lat="59.1022837814" lon="30.4686024226"><ele>300.55</ele><time>2026-08-20T18:58:11Z</time></trkpt><trkpt lat="59.1022837814" lon="30.4686024226"><ele>300.55</ele><time>2026-08-20T18:58:12Z</time></trkpt><trkpt lat="59.1022837814" lon="30.4686024226"><ele>300.55</ele><time>2026-08-20T18:58:13Z</time></trkpt><trkpt lat="59.1022837814" lon="30.4686024226"><ele>300.55</ele><time>2026-08-20T18:58:14Z</time></trkpt><trkpt lat="59.1022837814" lon="30.4686024226"><ele>300.55</ele><time>2026-08-20T18:58:15Z</time></trkpt><trkpt lat="59.1022837814" lon="30.4686024226"><ele>300.55</ele><time>2026-08-20T18:58:16Z</time></trkpt><trkpt lat="59.1022837814" lon="30.4686024226"><ele>300.55</ele><time>2026-08-20T18:58:17Z</time></trkpt><trkpt lat="59.1022837814" lon="30.4686024226"><ele>300.55</ele><time>2026-08-20T18:58:18Z</time></trkpt><trkpt lat="59.1022837814" lon="30.4686024226"><ele>300.55</ele><time>2026-08-20T18:58:19Z</time></trkpt><trkpt lat="59.1022837814" lon="30.4686024226"><ele>300.55</ele><time>2026-08-20T18:58:20Z</time></trkpt><trkpt lat="59.1022837814" lon="30.4686024226"><ele>300.55</ele><time>2026-08-20T18:58:21Z</time></trkpt><trkpt lat="59.1022837814" lon="30.4686024226"><ele>300.55</ele><time>2026-08-20T18:58:22Z</time></trkpt><trkpt lat="59.1022837814" lon="30.4686024226"><ele>300.55</ele><time>2026-08-20T18:58:23Z</time></trkpt><trkpt lat="59.1022837814" lon="30.4686024226"><ele>300.55</ele><time>2026-08-20T18:58:24Z</time></trkpt><trkpt lat="59.1022837814" lon="30.4686024226"><ele>300.55</ele><time>2026-08-20T18:58:25Z</time></trkpt><trkpt lat="59.1022837814" lon="30.4686024226"><ele>300.55</ele><time>2026-08-20T18:58:26Z</time></trkpt><trkpt lat="59.1022837814" lon="30.4686024226"><ele>300.55</ele><time>2026-08-20T18:58:27Z</time></trkpt><trkpt lat="59.1022837814" lon="30.4686024226"><ele>300.55</ele><time>2026-08-20T18:58:28Z</time></trkpt><trkpt lat="59.1023162194" lon="30.4686729982"><ele>300.55</ele><time>2026-08-20T18:58:29Z</time></trkpt><trkpt lat="59.1023221705" lon="30.4686768539"><ele>300.55</ele><time>2026-08-20T18:58:30Z</time></trkpt><trkpt lat="59.1023291275" lon="30.4686874989"><ele>300.55</ele><time>2026-08-20T18:58:31Z</time></trkpt><trkpt lat="59.1023354977" lon="30.4686983954"><ele>300.55</ele><time>2026-08-20T18:58:32Z</time></trkpt><trkpt lat="59.1023390181" lon="30.4687078670"><ele>300.55</ele><time>2026-08-20T18:58:33Z</time></trkpt><trkpt lat="59.1023435444" lon="30.4687149916"><ele>300.55</ele><time>2026-08-20T18:58:34Z</time></trkpt><trkpt lat="59.1023468971" lon="30.4687247984"><ele>300.55</ele><time>2026-08-20T18:58:35Z</time></trkpt><trkpt lat="59.1023459751" lon="30.4687359463"><ele>300.55</ele><time>2026-08-20T18:58:36Z</time></trkpt><trkpt lat="59.1023476515" lon="30.4687477648"><ele>300.55</ele><time>2026-08-20T18:58:37Z</time></trkpt><trkpt lat="59.1023515910" lon="30.4687529616"><ele>300.55</ele><time>2026-08-20T18:58:38Z</time></trkpt><trkpt lat="59.1023560334" lon="30.4687532969"><ele>300.55</ele><time>2026-08-20T18:58:39Z</time></trkpt><trkpt lat="59.1023603920" lon="30.4687534645"><ele>300.55</ele><time>2026-08-20T18:58:40Z</time></trkpt><trkpt lat="59.1023603920" lon="30.4687534645"><ele>300.55</ele><time>2026-08-20T18:58:41Z</time></trkpt><trkpt lat="59.1023603920" lon="30.4687534645"><ele>300.55</ele><time>2026-08-20T18:58:42Z</time></trkpt><trkpt lat="59.1023603920" lon="30.4687534645"><ele>300.55</ele><time>2026-08-20T18:58:43Z</time></trkpt><trkpt lat="59.1023603920" lon="30.4687534645"><ele>300.55</ele><time>2026-08-20T18:58:44Z</time></trkpt><trkpt lat="59.1023603920" lon="30.4687534645"><ele>300.55</ele><time>2026-08-20T18:58:45Z</time></trkpt><trkpt lat="59.1023603920" lon="30.4687534645"><ele>300.55</ele><time>2026-08-20T18:58:46Z</time></trkpt><trkpt lat="59.1023603920" lon="30.4687534645"><ele>300.55</ele><time>2026-08-20T18:58:47Z</time></trkpt><trkpt lat="59.1023603920" lon="30.4687534645"><ele>300.55</ele><time>2026-08-20T18:58:48Z</time></trkpt><trkpt lat="59.1023603920" lon="30.4687534645"><ele>300.55</ele><time>2026-08-20T18:58:49Z</time></trkpt><trkpt lat="59.1023603920" lon="30.4687534645"><ele>300.55</ele><time>2026-08-20T18:58:50Z</time></trkpt><trkpt lat="59.1023603920" lon="30.4687534645"><ele>300.55</ele><time>2026-08-20T18:58:51Z</time></trkpt><trkpt lat="59.1023603920" lon="30.4687534645"><ele>300.55</ele><time>2026-08-20T18:58:52Z</time></trkpt><trkpt lat="59.1023603920" lon="30.4687534645"><ele>300.55</ele><time>2026-08-20T18:58:53Z</time></trkpt><trkpt lat="59.1023603920" lon="30.4687534645"><ele>300.55</ele><time>2026-08-20T18:58:54Z</time></trkpt><trkpt lat="59.1023603920" lon="30.4687534645"><ele>300.55</ele><time>2026-08-20T18:58:55Z</time></trkpt><trkpt lat="59.1023603920" lon="30.4687534645"><ele>300.55</ele><time>2026-08-20T18:58:56Z</time></trkpt><trkpt lat="59.1023603920" lon="30.4687534645"><ele>300.55</ele><time>2026-08-20T18:58:57Z</time></trkpt><trkpt lat="59.1023603920" lon="30.4687534645"><ele>300.55</ele><time>2026-08-20T18:58:58Z</time></trkpt><trkpt lat="59.1023603920" lon="30.4687534645"><ele>300.55</ele><time>2026-08-20T18:58:59Z</time></trkpt><trkpt lat="59.1023603920" lon="30.4687534645"><ele>300.55</ele><time>2026-08-20T18:59:00Z</time></trkpt><trkpt lat="59.1023603920" lon="30.4687534645"><ele>300.55</ele><time>2026-08-20T18:59:01Z</time></trkpt><trkpt lat="59.1023603920" lon="30.4687534645"><ele>300.55</ele><time>2026-08-20T18:59:02Z</time></trkpt><trkpt lat="59.1023603920" lon="30.4687534645"><ele>300.55</ele><time>2026-08-20T18:59:03Z</time></trkpt><trkpt lat="59.1023603920" lon="30.4687534645"><ele>300.55</ele><time>2026-08-20T18:59:04Z</time></trkpt><trkpt lat="59.1023603920" lon="30.4687534645"><ele>300.55</ele><time>2026-08-20T18:59:05Z</time></trkpt><trkpt lat="59.1023603920" lon="30.4687534645"><ele>300.55</ele><time>2026-08-20T18:59:06Z</time></trkpt><trkpt lat="59.1023603920" lon="30.4687534645"><ele>300.55</ele><time>2026-08-20T18:59:07Z</time></trkpt><trkpt lat="59.1023603920" lon="30.4687534645"><ele>300.55</ele><time>2026-08-20T18:59:08Z</time></trkpt><trkpt lat="59.1023603920" lon="30.4687534645"><ele>300.55</ele><time>2026-08-20T18:59:09Z</time></trkpt><trkpt lat="59.1023603920" lon="30.4687534645"><ele>300.55</ele><time>2026-08-20T18:59:10Z</time></trkpt><trkpt lat="59.1023603920" lon="30.4687534645"><ele>300.55</ele><time>2026-08-20T18:59:11Z</time></trkpt><trkpt lat="59.1023603920" lon="30.4687534645"><ele>300.55</ele><time>2026-08-20T18:59:12Z</time></trkpt><trkpt lat="59.1023603920" lon="30.4687534645"><ele>300.55</ele><time>2026-08-20T18:59:13Z</time></trkpt><trkpt lat="59.1023603920" lon="30.4687534645"><ele>300.07</ele><time>2026-08-20T18:59:14Z</time></trkpt><trkpt lat="59.1023603920" lon="30.4687534645"><ele>300.07</ele><time>2026-08-20T18:59:15Z</time></trkpt><trkpt lat="59.1023603920" lon="30.4687534645"><ele>300.07</ele><time>2026-08-20T18:59:16Z</time></trkpt><trkpt lat="59.1023603920" lon="30.4687534645"><ele>300.07</ele><time>2026-08-20T18:59:17Z</time></trkpt><trkpt lat="59.1023603920" lon="30.4687534645"><ele>300.07</ele><time>2026-08-20T18:59:18Z</time></trkpt><trkpt lat="59.1023603920" lon="30.4687534645"><ele>300.07</ele><time>2026-08-20T18:59:19Z</time></trkpt><trkpt lat="59.1023603920" lon="30.4687534645"><ele>300.07</ele><time>2026-08-20T18:59:20Z</time></trkpt><trkpt lat="59.1023603920" lon="30.4687534645"><ele>300.07</ele><time>2026-08-20T18:59:21Z</time></trkpt><trkpt lat="59.1023603920" lon="30.4687534645"><ele>300.07</ele><time>2026-08-20T18:59:22Z</time></trkpt><trkpt lat="59.1023603920" lon="30.4687534645"><ele>300.07</ele><time>2026-08-20T18:59:23Z</time></trkpt><trkpt lat="59.1023603920" lon="30.4687534645"><ele>300.07</ele><time>2026-08-20T18:59:24Z</time></trkpt><trkpt lat="59.1023603920" lon="30.4687534645"><ele>300.07</ele><time>2026-08-20T18:59:25Z</time></trkpt><trkpt lat="59.1023603920" lon="30.4687534645"><ele>300.07</ele><time>2026-08-20T18:59:26Z</time></trkpt><trkpt lat="59.1023603920" lon="30.4687534645"><ele>300.07</ele><time>2026-08-20T18:59:27Z</time></trkpt><trkpt lat="59.1023603920" lon="30.4687534645"><ele>300.07</ele><time>2026-08-20T18:59:28Z</time></trkpt><trkpt lat="59.1023603920" lon="30.4687534645"><ele>300.07</ele><time>2026-08-20T18:59:29Z</time></trkpt><trkpt lat="59.1023603920" lon="30.4687534645"><ele>300.07</ele><time>2026-08-20T18:59:30Z</time></trkpt><trkpt lat="59.1023603920" lon="30.4687534645"><ele>300.07</ele><time>2026-08-20T18:59:31Z</time></trkpt><trkpt lat="59.1023603920" lon="30.4687534645"><ele>300.07</ele><time>2026-08-20T18:59:32Z</time></trkpt><trkpt lat="59.1023603920" lon="30.4687534645"><ele>300.07</ele><time>2026-08-20T18:59:33Z</time></trkpt><trkpt lat="59.1023603920" lon="30.4687534645"><ele>300.07</ele><time>2026-08-20T18:59:34Z</time></trkpt><trkpt lat="59.1023603920" lon="30.4687534645"><ele>300.07</ele><time>2026-08-20T18:59:35Z</time></trkpt><trkpt lat="59.1023603920" lon="30.4687534645"><ele>300.07</ele><time>2026-08-20T18:59:36Z</time></trkpt><trkpt lat="59.1023603920" lon="30.4687534645"><ele>300.07</ele><time>2026-08-20T18:59:37Z</time></trkpt><trkpt lat="59.1023603920" lon="30.4687534645"><ele>300.07</ele><time>2026-08-20T18:59:38Z</time></trkpt><trkpt lat="59.1023603920" lon="30.4687534645"><ele>300.07</ele><time>2026-08-20T18:59:39Z</time></trkpt><trkpt lat="59.1023603920" lon="30.4687534645"><ele>300.07</ele><time>2026-08-20T18:59:40Z</time></trkpt><trkpt lat="59.1023603920" lon="30.4687534645"><ele>300.07</ele><time>2026-08-20T18:59:41Z</time></trkpt><trkpt lat="59.1023603920" lon="30.4687534645"><ele>300.07</ele><time>2026-08-20T18:59:42Z</time></trkpt><trkpt lat="59.1023603920" lon="30.4687534645"><ele>300.07</ele><time>2026-08-20T18:59:43Z</time></trkpt><trkpt lat="59.1023603920" lon="30.4687534645"><ele>300.07</ele><time>2026-08-20T18:59:44Z</time></trkpt><trkpt lat="59.1023603920" lon="30.4687534645"><ele>300.07</ele><time>2026-08-20T18:59:45Z</time></trkpt><trkpt lat="59.1023603920" lon="30.4687534645"><ele>300.07</ele><time>2026-08-20T18:59:46Z</time></trkpt><trkpt lat="59.1023603920" lon="30.4687534645"><ele>300.07</ele><time>2026-08-20T18:59:47Z</time></trkpt><trkpt lat="59.1023603920" lon="30.4687534645"><ele>300.07</ele><time>2026-08-20T18:59:48Z</time></trkpt><trkpt lat="59.1023603920" lon="30.4687534645"><ele>300.07</ele><time>2026-08-20T18:59:49Z</time></trkpt><trkpt lat="59.1023603920" lon="30.4687534645"><ele>300.07</ele><time>2026-08-20T18:59:50Z</time></trkpt><trkpt lat="59.1023603920" lon="30.4687534645"><ele>300.07</ele><time>2026-08-20T18:59:51Z</time></trkpt><trkpt lat="59.1023603920" lon="30.4687534645"><ele>300.07</ele><time>2026-08-20T18:59:52Z</time></trkpt><trkpt lat="59.1023603920" lon="30.4687534645"><ele>300.07</ele><time>2026-08-20T18:59:53Z</time></trkpt><trkpt lat="59.1023603920" lon="30.4687534645"><ele>300.07</ele><time>2026-08-20T18:59:54Z</time></trkpt><trkpt lat="59.1023603920" lon="30.4687534645"><ele>300.07</ele><time>2026-08-20T18:59:55Z</time></trkpt><trkpt lat="59.1023603920" lon="30.4687534645"><ele>300.07</ele><time>2026-08-20T18:59:56Z</time></trkpt><trkpt lat="59.1023603920" lon="30.4687534645"><ele>300.07</ele><time>2026-08-20T18:59:57Z</time></trkpt><trkpt lat="59.1023603920" lon="30.4687534645"><ele>300.07</ele><time>2026-08-20T18:59:58Z</time></trkpt><trkpt lat="59.1023603920" lon="30.4687534645"><ele>300.07</ele><time>2026-08-20T18:59:59Z</time></trkpt><trkpt lat="59.1023603920" lon="30.4687534645"><ele>300.07</ele><time>2026-08-20T19:00:00Z</time></trkpt><trkpt lat="59.1023603920" lon="30.4687534645"><ele>300.07</ele><time>2026-08-20T19:00:01Z</time></trkpt><trkpt lat="59.1023603920" lon="30.4687534645"><ele>300.07</ele><time>2026-08-20T19:00:02Z</time></trkpt><trkpt lat="59.1023603920" lon="30.4687534645"><ele>300.07</ele><time>2026-08-20T19:00:03Z</time></trkpt><trkpt lat="59.1023603920" lon="30.4687534645"><ele>300.07</ele><time>2026-08-20T19:00:04Z</time></trkpt><trkpt lat="59.1023603920" lon="30.4687534645"><ele>300.55</ele><time>2026-08-20T19:00:05Z</time></trkpt><trkpt lat="59.1023603920" lon="30.4687534645"><ele>300.55</ele><time>2026-08-20T19:00:06Z</time></trkpt><trkpt lat="59.1023603920" lon="30.4687534645"><ele>300.55</ele><time>2026-08-20T19:00:07Z</time></trkpt><trkpt lat="59.1023603920" lon="30.4687534645"><ele>300.55</ele><time>2026-08-20T19:00:08Z</time></trkpt><trkpt lat="59.1023603920" lon="30.4687534645"><ele>300.55</ele><time>2026-08-20T19:00:09Z</time></trkpt><trkpt lat="59.1023603920" lon="30.4687534645"><ele>300.55</ele><time>2026-08-20T19:00:10Z</time></trkpt><trkpt lat="59.1023603920" lon="30.4687534645"><ele>300.55</ele><time>2026-08-20T19:00:11Z</time></trkpt><trkpt lat="59.1023603920" lon="30.4687534645"><ele>300.55</ele><time>2026-08-20T19:00:12Z</time></trkpt><trkpt lat="59.1023603920" lon="30.4687534645"><ele>300.55</ele><time>2026-08-20T19:00:13Z</time></trkpt><trkpt lat="59.1023603920" lon="30.4687534645"><ele>300.55</ele><time>2026-08-20T19:00:14Z</time></trkpt><trkpt lat="59.1023603920" lon="30.4687534645"><ele>300.55</ele><time>2026-08-20T19:00:15Z</time></trkpt><trkpt lat="59.1023603920" lon="30.4687534645"><ele>300.55</ele><time>2026-08-20T19:00:16Z</time></trkpt><trkpt lat="59.1023603920" lon="30.4687534645"><ele>301.03</ele><time>2026-08-20T19:00:17Z</time></trkpt><trkpt lat="59.1023603920" lon="30.4687534645"><ele>301.03</ele><time>2026-08-20T19:00:18Z</time></trkpt><trkpt lat="59.1023603920" lon="30.4687534645"><ele>301.03</ele><time>2026-08-20T19:00:19Z</time></trkpt><trkpt lat="59.1023603920" lon="30.4687534645"><ele>301.03</ele><time>2026-08-20T19:00:20Z</time></trkpt><trkpt lat="59.1023603920" lon="30.4687534645"><ele>301.03</ele><time>2026-08-20T19:00:21Z</time></trkpt><trkpt lat="59.1023603920" lon="30.4687534645"><ele>301.03</ele><time>2026-08-20T19:00:22Z</time></trkpt><trkpt lat="59.1023603920" lon="30.4687534645"><ele>300.55</ele><time>2026-08-20T19:00:23Z</time></trkpt><trkpt lat="59.1023603920" lon="30.4687534645"><ele>300.55</ele><time>2026-08-20T19:00:24Z</time></trkpt><trkpt lat="59.1024008766" lon="30.4688538797"><ele>300.55</ele><time>2026-08-20T19:00:25Z</time></trkpt><trkpt lat="59.1023989487" lon="30.4688669555"><ele>300.55</ele><time>2026-08-20T19:00:26Z</time></trkpt><trkpt lat="59.1023964342" lon="30.4688773490"><ele>300.55</ele><time>2026-08-20T19:00:27Z</time></trkpt><trkpt lat="59.1023923270" lon="30.4688900895"><ele>300.55</ele><time>2026-08-20T19:00:28Z</time></trkpt><trkpt lat="59.1023845319" lon="30.4689036682"><ele>300.55</ele><time>2026-08-20T19:00:29Z</time></trkpt><trkpt lat="59.1023793351" lon="30.4689144809"><ele>300.55</ele><time>2026-08-20T19:00:30Z</time></trkpt><trkpt lat="59.1023730487" lon="30.4689263832"><ele>300.55</ele><time>2026-08-20T19:00:31Z</time></trkpt><trkpt lat="59.1023703665" lon="30.4689311609"><ele>300.55</ele><time>2026-08-20T19:00:32Z</time></trkpt><trkpt lat="59.1023667622" lon="30.4689447396"><ele>300.55</ele><time>2026-08-20T19:00:34Z</time></trkpt><trkpt lat="59.1023667622" lon="30.4689447396"><ele>300.55</ele><time>2026-08-20T19:00:35Z</time></trkpt><trkpt lat="59.1023651697" lon="30.4689427279"><ele>300.55</ele><time>2026-08-20T19:00:36Z</time></trkpt><trkpt lat="59.1023605596" lon="30.4689493496"><ele>300.55</ele><time>2026-08-20T19:00:37Z</time></trkpt><trkpt lat="59.1023558658" lon="30.4689566419"><ele>300.55</ele><time>2026-08-20T19:00:38Z</time></trkpt><trkpt lat="59.1023518424" lon="30.4689663649"><ele>300.55</ele><time>2026-08-20T19:00:39Z</time></trkpt><trkpt lat="59.1023470648" lon="30.4689796921"><ele>300.55</ele><time>2026-08-20T19:00:40Z</time></trkpt><trkpt lat="59.1023424547" lon="30.4689890798"><ele>300.55</ele><time>2026-08-20T19:00:41Z</time></trkpt><trkpt lat="59.1023360845" lon="30.4689969588"><ele>300.55</ele><time>2026-08-20T19:00:42Z</time></trkpt><trkpt lat="59.1023353301" lon="30.4690055922"><ele>300.55</ele><time>2026-08-20T19:00:43Z</time></trkpt><trkpt lat="59.1023326479" lon="30.4690172430"><ele>300.55</ele><time>2026-08-20T19:00:44Z</time></trkpt><trkpt lat="59.1023281217" lon="30.4690304864"><ele>300.55</ele><time>2026-08-20T19:00:45Z</time></trkpt><trkpt lat="59.1023226734" lon="30.4690476693"><ele>300.55</ele><time>2026-08-20T19:00:46Z</time></trkpt><trkpt lat="59.1023215000" lon="30.4690561350"><ele>300.55</ele><time>2026-08-20T19:00:47Z</time></trkpt><trkpt lat="59.1023204941" lon="30.4690624215"><ele>300.55</ele><time>2026-08-20T19:00:48Z</time></trkpt><trkpt lat="59.1023193207" lon="30.4690764192"><ele>300.55</ele><time>2026-08-20T19:00:49Z</time></trkpt><trkpt lat="59.1023179796" lon="30.4690905847"><ele>301.03</ele><time>2026-08-20T19:00:50Z</time></trkpt><trkpt lat="59.1023168899" lon="30.4691037443"><ele>301.03</ele><time>2026-08-20T19:00:51Z</time></trkpt><trkpt lat="59.1023185663" lon="30.4691138864"><ele>301.03</ele><time>2026-08-20T19:00:52Z</time></trkpt><trkpt lat="59.1023189854" lon="30.4691231903"><ele>301.03</ele><time>2026-08-20T19:00:53Z</time></trkpt><trkpt lat="59.1023160517" lon="30.4691364337"><ele>301.03</ele><time>2026-08-20T19:00:54Z</time></trkpt><trkpt lat="59.1023140401" lon="30.4691470787"><ele>301.03</ele><time>2026-08-20T19:00:55Z</time></trkpt><trkpt lat="59.1023158841" lon="30.4691579752"><ele>301.03</ele><time>2026-08-20T19:00:56Z</time></trkpt><trkpt lat="59.1023158841" lon="30.4691723920"><ele>301.03</ele><time>2026-08-20T19:00:57Z</time></trkpt><trkpt lat="59.1023136210" lon="30.4691853840"><ele>301.03</ele><time>2026-08-20T19:00:58Z</time></trkpt><trkpt lat="59.1023145430" lon="30.4691978730"><ele>300.55</ele><time>2026-08-20T19:00:59Z</time></trkpt><trkpt lat="59.1023111902" lon="30.4692121223"><ele>300.55</ele><time>2026-08-20T19:01:00Z</time></trkpt><trkpt lat="59.1023079213" lon="30.4692245275"><ele>300.55</ele><time>2026-08-20T19:01:01Z</time></trkpt><trkpt lat="59.1023033950" lon="30.4692415427"><ele>300.55</ele><time>2026-08-20T19:01:02Z</time></trkpt><trkpt lat="59.1022986174" lon="30.4692561273"><ele>300.55</ele><time>2026-08-20T19:01:03Z</time></trkpt><trkpt lat="59.1022924986" lon="30.4692729749"><ele>300.55</ele><time>2026-08-20T19:01:04Z</time></trkpt><trkpt lat="59.1022867989" lon="30.4692790937"><ele>300.55</ele><time>2026-08-20T19:01:05Z</time></trkpt><trkpt lat="59.1022728849" lon="30.4692851286"><ele>300.55</ele><time>2026-08-20T19:01:06Z</time></trkpt><trkpt lat="59.1022643354" lon="30.4692914989"><ele>300.55</ele><time>2026-08-20T19:01:07Z</time></trkpt><trkpt lat="59.1022597253" lon="30.4693012219"><ele>300.55</ele><time>2026-08-20T19:01:08Z</time></trkpt><trkpt lat="59.1022531874" lon="30.4693154711"><ele>300.55</ele><time>2026-08-20T19:01:09Z</time></trkpt><trkpt lat="59.1022490803" lon="30.4693300556"><ele>300.55</ele><time>2026-08-20T19:01:10Z</time></trkpt><trkpt lat="59.1022437997" lon="30.4693475738"><ele>300.55</ele><time>2026-08-20T19:01:11Z</time></trkpt><trkpt lat="59.1022401955" lon="30.4693609849"><ele>300.55</ele><time>2026-08-20T19:01:12Z</time></trkpt><trkpt lat="59.1022347473" lon="30.4693715461"><ele>301.03</ele><time>2026-08-20T19:01:13Z</time></trkpt><trkpt lat="59.1022300534" lon="30.4693774972"><ele>301.03</ele><time>2026-08-20T19:01:14Z</time></trkpt><trkpt lat="59.1022266168" lon="30.4693809338"><ele>301.03</ele><time>2026-08-20T19:01:15Z</time></trkpt><trkpt lat="59.1022243537" lon="30.4693821911"><ele>301.03</ele><time>2026-08-20T19:01:16Z</time></trkpt><trkpt lat="59.1022243537" lon="30.4693821911"><ele>301.03</ele><time>2026-08-20T19:01:17Z</time></trkpt><trkpt lat="59.1022243537" lon="30.4693821911"><ele>301.03</ele><time>2026-08-20T19:01:18Z</time></trkpt><trkpt lat="59.1022219229" lon="30.4693909921"><ele>301.03</ele><time>2026-08-20T19:01:19Z</time></trkpt><trkpt lat="59.1022211686" lon="30.4694043193"><ele>301.03</ele><time>2026-08-20T19:01:20Z</time></trkpt><trkpt lat="59.1022186540" lon="30.4694143776"><ele>301.03</ele><time>2026-08-20T19:01:21Z</time></trkpt><trkpt lat="59.1022174805" lon="30.4694214184"><ele>301.03</ele><time>2026-08-20T19:01:22Z</time></trkpt><trkpt lat="59.1022204980" lon="30.4694221728"><ele>301.03</ele><time>2026-08-20T19:01:23Z</time></trkpt><trkpt lat="59.1022229288" lon="30.4694257770"><ele>301.03</ele><time>2026-08-20T19:01:24Z</time></trkpt><trkpt lat="59.1022205818" lon="30.4694312252"><ele>301.03</ele><time>2026-08-20T19:01:25Z</time></trkpt><trkpt lat="59.1022205818" lon="30.4694312252"><ele>300.55</ele><time>2026-08-20T19:01:26Z</time></trkpt><trkpt lat="59.1022205818" lon="30.4694312252"><ele>300.55</ele><time>2026-08-20T19:01:27Z</time></trkpt><trkpt lat="59.1022205818" lon="30.4694312252"><ele>300.55</ele><time>2026-08-20T19:01:28Z</time></trkpt><trkpt lat="59.1022205818" lon="30.4694312252"><ele>300.55</ele><time>2026-08-20T19:01:29Z</time></trkpt><trkpt lat="59.1022205818" lon="30.4694312252"><ele>300.55</ele><time>2026-08-20T19:01:30Z</time></trkpt><trkpt lat="59.1022205818" lon="30.4694312252"><ele>300.55</ele><time>2026-08-20T19:01:31Z</time></trkpt><trkpt lat="59.1022205818" lon="30.4694312252"><ele>300.55</ele><time>2026-08-20T19:01:32Z</time></trkpt><trkpt lat="59.1022298858" lon="30.4694583826"><ele>300.55</ele><time>2026-08-20T19:01:33Z</time></trkpt><trkpt lat="59.1022333223" lon="30.4694701172"><ele>300.55</ele><time>2026-08-20T19:01:34Z</time></trkpt><trkpt lat="59.1022307239" lon="30.4694895633"><ele>301.03</ele><time>2026-08-20T19:01:35Z</time></trkpt><trkpt lat="59.1022327356" lon="30.4695014656"><ele>301.03</ele><time>2026-08-20T19:01:36Z</time></trkpt><trkpt lat="59.1022384353" lon="30.4695171397"><ele>301.03</ele><time>2026-08-20T19:01:37Z</time></trkpt><trkpt lat="59.1022414528" lon="30.4695303831"><ele>301.03</ele><time>2026-08-20T19:01:38Z</time></trkpt><trkpt lat="59.1022413690" lon="30.4695437942"><ele>301.03</ele><time>2026-08-20T19:01:39Z</time></trkpt><trkpt lat="59.1022426262" lon="30.4695558641"><ele>301.03</ele><time>2026-08-20T19:01:40Z</time></trkpt><trkpt lat="59.1022423748" lon="30.4695698619"><ele>301.03</ele><time>2026-08-20T19:01:41Z</time></trkpt><trkpt lat="59.1022423748" lon="30.4695698619"><ele>301.03</ele><time>2026-08-20T19:01:42Z</time></trkpt><trkpt lat="59.1022423748" lon="30.4695698619"><ele>301.03</ele><time>2026-08-20T19:01:43Z</time></trkpt><trkpt lat="59.1022423748" lon="30.4695698619"><ele>301.03</ele><time>2026-08-20T19:01:44Z</time></trkpt><trkpt lat="59.1022423748" lon="30.4695698619"><ele>301.03</ele><time>2026-08-20T19:01:45Z</time></trkpt><trkpt lat="59.1022381838" lon="30.4696346540"><ele>301.03</ele><time>2026-08-20T19:01:46Z</time></trkpt><trkpt lat="59.1022376809" lon="30.4696489871"><ele>301.03</ele><time>2026-08-20T19:01:47Z</time></trkpt><trkpt lat="59.1022377647" lon="30.4696634877"><ele>301.03</ele><time>2026-08-20T19:01:48Z</time></trkpt><trkpt lat="59.1022386868" lon="30.4696729593"><ele>301.03</ele><time>2026-08-20T19:01:49Z</time></trkpt><trkpt lat="59.1022385191" lon="30.4696885496"><ele>301.03</ele><time>2026-08-20T19:01:50Z</time></trkpt><trkpt lat="59.1022378486" lon="30.4697050620"><ele>301.03</ele><time>2026-08-20T19:01:51Z</time></trkpt><trkpt lat="59.1022362560" lon="30.4697219934"><ele>301.03</ele><time>2026-08-20T19:01:52Z</time></trkpt><trkpt lat="59.1022387706" lon="30.4697328899"><ele>301.03</ele><time>2026-08-20T19:01:53Z</time></trkpt><trkpt lat="59.1022390220" lon="30.4697431996"><ele>301.03</ele><time>2026-08-20T19:01:54Z</time></trkpt><trkpt lat="59.1022390220" lon="30.4697431996"><ele>301.03</ele><time>2026-08-20T19:01:55Z</time></trkpt><trkpt lat="59.1022390220" lon="30.4697431996"><ele>301.03</ele><time>2026-08-20T19:01:56Z</time></trkpt><trkpt lat="59.1022390220" lon="30.4697431996"><ele>301.03</ele><time>2026-08-20T19:01:57Z</time></trkpt><trkpt lat="59.1022419557" lon="30.4697915632"><ele>301.03</ele><time>2026-08-20T19:01:58Z</time></trkpt><trkpt lat="59.1022386868" lon="30.4698103387"><ele>301.03</ele><time>2026-08-20T19:01:59Z</time></trkpt><trkpt lat="59.1022390220" lon="30.4698209837"><ele>301.03</ele><time>2026-08-20T19:02:00Z</time></trkpt><trkpt lat="59.1022369266" lon="30.4698415194"><ele>301.03</ele><time>2026-08-20T19:02:01Z</time></trkpt><trkpt lat="59.1022396926" lon="30.4698519967"><ele>301.03</ele><time>2026-08-20T19:02:02Z</time></trkpt><trkpt lat="59.1022390220" lon="30.4698653240"><ele>301.03</ele><time>2026-08-20T19:02:03Z</time></trkpt><trkpt lat="59.1022396926" lon="30.4698744603"><ele>301.03</ele><time>2026-08-20T19:02:04Z</time></trkpt><trkpt lat="59.1022451408" lon="30.4698785674"><ele>301.03</ele><time>2026-08-20T19:02:05Z</time></trkpt><trkpt lat="59.1022462305" lon="30.4698854405"><ele>301.03</ele><time>2026-08-20T19:02:06Z</time></trkpt><trkpt lat="59.1022462305" lon="30.4698854405"><ele>301.03</ele><time>2026-08-20T19:02:07Z</time></trkpt><trkpt lat="59.1022462305" lon="30.4698854405"><ele>301.03</ele><time>2026-08-20T19:02:08Z</time></trkpt><trkpt lat="59.1022453923" lon="30.4699309543"><ele>301.03</ele><time>2026-08-20T19:02:09Z</time></trkpt><trkpt lat="59.1022428777" lon="30.4699441977"><ele>301.03</ele><time>2026-08-20T19:02:10Z</time></trkpt><trkpt lat="59.1022390220" lon="30.4699577764"><ele>301.03</ele><time>2026-08-20T19:02:11Z</time></trkpt><trkpt lat="59.1022358369" lon="30.4699707683"><ele>301.03</ele><time>2026-08-20T19:02:12Z</time></trkpt><trkpt lat="59.1022354178" lon="30.4699762166"><ele>301.03</ele><time>2026-08-20T19:02:13Z</time></trkpt><trkpt lat="59.1022354178" lon="30.4699762166"><ele>301.03</ele><time>2026-08-20T19:02:14Z</time></trkpt><trkpt lat="59.1022354178" lon="30.4699762166"><ele>301.03</ele><time>2026-08-20T19:02:15Z</time></trkpt><trkpt lat="59.1022354178" lon="30.4699762166"><ele>301.03</ele><time>2026-08-20T19:02:16Z</time></trkpt><trkpt lat="59.1022354178" lon="30.4699762166"><ele>301.03</ele><time>2026-08-20T19:02:17Z</time></trkpt><trkpt lat="59.1022354178" lon="30.4699762166"><ele>301.03</ele><time>2026-08-20T19:02:18Z</time></trkpt><trkpt lat="59.1022354178" lon="30.4699762166"><ele>301.03</ele><time>2026-08-20T19:02:19Z</time></trkpt><trkpt lat="59.1022354178" lon="30.4699762166"><ele>301.03</ele><time>2026-08-20T19:02:20Z</time></trkpt><trkpt lat="59.1022354178" lon="30.4699762166"><ele>301.03</ele><time>2026-08-20T19:02:21Z</time></trkpt><trkpt lat="59.1022354178" lon="30.4699762166"><ele>301.03</ele><time>2026-08-20T19:02:22Z</time></trkpt><trkpt lat="59.1022370942" lon="30.4700205568"><ele>301.03</ele><time>2026-08-20T19:02:23Z</time></trkpt><trkpt lat="59.1022389382" lon="30.4700317886"><ele>301.03</ele><time>2026-08-20T19:02:24Z</time></trkpt><trkpt lat="59.1022405308" lon="30.4700431880"><ele>301.03</ele><time>2026-08-20T19:02:25Z</time></trkpt><trkpt lat="59.1022355855" lon="30.4700521566"><ele>301.03</ele><time>2026-08-20T19:02:26Z</time></trkpt><trkpt lat="59.1022321489" lon="30.4700624663"><ele>301.03</ele><time>2026-08-20T19:02:27Z</time></trkpt><trkpt lat="59.1022317298" lon="30.4700689204"><ele>301.03</ele><time>2026-08-20T19:02:28Z</time></trkpt><trkpt lat="59.1022316460" lon="30.4700800683"><ele>301.03</ele><time>2026-08-20T19:02:29Z</time></trkpt><trkpt lat="59.1022306401" lon="30.4700930603"><ele>301.03</ele><time>2026-08-20T19:02:30Z</time></trkpt><trkpt lat="59.1022306401" lon="30.4700930603"><ele>301.03</ele><time>2026-08-20T19:02:31Z</time></trkpt><trkpt lat="59.1022306401" lon="30.4700930603"><ele>301.03</ele><time>2026-08-20T19:02:32Z</time></trkpt><trkpt lat="59.1022306401" lon="30.4700930603"><ele>301.03</ele><time>2026-08-20T19:02:33Z</time></trkpt><trkpt lat="59.1022306401" lon="30.4700930603"><ele>301.03</ele><time>2026-08-20T19:02:34Z</time></trkpt><trkpt lat="59.1022306401" lon="30.4700930603"><ele>301.03</ele><time>2026-08-20T19:02:35Z</time></trkpt><trkpt lat="59.1022306401" lon="30.4700930603"><ele>301.03</ele><time>2026-08-20T19:02:36Z</time></trkpt><trkpt lat="59.1022306401" lon="30.4700930603"><ele>301.03</ele><time>2026-08-20T19:02:37Z</time></trkpt><trkpt lat="59.1022306401" lon="30.4700930603"><ele>301.03</ele><time>2026-08-20T19:02:38Z</time></trkpt><trkpt lat="59.1022306401" lon="30.4700930603"><ele>301.03</ele><time>2026-08-20T19:02:39Z</time></trkpt><trkpt lat="59.1022306401" lon="30.4700930603"><ele>301.03</ele><time>2026-08-20T19:02:40Z</time></trkpt><trkpt lat="59.1022306401" lon="30.4700930603"><ele>301.03</ele><time>2026-08-20T19:02:41Z</time></trkpt><trkpt lat="59.1022306401" lon="30.4700930603"><ele>301.03</ele><time>2026-08-20T19:02:42Z</time></trkpt><trkpt lat="59.1022306401" lon="30.4700930603"><ele>301.03</ele><time>2026-08-20T19:02:43Z</time></trkpt><trkpt lat="59.1022306401" lon="30.4700930603"><ele>301.03</ele><time>2026-08-20T19:02:44Z</time></trkpt><trkpt lat="59.1022306401" lon="30.4700930603"><ele>301.03</ele><time>2026-08-20T19:02:45Z</time></trkpt><trkpt lat="59.1022306401" lon="30.4700930603"><ele>301.03</ele><time>2026-08-20T19:02:46Z</time></trkpt><trkpt lat="59.1022306401" lon="30.4700930603"><ele>301.03</ele><time>2026-08-20T19:02:47Z</time></trkpt><trkpt lat="59.1022306401" lon="30.4700930603"><ele>301.03</ele><time>2026-08-20T19:02:48Z</time></trkpt><trkpt lat="59.1022306401" lon="30.4700930603"><ele>301.03</ele><time>2026-08-20T19:02:49Z</time></trkpt><trkpt lat="59.1022306401" lon="30.4700930603"><ele>301.03</ele><time>2026-08-20T19:02:50Z</time></trkpt><trkpt lat="59.1022306401" lon="30.4700930603"><ele>301.03</ele><time>2026-08-20T19:02:51Z</time></trkpt><trkpt lat="59.1022306401" lon="30.4700930603"><ele>301.03</ele><time>2026-08-20T19:02:52Z</time></trkpt><trkpt lat="59.1022419557" lon="30.4701437708"><ele>301.03</ele><time>2026-08-20T19:02:53Z</time></trkpt><trkpt lat="59.1022455599" lon="30.4701505601"><ele>301.03</ele><time>2026-08-20T19:02:54Z</time></trkpt><trkpt lat="59.1022500861" lon="30.4701548349"><ele>301.03</ele><time>2026-08-20T19:02:55Z</time></trkpt><trkpt lat="59.1022532713" lon="30.4701685812"><ele>300.55</ele><time>2026-08-20T19:02:56Z</time></trkpt><trkpt lat="59.1022609826" lon="30.4701878596"><ele>300.55</ele><time>2026-08-20T19:02:57Z</time></trkpt><trkpt lat="59.1022634972" lon="30.4702164419"><ele>300.55</ele><time>2026-08-20T19:02:58Z</time></trkpt><trkpt lat="59.1022671852" lon="30.4702306911"><ele>300.55</ele><time>2026-08-20T19:02:59Z</time></trkpt><trkpt lat="59.1022697836" lon="30.4702452756"><ele>300.55</ele><time>2026-08-20T19:03:00Z</time></trkpt><trkpt lat="59.1022721305" lon="30.4702546634"><ele>300.55</ele><time>2026-08-20T19:03:01Z</time></trkpt><trkpt lat="59.1022721305" lon="30.4702546634"><ele>301.03</ele><time>2026-08-20T19:03:02Z</time></trkpt><trkpt lat="59.1022721305" lon="30.4702546634"><ele>301.03</ele><time>2026-08-20T19:03:03Z</time></trkpt><trkpt lat="59.1022752319" lon="30.4702615365"><ele>301.03</ele><time>2026-08-20T19:03:04Z</time></trkpt><trkpt lat="59.1022733878" lon="30.4702725168"><ele>301.03</ele><time>2026-08-20T19:03:05Z</time></trkpt><trkpt lat="59.1022730526" lon="30.4702790547"><ele>301.03</ele><time>2026-08-20T19:03:06Z</time></trkpt><trkpt lat="59.1022714600" lon="30.4702876881"><ele>301.03</ele><time>2026-08-20T19:03:07Z</time></trkpt><trkpt lat="59.1022693645" lon="30.4702958185"><ele>301.03</ele><time>2026-08-20T19:03:08Z</time></trkpt><trkpt lat="59.1022673529" lon="30.4703094810"><ele>301.03</ele><time>2026-08-20T19:03:09Z</time></trkpt><trkpt lat="59.1022634972" lon="30.4703260772"><ele>301.03</ele><time>2026-08-20T19:03:10Z</time></trkpt><trkpt lat="59.1022619884" lon="30.4703408293"><ele>301.03</ele><time>2026-08-20T19:03:11Z</time></trkpt><trkpt lat="59.1022603959" lon="30.4703528993"><ele>301.03</ele><time>2026-08-20T19:03:12Z</time></trkpt><trkpt lat="59.1022599768" lon="30.4703636281"><ele>301.03</ele><time>2026-08-20T19:03:13Z</time></trkpt><trkpt lat="59.1022599768" lon="30.4703718424"><ele>301.03</ele><time>2026-08-20T19:03:14Z</time></trkpt><trkpt lat="59.1022596415" lon="30.4703776259"><ele>301.03</ele><time>2026-08-20T19:03:15Z</time></trkpt><trkpt lat="59.1022593901" lon="30.4703796376"><ele>301.03</ele><time>2026-08-20T19:03:16Z</time></trkpt><trkpt lat="59.1022593901" lon="30.4703796376"><ele>301.03</ele><time>2026-08-20T19:03:17Z</time></trkpt><trkpt lat="59.1022593901" lon="30.4703796376"><ele>301.03</ele><time>2026-08-20T19:03:18Z</time></trkpt><trkpt lat="59.1022593901" lon="30.4703796376"><ele>301.03</ele><time>2026-08-20T19:03:19Z</time></trkpt><trkpt lat="59.1022593901" lon="30.4703796376"><ele>301.03</ele><time>2026-08-20T19:03:20Z</time></trkpt><trkpt lat="59.1022593901" lon="30.4703796376"><ele>301.03</ele><time>2026-08-20T19:03:21Z</time></trkpt><trkpt lat="59.1022593901" lon="30.4703796376"><ele>301.03</ele><time>2026-08-20T19:03:22Z</time></trkpt><trkpt lat="59.1022593901" lon="30.4703796376"><ele>301.03</ele><time>2026-08-20T19:03:23Z</time></trkpt><trkpt lat="59.1022593901" lon="30.4703796376"><ele>301.03</ele><time>2026-08-20T19:03:24Z</time></trkpt><trkpt lat="59.1022593901" lon="30.4703796376"><ele>301.03</ele><time>2026-08-20T19:03:25Z</time></trkpt><trkpt lat="59.1022593901" lon="30.4703796376"><ele>301.03</ele><time>2026-08-20T19:03:26Z</time></trkpt><trkpt lat="59.1022593901" lon="30.4703796376"><ele>301.03</ele><time>2026-08-20T19:03:27Z</time></trkpt><trkpt lat="59.1022593901" lon="30.4703796376"><ele>301.03</ele><time>2026-08-20T19:03:28Z</time></trkpt><trkpt lat="59.1022593901" lon="30.4703796376"><ele>301.03</ele><time>2026-08-20T19:03:29Z</time></trkpt><trkpt lat="59.1022593901" lon="30.4703796376"><ele>301.03</ele><time>2026-08-20T19:03:30Z</time></trkpt><trkpt lat="59.1022593901" lon="30.4703796376"><ele>301.03</ele><time>2026-08-20T19:03:31Z</time></trkpt><trkpt lat="59.1022593901" lon="30.4703796376"><ele>301.03</ele><time>2026-08-20T19:03:32Z</time></trkpt><trkpt lat="59.1022593901" lon="30.4703796376"><ele>301.03</ele><time>2026-08-20T19:03:33Z</time></trkpt><trkpt lat="59.1022593901" lon="30.4703796376"><ele>301.03</ele><time>2026-08-20T19:03:34Z</time></trkpt><trkpt lat="59.1022593901" lon="30.4703796376"><ele>301.03</ele><time>2026-08-20T19:03:35Z</time></trkpt><trkpt lat="59.1022593901" lon="30.4703796376"><ele>301.03</ele><time>2026-08-20T19:03:36Z</time></trkpt><trkpt lat="59.1022593901" lon="30.4703796376"><ele>301.03</ele><time>2026-08-20T19:03:37Z</time></trkpt><trkpt lat="59.1022593901" lon="30.4703796376"><ele>301.03</ele><time>2026-08-20T19:03:38Z</time></trkpt><trkpt lat="59.1022593901" lon="30.4703796376"><ele>301.03</ele><time>2026-08-20T19:03:39Z</time></trkpt><trkpt lat="59.1022593901" lon="30.4703796376"><ele>301.03</ele><time>2026-08-20T19:03:40Z</time></trkpt><trkpt lat="59.1022593901" lon="30.4703796376"><ele>301.03</ele><time>2026-08-20T19:03:41Z</time></trkpt><trkpt lat="59.1022593901" lon="30.4703796376"><ele>301.03</ele><time>2026-08-20T19:03:42Z</time></trkpt><trkpt lat="59.1022593901" lon="30.4703796376"><ele>301.03</ele><time>2026-08-20T19:03:43Z</time></trkpt><trkpt lat="59.1022593901" lon="30.4703796376"><ele>301.03</ele><time>2026-08-20T19:03:44Z</time></trkpt><trkpt lat="59.1022593901" lon="30.4703796376"><ele>301.03</ele><time>2026-08-20T19:03:45Z</time></trkpt><trkpt lat="59.1022593901" lon="30.4703796376"><ele>300.55</ele><time>2026-08-20T19:03:46Z</time></trkpt><trkpt lat="59.1022593901" lon="30.4703796376"><ele>300.55</ele><time>2026-08-20T19:03:47Z</time></trkpt><trkpt lat="59.1022593901" lon="30.4703796376"><ele>300.55</ele><time>2026-08-20T19:03:48Z</time></trkpt><trkpt lat="59.1022593901" lon="30.4703796376"><ele>300.55</ele><time>2026-08-20T19:03:49Z</time></trkpt><trkpt lat="59.1022593901" lon="30.4703796376"><ele>300.55</ele><time>2026-08-20T19:03:50Z</time></trkpt><trkpt lat="59.1022593901" lon="30.4703796376"><ele>300.55</ele><time>2026-08-20T19:03:51Z</time></trkpt><trkpt lat="59.1022593901" lon="30.4703796376"><ele>300.55</ele><time>2026-08-20T19:03:52Z</time></trkpt><trkpt lat="59.1022593901" lon="30.4703796376"><ele>300.55</ele><time>2026-08-20T19:03:53Z</time></trkpt><trkpt lat="59.1022593901" lon="30.4703796376"><ele>300.55</ele><time>2026-08-20T19:03:54Z</time></trkpt><trkpt lat="59.1022593901" lon="30.4703796376"><ele>300.55</ele><time>2026-08-20T19:03:55Z</time></trkpt><trkpt lat="59.1022593901" lon="30.4703796376"><ele>300.55</ele><time>2026-08-20T19:03:56Z</time></trkpt><trkpt lat="59.1022593901" lon="30.4703796376"><ele>300.55</ele><time>2026-08-20T19:03:57Z</time></trkpt><trkpt lat="59.1022593901" lon="30.4703796376"><ele>300.55</ele><time>2026-08-20T19:03:58Z</time></trkpt><trkpt lat="59.1022593901" lon="30.4703796376"><ele>300.55</ele><time>2026-08-20T19:03:59Z</time></trkpt><trkpt lat="59.1022593901" lon="30.4703796376"><ele>300.55</ele><time>2026-08-20T19:04:00Z</time></trkpt><trkpt lat="59.1022593901" lon="30.4703796376"><ele>300.55</ele><time>2026-08-20T19:04:01Z</time></trkpt><trkpt lat="59.1022593901" lon="30.4703796376"><ele>300.55</ele><time>2026-08-20T19:04:02Z</time></trkpt><trkpt lat="59.1022593901" lon="30.4703796376"><ele>300.55</ele><time>2026-08-20T19:04:03Z</time></trkpt><trkpt lat="59.1022593901" lon="30.4703796376"><ele>300.55</ele><time>2026-08-20T19:04:04Z</time></trkpt><trkpt lat="59.1022593901" lon="30.4703796376"><ele>300.55</ele><time>2026-08-20T19:04:05Z</time></trkpt><trkpt lat="59.1022593901" lon="30.4703796376"><ele>300.55</ele><time>2026-08-20T19:04:06Z</time></trkpt><trkpt lat="59.1022593901" lon="30.4703796376"><ele>300.55</ele><time>2026-08-20T19:04:07Z</time></trkpt><trkpt lat="59.1022593901" lon="30.4703796376"><ele>300.55</ele><time>2026-08-20T19:04:08Z</time></trkpt><trkpt lat="59.1022593901" lon="30.4703796376"><ele>300.55</ele><time>2026-08-20T19:04:09Z</time></trkpt><trkpt lat="59.1022593901" lon="30.4703796376"><ele>300.55</ele><time>2026-08-20T19:04:10Z</time></trkpt><trkpt lat="59.1022593901" lon="30.4703796376"><ele>300.55</ele><time>2026-08-20T19:04:11Z</time></trkpt><trkpt lat="59.1022593901" lon="30.4703796376"><ele>300.55</ele><time>2026-08-20T19:04:12Z</time></trkpt><trkpt lat="59.1022593901" lon="30.4703796376"><ele>300.55</ele><time>2026-08-20T19:04:13Z</time></trkpt><trkpt lat="59.1022593901" lon="30.4703796376"><ele>300.55</ele><time>2026-08-20T19:04:14Z</time></trkpt><trkpt lat="59.1022593901" lon="30.4703796376"><ele>300.55</ele><time>2026-08-20T19:04:15Z</time></trkpt><trkpt lat="59.1022593901" lon="30.4703796376"><ele>300.55</ele><time>2026-08-20T19:04:16Z</time></trkpt><trkpt lat="59.1022593901" lon="30.4703796376"><ele>300.55</ele><time>2026-08-20T19:04:17Z</time></trkpt><trkpt lat="59.1022593901" lon="30.4703796376"><ele>300.55</ele><time>2026-08-20T19:04:18Z</time></trkpt><trkpt lat="59.1022593901" lon="30.4703796376"><ele>300.55</ele><time>2026-08-20T19:04:19Z</time></trkpt><trkpt lat="59.1022593901" lon="30.4703796376"><ele>300.55</ele><time>2026-08-20T19:04:20Z</time></trkpt><trkpt lat="59.1022593901" lon="30.4703796376"><ele>300.55</ele><time>2026-08-20T19:04:21Z</time></trkpt><trkpt lat="59.1022593901" lon="30.4703796376"><ele>300.55</ele><time>2026-08-20T19:04:22Z</time></trkpt><trkpt lat="59.1022593901" lon="30.4703796376"><ele>300.55</ele><time>2026-08-20T19:04:23Z</time></trkpt><trkpt lat="59.1022593901" lon="30.4703796376"><ele>300.55</ele><time>2026-08-20T19:04:24Z</time></trkpt><trkpt lat="59.1022593901" lon="30.4703796376"><ele>300.55</ele><time>2026-08-20T19:04:25Z</time></trkpt><trkpt lat="59.1022593901" lon="30.4703796376"><ele>300.55</ele><time>2026-08-20T19:04:26Z</time></trkpt><trkpt lat="59.1022593901" lon="30.4703796376"><ele>300.55</ele><time>2026-08-20T19:04:27Z</time></trkpt><trkpt lat="59.1022593901" lon="30.4703796376"><ele>300.55</ele><time>2026-08-20T19:04:28Z</time></trkpt><trkpt lat="59.1022593901" lon="30.4703796376"><ele>300.55</ele><time>2026-08-20T19:04:29Z</time></trkpt><trkpt lat="59.1022593901" lon="30.4703796376"><ele>300.55</ele><time>2026-08-20T19:04:30Z</time></trkpt><trkpt lat="59.1022593901" lon="30.4703796376"><ele>300.55</ele><time>2026-08-20T19:04:31Z</time></trkpt><trkpt lat="59.1022593901" lon="30.4703796376"><ele>300.55</ele><time>2026-08-20T19:04:32Z</time></trkpt><trkpt lat="59.1022593901" lon="30.4703796376"><ele>300.55</ele><time>2026-08-20T19:04:33Z</time></trkpt><trkpt lat="59.1022593901" lon="30.4703796376"><ele>300.55</ele><time>2026-08-20T19:04:34Z</time></trkpt><trkpt lat="59.1022593901" lon="30.4703796376"><ele>300.55</ele><time>2026-08-20T19:04:35Z</time></trkpt><trkpt lat="59.1022593901" lon="30.4703796376"><ele>300.55</ele><time>2026-08-20T19:04:36Z</time></trkpt><trkpt lat="59.1022593901" lon="30.4703796376"><ele>301.03</ele><time>2026-08-20T19:04:37Z</time></trkpt><trkpt lat="59.1022593901" lon="30.4703796376"><ele>301.03</ele><time>2026-08-20T19:04:38Z</time></trkpt><trkpt lat="59.1022593901" lon="30.4703796376"><ele>301.03</ele><time>2026-08-20T19:04:39Z</time></trkpt><trkpt lat="59.1022593901" lon="30.4703796376"><ele>301.03</ele><time>2026-08-20T19:04:40Z</time></trkpt><trkpt lat="59.1022593901" lon="30.4703796376"><ele>301.03</ele><time>2026-08-20T19:04:41Z</time></trkpt><trkpt lat="59.1022593901" lon="30.4703796376"><ele>301.03</ele><time>2026-08-20T19:04:42Z</time></trkpt><trkpt lat="59.1022593901" lon="30.4703796376"><ele>301.03</ele><time>2026-08-20T19:04:43Z</time></trkpt><trkpt lat="59.1022593901" lon="30.4703796376"><ele>301.03</ele><time>2026-08-20T19:04:44Z</time></trkpt><trkpt lat="59.1022593901" lon="30.4703796376"><ele>301.03</ele><time>2026-08-20T19:04:45Z</time></trkpt><trkpt lat="59.1022593901" lon="30.4703796376"><ele>301.03</ele><time>2026-08-20T19:04:46Z</time></trkpt><trkpt lat="59.1022593901" lon="30.4703796376"><ele>301.03</ele><time>2026-08-20T19:04:47Z</time></trkpt><trkpt lat="59.1022593901" lon="30.4703796376"><ele>301.03</ele><time>2026-08-20T19:04:48Z</time></trkpt><trkpt lat="59.1022593901" lon="30.4703796376"><ele>301.03</ele><time>2026-08-20T19:04:49Z</time></trkpt><trkpt lat="59.1022593901" lon="30.4703796376"><ele>301.03</ele><time>2026-08-20T19:04:50Z</time></trkpt><trkpt lat="59.1022593901" lon="30.4703796376"><ele>301.03</ele><time>2026-08-20T19:04:51Z</time></trkpt><trkpt lat="59.1022593901" lon="30.4703796376"><ele>301.03</ele><time>2026-08-20T19:04:52Z</time></trkpt><trkpt lat="59.1022593901" lon="30.4703796376"><ele>301.03</ele><time>2026-08-20T19:04:53Z</time></trkpt><trkpt lat="59.1022593901" lon="30.4703796376"><ele>301.03</ele><time>2026-08-20T19:04:54Z</time></trkpt><trkpt lat="59.1022593901" lon="30.4703796376"><ele>301.03</ele><time>2026-08-20T19:04:55Z</time></trkpt><trkpt lat="59.1022593901" lon="30.4703796376"><ele>301.03</ele><time>2026-08-20T19:04:56Z</time></trkpt><trkpt lat="59.1022593901" lon="30.4703796376"><ele>301.03</ele><time>2026-08-20T19:04:57Z</time></trkpt><trkpt lat="59.1022593901" lon="30.4703796376"><ele>301.03</ele><time>2026-08-20T19:04:58Z</time></trkpt><trkpt lat="59.1022593901" lon="30.4703796376"><ele>300.55</ele><time>2026-08-20T19:04:59Z</time></trkpt><trkpt lat="59.1022593901" lon="30.4703796376"><ele>300.55</ele><time>2026-08-20T19:05:00Z</time></trkpt><trkpt lat="59.1022593901" lon="30.4703796376"><ele>300.55</ele><time>2026-08-20T19:05:01Z</time></trkpt><trkpt lat="59.1022593901" lon="30.4703796376"><ele>300.55</ele><time>2026-08-20T19:05:02Z</time></trkpt><trkpt lat="59.1022593901" lon="30.4703796376"><ele>300.55</ele><time>2026-08-20T19:05:03Z</time></trkpt><trkpt lat="59.1022593901" lon="30.4703796376"><ele>300.55</ele><time>2026-08-20T19:05:04Z</time></trkpt><trkpt lat="59.1022593901" lon="30.4703796376"><ele>300.55</ele><time>2026-08-20T19:05:05Z</time></trkpt><trkpt lat="59.1022593901" lon="30.4703796376"><ele>300.55</ele><time>2026-08-20T19:05:06Z</time></trkpt><trkpt lat="59.1022593901" lon="30.4703796376"><ele>300.55</ele><time>2026-08-20T19:05:07Z</time></trkpt><trkpt lat="59.1022593901" lon="30.4703796376"><ele>300.55</ele><time>2026-08-20T19:05:08Z</time></trkpt><trkpt lat="59.1022593901" lon="30.4703796376"><ele>300.55</ele><time>2026-08-20T19:05:09Z</time></trkpt><trkpt lat="59.1022593901" lon="30.4703796376"><ele>300.55</ele><time>2026-08-20T19:05:10Z</time></trkpt><trkpt lat="59.1022593901" lon="30.4703796376"><ele>300.55</ele><time>2026-08-20T19:05:11Z</time></trkpt><trkpt lat="59.1022593901" lon="30.4703796376"><ele>300.55</ele><time>2026-08-20T19:05:12Z</time></trkpt><trkpt lat="59.1022593901" lon="30.4703796376"><ele>300.55</ele><time>2026-08-20T19:05:13Z</time></trkpt><trkpt lat="59.1022593901" lon="30.4703796376"><ele>300.55</ele><time>2026-08-20T19:05:14Z</time></trkpt><trkpt lat="59.1022593901" lon="30.4703796376"><ele>300.55</ele><time>2026-08-20T19:05:15Z</time></trkpt><trkpt lat="59.1022593901" lon="30.4703796376"><ele>301.03</ele><time>2026-08-20T19:05:16Z</time></trkpt><trkpt lat="59.1022593901" lon="30.4703796376"><ele>301.03</ele><time>2026-08-20T19:05:17Z</time></trkpt><trkpt lat="59.1022593901" lon="30.4703796376"><ele>301.03</ele><time>2026-08-20T19:05:18Z</time></trkpt><trkpt lat="59.1022593901" lon="30.4703796376"><ele>301.03</ele><time>2026-08-20T19:05:19Z</time></trkpt><trkpt lat="59.1021902394" lon="30.4704645462"><ele>301.03</ele><time>2026-08-20T19:05:20Z</time></trkpt><trkpt lat="59.1021812707" lon="30.4704639595"><ele>301.03</ele><time>2026-08-20T19:05:21Z</time></trkpt><trkpt lat="59.1021739785" lon="30.4704662226"><ele>301.03</ele><time>2026-08-20T19:05:22Z</time></trkpt><trkpt lat="59.1021690331" lon="30.4704745207"><ele>301.03</ele><time>2026-08-20T19:05:23Z</time></trkpt><trkpt lat="59.1021644231" lon="30.4704837408"><ele>301.03</ele><time>2026-08-20T19:05:24Z</time></trkpt><trkpt lat="59.1021587234" lon="30.4704946373"><ele>301.03</ele><time>2026-08-20T19:05:25Z</time></trkpt><trkpt lat="59.1021561250" lon="30.4705024324"><ele>301.03</ele><time>2026-08-20T19:05:26Z</time></trkpt><trkpt lat="59.1021518502" lon="30.4705092218"><ele>301.03</ele><time>2026-08-20T19:05:27Z</time></trkpt><trkpt lat="59.1021476593" lon="30.4705153406"><ele>301.03</ele><time>2026-08-20T19:05:28Z</time></trkpt><trkpt lat="59.1021470726" lon="30.4705210403"><ele>301.03</ele><time>2026-08-20T19:05:29Z</time></trkpt><trkpt lat="59.1021470726" lon="30.4705210403"><ele>301.03</ele><time>2026-08-20T19:05:30Z</time></trkpt><trkpt lat="59.1021470726" lon="30.4705210403"><ele>301.03</ele><time>2026-08-20T19:05:31Z</time></trkpt><trkpt lat="59.1021509282" lon="30.4705301765"><ele>301.03</ele><time>2026-08-20T19:05:32Z</time></trkpt><trkpt lat="59.1021560412" lon="30.4705350380"><ele>301.03</ele><time>2026-08-20T19:05:33Z</time></trkpt><trkpt lat="59.1021630820" lon="30.4705434199"><ele>301.03</ele><time>2026-08-20T19:05:34Z</time></trkpt><trkpt lat="59.1021655966" lon="30.4705557413"><ele>301.03</ele><time>2026-08-20T19:05:35Z</time></trkpt><trkpt lat="59.1021698713" lon="30.4705617763"><ele>301.03</ele><time>2026-08-20T19:05:36Z</time></trkpt><trkpt lat="59.1021666862" lon="30.4705675598"><ele>301.03</ele><time>2026-08-20T19:05:37Z</time></trkpt><trkpt lat="59.1021690331" lon="30.4705702420"><ele>301.03</ele><time>2026-08-20T19:05:38Z</time></trkpt><trkpt lat="59.1021690331" lon="30.4705756903"><ele>301.03</ele><time>2026-08-20T19:05:39Z</time></trkpt><trkpt lat="59.1021690331" lon="30.4705756903"><ele>301.03</ele><time>2026-08-20T19:05:40Z</time></trkpt><trkpt lat="59.1021690331" lon="30.4705756903"><ele>301.03</ele><time>2026-08-20T19:05:41Z</time></trkpt><trkpt lat="59.1021690331" lon="30.4705756903"><ele>301.03</ele><time>2026-08-20T19:05:42Z</time></trkpt><trkpt lat="59.1021690331" lon="30.4705756903"><ele>301.03</ele><time>2026-08-20T19:05:43Z</time></trkpt><trkpt lat="59.1021690331" lon="30.4705756903"><ele>301.03</ele><time>2026-08-20T19:05:44Z</time></trkpt><trkpt lat="59.1021690331" lon="30.4705756903"><ele>301.03</ele><time>2026-08-20T19:05:45Z</time></trkpt><trkpt lat="59.1021690331" lon="30.4705756903"><ele>301.03</ele><time>2026-08-20T19:05:46Z</time></trkpt><trkpt lat="59.1021690331" lon="30.4705756903"><ele>301.03</ele><time>2026-08-20T19:05:47Z</time></trkpt><trkpt lat="59.1021690331" lon="30.4705756903"><ele>301.03</ele><time>2026-08-20T19:05:48Z</time></trkpt><trkpt lat="59.1021690331" lon="30.4705756903"><ele>301.03</ele><time>2026-08-20T19:05:49Z</time></trkpt><trkpt lat="59.1021690331" lon="30.4705756903"><ele>301.03</ele><time>2026-08-20T19:05:50Z</time></trkpt><trkpt lat="59.1021690331" lon="30.4705756903"><ele>301.03</ele><time>2026-08-20T19:05:51Z</time></trkpt><trkpt lat="59.1021690331" lon="30.4705756903"><ele>301.03</ele><time>2026-08-20T19:05:52Z</time></trkpt><trkpt lat="59.1021876410" lon="30.4705978185"><ele>301.03</ele><time>2026-08-20T19:05:53Z</time></trkpt><trkpt lat="59.1021945979" lon="30.4706047755"><ele>301.03</ele><time>2026-08-20T19:05:54Z</time></trkpt><trkpt lat="59.1021992918" lon="30.4706082959"><ele>301.03</ele><time>2026-08-20T19:05:55Z</time></trkpt><trkpt lat="59.1022014711" lon="30.4706082959"><ele>301.03</ele><time>2026-08-20T19:05:56Z</time></trkpt><trkpt lat="59.1022071708" lon="30.4706080444"><ele>301.03</ele><time>2026-08-20T19:05:57Z</time></trkpt><trkpt lat="59.1022073384" lon="30.4706109781"><ele>300.55</ele><time>2026-08-20T19:05:58Z</time></trkpt><trkpt lat="59.1022107750" lon="30.4706032667"><ele>300.55</ele><time>2026-08-20T19:05:59Z</time></trkpt><trkpt lat="59.1022100206" lon="30.4706088826"><ele>300.55</ele><time>2026-08-20T19:06:00Z</time></trkpt><trkpt lat="59.1022100206" lon="30.4706088826"><ele>300.55</ele><time>2026-08-20T19:06:01Z</time></trkpt><trkpt lat="59.1022100206" lon="30.4706088826"><ele>300.55</ele><time>2026-08-20T19:06:02Z</time></trkpt><trkpt lat="59.1022100206" lon="30.4706088826"><ele>300.55</ele><time>2026-08-20T19:06:03Z</time></trkpt><trkpt lat="59.1022100206" lon="30.4706088826"><ele>300.55</ele><time>2026-08-20T19:06:04Z</time></trkpt><trkpt lat="59.1022100206" lon="30.4706088826"><ele>300.55</ele><time>2026-08-20T19:06:05Z</time></trkpt><trkpt lat="59.1022100206" lon="30.4706088826"><ele>300.55</ele><time>2026-08-20T19:06:06Z</time></trkpt><trkpt lat="59.1022100206" lon="30.4706088826"><ele>300.55</ele><time>2026-08-20T19:06:07Z</time></trkpt><trkpt lat="59.1022100206" lon="30.4706088826"><ele>300.55</ele><time>2026-08-20T19:06:08Z</time></trkpt><trkpt lat="59.1022100206" lon="30.4706088826"><ele>300.55</ele><time>2026-08-20T19:06:09Z</time></trkpt><trkpt lat="59.1022100206" lon="30.4706088826"><ele>301.03</ele><time>2026-08-20T19:06:10Z</time></trkpt><trkpt lat="59.1022100206" lon="30.4706088826"><ele>301.03</ele><time>2026-08-20T19:06:11Z</time></trkpt><trkpt lat="59.1022100206" lon="30.4706088826"><ele>301.03</ele><time>2026-08-20T19:06:12Z</time></trkpt><trkpt lat="59.1022100206" lon="30.4706088826"><ele>301.03</ele><time>2026-08-20T19:06:13Z</time></trkpt><trkpt lat="59.1022100206" lon="30.4706088826"><ele>301.03</ele><time>2026-08-20T19:06:14Z</time></trkpt><trkpt lat="59.1022100206" lon="30.4706088826"><ele>301.03</ele><time>2026-08-20T19:06:15Z</time></trkpt><trkpt lat="59.1022100206" lon="30.4706088826"><ele>301.03</ele><time>2026-08-20T19:06:16Z</time></trkpt><trkpt lat="59.1022100206" lon="30.4706088826"><ele>301.03</ele><time>2026-08-20T19:06:17Z</time></trkpt><trkpt lat="59.1022100206" lon="30.4706088826"><ele>301.03</ele><time>2026-08-20T19:06:18Z</time></trkpt><trkpt lat="59.1022100206" lon="30.4706088826"><ele>301.03</ele><time>2026-08-20T19:06:19Z</time></trkpt><trkpt lat="59.1022100206" lon="30.4706088826"><ele>301.03</ele><time>2026-08-20T19:06:20Z</time></trkpt><trkpt lat="59.1022100206" lon="30.4706088826"><ele>301.03</ele><time>2026-08-20T19:06:21Z</time></trkpt><trkpt lat="59.1022100206" lon="30.4706088826"><ele>301.03</ele><time>2026-08-20T19:06:22Z</time></trkpt><trkpt lat="59.1022100206" lon="30.4706088826"><ele>301.03</ele><time>2026-08-20T19:06:23Z</time></trkpt><trkpt lat="59.1022100206" lon="30.4706088826"><ele>301.03</ele><time>2026-08-20T19:06:24Z</time></trkpt><trkpt lat="59.1022100206" lon="30.4706088826"><ele>301.03</ele><time>2026-08-20T19:06:25Z</time></trkpt><trkpt lat="59.1022100206" lon="30.4706088826"><ele>301.03</ele><time>2026-08-20T19:06:26Z</time></trkpt><trkpt lat="59.1022100206" lon="30.4706088826"><ele>301.03</ele><time>2026-08-20T19:06:27Z</time></trkpt><trkpt lat="59.1022100206" lon="30.4706088826"><ele>301.03</ele><time>2026-08-20T19:06:28Z</time></trkpt><trkpt lat="59.1022100206" lon="30.4706088826"><ele>301.03</ele><time>2026-08-20T19:06:29Z</time></trkpt><trkpt lat="59.1022100206" lon="30.4706088826"><ele>301.03</ele><time>2026-08-20T19:06:30Z</time></trkpt><trkpt lat="59.1022100206" lon="30.4706088826"><ele>301.03</ele><time>2026-08-20T19:06:31Z</time></trkpt><trkpt lat="59.1022100206" lon="30.4706088826"><ele>301.03</ele><time>2026-08-20T19:06:32Z</time></trkpt><trkpt lat="59.1022100206" lon="30.4706088826"><ele>301.03</ele><time>2026-08-20T19:06:33Z</time></trkpt><trkpt lat="59.1022100206" lon="30.4706088826"><ele>301.03</ele><time>2026-08-20T19:06:34Z</time></trkpt><trkpt lat="59.1022100206" lon="30.4706088826"><ele>301.03</ele><time>2026-08-20T19:06:35Z</time></trkpt><trkpt lat="59.1022100206" lon="30.4706088826"><ele>301.03</ele><time>2026-08-20T19:06:36Z</time></trkpt><trkpt lat="59.1022100206" lon="30.4706088826"><ele>301.03</ele><time>2026-08-20T19:06:37Z</time></trkpt><trkpt lat="59.1022100206" lon="30.4706088826"><ele>301.03</ele><time>2026-08-20T19:06:38Z</time></trkpt><trkpt lat="59.1022100206" lon="30.4706088826"><ele>301.03</ele><time>2026-08-20T19:06:39Z</time></trkpt><trkpt lat="59.1022100206" lon="30.4706088826"><ele>301.03</ele><time>2026-08-20T19:06:40Z</time></trkpt><trkpt lat="59.1022100206" lon="30.4706088826"><ele>301.03</ele><time>2026-08-20T19:06:41Z</time></trkpt><trkpt lat="59.1022100206" lon="30.4706088826"><ele>301.03</ele><time>2026-08-20T19:06:42Z</time></trkpt><trkpt lat="59.1022100206" lon="30.4706088826"><ele>301.03</ele><time>2026-08-20T19:06:43Z</time></trkpt><trkpt lat="59.1022100206" lon="30.4706088826"><ele>301.03</ele><time>2026-08-20T19:06:44Z</time></trkpt><trkpt lat="59.1022100206" lon="30.4706088826"><ele>301.03</ele><time>2026-08-20T19:06:45Z</time></trkpt><trkpt lat="59.1022100206" lon="30.4706088826"><ele>301.03</ele><time>2026-08-20T19:06:46Z</time></trkpt><trkpt lat="59.1022100206" lon="30.4706088826"><ele>300.55</ele><time>2026-08-20T19:06:47Z</time></trkpt><trkpt lat="59.1022100206" lon="30.4706088826"><ele>300.55</ele><time>2026-08-20T19:06:48Z</time></trkpt><trkpt lat="59.1022100206" lon="30.4706088826"><ele>300.55</ele><time>2026-08-20T19:06:49Z</time></trkpt><trkpt lat="59.1022100206" lon="30.4706088826"><ele>300.55</ele><time>2026-08-20T19:06:50Z</time></trkpt><trkpt lat="59.1022100206" lon="30.4706088826"><ele>300.55</ele><time>2026-08-20T19:06:51Z</time></trkpt><trkpt lat="59.1022100206" lon="30.4706088826"><ele>301.03</ele><time>2026-08-20T19:06:52Z</time></trkpt><trkpt lat="59.1022100206" lon="30.4706088826"><ele>301.03</ele><time>2026-08-20T19:06:53Z</time></trkpt><trkpt lat="59.1022100206" lon="30.4706088826"><ele>301.03</ele><time>2026-08-20T19:06:54Z</time></trkpt><trkpt lat="59.1022100206" lon="30.4706088826"><ele>301.03</ele><time>2026-08-20T19:06:55Z</time></trkpt><trkpt lat="59.1022100206" lon="30.4706088826"><ele>301.03</ele><time>2026-08-20T19:06:56Z</time></trkpt><trkpt lat="59.1022100206" lon="30.4706088826"><ele>301.03</ele><time>2026-08-20T19:06:57Z</time></trkpt><trkpt lat="59.1022100206" lon="30.4706088826"><ele>301.03</ele><time>2026-08-20T19:06:58Z</time></trkpt><trkpt lat="59.1022100206" lon="30.4706088826"><ele>301.03</ele><time>2026-08-20T19:06:59Z</time></trkpt><trkpt lat="59.1022100206" lon="30.4706088826"><ele>301.03</ele><time>2026-08-20T19:07:00Z</time></trkpt><trkpt lat="59.1022100206" lon="30.4706088826"><ele>301.03</ele><time>2026-08-20T19:07:01Z</time></trkpt><trkpt lat="59.1022100206" lon="30.4706088826"><ele>301.03</ele><time>2026-08-20T19:07:02Z</time></trkpt><trkpt lat="59.1022100206" lon="30.4706088826"><ele>301.03</ele><time>2026-08-20T19:07:03Z</time></trkpt><trkpt lat="59.1022100206" lon="30.4706088826"><ele>301.03</ele><time>2026-08-20T19:07:04Z</time></trkpt><trkpt lat="59.1022100206" lon="30.4706088826"><ele>301.03</ele><time>2026-08-20T19:07:05Z</time></trkpt><trkpt lat="59.1022100206" lon="30.4706088826"><ele>301.03</ele><time>2026-08-20T19:07:06Z</time></trkpt><trkpt lat="59.1022100206" lon="30.4706088826"><ele>301.03</ele><time>2026-08-20T19:07:07Z</time></trkpt><trkpt lat="59.1022100206" lon="30.4706088826"><ele>301.03</ele><time>2026-08-20T19:07:08Z</time></trkpt><trkpt lat="59.1022100206" lon="30.4706088826"><ele>301.03</ele><time>2026-08-20T19:07:09Z</time></trkpt><trkpt lat="59.1022100206" lon="30.4706088826"><ele>301.03</ele><time>2026-08-20T19:07:10Z</time></trkpt><trkpt lat="59.1022100206" lon="30.4706088826"><ele>301.03</ele><time>2026-08-20T19:07:11Z</time></trkpt><trkpt lat="59.1022100206" lon="30.4706088826"><ele>301.03</ele><time>2026-08-20T19:07:12Z</time></trkpt><trkpt lat="59.1022100206" lon="30.4706088826"><ele>300.55</ele><time>2026-08-20T19:07:13Z</time></trkpt><trkpt lat="59.1022100206" lon="30.4706088826"><ele>300.55</ele><time>2026-08-20T19:07:14Z</time></trkpt><trkpt lat="59.1022100206" lon="30.4706088826"><ele>300.55</ele><time>2026-08-20T19:07:15Z</time></trkpt><trkpt lat="59.1022100206" lon="30.4706088826"><ele>300.55</ele><time>2026-08-20T19:07:16Z</time></trkpt><trkpt lat="59.1022100206" lon="30.4706088826"><ele>300.55</ele><time>2026-08-20T19:07:17Z</time></trkpt><trkpt lat="59.1022100206" lon="30.4706088826"><ele>300.55</ele><time>2026-08-20T19:07:18Z</time></trkpt><trkpt lat="59.1022100206" lon="30.4706088826"><ele>300.55</ele><time>2026-08-20T19:07:19Z</time></trkpt><trkpt lat="59.1022100206" lon="30.4706088826"><ele>300.55</ele><time>2026-08-20T19:07:20Z</time></trkpt><trkpt lat="59.1022100206" lon="30.4706088826"><ele>300.55</ele><time>2026-08-20T19:07:21Z</time></trkpt><trkpt lat="59.1022100206" lon="30.4706088826"><ele>300.55</ele><time>2026-08-20T19:07:22Z</time></trkpt><trkpt lat="59.1022100206" lon="30.4706088826"><ele>300.55</ele><time>2026-08-20T19:07:23Z</time></trkpt><trkpt lat="59.1022100206" lon="30.4706088826"><ele>300.55</ele><time>2026-08-20T19:07:24Z</time></trkpt><trkpt lat="59.1022100206" lon="30.4706088826"><ele>300.55</ele><time>2026-08-20T19:07:25Z</time></trkpt><trkpt lat="59.1022100206" lon="30.4706088826"><ele>300.55</ele><time>2026-08-20T19:07:26Z</time></trkpt><trkpt lat="59.1022100206" lon="30.4706088826"><ele>300.55</ele><time>2026-08-20T19:07:27Z</time></trkpt><trkpt lat="59.1022100206" lon="30.4706088826"><ele>300.55</ele><time>2026-08-20T19:07:28Z</time></trkpt><trkpt lat="59.1022100206" lon="30.4706088826"><ele>300.55</ele><time>2026-08-20T19:07:29Z</time></trkpt><trkpt lat="59.1022100206" lon="30.4706088826"><ele>300.55</ele><time>2026-08-20T19:07:30Z</time></trkpt><trkpt lat="59.1022100206" lon="30.4706088826"><ele>300.55</ele><time>2026-08-20T19:07:31Z</time></trkpt><trkpt lat="59.1022100206" lon="30.4706088826"><ele>300.55</ele><time>2026-08-20T19:07:32Z</time></trkpt><trkpt lat="59.1022100206" lon="30.4706088826"><ele>300.55</ele><time>2026-08-20T19:07:33Z</time></trkpt><trkpt lat="59.1022100206" lon="30.4706088826"><ele>300.55</ele><time>2026-08-20T19:07:34Z</time></trkpt><trkpt lat="59.1022100206" lon="30.4706088826"><ele>300.55</ele><time>2026-08-20T19:07:35Z</time></trkpt><trkpt lat="59.1022100206" lon="30.4706088826"><ele>300.55</ele><time>2026-08-20T19:07:36Z</time></trkpt><trkpt lat="59.1022100206" lon="30.4706088826"><ele>300.55</ele><time>2026-08-20T19:07:37Z</time></trkpt><trkpt lat="59.1022100206" lon="30.4706088826"><ele>300.55</ele><time>2026-08-20T19:07:38Z</time></trkpt><trkpt lat="59.1022100206" lon="30.4706088826"><ele>300.55</ele><time>2026-08-20T19:07:39Z</time></trkpt><trkpt lat="59.1022100206" lon="30.4706088826"><ele>300.55</ele><time>2026-08-20T19:07:40Z</time></trkpt><trkpt lat="59.1022100206" lon="30.4706088826"><ele>300.55</ele><time>2026-08-20T19:07:41Z</time></trkpt><trkpt lat="59.1022100206" lon="30.4706088826"><ele>300.55</ele><time>2026-08-20T19:07:42Z</time></trkpt><trkpt lat="59.1022100206" lon="30.4706088826"><ele>300.55</ele><time>2026-08-20T19:07:43Z</time></trkpt><trkpt lat="59.1022100206" lon="30.4706088826"><ele>300.55</ele><time>2026-08-20T19:07:44Z</time></trkpt><trkpt lat="59.1022100206" lon="30.4706088826"><ele>300.55</ele><time>2026-08-20T19:07:45Z</time></trkpt><trkpt lat="59.1022100206" lon="30.4706088826"><ele>300.55</ele><time>2026-08-20T19:07:46Z</time></trkpt><trkpt lat="59.1022100206" lon="30.4706088826"><ele>300.55</ele><time>2026-08-20T19:07:47Z</time></trkpt><trkpt lat="59.1022100206" lon="30.4706088826"><ele>300.55</ele><time>2026-08-20T19:07:48Z</time></trkpt><trkpt lat="59.1022100206" lon="30.4706088826"><ele>300.55</ele><time>2026-08-20T19:07:49Z</time></trkpt><trkpt lat="59.1022100206" lon="30.4706088826"><ele>300.55</ele><time>2026-08-20T19:07:50Z</time></trkpt><trkpt lat="59.1022100206" lon="30.4706088826"><ele>300.55</ele><time>2026-08-20T19:07:51Z</time></trkpt><trkpt lat="59.1022100206" lon="30.4706088826"><ele>300.55</ele><time>2026-08-20T19:07:52Z</time></trkpt><trkpt lat="59.1022100206" lon="30.4706088826"><ele>300.55</ele><time>2026-08-20T19:07:53Z</time></trkpt><trkpt lat="59.1022100206" lon="30.4706088826"><ele>300.55</ele><time>2026-08-20T19:07:54Z</time></trkpt><trkpt lat="59.1022100206" lon="30.4706088826"><ele>300.55</ele><time>2026-08-20T19:07:55Z</time></trkpt><trkpt lat="59.1022100206" lon="30.4706088826"><ele>300.55</ele><time>2026-08-20T19:07:56Z</time></trkpt><trkpt lat="59.1022100206" lon="30.4706088826"><ele>300.55</ele><time>2026-08-20T19:07:57Z</time></trkpt><trkpt lat="59.1022100206" lon="30.4706088826"><ele>300.55</ele><time>2026-08-20T19:07:58Z</time></trkpt><trkpt lat="59.1022100206" lon="30.4706088826"><ele>300.55</ele><time>2026-08-20T19:07:59Z</time></trkpt><trkpt lat="59.1022100206" lon="30.4706088826"><ele>300.55</ele><time>2026-08-20T19:08:00Z</time></trkpt><trkpt lat="59.1022100206" lon="30.4706088826"><ele>300.55</ele><time>2026-08-20T19:08:01Z</time></trkpt><trkpt lat="59.1022100206" lon="30.4706088826"><ele>300.55</ele><time>2026-08-20T19:08:02Z</time></trkpt><trkpt lat="59.1022100206" lon="30.4706088826"><ele>300.55</ele><time>2026-08-20T19:08:03Z</time></trkpt><trkpt lat="59.1022100206" lon="30.4706088826"><ele>300.55</ele><time>2026-08-20T19:08:04Z</time></trkpt><trkpt lat="59.1022100206" lon="30.4706088826"><ele>300.55</ele><time>2026-08-20T19:08:05Z</time></trkpt><trkpt lat="59.1022100206" lon="30.4706088826"><ele>300.55</ele><time>2026-08-20T19:08:06Z</time></trkpt><trkpt lat="59.1022100206" lon="30.4706088826"><ele>300.55</ele><time>2026-08-20T19:08:07Z</time></trkpt><trkpt lat="59.1022100206" lon="30.4706088826"><ele>300.55</ele><time>2026-08-20T19:08:08Z</time></trkpt><trkpt lat="59.1022100206" lon="30.4706088826"><ele>300.55</ele><time>2026-08-20T19:08:09Z</time></trkpt><trkpt lat="59.1022100206" lon="30.4706088826"><ele>300.55</ele><time>2026-08-20T19:08:10Z</time></trkpt><trkpt lat="59.1022100206" lon="30.4706088826"><ele>300.55</ele><time>2026-08-20T19:08:11Z</time></trkpt><trkpt lat="59.1022100206" lon="30.4706088826"><ele>300.55</ele><time>2026-08-20T19:08:12Z</time></trkpt><trkpt lat="59.1022100206" lon="30.4706088826"><ele>300.55</ele><time>2026-08-20T19:08:13Z</time></trkpt><trkpt lat="59.1022100206" lon="30.4706088826"><ele>301.03</ele><time>2026-08-20T19:08:14Z</time></trkpt><trkpt lat="59.1022100206" lon="30.4706088826"><ele>301.03</ele><time>2026-08-20T19:08:15Z</time></trkpt><trkpt lat="59.1022100206" lon="30.4706088826"><ele>301.03</ele><time>2026-08-20T19:08:16Z</time></trkpt><trkpt lat="59.1022100206" lon="30.4706088826"><ele>301.03</ele><time>2026-08-20T19:08:17Z</time></trkpt><trkpt lat="59.1022100206" lon="30.4706088826"><ele>301.03</ele><time>2026-08-20T19:08:18Z</time></trkpt><trkpt lat="59.1022100206" lon="30.4706088826"><ele>301.03</ele><time>2026-08-20T19:08:19Z</time></trkpt><trkpt lat="59.1022100206" lon="30.4706088826"><ele>301.03</ele><time>2026-08-20T19:08:20Z</time></trkpt><trkpt lat="59.1022100206" lon="30.4706088826"><ele>301.03</ele><time>2026-08-20T19:08:21Z</time></trkpt><trkpt lat="59.1022100206" lon="30.4706088826"><ele>301.03</ele><time>2026-08-20T19:08:22Z</time></trkpt><trkpt lat="59.1022100206" lon="30.4706088826"><ele>301.03</ele><time>2026-08-20T19:08:23Z</time></trkpt><trkpt lat="59.1022100206" lon="30.4706088826"><ele>301.03</ele><time>2026-08-20T19:08:24Z</time></trkpt><trkpt lat="59.1022100206" lon="30.4706088826"><ele>301.03</ele><time>2026-08-20T19:08:25Z</time></trkpt><trkpt lat="59.1022100206" lon="30.4706088826"><ele>301.03</ele><time>2026-08-20T19:08:26Z</time></trkpt><trkpt lat="59.1022100206" lon="30.4706088826"><ele>301.03</ele><time>2026-08-20T19:08:27Z</time></trkpt><trkpt lat="59.1022100206" lon="30.4706088826"><ele>301.03</ele><time>2026-08-20T19:08:28Z</time></trkpt><trkpt lat="59.1022100206" lon="30.4706088826"><ele>301.03</ele><time>2026-08-20T19:08:29Z</time></trkpt><trkpt lat="59.1022100206" lon="30.4706088826"><ele>301.03</ele><time>2026-08-20T19:08:30Z</time></trkpt><trkpt lat="59.1022100206" lon="30.4706088826"><ele>301.03</ele><time>2026-08-20T19:08:31Z</time></trkpt><trkpt lat="59.1022100206" lon="30.4706088826"><ele>301.03</ele><time>2026-08-20T19:08:32Z</time></trkpt><trkpt lat="59.1022100206" lon="30.4706088826"><ele>301.03</ele><time>2026-08-20T19:08:33Z</time></trkpt><trkpt lat="59.1022100206" lon="30.4706088826"><ele>301.03</ele><time>2026-08-20T19:08:34Z</time></trkpt><trkpt lat="59.1022100206" lon="30.4706088826"><ele>301.03</ele><time>2026-08-20T19:08:35Z</time></trkpt><trkpt lat="59.1022100206" lon="30.4706088826"><ele>301.03</ele><time>2026-08-20T19:08:36Z</time></trkpt><trkpt lat="59.1022100206" lon="30.4706088826"><ele>301.03</ele><time>2026-08-20T19:08:37Z</time></trkpt><trkpt lat="59.1022100206" lon="30.4706088826"><ele>301.03</ele><time>2026-08-20T19:08:38Z</time></trkpt><trkpt lat="59.1022100206" lon="30.4706088826"><ele>301.03</ele><time>2026-08-20T19:08:39Z</time></trkpt><trkpt lat="59.1022100206" lon="30.4706088826"><ele>301.03</ele><time>2026-08-20T19:08:40Z</time></trkpt><trkpt lat="59.1022100206" lon="30.4706088826"><ele>301.03</ele><time>2026-08-20T19:08:41Z</time></trkpt><trkpt lat="59.1022100206" lon="30.4706088826"><ele>301.03</ele><time>2026-08-20T19:08:42Z</time></trkpt><trkpt lat="59.1022100206" lon="30.4706088826"><ele>301.03</ele><time>2026-08-20T19:08:43Z</time></trkpt><trkpt lat="59.1022100206" lon="30.4706088826"><ele>301.03</ele><time>2026-08-20T19:08:44Z</time></trkpt><trkpt lat="59.1022100206" lon="30.4706088826"><ele>301.03</ele><time>2026-08-20T19:08:45Z</time></trkpt><trkpt lat="59.1022100206" lon="30.4706088826"><ele>301.03</ele><time>2026-08-20T19:08:46Z</time></trkpt><trkpt lat="59.1022100206" lon="30.4706088826"><ele>301.03</ele><time>2026-08-20T19:08:47Z</time></trkpt><trkpt lat="59.1022100206" lon="30.4706088826"><ele>301.03</ele><time>2026-08-20T19:08:48Z</time></trkpt><trkpt lat="59.1022100206" lon="30.4706088826"><ele>301.03</ele><time>2026-08-20T19:08:49Z</time></trkpt><trkpt lat="59.1022100206" lon="30.4706088826"><ele>300.55</ele><time>2026-08-20T19:08:50Z</time></trkpt><trkpt lat="59.1022100206" lon="30.4706088826"><ele>300.55</ele><time>2026-08-20T19:08:51Z</time></trkpt><trkpt lat="59.1022100206" lon="30.4706088826"><ele>300.55</ele><time>2026-08-20T19:08:52Z</time></trkpt><trkpt lat="59.1022100206" lon="30.4706088826"><ele>300.55</ele><time>2026-08-20T19:08:53Z</time></trkpt><trkpt lat="59.1022100206" lon="30.4706088826"><ele>300.55</ele><time>2026-08-20T19:08:54Z</time></trkpt><trkpt lat="59.1022100206" lon="30.4706088826"><ele>300.55</ele><time>2026-08-20T19:08:55Z</time></trkpt><trkpt lat="59.1022100206" lon="30.4706088826"><ele>300.55</ele><time>2026-08-20T19:08:56Z</time></trkpt><trkpt lat="59.1022100206" lon="30.4706088826"><ele>300.55</ele><time>2026-08-20T19:08:57Z</time></trkpt><trkpt lat="59.1022100206" lon="30.4706088826"><ele>300.55</ele><time>2026-08-20T19:08:58Z</time></trkpt><trkpt lat="59.1022100206" lon="30.4706088826"><ele>300.55</ele><time>2026-08-20T19:08:59Z</time></trkpt><trkpt lat="59.1022100206" lon="30.4706088826"><ele>300.55</ele><time>2026-08-20T19:09:00Z</time></trkpt><trkpt lat="59.1022100206" lon="30.4706088826"><ele>300.55</ele><time>2026-08-20T19:09:01Z</time></trkpt><trkpt lat="59.1022100206" lon="30.4706088826"><ele>300.55</ele><time>2026-08-20T19:09:02Z</time></trkpt><trkpt lat="59.1022100206" lon="30.4706088826"><ele>300.55</ele><time>2026-08-20T19:09:03Z</time></trkpt><trkpt lat="59.1022100206" lon="30.4706088826"><ele>300.55</ele><time>2026-08-20T19:09:04Z</time></trkpt><trkpt lat="59.1022100206" lon="30.4706088826"><ele>300.55</ele><time>2026-08-20T19:09:05Z</time></trkpt><trkpt lat="59.1022100206" lon="30.4706088826"><ele>300.55</ele><time>2026-08-20T19:09:06Z</time></trkpt><trkpt lat="59.1022100206" lon="30.4706088826"><ele>300.55</ele><time>2026-08-20T19:09:07Z</time></trkpt><trkpt lat="59.1022100206" lon="30.4706088826"><ele>301.03</ele><time>2026-08-20T19:09:08Z</time></trkpt><trkpt lat="59.1022100206" lon="30.4706088826"><ele>301.03</ele><time>2026-08-20T19:09:09Z</time></trkpt><trkpt lat="59.1022100206" lon="30.4706088826"><ele>301.03</ele><time>2026-08-20T19:09:10Z</time></trkpt><trkpt lat="59.1022100206" lon="30.4706088826"><ele>301.03</ele><time>2026-08-20T19:09:11Z</time></trkpt><trkpt lat="59.1022100206" lon="30.4706088826"><ele>301.03</ele><time>2026-08-20T19:09:12Z</time></trkpt><trkpt lat="59.1022100206" lon="30.4706088826"><ele>301.03</ele><time>2026-08-20T19:09:13Z</time></trkpt><trkpt lat="59.1022100206" lon="30.4706088826"><ele>301.03</ele><time>2026-08-20T19:09:14Z</time></trkpt><trkpt lat="59.1022100206" lon="30.4706088826"><ele>301.03</ele><time>2026-08-20T19:09:15Z</time></trkpt><trkpt lat="59.1022100206" lon="30.4706088826"><ele>301.03</ele><time>2026-08-20T19:09:16Z</time></trkpt><trkpt lat="59.1022100206" lon="30.4706088826"><ele>301.03</ele><time>2026-08-20T19:09:17Z</time></trkpt><trkpt lat="59.1022100206" lon="30.4706088826"><ele>301.03</ele><time>2026-08-20T19:09:18Z</time></trkpt><trkpt lat="59.1022100206" lon="30.4706088826"><ele>301.03</ele><time>2026-08-20T19:09:19Z</time></trkpt><trkpt lat="59.1022100206" lon="30.4706088826"><ele>301.03</ele><time>2026-08-20T19:09:20Z</time></trkpt><trkpt lat="59.1022100206" lon="30.4706088826"><ele>301.03</ele><time>2026-08-20T19:09:21Z</time></trkpt><trkpt lat="59.1022100206" lon="30.4706088826"><ele>301.03</ele><time>2026-08-20T19:09:22Z</time></trkpt><trkpt lat="59.1022100206" lon="30.4706088826"><ele>301.03</ele><time>2026-08-20T19:09:23Z</time></trkpt><trkpt lat="59.1022100206" lon="30.4706088826"><ele>301.03</ele><time>2026-08-20T19:09:24Z</time></trkpt><trkpt lat="59.1022100206" lon="30.4706088826"><ele>300.55</ele><time>2026-08-20T19:09:25Z</time></trkpt><trkpt lat="59.1022100206" lon="30.4706088826"><ele>300.55</ele><time>2026-08-20T19:09:26Z</time></trkpt><trkpt lat="59.1022100206" lon="30.4706088826"><ele>301.03</ele><time>2026-08-20T19:09:27Z</time></trkpt><trkpt lat="59.1022100206" lon="30.4706088826"><ele>301.03</ele><time>2026-08-20T19:09:28Z</time></trkpt><trkpt lat="59.1022100206" lon="30.4706088826"><ele>301.03</ele><time>2026-08-20T19:09:29Z</time></trkpt><trkpt lat="59.1022100206" lon="30.4706088826"><ele>301.03</ele><time>2026-08-20T19:09:30Z</time></trkpt><trkpt lat="59.1022100206" lon="30.4706088826"><ele>301.03</ele><time>2026-08-20T19:09:31Z</time></trkpt><trkpt lat="59.1022100206" lon="30.4706088826"><ele>301.03</ele><time>2026-08-20T19:09:32Z</time></trkpt><trkpt lat="59.1022100206" lon="30.4706088826"><ele>301.03</ele><time>2026-08-20T19:09:33Z</time></trkpt><trkpt lat="59.1022100206" lon="30.4706088826"><ele>301.03</ele><time>2026-08-20T19:09:34Z</time></trkpt><trkpt lat="59.1022100206" lon="30.4706088826"><ele>301.03</ele><time>2026-08-20T19:09:35Z</time></trkpt><trkpt lat="59.1022100206" lon="30.4706088826"><ele>301.03</ele><time>2026-08-20T19:09:36Z</time></trkpt><trkpt lat="59.1022100206" lon="30.4706088826"><ele>301.03</ele><time>2026-08-20T19:09:37Z</time></trkpt><trkpt lat="59.1022100206" lon="30.4706088826"><ele>301.03</ele><time>2026-08-20T19:09:38Z</time></trkpt><trkpt lat="59.1022100206" lon="30.4706088826"><ele>301.03</ele><time>2026-08-20T19:09:39Z</time></trkpt><trkpt lat="59.1022100206" lon="30.4706088826"><ele>301.03</ele><time>2026-08-20T19:09:40Z</time></trkpt><trkpt lat="59.1022100206" lon="30.4706088826"><ele>301.03</ele><time>2026-08-20T19:09:41Z</time></trkpt><trkpt lat="59.1022100206" lon="30.4706088826"><ele>301.03</ele><time>2026-08-20T19:09:42Z</time></trkpt><trkpt lat="59.1022100206" lon="30.4706088826"><ele>301.03</ele><time>2026-08-20T19:09:43Z</time></trkpt><trkpt lat="59.1022100206" lon="30.4706088826"><ele>301.03</ele><time>2026-08-20T19:09:44Z</time></trkpt><trkpt lat="59.1022100206" lon="30.4706088826"><ele>301.03</ele><time>2026-08-20T19:09:45Z</time></trkpt><trkpt lat="59.1022100206" lon="30.4706088826"><ele>301.03</ele><time>2026-08-20T19:09:46Z</time></trkpt><trkpt lat="59.1022100206" lon="30.4706088826"><ele>301.03</ele><time>2026-08-20T19:09:47Z</time></trkpt><trkpt lat="59.1022100206" lon="30.4706088826"><ele>301.03</ele><time>2026-08-20T19:09:48Z</time></trkpt><trkpt lat="59.1022100206" lon="30.4706088826"><ele>301.03</ele><time>2026-08-20T19:09:49Z</time></trkpt><trkpt lat="59.1022100206" lon="30.4706088826"><ele>301.03</ele><time>2026-08-20T19:09:50Z</time></trkpt><trkpt lat="59.1022100206" lon="30.4706088826"><ele>301.03</ele><time>2026-08-20T19:09:51Z</time></trkpt><trkpt lat="59.1022100206" lon="30.4706088826"><ele>301.03</ele><time>2026-08-20T19:09:52Z</time></trkpt><trkpt lat="59.1022100206" lon="30.4706088826"><ele>301.03</ele><time>2026-08-20T19:09:53Z</time></trkpt><trkpt lat="59.1022100206" lon="30.4706088826"><ele>301.03</ele><time>2026-08-20T19:09:54Z</time></trkpt><trkpt lat="59.1022100206" lon="30.4706088826"><ele>301.03</ele><time>2026-08-20T19:09:55Z</time></trkpt><trkpt lat="59.1022100206" lon="30.4706088826"><ele>301.03</ele><time>2026-08-20T19:09:56Z</time></trkpt><trkpt lat="59.1022100206" lon="30.4706088826"><ele>301.03</ele><time>2026-08-20T19:09:57Z</time></trkpt><trkpt lat="59.1022100206" lon="30.4706088826"><ele>301.03</ele><time>2026-08-20T19:09:58Z</time></trkpt><trkpt lat="59.1022100206" lon="30.4706088826"><ele>301.03</ele><time>2026-08-20T19:09:59Z</time></trkpt><trkpt lat="59.1022100206" lon="30.4706088826"><ele>301.03</ele><time>2026-08-20T19:10:00Z</time></trkpt><trkpt lat="59.1022100206" lon="30.4706088826"><ele>301.03</ele><time>2026-08-20T19:10:01Z</time></trkpt><trkpt lat="59.1022100206" lon="30.4706088826"><ele>301.03</ele><time>2026-08-20T19:10:02Z</time></trkpt><trkpt lat="59.1022100206" lon="30.4706088826"><ele>301.03</ele><time>2026-08-20T19:10:03Z</time></trkpt><trkpt lat="59.1022100206" lon="30.4706088826"><ele>301.03</ele><time>2026-08-20T19:10:04Z</time></trkpt><trkpt lat="59.1022100206" lon="30.4706088826"><ele>301.03</ele><time>2026-08-20T19:10:05Z</time></trkpt><trkpt lat="59.1022100206" lon="30.4706088826"><ele>301.03</ele><time>2026-08-20T19:10:06Z</time></trkpt><trkpt lat="59.1022100206" lon="30.4706088826"><ele>301.03</ele><time>2026-08-20T19:10:07Z</time></trkpt><trkpt lat="59.1022100206" lon="30.4706088826"><ele>301.03</ele><time>2026-08-20T19:10:08Z</time></trkpt><trkpt lat="59.1022100206" lon="30.4706088826"><ele>301.03</ele><time>2026-08-20T19:10:09Z</time></trkpt><trkpt lat="59.1022100206" lon="30.4706088826"><ele>301.03</ele><time>2026-08-20T19:10:10Z</time></trkpt><trkpt lat="59.1022100206" lon="30.4706088826"><ele>301.03</ele><time>2026-08-20T19:10:11Z</time></trkpt><trkpt lat="59.1022100206" lon="30.4706088826"><ele>301.03</ele><time>2026-08-20T19:10:12Z</time></trkpt><trkpt lat="59.1022100206" lon="30.4706088826"><ele>301.03</ele><time>2026-08-20T19:10:13Z</time></trkpt><trkpt lat="59.1022100206" lon="30.4706088826"><ele>301.03</ele><time>2026-08-20T19:10:14Z</time></trkpt><trkpt lat="59.1022100206" lon="30.4706088826"><ele>301.03</ele><time>2026-08-20T19:10:15Z</time></trkpt><trkpt lat="59.1022100206" lon="30.4706088826"><ele>301.03</ele><time>2026-08-20T19:10:16Z</time></trkpt><trkpt lat="59.1022100206" lon="30.4706088826"><ele>301.03</ele><time>2026-08-20T19:10:17Z</time></trkpt><trkpt lat="59.1022100206" lon="30.4706088826"><ele>300.55</ele><time>2026-08-20T19:10:18Z</time></trkpt><trkpt lat="59.1022100206" lon="30.4706088826"><ele>300.55</ele><time>2026-08-20T19:10:19Z</time></trkpt><trkpt lat="59.1022100206" lon="30.4706088826"><ele>300.55</ele><time>2026-08-20T19:10:20Z</time></trkpt><trkpt lat="59.1022100206" lon="30.4706088826"><ele>300.55</ele><time>2026-08-20T19:10:21Z</time></trkpt><trkpt lat="59.1022100206" lon="30.4706088826"><ele>300.55</ele><time>2026-08-20T19:10:22Z</time></trkpt><trkpt lat="59.1022100206" lon="30.4706088826"><ele>300.55</ele><time>2026-08-20T19:10:23Z</time></trkpt><trkpt lat="59.1022100206" lon="30.4706088826"><ele>300.55</ele><time>2026-08-20T19:10:24Z</time></trkpt><trkpt lat="59.1022100206" lon="30.4706088826"><ele>300.55</ele><time>2026-08-20T19:10:25Z</time></trkpt><trkpt lat="59.1022100206" lon="30.4706088826"><ele>300.55</ele><time>2026-08-20T19:10:26Z</time></trkpt><trkpt lat="59.1022100206" lon="30.4706088826"><ele>300.55</ele><time>2026-08-20T19:10:27Z</time></trkpt><trkpt lat="59.1022100206" lon="30.4706088826"><ele>300.55</ele><time>2026-08-20T19:10:28Z</time></trkpt><trkpt lat="59.1022100206" lon="30.4706088826"><ele>301.03</ele><time>2026-08-20T19:10:29Z</time></trkpt><trkpt lat="59.1022100206" lon="30.4706088826"><ele>301.03</ele><time>2026-08-20T19:10:30Z</time></trkpt><trkpt lat="59.1022100206" lon="30.4706088826"><ele>301.03</ele><time>2026-08-20T19:10:31Z</time></trkpt><trkpt lat="59.1022100206" lon="30.4706088826"><ele>301.03</ele><time>2026-08-20T19:10:32Z</time></trkpt><trkpt lat="59.1021227650" lon="30.4706656281"><ele>301.03</ele><time>2026-08-20T19:10:33Z</time></trkpt><trkpt lat="59.1021209210" lon="30.4706661310"><ele>301.03</ele><time>2026-08-20T19:10:34Z</time></trkpt><trkpt lat="59.1021213401" lon="30.4706652928"><ele>301.03</ele><time>2026-08-20T19:10:35Z</time></trkpt><trkpt lat="59.1021202505" lon="30.4706656281"><ele>300.55</ele><time>2026-08-20T19:10:36Z</time></trkpt><trkpt lat="59.1021202505" lon="30.4706656281"><ele>300.55</ele><time>2026-08-20T19:10:37Z</time></trkpt><trkpt lat="59.1021202505" lon="30.4706656281"><ele>300.55</ele><time>2026-08-20T19:10:38Z</time></trkpt><trkpt lat="59.1021202505" lon="30.4706656281"><ele>300.55</ele><time>2026-08-20T19:10:39Z</time></trkpt><trkpt lat="59.1021202505" lon="30.4706656281"><ele>300.55</ele><time>2026-08-20T19:10:40Z</time></trkpt><trkpt lat="59.1021202505" lon="30.4706656281"><ele>300.55</ele><time>2026-08-20T19:10:41Z</time></trkpt><trkpt lat="59.1021202505" lon="30.4706656281"><ele>300.55</ele><time>2026-08-20T19:10:42Z</time></trkpt><trkpt lat="59.1021202505" lon="30.4706656281"><ele>300.55</ele><time>2026-08-20T19:10:43Z</time></trkpt><trkpt lat="59.1021202505" lon="30.4706656281"><ele>300.55</ele><time>2026-08-20T19:10:44Z</time></trkpt><trkpt lat="59.1021202505" lon="30.4706656281"><ele>300.55</ele><time>2026-08-20T19:10:45Z</time></trkpt><trkpt lat="59.1021202505" lon="30.4706656281"><ele>300.55</ele><time>2026-08-20T19:10:46Z</time></trkpt><trkpt lat="59.1021202505" lon="30.4706656281"><ele>300.55</ele><time>2026-08-20T19:10:47Z</time></trkpt><trkpt lat="59.1021202505" lon="30.4706656281"><ele>300.55</ele><time>2026-08-20T19:10:48Z</time></trkpt><trkpt lat="59.1021202505" lon="30.4706656281"><ele>300.55</ele><time>2026-08-20T19:10:49Z</time></trkpt><trkpt lat="59.1021202505" lon="30.4706656281"><ele>300.55</ele><time>2026-08-20T19:10:50Z</time></trkpt><trkpt lat="59.1021202505" lon="30.4706656281"><ele>300.55</ele><time>2026-08-20T19:10:51Z</time></trkpt><trkpt lat="59.1021202505" lon="30.4706656281"><ele>300.55</ele><time>2026-08-20T19:10:52Z</time></trkpt><trkpt lat="59.1021202505" lon="30.4706656281"><ele>300.55</ele><time>2026-08-20T19:10:53Z</time></trkpt><trkpt lat="59.1021202505" lon="30.4706656281"><ele>300.55</ele><time>2026-08-20T19:10:54Z</time></trkpt><trkpt lat="59.1021202505" lon="30.4706656281"><ele>300.55</ele><time>2026-08-20T19:10:55Z</time></trkpt><trkpt lat="59.1021202505" lon="30.4706656281"><ele>300.55</ele><time>2026-08-20T19:10:56Z</time></trkpt><trkpt lat="59.1021090187" lon="30.4706829786"><ele>300.55</ele><time>2026-08-20T19:10:57Z</time></trkpt><trkpt lat="59.1021087673" lon="30.4706900194"><ele>300.55</ele><time>2026-08-20T19:10:58Z</time></trkpt><trkpt lat="59.1021070909" lon="30.4706985690"><ele>300.55</ele><time>2026-08-20T19:10:59Z</time></trkpt><trkpt lat="59.1021083482" lon="30.4707088787"><ele>300.55</ele><time>2026-08-20T19:11:00Z</time></trkpt><trkpt lat="59.1021072585" lon="30.4707148299"><ele>300.55</ele><time>2026-08-20T19:11:01Z</time></trkpt><trkpt lat="59.1021062527" lon="30.4707201943"><ele>300.55</ele><time>2026-08-20T19:11:02Z</time></trkpt><trkpt lat="59.1021060850" lon="30.4707218707"><ele>300.55</ele><time>2026-08-20T19:11:03Z</time></trkpt><trkpt lat="59.1021060850" lon="30.4707218707"><ele>300.55</ele><time>2026-08-20T19:11:04Z</time></trkpt><trkpt lat="59.1021060850" lon="30.4707218707"><ele>300.55</ele><time>2026-08-20T19:11:05Z</time></trkpt><trkpt lat="59.1021067556" lon="30.4707253911"><ele>300.55</ele><time>2026-08-20T19:11:06Z</time></trkpt><trkpt lat="59.1021080967" lon="30.4707326833"><ele>300.55</ele><time>2026-08-20T19:11:07Z</time></trkpt><trkpt lat="59.1021100245" lon="30.4707343597"><ele>300.55</ele><time>2026-08-20T19:11:08Z</time></trkpt><trkpt lat="59.1021103598" lon="30.4707351979"><ele>300.55</ele><time>2026-08-20T19:11:09Z</time></trkpt><trkpt lat="59.1021103598" lon="30.4707351979"><ele>300.55</ele><time>2026-08-20T19:11:10Z</time></trkpt><trkpt lat="59.1021103598" lon="30.4707351979"><ele>300.55</ele><time>2026-08-20T19:11:11Z</time></trkpt><trkpt lat="59.1021103598" lon="30.4707351979"><ele>300.55</ele><time>2026-08-20T19:11:12Z</time></trkpt><trkpt lat="59.1021103598" lon="30.4707351979"><ele>301.03</ele><time>2026-08-20T19:11:13Z</time></trkpt><trkpt lat="59.1021103598" lon="30.4707351979"><ele>301.03</ele><time>2026-08-20T19:11:14Z</time></trkpt><trkpt lat="59.1021103598" lon="30.4707351979"><ele>301.03</ele><time>2026-08-20T19:11:15Z</time></trkpt><trkpt lat="59.1021103598" lon="30.4707351979"><ele>301.03</ele><time>2026-08-20T19:11:16Z</time></trkpt><trkpt lat="59.1021103598" lon="30.4707351979"><ele>301.03</ele><time>2026-08-20T19:11:17Z</time></trkpt><trkpt lat="59.1021103598" lon="30.4707351979"><ele>301.03</ele><time>2026-08-20T19:11:18Z</time></trkpt><trkpt lat="59.1021103598" lon="30.4707351979"><ele>300.55</ele><time>2026-08-20T19:11:19Z</time></trkpt><trkpt lat="59.1021103598" lon="30.4707351979"><ele>300.55</ele><time>2026-08-20T19:11:20Z</time></trkpt><trkpt lat="59.1021103598" lon="30.4707351979"><ele>300.55</ele><time>2026-08-20T19:11:21Z</time></trkpt><trkpt lat="59.1021103598" lon="30.4707351979"><ele>300.55</ele><time>2026-08-20T19:11:22Z</time></trkpt><trkpt lat="59.1021103598" lon="30.4707351979"><ele>300.55</ele><time>2026-08-20T19:11:23Z</time></trkpt><trkpt lat="59.1021103598" lon="30.4707351979"><ele>300.55</ele><time>2026-08-20T19:11:24Z</time></trkpt><trkpt lat="59.1021103598" lon="30.4707351979"><ele>300.55</ele><time>2026-08-20T19:11:25Z</time></trkpt><trkpt lat="59.1021103598" lon="30.4707351979"><ele>300.55</ele><time>2026-08-20T19:11:26Z</time></trkpt><trkpt lat="59.1021103598" lon="30.4707351979"><ele>300.55</ele><time>2026-08-20T19:11:27Z</time></trkpt><trkpt lat="59.1021103598" lon="30.4707351979"><ele>301.03</ele><time>2026-08-20T19:11:28Z</time></trkpt><trkpt lat="59.1021176521" lon="30.4707738385"><ele>301.03</ele><time>2026-08-20T19:11:29Z</time></trkpt><trkpt lat="59.1021131258" lon="30.4707730841"><ele>301.03</ele><time>2026-08-20T19:11:30Z</time></trkpt><trkpt lat="59.1021087673" lon="30.4707749281"><ele>301.03</ele><time>2026-08-20T19:11:31Z</time></trkpt><trkpt lat="59.1021063365" lon="30.4707793705"><ele>301.03</ele><time>2026-08-20T19:11:32Z</time></trkpt><trkpt lat="59.1021021456" lon="30.4707835615"><ele>301.03</ele><time>2026-08-20T19:11:33Z</time></trkpt><trkpt lat="59.1020959429" lon="30.4707875848"><ele>301.03</ele><time>2026-08-20T19:11:34Z</time></trkpt><trkpt lat="59.1020890698" lon="30.4707931168"><ele>301.03</ele><time>2026-08-20T19:11:35Z</time></trkpt><trkpt lat="59.1020863876" lon="30.4707930330"><ele>301.03</ele><time>2026-08-20T19:11:36Z</time></trkpt><trkpt lat="59.1020802688" lon="30.4708071984"><ele>301.03</ele><time>2026-08-20T19:11:37Z</time></trkpt><trkpt lat="59.1020761617" lon="30.4708143231"><ele>301.03</ele><time>2026-08-20T19:11:38Z</time></trkpt><trkpt lat="59.1020725574" lon="30.4708230402"><ele>301.03</ele><time>2026-08-20T19:11:39Z</time></trkpt><trkpt lat="59.1020702943" lon="30.4708249681"><ele>301.03</ele><time>2026-08-20T19:11:40Z</time></trkpt><trkpt lat="59.1020672768" lon="30.4708297458"><ele>301.03</ele><time>2026-08-20T19:11:41Z</time></trkpt><trkpt lat="59.1020677797" lon="30.4708286561"><ele>301.03</ele><time>2026-08-20T19:11:42Z</time></trkpt><trkpt lat="59.1020677797" lon="30.4708286561"><ele>301.03</ele><time>2026-08-20T19:11:43Z</time></trkpt><trkpt lat="59.1020677797" lon="30.4708286561"><ele>301.03</ele><time>2026-08-20T19:11:44Z</time></trkpt><trkpt lat="59.1020677797" lon="30.4708286561"><ele>301.03</ele><time>2026-08-20T19:11:45Z</time></trkpt><trkpt lat="59.1020677797" lon="30.4708286561"><ele>301.03</ele><time>2026-08-20T19:11:46Z</time></trkpt><trkpt lat="59.1020677797" lon="30.4708286561"><ele>301.03</ele><time>2026-08-20T19:11:47Z</time></trkpt><trkpt lat="59.1020677797" lon="30.4708286561"><ele>301.03</ele><time>2026-08-20T19:11:48Z</time></trkpt><trkpt lat="59.1020677797" lon="30.4708286561"><ele>301.03</ele><time>2026-08-20T19:11:49Z</time></trkpt><trkpt lat="59.1020677797" lon="30.4708286561"><ele>301.03</ele><time>2026-08-20T19:11:50Z</time></trkpt><trkpt lat="59.1020677797" lon="30.4708286561"><ele>301.03</ele><time>2026-08-20T19:11:51Z</time></trkpt><trkpt lat="59.1020638403" lon="30.4708765168"><ele>301.03</ele><time>2026-08-20T19:11:52Z</time></trkpt><trkpt lat="59.1020632535" lon="30.4708792828"><ele>301.03</ele><time>2026-08-20T19:11:53Z</time></trkpt><trkpt lat="59.1020617448" lon="30.4708857369"><ele>301.03</ele><time>2026-08-20T19:11:54Z</time></trkpt><trkpt lat="59.1020607390" lon="30.4708967172"><ele>301.03</ele><time>2026-08-20T19:11:55Z</time></trkpt><trkpt lat="59.1020607390" lon="30.4708967172"><ele>301.03</ele><time>2026-08-20T19:11:56Z</time></trkpt><trkpt lat="59.1020606551" lon="30.4709180910"><ele>301.03</ele><time>2026-08-20T19:11:57Z</time></trkpt><trkpt lat="59.1020609904" lon="30.4709325917"><ele>301.03</ele><time>2026-08-20T19:11:58Z</time></trkpt><trkpt lat="59.1020627506" lon="30.4709483497"><ele>301.03</ele><time>2026-08-20T19:11:59Z</time></trkpt><trkpt lat="59.1020674445" lon="30.4709629342"><ele>301.03</ele><time>2026-08-20T19:12:00Z</time></trkpt><trkpt lat="59.1020707972" lon="30.4709765967"><ele>301.03</ele><time>2026-08-20T19:12:01Z</time></trkpt><trkpt lat="59.1020742338" lon="30.4709904268"><ele>301.03</ele><time>2026-08-20T19:12:02Z</time></trkpt><trkpt lat="59.1020786762" lon="30.4710028321"><ele>301.03</ele><time>2026-08-20T19:12:03Z</time></trkpt><trkpt lat="59.1020807717" lon="30.4710175842"><ele>301.03</ele><time>2026-08-20T19:12:04Z</time></trkpt><trkpt lat="59.1020839568" lon="30.4710279778"><ele>301.03</ele><time>2026-08-20T19:12:05Z</time></trkpt><trkpt lat="59.1020860523" lon="30.4710405506"><ele>301.03</ele><time>2026-08-20T19:12:06Z</time></trkpt><trkpt lat="59.1020889860" lon="30.4710487649"><ele>301.03</ele><time>2026-08-20T19:12:07Z</time></trkpt><trkpt lat="59.1020907462" lon="30.4710568953"><ele>301.03</ele><time>2026-08-20T19:12:08Z</time></trkpt><trkpt lat="59.1020900756" lon="30.4710703902"><ele>301.03</ele><time>2026-08-20T19:12:09Z</time></trkpt><trkpt lat="59.1020920873" lon="30.4710839689"><ele>301.03</ele><time>2026-08-20T19:12:10Z</time></trkpt><trkpt lat="59.1020951886" lon="30.4710992239"><ele>301.03</ele><time>2026-08-20T19:12:11Z</time></trkpt><trkpt lat="59.1020968650" lon="30.4711135570"><ele>301.03</ele><time>2026-08-20T19:12:12Z</time></trkpt><trkpt lat="59.1020979546" lon="30.4711331706"><ele>301.03</ele><time>2026-08-20T19:12:13Z</time></trkpt><trkpt lat="59.1020947695" lon="30.4711515270"><ele>301.03</ele><time>2026-08-20T19:12:14Z</time></trkpt><trkpt lat="59.1020914167" lon="30.4711691290"><ele>301.03</ele><time>2026-08-20T19:12:15Z</time></trkpt><trkpt lat="59.1020909976" lon="30.4711712245"><ele>301.03</ele><time>2026-08-20T19:12:16Z</time></trkpt><trkpt lat="59.1020895727" lon="30.4711768404"><ele>301.03</ele><time>2026-08-20T19:12:17Z</time></trkpt><trkpt lat="59.1020888183" lon="30.4711827915"><ele>301.03</ele><time>2026-08-20T19:12:18Z</time></trkpt><trkpt lat="59.1020888183" lon="30.4711827915"><ele>301.03</ele><time>2026-08-20T19:12:19Z</time></trkpt><trkpt lat="59.1020888183" lon="30.4711827915"><ele>301.03</ele><time>2026-08-20T19:12:20Z</time></trkpt><trkpt lat="59.1020888183" lon="30.4711827915"><ele>301.03</ele><time>2026-08-20T19:12:21Z</time></trkpt><trkpt lat="59.1020888183" lon="30.4711827915"><ele>301.03</ele><time>2026-08-20T19:12:22Z</time></trkpt><trkpt lat="59.1020888183" lon="30.4711827915"><ele>301.03</ele><time>2026-08-20T19:12:23Z</time></trkpt><trkpt lat="59.1020888183" lon="30.4711827915"><ele>301.03</ele><time>2026-08-20T19:12:24Z</time></trkpt><trkpt lat="59.1020888183" lon="30.4711827915"><ele>301.03</ele><time>2026-08-20T19:12:25Z</time></trkpt><trkpt lat="59.1020888183" lon="30.4711827915"><ele>301.03</ele><time>2026-08-20T19:12:26Z</time></trkpt><trkpt lat="59.1020888183" lon="30.4711827915"><ele>301.03</ele><time>2026-08-20T19:12:27Z</time></trkpt><trkpt lat="59.1020888183" lon="30.4711827915"><ele>301.03</ele><time>2026-08-20T19:12:28Z</time></trkpt><trkpt lat="59.1020888183" lon="30.4711827915"><ele>301.03</ele><time>2026-08-20T19:12:29Z</time></trkpt><trkpt lat="59.1020888183" lon="30.4711827915"><ele>301.03</ele><time>2026-08-20T19:12:30Z</time></trkpt><trkpt lat="59.1020888183" lon="30.4711827915"><ele>301.03</ele><time>2026-08-20T19:12:31Z</time></trkpt><trkpt lat="59.1020888183" lon="30.4711827915"><ele>301.03</ele><time>2026-08-20T19:12:32Z</time></trkpt><trkpt lat="59.1020888183" lon="30.4711827915"><ele>301.03</ele><time>2026-08-20T19:12:33Z</time></trkpt><trkpt lat="59.1020888183" lon="30.4711827915"><ele>301.03</ele><time>2026-08-20T19:12:34Z</time></trkpt><trkpt lat="59.1020888183" lon="30.4711827915"><ele>301.03</ele><time>2026-08-20T19:12:35Z</time></trkpt><trkpt lat="59.1020888183" lon="30.4711827915"><ele>301.03</ele><time>2026-08-20T19:12:36Z</time></trkpt><trkpt lat="59.1020888183" lon="30.4711827915"><ele>301.03</ele><time>2026-08-20T19:12:37Z</time></trkpt><trkpt lat="59.1020888183" lon="30.4711827915"><ele>301.03</ele><time>2026-08-20T19:12:38Z</time></trkpt><trkpt lat="59.1020888183" lon="30.4711827915"><ele>301.03</ele><time>2026-08-20T19:12:39Z</time></trkpt><trkpt lat="59.1020888183" lon="30.4711827915"><ele>301.03</ele><time>2026-08-20T19:12:40Z</time></trkpt><trkpt lat="59.1020888183" lon="30.4711827915"><ele>301.03</ele><time>2026-08-20T19:12:41Z</time></trkpt><trkpt lat="59.1020888183" lon="30.4711827915"><ele>301.03</ele><time>2026-08-20T19:12:42Z</time></trkpt><trkpt lat="59.1020888183" lon="30.4711827915"><ele>301.03</ele><time>2026-08-20T19:12:43Z</time></trkpt><trkpt lat="59.1020911653" lon="30.4712255392"><ele>301.03</ele><time>2026-08-20T19:12:44Z</time></trkpt><trkpt lat="59.1020915844" lon="30.4712355975"><ele>301.03</ele><time>2026-08-20T19:12:45Z</time></trkpt><trkpt lat="59.1020923387" lon="30.4712434765"><ele>301.03</ele><time>2026-08-20T19:12:46Z</time></trkpt><trkpt lat="59.1020913329" lon="30.4712539539"><ele>301.03</ele><time>2026-08-20T19:12:47Z</time></trkpt><trkpt lat="59.1020909976" lon="30.4712569714"><ele>301.03</ele><time>2026-08-20T19:12:48Z</time></trkpt><trkpt lat="59.1020907462" lon="30.4712589830"><ele>301.03</ele><time>2026-08-20T19:12:49Z</time></trkpt><trkpt lat="59.1020915844" lon="30.4712622520"><ele>301.03</ele><time>2026-08-20T19:12:50Z</time></trkpt><trkpt lat="59.1020915844" lon="30.4712622520"><ele>301.03</ele><time>2026-08-20T19:12:51Z</time></trkpt><trkpt lat="59.1020915844" lon="30.4712622520"><ele>301.03</ele><time>2026-08-20T19:12:52Z</time></trkpt><trkpt lat="59.1020915844" lon="30.4712622520"><ele>301.03</ele><time>2026-08-20T19:12:53Z</time></trkpt><trkpt lat="59.1020915844" lon="30.4712622520"><ele>301.03</ele><time>2026-08-20T19:12:54Z</time></trkpt><trkpt lat="59.1020915844" lon="30.4712622520"><ele>301.03</ele><time>2026-08-20T19:12:55Z</time></trkpt><trkpt lat="59.1020915844" lon="30.4712622520"><ele>301.03</ele><time>2026-08-20T19:12:56Z</time></trkpt><trkpt lat="59.1020915844" lon="30.4712622520"><ele>301.03</ele><time>2026-08-20T19:12:57Z</time></trkpt><trkpt lat="59.1020915844" lon="30.4712622520"><ele>301.03</ele><time>2026-08-20T19:12:58Z</time></trkpt><trkpt lat="59.1020915844" lon="30.4712622520"><ele>301.03</ele><time>2026-08-20T19:12:59Z</time></trkpt><trkpt lat="59.1020915844" lon="30.4712622520"><ele>301.03</ele><time>2026-08-20T19:13:00Z</time></trkpt><trkpt lat="59.1020915844" lon="30.4712622520"><ele>301.03</ele><time>2026-08-20T19:13:01Z</time></trkpt><trkpt lat="59.1020915844" lon="30.4712622520"><ele>301.03</ele><time>2026-08-20T19:13:02Z</time></trkpt><trkpt lat="59.1020915844" lon="30.4712622520"><ele>301.03</ele><time>2026-08-20T19:13:03Z</time></trkpt><trkpt lat="59.1020915844" lon="30.4712622520"><ele>301.03</ele><time>2026-08-20T19:13:04Z</time></trkpt><trkpt lat="59.1020915844" lon="30.4712622520"><ele>301.03</ele><time>2026-08-20T19:13:05Z</time></trkpt><trkpt lat="59.1020915844" lon="30.4712622520"><ele>301.03</ele><time>2026-08-20T19:13:06Z</time></trkpt><trkpt lat="59.1020915844" lon="30.4712622520"><ele>301.03</ele><time>2026-08-20T19:13:07Z</time></trkpt><trkpt lat="59.1020915844" lon="30.4712622520"><ele>301.03</ele><time>2026-08-20T19:13:08Z</time></trkpt><trkpt lat="59.1020915844" lon="30.4712622520"><ele>301.03</ele><time>2026-08-20T19:13:09Z</time></trkpt><trkpt lat="59.1020915844" lon="30.4712622520"><ele>301.03</ele><time>2026-08-20T19:13:10Z</time></trkpt><trkpt lat="59.1020953562" lon="30.4713044968"><ele>301.03</ele><time>2026-08-20T19:13:11Z</time></trkpt><trkpt lat="59.1020960268" lon="30.4713156447"><ele>301.03</ele><time>2026-08-20T19:13:12Z</time></trkpt><trkpt lat="59.1020961944" lon="30.4713244457"><ele>301.03</ele><time>2026-08-20T19:13:13Z</time></trkpt><trkpt lat="59.1020993795" lon="30.4713370185"><ele>301.03</ele><time>2026-08-20T19:13:14Z</time></trkpt><trkpt lat="59.1021030676" lon="30.4713529442"><ele>301.03</ele><time>2026-08-20T19:13:15Z</time></trkpt><trkpt lat="59.1021061689" lon="30.4713690374"><ele>301.03</ele><time>2026-08-20T19:13:16Z</time></trkpt><trkpt lat="59.1021103598" lon="30.4713835381"><ele>301.03</ele><time>2026-08-20T19:13:17Z</time></trkpt><trkpt lat="59.1021137964" lon="30.4713956919"><ele>301.03</ele><time>2026-08-20T19:13:18Z</time></trkpt><trkpt lat="59.1021153890" lon="30.4714090191"><ele>301.03</ele><time>2026-08-20T19:13:19Z</time></trkpt><trkpt lat="59.1021188255" lon="30.4714250285"><ele>301.03</ele><time>2026-08-20T19:13:20Z</time></trkpt><trkpt lat="59.1021225974" lon="30.4714423791"><ele>301.03</ele><time>2026-08-20T19:13:21Z</time></trkpt><trkpt lat="59.1021233518" lon="30.4714619927"><ele>301.03</ele><time>2026-08-20T19:13:22Z</time></trkpt><trkpt lat="59.1021200828" lon="30.4714868870"><ele>301.03</ele><time>2026-08-20T19:13:23Z</time></trkpt><trkpt lat="59.1021195799" lon="30.4715052433"><ele>301.03</ele><time>2026-08-20T19:13:24Z</time></trkpt><trkpt lat="59.1021220945" lon="30.4715188220"><ele>301.03</ele><time>2026-08-20T19:13:25Z</time></trkpt><trkpt lat="59.1021257825" lon="30.4715325683"><ele>301.03</ele><time>2026-08-20T19:13:26Z</time></trkpt><trkpt lat="59.1021294706" lon="30.4715481587"><ele>301.03</ele><time>2026-08-20T19:13:27Z</time></trkpt><trkpt lat="59.1021355893" lon="30.4715637490"><ele>301.03</ele><time>2026-08-20T19:13:28Z</time></trkpt><trkpt lat="59.1021406185" lon="30.4715802614"><ele>301.03</ele><time>2026-08-20T19:13:29Z</time></trkpt><trkpt lat="59.1021448933" lon="30.4715947621"><ele>301.03</ele><time>2026-08-20T19:13:30Z</time></trkpt><trkpt lat="59.1021459829" lon="30.4716197401"><ele>301.03</ele><time>2026-08-20T19:13:31Z</time></trkpt><trkpt lat="59.1021505930" lon="30.4716385994"><ele>301.03</ele><time>2026-08-20T19:13:32Z</time></trkpt><trkpt lat="59.1021526884" lon="30.4716550279"><ele>301.03</ele><time>2026-08-20T19:13:33Z</time></trkpt><trkpt lat="59.1021563765" lon="30.4716721270"><ele>301.03</ele><time>2026-08-20T19:13:34Z</time></trkpt><trkpt lat="59.1021578852" lon="30.4716912378"><ele>301.03</ele><time>2026-08-20T19:13:35Z</time></trkpt><trkpt lat="59.1021598969" lon="30.4717115220"><ele>301.03</ele><time>2026-08-20T19:13:36Z</time></trkpt><trkpt lat="59.1021635849" lon="30.4717168864"><ele>301.03</ele><time>2026-08-20T19:13:37Z</time></trkpt><trkpt lat="59.1021646746" lon="30.4717276990"><ele>301.03</ele><time>2026-08-20T19:13:38Z</time></trkpt><trkpt lat="59.1021642555" lon="30.4717380926"><ele>301.03</ele><time>2026-08-20T19:13:39Z</time></trkpt><trkpt lat="59.1021642555" lon="30.4717380926"><ele>301.03</ele><time>2026-08-20T19:13:40Z</time></trkpt><trkpt lat="59.1021642555" lon="30.4717380926"><ele>301.03</ele><time>2026-08-20T19:13:41Z</time></trkpt><trkpt lat="59.1021642555" lon="30.4717380926"><ele>301.03</ele><time>2026-08-20T19:13:42Z</time></trkpt><trkpt lat="59.1021642555" lon="30.4717380926"><ele>301.03</ele><time>2026-08-20T19:13:43Z</time></trkpt><trkpt lat="59.1021747328" lon="30.4718111828"><ele>301.03</ele><time>2026-08-20T19:13:44Z</time></trkpt><trkpt lat="59.1021784209" lon="30.4718234204"><ele>301.03</ele><time>2026-08-20T19:13:45Z</time></trkpt><trkpt lat="59.1021807678" lon="30.4718337301"><ele>301.03</ele><time>2026-08-20T19:13:46Z</time></trkpt><trkpt lat="59.1021832824" lon="30.4718420282"><ele>301.03</ele><time>2026-08-20T19:13:47Z</time></trkpt><trkpt lat="59.1021862999" lon="30.4718475603"><ele>301.03</ele><time>2026-08-20T19:13:48Z</time></trkpt><trkpt lat="59.1021909937" lon="30.4718475603"><ele>301.03</ele><time>2026-08-20T19:13:49Z</time></trkpt><trkpt lat="59.1021909937" lon="30.4718475603"><ele>301.03</ele><time>2026-08-20T19:13:50Z</time></trkpt><trkpt lat="59.1021909937" lon="30.4718475603"><ele>301.03</ele><time>2026-08-20T19:13:51Z</time></trkpt><trkpt lat="59.1021909937" lon="30.4718475603"><ele>301.03</ele><time>2026-08-20T19:13:52Z</time></trkpt><trkpt lat="59.1021909937" lon="30.4718475603"><ele>301.03</ele><time>2026-08-20T19:13:53Z</time></trkpt><trkpt lat="59.1021909937" lon="30.4718475603"><ele>301.03</ele><time>2026-08-20T19:13:54Z</time></trkpt><trkpt lat="59.1021909937" lon="30.4718475603"><ele>301.03</ele><time>2026-08-20T19:13:55Z</time></trkpt><trkpt lat="59.1021909937" lon="30.4718475603"><ele>301.03</ele><time>2026-08-20T19:13:56Z</time></trkpt><trkpt lat="59.1022149660" lon="30.4718866199"><ele>301.03</ele><time>2026-08-20T19:13:57Z</time></trkpt><trkpt lat="59.1022181511" lon="30.4718920682"><ele>301.03</ele><time>2026-08-20T19:13:58Z</time></trkpt><trkpt lat="59.1022194922" lon="30.4718927387"><ele>301.03</ele><time>2026-08-20T19:13:59Z</time></trkpt><trkpt lat="59.1022175644" lon="30.4718971811"><ele>301.03</ele><time>2026-08-20T19:14:00Z</time></trkpt><trkpt lat="59.1022174805" lon="30.4718996957"><ele>301.03</ele><time>2026-08-20T19:14:01Z</time></trkpt><trkpt lat="59.1022174805" lon="30.4718996957"><ele>301.03</ele><time>2026-08-20T19:14:02Z</time></trkpt><trkpt lat="59.1022174805" lon="30.4718996957"><ele>301.03</ele><time>2026-08-20T19:14:03Z</time></trkpt><trkpt lat="59.1022174805" lon="30.4718996957"><ele>301.03</ele><time>2026-08-20T19:14:04Z</time></trkpt><trkpt lat="59.1022174805" lon="30.4718996957"><ele>301.03</ele><time>2026-08-20T19:14:05Z</time></trkpt><trkpt lat="59.1022174805" lon="30.4718996957"><ele>301.03</ele><time>2026-08-20T19:14:06Z</time></trkpt><trkpt lat="59.1022174805" lon="30.4718996957"><ele>301.03</ele><time>2026-08-20T19:14:07Z</time></trkpt><trkpt lat="59.1022251919" lon="30.4719282780"><ele>301.03</ele><time>2026-08-20T19:14:08Z</time></trkpt><trkpt lat="59.1022252757" lon="30.4719413538"><ele>301.03</ele><time>2026-08-20T19:14:09Z</time></trkpt><trkpt lat="59.1022227611" lon="30.4719530884"><ele>301.03</ele><time>2026-08-20T19:14:10Z</time></trkpt><trkpt lat="59.1022203304" lon="30.4719619732"><ele>301.03</ele><time>2026-08-20T19:14:11Z</time></trkpt><trkpt lat="59.1022187378" lon="30.4719741270"><ele>301.03</ele><time>2026-08-20T19:14:12Z</time></trkpt><trkpt lat="59.1022172291" lon="30.4719841853"><ele>301.03</ele><time>2026-08-20T19:14:13Z</time></trkpt><trkpt lat="59.1022154689" lon="30.4719931539"><ele>301.03</ele><time>2026-08-20T19:14:14Z</time></trkpt><trkpt lat="59.1022129543" lon="30.4720006976"><ele>301.03</ele><time>2026-08-20T19:14:15Z</time></trkpt><trkpt lat="59.1022115294" lon="30.4720051400"><ele>301.03</ele><time>2026-08-20T19:14:16Z</time></trkpt><trkpt lat="59.1022073384" lon="30.4720166232"><ele>301.03</ele><time>2026-08-20T19:14:17Z</time></trkpt><trkpt lat="59.1022043210" lon="30.4720259272"><ele>301.03</ele><time>2026-08-20T19:14:18Z</time></trkpt><trkpt lat="59.1022031475" lon="30.4720342252"><ele>301.03</ele><time>2026-08-20T19:14:19Z</time></trkpt><trkpt lat="59.1022047400" lon="30.4720425233"><ele>301.03</ele><time>2026-08-20T19:14:20Z</time></trkpt><trkpt lat="59.1022039857" lon="30.4720522463"><ele>301.03</ele><time>2026-08-20T19:14:21Z</time></trkpt><trkpt lat="59.1022067517" lon="30.4720549285"><ele>301.03</ele><time>2026-08-20T19:14:22Z</time></trkpt><trkpt lat="59.1022067517" lon="30.4720549285"><ele>301.03</ele><time>2026-08-20T19:14:23Z</time></trkpt><trkpt lat="59.1022067517" lon="30.4720549285"><ele>301.03</ele><time>2026-08-20T19:14:24Z</time></trkpt><trkpt lat="59.1022199951" lon="30.4720971733"><ele>301.03</ele><time>2026-08-20T19:14:25Z</time></trkpt><trkpt lat="59.1022257786" lon="30.4721128475"><ele>301.03</ele><time>2026-08-20T19:14:26Z</time></trkpt><trkpt lat="59.1022299696" lon="30.4721245822"><ele>301.03</ele><time>2026-08-20T19:14:27Z</time></trkpt><trkpt lat="59.1022268683" lon="30.4721387476"><ele>301.03</ele><time>2026-08-20T19:14:28Z</time></trkpt><trkpt lat="59.1022217553" lon="30.4721424356"><ele>301.03</ele><time>2026-08-20T19:14:29Z</time></trkpt><trkpt lat="59.1022215877" lon="30.4721481353"><ele>301.03</ele><time>2026-08-20T19:14:30Z</time></trkpt><trkpt lat="59.1022231802" lon="30.4721515719"><ele>301.03</ele><time>2026-08-20T19:14:31Z</time></trkpt><trkpt lat="59.1022234317" lon="30.4721510690"><ele>301.03</ele><time>2026-08-20T19:14:32Z</time></trkpt><trkpt lat="59.1022234317" lon="30.4721510690"><ele>301.03</ele><time>2026-08-20T19:14:33Z</time></trkpt><trkpt lat="59.1022234317" lon="30.4721510690"><ele>301.03</ele><time>2026-08-20T19:14:34Z</time></trkpt><trkpt lat="59.1022234317" lon="30.4721510690"><ele>301.03</ele><time>2026-08-20T19:14:35Z</time></trkpt><trkpt lat="59.1022234317" lon="30.4721510690"><ele>301.03</ele><time>2026-08-20T19:14:36Z</time></trkpt><trkpt lat="59.1022234317" lon="30.4721510690"><ele>301.03</ele><time>2026-08-20T19:14:37Z</time></trkpt><trkpt lat="59.1022234317" lon="30.4721510690"><ele>301.03</ele><time>2026-08-20T19:14:38Z</time></trkpt><trkpt lat="59.1022234317" lon="30.4721510690"><ele>301.03</ele><time>2026-08-20T19:14:39Z</time></trkpt><trkpt lat="59.1022292990" lon="30.4722043779"><ele>301.03</ele><time>2026-08-20T19:14:40Z</time></trkpt><trkpt lat="59.1022295505" lon="30.4722129274"><ele>301.03</ele><time>2026-08-20T19:14:41Z</time></trkpt><trkpt lat="59.1022300534" lon="30.4722277634"><ele>301.03</ele><time>2026-08-20T19:14:42Z</time></trkpt><trkpt lat="59.1022305563" lon="30.4722412582"><ele>301.03</ele><time>2026-08-20T19:14:43Z</time></trkpt><trkpt lat="59.1022270359" lon="30.4722577706"><ele>301.03</ele><time>2026-08-20T19:14:44Z</time></trkpt><trkpt lat="59.1022281256" lon="30.4722739477"><ele>301.03</ele><time>2026-08-20T19:14:45Z</time></trkpt><trkpt lat="59.1022300534" lon="30.4722869396"><ele>301.03</ele><time>2026-08-20T19:14:46Z</time></trkpt><trkpt lat="59.1022328194" lon="30.4723016918"><ele>301.03</ele><time>2026-08-20T19:14:47Z</time></trkpt><trkpt lat="59.1022348311" lon="30.4723183718"><ele>301.03</ele><time>2026-08-20T19:14:48Z</time></trkpt><trkpt lat="59.1022372618" lon="30.4723252449"><ele>301.03</ele><time>2026-08-20T19:14:49Z</time></trkpt><trkpt lat="59.1022395249" lon="30.4723426793"><ele>301.03</ele><time>2026-08-20T19:14:50Z</time></trkpt><trkpt lat="59.1022417881" lon="30.4723563418"><ele>301.03</ele><time>2026-08-20T19:14:51Z</time></trkpt><trkpt lat="59.1022461466" lon="30.4723688308"><ele>301.03</ele><time>2026-08-20T19:14:52Z</time></trkpt><trkpt lat="59.1022425424" lon="30.4723895341"><ele>301.03</ele><time>2026-08-20T19:14:53Z</time></trkpt><trkpt lat="59.1022403631" lon="30.4724008497"><ele>301.03</ele><time>2026-08-20T19:14:54Z</time></trkpt><trkpt lat="59.1022315621" lon="30.4724071361"><ele>301.03</ele><time>2026-08-20T19:14:55Z</time></trkpt><trkpt lat="59.1022288799" lon="30.4724172782"><ele>301.03</ele><time>2026-08-20T19:14:56Z</time></trkpt><trkpt lat="59.1022262815" lon="30.4724297673"><ele>301.03</ele><time>2026-08-20T19:14:57Z</time></trkpt><trkpt lat="59.1022231802" lon="30.4724433459"><ele>301.03</ele><time>2026-08-20T19:14:58Z</time></trkpt><trkpt lat="59.1022210848" lon="30.4724564217"><ele>301.03</ele><time>2026-08-20T19:14:59Z</time></trkpt><trkpt lat="59.1022192407" lon="30.4724677373"><ele>301.03</ele><time>2026-08-20T19:15:00Z</time></trkpt><trkpt lat="59.1022196598" lon="30.4724849202"><ele>301.03</ele><time>2026-08-20T19:15:01Z</time></trkpt><trkpt lat="59.1022177320" lon="30.4724984989"><ele>301.03</ele><time>2026-08-20T19:15:02Z</time></trkpt><trkpt lat="59.1022168938" lon="30.4725115746"><ele>301.03</ele><time>2026-08-20T19:15:03Z</time></trkpt><trkpt lat="59.1022161394" lon="30.4725261591"><ele>301.03</ele><time>2026-08-20T19:15:04Z</time></trkpt><trkpt lat="59.1022186540" lon="30.4725382291"><ele>301.03</ele><time>2026-08-20T19:15:05Z</time></trkpt><trkpt lat="59.1022207495" lon="30.4725523945"><ele>301.03</ele><time>2026-08-20T19:15:06Z</time></trkpt><trkpt lat="59.1022293828" lon="30.4725656379"><ele>301.03</ele><time>2026-08-20T19:15:07Z</time></trkpt><trkpt lat="59.1022336576" lon="30.4725777917"><ele>301.03</ele><time>2026-08-20T19:15:08Z</time></trkpt><trkpt lat="59.1022385191" lon="30.4725900292"><ele>301.03</ele><time>2026-08-20T19:15:09Z</time></trkpt><trkpt lat="59.1022465657" lon="30.4725998361"><ele>301.03</ele><time>2026-08-20T19:15:10Z</time></trkpt><trkpt lat="59.1022514272" lon="30.4726106487"><ele>301.03</ele><time>2026-08-20T19:15:11Z</time></trkpt><trkpt lat="59.1022578813" lon="30.4726219643"><ele>301.03</ele><time>2026-08-20T19:15:12Z</time></trkpt><trkpt lat="59.1022646707" lon="30.4726293404"><ele>301.03</ele><time>2026-08-20T19:15:13Z</time></trkpt><trkpt lat="59.1022711247" lon="30.4726428352"><ele>301.03</ele><time>2026-08-20T19:15:14Z</time></trkpt><trkpt lat="59.1022634972" lon="30.4726508819"><ele>301.03</ele><time>2026-08-20T19:15:15Z</time></trkpt><trkpt lat="59.1022627428" lon="30.4726595990"><ele>301.03</ele><time>2026-08-20T19:15:16Z</time></trkpt><trkpt lat="59.1022599768" lon="30.4726674780"><ele>301.03</ele><time>2026-08-20T19:15:17Z</time></trkpt><trkpt lat="59.1022567917" lon="30.4726795480"><ele>301.03</ele><time>2026-08-20T19:15:18Z</time></trkpt><trkpt lat="59.1022540256" lon="30.4726908635"><ele>301.03</ele><time>2026-08-20T19:15:19Z</time></trkpt><trkpt lat="59.1022547800" lon="30.4727043584"><ele>301.03</ele><time>2026-08-20T19:15:20Z</time></trkpt><trkpt lat="59.1022541933" lon="30.4727169313"><ele>301.03</ele><time>2026-08-20T19:15:21Z</time></trkpt><trkpt lat="59.1022503376" lon="30.4727239721"><ele>301.03</ele><time>2026-08-20T19:15:22Z</time></trkpt><trkpt lat="59.1022483259" lon="30.4727311805"><ele>301.03</ele><time>2026-08-20T19:15:23Z</time></trkpt><trkpt lat="59.1022458952" lon="30.4727399815"><ele>301.03</ele><time>2026-08-20T19:15:24Z</time></trkpt><trkpt lat="59.1022452246" lon="30.4727523867"><ele>301.03</ele><time>2026-08-20T19:15:25Z</time></trkpt><trkpt lat="59.1022449732" lon="30.4727623612"><ele>301.03</ele><time>2026-08-20T19:15:26Z</time></trkpt><trkpt lat="59.1022461466" lon="30.4727686476"><ele>301.03</ele><time>2026-08-20T19:15:27Z</time></trkpt><trkpt lat="59.1022490803" lon="30.4727817234"><ele>301.03</ele><time>2026-08-20T19:15:28Z</time></trkpt><trkpt lat="59.1022521816" lon="30.4727974813"><ele>301.03</ele><time>2026-08-20T19:15:29Z</time></trkpt><trkpt lat="59.1022557858" lon="30.4728141613"><ele>301.03</ele><time>2026-08-20T19:15:30Z</time></trkpt><trkpt lat="59.1022559535" lon="30.4728288297"><ele>301.03</ele><time>2026-08-20T19:15:31Z</time></trkpt><trkpt lat="59.1022552829" lon="30.4728458449"><ele>301.03</ele><time>2026-08-20T19:15:32Z</time></trkpt><trkpt lat="59.1022572946" lon="30.4728653748"><ele>301.03</ele><time>2026-08-20T19:15:33Z</time></trkpt><trkpt lat="59.1022597253" lon="30.4728849884"><ele>301.03</ele><time>2026-08-20T19:15:34Z</time></trkpt><trkpt lat="59.1022610664" lon="30.4729011655"><ele>301.03</ele><time>2026-08-20T19:15:35Z</time></trkpt><trkpt lat="59.1022616532" lon="30.4729092959"><ele>301.03</ele><time>2026-08-20T19:15:36Z</time></trkpt><trkpt lat="59.1022625752" lon="30.4729179293"><ele>301.03</ele><time>2026-08-20T19:15:37Z</time></trkpt><trkpt lat="59.1022646707" lon="30.4729286581"><ele>301.03</ele><time>2026-08-20T19:15:38Z</time></trkpt><trkpt lat="59.1022664309" lon="30.4729445837"><ele>301.03</ele><time>2026-08-20T19:15:39Z</time></trkpt><trkpt lat="59.1022668499" lon="30.4729544744"><ele>301.03</ele><time>2026-08-20T19:15:40Z</time></trkpt><trkpt lat="59.1022673529" lon="30.4729696456"><ele>301.03</ele><time>2026-08-20T19:15:41Z</time></trkpt><trkpt lat="59.1022721305" lon="30.4729945399"><ele>301.03</ele><time>2026-08-20T19:15:42Z</time></trkpt><trkpt lat="59.1022747289" lon="30.4730079509"><ele>301.03</ele><time>2026-08-20T19:15:43Z</time></trkpt><trkpt lat="59.1022769921" lon="30.4730167519"><ele>301.03</ele><time>2026-08-20T19:15:44Z</time></trkpt><trkpt lat="59.1022807639" lon="30.4730258882"><ele>301.03</ele><time>2026-08-20T19:15:45Z</time></trkpt><trkpt lat="59.1022837814" lon="30.4730351921"><ele>301.03</ele><time>2026-08-20T19:15:46Z</time></trkpt><trkpt lat="59.1022862960" lon="30.4730429873"><ele>301.03</ele><time>2026-08-20T19:15:47Z</time></trkpt><trkpt lat="59.1022868827" lon="30.4730501957"><ele>301.03</ele><time>2026-08-20T19:15:48Z</time></trkpt><trkpt lat="59.1022823565" lon="30.4730489384"><ele>301.03</ele><time>2026-08-20T19:15:49Z</time></trkpt><trkpt lat="59.1022819374" lon="30.4730504472"><ele>301.03</ele><time>2026-08-20T19:15:50Z</time></trkpt><trkpt lat="59.1022818536" lon="30.4730527941"><ele>301.03</ele><time>2026-08-20T19:15:51Z</time></trkpt><trkpt lat="59.1022818536" lon="30.4730527941"><ele>301.03</ele><time>2026-08-20T19:15:52Z</time></trkpt><trkpt lat="59.1022818536" lon="30.4730527941"><ele>301.03</ele><time>2026-08-20T19:15:53Z</time></trkpt><trkpt lat="59.1022818536" lon="30.4730527941"><ele>301.03</ele><time>2026-08-20T19:15:54Z</time></trkpt><trkpt lat="59.1022818536" lon="30.4730527941"><ele>301.03</ele><time>2026-08-20T19:15:55Z</time></trkpt><trkpt lat="59.1022818536" lon="30.4730527941"><ele>301.03</ele><time>2026-08-20T19:15:56Z</time></trkpt><trkpt lat="59.1022818536" lon="30.4730527941"><ele>301.03</ele><time>2026-08-20T19:15:57Z</time></trkpt><trkpt lat="59.1022818536" lon="30.4730527941"><ele>301.03</ele><time>2026-08-20T19:15:58Z</time></trkpt><trkpt lat="59.1022818536" lon="30.4730527941"><ele>301.03</ele><time>2026-08-20T19:15:59Z</time></trkpt><trkpt lat="59.1022818536" lon="30.4730527941"><ele>301.03</ele><time>2026-08-20T19:16:00Z</time></trkpt><trkpt lat="59.1022818536" lon="30.4730527941"><ele>301.03</ele><time>2026-08-20T19:16:01Z</time></trkpt><trkpt lat="59.1022861283" lon="30.4730757605"><ele>301.03</ele><time>2026-08-20T19:16:02Z</time></trkpt><trkpt lat="59.1022858769" lon="30.4730837233"><ele>301.03</ele><time>2026-08-20T19:16:03Z</time></trkpt><trkpt lat="59.1022860445" lon="30.4730929434"><ele>301.03</ele><time>2026-08-20T19:16:04Z</time></trkpt><trkpt lat="59.1022872180" lon="30.4731035884"><ele>301.03</ele><time>2026-08-20T19:16:05Z</time></trkpt><trkpt lat="59.1022860445" lon="30.4731067736"><ele>301.03</ele><time>2026-08-20T19:16:06Z</time></trkpt><trkpt lat="59.1022843681" lon="30.4731070250"><ele>301.03</ele><time>2026-08-20T19:16:07Z</time></trkpt><trkpt lat="59.1022861283" lon="30.4731096234"><ele>301.03</ele><time>2026-08-20T19:16:08Z</time></trkpt><trkpt lat="59.1022861283" lon="30.4731096234"><ele>301.03</ele><time>2026-08-20T19:16:09Z</time></trkpt><trkpt lat="59.1022861283" lon="30.4731096234"><ele>301.03</ele><time>2026-08-20T19:16:10Z</time></trkpt><trkpt lat="59.1022861283" lon="30.4731096234"><ele>301.03</ele><time>2026-08-20T19:16:11Z</time></trkpt><trkpt lat="59.1022861283" lon="30.4731096234"><ele>301.03</ele><time>2026-08-20T19:16:12Z</time></trkpt><trkpt lat="59.1022861283" lon="30.4731096234"><ele>301.03</ele><time>2026-08-20T19:16:13Z</time></trkpt><trkpt lat="59.1022861283" lon="30.4731096234"><ele>301.03</ele><time>2026-08-20T19:16:14Z</time></trkpt><trkpt lat="59.1022892296" lon="30.4731439892"><ele>301.03</ele><time>2026-08-20T19:16:15Z</time></trkpt><trkpt lat="59.1022962704" lon="30.4731498566"><ele>301.03</ele><time>2026-08-20T19:16:16Z</time></trkpt><trkpt lat="59.1022985335" lon="30.4731570650"><ele>301.03</ele><time>2026-08-20T19:16:17Z</time></trkpt><trkpt lat="59.1022990365" lon="30.4731589928"><ele>301.03</ele><time>2026-08-20T19:16:18Z</time></trkpt><trkpt lat="59.1023027245" lon="30.4731607530"><ele>301.03</ele><time>2026-08-20T19:16:19Z</time></trkpt><trkpt lat="59.1023063287" lon="30.4731639381"><ele>301.03</ele><time>2026-08-20T19:16:20Z</time></trkpt><trkpt lat="59.1023063287" lon="30.4731639381"><ele>301.03</ele><time>2026-08-20T19:16:21Z</time></trkpt><trkpt lat="59.1023063287" lon="30.4731639381"><ele>301.03</ele><time>2026-08-20T19:16:22Z</time></trkpt><trkpt lat="59.1023063287" lon="30.4731639381"><ele>301.03</ele><time>2026-08-20T19:16:23Z</time></trkpt><trkpt lat="59.1023063287" lon="30.4731639381"><ele>301.03</ele><time>2026-08-20T19:16:24Z</time></trkpt><trkpt lat="59.1023063287" lon="30.4731639381"><ele>301.03</ele><time>2026-08-20T19:16:25Z</time></trkpt><trkpt lat="59.1023063287" lon="30.4731639381"><ele>301.03</ele><time>2026-08-20T19:16:26Z</time></trkpt><trkpt lat="59.1023109388" lon="30.4731596634"><ele>301.03</ele><time>2026-08-20T19:16:27Z</time></trkpt><trkpt lat="59.1023126990" lon="30.4731537960"><ele>301.03</ele><time>2026-08-20T19:16:28Z</time></trkpt><trkpt lat="59.1023144592" lon="30.4731486831"><ele>301.03</ele><time>2026-08-20T19:16:29Z</time></trkpt><trkpt lat="59.1023162194" lon="30.4731439892"><ele>301.03</ele><time>2026-08-20T19:16:30Z</time></trkpt><trkpt lat="59.1023201589" lon="30.4731391277"><ele>301.03</ele><time>2026-08-20T19:16:31Z</time></trkpt><trkpt lat="59.1023269482" lon="30.4731373675"><ele>301.03</ele><time>2026-08-20T19:16:32Z</time></trkpt><trkpt lat="59.1023269482" lon="30.4731373675"><ele>301.03</ele><time>2026-08-20T19:16:33Z</time></trkpt><trkpt lat="59.1023269482" lon="30.4731373675"><ele>301.03</ele><time>2026-08-20T19:16:34Z</time></trkpt><trkpt lat="59.1023269482" lon="30.4731373675"><ele>301.03</ele><time>2026-08-20T19:16:35Z</time></trkpt><trkpt lat="59.1023269482" lon="30.4731373675"><ele>301.03</ele><time>2026-08-20T19:16:36Z</time></trkpt><trkpt lat="59.1023269482" lon="30.4731373675"><ele>301.03</ele><time>2026-08-20T19:16:37Z</time></trkpt><trkpt lat="59.1023269482" lon="30.4731373675"><ele>301.03</ele><time>2026-08-20T19:16:38Z</time></trkpt><trkpt lat="59.1023269482" lon="30.4731373675"><ele>301.03</ele><time>2026-08-20T19:16:39Z</time></trkpt><trkpt lat="59.1023269482" lon="30.4731373675"><ele>301.03</ele><time>2026-08-20T19:16:40Z</time></trkpt><trkpt lat="59.1023269482" lon="30.4731373675"><ele>301.03</ele><time>2026-08-20T19:16:41Z</time></trkpt><trkpt lat="59.1023489926" lon="30.4731348529"><ele>301.03</ele><time>2026-08-20T19:16:42Z</time></trkpt><trkpt lat="59.1023505852" lon="30.4731389601"><ele>301.03</ele><time>2026-08-20T19:16:43Z</time></trkpt><trkpt lat="59.1023507528" lon="30.4731435701"><ele>301.03</ele><time>2026-08-20T19:16:44Z</time></trkpt><trkpt lat="59.1023514234" lon="30.4731459171"><ele>301.03</ele><time>2026-08-20T19:16:45Z</time></trkpt><trkpt lat="59.1023514234" lon="30.4731459171"><ele>301.03</ele><time>2026-08-20T19:16:46Z</time></trkpt><trkpt lat="59.1023514234" lon="30.4731459171"><ele>301.03</ele><time>2026-08-20T19:16:47Z</time></trkpt><trkpt lat="59.1023514234" lon="30.4731459171"><ele>301.03</ele><time>2026-08-20T19:16:48Z</time></trkpt><trkpt lat="59.1023514234" lon="30.4731459171"><ele>301.03</ele><time>2026-08-20T19:16:49Z</time></trkpt><trkpt lat="59.1023514234" lon="30.4731459171"><ele>301.03</ele><time>2026-08-20T19:16:50Z</time></trkpt><trkpt lat="59.1023514234" lon="30.4731459171"><ele>301.03</ele><time>2026-08-20T19:16:51Z</time></trkpt><trkpt lat="59.1023514234" lon="30.4731459171"><ele>301.03</ele><time>2026-08-20T19:16:52Z</time></trkpt><trkpt lat="59.1023514234" lon="30.4731459171"><ele>301.03</ele><time>2026-08-20T19:16:53Z</time></trkpt><trkpt lat="59.1023514234" lon="30.4731459171"><ele>301.03</ele><time>2026-08-20T19:16:54Z</time></trkpt><trkpt lat="59.1023514234" lon="30.4731459171"><ele>301.03</ele><time>2026-08-20T19:16:55Z</time></trkpt><trkpt lat="59.1023514234" lon="30.4731459171"><ele>301.03</ele><time>2026-08-20T19:16:56Z</time></trkpt><trkpt lat="59.1023514234" lon="30.4731459171"><ele>301.03</ele><time>2026-08-20T19:16:57Z</time></trkpt><trkpt lat="59.1023514234" lon="30.4731459171"><ele>301.03</ele><time>2026-08-20T19:16:58Z</time></trkpt><trkpt lat="59.1023514234" lon="30.4731459171"><ele>301.03</ele><time>2026-08-20T19:16:59Z</time></trkpt><trkpt lat="59.1023514234" lon="30.4731459171"><ele>301.03</ele><time>2026-08-20T19:17:00Z</time></trkpt><trkpt lat="59.1023514234" lon="30.4731459171"><ele>301.03</ele><time>2026-08-20T19:17:01Z</time></trkpt><trkpt lat="59.1023514234" lon="30.4731459171"><ele>301.03</ele><time>2026-08-20T19:17:02Z</time></trkpt><trkpt lat="59.1023514234" lon="30.4731459171"><ele>301.51</ele><time>2026-08-20T19:17:03Z</time></trkpt><trkpt lat="59.1023514234" lon="30.4731459171"><ele>301.51</ele><time>2026-08-20T19:17:04Z</time></trkpt><trkpt lat="59.1023514234" lon="30.4731459171"><ele>301.51</ele><time>2026-08-20T19:17:05Z</time></trkpt><trkpt lat="59.1023293789" lon="30.4731701408"><ele>301.51</ele><time>2026-08-20T19:17:06Z</time></trkpt><trkpt lat="59.1023278702" lon="30.4731794447"><ele>301.51</ele><time>2026-08-20T19:17:07Z</time></trkpt><trkpt lat="59.1023237631" lon="30.4731786903"><ele>301.51</ele><time>2026-08-20T19:17:08Z</time></trkpt><trkpt lat="59.1023225896" lon="30.4731784388"><ele>301.51</ele><time>2026-08-20T19:17:09Z</time></trkpt><trkpt lat="59.1023230925" lon="30.4731837194"><ele>301.51</ele><time>2026-08-20T19:17:10Z</time></trkpt><trkpt lat="59.1023230925" lon="30.4731837194"><ele>301.51</ele><time>2026-08-20T19:17:11Z</time></trkpt><trkpt lat="59.1023230925" lon="30.4731837194"><ele>301.51</ele><time>2026-08-20T19:17:12Z</time></trkpt><trkpt lat="59.1023230925" lon="30.4731837194"><ele>301.51</ele><time>2026-08-20T19:17:13Z</time></trkpt><trkpt lat="59.1023179796" lon="30.4732189234"><ele>301.51</ele><time>2026-08-20T19:17:14Z</time></trkpt><trkpt lat="59.1023149621" lon="30.4732310772"><ele>301.51</ele><time>2026-08-20T19:17:15Z</time></trkpt><trkpt lat="59.1023129504" lon="30.4732384533"><ele>301.51</ele><time>2026-08-20T19:17:16Z</time></trkpt><trkpt lat="59.1023120284" lon="30.4732473381"><ele>301.51</ele><time>2026-08-20T19:17:17Z</time></trkpt><trkpt lat="59.1023105197" lon="30.4732572287"><ele>301.51</ele><time>2026-08-20T19:17:18Z</time></trkpt><trkpt lat="59.1023109388" lon="30.4732709751"><ele>301.03</ele><time>2026-08-20T19:17:19Z</time></trkpt><trkpt lat="59.1023090947" lon="30.4732821230"><ele>301.03</ele><time>2026-08-20T19:17:20Z</time></trkpt><trkpt lat="59.1023073345" lon="30.4732891638"><ele>301.03</ele><time>2026-08-20T19:17:21Z</time></trkpt><trkpt lat="59.1023045685" lon="30.4732889961"><ele>301.03</ele><time>2026-08-20T19:17:22Z</time></trkpt><trkpt lat="59.1023020539" lon="30.4732916784"><ele>301.03</ele><time>2026-08-20T19:17:23Z</time></trkpt><trkpt lat="59.1023001261" lon="30.4732933547"><ele>301.03</ele><time>2026-08-20T19:17:24Z</time></trkpt><trkpt lat="59.1023001261" lon="30.4732933547"><ele>301.03</ele><time>2026-08-20T19:17:25Z</time></trkpt><trkpt lat="59.1023001261" lon="30.4732933547"><ele>301.03</ele><time>2026-08-20T19:17:26Z</time></trkpt><trkpt lat="59.1023001261" lon="30.4732933547"><ele>301.03</ele><time>2026-08-20T19:17:27Z</time></trkpt><trkpt lat="59.1023001261" lon="30.4732933547"><ele>301.03</ele><time>2026-08-20T19:17:28Z</time></trkpt><trkpt lat="59.1022985335" lon="30.4733104538"><ele>301.03</ele><time>2026-08-20T19:17:29Z</time></trkpt><trkpt lat="59.1023000423" lon="30.4733152315"><ele>301.03</ele><time>2026-08-20T19:17:30Z</time></trkpt><trkpt lat="59.1023020539" lon="30.4733143933"><ele>301.03</ele><time>2026-08-20T19:17:31Z</time></trkpt><trkpt lat="59.1023032274" lon="30.4733134713"><ele>301.03</ele><time>2026-08-20T19:17:32Z</time></trkpt><trkpt lat="59.1023032274" lon="30.4733134713"><ele>301.03</ele><time>2026-08-20T19:17:33Z</time></trkpt><trkpt lat="59.1023032274" lon="30.4733134713"><ele>301.03</ele><time>2026-08-20T19:17:34Z</time></trkpt><trkpt lat="59.1023032274" lon="30.4733134713"><ele>301.03</ele><time>2026-08-20T19:17:35Z</time></trkpt><trkpt lat="59.1023032274" lon="30.4733134713"><ele>301.03</ele><time>2026-08-20T19:17:36Z</time></trkpt><trkpt lat="59.1023032274" lon="30.4733134713"><ele>301.03</ele><time>2026-08-20T19:17:37Z</time></trkpt><trkpt lat="59.1023032274" lon="30.4733134713"><ele>301.03</ele><time>2026-08-20T19:17:38Z</time></trkpt><trkpt lat="59.1023032274" lon="30.4733134713"><ele>301.03</ele><time>2026-08-20T19:17:39Z</time></trkpt><trkpt lat="59.1023196559" lon="30.4733236972"><ele>301.03</ele><time>2026-08-20T19:17:40Z</time></trkpt><trkpt lat="59.1023264453" lon="30.4733271338"><ele>301.03</ele><time>2026-08-20T19:17:41Z</time></trkpt><trkpt lat="59.1023337375" lon="30.4733316600"><ele>301.03</ele><time>2026-08-20T19:17:42Z</time></trkpt><trkpt lat="59.1023360845" lon="30.4733363539"><ele>301.03</ele><time>2026-08-20T19:17:43Z</time></trkpt><trkpt lat="59.1023425385" lon="30.4733399581"><ele>301.03</ele><time>2026-08-20T19:17:44Z</time></trkpt><trkpt lat="59.1023478191" lon="30.4733523633"><ele>301.03</ele><time>2026-08-20T19:17:45Z</time></trkpt><trkpt lat="59.1023484897" lon="30.4733571410"><ele>301.03</ele><time>2026-08-20T19:17:46Z</time></trkpt><trkpt lat="59.1023480706" lon="30.4733586498"><ele>301.03</ele><time>2026-08-20T19:17:47Z</time></trkpt><trkpt lat="59.1023450531" lon="30.4733631760"><ele>301.51</ele><time>2026-08-20T19:17:48Z</time></trkpt><trkpt lat="59.1023448855" lon="30.4733653553"><ele>301.51</ele><time>2026-08-20T19:17:49Z</time></trkpt><trkpt lat="59.1023448855" lon="30.4733653553"><ele>301.51</ele><time>2026-08-20T19:17:50Z</time></trkpt><trkpt lat="59.1023448855" lon="30.4733653553"><ele>301.51</ele><time>2026-08-20T19:17:51Z</time></trkpt><trkpt lat="59.1023448855" lon="30.4733653553"><ele>301.03</ele><time>2026-08-20T19:17:52Z</time></trkpt><trkpt lat="59.1023448855" lon="30.4733653553"><ele>301.03</ele><time>2026-08-20T19:17:53Z</time></trkpt><trkpt lat="59.1023448855" lon="30.4733653553"><ele>301.03</ele><time>2026-08-20T19:17:54Z</time></trkpt><trkpt lat="59.1023448855" lon="30.4733653553"><ele>301.03</ele><time>2026-08-20T19:17:55Z</time></trkpt><trkpt lat="59.1023448855" lon="30.4733653553"><ele>301.03</ele><time>2026-08-20T19:17:56Z</time></trkpt><trkpt lat="59.1023448855" lon="30.4733653553"><ele>301.03</ele><time>2026-08-20T19:17:57Z</time></trkpt><trkpt lat="59.1023448855" lon="30.4733653553"><ele>301.03</ele><time>2026-08-20T19:17:58Z</time></trkpt><trkpt lat="59.1023448855" lon="30.4733653553"><ele>301.03</ele><time>2026-08-20T19:17:59Z</time></trkpt><trkpt lat="59.1023448855" lon="30.4733653553"><ele>301.03</ele><time>2026-08-20T19:18:00Z</time></trkpt><trkpt lat="59.1023448855" lon="30.4733653553"><ele>301.03</ele><time>2026-08-20T19:18:01Z</time></trkpt><trkpt lat="59.1023448855" lon="30.4733653553"><ele>301.03</ele><time>2026-08-20T19:18:02Z</time></trkpt><trkpt lat="59.1023448855" lon="30.4733653553"><ele>301.03</ele><time>2026-08-20T19:18:03Z</time></trkpt><trkpt lat="59.1023609787" lon="30.4733650200"><ele>301.03</ele><time>2026-08-20T19:18:04Z</time></trkpt><trkpt lat="59.1023656726" lon="30.4733641818"><ele>301.03</ele><time>2026-08-20T19:18:05Z</time></trkpt><trkpt lat="59.1023721267" lon="30.4733613320"><ele>301.03</ele><time>2026-08-20T19:18:06Z</time></trkpt><trkpt lat="59.1023788322" lon="30.4733602423"><ele>301.03</ele><time>2026-08-20T19:18:07Z</time></trkpt><trkpt lat="59.1023845319" lon="30.4733613320"><ele>301.03</ele><time>2026-08-20T19:18:08Z</time></trkpt><trkpt lat="59.1023901477" lon="30.4733667802"><ele>301.03</ele><time>2026-08-20T19:18:09Z</time></trkpt><trkpt lat="59.1023943387" lon="30.4733718932"><ele>301.03</ele><time>2026-08-20T19:18:10Z</time></trkpt><trkpt lat="59.1023956798" lon="30.4733791854"><ele>301.03</ele><time>2026-08-20T19:18:11Z</time></trkpt><trkpt lat="59.1023990326" lon="30.4733846337"><ele>301.03</ele><time>2026-08-20T19:18:12Z</time></trkpt><trkpt lat="59.1024026368" lon="30.4733921774"><ele>301.03</ele><time>2026-08-20T19:18:13Z</time></trkpt><trkpt lat="59.1024067439" lon="30.4733982962"><ele>301.03</ele><time>2026-08-20T19:18:14Z</time></trkpt><trkpt lat="59.1024089232" lon="30.4734012298"><ele>301.03</ele><time>2026-08-20T19:18:15Z</time></trkpt><trkpt lat="59.1024090908" lon="30.4734050855"><ele>301.03</ele><time>2026-08-20T19:18:16Z</time></trkpt><trkpt lat="59.1024090908" lon="30.4734050855"><ele>301.03</ele><time>2026-08-20T19:18:17Z</time></trkpt><trkpt lat="59.1024095938" lon="30.4734383617"><ele>301.03</ele><time>2026-08-20T19:18:18Z</time></trkpt><trkpt lat="59.1024124436" lon="30.4734596517"><ele>301.03</ele><time>2026-08-20T19:18:19Z</time></trkpt><trkpt lat="59.1024121922" lon="30.4734818637"><ele>301.03</ele><time>2026-08-20T19:18:20Z</time></trkpt><trkpt lat="59.1024147905" lon="30.4734968673"><ele>301.03</ele><time>2026-08-20T19:18:21Z</time></trkpt><trkpt lat="59.1024187300" lon="30.4735095240"><ele>301.03</ele><time>2026-08-20T19:18:22Z</time></trkpt><trkpt lat="59.1024220828" lon="30.4735224321"><ele>301.03</ele><time>2026-08-20T19:18:23Z</time></trkpt><trkpt lat="59.1024234239" lon="30.4735357594"><ele>301.03</ele><time>2026-08-20T19:18:24Z</time></trkpt><trkpt lat="59.1024266928" lon="30.4735489190"><ele>301.03</ele><time>2026-08-20T19:18:25Z</time></trkpt><trkpt lat="59.1024292912" lon="30.4735679459"><ele>301.03</ele><time>2026-08-20T19:18:26Z</time></trkpt><trkpt lat="59.1024319734" lon="30.4735845421"><ele>301.03</ele><time>2026-08-20T19:18:27Z</time></trkpt><trkpt lat="59.1024324764" lon="30.4735991266"><ele>301.03</ele><time>2026-08-20T19:18:28Z</time></trkpt><trkpt lat="59.1024332307" lon="30.4736109450"><ele>301.03</ele><time>2026-08-20T19:18:29Z</time></trkpt><trkpt lat="59.1024340689" lon="30.4736291338"><ele>301.03</ele><time>2026-08-20T19:18:30Z</time></trkpt><trkpt lat="59.1024330631" lon="30.4736527707"><ele>301.03</ele><time>2026-08-20T19:18:31Z</time></trkpt><trkpt lat="59.1024349909" lon="30.4736710433"><ele>301.03</ele><time>2026-08-20T19:18:32Z</time></trkpt><trkpt lat="59.1024404392" lon="30.4736859631"><ele>301.03</ele><time>2026-08-20T19:18:33Z</time></trkpt><trkpt lat="59.1024445463" lon="30.4737055767"><ele>301.03</ele><time>2026-08-20T19:18:34Z</time></trkpt><trkpt lat="59.1024455521" lon="30.4737241846"><ele>301.03</ele><time>2026-08-20T19:18:35Z</time></trkpt><trkpt lat="59.1024453845" lon="30.4737365898"><ele>301.03</ele><time>2026-08-20T19:18:36Z</time></trkpt><trkpt lat="59.1024448816" lon="30.4737474862"><ele>301.03</ele><time>2026-08-20T19:18:37Z</time></trkpt><trkpt lat="59.1024431214" lon="30.4737580474"><ele>301.03</ele><time>2026-08-20T19:18:38Z</time></trkpt><trkpt lat="59.1024410259" lon="30.4737709556"><ele>301.03</ele><time>2026-08-20T19:18:39Z</time></trkpt><trkpt lat="59.1024409421" lon="30.4737831932"><ele>301.03</ele><time>2026-08-20T19:18:40Z</time></trkpt><trkpt lat="59.1024407744" lon="30.4738037288"><ele>301.03</ele><time>2026-08-20T19:18:41Z</time></trkpt><trkpt lat="59.1024393495" lon="30.4738192353"><ele>301.03</ele><time>2026-08-20T19:18:42Z</time></trkpt><trkpt lat="59.1024396848" lon="30.4738345742"><ele>301.03</ele><time>2026-08-20T19:18:43Z</time></trkpt><trkpt lat="59.1024378408" lon="30.4738409445"><ele>301.03</ele><time>2026-08-20T19:18:44Z</time></trkpt><trkpt lat="59.1024378408" lon="30.4738409445"><ele>301.03</ele><time>2026-08-20T19:18:45Z</time></trkpt><trkpt lat="59.1024378408" lon="30.4738409445"><ele>301.03</ele><time>2026-08-20T19:18:46Z</time></trkpt><trkpt lat="59.1024378408" lon="30.4738409445"><ele>301.03</ele><time>2026-08-20T19:18:47Z</time></trkpt><trkpt lat="59.1024378408" lon="30.4738409445"><ele>301.03</ele><time>2026-08-20T19:18:48Z</time></trkpt><trkpt lat="59.1024378408" lon="30.4738409445"><ele>301.03</ele><time>2026-08-20T19:18:49Z</time></trkpt><trkpt lat="59.1024378408" lon="30.4738409445"><ele>301.03</ele><time>2026-08-20T19:18:50Z</time></trkpt><trkpt lat="59.1024378408" lon="30.4738409445"><ele>301.03</ele><time>2026-08-20T19:18:51Z</time></trkpt><trkpt lat="59.1024378408" lon="30.4738409445"><ele>301.03</ele><time>2026-08-20T19:18:52Z</time></trkpt><trkpt lat="59.1024378408" lon="30.4738409445"><ele>301.03</ele><time>2026-08-20T19:18:53Z</time></trkpt><trkpt lat="59.1024378408" lon="30.4738409445"><ele>301.03</ele><time>2026-08-20T19:18:54Z</time></trkpt><trkpt lat="59.1024262737" lon="30.4738658387"><ele>301.03</ele><time>2026-08-20T19:18:55Z</time></trkpt><trkpt lat="59.1024223343" lon="30.4738670960"><ele>301.03</ele><time>2026-08-20T19:18:56Z</time></trkpt><trkpt lat="59.1024232563" lon="30.4738675989"><ele>301.03</ele><time>2026-08-20T19:18:57Z</time></trkpt><trkpt lat="59.1024192329" lon="30.4738714546"><ele>301.03</ele><time>2026-08-20T19:18:58Z</time></trkpt><trkpt lat="59.1024185624" lon="30.4738705326"><ele>301.03</ele><time>2026-08-20T19:18:59Z</time></trkpt><trkpt lat="59.1024185624" lon="30.4738705326"><ele>301.03</ele><time>2026-08-20T19:19:00Z</time></trkpt><trkpt lat="59.1024185624" lon="30.4738705326"><ele>301.03</ele><time>2026-08-20T19:19:01Z</time></trkpt><trkpt lat="59.1024185624" lon="30.4738705326"><ele>301.03</ele><time>2026-08-20T19:19:02Z</time></trkpt><trkpt lat="59.1024185624" lon="30.4738705326"><ele>301.03</ele><time>2026-08-20T19:19:03Z</time></trkpt><trkpt lat="59.1024204902" lon="30.4738560319"><ele>301.03</ele><time>2026-08-20T19:19:04Z</time></trkpt><trkpt lat="59.1024226695" lon="30.4738502484"><ele>301.03</ele><time>2026-08-20T19:19:05Z</time></trkpt><trkpt lat="59.1024214961" lon="30.4738482367"><ele>301.03</ele><time>2026-08-20T19:19:06Z</time></trkpt><trkpt lat="59.1024219990" lon="30.4738488235"><ele>301.03</ele><time>2026-08-20T19:19:07Z</time></trkpt><trkpt lat="59.1024176404" lon="30.4738531820"><ele>301.03</ele><time>2026-08-20T19:19:08Z</time></trkpt><trkpt lat="59.1024176404" lon="30.4738531820"><ele>301.03</ele><time>2026-08-20T19:19:09Z</time></trkpt><trkpt lat="59.1024176404" lon="30.4738531820"><ele>301.03</ele><time>2026-08-20T19:19:10Z</time></trkpt><trkpt lat="59.1024176404" lon="30.4738531820"><ele>301.03</ele><time>2026-08-20T19:19:11Z</time></trkpt><trkpt lat="59.1024176404" lon="30.4738531820"><ele>301.03</ele><time>2026-08-20T19:19:12Z</time></trkpt><trkpt lat="59.1024257708" lon="30.4738478176"><ele>301.03</ele><time>2026-08-20T19:19:13Z</time></trkpt><trkpt lat="59.1024261899" lon="30.4738513380"><ele>301.03</ele><time>2026-08-20T19:19:14Z</time></trkpt><trkpt lat="59.1024223343" lon="30.4738535173"><ele>301.03</ele><time>2026-08-20T19:19:15Z</time></trkpt><trkpt lat="59.1024212446" lon="30.4738449678"><ele>301.03</ele><time>2026-08-20T19:19:16Z</time></trkpt><trkpt lat="59.1024171375" lon="30.4738372564"><ele>301.03</ele><time>2026-08-20T19:19:17Z</time></trkpt><trkpt lat="59.1024166346" lon="30.4738347419"><ele>301.03</ele><time>2026-08-20T19:19:18Z</time></trkpt><trkpt lat="59.1024167184" lon="30.4738345742"><ele>301.03</ele><time>2026-08-20T19:19:19Z</time></trkpt><trkpt lat="59.1024150420" lon="30.4738327302"><ele>301.03</ele><time>2026-08-20T19:19:20Z</time></trkpt><trkpt lat="59.1024150420" lon="30.4738327302"><ele>301.03</ele><time>2026-08-20T19:19:21Z</time></trkpt><trkpt lat="59.1024150420" lon="30.4738327302"><ele>301.03</ele><time>2026-08-20T19:19:22Z</time></trkpt><trkpt lat="59.1024150420" lon="30.4738327302"><ele>301.03</ele><time>2026-08-20T19:19:23Z</time></trkpt><trkpt lat="59.1024150420" lon="30.4738327302"><ele>301.03</ele><time>2026-08-20T19:19:24Z</time></trkpt><trkpt lat="59.1024150420" lon="30.4738327302"><ele>301.03</ele><time>2026-08-20T19:19:25Z</time></trkpt><trkpt lat="59.1024150420" lon="30.4738327302"><ele>301.03</ele><time>2026-08-20T19:19:26Z</time></trkpt><trkpt lat="59.1024150420" lon="30.4738327302"><ele>301.03</ele><time>2026-08-20T19:19:27Z</time></trkpt><trkpt lat="59.1024150420" lon="30.4738327302"><ele>301.03</ele><time>2026-08-20T19:19:28Z</time></trkpt><trkpt lat="59.1024150420" lon="30.4738327302"><ele>301.03</ele><time>2026-08-20T19:19:29Z</time></trkpt><trkpt lat="59.1024150420" lon="30.4738327302"><ele>301.03</ele><time>2026-08-20T19:19:30Z</time></trkpt><trkpt lat="59.1024150420" lon="30.4738327302"><ele>301.03</ele><time>2026-08-20T19:19:31Z</time></trkpt><trkpt lat="59.1024150420" lon="30.4738327302"><ele>301.03</ele><time>2026-08-20T19:19:32Z</time></trkpt><trkpt lat="59.1024150420" lon="30.4738327302"><ele>301.03</ele><time>2026-08-20T19:19:33Z</time></trkpt><trkpt lat="59.1024150420" lon="30.4738327302"><ele>301.03</ele><time>2026-08-20T19:19:34Z</time></trkpt><trkpt lat="59.1024150420" lon="30.4738327302"><ele>301.03</ele><time>2026-08-20T19:19:35Z</time></trkpt><trkpt lat="59.1024150420" lon="30.4738327302"><ele>301.03</ele><time>2026-08-20T19:19:36Z</time></trkpt><trkpt lat="59.1024150420" lon="30.4738327302"><ele>301.03</ele><time>2026-08-20T19:19:37Z</time></trkpt><trkpt lat="59.1024150420" lon="30.4738327302"><ele>301.03</ele><time>2026-08-20T19:19:38Z</time></trkpt><trkpt lat="59.1024150420" lon="30.4738327302"><ele>301.03</ele><time>2026-08-20T19:19:39Z</time></trkpt><trkpt lat="59.1024150420" lon="30.4738327302"><ele>301.03</ele><time>2026-08-20T19:19:40Z</time></trkpt><trkpt lat="59.1024150420" lon="30.4738327302"><ele>301.03</ele><time>2026-08-20T19:19:41Z</time></trkpt><trkpt lat="59.1024150420" lon="30.4738327302"><ele>301.03</ele><time>2026-08-20T19:19:42Z</time></trkpt><trkpt lat="59.1024150420" lon="30.4738327302"><ele>301.03</ele><time>2026-08-20T19:19:43Z</time></trkpt><trkpt lat="59.1024150420" lon="30.4738327302"><ele>301.03</ele><time>2026-08-20T19:19:44Z</time></trkpt><trkpt lat="59.1024150420" lon="30.4738327302"><ele>301.03</ele><time>2026-08-20T19:19:45Z</time></trkpt><trkpt lat="59.1024150420" lon="30.4738327302"><ele>301.03</ele><time>2026-08-20T19:19:46Z</time></trkpt><trkpt lat="59.1024150420" lon="30.4738327302"><ele>301.03</ele><time>2026-08-20T19:19:47Z</time></trkpt><trkpt lat="59.1024150420" lon="30.4738327302"><ele>301.03</ele><time>2026-08-20T19:19:48Z</time></trkpt><trkpt lat="59.1024150420" lon="30.4738327302"><ele>301.03</ele><time>2026-08-20T19:19:49Z</time></trkpt><trkpt lat="59.1024150420" lon="30.4738327302"><ele>301.03</ele><time>2026-08-20T19:19:50Z</time></trkpt><trkpt lat="59.1024150420" lon="30.4738327302"><ele>301.03</ele><time>2026-08-20T19:19:51Z</time></trkpt><trkpt lat="59.1024150420" lon="30.4738327302"><ele>301.03</ele><time>2026-08-20T19:19:52Z</time></trkpt><trkpt lat="59.1024150420" lon="30.4738327302"><ele>301.03</ele><time>2026-08-20T19:19:53Z</time></trkpt><trkpt lat="59.1024150420" lon="30.4738327302"><ele>301.03</ele><time>2026-08-20T19:19:54Z</time></trkpt><trkpt lat="59.1024150420" lon="30.4738327302"><ele>301.03</ele><time>2026-08-20T19:19:55Z</time></trkpt><trkpt lat="59.1024150420" lon="30.4738327302"><ele>301.03</ele><time>2026-08-20T19:19:56Z</time></trkpt><trkpt lat="59.1024150420" lon="30.4738327302"><ele>301.03</ele><time>2026-08-20T19:19:57Z</time></trkpt><trkpt lat="59.1024150420" lon="30.4738327302"><ele>301.03</ele><time>2026-08-20T19:19:58Z</time></trkpt><trkpt lat="59.1024150420" lon="30.4738327302"><ele>301.03</ele><time>2026-08-20T19:19:59Z</time></trkpt><trkpt lat="59.1024150420" lon="30.4738327302"><ele>301.03</ele><time>2026-08-20T19:20:00Z</time></trkpt><trkpt lat="59.1024150420" lon="30.4738327302"><ele>301.03</ele><time>2026-08-20T19:20:01Z</time></trkpt><trkpt lat="59.1024150420" lon="30.4738327302"><ele>301.03</ele><time>2026-08-20T19:20:02Z</time></trkpt><trkpt lat="59.1024150420" lon="30.4738327302"><ele>301.03</ele><time>2026-08-20T19:20:03Z</time></trkpt><trkpt lat="59.1024481505" lon="30.4738258570"><ele>301.03</ele><time>2026-08-20T19:20:04Z</time></trkpt><trkpt lat="59.1024515871" lon="30.4738264438"><ele>301.03</ele><time>2026-08-20T19:20:05Z</time></trkpt><trkpt lat="59.1024531797" lon="30.4738287907"><ele>301.03</ele><time>2026-08-20T19:20:06Z</time></trkpt><trkpt lat="59.1024542693" lon="30.4738322273"><ele>301.03</ele><time>2026-08-20T19:20:07Z</time></trkpt><trkpt lat="59.1024537664" lon="30.4738340713"><ele>301.03</ele><time>2026-08-20T19:20:08Z</time></trkpt><trkpt lat="59.1024537664" lon="30.4738340713"><ele>301.03</ele><time>2026-08-20T19:20:09Z</time></trkpt><trkpt lat="59.1024537664" lon="30.4738340713"><ele>301.03</ele><time>2026-08-20T19:20:10Z</time></trkpt><trkpt lat="59.1024537664" lon="30.4738340713"><ele>301.03</ele><time>2026-08-20T19:20:11Z</time></trkpt><trkpt lat="59.1024537664" lon="30.4738340713"><ele>301.03</ele><time>2026-08-20T19:20:12Z</time></trkpt><trkpt lat="59.1024537664" lon="30.4738340713"><ele>301.03</ele><time>2026-08-20T19:20:13Z</time></trkpt><trkpt lat="59.1024537664" lon="30.4738340713"><ele>301.03</ele><time>2026-08-20T19:20:14Z</time></trkpt><trkpt lat="59.1024537664" lon="30.4738340713"><ele>301.03</ele><time>2026-08-20T19:20:15Z</time></trkpt><trkpt lat="59.1024537664" lon="30.4738340713"><ele>301.03</ele><time>2026-08-20T19:20:16Z</time></trkpt><trkpt lat="59.1024537664" lon="30.4738340713"><ele>301.03</ele><time>2026-08-20T19:20:17Z</time></trkpt><trkpt lat="59.1024537664" lon="30.4738340713"><ele>301.03</ele><time>2026-08-20T19:20:18Z</time></trkpt><trkpt lat="59.1024537664" lon="30.4738340713"><ele>301.03</ele><time>2026-08-20T19:20:19Z</time></trkpt><trkpt lat="59.1024537664" lon="30.4738340713"><ele>301.03</ele><time>2026-08-20T19:20:20Z</time></trkpt><trkpt lat="59.1024537664" lon="30.4738340713"><ele>301.03</ele><time>2026-08-20T19:20:21Z</time></trkpt><trkpt lat="59.1024537664" lon="30.4738340713"><ele>301.03</ele><time>2026-08-20T19:20:22Z</time></trkpt><trkpt lat="59.1024537664" lon="30.4738340713"><ele>301.03</ele><time>2026-08-20T19:20:23Z</time></trkpt><trkpt lat="59.1024537664" lon="30.4738340713"><ele>301.03</ele><time>2026-08-20T19:20:24Z</time></trkpt><trkpt lat="59.1024537664" lon="30.4738340713"><ele>301.03</ele><time>2026-08-20T19:20:25Z</time></trkpt><trkpt lat="59.1024537664" lon="30.4738340713"><ele>301.03</ele><time>2026-08-20T19:20:26Z</time></trkpt><trkpt lat="59.1024426185" lon="30.4738584626"><ele>301.03</ele><time>2026-08-20T19:20:27Z</time></trkpt><trkpt lat="59.1024467256" lon="30.4738693591"><ele>301.03</ele><time>2026-08-20T19:20:28Z</time></trkpt><trkpt lat="59.1024508327" lon="30.4738810938"><ele>301.03</ele><time>2026-08-20T19:20:29Z</time></trkpt><trkpt lat="59.1024590470" lon="30.4738919903"><ele>301.03</ele><time>2026-08-20T19:20:30Z</time></trkpt><trkpt lat="59.1024703626" lon="30.4739064910"><ele>301.03</ele><time>2026-08-20T19:20:31Z</time></trkpt><trkpt lat="59.1024790797" lon="30.4739135318"><ele>301.03</ele><time>2026-08-20T19:20:32Z</time></trkpt><trkpt lat="59.1024850309" lon="30.4739252664"><ele>301.03</ele><time>2026-08-20T19:20:33Z</time></trkpt><trkpt lat="59.1024904791" lon="30.4739478976"><ele>301.03</ele><time>2026-08-20T19:20:34Z</time></trkpt><trkpt lat="59.1024954244" lon="30.4739712831"><ele>301.03</ele><time>2026-08-20T19:20:35Z</time></trkpt><trkpt lat="59.1025001183" lon="30.4739852808"><ele>301.03</ele><time>2026-08-20T19:20:36Z</time></trkpt><trkpt lat="59.1025046445" lon="30.4739946686"><ele>301.03</ele><time>2026-08-20T19:20:37Z</time></trkpt><trkpt lat="59.1025107633" lon="30.4740102589"><ele>301.03</ele><time>2026-08-20T19:20:38Z</time></trkpt><trkpt lat="59.1025141999" lon="30.4740241729"><ele>301.03</ele><time>2026-08-20T19:20:39Z</time></trkpt><trkpt lat="59.1025161278" lon="30.4740381707"><ele>301.03</ele><time>2026-08-20T19:20:40Z</time></trkpt><trkpt lat="59.1025183909" lon="30.4740493186"><ele>301.03</ele><time>2026-08-20T19:20:41Z</time></trkpt><trkpt lat="59.1025215760" lon="30.4740622267"><ele>301.03</ele><time>2026-08-20T19:20:42Z</time></trkpt><trkpt lat="59.1025244258" lon="30.4740782361"><ele>301.03</ele><time>2026-08-20T19:20:43Z</time></trkpt><trkpt lat="59.1025275271" lon="30.4740934912"><ele>301.03</ele><time>2026-08-20T19:20:44Z</time></trkpt><trkpt lat="59.1025301255" lon="30.4741083272"><ele>301.03</ele><time>2026-08-20T19:20:45Z</time></trkpt><trkpt lat="59.1025342327" lon="30.4741271865"><ele>301.03</ele><time>2026-08-20T19:20:46Z</time></trkpt><trkpt lat="59.1025364958" lon="30.4741438664"><ele>301.03</ele><time>2026-08-20T19:20:47Z</time></trkpt><trkpt lat="59.1025381722" lon="30.4741508234"><ele>301.03</ele><time>2026-08-20T19:20:48Z</time></trkpt><trkpt lat="59.1025372501" lon="30.4741555173"><ele>301.03</ele><time>2026-08-20T19:20:49Z</time></trkpt><trkpt lat="59.1025350709" lon="30.4741584510"><ele>301.03</ele><time>2026-08-20T19:20:50Z</time></trkpt><trkpt lat="59.1025350709" lon="30.4741584510"><ele>301.03</ele><time>2026-08-20T19:20:51Z</time></trkpt><trkpt lat="59.1025350709" lon="30.4741584510"><ele>301.03</ele><time>2026-08-20T19:20:52Z</time></trkpt><trkpt lat="59.1025350709" lon="30.4741584510"><ele>301.03</ele><time>2026-08-20T19:20:53Z</time></trkpt><trkpt lat="59.1025367472" lon="30.4741764721"><ele>301.03</ele><time>2026-08-20T19:20:54Z</time></trkpt><trkpt lat="59.1025384236" lon="30.4741836805"><ele>301.03</ele><time>2026-08-20T19:20:55Z</time></trkpt><trkpt lat="59.1025389265" lon="30.4741928168"><ele>301.03</ele><time>2026-08-20T19:20:56Z</time></trkpt><trkpt lat="59.1025405191" lon="30.4741993546"><ele>301.03</ele><time>2026-08-20T19:20:57Z</time></trkpt><trkpt lat="59.1025420278" lon="30.4742050543"><ele>301.03</ele><time>2026-08-20T19:20:58Z</time></trkpt><trkpt lat="59.1025447939" lon="30.4742110893"><ele>301.03</ele><time>2026-08-20T19:20:59Z</time></trkpt><trkpt lat="59.1025447939" lon="30.4742110893"><ele>301.03</ele><time>2026-08-20T19:21:00Z</time></trkpt><trkpt lat="59.1025530919" lon="30.4742330499"><ele>301.03</ele><time>2026-08-20T19:21:01Z</time></trkpt><trkpt lat="59.1025570314" lon="30.4742482211"><ele>301.03</ele><time>2026-08-20T19:21:02Z</time></trkpt><trkpt lat="59.1025608871" lon="30.4742618836"><ele>301.03</ele><time>2026-08-20T19:21:03Z</time></trkpt><trkpt lat="59.1025635693" lon="30.4742753785"><ele>301.03</ele><time>2026-08-20T19:21:04Z</time></trkpt><trkpt lat="59.1025631502" lon="30.4742922261"><ele>301.03</ele><time>2026-08-20T19:21:05Z</time></trkpt><trkpt lat="59.1025653295" lon="30.4743009433"><ele>301.03</ele><time>2026-08-20T19:21:06Z</time></trkpt><trkpt lat="59.1025668383" lon="30.4743080679"><ele>301.03</ele><time>2026-08-20T19:21:07Z</time></trkpt><trkpt lat="59.1025681794" lon="30.4743138514"><ele>301.03</ele><time>2026-08-20T19:21:08Z</time></trkpt><trkpt lat="59.1025694367" lon="30.4743154440"><ele>301.03</ele><time>2026-08-20T19:21:09Z</time></trkpt><trkpt lat="59.1025707778" lon="30.4743163660"><ele>301.03</ele><time>2026-08-20T19:21:10Z</time></trkpt><trkpt lat="59.1025710292" lon="30.4743171204"><ele>301.03</ele><time>2026-08-20T19:21:11Z</time></trkpt><trkpt lat="59.1025710292" lon="30.4743171204"><ele>301.03</ele><time>2026-08-20T19:21:12Z</time></trkpt><trkpt lat="59.1025760584" lon="30.4743291903"><ele>301.03</ele><time>2026-08-20T19:21:13Z</time></trkpt><trkpt lat="59.1025785729" lon="30.4743395839"><ele>301.03</ele><time>2026-08-20T19:21:14Z</time></trkpt><trkpt lat="59.1025834344" lon="30.4743644781"><ele>301.03</ele><time>2026-08-20T19:21:15Z</time></trkpt><trkpt lat="59.1025857814" lon="30.4743811581"><ele>301.03</ele><time>2026-08-20T19:21:16Z</time></trkpt><trkpt lat="59.1025868710" lon="30.4743910488"><ele>301.03</ele><time>2026-08-20T19:21:17Z</time></trkpt><trkpt lat="59.1025908943" lon="30.4744041245"><ele>301.03</ele><time>2026-08-20T19:21:18Z</time></trkpt><trkpt lat="59.1025936604" lon="30.4744218942"><ele>301.03</ele><time>2026-08-20T19:21:19Z</time></trkpt><trkpt lat="59.1025959235" lon="30.4744330421"><ele>301.03</ele><time>2026-08-20T19:21:20Z</time></trkpt><trkpt lat="59.1026002821" lon="30.4744459502"><ele>301.03</ele><time>2026-08-20T19:21:21Z</time></trkpt><trkpt lat="59.1026016232" lon="30.4744568467"><ele>301.03</ele><time>2026-08-20T19:21:22Z</time></trkpt><trkpt lat="59.1026018746" lon="30.4744688328"><ele>301.03</ele><time>2026-08-20T19:21:23Z</time></trkpt><trkpt lat="59.1026039701" lon="30.4744872730"><ele>301.03</ele><time>2026-08-20T19:21:24Z</time></trkpt><trkpt lat="59.1026018746" lon="30.4745071381"><ele>301.03</ele><time>2026-08-20T19:21:25Z</time></trkpt><trkpt lat="59.1025973484" lon="30.4745141789"><ele>301.03</ele><time>2026-08-20T19:21:26Z</time></trkpt><trkpt lat="59.1025972646" lon="30.4745213874"><ele>301.03</ele><time>2026-08-20T19:21:27Z</time></trkpt><trkpt lat="59.1025972646" lon="30.4745213874"><ele>301.03</ele><time>2026-08-20T19:21:28Z</time></trkpt><trkpt lat="59.1025972646" lon="30.4745213874"><ele>301.03</ele><time>2026-08-20T19:21:29Z</time></trkpt><trkpt lat="59.1025972646" lon="30.4745213874"><ele>301.03</ele><time>2026-08-20T19:21:30Z</time></trkpt><trkpt lat="59.1025972646" lon="30.4745213874"><ele>301.03</ele><time>2026-08-20T19:21:31Z</time></trkpt><trkpt lat="59.1025985219" lon="30.4745616205"><ele>301.03</ele><time>2026-08-20T19:21:32Z</time></trkpt><trkpt lat="59.1026000306" lon="30.4745744448"><ele>301.03</ele><time>2026-08-20T19:21:33Z</time></trkpt><trkpt lat="59.1026029643" lon="30.4745883588"><ele>301.03</ele><time>2026-08-20T19:21:34Z</time></trkpt><trkpt lat="59.1026060656" lon="30.4746009316"><ele>301.03</ele><time>2026-08-20T19:21:35Z</time></trkpt><trkpt lat="59.1026075743" lon="30.4746115766"><ele>301.03</ele><time>2026-08-20T19:21:36Z</time></trkpt><trkpt lat="59.1026106756" lon="30.4746205453"><ele>301.03</ele><time>2026-08-20T19:21:37Z</time></trkpt><trkpt lat="59.1026137769" lon="30.4746313579"><ele>301.03</ele><time>2026-08-20T19:21:38Z</time></trkpt><trkpt lat="59.1026151180" lon="30.4746454395"><ele>301.03</ele><time>2026-08-20T19:21:39Z</time></trkpt><trkpt lat="59.1026147828" lon="30.4746610299"><ele>301.03</ele><time>2026-08-20T19:21:40Z</time></trkpt><trkpt lat="59.1026144475" lon="30.4746743571"><ele>301.03</ele><time>2026-08-20T19:21:41Z</time></trkpt><trkpt lat="59.1026160400" lon="30.4746859241"><ele>301.03</ele><time>2026-08-20T19:21:42Z</time></trkpt><trkpt lat="59.1026196443" lon="30.4747013468"><ele>301.03</ele><time>2026-08-20T19:21:43Z</time></trkpt><trkpt lat="59.1026230808" lon="30.4747201223"><ele>301.03</ele><time>2026-08-20T19:21:44Z</time></trkpt><trkpt lat="59.1026289482" lon="30.4747333657"><ele>301.03</ele><time>2026-08-20T19:21:45Z</time></trkpt><trkpt lat="59.1026341449" lon="30.4747491237"><ele>301.03</ele><time>2026-08-20T19:21:46Z</time></trkpt><trkpt lat="59.1026382521" lon="30.4747667257"><ele>301.03</ele><time>2026-08-20T19:21:47Z</time></trkpt><trkpt lat="59.1026410181" lon="30.4747855850"><ele>301.03</ele><time>2026-08-20T19:21:48Z</time></trkpt><trkpt lat="59.1026445385" lon="30.4748000856"><ele>301.03</ele><time>2026-08-20T19:21:49Z</time></trkpt><trkpt lat="59.1026499867" lon="30.4748148378"><ele>301.03</ele><time>2026-08-20T19:21:50Z</time></trkpt><trkpt lat="59.1026530880" lon="30.4748274945"><ele>301.03</ele><time>2026-08-20T19:21:51Z</time></trkpt><trkpt lat="59.1026567761" lon="30.4748375528"><ele>301.03</ele><time>2026-08-20T19:21:52Z</time></trkpt><trkpt lat="59.1026595421" lon="30.4748413246"><ele>301.03</ele><time>2026-08-20T19:21:53Z</time></trkpt><trkpt lat="59.1026627272" lon="30.4748490360"><ele>301.03</ele><time>2026-08-20T19:21:54Z</time></trkpt><trkpt lat="59.1026650742" lon="30.4748547357"><ele>301.03</ele><time>2026-08-20T19:21:55Z</time></trkpt><trkpt lat="59.1026650742" lon="30.4748547357"><ele>301.03</ele><time>2026-08-20T19:21:56Z</time></trkpt><trkpt lat="59.1026650742" lon="30.4748547357"><ele>301.03</ele><time>2026-08-20T19:21:57Z</time></trkpt><trkpt lat="59.1026650742" lon="30.4748547357"><ele>301.03</ele><time>2026-08-20T19:21:58Z</time></trkpt><trkpt lat="59.1026650742" lon="30.4748547357"><ele>301.03</ele><time>2026-08-20T19:21:59Z</time></trkpt><trkpt lat="59.1026650742" lon="30.4748547357"><ele>301.03</ele><time>2026-08-20T19:22:00Z</time></trkpt><trkpt lat="59.1026650742" lon="30.4748547357"><ele>301.03</ele><time>2026-08-20T19:22:01Z</time></trkpt><trkpt lat="59.1026650742" lon="30.4748547357"><ele>301.03</ele><time>2026-08-20T19:22:02Z</time></trkpt><trkpt lat="59.1026650742" lon="30.4748547357"><ele>301.03</ele><time>2026-08-20T19:22:03Z</time></trkpt><trkpt lat="59.1026650742" lon="30.4748547357"><ele>301.03</ele><time>2026-08-20T19:22:04Z</time></trkpt><trkpt lat="59.1026803292" lon="30.4748786241"><ele>301.03</ele><time>2026-08-20T19:22:05Z</time></trkpt><trkpt lat="59.1026870348" lon="30.4748831503"><ele>301.03</ele><time>2026-08-20T19:22:06Z</time></trkpt><trkpt lat="59.1026912257" lon="30.4748818930"><ele>301.03</ele><time>2026-08-20T19:22:07Z</time></trkpt><trkpt lat="59.1026972607" lon="30.4748798814"><ele>301.03</ele><time>2026-08-20T19:22:08Z</time></trkpt><trkpt lat="59.1027048882" lon="30.4748779535"><ele>301.03</ele><time>2026-08-20T19:22:09Z</time></trkpt><trkpt lat="59.1027113423" lon="30.4748755228"><ele>301.03</ele><time>2026-08-20T19:22:10Z</time></trkpt><trkpt lat="59.1027144436" lon="30.4748742655"><ele>301.03</ele><time>2026-08-20T19:22:11Z</time></trkpt><trkpt lat="59.1027145274" lon="30.4748725891"><ele>301.03</ele><time>2026-08-20T19:22:12Z</time></trkpt><trkpt lat="59.1027172934" lon="30.4748730920"><ele>301.03</ele><time>2026-08-20T19:22:13Z</time></trkpt><trkpt lat="59.1027168743" lon="30.4748714995"><ele>301.03</ele><time>2026-08-20T19:22:14Z</time></trkpt><trkpt lat="59.1027168743" lon="30.4748714995"><ele>301.03</ele><time>2026-08-20T19:22:15Z</time></trkpt><trkpt lat="59.1027216520" lon="30.4748623632"><ele>301.03</ele><time>2026-08-20T19:22:16Z</time></trkpt><trkpt lat="59.1027274355" lon="30.4748596810"><ele>301.03</ele><time>2026-08-20T19:22:17Z</time></trkpt><trkpt lat="59.1027329676" lon="30.4748563282"><ele>301.03</ele><time>2026-08-20T19:22:18Z</time></trkpt><trkpt lat="59.1027396731" lon="30.4748580884"><ele>301.03</ele><time>2026-08-20T19:22:19Z</time></trkpt><trkpt lat="59.1027437802" lon="30.4748628661"><ele>301.03</ele><time>2026-08-20T19:22:20Z</time></trkpt><trkpt lat="59.1027468815" lon="30.4748673923"><ele>301.03</ele><time>2026-08-20T19:22:21Z</time></trkpt><trkpt lat="59.1027491447" lon="30.4748772830"><ele>301.03</ele><time>2026-08-20T19:22:22Z</time></trkpt><trkpt lat="59.1027517430" lon="30.4748861678"><ele>301.03</ele><time>2026-08-20T19:22:23Z</time></trkpt><trkpt lat="59.1027562693" lon="30.4748956393"><ele>301.03</ele><time>2026-08-20T19:22:24Z</time></trkpt><trkpt lat="59.1027632263" lon="30.4749047756"><ele>301.03</ele><time>2026-08-20T19:22:25Z</time></trkpt><trkpt lat="59.1027689259" lon="30.4749183543"><ele>301.03</ele><time>2026-08-20T19:22:26Z</time></trkpt><trkpt lat="59.1027748771" lon="30.4749285802"><ele>301.03</ele><time>2026-08-20T19:22:27Z</time></trkpt><trkpt lat="59.1027793195" lon="30.4749397282"><ele>301.03</ele><time>2026-08-20T19:22:28Z</time></trkpt><trkpt lat="59.1027835943" lon="30.4749532230"><ele>301.03</ele><time>2026-08-20T19:22:29Z</time></trkpt><trkpt lat="59.1027859412" lon="30.4749674723"><ele>301.03</ele><time>2026-08-20T19:22:30Z</time></trkpt><trkpt lat="59.1027900483" lon="30.4749804642"><ele>301.03</ele><time>2026-08-20T19:22:31Z</time></trkpt><trkpt lat="59.1027918924" lon="30.4749928694"><ele>301.03</ele><time>2026-08-20T19:22:32Z</time></trkpt><trkpt lat="59.1027941555" lon="30.4750046879"><ele>301.03</ele><time>2026-08-20T19:22:33Z</time></trkpt><trkpt lat="59.1027975921" lon="30.4750080407"><ele>301.03</ele><time>2026-08-20T19:22:34Z</time></trkpt><trkpt lat="59.1027996875" lon="30.4750103876"><ele>301.03</ele><time>2026-08-20T19:22:35Z</time></trkpt><trkpt lat="59.1028022859" lon="30.4750156682"><ele>301.03</ele><time>2026-08-20T19:22:36Z</time></trkpt><trkpt lat="59.1028022859" lon="30.4750156682"><ele>301.03</ele><time>2026-08-20T19:22:37Z</time></trkpt><trkpt lat="59.1028022859" lon="30.4750156682"><ele>301.03</ele><time>2026-08-20T19:22:38Z</time></trkpt><trkpt lat="59.1028022859" lon="30.4750156682"><ele>301.03</ele><time>2026-08-20T19:22:39Z</time></trkpt><trkpt lat="59.1028022859" lon="30.4750156682"><ele>301.51</ele><time>2026-08-20T19:22:40Z</time></trkpt><trkpt lat="59.1028022859" lon="30.4750156682"><ele>301.51</ele><time>2026-08-20T19:22:41Z</time></trkpt><trkpt lat="59.1028022859" lon="30.4750156682"><ele>301.51</ele><time>2026-08-20T19:22:42Z</time></trkpt><trkpt lat="59.1028022859" lon="30.4750156682"><ele>301.51</ele><time>2026-08-20T19:22:43Z</time></trkpt><trkpt lat="59.1027932335" lon="30.4750421550"><ele>301.51</ele><time>2026-08-20T19:22:44Z</time></trkpt><trkpt lat="59.1027940717" lon="30.4750488605"><ele>301.51</ele><time>2026-08-20T19:22:45Z</time></trkpt><trkpt lat="59.1027947422" lon="30.4750558175"><ele>301.51</ele><time>2026-08-20T19:22:46Z</time></trkpt><trkpt lat="59.1027971730" lon="30.4750620201"><ele>301.51</ele><time>2026-08-20T19:22:47Z</time></trkpt><trkpt lat="59.1027971730" lon="30.4750620201"><ele>301.51</ele><time>2026-08-20T19:22:48Z</time></trkpt><trkpt lat="59.1027987655" lon="30.4750890937"><ele>301.03</ele><time>2026-08-20T19:22:49Z</time></trkpt><trkpt lat="59.1028015316" lon="30.4751037620"><ele>301.03</ele><time>2026-08-20T19:22:50Z</time></trkpt><trkpt lat="59.1028032918" lon="30.4751146585"><ele>301.03</ele><time>2026-08-20T19:22:51Z</time></trkpt><trkpt lat="59.1028051358" lon="30.4751203582"><ele>301.03</ele><time>2026-08-20T19:22:52Z</time></trkpt><trkpt lat="59.1028057225" lon="30.4751310870"><ele>301.51</ele><time>2026-08-20T19:22:53Z</time></trkpt><trkpt lat="59.1028044652" lon="30.4751429893"><ele>301.51</ele><time>2026-08-20T19:22:54Z</time></trkpt><trkpt lat="59.1027991846" lon="30.4751525447"><ele>301.51</ele><time>2026-08-20T19:22:55Z</time></trkpt><trkpt lat="59.1027946584" lon="30.4751605913"><ele>301.51</ele><time>2026-08-20T19:22:56Z</time></trkpt><trkpt lat="59.1027904674" lon="30.4751688894"><ele>301.03</ele><time>2026-08-20T19:22:57Z</time></trkpt><trkpt lat="59.1027892940" lon="30.4751779418"><ele>301.51</ele><time>2026-08-20T19:22:58Z</time></trkpt><trkpt lat="59.1027939878" lon="30.4751829710"><ele>301.51</ele><time>2026-08-20T19:22:59Z</time></trkpt><trkpt lat="59.1027930658" lon="30.4751909338"><ele>301.51</ele><time>2026-08-20T19:23:00Z</time></trkpt><trkpt lat="59.1027884558" lon="30.4752040934"><ele>301.51</ele><time>2026-08-20T19:23:01Z</time></trkpt><trkpt lat="59.1027870309" lon="30.4752156604"><ele>301.03</ele><time>2026-08-20T19:23:02Z</time></trkpt><trkpt lat="59.1027874500" lon="30.4752294905"><ele>301.03</ele><time>2026-08-20T19:23:03Z</time></trkpt><trkpt lat="59.1027882881" lon="30.4752480984"><ele>301.03</ele><time>2026-08-20T19:23:04Z</time></trkpt><trkpt lat="59.1027849354" lon="30.4752674606"><ele>301.03</ele><time>2026-08-20T19:23:05Z</time></trkpt><trkpt lat="59.1027831752" lon="30.4752780218"><ele>301.03</ele><time>2026-08-20T19:23:06Z</time></trkpt><trkpt lat="59.1027789842" lon="30.4752833862"><ele>301.03</ele><time>2026-08-20T19:23:07Z</time></trkpt><trkpt lat="59.1027760506" lon="30.4752940312"><ele>301.03</ele><time>2026-08-20T19:23:08Z</time></trkpt><trkpt lat="59.1027721949" lon="30.4753019940"><ele>301.03</ele><time>2026-08-20T19:23:09Z</time></trkpt><trkpt lat="59.1027721949" lon="30.4753019940"><ele>301.03</ele><time>2026-08-20T19:23:10Z</time></trkpt><trkpt lat="59.1027721949" lon="30.4753019940"><ele>301.03</ele><time>2026-08-20T19:23:11Z</time></trkpt><trkpt lat="59.1027721949" lon="30.4753019940"><ele>301.03</ele><time>2026-08-20T19:23:12Z</time></trkpt><trkpt lat="59.1027579457" lon="30.4753193446"><ele>301.03</ele><time>2026-08-20T19:23:13Z</time></trkpt><trkpt lat="59.1027563531" lon="30.4753275588"><ele>301.03</ele><time>2026-08-20T19:23:14Z</time></trkpt><trkpt lat="59.1027560178" lon="30.4753355216"><ele>301.03</ele><time>2026-08-20T19:23:15Z</time></trkpt><trkpt lat="59.1027528327" lon="30.4753453285"><ele>301.03</ele><time>2026-08-20T19:23:16Z</time></trkpt><trkpt lat="59.1027507372" lon="30.4753559735"><ele>301.03</ele><time>2026-08-20T19:23:17Z</time></trkpt><trkpt lat="59.1027531680" lon="30.4753685463"><ele>301.03</ele><time>2026-08-20T19:23:18Z</time></trkpt><trkpt lat="59.1027520783" lon="30.4753846396"><ele>301.03</ele><time>2026-08-20T19:23:19Z</time></trkpt><trkpt lat="59.1027520783" lon="30.4753973801"><ele>301.03</ele><time>2026-08-20T19:23:20Z</time></trkpt><trkpt lat="59.1027476359" lon="30.4754207656"><ele>301.03</ele><time>2026-08-20T19:23:21Z</time></trkpt><trkpt lat="59.1027470492" lon="30.4754277226"><ele>301.03</ele><time>2026-08-20T19:23:22Z</time></trkpt><trkpt lat="59.1027480550" lon="30.4754290637"><ele>301.03</ele><time>2026-08-20T19:23:23Z</time></trkpt><trkpt lat="59.1027480550" lon="30.4754290637"><ele>301.03</ele><time>2026-08-20T19:23:24Z</time></trkpt><trkpt lat="59.1027480550" lon="30.4754290637"><ele>301.03</ele><time>2026-08-20T19:23:25Z</time></trkpt><trkpt lat="59.1027480550" lon="30.4754290637"><ele>301.03</ele><time>2026-08-20T19:23:26Z</time></trkpt><trkpt lat="59.1027483903" lon="30.4754368588"><ele>301.03</ele><time>2026-08-20T19:23:27Z</time></trkpt><trkpt lat="59.1027478874" lon="30.4754444864"><ele>301.51</ele><time>2026-08-20T19:23:28Z</time></trkpt><trkpt lat="59.1027461272" lon="30.4754541256"><ele>301.03</ele><time>2026-08-20T19:23:29Z</time></trkpt><trkpt lat="59.1027453728" lon="30.4754644353"><ele>301.03</ele><time>2026-08-20T19:23:30Z</time></trkpt><trkpt lat="59.1027443670" lon="30.4754735716"><ele>301.03</ele><time>2026-08-20T19:23:31Z</time></trkpt><trkpt lat="59.1027470492" lon="30.4754875693"><ele>301.03</ele><time>2026-08-20T19:23:32Z</time></trkpt><trkpt lat="59.1027502343" lon="30.4755046684"><ele>301.03</ele><time>2026-08-20T19:23:33Z</time></trkpt><trkpt lat="59.1027512401" lon="30.4755038302"><ele>301.03</ele><time>2026-08-20T19:23:34Z</time></trkpt><trkpt lat="59.1027530842" lon="30.4755026568"><ele>301.03</ele><time>2026-08-20T19:23:35Z</time></trkpt><trkpt lat="59.1027519945" lon="30.4755048361"><ele>301.51</ele><time>2026-08-20T19:23:36Z</time></trkpt><trkpt lat="59.1027519945" lon="30.4755048361"><ele>301.51</ele><time>2026-08-20T19:23:37Z</time></trkpt><trkpt lat="59.1027519945" lon="30.4755048361"><ele>301.51</ele><time>2026-08-20T19:23:38Z</time></trkpt><trkpt lat="59.1027519945" lon="30.4755048361"><ele>301.51</ele><time>2026-08-20T19:23:39Z</time></trkpt><trkpt lat="59.1027519945" lon="30.4755048361"><ele>301.51</ele><time>2026-08-20T19:23:40Z</time></trkpt><trkpt lat="59.1027519945" lon="30.4755048361"><ele>301.51</ele><time>2026-08-20T19:23:41Z</time></trkpt><trkpt lat="59.1027519945" lon="30.4755048361"><ele>301.51</ele><time>2026-08-20T19:23:42Z</time></trkpt><trkpt lat="59.1027519945" lon="30.4755048361"><ele>301.51</ele><time>2026-08-20T19:23:43Z</time></trkpt><trkpt lat="59.1027519945" lon="30.4755048361"><ele>301.51</ele><time>2026-08-20T19:23:44Z</time></trkpt><trkpt lat="59.1027519945" lon="30.4755048361"><ele>301.51</ele><time>2026-08-20T19:23:45Z</time></trkpt><trkpt lat="59.1027330514" lon="30.4755143914"><ele>301.51</ele><time>2026-08-20T19:23:46Z</time></trkpt><trkpt lat="59.1027244180" lon="30.4755139723"><ele>301.51</ele><time>2026-08-20T19:23:47Z</time></trkpt><trkpt lat="59.1027147789" lon="30.4755157325"><ele>301.51</ele><time>2026-08-20T19:23:48Z</time></trkpt><trkpt lat="59.1027037986" lon="30.4755181633"><ele>301.51</ele><time>2026-08-20T19:23:49Z</time></trkpt><trkpt lat="59.1026920639" lon="30.4755200911"><ele>301.51</ele><time>2026-08-20T19:23:50Z</time></trkpt><trkpt lat="59.1026820894" lon="30.4755243659"><ele>301.51</ele><time>2026-08-20T19:23:51Z</time></trkpt><trkpt lat="59.1026735399" lon="30.4755239468"><ele>301.51</ele><time>2026-08-20T19:23:52Z</time></trkpt><trkpt lat="59.1026654933" lon="30.4755252879"><ele>301.51</ele><time>2026-08-20T19:23:53Z</time></trkpt><trkpt lat="59.1026547644" lon="30.4755314905"><ele>301.51</ele><time>2026-08-20T19:23:54Z</time></trkpt><trkpt lat="59.1026441194" lon="30.4755380284"><ele>301.51</ele><time>2026-08-20T19:23:55Z</time></trkpt><trkpt lat="59.1026350670" lon="30.4755423870"><ele>301.51</ele><time>2026-08-20T19:23:56Z</time></trkpt><trkpt lat="59.1026257630" lon="30.4755478352"><ele>301.51</ele><time>2026-08-20T19:23:57Z</time></trkpt><trkpt lat="59.1026161239" lon="30.4755554628"><ele>301.51</ele><time>2026-08-20T19:23:58Z</time></trkpt><trkpt lat="59.1026062332" lon="30.4755677842"><ele>301.51</ele><time>2026-08-20T19:23:59Z</time></trkpt><trkpt lat="59.1025967617" lon="30.4755741544"><ele>301.51</ele><time>2026-08-20T19:24:00Z</time></trkpt><trkpt lat="59.1025894694" lon="30.4755716398"><ele>301.51</ele><time>2026-08-20T19:24:01Z</time></trkpt><trkpt lat="59.1025814228" lon="30.4755635932"><ele>301.51</ele><time>2026-08-20T19:24:02Z</time></trkpt><trkpt lat="59.1025711969" lon="30.4755587317"><ele>301.51</ele><time>2026-08-20T19:24:03Z</time></trkpt><trkpt lat="59.1025591269" lon="30.4755576421"><ele>301.51</ele><time>2026-08-20T19:24:04Z</time></trkpt><trkpt lat="59.1025464702" lon="30.4755555466"><ele>301.51</ele><time>2026-08-20T19:24:05Z</time></trkpt><trkpt lat="59.1025321372" lon="30.4755576421"><ele>301.51</ele><time>2026-08-20T19:24:06Z</time></trkpt><trkpt lat="59.1025182232" lon="30.4755623359"><ele>301.51</ele><time>2026-08-20T19:24:07Z</time></trkpt><trkpt lat="59.1025068238" lon="30.4755718913"><ele>301.51</ele><time>2026-08-20T19:24:08Z</time></trkpt><trkpt lat="59.1024950892" lon="30.4755807761"><ele>301.51</ele><time>2026-08-20T19:24:09Z</time></trkpt><trkpt lat="59.1024822649" lon="30.4755868949"><ele>301.51</ele><time>2026-08-20T19:24:10Z</time></trkpt><trkpt lat="59.1024716198" lon="30.4755975399"><ele>301.51</ele><time>2026-08-20T19:24:11Z</time></trkpt><trkpt lat="59.1024610586" lon="30.4756116215"><ele>301.51</ele><time>2026-08-20T19:24:12Z</time></trkpt><trkpt lat="59.1024529282" lon="30.4756250326"><ele>301.51</ele><time>2026-08-20T19:24:13Z</time></trkpt><trkpt lat="59.1024467256" lon="30.4756420478"><ele>301.51</ele><time>2026-08-20T19:24:14Z</time></trkpt><trkpt lat="59.1024376731" lon="30.4756570514"><ele>301.51</ele><time>2026-08-20T19:24:15Z</time></trkpt><trkpt lat="59.1024337336" lon="30.4756638408"><ele>301.51</ele><time>2026-08-20T19:24:16Z</time></trkpt><trkpt lat="59.1024367511" lon="30.4756610747"><ele>301.51</ele><time>2026-08-20T19:24:17Z</time></trkpt><trkpt lat="59.1024367511" lon="30.4756610747"><ele>301.51</ele><time>2026-08-20T19:24:18Z</time></trkpt><trkpt lat="59.1024468932" lon="30.4756514356"><ele>301.51</ele><time>2026-08-20T19:24:19Z</time></trkpt><trkpt lat="59.1024505813" lon="30.4756461550"><ele>301.51</ele><time>2026-08-20T19:24:20Z</time></trkpt><trkpt lat="59.1024550237" lon="30.4756397847"><ele>301.51</ele><time>2026-08-20T19:24:21Z</time></trkpt><trkpt lat="59.1024595499" lon="30.4756323248"><ele>301.51</ele><time>2026-08-20T19:24:22Z</time></trkpt><trkpt lat="59.1024622321" lon="30.4756290559"><ele>301.51</ele><time>2026-08-20T19:24:23Z</time></trkpt><trkpt lat="59.1024636570" lon="30.4756303970"><ele>301.51</ele><time>2026-08-20T19:24:24Z</time></trkpt><trkpt lat="59.1024636570" lon="30.4756303970"><ele>301.51</ele><time>2026-08-20T19:24:25Z</time></trkpt><trkpt lat="59.1024636570" lon="30.4756303970"><ele>301.51</ele><time>2026-08-20T19:24:26Z</time></trkpt><trkpt lat="59.1024636570" lon="30.4756303970"><ele>301.51</ele><time>2026-08-20T19:24:27Z</time></trkpt><trkpt lat="59.1024636570" lon="30.4756303970"><ele>301.51</ele><time>2026-08-20T19:24:28Z</time></trkpt><trkpt lat="59.1024636570" lon="30.4756303970"><ele>301.51</ele><time>2026-08-20T19:24:29Z</time></trkpt><trkpt lat="59.1024636570" lon="30.4756303970"><ele>301.51</ele><time>2026-08-20T19:24:30Z</time></trkpt><trkpt lat="59.1024636570" lon="30.4756303970"><ele>301.51</ele><time>2026-08-20T19:24:31Z</time></trkpt><trkpt lat="59.1024636570" lon="30.4756303970"><ele>301.51</ele><time>2026-08-20T19:24:32Z</time></trkpt><trkpt lat="59.1024636570" lon="30.4756303970"><ele>301.51</ele><time>2026-08-20T19:24:33Z</time></trkpt><trkpt lat="59.1024636570" lon="30.4756303970"><ele>301.51</ele><time>2026-08-20T19:24:34Z</time></trkpt><trkpt lat="59.1024636570" lon="30.4756303970"><ele>301.51</ele><time>2026-08-20T19:24:35Z</time></trkpt><trkpt lat="59.1024636570" lon="30.4756303970"><ele>301.51</ele><time>2026-08-20T19:24:36Z</time></trkpt><trkpt lat="59.1024636570" lon="30.4756303970"><ele>301.51</ele><time>2026-08-20T19:24:37Z</time></trkpt><trkpt lat="59.1024636570" lon="30.4756303970"><ele>301.51</ele><time>2026-08-20T19:24:38Z</time></trkpt><trkpt lat="59.1024636570" lon="30.4756303970"><ele>301.51</ele><time>2026-08-20T19:24:39Z</time></trkpt><trkpt lat="59.1024636570" lon="30.4756303970"><ele>301.51</ele><time>2026-08-20T19:24:40Z</time></trkpt><trkpt lat="59.1024636570" lon="30.4756303970"><ele>301.51</ele><time>2026-08-20T19:24:41Z</time></trkpt><trkpt lat="59.1024636570" lon="30.4756303970"><ele>301.51</ele><time>2026-08-20T19:24:42Z</time></trkpt><trkpt lat="59.1024636570" lon="30.4756303970"><ele>301.51</ele><time>2026-08-20T19:24:43Z</time></trkpt><trkpt lat="59.1024636570" lon="30.4756303970"><ele>301.51</ele><time>2026-08-20T19:24:44Z</time></trkpt><trkpt lat="59.1024636570" lon="30.4756303970"><ele>301.99</ele><time>2026-08-20T19:24:45Z</time></trkpt><trkpt lat="59.1024636570" lon="30.4756303970"><ele>301.99</ele><time>2026-08-20T19:24:46Z</time></trkpt><trkpt lat="59.1024636570" lon="30.4756303970"><ele>301.99</ele><time>2026-08-20T19:24:47Z</time></trkpt><trkpt lat="59.1024636570" lon="30.4756303970"><ele>301.99</ele><time>2026-08-20T19:24:48Z</time></trkpt><trkpt lat="59.1024636570" lon="30.4756303970"><ele>301.99</ele><time>2026-08-20T19:24:49Z</time></trkpt><trkpt lat="59.1024636570" lon="30.4756303970"><ele>301.99</ele><time>2026-08-20T19:24:50Z</time></trkpt><trkpt lat="59.1024636570" lon="30.4756303970"><ele>301.99</ele><time>2026-08-20T19:24:51Z</time></trkpt><trkpt lat="59.1024636570" lon="30.4756303970"><ele>301.99</ele><time>2026-08-20T19:24:52Z</time></trkpt><trkpt lat="59.1024636570" lon="30.4756303970"><ele>301.99</ele><time>2026-08-20T19:24:53Z</time></trkpt><trkpt lat="59.1024636570" lon="30.4756303970"><ele>301.99</ele><time>2026-08-20T19:24:54Z</time></trkpt><trkpt lat="59.1024636570" lon="30.4756303970"><ele>301.51</ele><time>2026-08-20T19:24:55Z</time></trkpt><trkpt lat="59.1024636570" lon="30.4756303970"><ele>301.51</ele><time>2026-08-20T19:24:56Z</time></trkpt><trkpt lat="59.1024636570" lon="30.4756303970"><ele>301.51</ele><time>2026-08-20T19:24:57Z</time></trkpt><trkpt lat="59.1024636570" lon="30.4756303970"><ele>301.51</ele><time>2026-08-20T19:24:58Z</time></trkpt><trkpt lat="59.1024636570" lon="30.4756303970"><ele>301.51</ele><time>2026-08-20T19:24:59Z</time></trkpt><trkpt lat="59.1024636570" lon="30.4756303970"><ele>301.51</ele><time>2026-08-20T19:25:00Z</time></trkpt><trkpt lat="59.1024636570" lon="30.4756303970"><ele>301.51</ele><time>2026-08-20T19:25:01Z</time></trkpt><trkpt lat="59.1024636570" lon="30.4756303970"><ele>301.51</ele><time>2026-08-20T19:25:02Z</time></trkpt><trkpt lat="59.1024636570" lon="30.4756303970"><ele>301.51</ele><time>2026-08-20T19:25:03Z</time></trkpt><trkpt lat="59.1024636570" lon="30.4756303970"><ele>301.51</ele><time>2026-08-20T19:25:04Z</time></trkpt><trkpt lat="59.1024636570" lon="30.4756303970"><ele>301.51</ele><time>2026-08-20T19:25:05Z</time></trkpt><trkpt lat="59.1024636570" lon="30.4756303970"><ele>301.51</ele><time>2026-08-20T19:25:06Z</time></trkpt><trkpt lat="59.1024636570" lon="30.4756303970"><ele>301.51</ele><time>2026-08-20T19:25:07Z</time></trkpt><trkpt lat="59.1024636570" lon="30.4756303970"><ele>301.51</ele><time>2026-08-20T19:25:08Z</time></trkpt><trkpt lat="59.1024636570" lon="30.4756303970"><ele>301.51</ele><time>2026-08-20T19:25:09Z</time></trkpt><trkpt lat="59.1024636570" lon="30.4756303970"><ele>301.51</ele><time>2026-08-20T19:25:10Z</time></trkpt><trkpt lat="59.1024636570" lon="30.4756303970"><ele>301.51</ele><time>2026-08-20T19:25:11Z</time></trkpt><trkpt lat="59.1024636570" lon="30.4756303970"><ele>301.51</ele><time>2026-08-20T19:25:12Z</time></trkpt><trkpt lat="59.1024636570" lon="30.4756303970"><ele>301.51</ele><time>2026-08-20T19:25:13Z</time></trkpt><trkpt lat="59.1024636570" lon="30.4756303970"><ele>301.51</ele><time>2026-08-20T19:25:14Z</time></trkpt><trkpt lat="59.1024636570" lon="30.4756303970"><ele>301.51</ele><time>2026-08-20T19:25:15Z</time></trkpt><trkpt lat="59.1024636570" lon="30.4756303970"><ele>301.51</ele><time>2026-08-20T19:25:16Z</time></trkpt><trkpt lat="59.1024636570" lon="30.4756303970"><ele>301.51</ele><time>2026-08-20T19:25:17Z</time></trkpt><trkpt lat="59.1024636570" lon="30.4756303970"><ele>301.51</ele><time>2026-08-20T19:25:18Z</time></trkpt><trkpt lat="59.1024636570" lon="30.4756303970"><ele>301.51</ele><time>2026-08-20T19:25:19Z</time></trkpt><trkpt lat="59.1024636570" lon="30.4756303970"><ele>301.51</ele><time>2026-08-20T19:25:20Z</time></trkpt><trkpt lat="59.1024636570" lon="30.4756303970"><ele>301.51</ele><time>2026-08-20T19:25:21Z</time></trkpt><trkpt lat="59.1024573706" lon="30.4756654333"><ele>301.51</ele><time>2026-08-20T19:25:22Z</time></trkpt><trkpt lat="59.1024534311" lon="30.4756740667"><ele>301.51</ele><time>2026-08-20T19:25:23Z</time></trkpt><trkpt lat="59.1024529282" lon="30.4756809399"><ele>301.51</ele><time>2026-08-20T19:25:24Z</time></trkpt><trkpt lat="59.1024522576" lon="30.4756890703"><ele>301.51</ele><time>2026-08-20T19:25:25Z</time></trkpt><trkpt lat="59.1024490725" lon="30.4756876454"><ele>301.51</ele><time>2026-08-20T19:25:26Z</time></trkpt><trkpt lat="59.1024490725" lon="30.4756876454"><ele>301.51</ele><time>2026-08-20T19:25:27Z</time></trkpt><trkpt lat="59.1024490725" lon="30.4756876454"><ele>301.51</ele><time>2026-08-20T19:25:28Z</time></trkpt><trkpt lat="59.1024490725" lon="30.4756876454"><ele>301.51</ele><time>2026-08-20T19:25:29Z</time></trkpt><trkpt lat="59.1024490725" lon="30.4756876454"><ele>301.51</ele><time>2026-08-20T19:25:30Z</time></trkpt><trkpt lat="59.1024490725" lon="30.4756876454"><ele>301.99</ele><time>2026-08-20T19:25:31Z</time></trkpt><trkpt lat="59.1024490725" lon="30.4756876454"><ele>301.99</ele><time>2026-08-20T19:25:32Z</time></trkpt><trkpt lat="59.1024490725" lon="30.4756876454"><ele>301.99</ele><time>2026-08-20T19:25:33Z</time></trkpt><trkpt lat="59.1024490725" lon="30.4756876454"><ele>301.99</ele><time>2026-08-20T19:25:34Z</time></trkpt><trkpt lat="59.1024490725" lon="30.4756876454"><ele>301.99</ele><time>2026-08-20T19:25:35Z</time></trkpt><trkpt lat="59.1024490725" lon="30.4756876454"><ele>301.99</ele><time>2026-08-20T19:25:36Z</time></trkpt><trkpt lat="59.1024490725" lon="30.4756876454"><ele>301.99</ele><time>2026-08-20T19:25:37Z</time></trkpt><trkpt lat="59.1024490725" lon="30.4756876454"><ele>301.99</ele><time>2026-08-20T19:25:38Z</time></trkpt><trkpt lat="59.1024490725" lon="30.4756876454"><ele>301.99</ele><time>2026-08-20T19:25:39Z</time></trkpt><trkpt lat="59.1024490725" lon="30.4756876454"><ele>301.99</ele><time>2026-08-20T19:25:40Z</time></trkpt><trkpt lat="59.1024490725" lon="30.4756876454"><ele>301.99</ele><time>2026-08-20T19:25:41Z</time></trkpt><trkpt lat="59.1024490725" lon="30.4756876454"><ele>301.99</ele><time>2026-08-20T19:25:42Z</time></trkpt><trkpt lat="59.1024490725" lon="30.4756876454"><ele>301.99</ele><time>2026-08-20T19:25:43Z</time></trkpt><trkpt lat="59.1024490725" lon="30.4756876454"><ele>301.99</ele><time>2026-08-20T19:25:44Z</time></trkpt><trkpt lat="59.1024490725" lon="30.4756876454"><ele>301.99</ele><time>2026-08-20T19:25:45Z</time></trkpt><trkpt lat="59.1024490725" lon="30.4756876454"><ele>301.99</ele><time>2026-08-20T19:25:46Z</time></trkpt><trkpt lat="59.1024490725" lon="30.4756876454"><ele>301.99</ele><time>2026-08-20T19:25:47Z</time></trkpt><trkpt lat="59.1024490725" lon="30.4756876454"><ele>301.99</ele><time>2026-08-20T19:25:48Z</time></trkpt><trkpt lat="59.1024490725" lon="30.4756876454"><ele>301.99</ele><time>2026-08-20T19:25:49Z</time></trkpt><trkpt lat="59.1024490725" lon="30.4756876454"><ele>301.99</ele><time>2026-08-20T19:25:50Z</time></trkpt><trkpt lat="59.1024490725" lon="30.4756876454"><ele>301.99</ele><time>2026-08-20T19:25:51Z</time></trkpt><trkpt lat="59.1024490725" lon="30.4756876454"><ele>301.99</ele><time>2026-08-20T19:25:52Z</time></trkpt><trkpt lat="59.1024490725" lon="30.4756876454"><ele>301.99</ele><time>2026-08-20T19:25:53Z</time></trkpt><trkpt lat="59.1024490725" lon="30.4756876454"><ele>301.99</ele><time>2026-08-20T19:25:54Z</time></trkpt><trkpt lat="59.1024490725" lon="30.4756876454"><ele>301.99</ele><time>2026-08-20T19:25:55Z</time></trkpt><trkpt lat="59.1024490725" lon="30.4756876454"><ele>301.99</ele><time>2026-08-20T19:25:56Z</time></trkpt><trkpt lat="59.1024490725" lon="30.4756876454"><ele>301.99</ele><time>2026-08-20T19:25:57Z</time></trkpt><trkpt lat="59.1024490725" lon="30.4756876454"><ele>301.99</ele><time>2026-08-20T19:25:58Z</time></trkpt><trkpt lat="59.1024490725" lon="30.4756876454"><ele>301.99</ele><time>2026-08-20T19:25:59Z</time></trkpt><trkpt lat="59.1024490725" lon="30.4756876454"><ele>301.99</ele><time>2026-08-20T19:26:00Z</time></trkpt><trkpt lat="59.1024490725" lon="30.4756876454"><ele>301.99</ele><time>2026-08-20T19:26:01Z</time></trkpt><trkpt lat="59.1024490725" lon="30.4756876454"><ele>301.99</ele><time>2026-08-20T19:26:02Z</time></trkpt><trkpt lat="59.1024490725" lon="30.4756876454"><ele>301.99</ele><time>2026-08-20T19:26:03Z</time></trkpt><trkpt lat="59.1024490725" lon="30.4756876454"><ele>301.99</ele><time>2026-08-20T19:26:04Z</time></trkpt><trkpt lat="59.1024490725" lon="30.4756876454"><ele>301.99</ele><time>2026-08-20T19:26:05Z</time></trkpt><trkpt lat="59.1024490725" lon="30.4756876454"><ele>301.99</ele><time>2026-08-20T19:26:06Z</time></trkpt><trkpt lat="59.1024490725" lon="30.4756876454"><ele>301.51</ele><time>2026-08-20T19:26:07Z</time></trkpt><trkpt lat="59.1024490725" lon="30.4756876454"><ele>301.51</ele><time>2026-08-20T19:26:08Z</time></trkpt><trkpt lat="59.1024490725" lon="30.4756876454"><ele>301.51</ele><time>2026-08-20T19:26:09Z</time></trkpt><trkpt lat="59.1024490725" lon="30.4756876454"><ele>301.51</ele><time>2026-08-20T19:26:10Z</time></trkpt><trkpt lat="59.1024490725" lon="30.4756876454"><ele>301.51</ele><time>2026-08-20T19:26:11Z</time></trkpt><trkpt lat="59.1024490725" lon="30.4756876454"><ele>301.51</ele><time>2026-08-20T19:26:12Z</time></trkpt><trkpt lat="59.1024490725" lon="30.4756876454"><ele>301.51</ele><time>2026-08-20T19:26:13Z</time></trkpt><trkpt lat="59.1024490725" lon="30.4756876454"><ele>301.51</ele><time>2026-08-20T19:26:14Z</time></trkpt><trkpt lat="59.1024490725" lon="30.4756876454"><ele>301.51</ele><time>2026-08-20T19:26:15Z</time></trkpt><trkpt lat="59.1024490725" lon="30.4756876454"><ele>301.51</ele><time>2026-08-20T19:26:16Z</time></trkpt><trkpt lat="59.1024490725" lon="30.4756876454"><ele>301.51</ele><time>2026-08-20T19:26:17Z</time></trkpt><trkpt lat="59.1024490725" lon="30.4756876454"><ele>301.99</ele><time>2026-08-20T19:26:18Z</time></trkpt><trkpt lat="59.1024459712" lon="30.4756984580"><ele>301.99</ele><time>2026-08-20T19:26:19Z</time></trkpt><trkpt lat="59.1024468932" lon="30.4757129587"><ele>301.99</ele><time>2026-08-20T19:26:20Z</time></trkpt><trkpt lat="59.1024493240" lon="30.4757292196"><ele>301.99</ele><time>2026-08-20T19:26:21Z</time></trkpt><trkpt lat="59.1024503298" lon="30.4757441394"><ele>301.99</ele><time>2026-08-20T19:26:22Z</time></trkpt><trkpt lat="59.1024512518" lon="30.4757615738"><ele>301.99</ele><time>2026-08-20T19:26:23Z</time></trkpt><trkpt lat="59.1024506651" lon="30.4757814389"><ele>301.99</ele><time>2026-08-20T19:26:24Z</time></trkpt><trkpt lat="59.1024496593" lon="30.4757975321"><ele>301.99</ele><time>2026-08-20T19:26:25Z</time></trkpt><trkpt lat="59.1024503298" lon="30.4758193251"><ele>301.99</ele><time>2026-08-20T19:26:26Z</time></trkpt><trkpt lat="59.1024532635" lon="30.4758380167"><ele>301.99</ele><time>2026-08-20T19:26:27Z</time></trkpt><trkpt lat="59.1024538502" lon="30.4758549482"><ele>301.99</ele><time>2026-08-20T19:26:28Z</time></trkpt><trkpt lat="59.1024547722" lon="30.4758698680"><ele>301.99</ele><time>2026-08-20T19:26:29Z</time></trkpt><trkpt lat="59.1024582926" lon="30.4758844525"><ele>301.99</ele><time>2026-08-20T19:26:30Z</time></trkpt><trkpt lat="59.1024604719" lon="30.4759013839"><ele>301.99</ele><time>2026-08-20T19:26:31Z</time></trkpt><trkpt lat="59.1024634894" lon="30.4759169742"><ele>301.99</ele><time>2026-08-20T19:26:32Z</time></trkpt><trkpt lat="59.1024670936" lon="30.4759342410"><ele>301.99</ele><time>2026-08-20T19:26:33Z</time></trkpt><trkpt lat="59.1024682671" lon="30.4759520944"><ele>301.99</ele><time>2026-08-20T19:26:34Z</time></trkpt><trkpt lat="59.1024683509" lon="30.4759708699"><ele>301.99</ele><time>2026-08-20T19:26:35Z</time></trkpt><trkpt lat="59.1024681833" lon="30.4759957641"><ele>301.99</ele><time>2026-08-20T19:26:36Z</time></trkpt><trkpt lat="59.1024658363" lon="30.4760184791"><ele>301.99</ele><time>2026-08-20T19:26:37Z</time></trkpt><trkpt lat="59.1024655849" lon="30.4760382604"><ele>301.99</ele><time>2026-08-20T19:26:38Z</time></trkpt><trkpt lat="59.1024655849" lon="30.4760536831"><ele>301.99</ele><time>2026-08-20T19:26:39Z</time></trkpt><trkpt lat="59.1024656687" lon="30.4760747217"><ele>301.99</ele><time>2026-08-20T19:26:40Z</time></trkpt><trkpt lat="59.1024666745" lon="30.4760915693"><ele>301.99</ele><time>2026-08-20T19:26:41Z</time></trkpt><trkpt lat="59.1024658363" lon="30.4761121888"><ele>301.99</ele><time>2026-08-20T19:26:42Z</time></trkpt><trkpt lat="59.1024677642" lon="30.4761283658"><ele>301.99</ele><time>2026-08-20T19:26:43Z</time></trkpt><trkpt lat="59.1024687700" lon="30.4761462193"><ele>301.99</ele><time>2026-08-20T19:26:44Z</time></trkpt><trkpt lat="59.1024691891" lon="30.4761666711"><ele>301.99</ele><time>2026-08-20T19:26:45Z</time></trkpt><trkpt lat="59.1024704464" lon="30.4761836864"><ele>301.99</ele><time>2026-08-20T19:26:46Z</time></trkpt><trkpt lat="59.1024713684" lon="30.4762055632"><ele>301.99</ele><time>2026-08-20T19:26:47Z</time></trkpt><trkpt lat="59.1024732962" lon="30.4762240872"><ele>301.99</ele><time>2026-08-20T19:26:48Z</time></trkpt><trkpt lat="59.1024745535" lon="30.4762461316"><ele>301.99</ele><time>2026-08-20T19:26:49Z</time></trkpt><trkpt lat="59.1024759784" lon="30.4762683436"><ele>301.99</ele><time>2026-08-20T19:26:50Z</time></trkpt><trkpt lat="59.1024768166" lon="30.4762913939"><ele>301.99</ele><time>2026-08-20T19:26:51Z</time></trkpt><trkpt lat="59.1024749726" lon="30.4763033800"><ele>301.99</ele><time>2026-08-20T19:26:52Z</time></trkpt><trkpt lat="59.1024780739" lon="30.4763329681"><ele>301.99</ele><time>2026-08-20T19:26:53Z</time></trkpt><trkpt lat="59.1024769843" lon="30.4763542581"><ele>301.99</ele><time>2026-08-20T19:26:54Z</time></trkpt><trkpt lat="59.1024791636" lon="30.4763730336"><ele>301.99</ele><time>2026-08-20T19:26:55Z</time></trkpt><trkpt lat="59.1024817619" lon="30.4763926473"><ele>301.99</ele><time>2026-08-20T19:26:56Z</time></trkpt><trkpt lat="59.1024837736" lon="30.4764130991"><ele>301.99</ele><time>2026-08-20T19:26:57Z</time></trkpt><trkpt lat="59.1024864558" lon="30.4764336348"><ele>301.99</ele><time>2026-08-20T19:26:58Z</time></trkpt><trkpt lat="59.1024900600" lon="30.4764545895"><ele>301.99</ele><time>2026-08-20T19:26:59Z</time></trkpt><trkpt lat="59.1024945863" lon="30.4764704313"><ele>301.99</ele><time>2026-08-20T19:27:00Z</time></trkpt><trkpt lat="59.1024960950" lon="30.4764886200"><ele>301.99</ele><time>2026-08-20T19:27:01Z</time></trkpt><trkpt lat="59.1024989448" lon="30.4765052162"><ele>301.99</ele><time>2026-08-20T19:27:02Z</time></trkpt><trkpt lat="59.1024996992" lon="30.4765227344"><ele>301.99</ele><time>2026-08-20T19:27:03Z</time></trkpt><trkpt lat="59.1025033873" lon="30.4765373189"><ele>301.99</ele><time>2026-08-20T19:27:04Z</time></trkpt><trkpt lat="59.1025041416" lon="30.4765553400"><ele>301.99</ele><time>2026-08-20T19:27:05Z</time></trkpt><trkpt lat="59.1025062371" lon="30.4765654821"><ele>301.99</ele><time>2026-08-20T19:27:06Z</time></trkpt><trkpt lat="59.1025072429" lon="30.4765722714"><ele>301.99</ele><time>2026-08-20T19:27:07Z</time></trkpt><trkpt lat="59.1025053989" lon="30.4765733611"><ele>301.99</ele><time>2026-08-20T19:27:08Z</time></trkpt><trkpt lat="59.1025030520" lon="30.4765770491"><ele>301.99</ele><time>2026-08-20T19:27:09Z</time></trkpt><trkpt lat="59.1025030520" lon="30.4765770491"><ele>301.99</ele><time>2026-08-20T19:27:10Z</time></trkpt><trkpt lat="59.1025030520" lon="30.4765770491"><ele>301.99</ele><time>2026-08-20T19:27:11Z</time></trkpt><trkpt lat="59.1025072429" lon="30.4765912984"><ele>301.99</ele><time>2026-08-20T19:27:12Z</time></trkpt><trkpt lat="59.1025113501" lon="30.4766067211"><ele>301.99</ele><time>2026-08-20T19:27:13Z</time></trkpt><trkpt lat="59.1025149543" lon="30.4766206350"><ele>301.99</ele><time>2026-08-20T19:27:14Z</time></trkpt><trkpt lat="59.1025157925" lon="30.4766379856"><ele>301.99</ele><time>2026-08-20T19:27:15Z</time></trkpt><trkpt lat="59.1025180556" lon="30.4766514804"><ele>301.99</ele><time>2026-08-20T19:27:16Z</time></trkpt><trkpt lat="59.1025185585" lon="30.4766705912"><ele>301.99</ele><time>2026-08-20T19:27:17Z</time></trkpt><trkpt lat="59.1025207378" lon="30.4766852595"><ele>301.99</ele><time>2026-08-20T19:27:18Z</time></trkpt><trkpt lat="59.1025204863" lon="30.4767047893"><ele>301.99</ele><time>2026-08-20T19:27:19Z</time></trkpt><trkpt lat="59.1025201511" lon="30.4767236486"><ele>301.99</ele><time>2026-08-20T19:27:20Z</time></trkpt><trkpt lat="59.1025206540" lon="30.4767444357"><ele>301.99</ele><time>2026-08-20T19:27:21Z</time></trkpt><trkpt lat="59.1025243420" lon="30.4767653905"><ele>301.99</ele><time>2026-08-20T19:27:22Z</time></trkpt><trkpt lat="59.1025263537" lon="30.4767841659"><ele>301.99</ele><time>2026-08-20T19:27:23Z</time></trkpt><trkpt lat="59.1025202349" lon="30.4768113233"><ele>301.99</ele><time>2026-08-20T19:27:24Z</time></trkpt><trkpt lat="59.1025202349" lon="30.4768339545"><ele>301.99</ele><time>2026-08-20T19:27:25Z</time></trkpt><trkpt lat="59.1025214922" lon="30.4768528976"><ele>301.99</ele><time>2026-08-20T19:27:26Z</time></trkpt><trkpt lat="59.1025237553" lon="30.4768739361"><ele>301.99</ele><time>2026-08-20T19:27:27Z</time></trkpt><trkpt lat="59.1025265213" lon="30.4768917896"><ele>301.99</ele><time>2026-08-20T19:27:28Z</time></trkpt><trkpt lat="59.1025284491" lon="30.4769127443"><ele>301.99</ele><time>2026-08-20T19:27:29Z</time></trkpt><trkpt lat="59.1025292873" lon="30.4769328609"><ele>301.99</ele><time>2026-08-20T19:27:30Z</time></trkpt><trkpt lat="59.1025282815" lon="30.4769491218"><ele>301.99</ele><time>2026-08-20T19:27:31Z</time></trkpt><trkpt lat="59.1025286168" lon="30.4769666400"><ele>301.99</ele><time>2026-08-20T19:27:32Z</time></trkpt><trkpt lat="59.1025304608" lon="30.4769829847"><ele>301.99</ele><time>2026-08-20T19:27:33Z</time></trkpt><trkpt lat="59.1025320534" lon="30.4769992456"><ele>301.99</ele><time>2026-08-20T19:27:34Z</time></trkpt><trkpt lat="59.1025321372" lon="30.4770165961"><ele>301.99</ele><time>2026-08-20T19:27:35Z</time></trkpt><trkpt lat="59.1025320534" lon="30.4770367965"><ele>301.99</ele><time>2026-08-20T19:27:36Z</time></trkpt><trkpt lat="59.1025325563" lon="30.4770569969"><ele>301.99</ele><time>2026-08-20T19:27:37Z</time></trkpt><trkpt lat="59.1025314666" lon="30.4770796280"><ele>301.99</ele><time>2026-08-20T19:27:38Z</time></trkpt><trkpt lat="59.1025308799" lon="30.4771064501"><ele>301.99</ele><time>2026-08-20T19:27:39Z</time></trkpt><trkpt lat="59.1025345679" lon="30.4771275725"><ele>301.99</ele><time>2026-08-20T19:27:40Z</time></trkpt><trkpt lat="59.1025369987" lon="30.4771478567"><ele>301.99</ele><time>2026-08-20T19:27:41Z</time></trkpt><trkpt lat="59.1025370825" lon="30.4771704879"><ele>301.99</ele><time>2026-08-20T19:27:42Z</time></trkpt><trkpt lat="59.1025388427" lon="30.4771905206"><ele>301.99</ele><time>2026-08-20T19:27:43Z</time></trkpt><trkpt lat="59.1025394294" lon="30.4772099666"><ele>301.99</ele><time>2026-08-20T19:27:44Z</time></trkpt><trkpt lat="59.1025419440" lon="30.4772226233"><ele>301.99</ele><time>2026-08-20T19:27:45Z</time></trkpt><trkpt lat="59.1025428660" lon="30.4772407282"><ele>301.99</ele><time>2026-08-20T19:27:46Z</time></trkpt><trkpt lat="59.1025458835" lon="30.4772633594"><ele>301.99</ele><time>2026-08-20T19:27:47Z</time></trkpt><trkpt lat="59.1025475599" lon="30.4772822186"><ele>301.99</ele><time>2026-08-20T19:27:48Z</time></trkpt><trkpt lat="59.1025491524" lon="30.4772972222"><ele>301.99</ele><time>2026-08-20T19:27:49Z</time></trkpt><trkpt lat="59.1025507450" lon="30.4773160815"><ele>301.99</ele><time>2026-08-20T19:27:50Z</time></trkpt><trkpt lat="59.1025531758" lon="30.4773336835"><ele>301.99</ele><time>2026-08-20T19:27:51Z</time></trkpt><trkpt lat="59.1025566962" lon="30.4773456696"><ele>301.99</ele><time>2026-08-20T19:27:52Z</time></trkpt><trkpt lat="59.1025579534" lon="30.4773564823"><ele>301.99</ele><time>2026-08-20T19:27:53Z</time></trkpt><trkpt lat="59.1025604680" lon="30.4773644451"><ele>301.99</ele><time>2026-08-20T19:27:54Z</time></trkpt><trkpt lat="59.1025624797" lon="30.4773730785"><ele>301.99</ele><time>2026-08-20T19:27:55Z</time></trkpt><trkpt lat="59.1025640722" lon="30.4773829691"><ele>301.99</ele><time>2026-08-20T19:27:56Z</time></trkpt><trkpt lat="59.1025648266" lon="30.4773913510"><ele>301.99</ele><time>2026-08-20T19:27:57Z</time></trkpt><trkpt lat="59.1025658324" lon="30.4774014931"><ele>301.99</ele><time>2026-08-20T19:27:58Z</time></trkpt><trkpt lat="59.1025654972" lon="30.4774143174"><ele>301.99</ele><time>2026-08-20T19:27:59Z</time></trkpt><trkpt lat="59.1025641561" lon="30.4774328414"><ele>301.99</ele><time>2026-08-20T19:28:00Z</time></trkpt><trkpt lat="59.1025647428" lon="30.4774457496"><ele>301.99</ele><time>2026-08-20T19:28:01Z</time></trkpt><trkpt lat="59.1025624797" lon="30.4774515331"><ele>301.99</ele><time>2026-08-20T19:28:02Z</time></trkpt><trkpt lat="59.1025618929" lon="30.4774621781"><ele>301.99</ele><time>2026-08-20T19:28:03Z</time></trkpt><trkpt lat="59.1025574505" lon="30.4774724878"><ele>301.99</ele><time>2026-08-20T19:28:04Z</time></trkpt><trkpt lat="59.1025583725" lon="30.4774829652"><ele>301.99</ele><time>2026-08-20T19:28:05Z</time></trkpt><trkpt lat="59.1025560256" lon="30.4774949513"><ele>301.99</ele><time>2026-08-20T19:28:06Z</time></trkpt><trkpt lat="59.1025534272" lon="30.4775097873"><ele>301.99</ele><time>2026-08-20T19:28:07Z</time></trkpt><trkpt lat="59.1025512479" lon="30.4775213543"><ele>301.99</ele><time>2026-08-20T19:28:08Z</time></trkpt><trkpt lat="59.1025549360" lon="30.4775288980"><ele>301.99</ele><time>2026-08-20T19:28:09Z</time></trkpt><trkpt lat="59.1025587916" lon="30.4775424767"><ele>301.99</ele><time>2026-08-20T19:28:10Z</time></trkpt><trkpt lat="59.1025588755" lon="30.4775599949"><ele>301.99</ele><time>2026-08-20T19:28:11Z</time></trkpt><trkpt lat="59.1025609709" lon="30.4775767587"><ele>301.99</ele><time>2026-08-20T19:28:12Z</time></trkpt><trkpt lat="59.1025610548" lon="30.4775961209"><ele>301.99</ele><time>2026-08-20T19:28:13Z</time></trkpt><trkpt lat="59.1025644913" lon="30.4776110407"><ele>301.99</ele><time>2026-08-20T19:28:14Z</time></trkpt><trkpt lat="59.1025642399" lon="30.4776286427"><ele>301.99</ele><time>2026-08-20T19:28:15Z</time></trkpt><trkpt lat="59.1025643237" lon="30.4776450712"><ele>301.99</ele><time>2026-08-20T19:28:16Z</time></trkpt><trkpt lat="59.1025671735" lon="30.4776625894"><ele>301.99</ele><time>2026-08-20T19:28:17Z</time></trkpt><trkpt lat="59.1025671735" lon="30.4776808619"><ele>301.99</ele><time>2026-08-20T19:28:18Z</time></trkpt><trkpt lat="59.1025677603" lon="30.4777015653"><ele>301.99</ele><time>2026-08-20T19:28:19Z</time></trkpt><trkpt lat="59.1025682632" lon="30.4777187482"><ele>301.99</ele><time>2026-08-20T19:28:20Z</time></trkpt><trkpt lat="59.1025703587" lon="30.4777385294"><ele>301.99</ele><time>2026-08-20T19:28:21Z</time></trkpt><trkpt lat="59.1025705263" lon="30.4777577240"><ele>301.99</ele><time>2026-08-20T19:28:22Z</time></trkpt><trkpt lat="59.1025698557" lon="30.4777783435"><ele>301.99</ele><time>2026-08-20T19:28:23Z</time></trkpt><trkpt lat="59.1025711969" lon="30.4777938500"><ele>301.99</ele><time>2026-08-20T19:28:24Z</time></trkpt><trkpt lat="59.1025740467" lon="30.4778115358"><ele>301.99</ele><time>2026-08-20T19:28:25Z</time></trkpt><trkpt lat="59.1025789920" lon="30.4778321553"><ele>301.99</ele><time>2026-08-20T19:28:26Z</time></trkpt><trkpt lat="59.1025817581" lon="30.4778489191"><ele>301.99</ele><time>2026-08-20T19:28:27Z</time></trkpt><trkpt lat="59.1025820933" lon="30.4778654315"><ele>301.99</ele><time>2026-08-20T19:28:28Z</time></trkpt><trkpt lat="59.1025827639" lon="30.4778792616"><ele>301.99</ele><time>2026-08-20T19:28:29Z</time></trkpt><trkpt lat="59.1025813390" lon="30.4778946843"><ele>301.99</ele><time>2026-08-20T19:28:30Z</time></trkpt><trkpt lat="59.1025803331" lon="30.4779133759"><ele>301.99</ele><time>2026-08-20T19:28:31Z</time></trkpt><trkpt lat="59.1025801655" lon="30.4779304750"><ele>301.99</ele><time>2026-08-20T19:28:32Z</time></trkpt><trkpt lat="59.1025819257" lon="30.4779477417"><ele>301.99</ele><time>2026-08-20T19:28:33Z</time></trkpt><trkpt lat="59.1025851946" lon="30.4779583868"><ele>301.99</ele><time>2026-08-20T19:28:34Z</time></trkpt><trkpt lat="59.1025881283" lon="30.4779634997"><ele>301.99</ele><time>2026-08-20T19:28:35Z</time></trkpt><trkpt lat="59.1025869548" lon="30.4779723845"><ele>301.99</ele><time>2026-08-20T19:28:36Z</time></trkpt><trkpt lat="59.1025874577" lon="30.4779772460"><ele>301.99</ele><time>2026-08-20T19:28:37Z</time></trkpt><trkpt lat="59.1025874577" lon="30.4779772460"><ele>301.99</ele><time>2026-08-20T19:28:38Z</time></trkpt><trkpt lat="59.1025874577" lon="30.4779772460"><ele>301.99</ele><time>2026-08-20T19:28:39Z</time></trkpt><trkpt lat="59.1025874577" lon="30.4779772460"><ele>301.99</ele><time>2026-08-20T19:28:40Z</time></trkpt><trkpt lat="59.1025874577" lon="30.4779772460"><ele>301.99</ele><time>2026-08-20T19:28:41Z</time></trkpt><trkpt lat="59.1025874577" lon="30.4779772460"><ele>301.99</ele><time>2026-08-20T19:28:42Z</time></trkpt><trkpt lat="59.1025904752" lon="30.4780105222"><ele>301.99</ele><time>2026-08-20T19:28:43Z</time></trkpt><trkpt lat="59.1025921516" lon="30.4780230951"><ele>301.99</ele><time>2026-08-20T19:28:44Z</time></trkpt><trkpt lat="59.1025939956" lon="30.4780366737"><ele>301.99</ele><time>2026-08-20T19:28:45Z</time></trkpt><trkpt lat="59.1025973484" lon="30.4780539405"><ele>301.99</ele><time>2026-08-20T19:28:46Z</time></trkpt><trkpt lat="59.1025988571" lon="30.4780717939"><ele>301.99</ele><time>2026-08-20T19:28:47Z</time></trkpt><trkpt lat="59.1026004497" lon="30.4780900665"><ele>301.99</ele><time>2026-08-20T19:28:48Z</time></trkpt><trkpt lat="59.1026041377" lon="30.4781052377"><ele>301.99</ele><time>2026-08-20T19:28:49Z</time></trkpt><trkpt lat="59.1026065685" lon="30.4781214986"><ele>301.99</ele><time>2026-08-20T19:28:50Z</time></trkpt><trkpt lat="59.1026054788" lon="30.4781414475"><ele>301.99</ele><time>2026-08-20T19:28:51Z</time></trkpt><trkpt lat="59.1026069876" lon="30.4781594686"><ele>301.99</ele><time>2026-08-20T19:28:52Z</time></trkpt><trkpt lat="59.1026072390" lon="30.4781786632"><ele>301.99</ele><time>2026-08-20T19:28:53Z</time></trkpt><trkpt lat="59.1026091669" lon="30.4781940859"><ele>301.99</ele><time>2026-08-20T19:28:54Z</time></trkpt><trkpt lat="59.1026108433" lon="30.4782115202"><ele>301.99</ele><time>2026-08-20T19:28:55Z</time></trkpt><trkpt lat="59.1026126873" lon="30.4782273620"><ele>301.99</ele><time>2026-08-20T19:28:56Z</time></trkpt><trkpt lat="59.1026138607" lon="30.4782441258"><ele>301.99</ele><time>2026-08-20T19:28:57Z</time></trkpt><trkpt lat="59.1026180517" lon="30.4782604706"><ele>301.99</ele><time>2026-08-20T19:28:58Z</time></trkpt><trkpt lat="59.1026187222" lon="30.4782743845"><ele>301.99</ele><time>2026-08-20T19:28:59Z</time></trkpt><trkpt lat="59.1026205663" lon="30.4782914836"><ele>301.99</ele><time>2026-08-20T19:29:00Z</time></trkpt><trkpt lat="59.1026221588" lon="30.4783092532"><ele>301.99</ele><time>2026-08-20T19:29:01Z</time></trkpt><trkpt lat="59.1026245896" lon="30.4783249274"><ele>301.99</ele><time>2026-08-20T19:29:02Z</time></trkpt><trkpt lat="59.1026222426" lon="30.4783424456"><ele>301.99</ele><time>2026-08-20T19:29:03Z</time></trkpt><trkpt lat="59.1026233323" lon="30.4783572815"><ele>301.99</ele><time>2026-08-20T19:29:04Z</time></trkpt><trkpt lat="59.1026238352" lon="30.4783724528"><ele>301.99</ele><time>2026-08-20T19:29:05Z</time></trkpt><trkpt lat="59.1026254278" lon="30.4783906415"><ele>301.99</ele><time>2026-08-20T19:29:06Z</time></trkpt><trkpt lat="59.1026285291" lon="30.4784071539"><ele>301.99</ele><time>2026-08-20T19:29:07Z</time></trkpt><trkpt lat="59.1026336420" lon="30.4784256779"><ele>301.99</ele><time>2026-08-20T19:29:08Z</time></trkpt><trkpt lat="59.1026360728" lon="30.4784401786"><ele>301.99</ele><time>2026-08-20T19:29:09Z</time></trkpt><trkpt lat="59.1026380844" lon="30.4784521647"><ele>301.99</ele><time>2026-08-20T19:29:10Z</time></trkpt><trkpt lat="59.1026398446" lon="30.4784610495"><ele>301.99</ele><time>2026-08-20T19:29:11Z</time></trkpt><trkpt lat="59.1026404314" lon="30.4784681741"><ele>301.99</ele><time>2026-08-20T19:29:12Z</time></trkpt><trkpt lat="59.1026393417" lon="30.4784764722"><ele>301.99</ele><time>2026-08-20T19:29:13Z</time></trkpt><trkpt lat="59.1026399285" lon="30.4784845188"><ele>301.99</ele><time>2026-08-20T19:29:14Z</time></trkpt><trkpt lat="59.1026391741" lon="30.4785006959"><ele>301.99</ele><time>2026-08-20T19:29:15Z</time></trkpt><trkpt lat="59.1026413534" lon="30.4785185494"><ele>301.99</ele><time>2026-08-20T19:29:16Z</time></trkpt><trkpt lat="59.1026371624" lon="30.4785334691"><ele>301.99</ele><time>2026-08-20T19:29:17Z</time></trkpt><trkpt lat="59.1026367433" lon="30.4785432760"><ele>301.99</ele><time>2026-08-20T19:29:18Z</time></trkpt><trkpt lat="59.1026371624" lon="30.4785522446"><ele>301.99</ele><time>2026-08-20T19:29:19Z</time></trkpt><trkpt lat="59.1026391741" lon="30.4785611294"><ele>301.99</ele><time>2026-08-20T19:29:20Z</time></trkpt><trkpt lat="59.1026402637" lon="30.4785689246"><ele>301.99</ele><time>2026-08-20T19:29:21Z</time></trkpt><trkpt lat="59.1026409343" lon="30.4785773903"><ele>301.99</ele><time>2026-08-20T19:29:22Z</time></trkpt><trkpt lat="59.1026423592" lon="30.4785902984"><ele>301.99</ele><time>2026-08-20T19:29:23Z</time></trkpt><trkpt lat="59.1026444547" lon="30.4786068946"><ele>301.99</ele><time>2026-08-20T19:29:24Z</time></trkpt><trkpt lat="59.1026442870" lon="30.4786195513"><ele>301.99</ele><time>2026-08-20T19:29:25Z</time></trkpt><trkpt lat="59.1026436165" lon="30.4786322918"><ele>301.99</ele><time>2026-08-20T19:29:26Z</time></trkpt><trkpt lat="59.1026437841" lon="30.4786433559"><ele>301.99</ele><time>2026-08-20T19:29:27Z</time></trkpt><trkpt lat="59.1026427783" lon="30.4786607902"><ele>301.99</ele><time>2026-08-20T19:29:28Z</time></trkpt><trkpt lat="59.1026427783" lon="30.4786759615"><ele>301.99</ele><time>2026-08-20T19:29:29Z</time></trkpt><trkpt lat="59.1026391741" lon="30.4786915518"><ele>301.99</ele><time>2026-08-20T19:29:30Z</time></trkpt><trkpt lat="59.1026351508" lon="30.4787121713"><ele>301.99</ele><time>2026-08-20T19:29:31Z</time></trkpt><trkpt lat="59.1026332229" lon="30.4787315335"><ele>301.99</ele><time>2026-08-20T19:29:32Z</time></trkpt><trkpt lat="59.1026315466" lon="30.4787416756"><ele>301.99</ele><time>2026-08-20T19:29:33Z</time></trkpt><trkpt lat="59.1026252601" lon="30.4787590262"><ele>301.99</ele><time>2026-08-20T19:29:34Z</time></trkpt><trkpt lat="59.1026198957" lon="30.4787769634"><ele>301.99</ele><time>2026-08-20T19:29:35Z</time></trkpt><trkpt lat="59.1026164591" lon="30.4787941463"><ele>301.99</ele><time>2026-08-20T19:29:36Z</time></trkpt><trkpt lat="59.1026155371" lon="30.4788148496"><ele>301.99</ele><time>2026-08-20T19:29:37Z</time></trkpt><trkpt lat="59.1026166268" lon="30.4788384866"><ele>301.99</ele><time>2026-08-20T19:29:38Z</time></trkpt><trkpt lat="59.1026213206" lon="30.4788604472"><ele>301.99</ele><time>2026-08-20T19:29:39Z</time></trkpt><trkpt lat="59.1026242543" lon="30.4788814858"><ele>301.99</ele><time>2026-08-20T19:29:40Z</time></trkpt><trkpt lat="59.1026244219" lon="30.4789020214"><ele>301.99</ele><time>2026-08-20T19:29:41Z</time></trkpt><trkpt lat="59.1026240867" lon="30.4789216351"><ele>301.99</ele><time>2026-08-20T19:29:42Z</time></trkpt><trkpt lat="59.1026264336" lon="30.4789375607"><ele>301.99</ele><time>2026-08-20T19:29:43Z</time></trkpt><trkpt lat="59.1026317980" lon="30.4789587669"><ele>301.99</ele><time>2026-08-20T19:29:44Z</time></trkpt><trkpt lat="59.1026349831" lon="30.4789773747"><ele>301.99</ele><time>2026-08-20T19:29:45Z</time></trkpt><trkpt lat="59.1026394255" lon="30.4789975751"><ele>301.99</ele><time>2026-08-20T19:29:46Z</time></trkpt><trkpt lat="59.1026430298" lon="30.4790148418"><ele>301.99</ele><time>2026-08-20T19:29:47Z</time></trkpt><trkpt lat="59.1026488971" lon="30.4790325277"><ele>301.99</ele><time>2026-08-20T19:29:48Z</time></trkpt><trkpt lat="59.1026550997" lon="30.4790484533"><ele>301.99</ele><time>2026-08-20T19:29:49Z</time></trkpt><trkpt lat="59.1026577819" lon="30.4790640436"><ele>301.99</ele><time>2026-08-20T19:29:50Z</time></trkpt><trkpt lat="59.1026591230" lon="30.4790833220"><ele>301.99</ele><time>2026-08-20T19:29:51Z</time></trkpt><trkpt lat="59.1026585363" lon="30.4791040253"><ele>301.99</ele><time>2026-08-20T19:29:52Z</time></trkpt><trkpt lat="59.1026582848" lon="30.4791249800"><ele>301.99</ele><time>2026-08-20T19:29:53Z</time></trkpt><trkpt lat="59.1026612185" lon="30.4791447613"><ele>301.99</ele><time>2026-08-20T19:29:54Z</time></trkpt><trkpt lat="59.1026654933" lon="30.4791621957"><ele>301.99</ele><time>2026-08-20T19:29:55Z</time></trkpt><trkpt lat="59.1026684269" lon="30.4791749362"><ele>301.99</ele><time>2026-08-20T19:29:56Z</time></trkpt><trkpt lat="59.1026693489" lon="30.4791877605"><ele>301.99</ele><time>2026-08-20T19:29:57Z</time></trkpt><trkpt lat="59.1026700195" lon="30.4792013392"><ele>301.99</ele><time>2026-08-20T19:29:58Z</time></trkpt><trkpt lat="59.1026698519" lon="30.4792142473"><ele>301.99</ele><time>2026-08-20T19:29:59Z</time></trkpt><trkpt lat="59.1026710253" lon="30.4792257305"><ele>301.99</ele><time>2026-08-20T19:30:00Z</time></trkpt><trkpt lat="59.1026725341" lon="30.4792390577"><ele>301.99</ele><time>2026-08-20T19:30:01Z</time></trkpt><trkpt lat="59.1026733723" lon="30.4792507924"><ele>301.99</ele><time>2026-08-20T19:30:02Z</time></trkpt><trkpt lat="59.1026738752" lon="30.4792574979"><ele>301.99</ele><time>2026-08-20T19:30:03Z</time></trkpt><trkpt lat="59.1026738752" lon="30.4792665504"><ele>301.99</ele><time>2026-08-20T19:30:04Z</time></trkpt><trkpt lat="59.1026724502" lon="30.4792797938"><ele>301.99</ele><time>2026-08-20T19:30:05Z</time></trkpt><trkpt lat="59.1026711930" lon="30.4792984854"><ele>301.99</ele><time>2026-08-20T19:30:06Z</time></trkpt><trkpt lat="59.1026705224" lon="30.4793180991"><ele>301.99</ele><time>2026-08-20T19:30:07Z</time></trkpt><trkpt lat="59.1026674211" lon="30.4793422390"><ele>301.99</ele><time>2026-08-20T19:30:08Z</time></trkpt><trkpt lat="59.1026653256" lon="30.4793647863"><ele>301.99</ele><time>2026-08-20T19:30:09Z</time></trkpt><trkpt lat="59.1026650742" lon="30.4793868307"><ele>301.99</ele><time>2026-08-20T19:30:10Z</time></trkpt><trkpt lat="59.1026645713" lon="30.4794090427"><ele>301.99</ele><time>2026-08-20T19:30:11Z</time></trkpt><trkpt lat="59.1026635654" lon="30.4794269800"><ele>301.99</ele><time>2026-08-20T19:30:12Z</time></trkpt><trkpt lat="59.1026646551" lon="30.4794405587"><ele>301.99</ele><time>2026-08-20T19:30:13Z</time></trkpt><trkpt lat="59.1026636492" lon="30.4794534668"><ele>301.99</ele><time>2026-08-20T19:30:14Z</time></trkpt><trkpt lat="59.1026670858" lon="30.4794634413"><ele>301.99</ele><time>2026-08-20T19:30:15Z</time></trkpt><trkpt lat="59.1026672535" lon="30.4794700630"><ele>301.99</ele><time>2026-08-20T19:30:16Z</time></trkpt><trkpt lat="59.1026672535" lon="30.4794700630"><ele>301.99</ele><time>2026-08-20T19:30:17Z</time></trkpt><trkpt lat="59.1026672535" lon="30.4794700630"><ele>301.99</ele><time>2026-08-20T19:30:18Z</time></trkpt><trkpt lat="59.1026672535" lon="30.4794700630"><ele>301.99</ele><time>2026-08-20T19:30:19Z</time></trkpt><trkpt lat="59.1026672535" lon="30.4794700630"><ele>301.99</ele><time>2026-08-20T19:30:20Z</time></trkpt><trkpt lat="59.1026672535" lon="30.4794700630"><ele>301.99</ele><time>2026-08-20T19:30:21Z</time></trkpt><trkpt lat="59.1026672535" lon="30.4794700630"><ele>301.99</ele><time>2026-08-20T19:30:22Z</time></trkpt><trkpt lat="59.1026672535" lon="30.4794700630"><ele>301.99</ele><time>2026-08-20T19:30:23Z</time></trkpt><trkpt lat="59.1026672535" lon="30.4794700630"><ele>301.99</ele><time>2026-08-20T19:30:24Z</time></trkpt><trkpt lat="59.1026672535" lon="30.4794700630"><ele>301.99</ele><time>2026-08-20T19:30:25Z</time></trkpt><trkpt lat="59.1026672535" lon="30.4794700630"><ele>301.99</ele><time>2026-08-20T19:30:26Z</time></trkpt><trkpt lat="59.1026672535" lon="30.4794700630"><ele>301.99</ele><time>2026-08-20T19:30:27Z</time></trkpt><trkpt lat="59.1026672535" lon="30.4794700630"><ele>301.99</ele><time>2026-08-20T19:30:28Z</time></trkpt><trkpt lat="59.1026672535" lon="30.4794700630"><ele>301.99</ele><time>2026-08-20T19:30:29Z</time></trkpt><trkpt lat="59.1026672535" lon="30.4794700630"><ele>301.99</ele><time>2026-08-20T19:30:30Z</time></trkpt><trkpt lat="59.1026672535" lon="30.4794700630"><ele>301.99</ele><time>2026-08-20T19:30:31Z</time></trkpt><trkpt lat="59.1026672535" lon="30.4794700630"><ele>301.99</ele><time>2026-08-20T19:30:32Z</time></trkpt><trkpt lat="59.1026672535" lon="30.4794700630"><ele>301.99</ele><time>2026-08-20T19:30:33Z</time></trkpt><trkpt lat="59.1026672535" lon="30.4794700630"><ele>301.99</ele><time>2026-08-20T19:30:34Z</time></trkpt><trkpt lat="59.1026645713" lon="30.4794887546"><ele>301.99</ele><time>2026-08-20T19:30:35Z</time></trkpt><trkpt lat="59.1026617214" lon="30.4794991482"><ele>301.99</ele><time>2026-08-20T19:30:36Z</time></trkpt><trkpt lat="59.1026647389" lon="30.4795041773"><ele>301.99</ele><time>2026-08-20T19:30:37Z</time></trkpt><trkpt lat="59.1026653256" lon="30.4795078654"><ele>301.99</ele><time>2026-08-20T19:30:38Z</time></trkpt><trkpt lat="59.1026659962" lon="30.4795090389"><ele>301.99</ele><time>2026-08-20T19:30:39Z</time></trkpt><trkpt lat="59.1026659962" lon="30.4795090389"><ele>301.99</ele><time>2026-08-20T19:30:40Z</time></trkpt><trkpt lat="59.1026659962" lon="30.4795090389"><ele>301.99</ele><time>2026-08-20T19:30:41Z</time></trkpt><trkpt lat="59.1026659962" lon="30.4795090389"><ele>301.99</ele><time>2026-08-20T19:30:42Z</time></trkpt><trkpt lat="59.1026659962" lon="30.4795090389"><ele>301.99</ele><time>2026-08-20T19:30:43Z</time></trkpt><trkpt lat="59.1026659962" lon="30.4795090389"><ele>301.99</ele><time>2026-08-20T19:30:44Z</time></trkpt><trkpt lat="59.1026659962" lon="30.4795090389"><ele>301.99</ele><time>2026-08-20T19:30:45Z</time></trkpt><trkpt lat="59.1026659962" lon="30.4795090389"><ele>301.99</ele><time>2026-08-20T19:30:46Z</time></trkpt><trkpt lat="59.1026659962" lon="30.4795090389"><ele>301.99</ele><time>2026-08-20T19:30:47Z</time></trkpt><trkpt lat="59.1026659962" lon="30.4795090389"><ele>301.99</ele><time>2026-08-20T19:30:48Z</time></trkpt><trkpt lat="59.1026659962" lon="30.4795090389"><ele>301.99</ele><time>2026-08-20T19:30:49Z</time></trkpt><trkpt lat="59.1026659962" lon="30.4795090389"><ele>301.99</ele><time>2026-08-20T19:30:50Z</time></trkpt><trkpt lat="59.1026659962" lon="30.4795090389"><ele>301.99</ele><time>2026-08-20T19:30:51Z</time></trkpt><trkpt lat="59.1026659962" lon="30.4795090389"><ele>301.99</ele><time>2026-08-20T19:30:52Z</time></trkpt><trkpt lat="59.1026659962" lon="30.4795090389"><ele>301.99</ele><time>2026-08-20T19:30:53Z</time></trkpt><trkpt lat="59.1026659962" lon="30.4795090389"><ele>301.99</ele><time>2026-08-20T19:30:54Z</time></trkpt><trkpt lat="59.1026659962" lon="30.4795090389"><ele>301.99</ele><time>2026-08-20T19:30:55Z</time></trkpt><trkpt lat="59.1026659962" lon="30.4795090389"><ele>301.99</ele><time>2026-08-20T19:30:56Z</time></trkpt><trkpt lat="59.1026659962" lon="30.4795090389"><ele>301.99</ele><time>2026-08-20T19:30:57Z</time></trkpt><trkpt lat="59.1026659962" lon="30.4795090389"><ele>301.99</ele><time>2026-08-20T19:30:58Z</time></trkpt><trkpt lat="59.1026659962" lon="30.4795090389"><ele>301.99</ele><time>2026-08-20T19:30:59Z</time></trkpt><trkpt lat="59.1026659962" lon="30.4795090389"><ele>301.99</ele><time>2026-08-20T19:31:00Z</time></trkpt><trkpt lat="59.1026659962" lon="30.4795090389"><ele>301.99</ele><time>2026-08-20T19:31:01Z</time></trkpt><trkpt lat="59.1026659962" lon="30.4795090389"><ele>301.99</ele><time>2026-08-20T19:31:02Z</time></trkpt><trkpt lat="59.1026659962" lon="30.4795090389"><ele>301.99</ele><time>2026-08-20T19:31:03Z</time></trkpt><trkpt lat="59.1026659962" lon="30.4795090389"><ele>301.99</ele><time>2026-08-20T19:31:04Z</time></trkpt><trkpt lat="59.1026659962" lon="30.4795090389"><ele>301.99</ele><time>2026-08-20T19:31:05Z</time></trkpt><trkpt lat="59.1026659962" lon="30.4795090389"><ele>301.99</ele><time>2026-08-20T19:31:06Z</time></trkpt><trkpt lat="59.1026659962" lon="30.4795090389"><ele>301.99</ele><time>2026-08-20T19:31:07Z</time></trkpt><trkpt lat="59.1026659962" lon="30.4795090389"><ele>301.99</ele><time>2026-08-20T19:31:08Z</time></trkpt><trkpt lat="59.1026659962" lon="30.4795090389"><ele>301.99</ele><time>2026-08-20T19:31:09Z</time></trkpt><trkpt lat="59.1026659962" lon="30.4795090389"><ele>301.99</ele><time>2026-08-20T19:31:10Z</time></trkpt><trkpt lat="59.1026659962" lon="30.4795090389"><ele>301.99</ele><time>2026-08-20T19:31:11Z</time></trkpt><trkpt lat="59.1026659962" lon="30.4795090389"><ele>301.99</ele><time>2026-08-20T19:31:12Z</time></trkpt><trkpt lat="59.1026659962" lon="30.4795090389"><ele>301.99</ele><time>2026-08-20T19:31:13Z</time></trkpt><trkpt lat="59.1026659962" lon="30.4795090389"><ele>301.99</ele><time>2026-08-20T19:31:14Z</time></trkpt><trkpt lat="59.1026659962" lon="30.4795090389"><ele>301.99</ele><time>2026-08-20T19:31:15Z</time></trkpt><trkpt lat="59.1026659962" lon="30.4795090389"><ele>301.99</ele><time>2026-08-20T19:31:16Z</time></trkpt><trkpt lat="59.1026659962" lon="30.4795090389"><ele>301.99</ele><time>2026-08-20T19:31:17Z</time></trkpt><trkpt lat="59.1026659962" lon="30.4795090389"><ele>301.99</ele><time>2026-08-20T19:31:18Z</time></trkpt><trkpt lat="59.1026659962" lon="30.4795090389"><ele>301.99</ele><time>2026-08-20T19:31:19Z</time></trkpt><trkpt lat="59.1026659962" lon="30.4795090389"><ele>301.99</ele><time>2026-08-20T19:31:20Z</time></trkpt><trkpt lat="59.1026659962" lon="30.4795090389"><ele>301.99</ele><time>2026-08-20T19:31:21Z</time></trkpt><trkpt lat="59.1026659962" lon="30.4795090389"><ele>301.99</ele><time>2026-08-20T19:31:22Z</time></trkpt><trkpt lat="59.1026659962" lon="30.4795090389"><ele>301.99</ele><time>2026-08-20T19:31:23Z</time></trkpt><trkpt lat="59.1026659962" lon="30.4795090389"><ele>301.99</ele><time>2026-08-20T19:31:24Z</time></trkpt><trkpt lat="59.1026659962" lon="30.4795090389"><ele>301.99</ele><time>2026-08-20T19:31:25Z</time></trkpt><trkpt lat="59.1026659962" lon="30.4795090389"><ele>301.99</ele><time>2026-08-20T19:31:26Z</time></trkpt><trkpt lat="59.1026659962" lon="30.4795090389"><ele>301.99</ele><time>2026-08-20T19:31:27Z</time></trkpt><trkpt lat="59.1026659962" lon="30.4795090389"><ele>301.99</ele><time>2026-08-20T19:31:28Z</time></trkpt><trkpt lat="59.1026659962" lon="30.4795090389"><ele>301.99</ele><time>2026-08-20T19:31:29Z</time></trkpt><trkpt lat="59.1026659962" lon="30.4795090389"><ele>301.99</ele><time>2026-08-20T19:31:30Z</time></trkpt><trkpt lat="59.1026659962" lon="30.4795090389"><ele>301.99</ele><time>2026-08-20T19:31:31Z</time></trkpt><trkpt lat="59.1026659962" lon="30.4795090389"><ele>301.99</ele><time>2026-08-20T19:31:32Z</time></trkpt><trkpt lat="59.1026659962" lon="30.4795090389"><ele>301.99</ele><time>2026-08-20T19:31:33Z</time></trkpt><trkpt lat="59.1026659962" lon="30.4795090389"><ele>301.99</ele><time>2026-08-20T19:31:34Z</time></trkpt><trkpt lat="59.1026659962" lon="30.4795090389"><ele>301.99</ele><time>2026-08-20T19:31:35Z</time></trkpt><trkpt lat="59.1026659962" lon="30.4795090389"><ele>301.99</ele><time>2026-08-20T19:31:36Z</time></trkpt><trkpt lat="59.1026659962" lon="30.4795090389"><ele>301.99</ele><time>2026-08-20T19:31:37Z</time></trkpt><trkpt lat="59.1026659962" lon="30.4795090389"><ele>301.99</ele><time>2026-08-20T19:31:38Z</time></trkpt><trkpt lat="59.1026659962" lon="30.4795090389"><ele>301.99</ele><time>2026-08-20T19:31:39Z</time></trkpt><trkpt lat="59.1026659962" lon="30.4795090389"><ele>301.99</ele><time>2026-08-20T19:31:40Z</time></trkpt><trkpt lat="59.1026659962" lon="30.4795090389"><ele>301.99</ele><time>2026-08-20T19:31:41Z</time></trkpt><trkpt lat="59.1026659962" lon="30.4795090389"><ele>301.99</ele><time>2026-08-20T19:31:42Z</time></trkpt><trkpt lat="59.1026659962" lon="30.4795090389"><ele>301.99</ele><time>2026-08-20T19:31:43Z</time></trkpt><trkpt lat="59.1026659962" lon="30.4795090389"><ele>301.99</ele><time>2026-08-20T19:31:44Z</time></trkpt><trkpt lat="59.1026659962" lon="30.4795090389"><ele>301.99</ele><time>2026-08-20T19:31:45Z</time></trkpt><trkpt lat="59.1026659962" lon="30.4795090389"><ele>301.99</ele><time>2026-08-20T19:31:46Z</time></trkpt><trkpt lat="59.1026659962" lon="30.4795090389"><ele>301.99</ele><time>2026-08-20T19:31:47Z</time></trkpt><trkpt lat="59.1026659962" lon="30.4795090389"><ele>301.99</ele><time>2026-08-20T19:31:48Z</time></trkpt><trkpt lat="59.1026659962" lon="30.4795090389"><ele>301.99</ele><time>2026-08-20T19:31:49Z</time></trkpt><trkpt lat="59.1026659962" lon="30.4795090389"><ele>301.99</ele><time>2026-08-20T19:31:50Z</time></trkpt><trkpt lat="59.1026659962" lon="30.4795090389"><ele>301.99</ele><time>2026-08-20T19:31:51Z</time></trkpt><trkpt lat="59.1026659962" lon="30.4795090389"><ele>301.99</ele><time>2026-08-20T19:31:52Z</time></trkpt><trkpt lat="59.1026659962" lon="30.4795090389"><ele>301.99</ele><time>2026-08-20T19:31:53Z</time></trkpt><trkpt lat="59.1026659962" lon="30.4795090389"><ele>301.99</ele><time>2026-08-20T19:31:54Z</time></trkpt><trkpt lat="59.1026659962" lon="30.4795090389"><ele>301.99</ele><time>2026-08-20T19:31:55Z</time></trkpt><trkpt lat="59.1026659962" lon="30.4795090389"><ele>301.99</ele><time>2026-08-20T19:31:56Z</time></trkpt><trkpt lat="59.1026659962" lon="30.4795090389"><ele>301.99</ele><time>2026-08-20T19:31:57Z</time></trkpt><trkpt lat="59.1026659962" lon="30.4795090389"><ele>301.99</ele><time>2026-08-20T19:31:58Z</time></trkpt><trkpt lat="59.1026659962" lon="30.4795090389"><ele>301.99</ele><time>2026-08-20T19:31:59Z</time></trkpt><trkpt lat="59.1026659962" lon="30.4795090389"><ele>301.99</ele><time>2026-08-20T19:32:00Z</time></trkpt><trkpt lat="59.1026659962" lon="30.4795090389"><ele>301.99</ele><time>2026-08-20T19:32:01Z</time></trkpt><trkpt lat="59.1026659962" lon="30.4795090389"><ele>301.99</ele><time>2026-08-20T19:32:02Z</time></trkpt><trkpt lat="59.1026659962" lon="30.4795090389"><ele>301.99</ele><time>2026-08-20T19:32:03Z</time></trkpt><trkpt lat="59.1026659962" lon="30.4795090389"><ele>301.99</ele><time>2026-08-20T19:32:04Z</time></trkpt><trkpt lat="59.1026659962" lon="30.4795090389"><ele>301.99</ele><time>2026-08-20T19:32:05Z</time></trkpt><trkpt lat="59.1026380844" lon="30.4795679636"><ele>301.99</ele><time>2026-08-20T19:32:06Z</time></trkpt><trkpt lat="59.1026389226" lon="30.4795765970"><ele>301.99</ele><time>2026-08-20T19:32:07Z</time></trkpt><trkpt lat="59.1026421916" lon="30.4795853980"><ele>301.99</ele><time>2026-08-20T19:32:08Z</time></trkpt><trkpt lat="59.1026446223" lon="30.4795909300"><ele>301.99</ele><time>2026-08-20T19:32:09Z</time></trkpt><trkpt lat="59.1026461311" lon="30.4795918521"><ele>301.99</ele><time>2026-08-20T19:32:10Z</time></trkpt><trkpt lat="59.1026483942" lon="30.4795971327"><ele>301.99</ele><time>2026-08-20T19:32:11Z</time></trkpt><trkpt lat="59.1026483942" lon="30.4795971327"><ele>301.99</ele><time>2026-08-20T19:32:12Z</time></trkpt><trkpt lat="59.1026483942" lon="30.4795971327"><ele>301.99</ele><time>2026-08-20T19:32:13Z</time></trkpt><trkpt lat="59.1026483942" lon="30.4795971327"><ele>302.47</ele><time>2026-08-20T19:32:14Z</time></trkpt><trkpt lat="59.1026483942" lon="30.4795971327"><ele>302.47</ele><time>2026-08-20T19:32:15Z</time></trkpt><trkpt lat="59.1026483942" lon="30.4795971327"><ele>302.47</ele><time>2026-08-20T19:32:16Z</time></trkpt><trkpt lat="59.1026483942" lon="30.4795971327"><ele>302.47</ele><time>2026-08-20T19:32:17Z</time></trkpt><trkpt lat="59.1026483942" lon="30.4795971327"><ele>302.47</ele><time>2026-08-20T19:32:18Z</time></trkpt><trkpt lat="59.1026483942" lon="30.4795971327"><ele>302.47</ele><time>2026-08-20T19:32:19Z</time></trkpt><trkpt lat="59.1026483942" lon="30.4795971327"><ele>302.47</ele><time>2026-08-20T19:32:20Z</time></trkpt><trkpt lat="59.1026483942" lon="30.4795971327"><ele>302.47</ele><time>2026-08-20T19:32:21Z</time></trkpt><trkpt lat="59.1026483942" lon="30.4795971327"><ele>302.47</ele><time>2026-08-20T19:32:22Z</time></trkpt><trkpt lat="59.1026483942" lon="30.4795971327"><ele>302.47</ele><time>2026-08-20T19:32:23Z</time></trkpt><trkpt lat="59.1026483942" lon="30.4795971327"><ele>302.47</ele><time>2026-08-20T19:32:24Z</time></trkpt><trkpt lat="59.1026483942" lon="30.4795971327"><ele>302.47</ele><time>2026-08-20T19:32:25Z</time></trkpt><trkpt lat="59.1026483942" lon="30.4795971327"><ele>302.47</ele><time>2026-08-20T19:32:26Z</time></trkpt><trkpt lat="59.1026483942" lon="30.4795971327"><ele>302.47</ele><time>2026-08-20T19:32:27Z</time></trkpt><trkpt lat="59.1026483942" lon="30.4795971327"><ele>302.47</ele><time>2026-08-20T19:32:28Z</time></trkpt><trkpt lat="59.1026828438" lon="30.4796216916"><ele>302.47</ele><time>2026-08-20T19:32:29Z</time></trkpt><trkpt lat="59.1026899684" lon="30.4796296544"><ele>302.47</ele><time>2026-08-20T19:32:30Z</time></trkpt><trkpt lat="59.1026920639" lon="30.4796430655"><ele>302.47</ele><time>2026-08-20T19:32:31Z</time></trkpt><trkpt lat="59.1026969254" lon="30.4796616733"><ele>302.47</ele><time>2026-08-20T19:32:32Z</time></trkpt><trkpt lat="59.1026998591" lon="30.4796764255"><ele>302.47</ele><time>2026-08-20T19:32:33Z</time></trkpt><trkpt lat="59.1027012840" lon="30.4796902556"><ele>302.47</ele><time>2026-08-20T19:32:34Z</time></trkpt><trkpt lat="59.1027018707" lon="30.4797027446"><ele>302.47</ele><time>2026-08-20T19:32:35Z</time></trkpt><trkpt lat="59.1027028766" lon="30.4797202628"><ele>302.47</ele><time>2026-08-20T19:32:36Z</time></trkpt><trkpt lat="59.1027046368" lon="30.4797361884"><ele>302.47</ele><time>2026-08-20T19:32:37Z</time></trkpt><trkpt lat="59.1027087439" lon="30.4797522817"><ele>302.47</ele><time>2026-08-20T19:32:38Z</time></trkpt><trkpt lat="59.1027115937" lon="30.4797662795"><ele>302.47</ele><time>2026-08-20T19:32:39Z</time></trkpt><trkpt lat="59.1027132701" lon="30.4797800258"><ele>302.47</ele><time>2026-08-20T19:32:40Z</time></trkpt><trkpt lat="59.1027156170" lon="30.4797923472"><ele>302.47</ele><time>2026-08-20T19:32:41Z</time></trkpt><trkpt lat="59.1027126834" lon="30.4798140563"><ele>302.47</ele><time>2026-08-20T19:32:42Z</time></trkpt><trkpt lat="59.1027132701" lon="30.4798264615"><ele>302.47</ele><time>2026-08-20T19:32:43Z</time></trkpt><trkpt lat="59.1027148627" lon="30.4798307363"><ele>302.47</ele><time>2026-08-20T19:32:44Z</time></trkpt><trkpt lat="59.1027139407" lon="30.4798410460"><ele>302.47</ele><time>2026-08-20T19:32:45Z</time></trkpt><trkpt lat="59.1027156170" lon="30.4798519425"><ele>302.47</ele><time>2026-08-20T19:32:46Z</time></trkpt><trkpt lat="59.1027181316" lon="30.4798624199"><ele>302.47</ele><time>2026-08-20T19:32:47Z</time></trkpt><trkpt lat="59.1027161200" lon="30.4798739869"><ele>302.47</ele><time>2026-08-20T19:32:48Z</time></trkpt><trkpt lat="59.1027188860" lon="30.4798866436"><ele>302.47</ele><time>2026-08-20T19:32:49Z</time></trkpt><trkpt lat="59.1027225740" lon="30.4798999708"><ele>302.47</ele><time>2026-08-20T19:32:50Z</time></trkpt><trkpt lat="59.1027252562" lon="30.4799163993"><ele>302.47</ele><time>2026-08-20T19:32:51Z</time></trkpt><trkpt lat="59.1027267650" lon="30.4799387790"><ele>302.47</ele><time>2026-08-20T19:32:52Z</time></trkpt><trkpt lat="59.1027265973" lon="30.4799571354"><ele>302.47</ele><time>2026-08-20T19:32:53Z</time></trkpt><trkpt lat="59.1027277708" lon="30.4799732286"><ele>302.47</ele><time>2026-08-20T19:32:54Z</time></trkpt><trkpt lat="59.1027277708" lon="30.4799910821"><ele>302.47</ele><time>2026-08-20T19:32:55Z</time></trkpt><trkpt lat="59.1027257591" lon="30.4800064210"><ele>302.47</ele><time>2026-08-20T19:32:56Z</time></trkpt><trkpt lat="59.1027229931" lon="30.4800216760"><ele>302.47</ele><time>2026-08-20T19:32:57Z</time></trkpt><trkpt lat="59.1027201433" lon="30.4800416250"><ele>302.47</ele><time>2026-08-20T19:32:58Z</time></trkpt><trkpt lat="59.1027176287" lon="30.4800583888"><ele>302.47</ele><time>2026-08-20T19:32:59Z</time></trkpt><trkpt lat="59.1027132701" lon="30.4800750688"><ele>302.47</ele><time>2026-08-20T19:33:00Z</time></trkpt><trkpt lat="59.1027118452" lon="30.4800922517"><ele>302.47</ele><time>2026-08-20T19:33:01Z</time></trkpt><trkpt lat="59.1027102526" lon="30.4801047407"><ele>302.47</ele><time>2026-08-20T19:33:02Z</time></trkpt><trkpt lat="59.1027089953" lon="30.4801183194"><ele>302.47</ele><time>2026-08-20T19:33:03Z</time></trkpt><trkpt lat="59.1027110908" lon="30.4801317304"><ele>302.47</ele><time>2026-08-20T19:33:04Z</time></trkpt><trkpt lat="59.1027128510" lon="30.4801442195"><ele>302.47</ele><time>2026-08-20T19:33:05Z</time></trkpt><trkpt lat="59.1027159523" lon="30.4801574629"><ele>302.47</ele><time>2026-08-20T19:33:06Z</time></trkpt><trkpt lat="59.1027176287" lon="30.4801715445"><ele>302.47</ele><time>2026-08-20T19:33:07Z</time></trkpt><trkpt lat="59.1027217358" lon="30.4801882245"><ele>302.47</ele><time>2026-08-20T19:33:08Z</time></trkpt><trkpt lat="59.1027249210" lon="30.4802016355"><ele>302.47</ele><time>2026-08-20T19:33:09Z</time></trkpt><trkpt lat="59.1027235799" lon="30.4802161362"><ele>302.47</ele><time>2026-08-20T19:33:10Z</time></trkpt><trkpt lat="59.1027242504" lon="30.4802285414"><ele>302.47</ele><time>2026-08-20T19:33:11Z</time></trkpt><trkpt lat="59.1027272679" lon="30.4802314751"><ele>302.47</ele><time>2026-08-20T19:33:12Z</time></trkpt><trkpt lat="59.1027286928" lon="30.4802319780"><ele>302.47</ele><time>2026-08-20T19:33:13Z</time></trkpt><trkpt lat="59.1027296986" lon="30.4802308884"><ele>302.47</ele><time>2026-08-20T19:33:14Z</time></trkpt><trkpt lat="59.1027296986" lon="30.4802308884"><ele>302.47</ele><time>2026-08-20T19:33:15Z</time></trkpt><trkpt lat="59.1027296986" lon="30.4802308884"><ele>302.47</ele><time>2026-08-20T19:33:16Z</time></trkpt><trkpt lat="59.1027296986" lon="30.4802308884"><ele>302.47</ele><time>2026-08-20T19:33:17Z</time></trkpt><trkpt lat="59.1027296986" lon="30.4802308884"><ele>302.95</ele><time>2026-08-20T19:33:18Z</time></trkpt><trkpt lat="59.1027296986" lon="30.4802308884"><ele>302.95</ele><time>2026-08-20T19:33:19Z</time></trkpt><trkpt lat="59.1027296986" lon="30.4802308884"><ele>302.95</ele><time>2026-08-20T19:33:20Z</time></trkpt><trkpt lat="59.1027296986" lon="30.4802308884"><ele>302.95</ele><time>2026-08-20T19:33:21Z</time></trkpt><trkpt lat="59.1027296986" lon="30.4802308884"><ele>302.95</ele><time>2026-08-20T19:33:22Z</time></trkpt><trkpt lat="59.1027296986" lon="30.4802308884"><ele>302.95</ele><time>2026-08-20T19:33:23Z</time></trkpt><trkpt lat="59.1027296986" lon="30.4802308884"><ele>302.95</ele><time>2026-08-20T19:33:24Z</time></trkpt><trkpt lat="59.1027296986" lon="30.4802308884"><ele>302.95</ele><time>2026-08-20T19:33:25Z</time></trkpt><trkpt lat="59.1027296986" lon="30.4802308884"><ele>302.95</ele><time>2026-08-20T19:33:26Z</time></trkpt><trkpt lat="59.1027296986" lon="30.4802308884"><ele>302.95</ele><time>2026-08-20T19:33:27Z</time></trkpt><trkpt lat="59.1027296986" lon="30.4802308884"><ele>302.95</ele><time>2026-08-20T19:33:28Z</time></trkpt><trkpt lat="59.1027296986" lon="30.4802308884"><ele>302.95</ele><time>2026-08-20T19:33:29Z</time></trkpt><trkpt lat="59.1027296986" lon="30.4802308884"><ele>302.95</ele><time>2026-08-20T19:33:30Z</time></trkpt><trkpt lat="59.1027296986" lon="30.4802308884"><ele>302.95</ele><time>2026-08-20T19:33:31Z</time></trkpt><trkpt lat="59.1027413495" lon="30.4802705348"><ele>302.95</ele><time>2026-08-20T19:33:32Z</time></trkpt><trkpt lat="59.1027439479" lon="30.4802864604"><ele>302.47</ele><time>2026-08-20T19:33:33Z</time></trkpt><trkpt lat="59.1027451213" lon="30.4803027213"><ele>302.47</ele><time>2026-08-20T19:33:34Z</time></trkpt><trkpt lat="59.1027467977" lon="30.4803159647"><ele>302.47</ele><time>2026-08-20T19:33:35Z</time></trkpt><trkpt lat="59.1027461272" lon="30.4803325608"><ele>302.47</ele><time>2026-08-20T19:33:36Z</time></trkpt><trkpt lat="59.1027484741" lon="30.4803504981"><ele>302.47</ele><time>2026-08-20T19:33:37Z</time></trkpt><trkpt lat="59.1027492285" lon="30.4803695250"><ele>302.47</ele><time>2026-08-20T19:33:38Z</time></trkpt><trkpt lat="59.1027510725" lon="30.4803865403"><ele>302.47</ele><time>2026-08-20T19:33:39Z</time></trkpt><trkpt lat="59.1027513240" lon="30.4804033879"><ele>302.47</ele><time>2026-08-20T19:33:40Z</time></trkpt><trkpt lat="59.1027527489" lon="30.4804211576"><ele>302.47</ele><time>2026-08-20T19:33:41Z</time></trkpt><trkpt lat="59.1027540900" lon="30.4804443754"><ele>302.47</ele><time>2026-08-20T19:33:42Z</time></trkpt><trkpt lat="59.1027540900" lon="30.4804665875"><ele>302.47</ele><time>2026-08-20T19:33:43Z</time></trkpt><trkpt lat="59.1027532518" lon="30.4804798309"><ele>302.47</ele><time>2026-08-20T19:33:44Z</time></trkpt><trkpt lat="59.1027523298" lon="30.4804960918"><ele>302.47</ele><time>2026-08-20T19:33:45Z</time></trkpt><trkpt lat="59.1027521621" lon="30.4805134423"><ele>302.47</ele><time>2026-08-20T19:33:46Z</time></trkpt><trkpt lat="59.1027516592" lon="30.4805297870"><ele>302.47</ele><time>2026-08-20T19:33:47Z</time></trkpt><trkpt lat="59.1027524974" lon="30.4805459641"><ele>302.47</ele><time>2026-08-20T19:33:48Z</time></trkpt><trkpt lat="59.1027519945" lon="30.4805643205"><ele>302.47</ele><time>2026-08-20T19:33:49Z</time></trkpt><trkpt lat="59.1027575266" lon="30.4805840179"><ele>302.47</ele><time>2026-08-20T19:33:50Z</time></trkpt><trkpt lat="59.1027559340" lon="30.4806033801"><ele>302.47</ele><time>2026-08-20T19:33:51Z</time></trkpt><trkpt lat="59.1027540900" lon="30.4806214850"><ele>302.47</ele><time>2026-08-20T19:33:52Z</time></trkpt><trkpt lat="59.1027569398" lon="30.4806374945"><ele>302.47</ele><time>2026-08-20T19:33:53Z</time></trkpt><trkpt lat="59.1027559340" lon="30.4806527495"><ele>302.47</ele><time>2026-08-20T19:33:54Z</time></trkpt><trkpt lat="59.1027567722" lon="30.4806670826"><ele>302.47</ele><time>2026-08-20T19:33:55Z</time></trkpt><trkpt lat="59.1027575266" lon="30.4806715250"><ele>302.47</ele><time>2026-08-20T19:33:56Z</time></trkpt><trkpt lat="59.1027594544" lon="30.4806761350"><ele>302.47</ele><time>2026-08-20T19:33:57Z</time></trkpt><trkpt lat="59.1027621366" lon="30.4806764703"><ele>302.47</ele><time>2026-08-20T19:33:58Z</time></trkpt><trkpt lat="59.1027621366" lon="30.4806764703"><ele>302.47</ele><time>2026-08-20T19:33:59Z</time></trkpt><trkpt lat="59.1027646512" lon="30.4806840979"><ele>302.47</ele><time>2026-08-20T19:34:00Z</time></trkpt><trkpt lat="59.1027640644" lon="30.4806943238"><ele>302.47</ele><time>2026-08-20T19:34:01Z</time></trkpt><trkpt lat="59.1027643997" lon="30.4807053879"><ele>302.47</ele><time>2026-08-20T19:34:02Z</time></trkpt><trkpt lat="59.1027661599" lon="30.4807176255"><ele>302.47</ele><time>2026-08-20T19:34:03Z</time></trkpt><trkpt lat="59.1027664952" lon="30.4807351436"><ele>302.47</ele><time>2026-08-20T19:34:04Z</time></trkpt><trkpt lat="59.1027677525" lon="30.4807516560"><ele>302.47</ele><time>2026-08-20T19:34:05Z</time></trkpt><trkpt lat="59.1027691774" lon="30.4807622172"><ele>302.47</ele><time>2026-08-20T19:34:06Z</time></trkpt><trkpt lat="59.1027743742" lon="30.4807728622"><ele>302.47</ele><time>2026-08-20T19:34:07Z</time></trkpt><trkpt lat="59.1027771402" lon="30.4807873629"><ele>302.47</ele><time>2026-08-20T19:34:08Z</time></trkpt><trkpt lat="59.1027789842" lon="30.4808040429"><ele>302.47</ele><time>2026-08-20T19:34:09Z</time></trkpt><trkpt lat="59.1027793195" lon="30.4808212258"><ele>302.47</ele><time>2026-08-20T19:34:10Z</time></trkpt><trkpt lat="59.1027805768" lon="30.4808384925"><ele>302.47</ele><time>2026-08-20T19:34:11Z</time></trkpt><trkpt lat="59.1027826723" lon="30.4808543343"><ele>302.47</ele><time>2026-08-20T19:34:12Z</time></trkpt><trkpt lat="59.1027860250" lon="30.4808658175"><ele>302.47</ele><time>2026-08-20T19:34:13Z</time></trkpt><trkpt lat="59.1027894616" lon="30.4808851797"><ele>302.47</ele><time>2026-08-20T19:34:14Z</time></trkpt><trkpt lat="59.1027936526" lon="30.4809037875"><ele>302.47</ele><time>2026-08-20T19:34:15Z</time></trkpt><trkpt lat="59.1027961671" lon="30.4809184559"><ele>302.47</ele><time>2026-08-20T19:34:16Z</time></trkpt><trkpt lat="59.1027910542" lon="30.4809301905"><ele>302.47</ele><time>2026-08-20T19:34:17Z</time></trkpt><trkpt lat="59.1027906351" lon="30.4809408356"><ele>302.47</ele><time>2026-08-20T19:34:18Z</time></trkpt><trkpt lat="59.1027903836" lon="30.4809551686"><ele>302.47</ele><time>2026-08-20T19:34:19Z</time></trkpt><trkpt lat="59.1027901322" lon="30.4809721839"><ele>302.47</ele><time>2026-08-20T19:34:20Z</time></trkpt><trkpt lat="59.1027916409" lon="30.4809902888"><ele>302.47</ele><time>2026-08-20T19:34:21Z</time></trkpt><trkpt lat="59.1027872823" lon="30.4810081422"><ele>302.47</ele><time>2026-08-20T19:34:22Z</time></trkpt><trkpt lat="59.1027909704" lon="30.4810265824"><ele>302.47</ele><time>2026-08-20T19:34:23Z</time></trkpt><trkpt lat="59.1027902998" lon="30.4810427595"><ele>302.47</ele><time>2026-08-20T19:34:24Z</time></trkpt><trkpt lat="59.1027907189" lon="30.4810606968"><ele>302.47</ele><time>2026-08-20T19:34:25Z</time></trkpt><trkpt lat="59.1027849354" lon="30.4810852557"><ele>302.47</ele><time>2026-08-20T19:34:26Z</time></trkpt><trkpt lat="59.1027840972" lon="30.4811027739"><ele>302.47</ele><time>2026-08-20T19:34:27Z</time></trkpt><trkpt lat="59.1027838457" lon="30.4811159335"><ele>302.47</ele><time>2026-08-20T19:34:28Z</time></trkpt><trkpt lat="59.1027845163" lon="30.4811269976"><ele>302.47</ele><time>2026-08-20T19:34:29Z</time></trkpt><trkpt lat="59.1027836781" lon="30.4811399896"><ele>302.47</ele><time>2026-08-20T19:34:30Z</time></trkpt><trkpt lat="59.1027846839" lon="30.4811577592"><ele>302.47</ele><time>2026-08-20T19:34:31Z</time></trkpt><trkpt lat="59.1027870309" lon="30.4811707512"><ele>302.47</ele><time>2026-08-20T19:34:32Z</time></trkpt><trkpt lat="59.1027868632" lon="30.4811834916"><ele>302.47</ele><time>2026-08-20T19:34:33Z</time></trkpt><trkpt lat="59.1027890425" lon="30.4811975732"><ele>302.47</ele><time>2026-08-20T19:34:34Z</time></trkpt><trkpt lat="59.1027855221" lon="30.4812092241"><ele>302.47</ele><time>2026-08-20T19:34:35Z</time></trkpt><trkpt lat="59.1027872823" lon="30.4812156782"><ele>302.47</ele><time>2026-08-20T19:34:36Z</time></trkpt><trkpt lat="59.1027870309" lon="30.4812326934"><ele>302.47</ele><time>2026-08-20T19:34:37Z</time></trkpt><trkpt lat="59.1027888749" lon="30.4812429193"><ele>302.47</ele><time>2026-08-20T19:34:38Z</time></trkpt><trkpt lat="59.1027897969" lon="30.4812496249"><ele>302.47</ele><time>2026-08-20T19:34:39Z</time></trkpt><trkpt lat="59.1027905513" lon="30.4812553246"><ele>302.47</ele><time>2026-08-20T19:34:40Z</time></trkpt><trkpt lat="59.1027916409" lon="30.4812640417"><ele>302.47</ele><time>2026-08-20T19:34:41Z</time></trkpt><trkpt lat="59.1027916409" lon="30.4812640417"><ele>302.47</ele><time>2026-08-20T19:34:42Z</time></trkpt><trkpt lat="59.1027916409" lon="30.4812640417"><ele>302.47</ele><time>2026-08-20T19:34:43Z</time></trkpt><trkpt lat="59.1027916409" lon="30.4812640417"><ele>302.47</ele><time>2026-08-20T19:34:44Z</time></trkpt><trkpt lat="59.1027916409" lon="30.4812640417"><ele>302.47</ele><time>2026-08-20T19:34:45Z</time></trkpt><trkpt lat="59.1028014477" lon="30.4812888522"><ele>302.47</ele><time>2026-08-20T19:34:46Z</time></trkpt><trkpt lat="59.1027985979" lon="30.4812975693"><ele>302.47</ele><time>2026-08-20T19:34:47Z</time></trkpt><trkpt lat="59.1028031241" lon="30.4813042749"><ele>302.47</ele><time>2026-08-20T19:34:48Z</time></trkpt><trkpt lat="59.1028037947" lon="30.4813162610"><ele>302.47</ele><time>2026-08-20T19:34:49Z</time></trkpt><trkpt lat="59.1028047167" lon="30.4813284986"><ele>302.47</ele><time>2026-08-20T19:34:50Z</time></trkpt><trkpt lat="59.1028050520" lon="30.4813426640"><ele>302.47</ele><time>2026-08-20T19:34:51Z</time></trkpt><trkpt lat="59.1028047167" lon="30.4813519679"><ele>302.47</ele><time>2026-08-20T19:34:52Z</time></trkpt><trkpt lat="59.1028053872" lon="30.4813612718"><ele>302.47</ele><time>2026-08-20T19:34:53Z</time></trkpt><trkpt lat="59.1028049681" lon="30.4813715816"><ele>302.47</ele><time>2026-08-20T19:34:54Z</time></trkpt><trkpt lat="59.1028086562" lon="30.4813792929"><ele>302.47</ele><time>2026-08-20T19:34:55Z</time></trkpt><trkpt lat="59.1028101649" lon="30.4813863337"><ele>302.47</ele><time>2026-08-20T19:34:56Z</time></trkpt><trkpt lat="59.1028099973" lon="30.4813914467"><ele>302.47</ele><time>2026-08-20T19:34:57Z</time></trkpt><trkpt lat="59.1028085724" lon="30.4813926201"><ele>302.47</ele><time>2026-08-20T19:34:58Z</time></trkpt><trkpt lat="59.1028062254" lon="30.4813972302"><ele>302.47</ele><time>2026-08-20T19:34:59Z</time></trkpt><trkpt lat="59.1028062254" lon="30.4813972302"><ele>302.47</ele><time>2026-08-20T19:35:00Z</time></trkpt><trkpt lat="59.1028062254" lon="30.4813972302"><ele>302.47</ele><time>2026-08-20T19:35:01Z</time></trkpt><trkpt lat="59.1028062254" lon="30.4813972302"><ele>302.47</ele><time>2026-08-20T19:35:02Z</time></trkpt><trkpt lat="59.1028046329" lon="30.4814246390"><ele>302.47</ele><time>2026-08-20T19:35:03Z</time></trkpt><trkpt lat="59.1028027888" lon="30.4814398941"><ele>302.47</ele><time>2026-08-20T19:35:04Z</time></trkpt><trkpt lat="59.1027993523" lon="30.4814568255"><ele>302.47</ele><time>2026-08-20T19:35:05Z</time></trkpt><trkpt lat="59.1028008610" lon="30.4814686440"><ele>302.47</ele><time>2026-08-20T19:35:06Z</time></trkpt><trkpt lat="59.1028014477" lon="30.4814786185"><ele>302.47</ele><time>2026-08-20T19:35:07Z</time></trkpt><trkpt lat="59.1028019506" lon="30.4814881738"><ele>302.47</ele><time>2026-08-20T19:35:08Z</time></trkpt><trkpt lat="59.1028023697" lon="30.4814978968"><ele>302.47</ele><time>2026-08-20T19:35:09Z</time></trkpt><trkpt lat="59.1028025374" lon="30.4815061949"><ele>302.47</ele><time>2026-08-20T19:35:10Z</time></trkpt><trkpt lat="59.1028033756" lon="30.4815147445"><ele>302.47</ele><time>2026-08-20T19:35:11Z</time></trkpt><trkpt lat="59.1028023697" lon="30.4815238807"><ele>302.47</ele><time>2026-08-20T19:35:12Z</time></trkpt><trkpt lat="59.1027957480" lon="30.4815382976"><ele>302.95</ele><time>2026-08-20T19:35:13Z</time></trkpt><trkpt lat="59.1027919762" lon="30.4815539718"><ele>302.95</ele><time>2026-08-20T19:35:14Z</time></trkpt><trkpt lat="59.1027895454" lon="30.4815669637"><ele>302.95</ele><time>2026-08-20T19:35:15Z</time></trkpt><trkpt lat="59.1027870309" lon="30.4815835599"><ele>302.95</ele><time>2026-08-20T19:35:16Z</time></trkpt><trkpt lat="59.1027872823" lon="30.4816000722"><ele>302.95</ele><time>2026-08-20T19:35:17Z</time></trkpt><trkpt lat="59.1027875338" lon="30.4816194344"><ele>302.95</ele><time>2026-08-20T19:35:18Z</time></trkpt><trkpt lat="59.1027889587" lon="30.4816358630"><ele>302.95</ele><time>2026-08-20T19:35:19Z</time></trkpt><trkpt lat="59.1027913895" lon="30.4816558957"><ele>302.95</ele><time>2026-08-20T19:35:20Z</time></trkpt><trkpt lat="59.1027947422" lon="30.4816694744"><ele>302.95</ele><time>2026-08-20T19:35:21Z</time></trkpt><trkpt lat="59.1027991846" lon="30.4816815443"><ele>302.95</ele><time>2026-08-20T19:35:22Z</time></trkpt><trkpt lat="59.1027998552" lon="30.4816877469"><ele>302.95</ele><time>2026-08-20T19:35:23Z</time></trkpt><trkpt lat="59.1028049681" lon="30.4816921894"><ele>302.95</ele><time>2026-08-20T19:35:24Z</time></trkpt><trkpt lat="59.1028058901" lon="30.4816977214"><ele>302.95</ele><time>2026-08-20T19:35:25Z</time></trkpt><trkpt lat="59.1028058901" lon="30.4816977214"><ele>302.95</ele><time>2026-08-20T19:35:26Z</time></trkpt><trkpt lat="59.1028074827" lon="30.4817051813"><ele>302.95</ele><time>2026-08-20T19:35:27Z</time></trkpt><trkpt lat="59.1028112546" lon="30.4817164969"><ele>302.95</ele><time>2026-08-20T19:35:28Z</time></trkpt><trkpt lat="59.1028141882" lon="30.4817244597"><ele>302.95</ele><time>2026-08-20T19:35:29Z</time></trkpt><trkpt lat="59.1028177924" lon="30.4817313328"><ele>302.95</ele><time>2026-08-20T19:35:30Z</time></trkpt><trkpt lat="59.1028242465" lon="30.4817435704"><ele>302.95</ele><time>2026-08-20T19:35:31Z</time></trkpt><trkpt lat="59.1028273478" lon="30.4817555565"><ele>302.95</ele><time>2026-08-20T19:35:32Z</time></trkpt><trkpt lat="59.1028275993" lon="30.4817602504"><ele>302.95</ele><time>2026-08-20T19:35:33Z</time></trkpt><trkpt lat="59.1028270964" lon="30.4817689676"><ele>302.95</ele><time>2026-08-20T19:35:34Z</time></trkpt><trkpt lat="59.1028264258" lon="30.4817786906"><ele>302.95</ele><time>2026-08-20T19:35:35Z</time></trkpt><trkpt lat="59.1028289404" lon="30.4817877430"><ele>302.95</ele><time>2026-08-20T19:35:36Z</time></trkpt><trkpt lat="59.1028238274" lon="30.4818001483"><ele>302.95</ele><time>2026-08-20T19:35:37Z</time></trkpt><trkpt lat="59.1028244980" lon="30.4818082787"><ele>302.95</ele><time>2026-08-20T19:35:38Z</time></trkpt><trkpt lat="59.1028236598" lon="30.4818115477"><ele>302.95</ele><time>2026-08-20T19:35:39Z</time></trkpt><trkpt lat="59.1028240789" lon="30.4818199296"><ele>302.95</ele><time>2026-08-20T19:35:40Z</time></trkpt><trkpt lat="59.1028238274" lon="30.4818258807"><ele>302.95</ele><time>2026-08-20T19:35:41Z</time></trkpt><trkpt lat="59.1028238274" lon="30.4818258807"><ele>302.95</ele><time>2026-08-20T19:35:42Z</time></trkpt><trkpt lat="59.1028238274" lon="30.4818258807"><ele>302.95</ele><time>2026-08-20T19:35:43Z</time></trkpt><trkpt lat="59.1028238274" lon="30.4818258807"><ele>302.95</ele><time>2026-08-20T19:35:44Z</time></trkpt><trkpt lat="59.1028265934" lon="30.4818521999"><ele>302.95</ele><time>2026-08-20T19:35:45Z</time></trkpt><trkpt lat="59.1028272640" lon="30.4818652757"><ele>302.95</ele><time>2026-08-20T19:35:46Z</time></trkpt><trkpt lat="59.1028293595" lon="30.4818800278"><ele>302.95</ele><time>2026-08-20T19:35:47Z</time></trkpt><trkpt lat="59.1028318740" lon="30.4818949476"><ele>302.95</ele><time>2026-08-20T19:35:48Z</time></trkpt><trkpt lat="59.1028346401" lon="30.4819113761"><ele>302.95</ele><time>2026-08-20T19:35:49Z</time></trkpt><trkpt lat="59.1028367355" lon="30.4819238652"><ele>302.95</ele><time>2026-08-20T19:35:50Z</time></trkpt><trkpt lat="59.1028363165" lon="30.4819383658"><ele>302.95</ele><time>2026-08-20T19:35:51Z</time></trkpt><trkpt lat="59.1028323770" lon="30.4819554649"><ele>302.95</ele><time>2026-08-20T19:35:52Z</time></trkpt><trkpt lat="59.1028322931" lon="30.4819697980"><ele>302.95</ele><time>2026-08-20T19:35:53Z</time></trkpt><trkpt lat="59.1028353944" lon="30.4819830414"><ele>302.95</ele><time>2026-08-20T19:35:54Z</time></trkpt><trkpt lat="59.1028331313" lon="30.4820054211"><ele>302.95</ele><time>2026-08-20T19:35:55Z</time></trkpt><trkpt lat="59.1028334666" lon="30.4820233583"><ele>302.95</ele><time>2026-08-20T19:35:56Z</time></trkpt><trkpt lat="59.1028341372" lon="30.4820444807"><ele>302.95</ele><time>2026-08-20T19:35:57Z</time></trkpt><trkpt lat="59.1028353944" lon="30.4820638429"><ele>302.95</ele><time>2026-08-20T19:35:58Z</time></trkpt><trkpt lat="59.1028329637" lon="30.4820871446"><ele>302.95</ele><time>2026-08-20T19:35:59Z</time></trkpt><trkpt lat="59.1028368194" lon="30.4820999689"><ele>302.95</ele><time>2026-08-20T19:36:00Z</time></trkpt><trkpt lat="59.1028397530" lon="30.4821161460"><ele>302.95</ele><time>2026-08-20T19:36:01Z</time></trkpt><trkpt lat="59.1028411780" lon="30.4821335804"><ele>302.95</ele><time>2026-08-20T19:36:02Z</time></trkpt><trkpt lat="59.1028410941" lon="30.4821487516"><ele>302.95</ele><time>2026-08-20T19:36:03Z</time></trkpt><trkpt lat="59.1028411780" lon="30.4821574688"><ele>302.95</ele><time>2026-08-20T19:36:04Z</time></trkpt><trkpt lat="59.1028449498" lon="30.4821631685"><ele>302.95</ele><time>2026-08-20T19:36:05Z</time></trkpt><trkpt lat="59.1028488893" lon="30.4821756575"><ele>302.95</ele><time>2026-08-20T19:36:06Z</time></trkpt><trkpt lat="59.1028525773" lon="30.4821857996"><ele>302.95</ele><time>2026-08-20T19:36:07Z</time></trkpt><trkpt lat="59.1028522421" lon="30.4821907450"><ele>302.95</ele><time>2026-08-20T19:36:08Z</time></trkpt><trkpt lat="59.1028535832" lon="30.4821974505"><ele>302.95</ele><time>2026-08-20T19:36:09Z</time></trkpt><trkpt lat="59.1028560977" lon="30.4822082631"><ele>302.95</ele><time>2026-08-20T19:36:10Z</time></trkpt><trkpt lat="59.1028585285" lon="30.4822256975"><ele>302.95</ele><time>2026-08-20T19:36:11Z</time></trkpt><trkpt lat="59.1028596181" lon="30.4822378512"><ele>302.95</ele><time>2026-08-20T19:36:12Z</time></trkpt><trkpt lat="59.1028605402" lon="30.4822465684"><ele>302.95</ele><time>2026-08-20T19:36:13Z</time></trkpt><trkpt lat="59.1028613783" lon="30.4822620749"><ele>302.95</ele><time>2026-08-20T19:36:14Z</time></trkpt><trkpt lat="59.1028645635" lon="30.4822750669"><ele>302.95</ele><time>2026-08-20T19:36:15Z</time></trkpt><trkpt lat="59.1028654855" lon="30.4822872207"><ele>302.95</ele><time>2026-08-20T19:36:16Z</time></trkpt><trkpt lat="59.1028628871" lon="30.4823010508"><ele>302.95</ele><time>2026-08-20T19:36:17Z</time></trkpt><trkpt lat="59.1028600372" lon="30.4823160544"><ele>302.95</ele><time>2026-08-20T19:36:18Z</time></trkpt><trkpt lat="59.1028575227" lon="30.4823298845"><ele>302.95</ele><time>2026-08-20T19:36:19Z</time></trkpt><trkpt lat="59.1028559301" lon="30.4823459778"><ele>302.95</ele><time>2026-08-20T19:36:20Z</time></trkpt><trkpt lat="59.1028550919" lon="30.4823605623"><ele>302.95</ele><time>2026-08-20T19:36:21Z</time></trkpt><trkpt lat="59.1028528288" lon="30.4823766556"><ele>302.95</ele><time>2026-08-20T19:36:22Z</time></trkpt><trkpt lat="59.1028527450" lon="30.4823951796"><ele>302.95</ele><time>2026-08-20T19:36:23Z</time></trkpt><trkpt lat="59.1028521582" lon="30.4824082553"><ele>302.95</ele><time>2026-08-20T19:36:24Z</time></trkpt><trkpt lat="59.1028509848" lon="30.4824222531"><ele>302.95</ele><time>2026-08-20T19:36:25Z</time></trkpt><trkpt lat="59.1028501466" lon="30.4824419506"><ele>302.95</ele><time>2026-08-20T19:36:26Z</time></trkpt><trkpt lat="59.1028552596" lon="30.4824674316"><ele>302.95</ele><time>2026-08-20T19:36:27Z</time></trkpt><trkpt lat="59.1028568521" lon="30.4824897274"><ele>302.95</ele><time>2026-08-20T19:36:28Z</time></trkpt><trkpt lat="59.1028623842" lon="30.4825094249"><ele>302.95</ele><time>2026-08-20T19:36:29Z</time></trkpt><trkpt lat="59.1028619651" lon="30.4825281166"><ele>302.95</ele><time>2026-08-20T19:36:30Z</time></trkpt><trkpt lat="59.1028648987" lon="30.4825433716"><ele>302.47</ele><time>2026-08-20T19:36:31Z</time></trkpt><trkpt lat="59.1028654855" lon="30.4825562797"><ele>302.47</ele><time>2026-08-20T19:36:32Z</time></trkpt><trkpt lat="59.1028661560" lon="30.4825707804"><ele>302.47</ele><time>2026-08-20T19:36:33Z</time></trkpt><trkpt lat="59.1028688382" lon="30.4825815931"><ele>302.47</ele><time>2026-08-20T19:36:34Z</time></trkpt><trkpt lat="59.1028704308" lon="30.4825923219"><ele>302.47</ele><time>2026-08-20T19:36:35Z</time></trkpt><trkpt lat="59.1028715204" lon="30.4826006200"><ele>302.47</ele><time>2026-08-20T19:36:36Z</time></trkpt><trkpt lat="59.1028730292" lon="30.4826151207"><ele>302.47</ele><time>2026-08-20T19:36:37Z</time></trkpt><trkpt lat="59.1028750408" lon="30.4826326389"><ele>302.47</ele><time>2026-08-20T19:36:38Z</time></trkpt><trkpt lat="59.1028750408" lon="30.4826495703"><ele>302.47</ele><time>2026-08-20T19:36:39Z</time></trkpt><trkpt lat="59.1028755438" lon="30.4826634843"><ele>302.47</ele><time>2026-08-20T19:36:40Z</time></trkpt><trkpt lat="59.1028756276" lon="30.4826741293"><ele>302.47</ele><time>2026-08-20T19:36:41Z</time></trkpt><trkpt lat="59.1028730292" lon="30.4826913960"><ele>302.47</ele><time>2026-08-20T19:36:42Z</time></trkpt><trkpt lat="59.1028737836" lon="30.4827148654"><ele>302.47</ele><time>2026-08-20T19:36:43Z</time></trkpt><trkpt lat="59.1028763819" lon="30.4827297851"><ele>302.47</ele><time>2026-08-20T19:36:44Z</time></trkpt><trkpt lat="59.1028766334" lon="30.4827474710"><ele>302.47</ele><time>2026-08-20T19:36:45Z</time></trkpt><trkpt lat="59.1028783936" lon="30.4827636480"><ele>302.47</ele><time>2026-08-20T19:36:46Z</time></trkpt><trkpt lat="59.1028771363" lon="30.4827795736"><ele>302.47</ele><time>2026-08-20T19:36:47Z</time></trkpt><trkpt lat="59.1028764658" lon="30.4827945773"><ele>302.47</ele><time>2026-08-20T19:36:48Z</time></trkpt><trkpt lat="59.1028783936" lon="30.4828107543"><ele>302.47</ele><time>2026-08-20T19:36:49Z</time></trkpt><trkpt lat="59.1028807405" lon="30.4828297812"><ele>302.47</ele><time>2026-08-20T19:36:50Z</time></trkpt><trkpt lat="59.1028808244" lon="30.4828465451"><ele>302.47</ele><time>2026-08-20T19:36:51Z</time></trkpt><trkpt lat="59.1028785612" lon="30.4828666616"><ele>302.47</ele><time>2026-08-20T19:36:52Z</time></trkpt><trkpt lat="59.1028764658" lon="30.4828894604"><ele>302.47</ele><time>2026-08-20T19:36:53Z</time></trkpt><trkpt lat="59.1028707661" lon="30.4829136841"><ele>302.47</ele><time>2026-08-20T19:36:54Z</time></trkpt><trkpt lat="59.1028677486" lon="30.4829360638"><ele>302.47</ele><time>2026-08-20T19:36:55Z</time></trkpt><trkpt lat="59.1028642282" lon="30.4829541687"><ele>302.47</ele><time>2026-08-20T19:36:56Z</time></trkpt><trkpt lat="59.1028622165" lon="30.4829717707"><ele>302.47</ele><time>2026-08-20T19:36:57Z</time></trkpt><trkpt lat="59.1028603725" lon="30.4829919711"><ele>302.47</ele><time>2026-08-20T19:36:58Z</time></trkpt><trkpt lat="59.1028640606" lon="30.4830081481"><ele>302.47</ele><time>2026-08-20T19:36:59Z</time></trkpt><trkpt lat="59.1028655693" lon="30.4830229841"><ele>302.47</ele><time>2026-08-20T19:37:00Z</time></trkpt><trkpt lat="59.1028695926" lon="30.4830295220"><ele>302.47</ele><time>2026-08-20T19:37:01Z</time></trkpt><trkpt lat="59.1028693411" lon="30.4830334615"><ele>302.47</ele><time>2026-08-20T19:37:02Z</time></trkpt><trkpt lat="59.1028692573" lon="30.4830356408"><ele>302.47</ele><time>2026-08-20T19:37:03Z</time></trkpt><trkpt lat="59.1028692573" lon="30.4830356408"><ele>302.95</ele><time>2026-08-20T19:37:04Z</time></trkpt><trkpt lat="59.1028692573" lon="30.4830356408"><ele>302.95</ele><time>2026-08-20T19:37:05Z</time></trkpt><trkpt lat="59.1028692573" lon="30.4830356408"><ele>302.95</ele><time>2026-08-20T19:37:06Z</time></trkpt><trkpt lat="59.1028692573" lon="30.4830356408"><ele>302.95</ele><time>2026-08-20T19:37:07Z</time></trkpt><trkpt lat="59.1028692573" lon="30.4830356408"><ele>302.95</ele><time>2026-08-20T19:37:08Z</time></trkpt><trkpt lat="59.1028692573" lon="30.4830356408"><ele>302.95</ele><time>2026-08-20T19:37:09Z</time></trkpt><trkpt lat="59.1028692573" lon="30.4830356408"><ele>302.95</ele><time>2026-08-20T19:37:10Z</time></trkpt><trkpt lat="59.1028692573" lon="30.4830356408"><ele>302.95</ele><time>2026-08-20T19:37:11Z</time></trkpt><trkpt lat="59.1028692573" lon="30.4830356408"><ele>302.95</ele><time>2026-08-20T19:37:12Z</time></trkpt><trkpt lat="59.1028692573" lon="30.4830356408"><ele>302.95</ele><time>2026-08-20T19:37:13Z</time></trkpt><trkpt lat="59.1028692573" lon="30.4830356408"><ele>302.95</ele><time>2026-08-20T19:37:14Z</time></trkpt><trkpt lat="59.1028692573" lon="30.4830356408"><ele>302.95</ele><time>2026-08-20T19:37:15Z</time></trkpt><trkpt lat="59.1028692573" lon="30.4830356408"><ele>302.95</ele><time>2026-08-20T19:37:16Z</time></trkpt><trkpt lat="59.1028692573" lon="30.4830356408"><ele>302.95</ele><time>2026-08-20T19:37:17Z</time></trkpt><trkpt lat="59.1028725263" lon="30.4830572661"><ele>302.95</ele><time>2026-08-20T19:37:18Z</time></trkpt><trkpt lat="59.1028747894" lon="30.4830668215"><ele>302.95</ele><time>2026-08-20T19:37:19Z</time></trkpt><trkpt lat="59.1028789803" lon="30.4830785561"><ele>302.95</ele><time>2026-08-20T19:37:20Z</time></trkpt><trkpt lat="59.1028795671" lon="30.4830918834"><ele>302.95</ele><time>2026-08-20T19:37:21Z</time></trkpt><trkpt lat="59.1028811596" lon="30.4831039533"><ele>302.95</ele><time>2026-08-20T19:37:22Z</time></trkpt><trkpt lat="59.1028845962" lon="30.4831145983"><ele>302.95</ele><time>2026-08-20T19:37:23Z</time></trkpt><trkpt lat="59.1028865241" lon="30.4831281770"><ele>302.95</ele><time>2026-08-20T19:37:24Z</time></trkpt><trkpt lat="59.1028872784" lon="30.4831470363"><ele>302.95</ele><time>2026-08-20T19:37:25Z</time></trkpt><trkpt lat="59.1028892901" lon="30.4831630457"><ele>302.95</ele><time>2026-08-20T19:37:26Z</time></trkpt><trkpt lat="59.1028899606" lon="30.4831792228"><ele>302.95</ele><time>2026-08-20T19:37:27Z</time></trkpt><trkpt lat="59.1028918885" lon="30.4831984174"><ele>302.95</ele><time>2026-08-20T19:37:28Z</time></trkpt><trkpt lat="59.1028946545" lon="30.4832151812"><ele>302.95</ele><time>2026-08-20T19:37:29Z</time></trkpt><trkpt lat="59.1028946545" lon="30.4832326993"><ele>302.95</ele><time>2026-08-20T19:37:30Z</time></trkpt><trkpt lat="59.1028963309" lon="30.4832519777"><ele>302.95</ele><time>2026-08-20T19:37:31Z</time></trkpt><trkpt lat="59.1028981749" lon="30.4832719266"><ele>302.95</ele><time>2026-08-20T19:37:32Z</time></trkpt><trkpt lat="59.1028995998" lon="30.4832929652"><ele>302.95</ele><time>2026-08-20T19:37:33Z</time></trkpt><trkpt lat="59.1029015277" lon="30.4833129980"><ele>302.95</ele><time>2026-08-20T19:37:34Z</time></trkpt><trkpt lat="59.1028976720" lon="30.4833272472"><ele>302.95</ele><time>2026-08-20T19:37:35Z</time></trkpt><trkpt lat="59.1028985940" lon="30.4833381437"><ele>302.95</ele><time>2026-08-20T19:37:36Z</time></trkpt><trkpt lat="59.1029002704" lon="30.4833458550"><ele>302.95</ele><time>2026-08-20T19:37:37Z</time></trkpt><trkpt lat="59.1029005218" lon="30.4833549913"><ele>302.95</ele><time>2026-08-20T19:37:38Z</time></trkpt><trkpt lat="59.1029008571" lon="30.4833587632"><ele>302.95</ele><time>2026-08-20T19:37:39Z</time></trkpt><trkpt lat="59.1029008571" lon="30.4833587632"><ele>302.95</ele><time>2026-08-20T19:37:40Z</time></trkpt><trkpt lat="59.1029008571" lon="30.4833587632"><ele>302.95</ele><time>2026-08-20T19:37:41Z</time></trkpt><trkpt lat="59.1029008571" lon="30.4833587632"><ele>302.95</ele><time>2026-08-20T19:37:42Z</time></trkpt><trkpt lat="59.1029008571" lon="30.4833587632"><ele>302.95</ele><time>2026-08-20T19:37:43Z</time></trkpt><trkpt lat="59.1029008571" lon="30.4833587632"><ele>302.95</ele><time>2026-08-20T19:37:44Z</time></trkpt><trkpt lat="59.1029008571" lon="30.4833587632"><ele>302.95</ele><time>2026-08-20T19:37:45Z</time></trkpt><trkpt lat="59.1029008571" lon="30.4833587632"><ele>302.95</ele><time>2026-08-20T19:37:46Z</time></trkpt><trkpt lat="59.1029008571" lon="30.4833587632"><ele>302.95</ele><time>2026-08-20T19:37:47Z</time></trkpt><trkpt lat="59.1029008571" lon="30.4833587632"><ele>302.47</ele><time>2026-08-20T19:37:48Z</time></trkpt><trkpt lat="59.1029008571" lon="30.4833587632"><ele>302.47</ele><time>2026-08-20T19:37:49Z</time></trkpt><trkpt lat="59.1029008571" lon="30.4833587632"><ele>302.47</ele><time>2026-08-20T19:37:50Z</time></trkpt><trkpt lat="59.1029008571" lon="30.4833587632"><ele>302.47</ele><time>2026-08-20T19:37:51Z</time></trkpt><trkpt lat="59.1029008571" lon="30.4833587632"><ele>302.47</ele><time>2026-08-20T19:37:52Z</time></trkpt><trkpt lat="59.1029008571" lon="30.4833587632"><ele>302.47</ele><time>2026-08-20T19:37:53Z</time></trkpt><trkpt lat="59.1029008571" lon="30.4833587632"><ele>302.47</ele><time>2026-08-20T19:37:54Z</time></trkpt><trkpt lat="59.1029008571" lon="30.4833587632"><ele>302.47</ele><time>2026-08-20T19:37:55Z</time></trkpt><trkpt lat="59.1029008571" lon="30.4833587632"><ele>302.47</ele><time>2026-08-20T19:37:56Z</time></trkpt><trkpt lat="59.1029008571" lon="30.4833587632"><ele>302.47</ele><time>2026-08-20T19:37:57Z</time></trkpt><trkpt lat="59.1029008571" lon="30.4833587632"><ele>302.47</ele><time>2026-08-20T19:37:58Z</time></trkpt><trkpt lat="59.1029008571" lon="30.4833587632"><ele>302.47</ele><time>2026-08-20T19:37:59Z</time></trkpt><trkpt lat="59.1029008571" lon="30.4833587632"><ele>302.95</ele><time>2026-08-20T19:38:00Z</time></trkpt><trkpt lat="59.1029008571" lon="30.4833587632"><ele>302.95</ele><time>2026-08-20T19:38:01Z</time></trkpt><trkpt lat="59.1029008571" lon="30.4833587632"><ele>302.95</ele><time>2026-08-20T19:38:02Z</time></trkpt><trkpt lat="59.1029008571" lon="30.4833587632"><ele>302.95</ele><time>2026-08-20T19:38:03Z</time></trkpt><trkpt lat="59.1029008571" lon="30.4833587632"><ele>302.95</ele><time>2026-08-20T19:38:04Z</time></trkpt><trkpt lat="59.1029008571" lon="30.4833587632"><ele>302.95</ele><time>2026-08-20T19:38:05Z</time></trkpt><trkpt lat="59.1029008571" lon="30.4833587632"><ele>302.95</ele><time>2026-08-20T19:38:06Z</time></trkpt><trkpt lat="59.1029008571" lon="30.4833587632"><ele>302.95</ele><time>2026-08-20T19:38:07Z</time></trkpt><trkpt lat="59.1029008571" lon="30.4833587632"><ele>302.95</ele><time>2026-08-20T19:38:08Z</time></trkpt><trkpt lat="59.1029008571" lon="30.4833587632"><ele>302.95</ele><time>2026-08-20T19:38:09Z</time></trkpt><trkpt lat="59.1029008571" lon="30.4833587632"><ele>302.95</ele><time>2026-08-20T19:38:10Z</time></trkpt><trkpt lat="59.1029008571" lon="30.4833587632"><ele>302.95</ele><time>2026-08-20T19:38:11Z</time></trkpt><trkpt lat="59.1029008571" lon="30.4833587632"><ele>302.95</ele><time>2026-08-20T19:38:12Z</time></trkpt><trkpt lat="59.1029008571" lon="30.4833587632"><ele>302.95</ele><time>2026-08-20T19:38:13Z</time></trkpt><trkpt lat="59.1029008571" lon="30.4833587632"><ele>302.95</ele><time>2026-08-20T19:38:14Z</time></trkpt><trkpt lat="59.1029008571" lon="30.4833587632"><ele>302.95</ele><time>2026-08-20T19:38:15Z</time></trkpt><trkpt lat="59.1029008571" lon="30.4833587632"><ele>302.95</ele><time>2026-08-20T19:38:16Z</time></trkpt><trkpt lat="59.1029008571" lon="30.4833587632"><ele>302.95</ele><time>2026-08-20T19:38:17Z</time></trkpt><trkpt lat="59.1029008571" lon="30.4833587632"><ele>302.95</ele><time>2026-08-20T19:38:18Z</time></trkpt><trkpt lat="59.1029008571" lon="30.4833587632"><ele>302.95</ele><time>2026-08-20T19:38:19Z</time></trkpt><trkpt lat="59.1029008571" lon="30.4833587632"><ele>302.95</ele><time>2026-08-20T19:38:20Z</time></trkpt><trkpt lat="59.1029008571" lon="30.4833587632"><ele>302.95</ele><time>2026-08-20T19:38:21Z</time></trkpt><trkpt lat="59.1029008571" lon="30.4833587632"><ele>302.95</ele><time>2026-08-20T19:38:22Z</time></trkpt><trkpt lat="59.1029008571" lon="30.4833587632"><ele>302.95</ele><time>2026-08-20T19:38:23Z</time></trkpt><trkpt lat="59.1029008571" lon="30.4833587632"><ele>302.95</ele><time>2026-08-20T19:38:24Z</time></trkpt><trkpt lat="59.1029008571" lon="30.4833587632"><ele>302.95</ele><time>2026-08-20T19:38:25Z</time></trkpt><trkpt lat="59.1029008571" lon="30.4833587632"><ele>302.95</ele><time>2026-08-20T19:38:26Z</time></trkpt><trkpt lat="59.1029008571" lon="30.4833587632"><ele>302.95</ele><time>2026-08-20T19:38:27Z</time></trkpt><trkpt lat="59.1029008571" lon="30.4833587632"><ele>302.95</ele><time>2026-08-20T19:38:28Z</time></trkpt><trkpt lat="59.1029008571" lon="30.4833587632"><ele>302.95</ele><time>2026-08-20T19:38:29Z</time></trkpt><trkpt lat="59.1029008571" lon="30.4833587632"><ele>302.95</ele><time>2026-08-20T19:38:30Z</time></trkpt><trkpt lat="59.1029008571" lon="30.4833587632"><ele>302.95</ele><time>2026-08-20T19:38:31Z</time></trkpt><trkpt lat="59.1029008571" lon="30.4833587632"><ele>302.95</ele><time>2026-08-20T19:38:32Z</time></trkpt><trkpt lat="59.1029008571" lon="30.4833587632"><ele>302.95</ele><time>2026-08-20T19:38:33Z</time></trkpt><trkpt lat="59.1029008571" lon="30.4833587632"><ele>302.95</ele><time>2026-08-20T19:38:34Z</time></trkpt><trkpt lat="59.1029008571" lon="30.4833587632"><ele>302.95</ele><time>2026-08-20T19:38:35Z</time></trkpt><trkpt lat="59.1029008571" lon="30.4833587632"><ele>302.95</ele><time>2026-08-20T19:38:36Z</time></trkpt><trkpt lat="59.1029008571" lon="30.4833587632"><ele>302.95</ele><time>2026-08-20T19:38:37Z</time></trkpt><trkpt lat="59.1029008571" lon="30.4833587632"><ele>302.95</ele><time>2026-08-20T19:38:38Z</time></trkpt><trkpt lat="59.1029008571" lon="30.4833587632"><ele>302.95</ele><time>2026-08-20T19:38:39Z</time></trkpt><trkpt lat="59.1029008571" lon="30.4833587632"><ele>303.43</ele><time>2026-08-20T19:38:40Z</time></trkpt><trkpt lat="59.1029008571" lon="30.4833587632"><ele>303.43</ele><time>2026-08-20T19:38:41Z</time></trkpt><trkpt lat="59.1029008571" lon="30.4833587632"><ele>303.43</ele><time>2026-08-20T19:38:42Z</time></trkpt><trkpt lat="59.1029008571" lon="30.4833587632"><ele>303.43</ele><time>2026-08-20T19:38:43Z</time></trkpt><trkpt lat="59.1029008571" lon="30.4833587632"><ele>303.43</ele><time>2026-08-20T19:38:44Z</time></trkpt><trkpt lat="59.1029008571" lon="30.4833587632"><ele>303.43</ele><time>2026-08-20T19:38:45Z</time></trkpt><trkpt lat="59.1029008571" lon="30.4833587632"><ele>303.43</ele><time>2026-08-20T19:38:46Z</time></trkpt><trkpt lat="59.1029008571" lon="30.4833587632"><ele>303.43</ele><time>2026-08-20T19:38:47Z</time></trkpt><trkpt lat="59.1029008571" lon="30.4833587632"><ele>303.43</ele><time>2026-08-20T19:38:48Z</time></trkpt><trkpt lat="59.1029008571" lon="30.4833587632"><ele>303.43</ele><time>2026-08-20T19:38:49Z</time></trkpt><trkpt lat="59.1029008571" lon="30.4833587632"><ele>303.43</ele><time>2026-08-20T19:38:50Z</time></trkpt><trkpt lat="59.1029008571" lon="30.4833587632"><ele>303.43</ele><time>2026-08-20T19:38:51Z</time></trkpt><trkpt lat="59.1029008571" lon="30.4833587632"><ele>303.43</ele><time>2026-08-20T19:38:52Z</time></trkpt><trkpt lat="59.1029008571" lon="30.4833587632"><ele>303.43</ele><time>2026-08-20T19:38:53Z</time></trkpt><trkpt lat="59.1029008571" lon="30.4833587632"><ele>303.43</ele><time>2026-08-20T19:38:54Z</time></trkpt><trkpt lat="59.1029008571" lon="30.4833587632"><ele>303.43</ele><time>2026-08-20T19:38:55Z</time></trkpt><trkpt lat="59.1029008571" lon="30.4833587632"><ele>303.43</ele><time>2026-08-20T19:38:56Z</time></trkpt><trkpt lat="59.1029008571" lon="30.4833587632"><ele>302.95</ele><time>2026-08-20T19:38:57Z</time></trkpt><trkpt lat="59.1029008571" lon="30.4833587632"><ele>302.95</ele><time>2026-08-20T19:38:58Z</time></trkpt><trkpt lat="59.1029008571" lon="30.4833587632"><ele>302.95</ele><time>2026-08-20T19:38:59Z</time></trkpt><trkpt lat="59.1029008571" lon="30.4833587632"><ele>302.95</ele><time>2026-08-20T19:39:00Z</time></trkpt><trkpt lat="59.1029008571" lon="30.4833587632"><ele>302.95</ele><time>2026-08-20T19:39:01Z</time></trkpt><trkpt lat="59.1029008571" lon="30.4833587632"><ele>302.95</ele><time>2026-08-20T19:39:02Z</time></trkpt><trkpt lat="59.1029008571" lon="30.4833587632"><ele>302.95</ele><time>2026-08-20T19:39:03Z</time></trkpt><trkpt lat="59.1029008571" lon="30.4833587632"><ele>302.95</ele><time>2026-08-20T19:39:04Z</time></trkpt><trkpt lat="59.1029008571" lon="30.4833587632"><ele>302.95</ele><time>2026-08-20T19:39:05Z</time></trkpt><trkpt lat="59.1029008571" lon="30.4833587632"><ele>302.95</ele><time>2026-08-20T19:39:06Z</time></trkpt><trkpt lat="59.1029008571" lon="30.4833587632"><ele>302.95</ele><time>2026-08-20T19:39:07Z</time></trkpt><trkpt lat="59.1029008571" lon="30.4833587632"><ele>302.95</ele><time>2026-08-20T19:39:08Z</time></trkpt><trkpt lat="59.1028972529" lon="30.4833738506"><ele>302.95</ele><time>2026-08-20T19:39:09Z</time></trkpt><trkpt lat="59.1029001866" lon="30.4833848309"><ele>302.95</ele><time>2026-08-20T19:39:10Z</time></trkpt><trkpt lat="59.1029003542" lon="30.4833955597"><ele>302.95</ele><time>2026-08-20T19:39:11Z</time></trkpt><trkpt lat="59.1029019468" lon="30.4834105633"><ele>302.95</ele><time>2026-08-20T19:39:12Z</time></trkpt><trkpt lat="59.1029018629" lon="30.4834240582"><ele>302.95</ele><time>2026-08-20T19:39:13Z</time></trkpt><trkpt lat="59.1029039584" lon="30.4834306799"><ele>302.95</ele><time>2026-08-20T19:39:14Z</time></trkpt><trkpt lat="59.1029055510" lon="30.4834378883"><ele>302.95</ele><time>2026-08-20T19:39:15Z</time></trkpt><trkpt lat="59.1029076464" lon="30.4834399838"><ele>302.95</ele><time>2026-08-20T19:39:16Z</time></trkpt><trkpt lat="59.1029076464" lon="30.4834439233"><ele>302.95</ele><time>2026-08-20T19:39:17Z</time></trkpt><trkpt lat="59.1029086523" lon="30.4834457673"><ele>302.95</ele><time>2026-08-20T19:39:18Z</time></trkpt><trkpt lat="59.1029086523" lon="30.4834457673"><ele>302.95</ele><time>2026-08-20T19:39:19Z</time></trkpt><trkpt lat="59.1029086523" lon="30.4834457673"><ele>302.95</ele><time>2026-08-20T19:39:20Z</time></trkpt><trkpt lat="59.1029086523" lon="30.4834457673"><ele>302.95</ele><time>2026-08-20T19:39:21Z</time></trkpt><trkpt lat="59.1029086523" lon="30.4834457673"><ele>302.95</ele><time>2026-08-20T19:39:22Z</time></trkpt><trkpt lat="59.1029086523" lon="30.4834457673"><ele>302.95</ele><time>2026-08-20T19:39:23Z</time></trkpt><trkpt lat="59.1029086523" lon="30.4834457673"><ele>302.95</ele><time>2026-08-20T19:39:24Z</time></trkpt><trkpt lat="59.1029086523" lon="30.4834457673"><ele>302.95</ele><time>2026-08-20T19:39:25Z</time></trkpt><trkpt lat="59.1029086523" lon="30.4834457673"><ele>302.95</ele><time>2026-08-20T19:39:26Z</time></trkpt><trkpt lat="59.1029086523" lon="30.4834457673"><ele>302.95</ele><time>2026-08-20T19:39:27Z</time></trkpt><trkpt lat="59.1029086523" lon="30.4834457673"><ele>302.95</ele><time>2026-08-20T19:39:28Z</time></trkpt><trkpt lat="59.1029086523" lon="30.4834457673"><ele>302.95</ele><time>2026-08-20T19:39:29Z</time></trkpt><trkpt lat="59.1029086523" lon="30.4834457673"><ele>302.95</ele><time>2026-08-20T19:39:30Z</time></trkpt><trkpt lat="59.1029086523" lon="30.4834457673"><ele>302.95</ele><time>2026-08-20T19:39:31Z</time></trkpt><trkpt lat="59.1029086523" lon="30.4834457673"><ele>302.95</ele><time>2026-08-20T19:39:32Z</time></trkpt><trkpt lat="59.1029086523" lon="30.4834457673"><ele>302.95</ele><time>2026-08-20T19:39:33Z</time></trkpt><trkpt lat="59.1029086523" lon="30.4834457673"><ele>302.95</ele><time>2026-08-20T19:39:34Z</time></trkpt><trkpt lat="59.1029086523" lon="30.4834457673"><ele>302.95</ele><time>2026-08-20T19:39:35Z</time></trkpt><trkpt lat="59.1029086523" lon="30.4834457673"><ele>302.95</ele><time>2026-08-20T19:39:36Z</time></trkpt><trkpt lat="59.1029086523" lon="30.4834457673"><ele>302.95</ele><time>2026-08-20T19:39:37Z</time></trkpt><trkpt lat="59.1029086523" lon="30.4834457673"><ele>302.95</ele><time>2026-08-20T19:39:38Z</time></trkpt><trkpt lat="59.1029086523" lon="30.4834457673"><ele>302.95</ele><time>2026-08-20T19:39:39Z</time></trkpt><trkpt lat="59.1029086523" lon="30.4834457673"><ele>302.95</ele><time>2026-08-20T19:39:40Z</time></trkpt><trkpt lat="59.1029086523" lon="30.4834457673"><ele>302.95</ele><time>2026-08-20T19:39:41Z</time></trkpt><trkpt lat="59.1029086523" lon="30.4834457673"><ele>302.95</ele><time>2026-08-20T19:39:42Z</time></trkpt><trkpt lat="59.1029086523" lon="30.4834457673"><ele>302.95</ele><time>2026-08-20T19:39:43Z</time></trkpt><trkpt lat="59.1029086523" lon="30.4834457673"><ele>302.95</ele><time>2026-08-20T19:39:44Z</time></trkpt><trkpt lat="59.1029086523" lon="30.4834457673"><ele>302.95</ele><time>2026-08-20T19:39:45Z</time></trkpt><trkpt lat="59.1029086523" lon="30.4834457673"><ele>302.95</ele><time>2026-08-20T19:39:46Z</time></trkpt><trkpt lat="59.1029086523" lon="30.4834457673"><ele>302.95</ele><time>2026-08-20T19:39:47Z</time></trkpt><trkpt lat="59.1029086523" lon="30.4834457673"><ele>302.95</ele><time>2026-08-20T19:39:48Z</time></trkpt><trkpt lat="59.1029086523" lon="30.4834457673"><ele>302.95</ele><time>2026-08-20T19:39:49Z</time></trkpt><trkpt lat="59.1029086523" lon="30.4834457673"><ele>302.95</ele><time>2026-08-20T19:39:50Z</time></trkpt><trkpt lat="59.1029086523" lon="30.4834457673"><ele>302.95</ele><time>2026-08-20T19:39:51Z</time></trkpt><trkpt lat="59.1029086523" lon="30.4834457673"><ele>302.95</ele><time>2026-08-20T19:39:52Z</time></trkpt><trkpt lat="59.1029086523" lon="30.4834457673"><ele>302.95</ele><time>2026-08-20T19:39:53Z</time></trkpt><trkpt lat="59.1029086523" lon="30.4834457673"><ele>302.95</ele><time>2026-08-20T19:39:54Z</time></trkpt><trkpt lat="59.1029086523" lon="30.4834457673"><ele>302.95</ele><time>2026-08-20T19:39:55Z</time></trkpt><trkpt lat="59.1029086523" lon="30.4834457673"><ele>302.95</ele><time>2026-08-20T19:39:56Z</time></trkpt><trkpt lat="59.1029086523" lon="30.4834457673"><ele>302.95</ele><time>2026-08-20T19:39:57Z</time></trkpt><trkpt lat="59.1029086523" lon="30.4834457673"><ele>302.95</ele><time>2026-08-20T19:39:58Z</time></trkpt><trkpt lat="59.1029086523" lon="30.4834457673"><ele>302.95</ele><time>2026-08-20T19:39:59Z</time></trkpt><trkpt lat="59.1029086523" lon="30.4834457673"><ele>302.95</ele><time>2026-08-20T19:40:00Z</time></trkpt><trkpt lat="59.1029086523" lon="30.4834457673"><ele>302.95</ele><time>2026-08-20T19:40:01Z</time></trkpt><trkpt lat="59.1029086523" lon="30.4834457673"><ele>302.95</ele><time>2026-08-20T19:40:02Z</time></trkpt><trkpt lat="59.1029086523" lon="30.4834457673"><ele>302.95</ele><time>2026-08-20T19:40:03Z</time></trkpt><trkpt lat="59.1029086523" lon="30.4834457673"><ele>302.95</ele><time>2026-08-20T19:40:04Z</time></trkpt><trkpt lat="59.1029086523" lon="30.4834457673"><ele>302.95</ele><time>2026-08-20T19:40:05Z</time></trkpt><trkpt lat="59.1029086523" lon="30.4834457673"><ele>302.95</ele><time>2026-08-20T19:40:06Z</time></trkpt><trkpt lat="59.1029086523" lon="30.4834457673"><ele>302.95</ele><time>2026-08-20T19:40:07Z</time></trkpt><trkpt lat="59.1029086523" lon="30.4834457673"><ele>302.95</ele><time>2026-08-20T19:40:08Z</time></trkpt><trkpt lat="59.1029086523" lon="30.4834457673"><ele>302.95</ele><time>2026-08-20T19:40:09Z</time></trkpt><trkpt lat="59.1029086523" lon="30.4834457673"><ele>302.95</ele><time>2026-08-20T19:40:10Z</time></trkpt><trkpt lat="59.1029086523" lon="30.4834457673"><ele>302.95</ele><time>2026-08-20T19:40:11Z</time></trkpt><trkpt lat="59.1029086523" lon="30.4834457673"><ele>302.95</ele><time>2026-08-20T19:40:12Z</time></trkpt><trkpt lat="59.1029086523" lon="30.4834457673"><ele>302.95</ele><time>2026-08-20T19:40:13Z</time></trkpt><trkpt lat="59.1029086523" lon="30.4834457673"><ele>302.95</ele><time>2026-08-20T19:40:14Z</time></trkpt><trkpt lat="59.1029086523" lon="30.4834457673"><ele>302.95</ele><time>2026-08-20T19:40:15Z</time></trkpt><trkpt lat="59.1029086523" lon="30.4834457673"><ele>302.95</ele><time>2026-08-20T19:40:16Z</time></trkpt><trkpt lat="59.1029086523" lon="30.4834457673"><ele>302.95</ele><time>2026-08-20T19:40:17Z</time></trkpt><trkpt lat="59.1029086523" lon="30.4834457673"><ele>302.95</ele><time>2026-08-20T19:40:18Z</time></trkpt><trkpt lat="59.1029086523" lon="30.4834457673"><ele>302.95</ele><time>2026-08-20T19:40:19Z</time></trkpt><trkpt lat="59.1029086523" lon="30.4834457673"><ele>302.95</ele><time>2026-08-20T19:40:20Z</time></trkpt><trkpt lat="59.1029321216" lon="30.4834744334"><ele>302.95</ele><time>2026-08-20T19:40:21Z</time></trkpt><trkpt lat="59.1029317863" lon="30.4834866710"><ele>302.95</ele><time>2026-08-20T19:40:22Z</time></trkpt><trkpt lat="59.1029325407" lon="30.4834962264"><ele>302.95</ele><time>2026-08-20T19:40:23Z</time></trkpt><trkpt lat="59.1029327922" lon="30.4835062847"><ele>302.95</ele><time>2026-08-20T19:40:24Z</time></trkpt><trkpt lat="59.1029310320" lon="30.4835177679"><ele>302.95</ele><time>2026-08-20T19:40:25Z</time></trkpt><trkpt lat="59.1029391624" lon="30.4835286643"><ele>302.95</ele><time>2026-08-20T19:40:26Z</time></trkpt><trkpt lat="59.1029397491" lon="30.4835410696"><ele>302.95</ele><time>2026-08-20T19:40:27Z</time></trkpt><trkpt lat="59.1029352229" lon="30.4835563246"><ele>302.95</ele><time>2026-08-20T19:40:28Z</time></trkpt><trkpt lat="59.1029339656" lon="30.4835696518"><ele>302.95</ele><time>2026-08-20T19:40:29Z</time></trkpt><trkpt lat="59.1029319540" lon="30.4835871700"><ele>302.95</ele><time>2026-08-20T19:40:30Z</time></trkpt><trkpt lat="59.1029341333" lon="30.4836032633"><ele>302.95</ele><time>2026-08-20T19:40:31Z</time></trkpt><trkpt lat="59.1029367317" lon="30.4836138245"><ele>302.95</ele><time>2026-08-20T19:40:32Z</time></trkpt><trkpt lat="59.1029347200" lon="30.4836304206"><ele>302.95</ele><time>2026-08-20T19:40:33Z</time></trkpt><trkpt lat="59.1029342171" lon="30.4836449213"><ele>302.95</ele><time>2026-08-20T19:40:34Z</time></trkpt><trkpt lat="59.1029328760" lon="30.4836611822"><ele>302.95</ele><time>2026-08-20T19:40:35Z</time></trkpt><trkpt lat="59.1029322892" lon="30.4836772755"><ele>302.95</ele><time>2026-08-20T19:40:36Z</time></trkpt><trkpt lat="59.1029336303" lon="30.4836990684"><ele>302.95</ele><time>2026-08-20T19:40:37Z</time></trkpt><trkpt lat="59.1029338818" lon="30.4837167542"><ele>302.95</ele><time>2026-08-20T19:40:38Z</time></trkpt><trkpt lat="59.1029331274" lon="30.4837342724"><ele>302.95</ele><time>2026-08-20T19:40:39Z</time></trkpt><trkpt lat="59.1029240750" lon="30.4837564845"><ele>302.95</ele><time>2026-08-20T19:40:40Z</time></trkpt><trkpt lat="59.1029256675" lon="30.4837714881"><ele>302.95</ele><time>2026-08-20T19:40:41Z</time></trkpt><trkpt lat="59.1029319540" lon="30.4837950412"><ele>302.95</ele><time>2026-08-20T19:40:42Z</time></trkpt><trkpt lat="59.1029368993" lon="30.4838175885"><ele>302.95</ele><time>2026-08-20T19:40:43Z</time></trkpt><trkpt lat="59.1029406711" lon="30.4838368669"><ele>302.95</ele><time>2026-08-20T19:40:44Z</time></trkpt><trkpt lat="59.1029421799" lon="30.4838557262"><ele>303.43</ele><time>2026-08-20T19:40:45Z</time></trkpt><trkpt lat="59.1029443592" lon="30.4838689696"><ele>303.43</ele><time>2026-08-20T19:40:46Z</time></trkpt><trkpt lat="59.1029454488" lon="30.4838837218"><ele>303.43</ele><time>2026-08-20T19:40:47Z</time></trkpt><trkpt lat="59.1029466223" lon="30.4839029163"><ele>303.43</ele><time>2026-08-20T19:40:48Z</time></trkpt><trkpt lat="59.1029470414" lon="30.4839280620"><ele>303.43</ele><time>2026-08-20T19:40:49Z</time></trkpt><trkpt lat="59.1029481310" lon="30.4839458317"><ele>303.43</ele><time>2026-08-20T19:40:50Z</time></trkpt><trkpt lat="59.1029476281" lon="30.4839631822"><ele>303.43</ele><time>2026-08-20T19:40:51Z</time></trkpt><trkpt lat="59.1029497236" lon="30.4839793593"><ele>303.43</ele><time>2026-08-20T19:40:52Z</time></trkpt><trkpt lat="59.1029493883" lon="30.4839972965"><ele>303.43</ele><time>2026-08-20T19:40:53Z</time></trkpt><trkpt lat="59.1029552557" lon="30.4840124678"><ele>303.43</ele><time>2026-08-20T19:40:54Z</time></trkpt><trkpt lat="59.1029608715" lon="30.4840231966"><ele>302.95</ele><time>2026-08-20T19:40:55Z</time></trkpt><trkpt lat="59.1029557586" lon="30.4840583168"><ele>302.95</ele><time>2026-08-20T19:40:56Z</time></trkpt><trkpt lat="59.1029492207" lon="30.4840830434"><ele>302.95</ele><time>2026-08-20T19:40:57Z</time></trkpt><trkpt lat="59.1029490530" lon="30.4841032438"><ele>302.95</ele><time>2026-08-20T19:40:58Z</time></trkpt><trkpt lat="59.1029476281" lon="30.4841214325"><ele>302.95</ele><time>2026-08-20T19:40:59Z</time></trkpt><trkpt lat="59.1029466223" lon="30.4841433931"><ele>302.95</ele><time>2026-08-20T19:41:00Z</time></trkpt><trkpt lat="59.1029546689" lon="30.4841649346"><ele>302.95</ele><time>2026-08-20T19:41:01Z</time></trkpt><trkpt lat="59.1029590275" lon="30.4841814470"><ele>302.95</ele><time>2026-08-20T19:41:02Z</time></trkpt><trkpt lat="59.1029608715" lon="30.4841945227"><ele>302.95</ele><time>2026-08-20T19:41:03Z</time></trkpt><trkpt lat="59.1029584408" lon="30.4842103645"><ele>302.95</ele><time>2026-08-20T19:41:04Z</time></trkpt><trkpt lat="59.1029567644" lon="30.4842249490"><ele>302.95</ele><time>2026-08-20T19:41:05Z</time></trkpt><trkpt lat="59.1029605363" lon="30.4842377733"><ele>303.43</ele><time>2026-08-20T19:41:06Z</time></trkpt><trkpt lat="59.1029630508" lon="30.4842537828"><ele>303.43</ele><time>2026-08-20T19:41:07Z</time></trkpt><trkpt lat="59.1029623803" lon="30.4842675291"><ele>303.43</ele><time>2026-08-20T19:41:08Z</time></trkpt><trkpt lat="59.1029629670" lon="30.4842826165"><ele>303.43</ele><time>2026-08-20T19:41:09Z</time></trkpt><trkpt lat="59.1029601172" lon="30.4842998832"><ele>303.43</ele><time>2026-08-20T19:41:10Z</time></trkpt><trkpt lat="59.1029607877" lon="30.4843154736"><ele>303.43</ele><time>2026-08-20T19:41:11Z</time></trkpt><trkpt lat="59.1029604524" lon="30.4843276273"><ele>303.43</ele><time>2026-08-20T19:41:12Z</time></trkpt><trkpt lat="59.1029565968" lon="30.4843412898"><ele>302.95</ele><time>2026-08-20T19:41:13Z</time></trkpt><trkpt lat="59.1029543336" lon="30.4843597300"><ele>302.95</ele><time>2026-08-20T19:41:14Z</time></trkpt><trkpt lat="59.1029549204" lon="30.4843758233"><ele>302.95</ele><time>2026-08-20T19:41:15Z</time></trkpt><trkpt lat="59.1029574350" lon="30.4843851272"><ele>302.95</ele><time>2026-08-20T19:41:16Z</time></trkpt><trkpt lat="59.1029566806" lon="30.4843857978"><ele>302.95</ele><time>2026-08-20T19:41:17Z</time></trkpt><trkpt lat="59.1029514838" lon="30.4843917489"><ele>302.95</ele><time>2026-08-20T19:41:18Z</time></trkpt><trkpt lat="59.1029463708" lon="30.4843973648"><ele>302.95</ele><time>2026-08-20T19:41:19Z</time></trkpt><trkpt lat="59.1029443592" lon="30.4844092671"><ele>302.95</ele><time>2026-08-20T19:41:20Z</time></trkpt><trkpt lat="59.1029466223" lon="30.4844160564"><ele>302.95</ele><time>2026-08-20T19:41:21Z</time></trkpt><trkpt lat="59.1029471252" lon="30.4844261985"><ele>302.95</ele><time>2026-08-20T19:41:22Z</time></trkpt><trkpt lat="59.1029464547" lon="30.4844364244"><ele>302.95</ele><time>2026-08-20T19:41:23Z</time></trkpt><trkpt lat="59.1029464547" lon="30.4844364244"><ele>302.95</ele><time>2026-08-20T19:41:24Z</time></trkpt><trkpt lat="59.1029434372" lon="30.4844656773"><ele>302.95</ele><time>2026-08-20T19:41:25Z</time></trkpt><trkpt lat="59.1029427666" lon="30.4844699521"><ele>302.95</ele><time>2026-08-20T19:41:26Z</time></trkpt><trkpt lat="59.1029415932" lon="30.4844731372"><ele>302.95</ele><time>2026-08-20T19:41:27Z</time></trkpt><trkpt lat="59.1029399168" lon="30.4844762385"><ele>302.95</ele><time>2026-08-20T19:41:28Z</time></trkpt><trkpt lat="59.1029399168" lon="30.4844762385"><ele>302.95</ele><time>2026-08-20T19:41:29Z</time></trkpt><trkpt lat="59.1029399168" lon="30.4844762385"><ele>302.95</ele><time>2026-08-20T19:41:30Z</time></trkpt><trkpt lat="59.1029399168" lon="30.4844762385"><ele>302.95</ele><time>2026-08-20T19:41:31Z</time></trkpt><trkpt lat="59.1029399168" lon="30.4844762385"><ele>302.95</ele><time>2026-08-20T19:41:32Z</time></trkpt><trkpt lat="59.1029399168" lon="30.4844762385"><ele>302.95</ele><time>2026-08-20T19:41:33Z</time></trkpt><trkpt lat="59.1029399168" lon="30.4844762385"><ele>302.95</ele><time>2026-08-20T19:41:34Z</time></trkpt><trkpt lat="59.1029399168" lon="30.4844762385"><ele>302.95</ele><time>2026-08-20T19:41:35Z</time></trkpt><trkpt lat="59.1029399168" lon="30.4844762385"><ele>302.95</ele><time>2026-08-20T19:41:36Z</time></trkpt><trkpt lat="59.1029399168" lon="30.4844762385"><ele>302.95</ele><time>2026-08-20T19:41:37Z</time></trkpt><trkpt lat="59.1029399168" lon="30.4844762385"><ele>302.95</ele><time>2026-08-20T19:41:38Z</time></trkpt><trkpt lat="59.1029399168" lon="30.4844762385"><ele>302.95</ele><time>2026-08-20T19:41:39Z</time></trkpt><trkpt lat="59.1029399168" lon="30.4844762385"><ele>302.95</ele><time>2026-08-20T19:41:40Z</time></trkpt><trkpt lat="59.1029399168" lon="30.4844762385"><ele>302.95</ele><time>2026-08-20T19:41:41Z</time></trkpt><trkpt lat="59.1029399168" lon="30.4844762385"><ele>302.95</ele><time>2026-08-20T19:41:42Z</time></trkpt><trkpt lat="59.1029399168" lon="30.4844762385"><ele>302.95</ele><time>2026-08-20T19:41:43Z</time></trkpt><trkpt lat="59.1029399168" lon="30.4844762385"><ele>302.95</ele><time>2026-08-20T19:41:44Z</time></trkpt><trkpt lat="59.1029399168" lon="30.4844762385"><ele>302.95</ele><time>2026-08-20T19:41:45Z</time></trkpt><trkpt lat="59.1029399168" lon="30.4844762385"><ele>302.95</ele><time>2026-08-20T19:41:46Z</time></trkpt><trkpt lat="59.1029399168" lon="30.4844762385"><ele>302.95</ele><time>2026-08-20T19:41:47Z</time></trkpt><trkpt lat="59.1029399168" lon="30.4844762385"><ele>302.95</ele><time>2026-08-20T19:41:48Z</time></trkpt><trkpt lat="59.1029399168" lon="30.4844762385"><ele>302.95</ele><time>2026-08-20T19:41:49Z</time></trkpt><trkpt lat="59.1029399168" lon="30.4844762385"><ele>302.95</ele><time>2026-08-20T19:41:50Z</time></trkpt><trkpt lat="59.1029399168" lon="30.4844762385"><ele>302.95</ele><time>2026-08-20T19:41:51Z</time></trkpt><trkpt lat="59.1029399168" lon="30.4844762385"><ele>302.95</ele><time>2026-08-20T19:41:52Z</time></trkpt><trkpt lat="59.1029399168" lon="30.4844762385"><ele>302.95</ele><time>2026-08-20T19:41:53Z</time></trkpt><trkpt lat="59.1029399168" lon="30.4844762385"><ele>302.95</ele><time>2026-08-20T19:41:54Z</time></trkpt><trkpt lat="59.1029399168" lon="30.4844762385"><ele>302.95</ele><time>2026-08-20T19:41:55Z</time></trkpt><trkpt lat="59.1029399168" lon="30.4844762385"><ele>302.95</ele><time>2026-08-20T19:41:56Z</time></trkpt><trkpt lat="59.1029399168" lon="30.4844762385"><ele>302.95</ele><time>2026-08-20T19:41:57Z</time></trkpt><trkpt lat="59.1029399168" lon="30.4844762385"><ele>302.95</ele><time>2026-08-20T19:41:58Z</time></trkpt><trkpt lat="59.1029399168" lon="30.4844762385"><ele>302.95</ele><time>2026-08-20T19:41:59Z</time></trkpt><trkpt lat="59.1029324569" lon="30.4845375940"><ele>302.95</ele><time>2026-08-20T19:42:00Z</time></trkpt><trkpt lat="59.1029337980" lon="30.4845487420"><ele>302.95</ele><time>2026-08-20T19:42:01Z</time></trkpt><trkpt lat="59.1029352229" lon="30.4845610633"><ele>302.95</ele><time>2026-08-20T19:42:02Z</time></trkpt><trkpt lat="59.1029372346" lon="30.4845744744"><ele>302.95</ele><time>2026-08-20T19:42:03Z</time></trkpt><trkpt lat="59.1029366478" lon="30.4845896456"><ele>302.95</ele><time>2026-08-20T19:42:04Z</time></trkpt><trkpt lat="59.1029427666" lon="30.4846008774"><ele>302.95</ele><time>2026-08-20T19:42:05Z</time></trkpt><trkpt lat="59.1029434372" lon="30.4846122768"><ele>302.95</ele><time>2026-08-20T19:42:06Z</time></trkpt><trkpt lat="59.1029457841" lon="30.4846251849"><ele>302.95</ele><time>2026-08-20T19:42:07Z</time></trkpt><trkpt lat="59.1029478796" lon="30.4846339859"><ele>302.95</ele><time>2026-08-20T19:42:08Z</time></trkpt><trkpt lat="59.1029494721" lon="30.4846440442"><ele>302.95</ele><time>2026-08-20T19:42:09Z</time></trkpt><trkpt lat="59.1029505618" lon="30.4846680164"><ele>302.95</ele><time>2026-08-20T19:42:10Z</time></trkpt><trkpt lat="59.1029515676" lon="30.4846799187"><ele>302.95</ele><time>2026-08-20T19:42:11Z</time></trkpt><trkpt lat="59.1029530764" lon="30.4846874624"><ele>302.95</ele><time>2026-08-20T19:42:12Z</time></trkpt><trkpt lat="59.1029557586" lon="30.4846895579"><ele>302.95</ele><time>2026-08-20T19:42:13Z</time></trkpt><trkpt lat="59.1029553395" lon="30.4846962634"><ele>302.95</ele><time>2026-08-20T19:42:14Z</time></trkpt><trkpt lat="59.1029580217" lon="30.4847064894"><ele>302.95</ele><time>2026-08-20T19:42:15Z</time></trkpt><trkpt lat="59.1029562615" lon="30.4847039748"><ele>302.95</ele><time>2026-08-20T19:42:16Z</time></trkpt><trkpt lat="59.1029574350" lon="30.4847113509"><ele>302.95</ele><time>2026-08-20T19:42:17Z</time></trkpt><trkpt lat="59.1029571835" lon="30.4847171344"><ele>302.95</ele><time>2026-08-20T19:42:18Z</time></trkpt><trkpt lat="59.1029574350" lon="30.4847223312"><ele>302.95</ele><time>2026-08-20T19:42:19Z</time></trkpt><trkpt lat="59.1029574350" lon="30.4847223312"><ele>302.95</ele><time>2026-08-20T19:42:20Z</time></trkpt><trkpt lat="59.1029574350" lon="30.4847223312"><ele>302.95</ele><time>2026-08-20T19:42:21Z</time></trkpt><trkpt lat="59.1029574350" lon="30.4847223312"><ele>302.95</ele><time>2026-08-20T19:42:22Z</time></trkpt><trkpt lat="59.1029574350" lon="30.4847223312"><ele>302.95</ele><time>2026-08-20T19:42:23Z</time></trkpt><trkpt lat="59.1029574350" lon="30.4847223312"><ele>302.95</ele><time>2026-08-20T19:42:24Z</time></trkpt><trkpt lat="59.1029574350" lon="30.4847223312"><ele>302.95</ele><time>2026-08-20T19:42:25Z</time></trkpt><trkpt lat="59.1029574350" lon="30.4847223312"><ele>302.95</ele><time>2026-08-20T19:42:26Z</time></trkpt><trkpt lat="59.1029574350" lon="30.4847223312"><ele>302.95</ele><time>2026-08-20T19:42:27Z</time></trkpt><trkpt lat="59.1029574350" lon="30.4847223312"><ele>302.95</ele><time>2026-08-20T19:42:28Z</time></trkpt><trkpt lat="59.1029574350" lon="30.4847223312"><ele>302.95</ele><time>2026-08-20T19:42:29Z</time></trkpt><trkpt lat="59.1029574350" lon="30.4847223312"><ele>302.95</ele><time>2026-08-20T19:42:30Z</time></trkpt><trkpt lat="59.1029574350" lon="30.4847223312"><ele>302.95</ele><time>2026-08-20T19:42:31Z</time></trkpt><trkpt lat="59.1029522382" lon="30.4848119337"><ele>302.95</ele><time>2026-08-20T19:42:32Z</time></trkpt><trkpt lat="59.1029517353" lon="30.4848157894"><ele>302.95</ele><time>2026-08-20T19:42:33Z</time></trkpt><trkpt lat="59.1029504780" lon="30.4848193936"><ele>302.95</ele><time>2026-08-20T19:42:34Z</time></trkpt><trkpt lat="59.1029560938" lon="30.4848280270"><ele>302.95</ele><time>2026-08-20T19:42:35Z</time></trkpt><trkpt lat="59.1029581893" lon="30.4848345648"><ele>302.95</ele><time>2026-08-20T19:42:36Z</time></trkpt><trkpt lat="59.1029583570" lon="30.4848413542"><ele>302.95</ele><time>2026-08-20T19:42:37Z</time></trkpt><trkpt lat="59.1029587761" lon="30.4848467186"><ele>302.95</ele><time>2026-08-20T19:42:38Z</time></trkpt><trkpt lat="59.1029595304" lon="30.4848459642"><ele>302.95</ele><time>2026-08-20T19:42:39Z</time></trkpt><trkpt lat="59.1029601172" lon="30.4848431982"><ele>302.95</ele><time>2026-08-20T19:42:40Z</time></trkpt><trkpt lat="59.1029601172" lon="30.4848431982"><ele>302.95</ele><time>2026-08-20T19:42:41Z</time></trkpt><trkpt lat="59.1029601172" lon="30.4848431982"><ele>302.95</ele><time>2026-08-20T19:42:42Z</time></trkpt><trkpt lat="59.1029601172" lon="30.4848431982"><ele>303.43</ele><time>2026-08-20T19:42:43Z</time></trkpt><trkpt lat="59.1029601172" lon="30.4848431982"><ele>303.43</ele><time>2026-08-20T19:42:44Z</time></trkpt><trkpt lat="59.1029601172" lon="30.4848431982"><ele>303.43</ele><time>2026-08-20T19:42:45Z</time></trkpt><trkpt lat="59.1029601172" lon="30.4848431982"><ele>303.43</ele><time>2026-08-20T19:42:46Z</time></trkpt><trkpt lat="59.1029601172" lon="30.4848431982"><ele>303.43</ele><time>2026-08-20T19:42:47Z</time></trkpt><trkpt lat="59.1029601172" lon="30.4848431982"><ele>303.43</ele><time>2026-08-20T19:42:48Z</time></trkpt><trkpt lat="59.1029601172" lon="30.4848431982"><ele>303.43</ele><time>2026-08-20T19:42:49Z</time></trkpt><trkpt lat="59.1029601172" lon="30.4848431982"><ele>303.43</ele><time>2026-08-20T19:42:50Z</time></trkpt><trkpt lat="59.1029601172" lon="30.4848431982"><ele>303.43</ele><time>2026-08-20T19:42:51Z</time></trkpt><trkpt lat="59.1029601172" lon="30.4848431982"><ele>302.95</ele><time>2026-08-20T19:42:52Z</time></trkpt><trkpt lat="59.1029601172" lon="30.4848431982"><ele>302.95</ele><time>2026-08-20T19:42:53Z</time></trkpt><trkpt lat="59.1029601172" lon="30.4848431982"><ele>302.95</ele><time>2026-08-20T19:42:54Z</time></trkpt><trkpt lat="59.1029601172" lon="30.4848431982"><ele>302.95</ele><time>2026-08-20T19:42:55Z</time></trkpt><trkpt lat="59.1029601172" lon="30.4848431982"><ele>302.95</ele><time>2026-08-20T19:42:56Z</time></trkpt><trkpt lat="59.1029601172" lon="30.4848431982"><ele>302.95</ele><time>2026-08-20T19:42:57Z</time></trkpt><trkpt lat="59.1029601172" lon="30.4848431982"><ele>302.95</ele><time>2026-08-20T19:42:58Z</time></trkpt><trkpt lat="59.1029601172" lon="30.4848431982"><ele>302.95</ele><time>2026-08-20T19:42:59Z</time></trkpt><trkpt lat="59.1029601172" lon="30.4848431982"><ele>302.95</ele><time>2026-08-20T19:43:00Z</time></trkpt><trkpt lat="59.1029601172" lon="30.4848431982"><ele>302.95</ele><time>2026-08-20T19:43:01Z</time></trkpt><trkpt lat="59.1029601172" lon="30.4848431982"><ele>302.95</ele><time>2026-08-20T19:43:02Z</time></trkpt><trkpt lat="59.1029601172" lon="30.4848431982"><ele>302.95</ele><time>2026-08-20T19:43:03Z</time></trkpt><trkpt lat="59.1029601172" lon="30.4848431982"><ele>302.95</ele><time>2026-08-20T19:43:04Z</time></trkpt><trkpt lat="59.1029601172" lon="30.4848431982"><ele>302.95</ele><time>2026-08-20T19:43:05Z</time></trkpt><trkpt lat="59.1029601172" lon="30.4848431982"><ele>302.95</ele><time>2026-08-20T19:43:06Z</time></trkpt><trkpt lat="59.1029601172" lon="30.4848431982"><ele>302.95</ele><time>2026-08-20T19:43:07Z</time></trkpt><trkpt lat="59.1029601172" lon="30.4848431982"><ele>302.95</ele><time>2026-08-20T19:43:08Z</time></trkpt><trkpt lat="59.1029601172" lon="30.4848431982"><ele>302.95</ele><time>2026-08-20T19:43:09Z</time></trkpt><trkpt lat="59.1029601172" lon="30.4848431982"><ele>302.95</ele><time>2026-08-20T19:43:10Z</time></trkpt><trkpt lat="59.1029601172" lon="30.4848431982"><ele>302.95</ele><time>2026-08-20T19:43:11Z</time></trkpt><trkpt lat="59.1029601172" lon="30.4848431982"><ele>302.95</ele><time>2026-08-20T19:43:12Z</time></trkpt><trkpt lat="59.1029601172" lon="30.4848431982"><ele>302.95</ele><time>2026-08-20T19:43:13Z</time></trkpt><trkpt lat="59.1029601172" lon="30.4848431982"><ele>302.95</ele><time>2026-08-20T19:43:14Z</time></trkpt><trkpt lat="59.1029601172" lon="30.4848431982"><ele>302.95</ele><time>2026-08-20T19:43:15Z</time></trkpt><trkpt lat="59.1029601172" lon="30.4848431982"><ele>302.95</ele><time>2026-08-20T19:43:16Z</time></trkpt><trkpt lat="59.1029601172" lon="30.4848431982"><ele>302.95</ele><time>2026-08-20T19:43:17Z</time></trkpt><trkpt lat="59.1029601172" lon="30.4848431982"><ele>302.95</ele><time>2026-08-20T19:43:18Z</time></trkpt><trkpt lat="59.1029601172" lon="30.4848431982"><ele>302.95</ele><time>2026-08-20T19:43:19Z</time></trkpt><trkpt lat="59.1029601172" lon="30.4848431982"><ele>302.95</ele><time>2026-08-20T19:43:20Z</time></trkpt><trkpt lat="59.1029601172" lon="30.4848431982"><ele>302.95</ele><time>2026-08-20T19:43:21Z</time></trkpt><trkpt lat="59.1029601172" lon="30.4848431982"><ele>302.95</ele><time>2026-08-20T19:43:22Z</time></trkpt><trkpt lat="59.1029601172" lon="30.4848431982"><ele>302.95</ele><time>2026-08-20T19:43:23Z</time></trkpt><trkpt lat="59.1029601172" lon="30.4848431982"><ele>302.95</ele><time>2026-08-20T19:43:24Z</time></trkpt><trkpt lat="59.1029601172" lon="30.4848431982"><ele>302.95</ele><time>2026-08-20T19:43:25Z</time></trkpt><trkpt lat="59.1029601172" lon="30.4848431982"><ele>302.95</ele><time>2026-08-20T19:43:26Z</time></trkpt><trkpt lat="59.1029601172" lon="30.4848431982"><ele>302.95</ele><time>2026-08-20T19:43:27Z</time></trkpt><trkpt lat="59.1029601172" lon="30.4848431982"><ele>302.95</ele><time>2026-08-20T19:43:28Z</time></trkpt><trkpt lat="59.1029601172" lon="30.4848431982"><ele>302.95</ele><time>2026-08-20T19:43:29Z</time></trkpt><trkpt lat="59.1029601172" lon="30.4848431982"><ele>302.95</ele><time>2026-08-20T19:43:30Z</time></trkpt><trkpt lat="59.1029601172" lon="30.4848431982"><ele>302.95</ele><time>2026-08-20T19:43:31Z</time></trkpt><trkpt lat="59.1029601172" lon="30.4848431982"><ele>302.95</ele><time>2026-08-20T19:43:32Z</time></trkpt><trkpt lat="59.1029601172" lon="30.4848431982"><ele>302.95</ele><time>2026-08-20T19:43:33Z</time></trkpt><trkpt lat="59.1029601172" lon="30.4848431982"><ele>302.95</ele><time>2026-08-20T19:43:34Z</time></trkpt><trkpt lat="59.1029601172" lon="30.4848431982"><ele>302.95</ele><time>2026-08-20T19:43:35Z</time></trkpt><trkpt lat="59.1029601172" lon="30.4848431982"><ele>302.95</ele><time>2026-08-20T19:43:36Z</time></trkpt><trkpt lat="59.1029601172" lon="30.4848431982"><ele>302.95</ele><time>2026-08-20T19:43:37Z</time></trkpt><trkpt lat="59.1029601172" lon="30.4848431982"><ele>302.95</ele><time>2026-08-20T19:43:38Z</time></trkpt><trkpt lat="59.1029601172" lon="30.4848431982"><ele>302.95</ele><time>2026-08-20T19:43:39Z</time></trkpt><trkpt lat="59.1029601172" lon="30.4848431982"><ele>303.43</ele><time>2026-08-20T19:43:40Z</time></trkpt><trkpt lat="59.1029601172" lon="30.4848431982"><ele>303.43</ele><time>2026-08-20T19:43:41Z</time></trkpt><trkpt lat="59.1029601172" lon="30.4848431982"><ele>303.43</ele><time>2026-08-20T19:43:42Z</time></trkpt><trkpt lat="59.1029601172" lon="30.4848431982"><ele>303.43</ele><time>2026-08-20T19:43:43Z</time></trkpt><trkpt lat="59.1029601172" lon="30.4848431982"><ele>303.43</ele><time>2026-08-20T19:43:44Z</time></trkpt><trkpt lat="59.1029601172" lon="30.4848431982"><ele>303.43</ele><time>2026-08-20T19:43:45Z</time></trkpt><trkpt lat="59.1029601172" lon="30.4848431982"><ele>303.43</ele><time>2026-08-20T19:43:46Z</time></trkpt><trkpt lat="59.1029601172" lon="30.4848431982"><ele>303.43</ele><time>2026-08-20T19:43:47Z</time></trkpt><trkpt lat="59.1029601172" lon="30.4848431982"><ele>303.43</ele><time>2026-08-20T19:43:48Z</time></trkpt><trkpt lat="59.1029601172" lon="30.4848431982"><ele>303.43</ele><time>2026-08-20T19:43:49Z</time></trkpt><trkpt lat="59.1029601172" lon="30.4848431982"><ele>303.43</ele><time>2026-08-20T19:43:50Z</time></trkpt><trkpt lat="59.1029601172" lon="30.4848431982"><ele>303.43</ele><time>2026-08-20T19:43:51Z</time></trkpt><trkpt lat="59.1029601172" lon="30.4848431982"><ele>303.43</ele><time>2026-08-20T19:43:52Z</time></trkpt><trkpt lat="59.1029601172" lon="30.4848431982"><ele>303.43</ele><time>2026-08-20T19:43:53Z</time></trkpt><trkpt lat="59.1029601172" lon="30.4848431982"><ele>303.43</ele><time>2026-08-20T19:43:54Z</time></trkpt><trkpt lat="59.1029601172" lon="30.4848431982"><ele>303.43</ele><time>2026-08-20T19:43:55Z</time></trkpt><trkpt lat="59.1029601172" lon="30.4848431982"><ele>303.43</ele><time>2026-08-20T19:43:56Z</time></trkpt><trkpt lat="59.1029601172" lon="30.4848431982"><ele>303.43</ele><time>2026-08-20T19:43:57Z</time></trkpt><trkpt lat="59.1029601172" lon="30.4848431982"><ele>303.43</ele><time>2026-08-20T19:43:58Z</time></trkpt><trkpt lat="59.1029601172" lon="30.4848431982"><ele>303.43</ele><time>2026-08-20T19:43:59Z</time></trkpt><trkpt lat="59.1029601172" lon="30.4848431982"><ele>303.43</ele><time>2026-08-20T19:44:00Z</time></trkpt><trkpt lat="59.1029601172" lon="30.4848431982"><ele>303.43</ele><time>2026-08-20T19:44:01Z</time></trkpt><trkpt lat="59.1029601172" lon="30.4848431982"><ele>303.43</ele><time>2026-08-20T19:44:02Z</time></trkpt><trkpt lat="59.1029601172" lon="30.4848431982"><ele>303.43</ele><time>2026-08-20T19:44:03Z</time></trkpt><trkpt lat="59.1029601172" lon="30.4848431982"><ele>303.43</ele><time>2026-08-20T19:44:04Z</time></trkpt><trkpt lat="59.1029601172" lon="30.4848431982"><ele>303.43</ele><time>2026-08-20T19:44:05Z</time></trkpt><trkpt lat="59.1029601172" lon="30.4848431982"><ele>303.43</ele><time>2026-08-20T19:44:06Z</time></trkpt><trkpt lat="59.1029601172" lon="30.4848431982"><ele>303.43</ele><time>2026-08-20T19:44:07Z</time></trkpt><trkpt lat="59.1029601172" lon="30.4848431982"><ele>303.43</ele><time>2026-08-20T19:44:08Z</time></trkpt><trkpt lat="59.1029601172" lon="30.4848431982"><ele>303.43</ele><time>2026-08-20T19:44:09Z</time></trkpt><trkpt lat="59.1029601172" lon="30.4848431982"><ele>303.43</ele><time>2026-08-20T19:44:10Z</time></trkpt><trkpt lat="59.1029601172" lon="30.4848431982"><ele>303.43</ele><time>2026-08-20T19:44:11Z</time></trkpt><trkpt lat="59.1029601172" lon="30.4848431982"><ele>303.43</ele><time>2026-08-20T19:44:12Z</time></trkpt><trkpt lat="59.1029601172" lon="30.4848431982"><ele>303.43</ele><time>2026-08-20T19:44:13Z</time></trkpt><trkpt lat="59.1029601172" lon="30.4848431982"><ele>303.43</ele><time>2026-08-20T19:44:14Z</time></trkpt><trkpt lat="59.1029601172" lon="30.4848431982"><ele>303.43</ele><time>2026-08-20T19:44:15Z</time></trkpt><trkpt lat="59.1029601172" lon="30.4848431982"><ele>303.43</ele><time>2026-08-20T19:44:16Z</time></trkpt><trkpt lat="59.1029601172" lon="30.4848431982"><ele>303.43</ele><time>2026-08-20T19:44:17Z</time></trkpt><trkpt lat="59.1029601172" lon="30.4848431982"><ele>303.43</ele><time>2026-08-20T19:44:18Z</time></trkpt><trkpt lat="59.1029601172" lon="30.4848431982"><ele>303.43</ele><time>2026-08-20T19:44:19Z</time></trkpt><trkpt lat="59.1029601172" lon="30.4848431982"><ele>303.43</ele><time>2026-08-20T19:44:20Z</time></trkpt><trkpt lat="59.1029601172" lon="30.4848431982"><ele>303.43</ele><time>2026-08-20T19:44:21Z</time></trkpt><trkpt lat="59.1029601172" lon="30.4848431982"><ele>303.43</ele><time>2026-08-20T19:44:22Z</time></trkpt><trkpt lat="59.1029601172" lon="30.4848431982"><ele>303.43</ele><time>2026-08-20T19:44:23Z</time></trkpt><trkpt lat="59.1029601172" lon="30.4848431982"><ele>303.43</ele><time>2026-08-20T19:44:24Z</time></trkpt><trkpt lat="59.1029601172" lon="30.4848431982"><ele>303.43</ele><time>2026-08-20T19:44:25Z</time></trkpt><trkpt lat="59.1029601172" lon="30.4848431982"><ele>303.43</ele><time>2026-08-20T19:44:26Z</time></trkpt><trkpt lat="59.1029601172" lon="30.4848431982"><ele>303.43</ele><time>2026-08-20T19:44:27Z</time></trkpt><trkpt lat="59.1029601172" lon="30.4848431982"><ele>303.43</ele><time>2026-08-20T19:44:28Z</time></trkpt><trkpt lat="59.1029601172" lon="30.4848431982"><ele>303.43</ele><time>2026-08-20T19:44:29Z</time></trkpt><trkpt lat="59.1029601172" lon="30.4848431982"><ele>303.43</ele><time>2026-08-20T19:44:30Z</time></trkpt><trkpt lat="59.1029601172" lon="30.4848431982"><ele>303.43</ele><time>2026-08-20T19:44:31Z</time></trkpt><trkpt lat="59.1029601172" lon="30.4848431982"><ele>303.43</ele><time>2026-08-20T19:44:32Z</time></trkpt><trkpt lat="59.1029601172" lon="30.4848431982"><ele>303.43</ele><time>2026-08-20T19:44:33Z</time></trkpt><trkpt lat="59.1029601172" lon="30.4848431982"><ele>303.43</ele><time>2026-08-20T19:44:34Z</time></trkpt><trkpt lat="59.1029601172" lon="30.4848431982"><ele>303.43</ele><time>2026-08-20T19:44:35Z</time></trkpt><trkpt lat="59.1029601172" lon="30.4848431982"><ele>303.43</ele><time>2026-08-20T19:44:36Z</time></trkpt><trkpt lat="59.1029601172" lon="30.4848431982"><ele>303.43</ele><time>2026-08-20T19:44:37Z</time></trkpt><trkpt lat="59.1029601172" lon="30.4848431982"><ele>303.43</ele><time>2026-08-20T19:44:38Z</time></trkpt><trkpt lat="59.1029601172" lon="30.4848431982"><ele>303.43</ele><time>2026-08-20T19:44:39Z</time></trkpt><trkpt lat="59.1029601172" lon="30.4848431982"><ele>303.43</ele><time>2026-08-20T19:44:40Z</time></trkpt><trkpt lat="59.1029601172" lon="30.4848431982"><ele>303.43</ele><time>2026-08-20T19:44:41Z</time></trkpt><trkpt lat="59.1029601172" lon="30.4848431982"><ele>302.95</ele><time>2026-08-20T19:44:42Z</time></trkpt><trkpt lat="59.1029601172" lon="30.4848431982"><ele>302.95</ele><time>2026-08-20T19:44:43Z</time></trkpt><trkpt lat="59.1029601172" lon="30.4848431982"><ele>302.95</ele><time>2026-08-20T19:44:44Z</time></trkpt><trkpt lat="59.1029601172" lon="30.4848431982"><ele>302.95</ele><time>2026-08-20T19:44:45Z</time></trkpt><trkpt lat="59.1029601172" lon="30.4848431982"><ele>302.95</ele><time>2026-08-20T19:44:46Z</time></trkpt><trkpt lat="59.1029601172" lon="30.4848431982"><ele>302.95</ele><time>2026-08-20T19:44:47Z</time></trkpt><trkpt lat="59.1029601172" lon="30.4848431982"><ele>302.95</ele><time>2026-08-20T19:44:48Z</time></trkpt><trkpt lat="59.1029601172" lon="30.4848431982"><ele>302.95</ele><time>2026-08-20T19:44:49Z</time></trkpt><trkpt lat="59.1029601172" lon="30.4848431982"><ele>302.95</ele><time>2026-08-20T19:44:50Z</time></trkpt><trkpt lat="59.1029601172" lon="30.4848431982"><ele>302.95</ele><time>2026-08-20T19:44:51Z</time></trkpt><trkpt lat="59.1029601172" lon="30.4848431982"><ele>302.95</ele><time>2026-08-20T19:44:52Z</time></trkpt><trkpt lat="59.1029601172" lon="30.4848431982"><ele>302.95</ele><time>2026-08-20T19:44:53Z</time></trkpt><trkpt lat="59.1029601172" lon="30.4848431982"><ele>302.95</ele><time>2026-08-20T19:44:54Z</time></trkpt><trkpt lat="59.1029601172" lon="30.4848431982"><ele>302.95</ele><time>2026-08-20T19:44:55Z</time></trkpt><trkpt lat="59.1029601172" lon="30.4848431982"><ele>302.95</ele><time>2026-08-20T19:44:56Z</time></trkpt><trkpt lat="59.1029601172" lon="30.4848431982"><ele>302.95</ele><time>2026-08-20T19:44:57Z</time></trkpt><trkpt lat="59.1029601172" lon="30.4848431982"><ele>302.95</ele><time>2026-08-20T19:44:58Z</time></trkpt><trkpt lat="59.1029601172" lon="30.4848431982"><ele>302.95</ele><time>2026-08-20T19:44:59Z</time></trkpt><trkpt lat="59.1029601172" lon="30.4848431982"><ele>302.95</ele><time>2026-08-20T19:45:00Z</time></trkpt><trkpt lat="59.1029601172" lon="30.4848431982"><ele>302.95</ele><time>2026-08-20T19:45:01Z</time></trkpt><trkpt lat="59.1029601172" lon="30.4848431982"><ele>302.95</ele><time>2026-08-20T19:45:02Z</time></trkpt><trkpt lat="59.1029601172" lon="30.4848431982"><ele>302.95</ele><time>2026-08-20T19:45:03Z</time></trkpt><trkpt lat="59.1029601172" lon="30.4848431982"><ele>302.95</ele><time>2026-08-20T19:45:04Z</time></trkpt><trkpt lat="59.1029601172" lon="30.4848431982"><ele>302.95</ele><time>2026-08-20T19:45:05Z</time></trkpt><trkpt lat="59.1029601172" lon="30.4848431982"><ele>302.95</ele><time>2026-08-20T19:45:06Z</time></trkpt><trkpt lat="59.1029601172" lon="30.4848431982"><ele>302.95</ele><time>2026-08-20T19:45:07Z</time></trkpt><trkpt lat="59.1029601172" lon="30.4848431982"><ele>302.95</ele><time>2026-08-20T19:45:08Z</time></trkpt><trkpt lat="59.1029601172" lon="30.4848431982"><ele>302.95</ele><time>2026-08-20T19:45:09Z</time></trkpt><trkpt lat="59.1029601172" lon="30.4848431982"><ele>302.95</ele><time>2026-08-20T19:45:10Z</time></trkpt><trkpt lat="59.1029601172" lon="30.4848431982"><ele>302.95</ele><time>2026-08-20T19:45:11Z</time></trkpt><trkpt lat="59.1029601172" lon="30.4848431982"><ele>302.95</ele><time>2026-08-20T19:45:12Z</time></trkpt><trkpt lat="59.1029601172" lon="30.4848431982"><ele>302.95</ele><time>2026-08-20T19:45:13Z</time></trkpt><trkpt lat="59.1029601172" lon="30.4848431982"><ele>302.95</ele><time>2026-08-20T19:45:14Z</time></trkpt><trkpt lat="59.1029601172" lon="30.4848431982"><ele>302.95</ele><time>2026-08-20T19:45:15Z</time></trkpt><trkpt lat="59.1029601172" lon="30.4848431982"><ele>302.95</ele><time>2026-08-20T19:45:16Z</time></trkpt><trkpt lat="59.1029601172" lon="30.4848431982"><ele>302.95</ele><time>2026-08-20T19:45:17Z</time></trkpt><trkpt lat="59.1029601172" lon="30.4848431982"><ele>302.95</ele><time>2026-08-20T19:45:18Z</time></trkpt><trkpt lat="59.1029601172" lon="30.4848431982"><ele>302.95</ele><time>2026-08-20T19:45:19Z</time></trkpt><trkpt lat="59.1029601172" lon="30.4848431982"><ele>302.95</ele><time>2026-08-20T19:45:20Z</time></trkpt><trkpt lat="59.1029601172" lon="30.4848431982"><ele>302.95</ele><time>2026-08-20T19:45:21Z</time></trkpt><trkpt lat="59.1030102409" lon="30.4848647397"><ele>302.95</ele><time>2026-08-20T19:45:22Z</time></trkpt><trkpt lat="59.1030139290" lon="30.4848683439"><ele>302.95</ele><time>2026-08-20T19:45:23Z</time></trkpt><trkpt lat="59.1030189581" lon="30.4848655779"><ele>302.95</ele><time>2026-08-20T19:45:24Z</time></trkpt><trkpt lat="59.1030220594" lon="30.4848653264"><ele>302.95</ele><time>2026-08-20T19:45:25Z</time></trkpt><trkpt lat="59.1030260827" lon="30.4848654941"><ele>302.95</ele><time>2026-08-20T19:45:26Z</time></trkpt><trkpt lat="59.1030292679" lon="30.4848667514"><ele>302.95</ele><time>2026-08-20T19:45:27Z</time></trkpt><trkpt lat="59.1030324530" lon="30.4848661646"><ele>302.95</ele><time>2026-08-20T19:45:28Z</time></trkpt><trkpt lat="59.1030353867" lon="30.4848645721"><ele>302.95</ele><time>2026-08-20T19:45:29Z</time></trkpt><trkpt lat="59.1030373983" lon="30.4848626442"><ele>302.95</ele><time>2026-08-20T19:45:30Z</time></trkpt><trkpt lat="59.1030380689" lon="30.4848664999"><ele>302.95</ele><time>2026-08-20T19:45:31Z</time></trkpt><trkpt lat="59.1030387394" lon="30.4848687630"><ele>302.95</ele><time>2026-08-20T19:45:32Z</time></trkpt><trkpt lat="59.1030387394" lon="30.4848687630"><ele>303.43</ele><time>2026-08-20T19:45:33Z</time></trkpt><trkpt lat="59.1030387394" lon="30.4848687630"><ele>303.43</ele><time>2026-08-20T19:45:34Z</time></trkpt><trkpt lat="59.1030387394" lon="30.4848687630"><ele>303.43</ele><time>2026-08-20T19:45:35Z</time></trkpt><trkpt lat="59.1030387394" lon="30.4848687630"><ele>303.43</ele><time>2026-08-20T19:45:36Z</time></trkpt><trkpt lat="59.1030387394" lon="30.4848687630"><ele>303.43</ele><time>2026-08-20T19:45:37Z</time></trkpt><trkpt lat="59.1030387394" lon="30.4848687630"><ele>303.43</ele><time>2026-08-20T19:45:38Z</time></trkpt><trkpt lat="59.1030387394" lon="30.4848687630"><ele>303.43</ele><time>2026-08-20T19:45:39Z</time></trkpt><trkpt lat="59.1030387394" lon="30.4848687630"><ele>302.95</ele><time>2026-08-20T19:45:40Z</time></trkpt><trkpt lat="59.1030387394" lon="30.4848687630"><ele>302.95</ele><time>2026-08-20T19:45:41Z</time></trkpt><trkpt lat="59.1030387394" lon="30.4848687630"><ele>302.95</ele><time>2026-08-20T19:45:42Z</time></trkpt><trkpt lat="59.1030387394" lon="30.4848687630"><ele>302.95</ele><time>2026-08-20T19:45:43Z</time></trkpt><trkpt lat="59.1030387394" lon="30.4848687630"><ele>302.95</ele><time>2026-08-20T19:45:44Z</time></trkpt><trkpt lat="59.1030387394" lon="30.4848687630"><ele>302.95</ele><time>2026-08-20T19:45:45Z</time></trkpt><trkpt lat="59.1030387394" lon="30.4848687630"><ele>302.95</ele><time>2026-08-20T19:45:46Z</time></trkpt><trkpt lat="59.1030387394" lon="30.4848687630"><ele>302.95</ele><time>2026-08-20T19:45:47Z</time></trkpt><trkpt lat="59.1030387394" lon="30.4848687630"><ele>302.95</ele><time>2026-08-20T19:45:48Z</time></trkpt><trkpt lat="59.1030387394" lon="30.4848687630"><ele>303.43</ele><time>2026-08-20T19:45:49Z</time></trkpt><trkpt lat="59.1030387394" lon="30.4848687630"><ele>303.43</ele><time>2026-08-20T19:45:50Z</time></trkpt><trkpt lat="59.1030387394" lon="30.4848687630"><ele>303.43</ele><time>2026-08-20T19:45:51Z</time></trkpt><trkpt lat="59.1030387394" lon="30.4848687630"><ele>303.43</ele><time>2026-08-20T19:45:52Z</time></trkpt><trkpt lat="59.1030387394" lon="30.4848687630"><ele>303.43</ele><time>2026-08-20T19:45:53Z</time></trkpt><trkpt lat="59.1030387394" lon="30.4848687630"><ele>303.43</ele><time>2026-08-20T19:45:54Z</time></trkpt><trkpt lat="59.1030387394" lon="30.4848687630"><ele>303.43</ele><time>2026-08-20T19:45:55Z</time></trkpt><trkpt lat="59.1030387394" lon="30.4848687630"><ele>303.43</ele><time>2026-08-20T19:45:56Z</time></trkpt><trkpt lat="59.1030387394" lon="30.4848687630"><ele>303.43</ele><time>2026-08-20T19:45:57Z</time></trkpt><trkpt lat="59.1030387394" lon="30.4848687630"><ele>303.43</ele><time>2026-08-20T19:45:58Z</time></trkpt><trkpt lat="59.1030387394" lon="30.4848687630"><ele>303.43</ele><time>2026-08-20T19:45:59Z</time></trkpt><trkpt lat="59.1030387394" lon="30.4848687630"><ele>303.43</ele><time>2026-08-20T19:46:00Z</time></trkpt><trkpt lat="59.1030387394" lon="30.4848687630"><ele>303.43</ele><time>2026-08-20T19:46:01Z</time></trkpt><trkpt lat="59.1030387394" lon="30.4848687630"><ele>303.43</ele><time>2026-08-20T19:46:02Z</time></trkpt><trkpt lat="59.1030387394" lon="30.4848687630"><ele>303.43</ele><time>2026-08-20T19:46:03Z</time></trkpt><trkpt lat="59.1030387394" lon="30.4848687630"><ele>303.43</ele><time>2026-08-20T19:46:04Z</time></trkpt><trkpt lat="59.1030387394" lon="30.4848687630"><ele>303.43</ele><time>2026-08-20T19:46:05Z</time></trkpt><trkpt lat="59.1030387394" lon="30.4848687630"><ele>303.43</ele><time>2026-08-20T19:46:06Z</time></trkpt><trkpt lat="59.1030387394" lon="30.4848687630"><ele>303.43</ele><time>2026-08-20T19:46:07Z</time></trkpt><trkpt lat="59.1030387394" lon="30.4848687630"><ele>303.43</ele><time>2026-08-20T19:46:08Z</time></trkpt><trkpt lat="59.1030387394" lon="30.4848687630"><ele>303.43</ele><time>2026-08-20T19:46:09Z</time></trkpt><trkpt lat="59.1030387394" lon="30.4848687630"><ele>303.43</ele><time>2026-08-20T19:46:10Z</time></trkpt><trkpt lat="59.1030387394" lon="30.4848687630"><ele>303.43</ele><time>2026-08-20T19:46:11Z</time></trkpt><trkpt lat="59.1030387394" lon="30.4848687630"><ele>303.43</ele><time>2026-08-20T19:46:12Z</time></trkpt><trkpt lat="59.1030387394" lon="30.4848687630"><ele>303.43</ele><time>2026-08-20T19:46:13Z</time></trkpt><trkpt lat="59.1030387394" lon="30.4848687630"><ele>303.43</ele><time>2026-08-20T19:46:14Z</time></trkpt><trkpt lat="59.1030387394" lon="30.4848687630"><ele>303.43</ele><time>2026-08-20T19:46:15Z</time></trkpt><trkpt lat="59.1030387394" lon="30.4848687630"><ele>303.43</ele><time>2026-08-20T19:46:16Z</time></trkpt><trkpt lat="59.1030387394" lon="30.4848687630"><ele>303.43</ele><time>2026-08-20T19:46:17Z</time></trkpt><trkpt lat="59.1030387394" lon="30.4848687630"><ele>303.43</ele><time>2026-08-20T19:46:18Z</time></trkpt><trkpt lat="59.1030387394" lon="30.4848687630"><ele>303.43</ele><time>2026-08-20T19:46:19Z</time></trkpt><trkpt lat="59.1030387394" lon="30.4848687630"><ele>303.43</ele><time>2026-08-20T19:46:20Z</time></trkpt><trkpt lat="59.1030387394" lon="30.4848687630"><ele>303.43</ele><time>2026-08-20T19:46:21Z</time></trkpt><trkpt lat="59.1030387394" lon="30.4848687630"><ele>303.43</ele><time>2026-08-20T19:46:22Z</time></trkpt><trkpt lat="59.1030387394" lon="30.4848687630"><ele>303.43</ele><time>2026-08-20T19:46:23Z</time></trkpt><trkpt lat="59.1030387394" lon="30.4848687630"><ele>303.43</ele><time>2026-08-20T19:46:24Z</time></trkpt><trkpt lat="59.1030387394" lon="30.4848687630"><ele>303.43</ele><time>2026-08-20T19:46:25Z</time></trkpt><trkpt lat="59.1030387394" lon="30.4848687630"><ele>303.43</ele><time>2026-08-20T19:46:26Z</time></trkpt><trkpt lat="59.1030387394" lon="30.4848687630"><ele>303.43</ele><time>2026-08-20T19:46:27Z</time></trkpt><trkpt lat="59.1030387394" lon="30.4848687630"><ele>303.43</ele><time>2026-08-20T19:46:28Z</time></trkpt><trkpt lat="59.1030387394" lon="30.4848687630"><ele>303.43</ele><time>2026-08-20T19:46:29Z</time></trkpt><trkpt lat="59.1030387394" lon="30.4848687630"><ele>303.43</ele><time>2026-08-20T19:46:30Z</time></trkpt><trkpt lat="59.1030387394" lon="30.4848687630"><ele>303.43</ele><time>2026-08-20T19:46:31Z</time></trkpt><trkpt lat="59.1030387394" lon="30.4848687630"><ele>303.43</ele><time>2026-08-20T19:46:32Z</time></trkpt><trkpt lat="59.1030387394" lon="30.4848687630"><ele>303.43</ele><time>2026-08-20T19:46:33Z</time></trkpt><trkpt lat="59.1030387394" lon="30.4848687630"><ele>303.43</ele><time>2026-08-20T19:46:34Z</time></trkpt><trkpt lat="59.1030387394" lon="30.4848687630"><ele>303.43</ele><time>2026-08-20T19:46:35Z</time></trkpt><trkpt lat="59.1030387394" lon="30.4848687630"><ele>303.43</ele><time>2026-08-20T19:46:36Z</time></trkpt><trkpt lat="59.1030387394" lon="30.4848687630"><ele>303.43</ele><time>2026-08-20T19:46:37Z</time></trkpt><trkpt lat="59.1030387394" lon="30.4848687630"><ele>303.43</ele><time>2026-08-20T19:46:38Z</time></trkpt><trkpt lat="59.1030387394" lon="30.4848687630"><ele>303.43</ele><time>2026-08-20T19:46:39Z</time></trkpt><trkpt lat="59.1030387394" lon="30.4848687630"><ele>303.43</ele><time>2026-08-20T19:46:40Z</time></trkpt><trkpt lat="59.1030387394" lon="30.4848687630"><ele>303.43</ele><time>2026-08-20T19:46:41Z</time></trkpt><trkpt lat="59.1030387394" lon="30.4848687630"><ele>303.43</ele><time>2026-08-20T19:46:42Z</time></trkpt><trkpt lat="59.1030387394" lon="30.4848687630"><ele>303.43</ele><time>2026-08-20T19:46:43Z</time></trkpt><trkpt lat="59.1030387394" lon="30.4848687630"><ele>303.43</ele><time>2026-08-20T19:46:44Z</time></trkpt><trkpt lat="59.1030387394" lon="30.4848687630"><ele>303.43</ele><time>2026-08-20T19:46:45Z</time></trkpt><trkpt lat="59.1030387394" lon="30.4848687630"><ele>303.43</ele><time>2026-08-20T19:46:46Z</time></trkpt><trkpt lat="59.1030387394" lon="30.4848687630"><ele>303.43</ele><time>2026-08-20T19:46:47Z</time></trkpt><trkpt lat="59.1030387394" lon="30.4848687630"><ele>303.43</ele><time>2026-08-20T19:46:48Z</time></trkpt><trkpt lat="59.1030537430" lon="30.4848598782"><ele>303.43</ele><time>2026-08-20T19:46:49Z</time></trkpt><trkpt lat="59.1030532401" lon="30.4848671705"><ele>303.43</ele><time>2026-08-20T19:46:50Z</time></trkpt><trkpt lat="59.1030519828" lon="30.4848737922"><ele>303.43</ele><time>2026-08-20T19:46:51Z</time></trkpt><trkpt lat="59.1030519828" lon="30.4848767258"><ele>303.43</ele><time>2026-08-20T19:46:52Z</time></trkpt><trkpt lat="59.1030519828" lon="30.4848742951"><ele>303.43</ele><time>2026-08-20T19:46:53Z</time></trkpt><trkpt lat="59.1030519828" lon="30.4848742951"><ele>303.43</ele><time>2026-08-20T19:46:54Z</time></trkpt><trkpt lat="59.1030519828" lon="30.4848742951"><ele>303.43</ele><time>2026-08-20T19:46:55Z</time></trkpt><trkpt lat="59.1030519828" lon="30.4848742951"><ele>303.43</ele><time>2026-08-20T19:46:56Z</time></trkpt><trkpt lat="59.1030519828" lon="30.4848742951"><ele>303.43</ele><time>2026-08-20T19:46:57Z</time></trkpt><trkpt lat="59.1030419245" lon="30.4849015363"><ele>303.43</ele><time>2026-08-20T19:46:58Z</time></trkpt><trkpt lat="59.1030373983" lon="30.4849109240"><ele>303.91</ele><time>2026-08-20T19:46:59Z</time></trkpt><trkpt lat="59.1030341294" lon="30.4849199764"><ele>303.91</ele><time>2026-08-20T19:47:00Z</time></trkpt><trkpt lat="59.1030304413" lon="30.4849302862"><ele>303.91</ele><time>2026-08-20T19:47:01Z</time></trkpt><trkpt lat="59.1030292679" lon="30.4849418532"><ele>303.91</ele><time>2026-08-20T19:47:02Z</time></trkpt><trkpt lat="59.1030280944" lon="30.4849549290"><ele>303.91</ele><time>2026-08-20T19:47:03Z</time></trkpt><trkpt lat="59.1030256636" lon="30.4849708546"><ele>303.91</ele><time>2026-08-20T19:47:04Z</time></trkpt><trkpt lat="59.1030243225" lon="30.4849849362"><ele>303.91</ele><time>2026-08-20T19:47:05Z</time></trkpt><trkpt lat="59.1030225623" lon="30.4850007780"><ele>303.43</ele><time>2026-08-20T19:47:06Z</time></trkpt><trkpt lat="59.1030212212" lon="30.4850184638"><ele>303.43</ele><time>2026-08-20T19:47:07Z</time></trkpt><trkpt lat="59.1030201316" lon="30.4850374907"><ele>303.43</ele><time>2026-08-20T19:47:08Z</time></trkpt><trkpt lat="59.1030194610" lon="30.4850548413"><ele>303.43</ele><time>2026-08-20T19:47:09Z</time></trkpt><trkpt lat="59.1030196287" lon="30.4850720242"><ele>303.43</ele><time>2026-08-20T19:47:10Z</time></trkpt><trkpt lat="59.1030224785" lon="30.4850834236"><ele>303.43</ele><time>2026-08-20T19:47:11Z</time></trkpt><trkpt lat="59.1030223947" lon="30.4850967508"><ele>303.43</ele><time>2026-08-20T19:47:12Z</time></trkpt><trkpt lat="59.1030232329" lon="30.4851089884"><ele>303.43</ele><time>2026-08-20T19:47:13Z</time></trkpt><trkpt lat="59.1030231491" lon="30.4851248302"><ele>303.43</ele><time>2026-08-20T19:47:14Z</time></trkpt><trkpt lat="59.1030224785" lon="30.4851383250"><ele>303.43</ele><time>2026-08-20T19:47:15Z</time></trkpt><trkpt lat="59.1030232329" lon="30.4851507302"><ele>303.43</ele><time>2026-08-20T19:47:16Z</time></trkpt><trkpt lat="59.1030220594" lon="30.4851692542"><ele>303.43</ele><time>2026-08-20T19:47:17Z</time></trkpt><trkpt lat="59.1030220594" lon="30.4851853475"><ele>303.43</ele><time>2026-08-20T19:47:18Z</time></trkpt><trkpt lat="59.1030207183" lon="30.4852002673"><ele>303.43</ele><time>2026-08-20T19:47:19Z</time></trkpt><trkpt lat="59.1030210536" lon="30.4852164444"><ele>303.43</ele><time>2026-08-20T19:47:20Z</time></trkpt><trkpt lat="59.1030225623" lon="30.4852321185"><ele>303.43</ele><time>2026-08-20T19:47:21Z</time></trkpt><trkpt lat="59.1030259989" lon="30.4852473736"><ele>303.43</ele><time>2026-08-20T19:47:22Z</time></trkpt><trkpt lat="59.1030260827" lon="30.4852661490"><ele>303.43</ele><time>2026-08-20T19:47:23Z</time></trkpt><trkpt lat="59.1030285973" lon="30.4852814879"><ele>303.43</ele><time>2026-08-20T19:47:24Z</time></trkpt><trkpt lat="59.1030293517" lon="30.4852975812"><ele>303.43</ele><time>2026-08-20T19:47:25Z</time></trkpt><trkpt lat="59.1030321177" lon="30.4853111599"><ele>303.43</ele><time>2026-08-20T19:47:26Z</time></trkpt><trkpt lat="59.1030343808" lon="30.4853253253"><ele>303.43</ele><time>2026-08-20T19:47:27Z</time></trkpt><trkpt lat="59.1030378174" lon="30.4853429273"><ele>303.43</ele><time>2026-08-20T19:47:28Z</time></trkpt><trkpt lat="59.1030417569" lon="30.4853600264"><ele>303.43</ele><time>2026-08-20T19:47:29Z</time></trkpt><trkpt lat="59.1030456964" lon="30.4853748623"><ele>303.43</ele><time>2026-08-20T19:47:30Z</time></trkpt><trkpt lat="59.1030470375" lon="30.4853905365"><ele>303.43</ele><time>2026-08-20T19:47:31Z</time></trkpt><trkpt lat="59.1030492168" lon="30.4854099825"><ele>303.43</ele><time>2026-08-20T19:47:32Z</time></trkpt><trkpt lat="59.1030516475" lon="30.4854259919"><ele>303.43</ele><time>2026-08-20T19:47:33Z</time></trkpt><trkpt lat="59.1030564252" lon="30.4854445998"><ele>303.43</ele><time>2026-08-20T19:47:34Z</time></trkpt><trkpt lat="59.1030588560" lon="30.4854614474"><ele>303.43</ele><time>2026-08-20T19:47:35Z</time></trkpt><trkpt lat="59.1030627955" lon="30.4854782950"><ele>303.43</ele><time>2026-08-20T19:47:36Z</time></trkpt><trkpt lat="59.1030659806" lon="30.4854932986"><ele>303.43</ele><time>2026-08-20T19:47:37Z</time></trkpt><trkpt lat="59.1030644719" lon="30.4855132475"><ele>303.43</ele><time>2026-08-20T19:47:38Z</time></trkpt><trkpt lat="59.1030621249" lon="30.4855244793"><ele>303.43</ele><time>2026-08-20T19:47:39Z</time></trkpt><trkpt lat="59.1030614544" lon="30.4855315201"><ele>303.43</ele><time>2026-08-20T19:47:40Z</time></trkpt><trkpt lat="59.1030579340" lon="30.4855344538"><ele>303.43</ele><time>2026-08-20T19:47:41Z</time></trkpt><trkpt lat="59.1030565929" lon="30.4855425842"><ele>303.43</ele><time>2026-08-20T19:47:42Z</time></trkpt><trkpt lat="59.1030565929" lon="30.4855425842"><ele>303.43</ele><time>2026-08-20T19:47:43Z</time></trkpt><trkpt lat="59.1030515637" lon="30.4855590966"><ele>303.43</ele><time>2026-08-20T19:47:44Z</time></trkpt><trkpt lat="59.1030497197" lon="30.4855652992"><ele>303.43</ele><time>2026-08-20T19:47:45Z</time></trkpt><trkpt lat="59.1030481271" lon="30.4855721723"><ele>303.43</ele><time>2026-08-20T19:47:46Z</time></trkpt><trkpt lat="59.1030479595" lon="30.4855853319"><ele>303.43</ele><time>2026-08-20T19:47:47Z</time></trkpt><trkpt lat="59.1030457802" lon="30.4856003355"><ele>303.43</ele><time>2026-08-20T19:47:48Z</time></trkpt><trkpt lat="59.1030450258" lon="30.4856176861"><ele>303.43</ele><time>2026-08-20T19:47:49Z</time></trkpt><trkpt lat="59.1030475404" lon="30.4856303427"><ele>303.43</ele><time>2026-08-20T19:47:50Z</time></trkpt><trkpt lat="59.1030492168" lon="30.4856435861"><ele>303.43</ele><time>2026-08-20T19:47:51Z</time></trkpt><trkpt lat="59.1030490492" lon="30.4856603500"><ele>303.43</ele><time>2026-08-20T19:47:52Z</time></trkpt><trkpt lat="59.1030475404" lon="30.4856751859"><ele>303.43</ele><time>2026-08-20T19:47:53Z</time></trkpt><trkpt lat="59.1030477919" lon="30.4856881779"><ele>303.43</ele><time>2026-08-20T19:47:54Z</time></trkpt><trkpt lat="59.1030469537" lon="30.4857013375"><ele>303.43</ele><time>2026-08-20T19:47:55Z</time></trkpt><trkpt lat="59.1030460317" lon="30.4857146647"><ele>303.43</ele><time>2026-08-20T19:47:56Z</time></trkpt><trkpt lat="59.1030485462" lon="30.4857304227"><ele>303.43</ele><time>2026-08-20T19:47:57Z</time></trkpt><trkpt lat="59.1030492168" lon="30.4857445881"><ele>303.43</ele><time>2026-08-20T19:47:58Z</time></trkpt><trkpt lat="59.1030507255" lon="30.4857601784"><ele>303.43</ele><time>2026-08-20T19:47:59Z</time></trkpt><trkpt lat="59.1030551679" lon="30.4857775290"><ele>303.43</ele><time>2026-08-20T19:48:00Z</time></trkpt><trkpt lat="59.1030554194" lon="30.4857994895"><ele>303.43</ele><time>2026-08-20T19:48:01Z</time></trkpt><trkpt lat="59.1030587722" lon="30.4858195223"><ele>303.43</ele><time>2026-08-20T19:48:02Z</time></trkpt><trkpt lat="59.1030639689" lon="30.4858435784"><ele>303.43</ele><time>2026-08-20T19:48:03Z</time></trkpt><trkpt lat="59.1030675732" lon="30.4858561512"><ele>303.43</ele><time>2026-08-20T19:48:04Z</time></trkpt><trkpt lat="59.1030704230" lon="30.4858691432"><ele>303.43</ele><time>2026-08-20T19:48:05Z</time></trkpt><trkpt lat="59.1030722670" lon="30.4858813807"><ele>303.43</ele><time>2026-08-20T19:48:06Z</time></trkpt><trkpt lat="59.1030745301" lon="30.4858951271"><ele>303.43</ele><time>2026-08-20T19:48:07Z</time></trkpt><trkpt lat="59.1030787211" lon="30.4859042633"><ele>303.43</ele><time>2026-08-20T19:48:08Z</time></trkpt><trkpt lat="59.1030824929" lon="30.4859088734"><ele>303.43</ele><time>2026-08-20T19:48:09Z</time></trkpt><trkpt lat="59.1030850913" lon="30.4859094601"><ele>303.91</ele><time>2026-08-20T19:48:10Z</time></trkpt><trkpt lat="59.1030870192" lon="30.4859138187"><ele>303.91</ele><time>2026-08-20T19:48:11Z</time></trkpt><trkpt lat="59.1030870192" lon="30.4859138187"><ele>303.91</ele><time>2026-08-20T19:48:12Z</time></trkpt><trkpt lat="59.1030871868" lon="30.4859260563"><ele>303.91</ele><time>2026-08-20T19:48:13Z</time></trkpt><trkpt lat="59.1030878574" lon="30.4859374557"><ele>303.91</ele><time>2026-08-20T19:48:14Z</time></trkpt><trkpt lat="59.1030879412" lon="30.4859487712"><ele>303.91</ele><time>2026-08-20T19:48:15Z</time></trkpt><trkpt lat="59.1030885279" lon="30.4859583266"><ele>303.91</ele><time>2026-08-20T19:48:16Z</time></trkpt><trkpt lat="59.1030886956" lon="30.4859650321"><ele>303.91</ele><time>2026-08-20T19:48:17Z</time></trkpt><trkpt lat="59.1030874383" lon="30.4859750904"><ele>303.91</ele><time>2026-08-20T19:48:18Z</time></trkpt><trkpt lat="59.1030870192" lon="30.4859883338"><ele>303.91</ele><time>2026-08-20T19:48:19Z</time></trkpt><trkpt lat="59.1030861810" lon="30.4860014934"><ele>303.91</ele><time>2026-08-20T19:48:20Z</time></trkpt><trkpt lat="59.1030861810" lon="30.4860153235"><ele>303.43</ele><time>2026-08-20T19:48:21Z</time></trkpt><trkpt lat="59.1030853428" lon="30.4860314168"><ele>303.43</ele><time>2026-08-20T19:48:22Z</time></trkpt><trkpt lat="59.1030889470" lon="30.4860454984"><ele>303.43</ele><time>2026-08-20T19:48:23Z</time></trkpt><trkpt lat="59.1030961554" lon="30.4860593285"><ele>303.43</ele><time>2026-08-20T19:48:24Z</time></trkpt><trkpt lat="59.1030971613" lon="30.4860748351"><ele>303.43</ele><time>2026-08-20T19:48:25Z</time></trkpt><trkpt lat="59.1030984186" lon="30.4860894196"><ele>303.43</ele><time>2026-08-20T19:48:26Z</time></trkpt><trkpt lat="59.1030981671" lon="30.4861066863"><ele>303.43</ele><time>2026-08-20T19:48:27Z</time></trkpt><trkpt lat="59.1031058785" lon="30.4861237854"><ele>303.43</ele><time>2026-08-20T19:48:28Z</time></trkpt><trkpt lat="59.1031066328" lon="30.4861418903"><ele>303.43</ele><time>2026-08-20T19:48:29Z</time></trkpt><trkpt lat="59.1031057946" lon="30.4861625936"><ele>303.91</ele><time>2026-08-20T19:48:30Z</time></trkpt><trkpt lat="59.1031064652" lon="30.4861800279"><ele>303.91</ele><time>2026-08-20T19:48:31Z</time></trkpt><trkpt lat="59.1031076387" lon="30.4861981329"><ele>303.91</ele><time>2026-08-20T19:48:32Z</time></trkpt><trkpt lat="59.1031080578" lon="30.4862197582"><ele>303.91</ele><time>2026-08-20T19:48:33Z</time></trkpt><trkpt lat="59.1031080578" lon="30.4862425569"><ele>303.91</ele><time>2026-08-20T19:48:34Z</time></trkpt><trkpt lat="59.1031025257" lon="30.4862676188"><ele>303.91</ele><time>2026-08-20T19:48:35Z</time></trkpt><trkpt lat="59.1030985862" lon="30.4862886574"><ele>303.91</ele><time>2026-08-20T19:48:36Z</time></trkpt><trkpt lat="59.1030965745" lon="30.4863104504"><ele>303.91</ele><time>2026-08-20T19:48:37Z</time></trkpt><trkpt lat="59.1030971613" lon="30.4863369372"><ele>303.91</ele><time>2026-08-20T19:48:38Z</time></trkpt><trkpt lat="59.1030956525" lon="30.4863651842"><ele>303.91</ele><time>2026-08-20T19:48:39Z</time></trkpt><trkpt lat="59.1030976642" lon="30.4863867257"><ele>303.91</ele><time>2026-08-20T19:48:40Z</time></trkpt><trkpt lat="59.1030969936" lon="30.4864099436"><ele>303.91</ele><time>2026-08-20T19:48:41Z</time></trkpt><trkpt lat="59.1030939762" lon="30.4864322394"><ele>303.91</ele><time>2026-08-20T19:48:42Z</time></trkpt><trkpt lat="59.1030913778" lon="30.4864535294"><ele>303.91</ele><time>2026-08-20T19:48:43Z</time></trkpt><trkpt lat="59.1030937247" lon="30.4864704609"><ele>303.91</ele><time>2026-08-20T19:48:44Z</time></trkpt><trkpt lat="59.1030963231" lon="30.4864909966"><ele>303.91</ele><time>2026-08-20T19:48:45Z</time></trkpt><trkpt lat="59.1030980833" lon="30.4865097720"><ele>303.91</ele><time>2026-08-20T19:48:46Z</time></trkpt><trkpt lat="59.1031019390" lon="30.4865323193"><ele>303.91</ele><time>2026-08-20T19:48:47Z</time></trkpt><trkpt lat="59.1031035315" lon="30.4865524359"><ele>303.43</ele><time>2026-08-20T19:48:48Z</time></trkpt><trkpt lat="59.1031065490" lon="30.4865636677"><ele>303.43</ele><time>2026-08-20T19:48:49Z</time></trkpt><trkpt lat="59.1031048726" lon="30.4865721334"><ele>303.43</ele><time>2026-08-20T19:48:50Z</time></trkpt><trkpt lat="59.1031063814" lon="30.4865724687"><ele>303.91</ele><time>2026-08-20T19:48:51Z</time></trkpt><trkpt lat="59.1031066328" lon="30.4865742289"><ele>303.91</ele><time>2026-08-20T19:48:52Z</time></trkpt><trkpt lat="59.1031066328" lon="30.4865742289"><ele>303.91</ele><time>2026-08-20T19:48:53Z</time></trkpt><trkpt lat="59.1031066328" lon="30.4865742289"><ele>303.91</ele><time>2026-08-20T19:48:54Z</time></trkpt><trkpt lat="59.1031066328" lon="30.4865742289"><ele>303.91</ele><time>2026-08-20T19:48:55Z</time></trkpt><trkpt lat="59.1031066328" lon="30.4865742289"><ele>303.91</ele><time>2026-08-20T19:48:56Z</time></trkpt><trkpt lat="59.1031066328" lon="30.4865742289"><ele>303.91</ele><time>2026-08-20T19:48:57Z</time></trkpt><trkpt lat="59.1031066328" lon="30.4865742289"><ele>303.91</ele><time>2026-08-20T19:48:58Z</time></trkpt><trkpt lat="59.1031066328" lon="30.4865742289"><ele>303.91</ele><time>2026-08-20T19:48:59Z</time></trkpt><trkpt lat="59.1031066328" lon="30.4865742289"><ele>303.91</ele><time>2026-08-20T19:49:00Z</time></trkpt><trkpt lat="59.1031066328" lon="30.4865742289"><ele>303.91</ele><time>2026-08-20T19:49:01Z</time></trkpt><trkpt lat="59.1031066328" lon="30.4865742289"><ele>303.91</ele><time>2026-08-20T19:49:02Z</time></trkpt><trkpt lat="59.1031066328" lon="30.4865742289"><ele>303.43</ele><time>2026-08-20T19:49:03Z</time></trkpt><trkpt lat="59.1031066328" lon="30.4865742289"><ele>303.43</ele><time>2026-08-20T19:49:04Z</time></trkpt><trkpt lat="59.1031066328" lon="30.4865742289"><ele>303.43</ele><time>2026-08-20T19:49:05Z</time></trkpt><trkpt lat="59.1031066328" lon="30.4865742289"><ele>303.43</ele><time>2026-08-20T19:49:06Z</time></trkpt><trkpt lat="59.1031066328" lon="30.4865742289"><ele>303.43</ele><time>2026-08-20T19:49:07Z</time></trkpt><trkpt lat="59.1031066328" lon="30.4865742289"><ele>303.43</ele><time>2026-08-20T19:49:08Z</time></trkpt><trkpt lat="59.1031066328" lon="30.4865742289"><ele>303.43</ele><time>2026-08-20T19:49:09Z</time></trkpt><trkpt lat="59.1031066328" lon="30.4865742289"><ele>303.43</ele><time>2026-08-20T19:49:10Z</time></trkpt><trkpt lat="59.1031066328" lon="30.4865742289"><ele>303.43</ele><time>2026-08-20T19:49:11Z</time></trkpt><trkpt lat="59.1031066328" lon="30.4865742289"><ele>303.43</ele><time>2026-08-20T19:49:12Z</time></trkpt><trkpt lat="59.1031066328" lon="30.4865742289"><ele>303.43</ele><time>2026-08-20T19:49:13Z</time></trkpt><trkpt lat="59.1031066328" lon="30.4865742289"><ele>303.43</ele><time>2026-08-20T19:49:14Z</time></trkpt><trkpt lat="59.1031066328" lon="30.4865742289"><ele>303.43</ele><time>2026-08-20T19:49:15Z</time></trkpt><trkpt lat="59.1031066328" lon="30.4865742289"><ele>303.43</ele><time>2026-08-20T19:49:16Z</time></trkpt><trkpt lat="59.1031066328" lon="30.4865742289"><ele>303.43</ele><time>2026-08-20T19:49:17Z</time></trkpt><trkpt lat="59.1031066328" lon="30.4865742289"><ele>303.43</ele><time>2026-08-20T19:49:18Z</time></trkpt><trkpt lat="59.1031066328" lon="30.4865742289"><ele>303.43</ele><time>2026-08-20T19:49:19Z</time></trkpt><trkpt lat="59.1031066328" lon="30.4865742289"><ele>303.43</ele><time>2026-08-20T19:49:20Z</time></trkpt><trkpt lat="59.1031066328" lon="30.4865742289"><ele>303.43</ele><time>2026-08-20T19:49:21Z</time></trkpt><trkpt lat="59.1031066328" lon="30.4865742289"><ele>303.43</ele><time>2026-08-20T19:49:22Z</time></trkpt><trkpt lat="59.1031066328" lon="30.4865742289"><ele>303.43</ele><time>2026-08-20T19:49:23Z</time></trkpt><trkpt lat="59.1031066328" lon="30.4865742289"><ele>303.43</ele><time>2026-08-20T19:49:24Z</time></trkpt><trkpt lat="59.1031066328" lon="30.4865742289"><ele>303.43</ele><time>2026-08-20T19:49:25Z</time></trkpt><trkpt lat="59.1031066328" lon="30.4865742289"><ele>303.43</ele><time>2026-08-20T19:49:26Z</time></trkpt><trkpt lat="59.1031066328" lon="30.4865742289"><ele>303.43</ele><time>2026-08-20T19:49:27Z</time></trkpt><trkpt lat="59.1031066328" lon="30.4865742289"><ele>303.43</ele><time>2026-08-20T19:49:28Z</time></trkpt><trkpt lat="59.1031066328" lon="30.4865742289"><ele>303.43</ele><time>2026-08-20T19:49:29Z</time></trkpt><trkpt lat="59.1031066328" lon="30.4865742289"><ele>303.43</ele><time>2026-08-20T19:49:30Z</time></trkpt><trkpt lat="59.1031066328" lon="30.4865742289"><ele>303.43</ele><time>2026-08-20T19:49:31Z</time></trkpt><trkpt lat="59.1031066328" lon="30.4865742289"><ele>303.43</ele><time>2026-08-20T19:49:32Z</time></trkpt><trkpt lat="59.1031066328" lon="30.4865742289"><ele>303.43</ele><time>2026-08-20T19:49:33Z</time></trkpt><trkpt lat="59.1031066328" lon="30.4865742289"><ele>303.43</ele><time>2026-08-20T19:49:34Z</time></trkpt><trkpt lat="59.1031066328" lon="30.4865742289"><ele>303.43</ele><time>2026-08-20T19:49:35Z</time></trkpt><trkpt lat="59.1031066328" lon="30.4865742289"><ele>303.43</ele><time>2026-08-20T19:49:36Z</time></trkpt><trkpt lat="59.1031066328" lon="30.4865742289"><ele>303.43</ele><time>2026-08-20T19:49:37Z</time></trkpt><trkpt lat="59.1031066328" lon="30.4865742289"><ele>303.43</ele><time>2026-08-20T19:49:38Z</time></trkpt><trkpt lat="59.1031066328" lon="30.4865742289"><ele>303.43</ele><time>2026-08-20T19:49:39Z</time></trkpt><trkpt lat="59.1031066328" lon="30.4865742289"><ele>303.43</ele><time>2026-08-20T19:49:40Z</time></trkpt><trkpt lat="59.1031066328" lon="30.4865742289"><ele>303.43</ele><time>2026-08-20T19:49:41Z</time></trkpt><trkpt lat="59.1031066328" lon="30.4865742289"><ele>303.43</ele><time>2026-08-20T19:49:42Z</time></trkpt><trkpt lat="59.1031066328" lon="30.4865742289"><ele>303.43</ele><time>2026-08-20T19:49:43Z</time></trkpt><trkpt lat="59.1031066328" lon="30.4865742289"><ele>303.43</ele><time>2026-08-20T19:49:44Z</time></trkpt><trkpt lat="59.1031066328" lon="30.4865742289"><ele>303.43</ele><time>2026-08-20T19:49:45Z</time></trkpt><trkpt lat="59.1031066328" lon="30.4865742289"><ele>303.43</ele><time>2026-08-20T19:49:46Z</time></trkpt><trkpt lat="59.1031066328" lon="30.4865742289"><ele>303.43</ele><time>2026-08-20T19:49:47Z</time></trkpt><trkpt lat="59.1031066328" lon="30.4865742289"><ele>303.43</ele><time>2026-08-20T19:49:48Z</time></trkpt><trkpt lat="59.1031066328" lon="30.4865742289"><ele>303.43</ele><time>2026-08-20T19:49:49Z</time></trkpt><trkpt lat="59.1031066328" lon="30.4865742289"><ele>303.43</ele><time>2026-08-20T19:49:50Z</time></trkpt><trkpt lat="59.1031066328" lon="30.4865742289"><ele>303.43</ele><time>2026-08-20T19:49:51Z</time></trkpt><trkpt lat="59.1031066328" lon="30.4865742289"><ele>303.43</ele><time>2026-08-20T19:49:52Z</time></trkpt><trkpt lat="59.1031066328" lon="30.4865742289"><ele>303.43</ele><time>2026-08-20T19:49:53Z</time></trkpt><trkpt lat="59.1031066328" lon="30.4865742289"><ele>303.43</ele><time>2026-08-20T19:49:54Z</time></trkpt><trkpt lat="59.1031066328" lon="30.4865742289"><ele>303.43</ele><time>2026-08-20T19:49:55Z</time></trkpt><trkpt lat="59.1031066328" lon="30.4865742289"><ele>303.43</ele><time>2026-08-20T19:49:56Z</time></trkpt><trkpt lat="59.1031066328" lon="30.4865742289"><ele>303.43</ele><time>2026-08-20T19:49:57Z</time></trkpt><trkpt lat="59.1031066328" lon="30.4865742289"><ele>303.43</ele><time>2026-08-20T19:49:58Z</time></trkpt><trkpt lat="59.1031066328" lon="30.4865742289"><ele>303.43</ele><time>2026-08-20T19:49:59Z</time></trkpt><trkpt lat="59.1031066328" lon="30.4865742289"><ele>303.43</ele><time>2026-08-20T19:50:00Z</time></trkpt><trkpt lat="59.1031066328" lon="30.4865742289"><ele>303.43</ele><time>2026-08-20T19:50:01Z</time></trkpt><trkpt lat="59.1031066328" lon="30.4865742289"><ele>303.43</ele><time>2026-08-20T19:50:02Z</time></trkpt><trkpt lat="59.1031066328" lon="30.4865742289"><ele>303.43</ele><time>2026-08-20T19:50:03Z</time></trkpt><trkpt lat="59.1031066328" lon="30.4865742289"><ele>303.43</ele><time>2026-08-20T19:50:04Z</time></trkpt><trkpt lat="59.1031066328" lon="30.4865742289"><ele>303.43</ele><time>2026-08-20T19:50:05Z</time></trkpt><trkpt lat="59.1031066328" lon="30.4865742289"><ele>303.43</ele><time>2026-08-20T19:50:06Z</time></trkpt><trkpt lat="59.1031066328" lon="30.4865742289"><ele>303.43</ele><time>2026-08-20T19:50:07Z</time></trkpt><trkpt lat="59.1031066328" lon="30.4865742289"><ele>303.43</ele><time>2026-08-20T19:50:08Z</time></trkpt><trkpt lat="59.1031066328" lon="30.4865742289"><ele>303.43</ele><time>2026-08-20T19:50:09Z</time></trkpt><trkpt lat="59.1031066328" lon="30.4865742289"><ele>303.43</ele><time>2026-08-20T19:50:10Z</time></trkpt><trkpt lat="59.1031066328" lon="30.4865742289"><ele>303.43</ele><time>2026-08-20T19:50:11Z</time></trkpt><trkpt lat="59.1031066328" lon="30.4865742289"><ele>303.43</ele><time>2026-08-20T19:50:12Z</time></trkpt><trkpt lat="59.1031066328" lon="30.4865742289"><ele>303.43</ele><time>2026-08-20T19:50:13Z</time></trkpt><trkpt lat="59.1031066328" lon="30.4865742289"><ele>303.43</ele><time>2026-08-20T19:50:14Z</time></trkpt><trkpt lat="59.1031066328" lon="30.4865742289"><ele>303.43</ele><time>2026-08-20T19:50:15Z</time></trkpt><trkpt lat="59.1031066328" lon="30.4865742289"><ele>303.43</ele><time>2026-08-20T19:50:16Z</time></trkpt><trkpt lat="59.1031066328" lon="30.4865742289"><ele>303.43</ele><time>2026-08-20T19:50:17Z</time></trkpt><trkpt lat="59.1031066328" lon="30.4865742289"><ele>303.43</ele><time>2026-08-20T19:50:18Z</time></trkpt><trkpt lat="59.1031066328" lon="30.4865742289"><ele>303.43</ele><time>2026-08-20T19:50:19Z</time></trkpt><trkpt lat="59.1031066328" lon="30.4865742289"><ele>303.43</ele><time>2026-08-20T19:50:20Z</time></trkpt><trkpt lat="59.1031066328" lon="30.4865742289"><ele>303.43</ele><time>2026-08-20T19:50:21Z</time></trkpt><trkpt lat="59.1031066328" lon="30.4865742289"><ele>303.43</ele><time>2026-08-20T19:50:22Z</time></trkpt><trkpt lat="59.1031066328" lon="30.4865742289"><ele>303.43</ele><time>2026-08-20T19:50:23Z</time></trkpt><trkpt lat="59.1031066328" lon="30.4865742289"><ele>303.43</ele><time>2026-08-20T19:50:24Z</time></trkpt><trkpt lat="59.1031066328" lon="30.4865742289"><ele>303.43</ele><time>2026-08-20T19:50:25Z</time></trkpt><trkpt lat="59.1031066328" lon="30.4865742289"><ele>303.43</ele><time>2026-08-20T19:50:26Z</time></trkpt><trkpt lat="59.1031066328" lon="30.4865742289"><ele>303.43</ele><time>2026-08-20T19:50:27Z</time></trkpt><trkpt lat="59.1031066328" lon="30.4865742289"><ele>303.43</ele><time>2026-08-20T19:50:28Z</time></trkpt><trkpt lat="59.1031066328" lon="30.4865742289"><ele>303.43</ele><time>2026-08-20T19:50:29Z</time></trkpt><trkpt lat="59.1031066328" lon="30.4865742289"><ele>303.43</ele><time>2026-08-20T19:50:30Z</time></trkpt><trkpt lat="59.1031066328" lon="30.4865742289"><ele>303.43</ele><time>2026-08-20T19:50:31Z</time></trkpt><trkpt lat="59.1031066328" lon="30.4865742289"><ele>303.43</ele><time>2026-08-20T19:50:32Z</time></trkpt><trkpt lat="59.1031066328" lon="30.4865742289"><ele>303.43</ele><time>2026-08-20T19:50:33Z</time></trkpt><trkpt lat="59.1031066328" lon="30.4865742289"><ele>303.43</ele><time>2026-08-20T19:50:34Z</time></trkpt><trkpt lat="59.1031066328" lon="30.4865742289"><ele>303.43</ele><time>2026-08-20T19:50:35Z</time></trkpt><trkpt lat="59.1031066328" lon="30.4865742289"><ele>303.43</ele><time>2026-08-20T19:50:36Z</time></trkpt><trkpt lat="59.1031066328" lon="30.4865742289"><ele>303.43</ele><time>2026-08-20T19:50:37Z</time></trkpt><trkpt lat="59.1031066328" lon="30.4865742289"><ele>303.43</ele><time>2026-08-20T19:50:38Z</time></trkpt><trkpt lat="59.1031066328" lon="30.4865742289"><ele>303.43</ele><time>2026-08-20T19:50:39Z</time></trkpt><trkpt lat="59.1031066328" lon="30.4865742289"><ele>303.43</ele><time>2026-08-20T19:50:40Z</time></trkpt><trkpt lat="59.1031066328" lon="30.4865742289"><ele>303.43</ele><time>2026-08-20T19:50:41Z</time></trkpt><trkpt lat="59.1031066328" lon="30.4865742289"><ele>303.43</ele><time>2026-08-20T19:50:42Z</time></trkpt><trkpt lat="59.1031066328" lon="30.4865742289"><ele>303.43</ele><time>2026-08-20T19:50:43Z</time></trkpt><trkpt lat="59.1031066328" lon="30.4865742289"><ele>303.43</ele><time>2026-08-20T19:50:44Z</time></trkpt><trkpt lat="59.1031066328" lon="30.4865742289"><ele>303.43</ele><time>2026-08-20T19:50:45Z</time></trkpt><trkpt lat="59.1030866839" lon="30.4866269510"><ele>303.43</ele><time>2026-08-20T19:50:46Z</time></trkpt><trkpt lat="59.1030828282" lon="30.4866283759"><ele>303.43</ele><time>2026-08-20T19:50:47Z</time></trkpt><trkpt lat="59.1030832473" lon="30.4866299685"><ele>303.43</ele><time>2026-08-20T19:50:48Z</time></trkpt><trkpt lat="59.1030858457" lon="30.4866303876"><ele>303.43</ele><time>2026-08-20T19:50:49Z</time></trkpt><trkpt lat="59.1030858457" lon="30.4866303876"><ele>303.43</ele><time>2026-08-20T19:50:50Z</time></trkpt><trkpt lat="59.1030858457" lon="30.4866303876"><ele>303.43</ele><time>2026-08-20T19:50:51Z</time></trkpt><trkpt lat="59.1030858457" lon="30.4866303876"><ele>303.43</ele><time>2026-08-20T19:50:52Z</time></trkpt><trkpt lat="59.1030858457" lon="30.4866303876"><ele>303.43</ele><time>2026-08-20T19:50:53Z</time></trkpt><trkpt lat="59.1030858457" lon="30.4866303876"><ele>303.43</ele><time>2026-08-20T19:50:54Z</time></trkpt><trkpt lat="59.1030858457" lon="30.4866303876"><ele>303.43</ele><time>2026-08-20T19:50:55Z</time></trkpt><trkpt lat="59.1030858457" lon="30.4866303876"><ele>303.43</ele><time>2026-08-20T19:50:56Z</time></trkpt><trkpt lat="59.1030858457" lon="30.4866303876"><ele>303.43</ele><time>2026-08-20T19:50:57Z</time></trkpt><trkpt lat="59.1030858457" lon="30.4866303876"><ele>303.43</ele><time>2026-08-20T19:50:58Z</time></trkpt><trkpt lat="59.1030858457" lon="30.4866303876"><ele>303.43</ele><time>2026-08-20T19:50:59Z</time></trkpt><trkpt lat="59.1030858457" lon="30.4866303876"><ele>303.43</ele><time>2026-08-20T19:51:00Z</time></trkpt><trkpt lat="59.1030858457" lon="30.4866303876"><ele>303.43</ele><time>2026-08-20T19:51:01Z</time></trkpt><trkpt lat="59.1030858457" lon="30.4866303876"><ele>303.43</ele><time>2026-08-20T19:51:02Z</time></trkpt><trkpt lat="59.1030858457" lon="30.4866303876"><ele>303.43</ele><time>2026-08-20T19:51:03Z</time></trkpt><trkpt lat="59.1030858457" lon="30.4866303876"><ele>303.43</ele><time>2026-08-20T19:51:04Z</time></trkpt><trkpt lat="59.1030858457" lon="30.4866303876"><ele>303.43</ele><time>2026-08-20T19:51:05Z</time></trkpt><trkpt lat="59.1030858457" lon="30.4866303876"><ele>303.43</ele><time>2026-08-20T19:51:06Z</time></trkpt><trkpt lat="59.1030858457" lon="30.4866303876"><ele>303.43</ele><time>2026-08-20T19:51:07Z</time></trkpt><trkpt lat="59.1030858457" lon="30.4866303876"><ele>303.43</ele><time>2026-08-20T19:51:08Z</time></trkpt><trkpt lat="59.1030858457" lon="30.4866303876"><ele>303.43</ele><time>2026-08-20T19:51:09Z</time></trkpt><trkpt lat="59.1030858457" lon="30.4866303876"><ele>303.43</ele><time>2026-08-20T19:51:10Z</time></trkpt><trkpt lat="59.1030858457" lon="30.4866303876"><ele>303.43</ele><time>2026-08-20T19:51:11Z</time></trkpt><trkpt lat="59.1030858457" lon="30.4866303876"><ele>303.43</ele><time>2026-08-20T19:51:12Z</time></trkpt><trkpt lat="59.1030858457" lon="30.4866303876"><ele>303.43</ele><time>2026-08-20T19:51:13Z</time></trkpt><trkpt lat="59.1030858457" lon="30.4866303876"><ele>303.43</ele><time>2026-08-20T19:51:14Z</time></trkpt><trkpt lat="59.1030858457" lon="30.4866303876"><ele>303.43</ele><time>2026-08-20T19:51:15Z</time></trkpt><trkpt lat="59.1030858457" lon="30.4866303876"><ele>303.43</ele><time>2026-08-20T19:51:16Z</time></trkpt><trkpt lat="59.1030858457" lon="30.4866303876"><ele>303.43</ele><time>2026-08-20T19:51:17Z</time></trkpt><trkpt lat="59.1030858457" lon="30.4866303876"><ele>303.91</ele><time>2026-08-20T19:51:18Z</time></trkpt><trkpt lat="59.1030858457" lon="30.4866303876"><ele>303.91</ele><time>2026-08-20T19:51:19Z</time></trkpt><trkpt lat="59.1030858457" lon="30.4866303876"><ele>303.91</ele><time>2026-08-20T19:51:20Z</time></trkpt><trkpt lat="59.1030858457" lon="30.4866303876"><ele>303.91</ele><time>2026-08-20T19:51:21Z</time></trkpt><trkpt lat="59.1030858457" lon="30.4866303876"><ele>303.91</ele><time>2026-08-20T19:51:22Z</time></trkpt><trkpt lat="59.1031288449" lon="30.4866168927"><ele>303.91</ele><time>2026-08-20T19:51:23Z</time></trkpt><trkpt lat="59.1031325329" lon="30.4866156355"><ele>303.91</ele><time>2026-08-20T19:51:24Z</time></trkpt><trkpt lat="59.1031341255" lon="30.4866153840"><ele>303.91</ele><time>2026-08-20T19:51:25Z</time></trkpt><trkpt lat="59.1031353828" lon="30.4866117798"><ele>303.91</ele><time>2026-08-20T19:51:26Z</time></trkpt><trkpt lat="59.1031388193" lon="30.4866075888"><ele>303.91</ele><time>2026-08-20T19:51:27Z</time></trkpt><trkpt lat="59.1031388193" lon="30.4866075888"><ele>303.91</ele><time>2026-08-20T19:51:28Z</time></trkpt><trkpt lat="59.1031388193" lon="30.4866075888"><ele>303.91</ele><time>2026-08-20T19:51:29Z</time></trkpt><trkpt lat="59.1031388193" lon="30.4866075888"><ele>303.91</ele><time>2026-08-20T19:51:30Z</time></trkpt><trkpt lat="59.1031388193" lon="30.4866075888"><ele>303.91</ele><time>2026-08-20T19:51:31Z</time></trkpt><trkpt lat="59.1031388193" lon="30.4866075888"><ele>303.91</ele><time>2026-08-20T19:51:32Z</time></trkpt><trkpt lat="59.1031388193" lon="30.4866075888"><ele>303.91</ele><time>2026-08-20T19:51:33Z</time></trkpt><trkpt lat="59.1031388193" lon="30.4866075888"><ele>303.91</ele><time>2026-08-20T19:51:34Z</time></trkpt><trkpt lat="59.1031388193" lon="30.4866075888"><ele>303.43</ele><time>2026-08-20T19:51:35Z</time></trkpt><trkpt lat="59.1031388193" lon="30.4866075888"><ele>303.43</ele><time>2026-08-20T19:51:36Z</time></trkpt><trkpt lat="59.1031388193" lon="30.4866075888"><ele>303.43</ele><time>2026-08-20T19:51:37Z</time></trkpt><trkpt lat="59.1031388193" lon="30.4866075888"><ele>303.43</ele><time>2026-08-20T19:51:38Z</time></trkpt><trkpt lat="59.1031388193" lon="30.4866075888"><ele>303.43</ele><time>2026-08-20T19:51:39Z</time></trkpt><trkpt lat="59.1031388193" lon="30.4866075888"><ele>302.95</ele><time>2026-08-20T19:51:40Z</time></trkpt><trkpt lat="59.1031388193" lon="30.4866075888"><ele>302.95</ele><time>2026-08-20T19:51:41Z</time></trkpt><trkpt lat="59.1031388193" lon="30.4866075888"><ele>302.95</ele><time>2026-08-20T19:51:42Z</time></trkpt><trkpt lat="59.1031388193" lon="30.4866075888"><ele>302.95</ele><time>2026-08-20T19:51:43Z</time></trkpt><trkpt lat="59.1031388193" lon="30.4866075888"><ele>302.95</ele><time>2026-08-20T19:51:44Z</time></trkpt><trkpt lat="59.1031388193" lon="30.4866075888"><ele>302.95</ele><time>2026-08-20T19:51:45Z</time></trkpt><trkpt lat="59.1031388193" lon="30.4866075888"><ele>302.95</ele><time>2026-08-20T19:51:46Z</time></trkpt><trkpt lat="59.1031388193" lon="30.4866075888"><ele>302.95</ele><time>2026-08-20T19:51:47Z</time></trkpt><trkpt lat="59.1031388193" lon="30.4866075888"><ele>302.95</ele><time>2026-08-20T19:51:48Z</time></trkpt><trkpt lat="59.1031388193" lon="30.4866075888"><ele>302.95</ele><time>2026-08-20T19:51:49Z</time></trkpt><trkpt lat="59.1031388193" lon="30.4866075888"><ele>302.95</ele><time>2026-08-20T19:51:50Z</time></trkpt><trkpt lat="59.1031388193" lon="30.4866075888"><ele>302.95</ele><time>2026-08-20T19:51:51Z</time></trkpt><trkpt lat="59.1031388193" lon="30.4866075888"><ele>302.95</ele><time>2026-08-20T19:51:52Z</time></trkpt><trkpt lat="59.1031388193" lon="30.4866075888"><ele>302.95</ele><time>2026-08-20T19:51:53Z</time></trkpt><trkpt lat="59.1031388193" lon="30.4866075888"><ele>302.95</ele><time>2026-08-20T19:51:54Z</time></trkpt><trkpt lat="59.1031992529" lon="30.4866211675"><ele>302.95</ele><time>2026-08-20T19:51:55Z</time></trkpt><trkpt lat="59.1032040305" lon="30.4866139591"><ele>302.95</ele><time>2026-08-20T19:51:56Z</time></trkpt><trkpt lat="59.1032082215" lon="30.4866070859"><ele>302.95</ele><time>2026-08-20T19:51:57Z</time></trkpt><trkpt lat="59.1032146756" lon="30.4865969438"><ele>303.43</ele><time>2026-08-20T19:51:58Z</time></trkpt><trkpt lat="59.1032219678" lon="30.4865857959"><ele>303.43</ele><time>2026-08-20T19:51:59Z</time></trkpt><trkpt lat="59.1032321937" lon="30.4865723848"><ele>303.43</ele><time>2026-08-20T19:52:00Z</time></trkpt><trkpt lat="59.1032379773" lon="30.4865624942"><ele>303.43</ele><time>2026-08-20T19:52:01Z</time></trkpt><trkpt lat="59.1032428388" lon="30.4865574650"><ele>303.43</ele><time>2026-08-20T19:52:02Z</time></trkpt><trkpt lat="59.1032454371" lon="30.4865500890"><ele>303.43</ele><time>2026-08-20T19:52:03Z</time></trkpt><trkpt lat="59.1032468621" lon="30.4865447246"><ele>303.43</ele><time>2026-08-20T19:52:04Z</time></trkpt><trkpt lat="59.1032492928" lon="30.4865318164"><ele>303.43</ele><time>2026-08-20T19:52:05Z</time></trkpt><trkpt lat="59.1032550763" lon="30.4865233507"><ele>303.91</ele><time>2026-08-20T19:52:06Z</time></trkpt><trkpt lat="59.1032650508" lon="30.4865143821"><ele>303.91</ele><time>2026-08-20T19:52:07Z</time></trkpt><trkpt lat="59.1032724269" lon="30.4865050782"><ele>303.91</ele><time>2026-08-20T19:52:08Z</time></trkpt><trkpt lat="59.1032773722" lon="30.4864963610"><ele>303.91</ele><time>2026-08-20T19:52:09Z</time></trkpt><trkpt lat="59.1032830719" lon="30.4864873923"><ele>303.91</ele><time>2026-08-20T19:52:10Z</time></trkpt><trkpt lat="59.1032908671" lon="30.4864795972"><ele>303.91</ele><time>2026-08-20T19:52:11Z</time></trkpt><trkpt lat="59.1032959800" lon="30.4864754900"><ele>303.43</ele><time>2026-08-20T19:52:12Z</time></trkpt><trkpt lat="59.1032990813" lon="30.4864718858"><ele>303.43</ele><time>2026-08-20T19:52:13Z</time></trkpt><trkpt lat="59.1033069603" lon="30.4864673596"><ele>303.43</ele><time>2026-08-20T19:52:14Z</time></trkpt><trkpt lat="59.1033083852" lon="30.4864637554"><ele>303.43</ele><time>2026-08-20T19:52:15Z</time></trkpt><trkpt lat="59.1033124924" lon="30.4864602350"><ele>303.43</ele><time>2026-08-20T19:52:16Z</time></trkpt><trkpt lat="59.1033134982" lon="30.4864559602"><ele>303.43</ele><time>2026-08-20T19:52:17Z</time></trkpt><trkpt lat="59.1033182759" lon="30.4864404537"><ele>303.43</ele><time>2026-08-20T19:52:18Z</time></trkpt><trkpt lat="59.1033227183" lon="30.4864374362"><ele>303.43</ele><time>2026-08-20T19:52:19Z</time></trkpt><trkpt lat="59.1033304296" lon="30.4864298925"><ele>303.91</ele><time>2026-08-20T19:52:20Z</time></trkpt><trkpt lat="59.1033334471" lon="30.4864185769"><ele>303.91</ele><time>2026-08-20T19:52:21Z</time></trkpt><trkpt lat="59.1033380572" lon="30.4864106979"><ele>303.91</ele><time>2026-08-20T19:52:22Z</time></trkpt><trkpt lat="59.1033427510" lon="30.4864005558"><ele>303.91</ele><time>2026-08-20T19:52:23Z</time></trkpt><trkpt lat="59.1033506300" lon="30.4863880668"><ele>303.91</ele><time>2026-08-20T19:52:24Z</time></trkpt><trkpt lat="59.1033617780" lon="30.4863814451"><ele>303.91</ele><time>2026-08-20T19:52:25Z</time></trkpt><trkpt lat="59.1033701599" lon="30.4863780923"><ele>303.91</ele><time>2026-08-20T19:52:26Z</time></trkpt><trkpt lat="59.1033775359" lon="30.4863767512"><ele>303.91</ele><time>2026-08-20T19:52:27Z</time></trkpt><trkpt lat="59.1033823974" lon="30.4863793496"><ele>303.91</ele><time>2026-08-20T19:52:28Z</time></trkpt><trkpt lat="59.1033885162" lon="30.4863818642"><ele>303.91</ele><time>2026-08-20T19:52:29Z</time></trkpt><trkpt lat="59.1033934616" lon="30.4863875639"><ele>303.91</ele><time>2026-08-20T19:52:30Z</time></trkpt><trkpt lat="59.1033993289" lon="30.4863969516"><ele>303.91</ele><time>2026-08-20T19:52:31Z</time></trkpt><trkpt lat="59.1034055315" lon="30.4864039924"><ele>303.91</ele><time>2026-08-20T19:52:32Z</time></trkpt><trkpt lat="59.1034112312" lon="30.4864078481"><ele>303.91</ele><time>2026-08-20T19:52:33Z</time></trkpt><trkpt lat="59.1034166794" lon="30.4864142183"><ele>303.91</ele><time>2026-08-20T19:52:34Z</time></trkpt><trkpt lat="59.1034242231" lon="30.4864229355"><ele>303.91</ele><time>2026-08-20T19:52:35Z</time></trkpt><trkpt lat="59.1034323536" lon="30.4864353407"><ele>303.91</ele><time>2026-08-20T19:52:36Z</time></trkpt><trkpt lat="59.1034425795" lon="30.4864476621"><ele>303.91</ele><time>2026-08-20T19:52:37Z</time></trkpt><trkpt lat="59.1034504585" lon="30.4864618275"><ele>303.91</ele><time>2026-08-20T19:52:38Z</time></trkpt><trkpt lat="59.1034580860" lon="30.4864724725"><ele>303.91</ele><time>2026-08-20T19:52:39Z</time></trkpt><trkpt lat="59.1034653783" lon="30.4864803515"><ele>303.91</ele><time>2026-08-20T19:52:40Z</time></trkpt><trkpt lat="59.1034734249" lon="30.4864908289"><ele>303.91</ele><time>2026-08-20T19:52:41Z</time></trkpt><trkpt lat="59.1034804657" lon="30.4865028989"><ele>303.91</ele><time>2026-08-20T19:52:42Z</time></trkpt><trkpt lat="59.1034884285" lon="30.4865107778"><ele>303.91</ele><time>2026-08-20T19:52:43Z</time></trkpt><trkpt lat="59.1034987383" lon="30.4865260329"><ele>303.91</ele><time>2026-08-20T19:52:44Z</time></trkpt><trkpt lat="59.1035075393" lon="30.4865424614"><ele>303.91</ele><time>2026-08-20T19:52:45Z</time></trkpt><trkpt lat="59.1035159212" lon="30.4865559563"><ele>303.91</ele><time>2026-08-20T19:52:46Z</time></trkpt><trkpt lat="59.1035272367" lon="30.4865664337"><ele>303.91</ele><time>2026-08-20T19:52:47Z</time></trkpt><trkpt lat="59.1035349481" lon="30.4865780845"><ele>303.91</ele><time>2026-08-20T19:52:48Z</time></trkpt><trkpt lat="59.1035444196" lon="30.4865872208"><ele>303.91</ele><time>2026-08-20T19:52:49Z</time></trkpt><trkpt lat="59.1035516281" lon="30.4865888972"><ele>303.91</ele><time>2026-08-20T19:52:50Z</time></trkpt><trkpt lat="59.1035599262" lon="30.4865916632"><ele>303.91</ele><time>2026-08-20T19:52:51Z</time></trkpt><trkpt lat="59.1035684757" lon="30.4865961894"><ele>303.91</ele><time>2026-08-20T19:52:52Z</time></trkpt><trkpt lat="59.1035783663" lon="30.4866013862"><ele>303.91</ele><time>2026-08-20T19:52:53Z</time></trkpt><trkpt lat="59.1035864968" lon="30.4866058286"><ele>303.91</ele><time>2026-08-20T19:52:54Z</time></trkpt><trkpt lat="59.1035917774" lon="30.4866179824"><ele>303.91</ele><time>2026-08-20T19:52:55Z</time></trkpt><trkpt lat="59.1036000755" lon="30.4866292980"><ele>303.91</ele><time>2026-08-20T19:52:56Z</time></trkpt><trkpt lat="59.1036100499" lon="30.4866377637"><ele>303.91</ele><time>2026-08-20T19:52:57Z</time></trkpt><trkpt lat="59.1036156658" lon="30.4866500851"><ele>303.91</ele><time>2026-08-20T19:52:58Z</time></trkpt><trkpt lat="59.1036219522" lon="30.4866634961"><ele>303.91</ele><time>2026-08-20T19:52:59Z</time></trkpt><trkpt lat="59.1036294959" lon="30.4866775777"><ele>303.91</ele><time>2026-08-20T19:53:00Z</time></trkpt><trkpt lat="59.1036345251" lon="30.4866888933"><ele>303.91</ele><time>2026-08-20T19:53:01Z</time></trkpt><trkpt lat="59.1036381293" lon="30.4867001250"><ele>303.91</ele><time>2026-08-20T19:53:02Z</time></trkpt><trkpt lat="59.1036460921" lon="30.4867148772"><ele>303.91</ele><time>2026-08-20T19:53:03Z</time></trkpt><trkpt lat="59.1036566533" lon="30.4867319763"><ele>303.91</ele><time>2026-08-20T19:53:04Z</time></trkpt><trkpt lat="59.1036633588" lon="30.4867459740"><ele>303.91</ele><time>2026-08-20T19:53:05Z</time></trkpt><trkpt lat="59.1036674660" lon="30.4867558647"><ele>303.91</ele><time>2026-08-20T19:53:06Z</time></trkpt><trkpt lat="59.1036751773" lon="30.4867653362"><ele>303.91</ele><time>2026-08-20T19:53:07Z</time></trkpt><trkpt lat="59.1036784463" lon="30.4867776576"><ele>303.91</ele><time>2026-08-20T19:53:08Z</time></trkpt><trkpt lat="59.1036853194" lon="30.4867917392"><ele>303.91</ele><time>2026-08-20T19:53:09Z</time></trkpt><trkpt lat="59.1036933661" lon="30.4868052341"><ele>303.91</ele><time>2026-08-20T19:53:10Z</time></trkpt><trkpt lat="59.1036982276" lon="30.4868154600"><ele>303.91</ele><time>2026-08-20T19:53:11Z</time></trkpt><trkpt lat="59.1037026700" lon="30.4868276976"><ele>303.91</ele><time>2026-08-20T19:53:12Z</time></trkpt><trkpt lat="59.1037104651" lon="30.4868403543"><ele>303.91</ele><time>2026-08-20T19:53:13Z</time></trkpt><trkpt lat="59.1037177574" lon="30.4868499935"><ele>303.91</ele><time>2026-08-20T19:53:14Z</time></trkpt><trkpt lat="59.1037267260" lon="30.4868604708"><ele>303.91</ele><time>2026-08-20T19:53:15Z</time></trkpt><trkpt lat="59.1037368681" lon="30.4868702777"><ele>303.91</ele><time>2026-08-20T19:53:16Z</time></trkpt><trkpt lat="59.1037454177" lon="30.4868772347"><ele>303.91</ele><time>2026-08-20T19:53:17Z</time></trkpt><trkpt lat="59.1037539672" lon="30.4868847784"><ele>303.91</ele><time>2026-08-20T19:53:18Z</time></trkpt><trkpt lat="59.1037612595" lon="30.4868896399"><ele>303.91</ele><time>2026-08-20T19:53:19Z</time></trkpt><trkpt lat="59.1037669592" lon="30.4868925735"><ele>303.91</ele><time>2026-08-20T19:53:20Z</time></trkpt><trkpt lat="59.1037740000" lon="30.4868906457"><ele>303.91</ele><time>2026-08-20T19:53:21Z</time></trkpt><trkpt lat="59.1037846450" lon="30.4868951719"><ele>303.91</ele><time>2026-08-20T19:53:22Z</time></trkpt><trkpt lat="59.1037938651" lon="30.4868994467"><ele>303.91</ele><time>2026-08-20T19:53:23Z</time></trkpt><trkpt lat="59.1038031690" lon="30.4869069904"><ele>303.91</ele><time>2026-08-20T19:53:24Z</time></trkpt><trkpt lat="59.1038129758" lon="30.4869131930"><ele>303.91</ele><time>2026-08-20T19:53:25Z</time></trkpt><trkpt lat="59.1038234532" lon="30.4869113490"><ele>303.91</ele><time>2026-08-20T19:53:26Z</time></trkpt><trkpt lat="59.1038364451" lon="30.4869077448"><ele>303.91</ele><time>2026-08-20T19:53:27Z</time></trkpt><trkpt lat="59.1038494371" lon="30.4869025480"><ele>303.91</ele><time>2026-08-20T19:53:28Z</time></trkpt><trkpt lat="59.1038594954" lon="30.4868937470"><ele>303.91</ele><time>2026-08-20T19:53:29Z</time></trkpt><trkpt lat="59.1038679611" lon="30.4868855327"><ele>303.91</ele><time>2026-08-20T19:53:30Z</time></trkpt><trkpt lat="59.1038765945" lon="30.4868784919"><ele>303.91</ele><time>2026-08-20T19:53:31Z</time></trkpt><trkpt lat="59.1038828809" lon="30.4868675955"><ele>303.91</ele><time>2026-08-20T19:53:32Z</time></trkpt><trkpt lat="59.1038895864" lon="30.4868618958"><ele>303.91</ele><time>2026-08-20T19:53:33Z</time></trkpt><trkpt lat="59.1038946994" lon="30.4868509993"><ele>303.91</ele><time>2026-08-20T19:53:34Z</time></trkpt><trkpt lat="59.1038992256" lon="30.4868479818"><ele>303.91</ele><time>2026-08-20T19:53:35Z</time></trkpt><trkpt lat="59.1039005667" lon="30.4868393485"><ele>303.91</ele><time>2026-08-20T19:53:36Z</time></trkpt><trkpt lat="59.1038987227" lon="30.4868339840"><ele>303.91</ele><time>2026-08-20T19:53:37Z</time></trkpt><trkpt lat="59.1038943641" lon="30.4868265241"><ele>303.91</ele><time>2026-08-20T19:53:38Z</time></trkpt><trkpt lat="59.1038938612" lon="30.4868194833"><ele>303.91</ele><time>2026-08-20T19:53:39Z</time></trkpt><trkpt lat="59.1038938612" lon="30.4868194833"><ele>303.91</ele><time>2026-08-20T19:53:40Z</time></trkpt><trkpt lat="59.1038938612" lon="30.4868194833"><ele>303.91</ele><time>2026-08-20T19:53:41Z</time></trkpt><trkpt lat="59.1038898379" lon="30.4868032224"><ele>303.91</ele><time>2026-08-20T19:53:42Z</time></trkpt><trkpt lat="59.1038896702" lon="30.4867955949"><ele>303.91</ele><time>2026-08-20T19:53:43Z</time></trkpt><trkpt lat="59.1038883291" lon="30.4867867939"><ele>303.91</ele><time>2026-08-20T19:53:44Z</time></trkpt><trkpt lat="59.1038904246" lon="30.4867755622"><ele>303.91</ele><time>2026-08-20T19:53:45Z</time></trkpt><trkpt lat="59.1038906761" lon="30.4867623188"><ele>303.91</ele><time>2026-08-20T19:53:46Z</time></trkpt><trkpt lat="59.1038917657" lon="30.4867495783"><ele>303.91</ele><time>2026-08-20T19:53:47Z</time></trkpt><trkpt lat="59.1038936935" lon="30.4867386818"><ele>303.91</ele><time>2026-08-20T19:53:48Z</time></trkpt><trkpt lat="59.1038947832" lon="30.4867256898"><ele>303.91</ele><time>2026-08-20T19:53:49Z</time></trkpt><trkpt lat="59.1039006505" lon="30.4867133684"><ele>303.91</ele><time>2026-08-20T19:53:50Z</time></trkpt><trkpt lat="59.1039060988" lon="30.4867048189"><ele>303.91</ele><time>2026-08-20T19:53:51Z</time></trkpt><trkpt lat="59.1039128881" lon="30.4866945930"><ele>303.91</ele><time>2026-08-20T19:53:52Z</time></trkpt><trkpt lat="59.1039180849" lon="30.4866809305"><ele>303.91</ele><time>2026-08-20T19:53:53Z</time></trkpt><trkpt lat="59.1039212700" lon="30.4866672680"><ele>303.91</ele><time>2026-08-20T19:53:54Z</time></trkpt><trkpt lat="59.1039242875" lon="30.4866612330"><ele>303.91</ele><time>2026-08-20T19:53:55Z</time></trkpt><trkpt lat="59.1039259639" lon="30.4866613168"><ele>303.91</ele><time>2026-08-20T19:53:56Z</time></trkpt><trkpt lat="59.1039269697" lon="30.4866575450"><ele>303.91</ele><time>2026-08-20T19:53:57Z</time></trkpt><trkpt lat="59.1039269697" lon="30.4866575450"><ele>303.91</ele><time>2026-08-20T19:53:58Z</time></trkpt><trkpt lat="59.1039269697" lon="30.4866575450"><ele>303.91</ele><time>2026-08-20T19:53:59Z</time></trkpt><trkpt lat="59.1039269697" lon="30.4866575450"><ele>303.91</ele><time>2026-08-20T19:54:00Z</time></trkpt><trkpt lat="59.1039321665" lon="30.4866555333"><ele>303.91</ele><time>2026-08-20T19:54:01Z</time></trkpt><trkpt lat="59.1039366927" lon="30.4866576288"><ele>303.91</ele><time>2026-08-20T19:54:02Z</time></trkpt><trkpt lat="59.1039422248" lon="30.4866634961"><ele>303.91</ele><time>2026-08-20T19:54:03Z</time></trkpt><trkpt lat="59.1039473377" lon="30.4866706207"><ele>303.91</ele><time>2026-08-20T19:54:04Z</time></trkpt><trkpt lat="59.1039504390" lon="30.4866803437"><ele>303.91</ele><time>2026-08-20T19:54:05Z</time></trkpt><trkpt lat="59.1039596591" lon="30.4866883904"><ele>303.91</ele><time>2026-08-20T19:54:06Z</time></trkpt><trkpt lat="59.1039649397" lon="30.4866902344"><ele>303.91</ele><time>2026-08-20T19:54:07Z</time></trkpt><trkpt lat="59.1039700527" lon="30.4866918270"><ele>303.91</ele><time>2026-08-20T19:54:08Z</time></trkpt><trkpt lat="59.1039747465" lon="30.4866985325"><ele>303.91</ele><time>2026-08-20T19:54:09Z</time></trkpt><trkpt lat="59.1039817873" lon="30.4867055733"><ele>303.91</ele><time>2026-08-20T19:54:10Z</time></trkpt><trkpt lat="59.1039907560" lon="30.4867108539"><ele>303.91</ele><time>2026-08-20T19:54:11Z</time></trkpt><trkpt lat="59.1039969586" lon="30.4867134523"><ele>303.91</ele><time>2026-08-20T19:54:12Z</time></trkpt><trkpt lat="59.1040032450" lon="30.4867175594"><ele>303.91</ele><time>2026-08-20T19:54:13Z</time></trkpt><trkpt lat="59.1040092800" lon="30.4867214989"><ele>303.91</ele><time>2026-08-20T19:54:14Z</time></trkpt><trkpt lat="59.1040182486" lon="30.4867239296"><ele>303.91</ele><time>2026-08-20T19:54:15Z</time></trkpt><trkpt lat="59.1040279716" lon="30.4867252707"><ele>303.91</ele><time>2026-08-20T19:54:16Z</time></trkpt><trkpt lat="59.1040356830" lon="30.4867236782"><ele>303.91</ele><time>2026-08-20T19:54:17Z</time></trkpt><trkpt lat="59.1040419694" lon="30.4867242649"><ele>303.91</ele><time>2026-08-20T19:54:18Z</time></trkpt><trkpt lat="59.1040523630" lon="30.4867245164"><ele>303.91</ele><time>2026-08-20T19:54:19Z</time></trkpt><trkpt lat="59.1040636785" lon="30.4867188167"><ele>303.91</ele><time>2026-08-20T19:54:20Z</time></trkpt><trkpt lat="59.1040718928" lon="30.4867135361"><ele>303.91</ele><time>2026-08-20T19:54:21Z</time></trkpt><trkpt lat="59.1040822864" lon="30.4867072497"><ele>303.91</ele><time>2026-08-20T19:54:22Z</time></trkpt><trkpt lat="59.1040906683" lon="30.4867046513"><ele>303.91</ele><time>2026-08-20T19:54:23Z</time></trkpt><trkpt lat="59.1041020676" lon="30.4867065791"><ele>303.91</ele><time>2026-08-20T19:54:24Z</time></trkpt><trkpt lat="59.1041103657" lon="30.4867101833"><ele>303.91</ele><time>2026-08-20T19:54:25Z</time></trkpt><trkpt lat="59.1041184962" lon="30.4867145419"><ele>303.91</ele><time>2026-08-20T19:54:26Z</time></trkpt><trkpt lat="59.1041245311" lon="30.4867187329"><ele>303.91</ele><time>2026-08-20T19:54:27Z</time></trkpt><trkpt lat="59.1041327454" lon="30.4867202416"><ele>303.91</ele><time>2026-08-20T19:54:28Z</time></trkpt><trkpt lat="59.1041432228" lon="30.4867213313"><ele>303.91</ele><time>2026-08-20T19:54:29Z</time></trkpt><trkpt lat="59.1041541193" lon="30.4867225885"><ele>303.91</ele><time>2026-08-20T19:54:30Z</time></trkpt><trkpt lat="59.1041644290" lon="30.4867220856"><ele>303.91</ele><time>2026-08-20T19:54:31Z</time></trkpt><trkpt lat="59.1041715536" lon="30.4867220856"><ele>303.91</ele><time>2026-08-20T19:54:32Z</time></trkpt><trkpt lat="59.1041790973" lon="30.4867199901"><ele>303.91</ele><time>2026-08-20T19:54:33Z</time></trkpt><trkpt lat="59.1041863896" lon="30.4867211636"><ele>303.91</ele><time>2026-08-20T19:54:34Z</time></trkpt><trkpt lat="59.1041899938" lon="30.4867195711"><ele>303.91</ele><time>2026-08-20T19:54:35Z</time></trkpt><trkpt lat="59.1041926760" lon="30.4867176432"><ele>303.91</ele><time>2026-08-20T19:54:36Z</time></trkpt><trkpt lat="59.1041959450" lon="30.4867170565"><ele>303.91</ele><time>2026-08-20T19:54:37Z</time></trkpt><trkpt lat="59.1041969508" lon="30.4867176432"><ele>303.91</ele><time>2026-08-20T19:54:38Z</time></trkpt><trkpt lat="59.1041969508" lon="30.4867176432"><ele>303.91</ele><time>2026-08-20T19:54:39Z</time></trkpt><trkpt lat="59.1042048298" lon="30.4867177270"><ele>303.91</ele><time>2026-08-20T19:54:40Z</time></trkpt><trkpt lat="59.1042045783" lon="30.4867143743"><ele>303.91</ele><time>2026-08-20T19:54:41Z</time></trkpt><trkpt lat="59.1042005550" lon="30.4867128655"><ele>303.91</ele><time>2026-08-20T19:54:42Z</time></trkpt><trkpt lat="59.1041995492" lon="30.4867107701"><ele>303.91</ele><time>2026-08-20T19:54:43Z</time></trkpt><trkpt lat="59.1041995492" lon="30.4867107701"><ele>303.91</ele><time>2026-08-20T19:54:44Z</time></trkpt><trkpt lat="59.1041995492" lon="30.4867107701"><ele>303.91</ele><time>2026-08-20T19:54:45Z</time></trkpt><trkpt lat="59.1041978728" lon="30.4867077526"><ele>303.91</ele><time>2026-08-20T19:54:46Z</time></trkpt><trkpt lat="59.1041949391" lon="30.4867161345"><ele>303.91</ele><time>2026-08-20T19:54:47Z</time></trkpt><trkpt lat="59.1041943524" lon="30.4867149610"><ele>303.91</ele><time>2026-08-20T19:54:48Z</time></trkpt><trkpt lat="59.1041933466" lon="30.4867191520"><ele>303.91</ele><time>2026-08-20T19:54:49Z</time></trkpt><trkpt lat="59.1041933466" lon="30.4867191520"><ele>303.91</ele><time>2026-08-20T19:54:50Z</time></trkpt><trkpt lat="59.1041933466" lon="30.4867191520"><ele>303.91</ele><time>2026-08-20T19:54:51Z</time></trkpt><trkpt lat="59.1041933466" lon="30.4867191520"><ele>303.91</ele><time>2026-08-20T19:54:52Z</time></trkpt><trkpt lat="59.1041933466" lon="30.4867191520"><ele>303.91</ele><time>2026-08-20T19:54:53Z</time></trkpt><trkpt lat="59.1041933466" lon="30.4867191520"><ele>303.91</ele><time>2026-08-20T19:54:54Z</time></trkpt><trkpt lat="59.1041933466" lon="30.4867191520"><ele>303.91</ele><time>2026-08-20T19:54:55Z</time></trkpt><trkpt lat="59.1041933466" lon="30.4867191520"><ele>303.91</ele><time>2026-08-20T19:54:56Z</time></trkpt><trkpt lat="59.1041933466" lon="30.4867191520"><ele>303.91</ele><time>2026-08-20T19:54:57Z</time></trkpt><trkpt lat="59.1041933466" lon="30.4867191520"><ele>303.91</ele><time>2026-08-20T19:54:58Z</time></trkpt><trkpt lat="59.1041933466" lon="30.4867191520"><ele>303.91</ele><time>2026-08-20T19:54:59Z</time></trkpt><trkpt lat="59.1041933466" lon="30.4867191520"><ele>303.91</ele><time>2026-08-20T19:55:00Z</time></trkpt><trkpt lat="59.1041933466" lon="30.4867191520"><ele>303.91</ele><time>2026-08-20T19:55:01Z</time></trkpt><trkpt lat="59.1041933466" lon="30.4867191520"><ele>303.91</ele><time>2026-08-20T19:55:02Z</time></trkpt><trkpt lat="59.1041933466" lon="30.4867191520"><ele>303.91</ele><time>2026-08-20T19:55:03Z</time></trkpt><trkpt lat="59.1041933466" lon="30.4867191520"><ele>303.91</ele><time>2026-08-20T19:55:04Z</time></trkpt><trkpt lat="59.1041933466" lon="30.4867191520"><ele>303.91</ele><time>2026-08-20T19:55:05Z</time></trkpt><trkpt lat="59.1041933466" lon="30.4867191520"><ele>303.91</ele><time>2026-08-20T19:55:06Z</time></trkpt><trkpt lat="59.1041933466" lon="30.4867191520"><ele>303.91</ele><time>2026-08-20T19:55:07Z</time></trkpt><trkpt lat="59.1041933466" lon="30.4867191520"><ele>303.91</ele><time>2026-08-20T19:55:08Z</time></trkpt><trkpt lat="59.1041933466" lon="30.4867191520"><ele>303.91</ele><time>2026-08-20T19:55:09Z</time></trkpt><trkpt lat="59.1041933466" lon="30.4867191520"><ele>303.91</ele><time>2026-08-20T19:55:10Z</time></trkpt><trkpt lat="59.1041933466" lon="30.4867191520"><ele>303.91</ele><time>2026-08-20T19:55:11Z</time></trkpt><trkpt lat="59.1041933466" lon="30.4867191520"><ele>303.91</ele><time>2026-08-20T19:55:12Z</time></trkpt><trkpt lat="59.1041933466" lon="30.4867191520"><ele>303.91</ele><time>2026-08-20T19:55:13Z</time></trkpt><trkpt lat="59.1041933466" lon="30.4867191520"><ele>303.91</ele><time>2026-08-20T19:55:14Z</time></trkpt><trkpt lat="59.1041933466" lon="30.4867191520"><ele>303.91</ele><time>2026-08-20T19:55:15Z</time></trkpt><trkpt lat="59.1041933466" lon="30.4867191520"><ele>303.91</ele><time>2026-08-20T19:55:16Z</time></trkpt><trkpt lat="59.1041933466" lon="30.4867191520"><ele>303.91</ele><time>2026-08-20T19:55:17Z</time></trkpt><trkpt lat="59.1041933466" lon="30.4867191520"><ele>303.91</ele><time>2026-08-20T19:55:18Z</time></trkpt><trkpt lat="59.1041933466" lon="30.4867191520"><ele>303.91</ele><time>2026-08-20T19:55:19Z</time></trkpt><trkpt lat="59.1041933466" lon="30.4867191520"><ele>303.91</ele><time>2026-08-20T19:55:20Z</time></trkpt><trkpt lat="59.1041933466" lon="30.4867191520"><ele>303.91</ele><time>2026-08-20T19:55:21Z</time></trkpt><trkpt lat="59.1041933466" lon="30.4867191520"><ele>303.91</ele><time>2026-08-20T19:55:22Z</time></trkpt><trkpt lat="59.1041933466" lon="30.4867191520"><ele>303.91</ele><time>2026-08-20T19:55:23Z</time></trkpt><trkpt lat="59.1041933466" lon="30.4867191520"><ele>303.43</ele><time>2026-08-20T19:55:24Z</time></trkpt><trkpt lat="59.1041933466" lon="30.4867191520"><ele>303.43</ele><time>2026-08-20T19:55:25Z</time></trkpt><trkpt lat="59.1041933466" lon="30.4867191520"><ele>303.43</ele><time>2026-08-20T19:55:26Z</time></trkpt><trkpt lat="59.1041933466" lon="30.4867191520"><ele>303.43</ele><time>2026-08-20T19:55:27Z</time></trkpt><trkpt lat="59.1041933466" lon="30.4867191520"><ele>303.43</ele><time>2026-08-20T19:55:28Z</time></trkpt><trkpt lat="59.1041933466" lon="30.4867191520"><ele>303.43</ele><time>2026-08-20T19:55:29Z</time></trkpt><trkpt lat="59.1041933466" lon="30.4867191520"><ele>303.43</ele><time>2026-08-20T19:55:30Z</time></trkpt><trkpt lat="59.1041933466" lon="30.4867191520"><ele>303.43</ele><time>2026-08-20T19:55:31Z</time></trkpt><trkpt lat="59.1041933466" lon="30.4867191520"><ele>303.43</ele><time>2026-08-20T19:55:32Z</time></trkpt><trkpt lat="59.1041933466" lon="30.4867191520"><ele>303.43</ele><time>2026-08-20T19:55:33Z</time></trkpt><trkpt lat="59.1041933466" lon="30.4867191520"><ele>303.43</ele><time>2026-08-20T19:55:34Z</time></trkpt><trkpt lat="59.1041933466" lon="30.4867191520"><ele>303.43</ele><time>2026-08-20T19:55:35Z</time></trkpt><trkpt lat="59.1041933466" lon="30.4867191520"><ele>303.43</ele><time>2026-08-20T19:55:36Z</time></trkpt><trkpt lat="59.1041933466" lon="30.4867191520"><ele>303.43</ele><time>2026-08-20T19:55:37Z</time></trkpt><trkpt lat="59.1041933466" lon="30.4867191520"><ele>303.43</ele><time>2026-08-20T19:55:38Z</time></trkpt><trkpt lat="59.1041933466" lon="30.4867191520"><ele>303.43</ele><time>2026-08-20T19:55:39Z</time></trkpt><trkpt lat="59.1041933466" lon="30.4867191520"><ele>303.43</ele><time>2026-08-20T19:55:40Z</time></trkpt><trkpt lat="59.1041933466" lon="30.4867191520"><ele>303.43</ele><time>2026-08-20T19:55:41Z</time></trkpt><trkpt lat="59.1041933466" lon="30.4867191520"><ele>303.43</ele><time>2026-08-20T19:55:42Z</time></trkpt><trkpt lat="59.1041933466" lon="30.4867191520"><ele>303.43</ele><time>2026-08-20T19:55:43Z</time></trkpt><trkpt lat="59.1041933466" lon="30.4867191520"><ele>303.43</ele><time>2026-08-20T19:55:44Z</time></trkpt><trkpt lat="59.1041933466" lon="30.4867191520"><ele>303.43</ele><time>2026-08-20T19:55:45Z</time></trkpt><trkpt lat="59.1041933466" lon="30.4867191520"><ele>303.43</ele><time>2026-08-20T19:55:46Z</time></trkpt><trkpt lat="59.1041933466" lon="30.4867191520"><ele>303.43</ele><time>2026-08-20T19:55:47Z</time></trkpt><trkpt lat="59.1041933466" lon="30.4867191520"><ele>303.43</ele><time>2026-08-20T19:55:48Z</time></trkpt><trkpt lat="59.1041933466" lon="30.4867191520"><ele>303.43</ele><time>2026-08-20T19:55:49Z</time></trkpt><trkpt lat="59.1041933466" lon="30.4867191520"><ele>303.43</ele><time>2026-08-20T19:55:50Z</time></trkpt><trkpt lat="59.1041933466" lon="30.4867191520"><ele>303.43</ele><time>2026-08-20T19:55:51Z</time></trkpt><trkpt lat="59.1041933466" lon="30.4867191520"><ele>303.43</ele><time>2026-08-20T19:55:52Z</time></trkpt><trkpt lat="59.1041933466" lon="30.4867191520"><ele>303.43</ele><time>2026-08-20T19:55:53Z</time></trkpt><trkpt lat="59.1042055842" lon="30.4867449682"><ele>303.43</ele><time>2026-08-20T19:55:54Z</time></trkpt><trkpt lat="59.1042049974" lon="30.4867451359"><ele>303.43</ele><time>2026-08-20T19:55:55Z</time></trkpt><trkpt lat="59.1042055842" lon="30.4867439624"><ele>303.43</ele><time>2026-08-20T19:55:56Z</time></trkpt><trkpt lat="59.1042040754" lon="30.4867452197"><ele>303.43</ele><time>2026-08-20T19:55:57Z</time></trkpt><trkpt lat="59.1042040754" lon="30.4867452197"><ele>303.43</ele><time>2026-08-20T19:55:58Z</time></trkpt><trkpt lat="59.1042040754" lon="30.4867452197"><ele>303.43</ele><time>2026-08-20T19:55:59Z</time></trkpt><trkpt lat="59.1042040754" lon="30.4867452197"><ele>303.43</ele><time>2026-08-20T19:56:00Z</time></trkpt><trkpt lat="59.1042040754" lon="30.4867452197"><ele>303.43</ele><time>2026-08-20T19:56:01Z</time></trkpt><trkpt lat="59.1042040754" lon="30.4867452197"><ele>303.43</ele><time>2026-08-20T19:56:02Z</time></trkpt><trkpt lat="59.1042040754" lon="30.4867452197"><ele>303.43</ele><time>2026-08-20T19:56:03Z</time></trkpt><trkpt lat="59.1042040754" lon="30.4867452197"><ele>303.43</ele><time>2026-08-20T19:56:04Z</time></trkpt><trkpt lat="59.1042040754" lon="30.4867452197"><ele>303.43</ele><time>2026-08-20T19:56:05Z</time></trkpt><trkpt lat="59.1042040754" lon="30.4867452197"><ele>303.43</ele><time>2026-08-20T19:56:06Z</time></trkpt><trkpt lat="59.1042040754" lon="30.4867452197"><ele>303.43</ele><time>2026-08-20T19:56:07Z</time></trkpt><trkpt lat="59.1042040754" lon="30.4867452197"><ele>303.43</ele><time>2026-08-20T19:56:08Z</time></trkpt><trkpt lat="59.1042040754" lon="30.4867452197"><ele>303.43</ele><time>2026-08-20T19:56:09Z</time></trkpt><trkpt lat="59.1042040754" lon="30.4867452197"><ele>303.43</ele><time>2026-08-20T19:56:10Z</time></trkpt><trkpt lat="59.1042040754" lon="30.4867452197"><ele>303.43</ele><time>2026-08-20T19:56:11Z</time></trkpt><trkpt lat="59.1042040754" lon="30.4867452197"><ele>303.43</ele><time>2026-08-20T19:56:12Z</time></trkpt><trkpt lat="59.1042040754" lon="30.4867452197"><ele>303.43</ele><time>2026-08-20T19:56:13Z</time></trkpt><trkpt lat="59.1042040754" lon="30.4867452197"><ele>303.43</ele><time>2026-08-20T19:56:14Z</time></trkpt><trkpt lat="59.1042040754" lon="30.4867452197"><ele>303.43</ele><time>2026-08-20T19:56:15Z</time></trkpt><trkpt lat="59.1042040754" lon="30.4867452197"><ele>303.43</ele><time>2026-08-20T19:56:16Z</time></trkpt><trkpt lat="59.1042040754" lon="30.4867452197"><ele>303.43</ele><time>2026-08-20T19:56:17Z</time></trkpt><trkpt lat="59.1042040754" lon="30.4867452197"><ele>303.43</ele><time>2026-08-20T19:56:18Z</time></trkpt><trkpt lat="59.1042040754" lon="30.4867452197"><ele>303.43</ele><time>2026-08-20T19:56:19Z</time></trkpt><trkpt lat="59.1042040754" lon="30.4867452197"><ele>303.43</ele><time>2026-08-20T19:56:20Z</time></trkpt><trkpt lat="59.1042040754" lon="30.4867452197"><ele>303.43</ele><time>2026-08-20T19:56:21Z</time></trkpt><trkpt lat="59.1042040754" lon="30.4867452197"><ele>303.43</ele><time>2026-08-20T19:56:22Z</time></trkpt><trkpt lat="59.1042040754" lon="30.4867452197"><ele>303.43</ele><time>2026-08-20T19:56:23Z</time></trkpt><trkpt lat="59.1042040754" lon="30.4867452197"><ele>303.43</ele><time>2026-08-20T19:56:24Z</time></trkpt><trkpt lat="59.1042040754" lon="30.4867452197"><ele>303.43</ele><time>2026-08-20T19:56:25Z</time></trkpt><trkpt lat="59.1042040754" lon="30.4867452197"><ele>303.43</ele><time>2026-08-20T19:56:26Z</time></trkpt><trkpt lat="59.1042040754" lon="30.4867452197"><ele>303.43</ele><time>2026-08-20T19:56:27Z</time></trkpt><trkpt lat="59.1042040754" lon="30.4867452197"><ele>303.43</ele><time>2026-08-20T19:56:28Z</time></trkpt><trkpt lat="59.1042040754" lon="30.4867452197"><ele>303.43</ele><time>2026-08-20T19:56:29Z</time></trkpt><trkpt lat="59.1042040754" lon="30.4867452197"><ele>303.43</ele><time>2026-08-20T19:56:30Z</time></trkpt><trkpt lat="59.1042117868" lon="30.4867455550"><ele>303.43</ele><time>2026-08-20T19:56:31Z</time></trkpt><trkpt lat="59.1042159777" lon="30.4867469799"><ele>303.43</ele><time>2026-08-20T19:56:32Z</time></trkpt><trkpt lat="59.1042191628" lon="30.4867490754"><ele>303.43</ele><time>2026-08-20T19:56:33Z</time></trkpt><trkpt lat="59.1042199172" lon="30.4867507517"><ele>303.43</ele><time>2026-08-20T19:56:34Z</time></trkpt><trkpt lat="59.1042201687" lon="30.4867521767"><ele>303.43</ele><time>2026-08-20T19:56:35Z</time></trkpt><trkpt lat="59.1042163968" lon="30.4867560323"><ele>303.43</ele><time>2026-08-20T19:56:36Z</time></trkpt><trkpt lat="59.1042163968" lon="30.4867560323"><ele>303.43</ele><time>2026-08-20T19:56:37Z</time></trkpt><trkpt lat="59.1042163968" lon="30.4867560323"><ele>303.43</ele><time>2026-08-20T19:56:38Z</time></trkpt><trkpt lat="59.1042163968" lon="30.4867560323"><ele>303.43</ele><time>2026-08-20T19:56:39Z</time></trkpt><trkpt lat="59.1042163968" lon="30.4867560323"><ele>303.43</ele><time>2026-08-20T19:56:40Z</time></trkpt><trkpt lat="59.1042163968" lon="30.4867560323"><ele>303.43</ele><time>2026-08-20T19:56:41Z</time></trkpt><trkpt lat="59.1042163968" lon="30.4867560323"><ele>303.43</ele><time>2026-08-20T19:56:42Z</time></trkpt><trkpt lat="59.1042163968" lon="30.4867560323"><ele>303.43</ele><time>2026-08-20T19:56:43Z</time></trkpt><trkpt lat="59.1042163968" lon="30.4867560323"><ele>303.43</ele><time>2026-08-20T19:56:44Z</time></trkpt><trkpt lat="59.1042163968" lon="30.4867560323"><ele>303.43</ele><time>2026-08-20T19:56:45Z</time></trkpt><trkpt lat="59.1042163968" lon="30.4867560323"><ele>303.43</ele><time>2026-08-20T19:56:46Z</time></trkpt><trkpt lat="59.1042163968" lon="30.4867560323"><ele>303.43</ele><time>2026-08-20T19:56:47Z</time></trkpt><trkpt lat="59.1042163968" lon="30.4867560323"><ele>303.43</ele><time>2026-08-20T19:56:48Z</time></trkpt><trkpt lat="59.1042163968" lon="30.4867560323"><ele>303.43</ele><time>2026-08-20T19:56:49Z</time></trkpt><trkpt lat="59.1042163968" lon="30.4867560323"><ele>303.43</ele><time>2026-08-20T19:56:50Z</time></trkpt><trkpt lat="59.1042163968" lon="30.4867560323"><ele>303.43</ele><time>2026-08-20T19:56:51Z</time></trkpt><trkpt lat="59.1042163968" lon="30.4867560323"><ele>303.43</ele><time>2026-08-20T19:56:52Z</time></trkpt><trkpt lat="59.1042163968" lon="30.4867560323"><ele>303.43</ele><time>2026-08-20T19:56:53Z</time></trkpt><trkpt lat="59.1042163968" lon="30.4867560323"><ele>303.43</ele><time>2026-08-20T19:56:54Z</time></trkpt><trkpt lat="59.1042163968" lon="30.4867560323"><ele>303.43</ele><time>2026-08-20T19:56:55Z</time></trkpt><trkpt lat="59.1042163968" lon="30.4867560323"><ele>303.43</ele><time>2026-08-20T19:56:56Z</time></trkpt><trkpt lat="59.1042163968" lon="30.4867560323"><ele>303.43</ele><time>2026-08-20T19:56:57Z</time></trkpt><trkpt lat="59.1042163968" lon="30.4867560323"><ele>303.43</ele><time>2026-08-20T19:56:58Z</time></trkpt><trkpt lat="59.1042163968" lon="30.4867560323"><ele>303.43</ele><time>2026-08-20T19:56:59Z</time></trkpt><trkpt lat="59.1042163968" lon="30.4867560323"><ele>303.43</ele><time>2026-08-20T19:57:00Z</time></trkpt><trkpt lat="59.1042163968" lon="30.4867560323"><ele>303.43</ele><time>2026-08-20T19:57:01Z</time></trkpt><trkpt lat="59.1042163968" lon="30.4867560323"><ele>303.43</ele><time>2026-08-20T19:57:02Z</time></trkpt><trkpt lat="59.1042163968" lon="30.4867560323"><ele>303.43</ele><time>2026-08-20T19:57:03Z</time></trkpt><trkpt lat="59.1042163968" lon="30.4867560323"><ele>303.43</ele><time>2026-08-20T19:57:04Z</time></trkpt><trkpt lat="59.1042163968" lon="30.4867560323"><ele>303.43</ele><time>2026-08-20T19:57:05Z</time></trkpt><trkpt lat="59.1042163968" lon="30.4867560323"><ele>303.43</ele><time>2026-08-20T19:57:06Z</time></trkpt><trkpt lat="59.1042163968" lon="30.4867560323"><ele>303.43</ele><time>2026-08-20T19:57:07Z</time></trkpt><trkpt lat="59.1042163968" lon="30.4867560323"><ele>303.43</ele><time>2026-08-20T19:57:08Z</time></trkpt><trkpt lat="59.1042163968" lon="30.4867560323"><ele>303.43</ele><time>2026-08-20T19:57:09Z</time></trkpt><trkpt lat="59.1042163968" lon="30.4867560323"><ele>303.43</ele><time>2026-08-20T19:57:10Z</time></trkpt><trkpt lat="59.1042163968" lon="30.4867560323"><ele>303.43</ele><time>2026-08-20T19:57:11Z</time></trkpt><trkpt lat="59.1042163968" lon="30.4867560323"><ele>303.43</ele><time>2026-08-20T19:57:12Z</time></trkpt><trkpt lat="59.1042163968" lon="30.4867560323"><ele>303.43</ele><time>2026-08-20T19:57:13Z</time></trkpt><trkpt lat="59.1042163968" lon="30.4867560323"><ele>303.43</ele><time>2026-08-20T19:57:14Z</time></trkpt><trkpt lat="59.1042163968" lon="30.4867560323"><ele>303.43</ele><time>2026-08-20T19:57:15Z</time></trkpt><trkpt lat="59.1042163968" lon="30.4867560323"><ele>303.43</ele><time>2026-08-20T19:57:16Z</time></trkpt><trkpt lat="59.1042163968" lon="30.4867560323"><ele>303.43</ele><time>2026-08-20T19:57:17Z</time></trkpt><trkpt lat="59.1042163968" lon="30.4867560323"><ele>303.43</ele><time>2026-08-20T19:57:18Z</time></trkpt><trkpt lat="59.1042163968" lon="30.4867560323"><ele>303.43</ele><time>2026-08-20T19:57:19Z</time></trkpt><trkpt lat="59.1042163968" lon="30.4867560323"><ele>303.43</ele><time>2026-08-20T19:57:20Z</time></trkpt><trkpt lat="59.1042163968" lon="30.4867560323"><ele>303.43</ele><time>2026-08-20T19:57:21Z</time></trkpt><trkpt lat="59.1042163968" lon="30.4867560323"><ele>303.43</ele><time>2026-08-20T19:57:22Z</time></trkpt><trkpt lat="59.1042163968" lon="30.4867560323"><ele>303.43</ele><time>2026-08-20T19:57:23Z</time></trkpt><trkpt lat="59.1042163968" lon="30.4867560323"><ele>303.43</ele><time>2026-08-20T19:57:24Z</time></trkpt><trkpt lat="59.1042163968" lon="30.4867560323"><ele>303.43</ele><time>2026-08-20T19:57:25Z</time></trkpt><trkpt lat="59.1042163968" lon="30.4867560323"><ele>303.43</ele><time>2026-08-20T19:57:26Z</time></trkpt><trkpt lat="59.1042163968" lon="30.4867560323"><ele>303.43</ele><time>2026-08-20T19:57:27Z</time></trkpt><trkpt lat="59.1042163968" lon="30.4867560323"><ele>303.43</ele><time>2026-08-20T19:57:28Z</time></trkpt><trkpt lat="59.1042163968" lon="30.4867560323"><ele>303.43</ele><time>2026-08-20T19:57:29Z</time></trkpt><trkpt lat="59.1042163968" lon="30.4867560323"><ele>303.43</ele><time>2026-08-20T19:57:30Z</time></trkpt><trkpt lat="59.1042163968" lon="30.4867560323"><ele>303.43</ele><time>2026-08-20T19:57:31Z</time></trkpt><trkpt lat="59.1042163968" lon="30.4867560323"><ele>303.43</ele><time>2026-08-20T19:57:32Z</time></trkpt><trkpt lat="59.1042163968" lon="30.4867560323"><ele>303.43</ele><time>2026-08-20T19:57:33Z</time></trkpt><trkpt lat="59.1042163968" lon="30.4867560323"><ele>303.43</ele><time>2026-08-20T19:57:34Z</time></trkpt><trkpt lat="59.1042163968" lon="30.4867560323"><ele>303.43</ele><time>2026-08-20T19:57:35Z</time></trkpt><trkpt lat="59.1042163968" lon="30.4867560323"><ele>303.43</ele><time>2026-08-20T19:57:36Z</time></trkpt><trkpt lat="59.1042163968" lon="30.4867560323"><ele>303.43</ele><time>2026-08-20T19:57:37Z</time></trkpt><trkpt lat="59.1042163968" lon="30.4867560323"><ele>303.43</ele><time>2026-08-20T19:57:38Z</time></trkpt><trkpt lat="59.1042163968" lon="30.4867560323"><ele>303.43</ele><time>2026-08-20T19:57:39Z</time></trkpt><trkpt lat="59.1042163968" lon="30.4867560323"><ele>303.43</ele><time>2026-08-20T19:57:40Z</time></trkpt><trkpt lat="59.1042163968" lon="30.4867560323"><ele>303.43</ele><time>2026-08-20T19:57:41Z</time></trkpt><trkpt lat="59.1042163968" lon="30.4867560323"><ele>303.43</ele><time>2026-08-20T19:57:42Z</time></trkpt><trkpt lat="59.1042163968" lon="30.4867560323"><ele>303.43</ele><time>2026-08-20T19:57:43Z</time></trkpt><trkpt lat="59.1042163968" lon="30.4867560323"><ele>303.43</ele><time>2026-08-20T19:57:44Z</time></trkpt><trkpt lat="59.1042163968" lon="30.4867560323"><ele>303.43</ele><time>2026-08-20T19:57:45Z</time></trkpt><trkpt lat="59.1042163968" lon="30.4867560323"><ele>303.43</ele><time>2026-08-20T19:57:46Z</time></trkpt><trkpt lat="59.1042163968" lon="30.4867560323"><ele>303.43</ele><time>2026-08-20T19:57:47Z</time></trkpt><trkpt lat="59.1042163968" lon="30.4867560323"><ele>303.43</ele><time>2026-08-20T19:57:48Z</time></trkpt><trkpt lat="59.1042163968" lon="30.4867560323"><ele>303.43</ele><time>2026-08-20T19:57:49Z</time></trkpt><trkpt lat="59.1042163968" lon="30.4867560323"><ele>303.43</ele><time>2026-08-20T19:57:50Z</time></trkpt><trkpt lat="59.1042163968" lon="30.4867560323"><ele>303.43</ele><time>2026-08-20T19:57:51Z</time></trkpt><trkpt lat="59.1042163968" lon="30.4867560323"><ele>303.43</ele><time>2026-08-20T19:57:52Z</time></trkpt><trkpt lat="59.1042163968" lon="30.4867560323"><ele>303.43</ele><time>2026-08-20T19:57:53Z</time></trkpt><trkpt lat="59.1042163968" lon="30.4867560323"><ele>303.43</ele><time>2026-08-20T19:57:54Z</time></trkpt><trkpt lat="59.1042163968" lon="30.4867560323"><ele>303.43</ele><time>2026-08-20T19:57:55Z</time></trkpt><trkpt lat="59.1042163968" lon="30.4867560323"><ele>303.43</ele><time>2026-08-20T19:57:56Z</time></trkpt><trkpt lat="59.1042163968" lon="30.4867560323"><ele>303.43</ele><time>2026-08-20T19:57:57Z</time></trkpt><trkpt lat="59.1042163968" lon="30.4867560323"><ele>303.43</ele><time>2026-08-20T19:57:58Z</time></trkpt><trkpt lat="59.1042163968" lon="30.4867560323"><ele>303.43</ele><time>2026-08-20T19:57:59Z</time></trkpt><trkpt lat="59.1042163968" lon="30.4867560323"><ele>303.43</ele><time>2026-08-20T19:58:00Z</time></trkpt><trkpt lat="59.1042163968" lon="30.4867560323"><ele>303.43</ele><time>2026-08-20T19:58:01Z</time></trkpt><trkpt lat="59.1042163968" lon="30.4867560323"><ele>303.43</ele><time>2026-08-20T19:58:02Z</time></trkpt><trkpt lat="59.1042163968" lon="30.4867560323"><ele>303.43</ele><time>2026-08-20T19:58:03Z</time></trkpt><trkpt lat="59.1042163968" lon="30.4867560323"><ele>303.43</ele><time>2026-08-20T19:58:04Z</time></trkpt><trkpt lat="59.1042163968" lon="30.4867560323"><ele>303.43</ele><time>2026-08-20T19:58:05Z</time></trkpt><trkpt lat="59.1042163968" lon="30.4867560323"><ele>303.43</ele><time>2026-08-20T19:58:06Z</time></trkpt><trkpt lat="59.1042163968" lon="30.4867560323"><ele>303.43</ele><time>2026-08-20T19:58:07Z</time></trkpt><trkpt lat="59.1042163968" lon="30.4867560323"><ele>303.43</ele><time>2026-08-20T19:58:08Z</time></trkpt><trkpt lat="59.1042163968" lon="30.4867560323"><ele>303.43</ele><time>2026-08-20T19:58:09Z</time></trkpt><trkpt lat="59.1042163968" lon="30.4867560323"><ele>303.43</ele><time>2026-08-20T19:58:10Z</time></trkpt><trkpt lat="59.1042163968" lon="30.4867560323"><ele>303.43</ele><time>2026-08-20T19:58:11Z</time></trkpt><trkpt lat="59.1042163968" lon="30.4867560323"><ele>303.43</ele><time>2026-08-20T19:58:12Z</time></trkpt><trkpt lat="59.1042163968" lon="30.4867560323"><ele>303.43</ele><time>2026-08-20T19:58:13Z</time></trkpt><trkpt lat="59.1042163968" lon="30.4867560323"><ele>303.43</ele><time>2026-08-20T19:58:14Z</time></trkpt><trkpt lat="59.1042163968" lon="30.4867560323"><ele>303.43</ele><time>2026-08-20T19:58:15Z</time></trkpt><trkpt lat="59.1042163968" lon="30.4867560323"><ele>303.43</ele><time>2026-08-20T19:58:16Z</time></trkpt><trkpt lat="59.1042163968" lon="30.4867560323"><ele>303.43</ele><time>2026-08-20T19:58:17Z</time></trkpt><trkpt lat="59.1042163968" lon="30.4867560323"><ele>303.43</ele><time>2026-08-20T19:58:18Z</time></trkpt><trkpt lat="59.1042163968" lon="30.4867560323"><ele>303.43</ele><time>2026-08-20T19:58:19Z</time></trkpt><trkpt lat="59.1042163968" lon="30.4867560323"><ele>303.43</ele><time>2026-08-20T19:58:20Z</time></trkpt><trkpt lat="59.1042163968" lon="30.4867560323"><ele>303.43</ele><time>2026-08-20T19:58:21Z</time></trkpt><trkpt lat="59.1042163968" lon="30.4867560323"><ele>303.43</ele><time>2026-08-20T19:58:22Z</time></trkpt><trkpt lat="59.1042163968" lon="30.4867560323"><ele>303.43</ele><time>2026-08-20T19:58:23Z</time></trkpt><trkpt lat="59.1042163968" lon="30.4867560323"><ele>303.43</ele><time>2026-08-20T19:58:24Z</time></trkpt><trkpt lat="59.1042163968" lon="30.4867560323"><ele>303.43</ele><time>2026-08-20T19:58:25Z</time></trkpt><trkpt lat="59.1042163968" lon="30.4867560323"><ele>303.43</ele><time>2026-08-20T19:58:26Z</time></trkpt><trkpt lat="59.1042163968" lon="30.4867560323"><ele>303.43</ele><time>2026-08-20T19:58:27Z</time></trkpt><trkpt lat="59.1042163968" lon="30.4867560323"><ele>303.43</ele><time>2026-08-20T19:58:28Z</time></trkpt><trkpt lat="59.1042163968" lon="30.4867560323"><ele>303.43</ele><time>2026-08-20T19:58:29Z</time></trkpt><trkpt lat="59.1042163968" lon="30.4867560323"><ele>303.43</ele><time>2026-08-20T19:58:30Z</time></trkpt><trkpt lat="59.1042163968" lon="30.4867560323"><ele>303.43</ele><time>2026-08-20T19:58:31Z</time></trkpt><trkpt lat="59.1042163968" lon="30.4867560323"><ele>303.43</ele><time>2026-08-20T19:58:32Z</time></trkpt><trkpt lat="59.1042163968" lon="30.4867560323"><ele>303.43</ele><time>2026-08-20T19:58:33Z</time></trkpt><trkpt lat="59.1042163968" lon="30.4867560323"><ele>303.43</ele><time>2026-08-20T19:58:34Z</time></trkpt><trkpt lat="59.1042163968" lon="30.4867560323"><ele>303.43</ele><time>2026-08-20T19:58:35Z</time></trkpt><trkpt lat="59.1042163968" lon="30.4867560323"><ele>303.43</ele><time>2026-08-20T19:58:36Z</time></trkpt><trkpt lat="59.1042163968" lon="30.4867560323"><ele>303.43</ele><time>2026-08-20T19:58:37Z</time></trkpt><trkpt lat="59.1042163968" lon="30.4867560323"><ele>303.43</ele><time>2026-08-20T19:58:38Z</time></trkpt><trkpt lat="59.1042163968" lon="30.4867560323"><ele>303.43</ele><time>2026-08-20T19:58:39Z</time></trkpt><trkpt lat="59.1042163968" lon="30.4867560323"><ele>303.43</ele><time>2026-08-20T19:58:40Z</time></trkpt><trkpt lat="59.1042163968" lon="30.4867560323"><ele>303.43</ele><time>2026-08-20T19:58:41Z</time></trkpt><trkpt lat="59.1042163968" lon="30.4867560323"><ele>303.43</ele><time>2026-08-20T19:58:42Z</time></trkpt><trkpt lat="59.1042163968" lon="30.4867560323"><ele>303.43</ele><time>2026-08-20T19:58:43Z</time></trkpt><trkpt lat="59.1042163968" lon="30.4867560323"><ele>303.43</ele><time>2026-08-20T19:58:44Z</time></trkpt><trkpt lat="59.1042163968" lon="30.4867560323"><ele>303.43</ele><time>2026-08-20T19:58:45Z</time></trkpt><trkpt lat="59.1042163968" lon="30.4867560323"><ele>303.43</ele><time>2026-08-20T19:58:46Z</time></trkpt><trkpt lat="59.1042163968" lon="30.4867560323"><ele>303.43</ele><time>2026-08-20T19:58:47Z</time></trkpt><trkpt lat="59.1042163968" lon="30.4867560323"><ele>303.43</ele><time>2026-08-20T19:58:48Z</time></trkpt><trkpt lat="59.1042163968" lon="30.4867560323"><ele>303.43</ele><time>2026-08-20T19:58:49Z</time></trkpt><trkpt lat="59.1042163968" lon="30.4867560323"><ele>303.43</ele><time>2026-08-20T19:58:50Z</time></trkpt><trkpt lat="59.1042163968" lon="30.4867560323"><ele>303.43</ele><time>2026-08-20T19:58:51Z</time></trkpt><trkpt lat="59.1042163968" lon="30.4867560323"><ele>303.43</ele><time>2026-08-20T19:58:52Z</time></trkpt><trkpt lat="59.1042163968" lon="30.4867560323"><ele>303.43</ele><time>2026-08-20T19:58:53Z</time></trkpt><trkpt lat="59.1042163968" lon="30.4867560323"><ele>303.43</ele><time>2026-08-20T19:58:54Z</time></trkpt><trkpt lat="59.1042163968" lon="30.4867560323"><ele>303.43</ele><time>2026-08-20T19:58:55Z</time></trkpt><trkpt lat="59.1042163968" lon="30.4867560323"><ele>303.43</ele><time>2026-08-20T19:58:56Z</time></trkpt><trkpt lat="59.1042163968" lon="30.4867560323"><ele>303.43</ele><time>2026-08-20T19:58:57Z</time></trkpt><trkpt lat="59.1042163968" lon="30.4867560323"><ele>303.43</ele><time>2026-08-20T19:58:58Z</time></trkpt><trkpt lat="59.1042163968" lon="30.4867560323"><ele>303.43</ele><time>2026-08-20T19:58:59Z</time></trkpt><trkpt lat="59.1042163968" lon="30.4867560323"><ele>303.43</ele><time>2026-08-20T19:59:00Z</time></trkpt><trkpt lat="59.1042163968" lon="30.4867560323"><ele>303.43</ele><time>2026-08-20T19:59:01Z</time></trkpt><trkpt lat="59.1042163968" lon="30.4867560323"><ele>303.43</ele><time>2026-08-20T19:59:02Z</time></trkpt><trkpt lat="59.1042163968" lon="30.4867560323"><ele>303.43</ele><time>2026-08-20T19:59:03Z</time></trkpt><trkpt lat="59.1042163968" lon="30.4867560323"><ele>303.43</ele><time>2026-08-20T19:59:04Z</time></trkpt><trkpt lat="59.1042163968" lon="30.4867560323"><ele>303.43</ele><time>2026-08-20T19:59:05Z</time></trkpt><trkpt lat="59.1042163968" lon="30.4867560323"><ele>303.43</ele><time>2026-08-20T19:59:06Z</time></trkpt><trkpt lat="59.1042163968" lon="30.4867560323"><ele>303.43</ele><time>2026-08-20T19:59:07Z</time></trkpt><trkpt lat="59.1042163968" lon="30.4867560323"><ele>303.43</ele><time>2026-08-20T19:59:08Z</time></trkpt><trkpt lat="59.1042163968" lon="30.4867560323"><ele>303.43</ele><time>2026-08-20T19:59:09Z</time></trkpt><trkpt lat="59.1042163968" lon="30.4867560323"><ele>303.43</ele><time>2026-08-20T19:59:10Z</time></trkpt><trkpt lat="59.1042163968" lon="30.4867560323"><ele>303.43</ele><time>2026-08-20T19:59:11Z</time></trkpt><trkpt lat="59.1042163968" lon="30.4867560323"><ele>303.43</ele><time>2026-08-20T19:59:12Z</time></trkpt><trkpt lat="59.1042163968" lon="30.4867560323"><ele>303.43</ele><time>2026-08-20T19:59:13Z</time></trkpt><trkpt lat="59.1042163968" lon="30.4867560323"><ele>303.43</ele><time>2026-08-20T19:59:14Z</time></trkpt><trkpt lat="59.1042163968" lon="30.4867560323"><ele>303.43</ele><time>2026-08-20T19:59:15Z</time></trkpt><trkpt lat="59.1042163968" lon="30.4867560323"><ele>303.43</ele><time>2026-08-20T19:59:16Z</time></trkpt><trkpt lat="59.1042163968" lon="30.4867560323"><ele>303.43</ele><time>2026-08-20T19:59:17Z</time></trkpt><trkpt lat="59.1042163968" lon="30.4867560323"><ele>303.43</ele><time>2026-08-20T19:59:18Z</time></trkpt><trkpt lat="59.1042163968" lon="30.4867560323"><ele>303.43</ele><time>2026-08-20T19:59:19Z</time></trkpt><trkpt lat="59.1042163968" lon="30.4867560323"><ele>303.43</ele><time>2026-08-20T19:59:20Z</time></trkpt><trkpt lat="59.1042163968" lon="30.4867560323"><ele>303.43</ele><time>2026-08-20T19:59:21Z</time></trkpt><trkpt lat="59.1042163968" lon="30.4867560323"><ele>303.43</ele><time>2026-08-20T19:59:22Z</time></trkpt><trkpt lat="59.1042163968" lon="30.4867560323"><ele>303.43</ele><time>2026-08-20T19:59:23Z</time></trkpt><trkpt lat="59.1042163968" lon="30.4867560323"><ele>303.43</ele><time>2026-08-20T19:59:24Z</time></trkpt><trkpt lat="59.1042163968" lon="30.4867560323"><ele>303.43</ele><time>2026-08-20T19:59:25Z</time></trkpt><trkpt lat="59.1042163968" lon="30.4867560323"><ele>303.43</ele><time>2026-08-20T19:59:26Z</time></trkpt><trkpt lat="59.1042163968" lon="30.4867560323"><ele>303.43</ele><time>2026-08-20T19:59:27Z</time></trkpt><trkpt lat="59.1042163968" lon="30.4867560323"><ele>303.43</ele><time>2026-08-20T19:59:28Z</time></trkpt><trkpt lat="59.1042163968" lon="30.4867560323"><ele>303.43</ele><time>2026-08-20T19:59:29Z</time></trkpt><trkpt lat="59.1042163968" lon="30.4867560323"><ele>303.43</ele><time>2026-08-20T19:59:30Z</time></trkpt><trkpt lat="59.1042163968" lon="30.4867560323"><ele>303.43</ele><time>2026-08-20T19:59:31Z</time></trkpt><trkpt lat="59.1042163968" lon="30.4867560323"><ele>303.43</ele><time>2026-08-20T19:59:32Z</time></trkpt><trkpt lat="59.1042163968" lon="30.4867560323"><ele>303.43</ele><time>2026-08-20T19:59:33Z</time></trkpt><trkpt lat="59.1042163968" lon="30.4867560323"><ele>303.43</ele><time>2026-08-20T19:59:34Z</time></trkpt><trkpt lat="59.1042163968" lon="30.4867560323"><ele>303.43</ele><time>2026-08-20T19:59:35Z</time></trkpt><trkpt lat="59.1042163968" lon="30.4867560323"><ele>303.43</ele><time>2026-08-20T19:59:36Z</time></trkpt><trkpt lat="59.1042163968" lon="30.4867560323"><ele>303.43</ele><time>2026-08-20T19:59:37Z</time></trkpt><trkpt lat="59.1042163968" lon="30.4867560323"><ele>303.43</ele><time>2026-08-20T19:59:38Z</time></trkpt><trkpt lat="59.1042163968" lon="30.4867560323"><ele>303.43</ele><time>2026-08-20T19:59:39Z</time></trkpt><trkpt lat="59.1042163968" lon="30.4867560323"><ele>303.43</ele><time>2026-08-20T19:59:40Z</time></trkpt><trkpt lat="59.1042163968" lon="30.4867560323"><ele>303.43</ele><time>2026-08-20T19:59:41Z</time></trkpt><trkpt lat="59.1042163968" lon="30.4867560323"><ele>303.43</ele><time>2026-08-20T19:59:42Z</time></trkpt><trkpt lat="59.1042163968" lon="30.4867560323"><ele>303.43</ele><time>2026-08-20T19:59:43Z</time></trkpt><trkpt lat="59.1042163968" lon="30.4867560323"><ele>303.43</ele><time>2026-08-20T19:59:44Z</time></trkpt><trkpt lat="59.1042163968" lon="30.4867560323"><ele>303.43</ele><time>2026-08-20T19:59:45Z</time></trkpt><trkpt lat="59.1042163968" lon="30.4867560323"><ele>303.43</ele><time>2026-08-20T19:59:46Z</time></trkpt><trkpt lat="59.1042163968" lon="30.4867560323"><ele>303.43</ele><time>2026-08-20T19:59:47Z</time></trkpt><trkpt lat="59.1042163968" lon="30.4867560323"><ele>303.43</ele><time>2026-08-20T19:59:48Z</time></trkpt><trkpt lat="59.1042163968" lon="30.4867560323"><ele>303.43</ele><time>2026-08-20T19:59:49Z</time></trkpt><trkpt lat="59.1042163968" lon="30.4867560323"><ele>303.43</ele><time>2026-08-20T19:59:50Z</time></trkpt><trkpt lat="59.1042163968" lon="30.4867560323"><ele>303.43</ele><time>2026-08-20T19:59:51Z</time></trkpt><trkpt lat="59.1042163968" lon="30.4867560323"><ele>303.43</ele><time>2026-08-20T19:59:52Z</time></trkpt><trkpt lat="59.1042163968" lon="30.4867560323"><ele>303.43</ele><time>2026-08-20T19:59:53Z</time></trkpt><trkpt lat="59.1042163968" lon="30.4867560323"><ele>303.43</ele><time>2026-08-20T19:59:54Z</time></trkpt><trkpt lat="59.1042163968" lon="30.4867560323"><ele>303.43</ele><time>2026-08-20T19:59:55Z</time></trkpt><trkpt lat="59.1042163968" lon="30.4867560323"><ele>303.43</ele><time>2026-08-20T19:59:56Z</time></trkpt><trkpt lat="59.1042163968" lon="30.4867560323"><ele>303.43</ele><time>2026-08-20T19:59:57Z</time></trkpt><trkpt lat="59.1042163968" lon="30.4867560323"><ele>303.43</ele><time>2026-08-20T19:59:58Z</time></trkpt><trkpt lat="59.1042163968" lon="30.4867560323"><ele>303.43</ele><time>2026-08-20T19:59:59Z</time></trkpt><trkpt lat="59.1042163968" lon="30.4867560323"><ele>303.43</ele><time>2026-08-20T20:00:00Z</time></trkpt><trkpt lat="59.1042163968" lon="30.4867560323"><ele>303.43</ele><time>2026-08-20T20:00:01Z</time></trkpt><trkpt lat="59.1042163968" lon="30.4867560323"><ele>303.43</ele><time>2026-08-20T20:00:02Z</time></trkpt><trkpt lat="59.1042163968" lon="30.4867560323"><ele>303.43</ele><time>2026-08-20T20:00:03Z</time></trkpt><trkpt lat="59.1042163968" lon="30.4867560323"><ele>303.43</ele><time>2026-08-20T20:00:04Z</time></trkpt><trkpt lat="59.1042163968" lon="30.4867560323"><ele>303.43</ele><time>2026-08-20T20:00:05Z</time></trkpt><trkpt lat="59.1042163968" lon="30.4867560323"><ele>303.43</ele><time>2026-08-20T20:00:06Z</time></trkpt><trkpt lat="59.1042163968" lon="30.4867560323"><ele>303.43</ele><time>2026-08-20T20:00:07Z</time></trkpt><trkpt lat="59.1042163968" lon="30.4867560323"><ele>303.43</ele><time>2026-08-20T20:00:08Z</time></trkpt><trkpt lat="59.1042163968" lon="30.4867560323"><ele>303.43</ele><time>2026-08-20T20:00:09Z</time></trkpt><trkpt lat="59.1042163968" lon="30.4867560323"><ele>303.43</ele><time>2026-08-20T20:00:10Z</time></trkpt><trkpt lat="59.1042163968" lon="30.4867560323"><ele>303.43</ele><time>2026-08-20T20:00:11Z</time></trkpt><trkpt lat="59.1042163968" lon="30.4867560323"><ele>303.43</ele><time>2026-08-20T20:00:12Z</time></trkpt><trkpt lat="59.1042163968" lon="30.4867560323"><ele>303.43</ele><time>2026-08-20T20:00:13Z</time></trkpt><trkpt lat="59.1042163968" lon="30.4867560323"><ele>303.43</ele><time>2026-08-20T20:00:14Z</time></trkpt><trkpt lat="59.1042163968" lon="30.4867560323"><ele>303.43</ele><time>2026-08-20T20:00:15Z</time></trkpt><trkpt lat="59.1042163968" lon="30.4867560323"><ele>303.43</ele><time>2026-08-20T20:00:16Z</time></trkpt><trkpt lat="59.1042163968" lon="30.4867560323"><ele>303.43</ele><time>2026-08-20T20:00:17Z</time></trkpt><trkpt lat="59.1042163968" lon="30.4867560323"><ele>303.43</ele><time>2026-08-20T20:00:18Z</time></trkpt><trkpt lat="59.1042163968" lon="30.4867560323"><ele>303.43</ele><time>2026-08-20T20:00:19Z</time></trkpt><trkpt lat="59.1042163968" lon="30.4867560323"><ele>303.43</ele><time>2026-08-20T20:00:20Z</time></trkpt><trkpt lat="59.1042163968" lon="30.4867560323"><ele>303.43</ele><time>2026-08-20T20:00:21Z</time></trkpt><trkpt lat="59.1042163968" lon="30.4867560323"><ele>303.43</ele><time>2026-08-20T20:00:22Z</time></trkpt><trkpt lat="59.1042163968" lon="30.4867560323"><ele>303.43</ele><time>2026-08-20T20:00:23Z</time></trkpt><trkpt lat="59.1042163968" lon="30.4867560323"><ele>303.43</ele><time>2026-08-20T20:00:24Z</time></trkpt><trkpt lat="59.1042163968" lon="30.4867560323"><ele>303.43</ele><time>2026-08-20T20:00:25Z</time></trkpt><trkpt lat="59.1042163968" lon="30.4867560323"><ele>303.43</ele><time>2026-08-20T20:00:26Z</time></trkpt><trkpt lat="59.1042163968" lon="30.4867560323"><ele>303.43</ele><time>2026-08-20T20:00:27Z</time></trkpt><trkpt lat="59.1042163968" lon="30.4867560323"><ele>303.43</ele><time>2026-08-20T20:00:28Z</time></trkpt><trkpt lat="59.1042163968" lon="30.4867560323"><ele>303.43</ele><time>2026-08-20T20:00:29Z</time></trkpt><trkpt lat="59.1042163968" lon="30.4867560323"><ele>303.43</ele><time>2026-08-20T20:00:30Z</time></trkpt><trkpt lat="59.1042163968" lon="30.4867560323"><ele>303.43</ele><time>2026-08-20T20:00:31Z</time></trkpt><trkpt lat="59.1042163968" lon="30.4867560323"><ele>303.43</ele><time>2026-08-20T20:00:32Z</time></trkpt><trkpt lat="59.1042163968" lon="30.4867560323"><ele>303.43</ele><time>2026-08-20T20:00:33Z</time></trkpt><trkpt lat="59.1042163968" lon="30.4867560323"><ele>303.43</ele><time>2026-08-20T20:00:34Z</time></trkpt><trkpt lat="59.1042163968" lon="30.4867560323"><ele>303.43</ele><time>2026-08-20T20:00:35Z</time></trkpt><trkpt lat="59.1042163968" lon="30.4867560323"><ele>303.43</ele><time>2026-08-20T20:00:36Z</time></trkpt><trkpt lat="59.1042163968" lon="30.4867560323"><ele>303.43</ele><time>2026-08-20T20:00:37Z</time></trkpt><trkpt lat="59.1042163968" lon="30.4867560323"><ele>303.43</ele><time>2026-08-20T20:00:38Z</time></trkpt><trkpt lat="59.1042163968" lon="30.4867560323"><ele>303.43</ele><time>2026-08-20T20:00:39Z</time></trkpt><trkpt lat="59.1042163968" lon="30.4867560323"><ele>303.43</ele><time>2026-08-20T20:00:40Z</time></trkpt><trkpt lat="59.1042163968" lon="30.4867560323"><ele>303.43</ele><time>2026-08-20T20:00:41Z</time></trkpt><trkpt lat="59.1042163968" lon="30.4867560323"><ele>303.43</ele><time>2026-08-20T20:00:42Z</time></trkpt><trkpt lat="59.1042163968" lon="30.4867560323"><ele>303.43</ele><time>2026-08-20T20:00:43Z</time></trkpt><trkpt lat="59.1042163968" lon="30.4867560323"><ele>303.43</ele><time>2026-08-20T20:00:44Z</time></trkpt><trkpt lat="59.1042163968" lon="30.4867560323"><ele>303.43</ele><time>2026-08-20T20:00:45Z</time></trkpt><trkpt lat="59.1042163968" lon="30.4867560323"><ele>303.43</ele><time>2026-08-20T20:00:46Z</time></trkpt><trkpt lat="59.1042163968" lon="30.4867560323"><ele>303.43</ele><time>2026-08-20T20:00:47Z</time></trkpt><trkpt lat="59.1042163968" lon="30.4867560323"><ele>303.43</ele><time>2026-08-20T20:00:48Z</time></trkpt><trkpt lat="59.1042163968" lon="30.4867560323"><ele>303.43</ele><time>2026-08-20T20:00:49Z</time></trkpt><trkpt lat="59.1042163968" lon="30.4867560323"><ele>303.43</ele><time>2026-08-20T20:00:50Z</time></trkpt><trkpt lat="59.1042163968" lon="30.4867560323"><ele>303.43</ele><time>2026-08-20T20:00:51Z</time></trkpt><trkpt lat="59.1042163968" lon="30.4867560323"><ele>303.43</ele><time>2026-08-20T20:00:52Z</time></trkpt><trkpt lat="59.1042163968" lon="30.4867560323"><ele>303.43</ele><time>2026-08-20T20:00:53Z</time></trkpt><trkpt lat="59.1042163968" lon="30.4867560323"><ele>303.43</ele><time>2026-08-20T20:00:54Z</time></trkpt><trkpt lat="59.1042163968" lon="30.4867560323"><ele>303.43</ele><time>2026-08-20T20:00:55Z</time></trkpt><trkpt lat="59.1042163968" lon="30.4867560323"><ele>303.43</ele><time>2026-08-20T20:00:56Z</time></trkpt><trkpt lat="59.1042163968" lon="30.4867560323"><ele>303.43</ele><time>2026-08-20T20:00:57Z</time></trkpt><trkpt lat="59.1042163968" lon="30.4867560323"><ele>303.43</ele><time>2026-08-20T20:00:58Z</time></trkpt><trkpt lat="59.1042163968" lon="30.4867560323"><ele>303.43</ele><time>2026-08-20T20:00:59Z</time></trkpt><trkpt lat="59.1042163968" lon="30.4867560323"><ele>303.43</ele><time>2026-08-20T20:01:00Z</time></trkpt><trkpt lat="59.1042163968" lon="30.4867560323"><ele>303.43</ele><time>2026-08-20T20:01:01Z</time></trkpt><trkpt lat="59.1042163968" lon="30.4867560323"><ele>303.43</ele><time>2026-08-20T20:01:02Z</time></trkpt><trkpt lat="59.1042163968" lon="30.4867560323"><ele>303.43</ele><time>2026-08-20T20:01:03Z</time></trkpt><trkpt lat="59.1042163968" lon="30.4867560323"><ele>303.43</ele><time>2026-08-20T20:01:04Z</time></trkpt><trkpt lat="59.1042163968" lon="30.4867560323"><ele>303.43</ele><time>2026-08-20T20:01:05Z</time></trkpt><trkpt lat="59.1042163968" lon="30.4867560323"><ele>303.43</ele><time>2026-08-20T20:01:06Z</time></trkpt><trkpt lat="59.1042163968" lon="30.4867560323"><ele>303.43</ele><time>2026-08-20T20:01:07Z</time></trkpt><trkpt lat="59.1042163968" lon="30.4867560323"><ele>303.43</ele><time>2026-08-20T20:01:08Z</time></trkpt><trkpt lat="59.1042163968" lon="30.4867560323"><ele>303.43</ele><time>2026-08-20T20:01:09Z</time></trkpt><trkpt lat="59.1042163968" lon="30.4867560323"><ele>303.43</ele><time>2026-08-20T20:01:10Z</time></trkpt><trkpt lat="59.1042163968" lon="30.4867560323"><ele>303.43</ele><time>2026-08-20T20:01:11Z</time></trkpt><trkpt lat="59.1042163968" lon="30.4867560323"><ele>303.43</ele><time>2026-08-20T20:01:12Z</time></trkpt><trkpt lat="59.1042163968" lon="30.4867560323"><ele>303.43</ele><time>2026-08-20T20:01:13Z</time></trkpt><trkpt lat="59.1042163968" lon="30.4867560323"><ele>303.43</ele><time>2026-08-20T20:01:14Z</time></trkpt><trkpt lat="59.1042163968" lon="30.4867560323"><ele>303.43</ele><time>2026-08-20T20:01:15Z</time></trkpt><trkpt lat="59.1042163968" lon="30.4867560323"><ele>303.43</ele><time>2026-08-20T20:01:16Z</time></trkpt><trkpt lat="59.1042163968" lon="30.4867560323"><ele>303.43</ele><time>2026-08-20T20:01:17Z</time></trkpt><trkpt lat="59.1042163968" lon="30.4867560323"><ele>303.43</ele><time>2026-08-20T20:01:18Z</time></trkpt><trkpt lat="59.1042163968" lon="30.4867560323"><ele>303.43</ele><time>2026-08-20T20:01:19Z</time></trkpt><trkpt lat="59.1042163968" lon="30.4867560323"><ele>303.43</ele><time>2026-08-20T20:01:20Z</time></trkpt><trkpt lat="59.1042163968" lon="30.4867560323"><ele>303.43</ele><time>2026-08-20T20:01:21Z</time></trkpt><trkpt lat="59.1042163968" lon="30.4867560323"><ele>303.43</ele><time>2026-08-20T20:01:22Z</time></trkpt><trkpt lat="59.1042163968" lon="30.4867560323"><ele>303.43</ele><time>2026-08-20T20:01:23Z</time></trkpt><trkpt lat="59.1042163968" lon="30.4867560323"><ele>303.43</ele><time>2026-08-20T20:01:24Z</time></trkpt><trkpt lat="59.1042163968" lon="30.4867560323"><ele>303.43</ele><time>2026-08-20T20:01:25Z</time></trkpt><trkpt lat="59.1042163968" lon="30.4867560323"><ele>303.43</ele><time>2026-08-20T20:01:26Z</time></trkpt><trkpt lat="59.1042163968" lon="30.4867560323"><ele>303.43</ele><time>2026-08-20T20:01:27Z</time></trkpt><trkpt lat="59.1042163968" lon="30.4867560323"><ele>303.43</ele><time>2026-08-20T20:01:28Z</time></trkpt><trkpt lat="59.1042163968" lon="30.4867560323"><ele>303.43</ele><time>2026-08-20T20:01:29Z</time></trkpt><trkpt lat="59.1042163968" lon="30.4867560323"><ele>303.43</ele><time>2026-08-20T20:01:30Z</time></trkpt><trkpt lat="59.1042163968" lon="30.4867560323"><ele>303.43</ele><time>2026-08-20T20:01:31Z</time></trkpt><trkpt lat="59.1042163968" lon="30.4867560323"><ele>303.43</ele><time>2026-08-20T20:01:32Z</time></trkpt><trkpt lat="59.1042163968" lon="30.4867560323"><ele>303.43</ele><time>2026-08-20T20:01:33Z</time></trkpt><trkpt lat="59.1042163968" lon="30.4867560323"><ele>303.43</ele><time>2026-08-20T20:01:34Z</time></trkpt><trkpt lat="59.1042163968" lon="30.4867560323"><ele>303.43</ele><time>2026-08-20T20:01:35Z</time></trkpt><trkpt lat="59.1042163968" lon="30.4867560323"><ele>303.43</ele><time>2026-08-20T20:01:36Z</time></trkpt><trkpt lat="59.1042163968" lon="30.4867560323"><ele>303.43</ele><time>2026-08-20T20:01:37Z</time></trkpt><trkpt lat="59.1042163968" lon="30.4867560323"><ele>303.43</ele><time>2026-08-20T20:01:38Z</time></trkpt><trkpt lat="59.1042163968" lon="30.4867560323"><ele>303.43</ele><time>2026-08-20T20:01:39Z</time></trkpt><trkpt lat="59.1042163968" lon="30.4867560323"><ele>303.43</ele><time>2026-08-20T20:01:40Z</time></trkpt><trkpt lat="59.1042163968" lon="30.4867560323"><ele>303.43</ele><time>2026-08-20T20:01:41Z</time></trkpt><trkpt lat="59.1042163968" lon="30.4867560323"><ele>303.43</ele><time>2026-08-20T20:01:42Z</time></trkpt><trkpt lat="59.1042163968" lon="30.4867560323"><ele>303.43</ele><time>2026-08-20T20:01:43Z</time></trkpt><trkpt lat="59.1042163968" lon="30.4867560323"><ele>303.43</ele><time>2026-08-20T20:01:44Z</time></trkpt><trkpt lat="59.1042163968" lon="30.4867560323"><ele>303.43</ele><time>2026-08-20T20:01:45Z</time></trkpt><trkpt lat="59.1042163968" lon="30.4867560323"><ele>303.43</ele><time>2026-08-20T20:01:46Z</time></trkpt><trkpt lat="59.1042163968" lon="30.4867560323"><ele>303.43</ele><time>2026-08-20T20:01:47Z</time></trkpt><trkpt lat="59.1042163968" lon="30.4867560323"><ele>303.43</ele><time>2026-08-20T20:01:48Z</time></trkpt><trkpt lat="59.1042163968" lon="30.4867560323"><ele>303.43</ele><time>2026-08-20T20:01:49Z</time></trkpt><trkpt lat="59.1042163968" lon="30.4867560323"><ele>303.43</ele><time>2026-08-20T20:01:50Z</time></trkpt><trkpt lat="59.1042163968" lon="30.4867560323"><ele>303.43</ele><time>2026-08-20T20:01:51Z</time></trkpt><trkpt lat="59.1042163968" lon="30.4867560323"><ele>303.43</ele><time>2026-08-20T20:01:52Z</time></trkpt><trkpt lat="59.1042163968" lon="30.4867560323"><ele>303.43</ele><time>2026-08-20T20:01:53Z</time></trkpt><trkpt lat="59.1042163968" lon="30.4867560323"><ele>303.43</ele><time>2026-08-20T20:01:54Z</time></trkpt><trkpt lat="59.1042163968" lon="30.4867560323"><ele>303.43</ele><time>2026-08-20T20:01:55Z</time></trkpt><trkpt lat="59.1042163968" lon="30.4867560323"><ele>303.43</ele><time>2026-08-20T20:01:56Z</time></trkpt><trkpt lat="59.1042163968" lon="30.4867560323"><ele>303.43</ele><time>2026-08-20T20:01:57Z</time></trkpt><trkpt lat="59.1042163968" lon="30.4867560323"><ele>303.43</ele><time>2026-08-20T20:01:58Z</time></trkpt><trkpt lat="59.1042163968" lon="30.4867560323"><ele>303.43</ele><time>2026-08-20T20:01:59Z</time></trkpt><trkpt lat="59.1042163968" lon="30.4867560323"><ele>303.43</ele><time>2026-08-20T20:02:00Z</time></trkpt><trkpt lat="59.1042163968" lon="30.4867560323"><ele>303.43</ele><time>2026-08-20T20:02:01Z</time></trkpt><trkpt lat="59.1042163968" lon="30.4867560323"><ele>303.43</ele><time>2026-08-20T20:02:02Z</time></trkpt><trkpt lat="59.1042163968" lon="30.4867560323"><ele>303.43</ele><time>2026-08-20T20:02:03Z</time></trkpt><trkpt lat="59.1042163968" lon="30.4867560323"><ele>303.43</ele><time>2026-08-20T20:02:04Z</time></trkpt><trkpt lat="59.1042163968" lon="30.4867560323"><ele>303.43</ele><time>2026-08-20T20:02:05Z</time></trkpt><trkpt lat="59.1042163968" lon="30.4867560323"><ele>303.43</ele><time>2026-08-20T20:02:06Z</time></trkpt><trkpt lat="59.1042163968" lon="30.4867560323"><ele>303.43</ele><time>2026-08-20T20:02:07Z</time></trkpt><trkpt lat="59.1042163968" lon="30.4867560323"><ele>303.43</ele><time>2026-08-20T20:02:08Z</time></trkpt><trkpt lat="59.1042163968" lon="30.4867560323"><ele>303.43</ele><time>2026-08-20T20:02:09Z</time></trkpt><trkpt lat="59.1042163968" lon="30.4867560323"><ele>303.43</ele><time>2026-08-20T20:02:10Z</time></trkpt><trkpt lat="59.1042163968" lon="30.4867560323"><ele>303.43</ele><time>2026-08-20T20:02:11Z</time></trkpt><trkpt lat="59.1042163968" lon="30.4867560323"><ele>303.43</ele><time>2026-08-20T20:02:12Z</time></trkpt><trkpt lat="59.1042163968" lon="30.4867560323"><ele>303.43</ele><time>2026-08-20T20:02:13Z</time></trkpt><trkpt lat="59.1042163968" lon="30.4867560323"><ele>303.43</ele><time>2026-08-20T20:02:14Z</time></trkpt><trkpt lat="59.1042163968" lon="30.4867560323"><ele>303.43</ele><time>2026-08-20T20:02:15Z</time></trkpt><trkpt lat="59.1042163968" lon="30.4867560323"><ele>303.43</ele><time>2026-08-20T20:02:16Z</time></trkpt><trkpt lat="59.1042163968" lon="30.4867560323"><ele>303.43</ele><time>2026-08-20T20:02:17Z</time></trkpt><trkpt lat="59.1042163968" lon="30.4867560323"><ele>303.43</ele><time>2026-08-20T20:02:18Z</time></trkpt><trkpt lat="59.1042163968" lon="30.4867560323"><ele>303.43</ele><time>2026-08-20T20:02:19Z</time></trkpt><trkpt lat="59.1042163968" lon="30.4867560323"><ele>303.43</ele><time>2026-08-20T20:02:20Z</time></trkpt><trkpt lat="59.1042163968" lon="30.4867560323"><ele>303.43</ele><time>2026-08-20T20:02:21Z</time></trkpt><trkpt lat="59.1042163968" lon="30.4867560323"><ele>303.43</ele><time>2026-08-20T20:02:22Z</time></trkpt><trkpt lat="59.1042163968" lon="30.4867560323"><ele>303.43</ele><time>2026-08-20T20:02:23Z</time></trkpt><trkpt lat="59.1042163968" lon="30.4867560323"><ele>303.43</ele><time>2026-08-20T20:02:24Z</time></trkpt><trkpt lat="59.1042163968" lon="30.4867560323"><ele>303.43</ele><time>2026-08-20T20:02:25Z</time></trkpt><trkpt lat="59.1042163968" lon="30.4867560323"><ele>303.43</ele><time>2026-08-20T20:02:26Z</time></trkpt><trkpt lat="59.1042163968" lon="30.4867560323"><ele>303.43</ele><time>2026-08-20T20:02:27Z</time></trkpt><trkpt lat="59.1042163968" lon="30.4867560323"><ele>303.43</ele><time>2026-08-20T20:02:28Z</time></trkpt><trkpt lat="59.1042163968" lon="30.4867560323"><ele>303.43</ele><time>2026-08-20T20:02:29Z</time></trkpt><trkpt lat="59.1042163968" lon="30.4867560323"><ele>303.43</ele><time>2026-08-20T20:02:30Z</time></trkpt><trkpt lat="59.1042163968" lon="30.4867560323"><ele>303.43</ele><time>2026-08-20T20:02:31Z</time></trkpt><trkpt lat="59.1042163968" lon="30.4867560323"><ele>303.43</ele><time>2026-08-20T20:02:32Z</time></trkpt><trkpt lat="59.1042163968" lon="30.4867560323"><ele>303.43</ele><time>2026-08-20T20:02:33Z</time></trkpt><trkpt lat="59.1042163968" lon="30.4867560323"><ele>303.43</ele><time>2026-08-20T20:02:34Z</time></trkpt><trkpt lat="59.1042163968" lon="30.4867560323"><ele>303.43</ele><time>2026-08-20T20:02:35Z</time></trkpt><trkpt lat="59.1042163968" lon="30.4867560323"><ele>303.43</ele><time>2026-08-20T20:02:36Z</time></trkpt><trkpt lat="59.1042163968" lon="30.4867560323"><ele>303.43</ele><time>2026-08-20T20:02:37Z</time></trkpt><trkpt lat="59.1042163968" lon="30.4867560323"><ele>303.43</ele><time>2026-08-20T20:02:38Z</time></trkpt><trkpt lat="59.1042163968" lon="30.4867560323"><ele>303.43</ele><time>2026-08-20T20:02:39Z</time></trkpt><trkpt lat="59.1042163968" lon="30.4867560323"><ele>303.43</ele><time>2026-08-20T20:02:40Z</time></trkpt><trkpt lat="59.1042163968" lon="30.4867560323"><ele>303.43</ele><time>2026-08-20T20:02:41Z</time></trkpt><trkpt lat="59.1042163968" lon="30.4867560323"><ele>303.43</ele><time>2026-08-20T20:02:42Z</time></trkpt><trkpt lat="59.1042163968" lon="30.4867560323"><ele>303.43</ele><time>2026-08-20T20:02:43Z</time></trkpt><trkpt lat="59.1042163968" lon="30.4867560323"><ele>303.43</ele><time>2026-08-20T20:02:44Z</time></trkpt><trkpt lat="59.1042163968" lon="30.4867560323"><ele>303.43</ele><time>2026-08-20T20:02:45Z</time></trkpt><trkpt lat="59.1042163968" lon="30.4867560323"><ele>303.43</ele><time>2026-08-20T20:02:46Z</time></trkpt><trkpt lat="59.1042163968" lon="30.4867560323"><ele>303.43</ele><time>2026-08-20T20:02:47Z</time></trkpt><trkpt lat="59.1042163968" lon="30.4867560323"><ele>303.43</ele><time>2026-08-20T20:02:48Z</time></trkpt><trkpt lat="59.1042163968" lon="30.4867560323"><ele>303.43</ele><time>2026-08-20T20:02:49Z</time></trkpt><trkpt lat="59.1042163968" lon="30.4867560323"><ele>303.43</ele><time>2026-08-20T20:02:50Z</time></trkpt><trkpt lat="59.1042163968" lon="30.4867560323"><ele>303.43</ele><time>2026-08-20T20:02:51Z</time></trkpt><trkpt lat="59.1042163968" lon="30.4867560323"><ele>303.43</ele><time>2026-08-20T20:02:52Z</time></trkpt><trkpt lat="59.1042163968" lon="30.4867560323"><ele>303.43</ele><time>2026-08-20T20:02:53Z</time></trkpt><trkpt lat="59.1042163968" lon="30.4867560323"><ele>303.43</ele><time>2026-08-20T20:02:54Z</time></trkpt><trkpt lat="59.1042163968" lon="30.4867560323"><ele>303.43</ele><time>2026-08-20T20:02:55Z</time></trkpt><trkpt lat="59.1042163968" lon="30.4867560323"><ele>303.43</ele><time>2026-08-20T20:02:56Z</time></trkpt><trkpt lat="59.1042163968" lon="30.4867560323"><ele>303.43</ele><time>2026-08-20T20:02:57Z</time></trkpt><trkpt lat="59.1042163968" lon="30.4867560323"><ele>303.43</ele><time>2026-08-20T20:02:58Z</time></trkpt><trkpt lat="59.1042163968" lon="30.4867560323"><ele>303.43</ele><time>2026-08-20T20:02:59Z</time></trkpt><trkpt lat="59.1042163968" lon="30.4867560323"><ele>303.43</ele><time>2026-08-20T20:03:00Z</time></trkpt><trkpt lat="59.1042163968" lon="30.4867560323"><ele>303.43</ele><time>2026-08-20T20:03:01Z</time></trkpt><trkpt lat="59.1042163968" lon="30.4867560323"><ele>303.43</ele><time>2026-08-20T20:03:02Z</time></trkpt><trkpt lat="59.1042163968" lon="30.4867560323"><ele>303.43</ele><time>2026-08-20T20:03:03Z</time></trkpt><trkpt lat="59.1042163968" lon="30.4867560323"><ele>303.43</ele><time>2026-08-20T20:03:04Z</time></trkpt><trkpt lat="59.1042163968" lon="30.4867560323"><ele>303.43</ele><time>2026-08-20T20:03:05Z</time></trkpt><trkpt lat="59.1042163968" lon="30.4867560323"><ele>303.43</ele><time>2026-08-20T20:03:06Z</time></trkpt><trkpt lat="59.1042163968" lon="30.4867560323"><ele>303.43</ele><time>2026-08-20T20:03:07Z</time></trkpt><trkpt lat="59.1042163968" lon="30.4867560323"><ele>303.43</ele><time>2026-08-20T20:03:08Z</time></trkpt><trkpt lat="59.1042163968" lon="30.4867560323"><ele>303.43</ele><time>2026-08-20T20:03:09Z</time></trkpt><trkpt lat="59.1042163968" lon="30.4867560323"><ele>303.43</ele><time>2026-08-20T20:03:10Z</time></trkpt><trkpt lat="59.1042163968" lon="30.4867560323"><ele>303.43</ele><time>2026-08-20T20:03:11Z</time></trkpt><trkpt lat="59.1042163968" lon="30.4867560323"><ele>303.43</ele><time>2026-08-20T20:03:12Z</time></trkpt><trkpt lat="59.1042163968" lon="30.4867560323"><ele>303.43</ele><time>2026-08-20T20:03:13Z</time></trkpt><trkpt lat="59.1042163968" lon="30.4867560323"><ele>303.43</ele><time>2026-08-20T20:03:14Z</time></trkpt><trkpt lat="59.1042163968" lon="30.4867560323"><ele>303.43</ele><time>2026-08-20T20:03:15Z</time></trkpt><trkpt lat="59.1042163968" lon="30.4867560323"><ele>303.43</ele><time>2026-08-20T20:03:16Z</time></trkpt><trkpt lat="59.1042163968" lon="30.4867560323"><ele>303.43</ele><time>2026-08-20T20:03:17Z</time></trkpt><trkpt lat="59.1042163968" lon="30.4867560323"><ele>303.43</ele><time>2026-08-20T20:03:18Z</time></trkpt><trkpt lat="59.1042163968" lon="30.4867560323"><ele>303.43</ele><time>2026-08-20T20:03:19Z</time></trkpt><trkpt lat="59.1042163968" lon="30.4867560323"><ele>303.43</ele><time>2026-08-20T20:03:20Z</time></trkpt><trkpt lat="59.1042163968" lon="30.4867560323"><ele>303.43</ele><time>2026-08-20T20:03:21Z</time></trkpt><trkpt lat="59.1042163968" lon="30.4867560323"><ele>303.43</ele><time>2026-08-20T20:03:22Z</time></trkpt><trkpt lat="59.1042163968" lon="30.4867560323"><ele>303.43</ele><time>2026-08-20T20:03:23Z</time></trkpt><trkpt lat="59.1042163968" lon="30.4867560323"><ele>303.43</ele><time>2026-08-20T20:03:24Z</time></trkpt><trkpt lat="59.1042163968" lon="30.4867560323"><ele>303.43</ele><time>2026-08-20T20:03:25Z</time></trkpt><trkpt lat="59.1042163968" lon="30.4867560323"><ele>303.43</ele><time>2026-08-20T20:03:26Z</time></trkpt><trkpt lat="59.1042163968" lon="30.4867560323"><ele>303.43</ele><time>2026-08-20T20:03:27Z</time></trkpt><trkpt lat="59.1042163968" lon="30.4867560323"><ele>303.43</ele><time>2026-08-20T20:03:28Z</time></trkpt><trkpt lat="59.1042163968" lon="30.4867560323"><ele>303.43</ele><time>2026-08-20T20:03:29Z</time></trkpt><trkpt lat="59.1042163968" lon="30.4867560323"><ele>303.43</ele><time>2026-08-20T20:03:30Z</time></trkpt><trkpt lat="59.1042163968" lon="30.4867560323"><ele>303.43</ele><time>2026-08-20T20:03:31Z</time></trkpt><trkpt lat="59.1042163968" lon="30.4867560323"><ele>303.43</ele><time>2026-08-20T20:03:32Z</time></trkpt><trkpt lat="59.1042163968" lon="30.4867560323"><ele>303.43</ele><time>2026-08-20T20:03:33Z</time></trkpt><trkpt lat="59.1042163968" lon="30.4867560323"><ele>303.43</ele><time>2026-08-20T20:03:34Z</time></trkpt><trkpt lat="59.1042163968" lon="30.4867560323"><ele>303.43</ele><time>2026-08-20T20:03:35Z</time></trkpt><trkpt lat="59.1042163968" lon="30.4867560323"><ele>303.43</ele><time>2026-08-20T20:03:36Z</time></trkpt><trkpt lat="59.1042163968" lon="30.4867560323"><ele>303.43</ele><time>2026-08-20T20:03:37Z</time></trkpt><trkpt lat="59.1042163968" lon="30.4867560323"><ele>303.43</ele><time>2026-08-20T20:03:38Z</time></trkpt><trkpt lat="59.1042163968" lon="30.4867560323"><ele>303.43</ele><time>2026-08-20T20:03:39Z</time></trkpt><trkpt lat="59.1042163968" lon="30.4867560323"><ele>303.43</ele><time>2026-08-20T20:03:40Z</time></trkpt><trkpt lat="59.1042163968" lon="30.4867560323"><ele>303.43</ele><time>2026-08-20T20:03:41Z</time></trkpt><trkpt lat="59.1042163968" lon="30.4867560323"><ele>303.43</ele><time>2026-08-20T20:03:42Z</time></trkpt><trkpt lat="59.1042163968" lon="30.4867560323"><ele>303.43</ele><time>2026-08-20T20:03:43Z</time></trkpt><trkpt lat="59.1042163968" lon="30.4867560323"><ele>303.43</ele><time>2026-08-20T20:03:44Z</time></trkpt><trkpt lat="59.1042163968" lon="30.4867560323"><ele>303.43</ele><time>2026-08-20T20:03:45Z</time></trkpt><trkpt lat="59.1042163968" lon="30.4867560323"><ele>303.43</ele><time>2026-08-20T20:03:46Z</time></trkpt><trkpt lat="59.1042163968" lon="30.4867560323"><ele>303.43</ele><time>2026-08-20T20:03:47Z</time></trkpt><trkpt lat="59.1042163968" lon="30.4867560323"><ele>303.43</ele><time>2026-08-20T20:03:48Z</time></trkpt><trkpt lat="59.1042163968" lon="30.4867560323"><ele>303.43</ele><time>2026-08-20T20:03:49Z</time></trkpt><trkpt lat="59.1042163968" lon="30.4867560323"><ele>303.43</ele><time>2026-08-20T20:03:50Z</time></trkpt><trkpt lat="59.1042163968" lon="30.4867560323"><ele>303.43</ele><time>2026-08-20T20:03:51Z</time></trkpt><trkpt lat="59.1042163968" lon="30.4867560323"><ele>303.43</ele><time>2026-08-20T20:03:52Z</time></trkpt><trkpt lat="59.1042163968" lon="30.4867560323"><ele>303.43</ele><time>2026-08-20T20:03:53Z</time></trkpt><trkpt lat="59.1042163968" lon="30.4867560323"><ele>303.43</ele><time>2026-08-20T20:03:54Z</time></trkpt><trkpt lat="59.1042163968" lon="30.4867560323"><ele>303.43</ele><time>2026-08-20T20:03:55Z</time></trkpt><trkpt lat="59.1042163968" lon="30.4867560323"><ele>303.43</ele><time>2026-08-20T20:03:56Z</time></trkpt><trkpt lat="59.1042163968" lon="30.4867560323"><ele>303.43</ele><time>2026-08-20T20:03:57Z</time></trkpt><trkpt lat="59.1042163968" lon="30.4867560323"><ele>303.43</ele><time>2026-08-20T20:03:58Z</time></trkpt><trkpt lat="59.1042163968" lon="30.4867560323"><ele>303.43</ele><time>2026-08-20T20:03:59Z</time></trkpt><trkpt lat="59.1042163968" lon="30.4867560323"><ele>303.43</ele><time>2026-08-20T20:04:00Z</time></trkpt><trkpt lat="59.1042163968" lon="30.4867560323"><ele>303.43</ele><time>2026-08-20T20:04:01Z</time></trkpt><trkpt lat="59.1042163968" lon="30.4867560323"><ele>303.43</ele><time>2026-08-20T20:04:02Z</time></trkpt><trkpt lat="59.1042163968" lon="30.4867560323"><ele>303.43</ele><time>2026-08-20T20:04:03Z</time></trkpt><trkpt lat="59.1042163968" lon="30.4867560323"><ele>303.43</ele><time>2026-08-20T20:04:04Z</time></trkpt><trkpt lat="59.1042163968" lon="30.4867560323"><ele>303.43</ele><time>2026-08-20T20:04:05Z</time></trkpt><trkpt lat="59.1042163968" lon="30.4867560323"><ele>303.43</ele><time>2026-08-20T20:04:06Z</time></trkpt><trkpt lat="59.1042163968" lon="30.4867560323"><ele>303.43</ele><time>2026-08-20T20:04:07Z</time></trkpt><trkpt lat="59.1042163968" lon="30.4867560323"><ele>303.43</ele><time>2026-08-20T20:04:08Z</time></trkpt><trkpt lat="59.1042163968" lon="30.4867560323"><ele>303.43</ele><time>2026-08-20T20:04:09Z</time></trkpt><trkpt lat="59.1042163968" lon="30.4867560323"><ele>303.43</ele><time>2026-08-20T20:04:10Z</time></trkpt><trkpt lat="59.1042163968" lon="30.4867560323"><ele>303.43</ele><time>2026-08-20T20:04:11Z</time></trkpt><trkpt lat="59.1042163968" lon="30.4867560323"><ele>303.43</ele><time>2026-08-20T20:04:12Z</time></trkpt><trkpt lat="59.1042163968" lon="30.4867560323"><ele>303.43</ele><time>2026-08-20T20:04:13Z</time></trkpt><trkpt lat="59.1042163968" lon="30.4867560323"><ele>303.43</ele><time>2026-08-20T20:04:14Z</time></trkpt><trkpt lat="59.1042163968" lon="30.4867560323"><ele>303.43</ele><time>2026-08-20T20:04:15Z</time></trkpt><trkpt lat="59.1042163968" lon="30.4867560323"><ele>303.43</ele><time>2026-08-20T20:04:16Z</time></trkpt><trkpt lat="59.1042163968" lon="30.4867560323"><ele>303.43</ele><time>2026-08-20T20:04:17Z</time></trkpt><trkpt lat="59.1042163968" lon="30.4867560323"><ele>303.43</ele><time>2026-08-20T20:04:18Z</time></trkpt><trkpt lat="59.1042163968" lon="30.4867560323"><ele>303.43</ele><time>2026-08-20T20:04:19Z</time></trkpt><trkpt lat="59.1042163968" lon="30.4867560323"><ele>303.43</ele><time>2026-08-20T20:04:20Z</time></trkpt><trkpt lat="59.1042163968" lon="30.4867560323"><ele>303.43</ele><time>2026-08-20T20:04:21Z</time></trkpt><trkpt lat="59.1042163968" lon="30.4867560323"><ele>303.43</ele><time>2026-08-20T20:04:22Z</time></trkpt><trkpt lat="59.1042163968" lon="30.4867560323"><ele>303.43</ele><time>2026-08-20T20:04:23Z</time></trkpt><trkpt lat="59.1042163968" lon="30.4867560323"><ele>303.43</ele><time>2026-08-20T20:04:24Z</time></trkpt><trkpt lat="59.1042163968" lon="30.4867560323"><ele>303.43</ele><time>2026-08-20T20:04:25Z</time></trkpt><trkpt lat="59.1042163968" lon="30.4867560323"><ele>303.43</ele><time>2026-08-20T20:04:26Z</time></trkpt><trkpt lat="59.1042163968" lon="30.4867560323"><ele>303.43</ele><time>2026-08-20T20:04:27Z</time></trkpt><trkpt lat="59.1042163968" lon="30.4867560323"><ele>303.43</ele><time>2026-08-20T20:04:28Z</time></trkpt><trkpt lat="59.1042163968" lon="30.4867560323"><ele>303.43</ele><time>2026-08-20T20:04:29Z</time></trkpt><trkpt lat="59.1042163968" lon="30.4867560323"><ele>303.43</ele><time>2026-08-20T20:04:30Z</time></trkpt><trkpt lat="59.1042163968" lon="30.4867560323"><ele>303.43</ele><time>2026-08-20T20:04:31Z</time></trkpt><trkpt lat="59.1042163968" lon="30.4867560323"><ele>303.43</ele><time>2026-08-20T20:04:32Z</time></trkpt><trkpt lat="59.1042163968" lon="30.4867560323"><ele>303.43</ele><time>2026-08-20T20:04:33Z</time></trkpt><trkpt lat="59.1042163968" lon="30.4867560323"><ele>303.43</ele><time>2026-08-20T20:04:34Z</time></trkpt><trkpt lat="59.1042163968" lon="30.4867560323"><ele>303.43</ele><time>2026-08-20T20:04:35Z</time></trkpt><trkpt lat="59.1042163968" lon="30.4867560323"><ele>303.43</ele><time>2026-08-20T20:04:36Z</time></trkpt><trkpt lat="59.1042163968" lon="30.4867560323"><ele>303.43</ele><time>2026-08-20T20:04:37Z</time></trkpt><trkpt lat="59.1042163968" lon="30.4867560323"><ele>303.43</ele><time>2026-08-20T20:04:38Z</time></trkpt><trkpt lat="59.1042163968" lon="30.4867560323"><ele>303.43</ele><time>2026-08-20T20:04:39Z</time></trkpt><trkpt lat="59.1042163968" lon="30.4867560323"><ele>303.43</ele><time>2026-08-20T20:04:40Z</time></trkpt><trkpt lat="59.1042163968" lon="30.4867560323"><ele>303.43</ele><time>2026-08-20T20:04:41Z</time></trkpt><trkpt lat="59.1042163968" lon="30.4867560323"><ele>303.43</ele><time>2026-08-20T20:04:42Z</time></trkpt><trkpt lat="59.1042163968" lon="30.4867560323"><ele>303.43</ele><time>2026-08-20T20:04:43Z</time></trkpt><trkpt lat="59.1042163968" lon="30.4867560323"><ele>303.43</ele><time>2026-08-20T20:04:44Z</time></trkpt><trkpt lat="59.1042163968" lon="30.4867560323"><ele>303.43</ele><time>2026-08-20T20:04:45Z</time></trkpt><trkpt lat="59.1042163968" lon="30.4867560323"><ele>303.43</ele><time>2026-08-20T20:04:46Z</time></trkpt><trkpt lat="59.1042163968" lon="30.4867560323"><ele>303.43</ele><time>2026-08-20T20:04:47Z</time></trkpt><trkpt lat="59.1042163968" lon="30.4867560323"><ele>303.43</ele><time>2026-08-20T20:04:48Z</time></trkpt><trkpt lat="59.1042163968" lon="30.4867560323"><ele>303.43</ele><time>2026-08-20T20:04:49Z</time></trkpt><trkpt lat="59.1042163968" lon="30.4867560323"><ele>303.43</ele><time>2026-08-20T20:04:50Z</time></trkpt><trkpt lat="59.1042163968" lon="30.4867560323"><ele>303.43</ele><time>2026-08-20T20:04:51Z</time></trkpt><trkpt lat="59.1042163968" lon="30.4867560323"><ele>303.43</ele><time>2026-08-20T20:04:52Z</time></trkpt><trkpt lat="59.1042163968" lon="30.4867560323"><ele>303.43</ele><time>2026-08-20T20:04:53Z</time></trkpt><trkpt lat="59.1042163968" lon="30.4867560323"><ele>303.43</ele><time>2026-08-20T20:04:54Z</time></trkpt><trkpt lat="59.1042163968" lon="30.4867560323"><ele>303.43</ele><time>2026-08-20T20:04:55Z</time></trkpt><trkpt lat="59.1042163968" lon="30.4867560323"><ele>303.43</ele><time>2026-08-20T20:04:56Z</time></trkpt><trkpt lat="59.1042163968" lon="30.4867560323"><ele>303.43</ele><time>2026-08-20T20:04:57Z</time></trkpt><trkpt lat="59.1042163968" lon="30.4867560323"><ele>303.43</ele><time>2026-08-20T20:04:58Z</time></trkpt><trkpt lat="59.1042163968" lon="30.4867560323"><ele>303.43</ele><time>2026-08-20T20:04:59Z</time></trkpt><trkpt lat="59.1042163968" lon="30.4867560323"><ele>303.43</ele><time>2026-08-20T20:05:00Z</time></trkpt><trkpt lat="59.1042163968" lon="30.4867560323"><ele>303.43</ele><time>2026-08-20T20:05:01Z</time></trkpt><trkpt lat="59.1042163968" lon="30.4867560323"><ele>303.43</ele><time>2026-08-20T20:05:02Z</time></trkpt><trkpt lat="59.1042163968" lon="30.4867560323"><ele>303.43</ele><time>2026-08-20T20:05:03Z</time></trkpt><trkpt lat="59.1042163968" lon="30.4867560323"><ele>303.43</ele><time>2026-08-20T20:05:04Z</time></trkpt><trkpt lat="59.1042163968" lon="30.4867560323"><ele>303.43</ele><time>2026-08-20T20:05:05Z</time></trkpt><trkpt lat="59.1042163968" lon="30.4867560323"><ele>303.43</ele><time>2026-08-20T20:05:06Z</time></trkpt><trkpt lat="59.1042163968" lon="30.4867560323"><ele>303.43</ele><time>2026-08-20T20:05:07Z</time></trkpt><trkpt lat="59.1042163968" lon="30.4867560323"><ele>303.43</ele><time>2026-08-20T20:05:08Z</time></trkpt><trkpt lat="59.1042163968" lon="30.4867560323"><ele>303.43</ele><time>2026-08-20T20:05:09Z</time></trkpt><trkpt lat="59.1042163968" lon="30.4867560323"><ele>303.43</ele><time>2026-08-20T20:05:10Z</time></trkpt><trkpt lat="59.1042163968" lon="30.4867560323"><ele>303.43</ele><time>2026-08-20T20:05:11Z</time></trkpt><trkpt lat="59.1042163968" lon="30.4867560323"><ele>303.43</ele><time>2026-08-20T20:05:12Z</time></trkpt><trkpt lat="59.1042163968" lon="30.4867560323"><ele>303.43</ele><time>2026-08-20T20:05:13Z</time></trkpt><trkpt lat="59.1042163968" lon="30.4867560323"><ele>303.43</ele><time>2026-08-20T20:05:14Z</time></trkpt><trkpt lat="59.1042163968" lon="30.4867560323"><ele>303.43</ele><time>2026-08-20T20:05:15Z</time></trkpt><trkpt lat="59.1042163968" lon="30.4867560323"><ele>303.43</ele><time>2026-08-20T20:05:17Z</time></trkpt><trkpt lat="59.1042163968" lon="30.4867560323"><ele>303.43</ele><time>2026-08-20T20:05:18Z</time></trkpt><trkpt lat="59.1042163968" lon="30.4867560323"><ele>303.43</ele><time>2026-08-20T20:05:19Z</time></trkpt><trkpt lat="59.1042163968" lon="30.4867560323"><ele>303.43</ele><time>2026-08-20T20:05:20Z</time></trkpt><trkpt lat="59.1042163968" lon="30.4867560323"><ele>303.43</ele><time>2026-08-20T20:05:21Z</time></trkpt><trkpt lat="59.1042163968" lon="30.4867560323"><ele>303.43</ele><time>2026-08-20T20:05:22Z</time></trkpt><trkpt lat="59.1042163968" lon="30.4867560323"><ele>303.43</ele><time>2026-08-20T20:05:23Z</time></trkpt><trkpt lat="59.1042163968" lon="30.4867560323"><ele>303.43</ele><time>2026-08-20T20:05:24Z</time></trkpt><trkpt lat="59.1042163968" lon="30.4867560323"><ele>303.43</ele><time>2026-08-20T20:05:25Z</time></trkpt><trkpt lat="59.1042163968" lon="30.4867560323"><ele>303.43</ele><time>2026-08-20T20:05:26Z</time></trkpt><trkpt lat="59.1042163968" lon="30.4867560323"><ele>303.43</ele><time>2026-08-20T20:05:27Z</time></trkpt><trkpt lat="59.1042163968" lon="30.4867560323"><ele>303.43</ele><time>2026-08-20T20:05:28Z</time></trkpt><trkpt lat="59.1042163968" lon="30.4867560323"><ele>303.43</ele><time>2026-08-20T20:05:29Z</time></trkpt><trkpt lat="59.1042163968" lon="30.4867560323"><ele>303.43</ele><time>2026-08-20T20:05:30Z</time></trkpt><trkpt lat="59.1042163968" lon="30.4867560323"><ele>303.43</ele><time>2026-08-20T20:05:31Z</time></trkpt><trkpt lat="59.1042163968" lon="30.4867560323"><ele>303.43</ele><time>2026-08-20T20:05:32Z</time></trkpt><trkpt lat="59.1042163968" lon="30.4867560323"><ele>303.43</ele><time>2026-08-20T20:05:33Z</time></trkpt><trkpt lat="59.1042163968" lon="30.4867560323"><ele>303.43</ele><time>2026-08-20T20:05:34Z</time></trkpt><trkpt lat="59.1042163968" lon="30.4867560323"><ele>303.43</ele><time>2026-08-20T20:05:35Z</time></trkpt><trkpt lat="59.1042163968" lon="30.4867560323"><ele>303.43</ele><time>2026-08-20T20:05:36Z</time></trkpt><trkpt lat="59.1042163968" lon="30.4867560323"><ele>303.43</ele><time>2026-08-20T20:05:37Z</time></trkpt><trkpt lat="59.1042163968" lon="30.4867560323"><ele>303.43</ele><time>2026-08-20T20:05:38Z</time></trkpt><trkpt lat="59.1042163968" lon="30.4867560323"><ele>303.43</ele><time>2026-08-20T20:05:39Z</time></trkpt><trkpt lat="59.1042163968" lon="30.4867560323"><ele>303.43</ele><time>2026-08-20T20:05:40Z</time></trkpt><trkpt lat="59.1042163968" lon="30.4867560323"><ele>303.43</ele><time>2026-08-20T20:05:41Z</time></trkpt><trkpt lat="59.1042163968" lon="30.4867560323"><ele>303.43</ele><time>2026-08-20T20:05:42Z</time></trkpt><trkpt lat="59.1042163968" lon="30.4867560323"><ele>303.43</ele><time>2026-08-20T20:05:43Z</time></trkpt><trkpt lat="59.1042163968" lon="30.4867560323"><ele>303.43</ele><time>2026-08-20T20:05:44Z</time></trkpt><trkpt lat="59.1042163968" lon="30.4867560323"><ele>303.43</ele><time>2026-08-20T20:05:45Z</time></trkpt><trkpt lat="59.1042163968" lon="30.4867560323"><ele>303.43</ele><time>2026-08-20T20:05:46Z</time></trkpt><trkpt lat="59.1042163968" lon="30.4867560323"><ele>303.43</ele><time>2026-08-20T20:05:47Z</time></trkpt><trkpt lat="59.1042163968" lon="30.4867560323"><ele>303.43</ele><time>2026-08-20T20:05:48Z</time></trkpt><trkpt lat="59.1042163968" lon="30.4867560323"><ele>303.43</ele><time>2026-08-20T20:05:49Z</time></trkpt><trkpt lat="59.1042163968" lon="30.4867560323"><ele>303.43</ele><time>2026-08-20T20:05:50Z</time></trkpt><trkpt lat="59.1042163968" lon="30.4867560323"><ele>303.43</ele><time>2026-08-20T20:05:51Z</time></trkpt><trkpt lat="59.1042163968" lon="30.4867560323"><ele>303.43</ele><time>2026-08-20T20:05:52Z</time></trkpt><trkpt lat="59.1042163968" lon="30.4867560323"><ele>303.43</ele><time>2026-08-20T20:05:53Z</time></trkpt><trkpt lat="59.1042163968" lon="30.4867560323"><ele>303.43</ele><time>2026-08-20T20:05:54Z</time></trkpt><trkpt lat="59.1042163968" lon="30.4867560323"><ele>303.43</ele><time>2026-08-20T20:05:55Z</time></trkpt><trkpt lat="59.1042163968" lon="30.4867560323"><ele>303.43</ele><time>2026-08-20T20:05:56Z</time></trkpt><trkpt lat="59.1042163968" lon="30.4867560323"><ele>303.43</ele><time>2026-08-20T20:05:57Z</time></trkpt><trkpt lat="59.1042163968" lon="30.4867560323"><ele>303.43</ele><time>2026-08-20T20:05:58Z</time></trkpt><trkpt lat="59.1042163968" lon="30.4867560323"><ele>303.43</ele><time>2026-08-20T20:05:59Z</time></trkpt><trkpt lat="59.1042163968" lon="30.4867560323"><ele>303.43</ele><time>2026-08-20T20:06:00Z</time></trkpt><trkpt lat="59.1042163968" lon="30.4867560323"><ele>303.43</ele><time>2026-08-20T20:06:01Z</time></trkpt><trkpt lat="59.1042163968" lon="30.4867560323"><ele>303.43</ele><time>2026-08-20T20:06:02Z</time></trkpt><trkpt lat="59.1042163968" lon="30.4867560323"><ele>303.43</ele><time>2026-08-20T20:06:03Z</time></trkpt><trkpt lat="59.1042163968" lon="30.4867560323"><ele>303.43</ele><time>2026-08-20T20:06:04Z</time></trkpt><trkpt lat="59.1042163968" lon="30.4867560323"><ele>303.43</ele><time>2026-08-20T20:06:05Z</time></trkpt><trkpt lat="59.1042163968" lon="30.4867560323"><ele>303.43</ele><time>2026-08-20T20:06:06Z</time></trkpt><trkpt lat="59.1042163968" lon="30.4867560323"><ele>303.43</ele><time>2026-08-20T20:06:07Z</time></trkpt><trkpt lat="59.1042163968" lon="30.4867560323"><ele>303.43</ele><time>2026-08-20T20:06:08Z</time></trkpt><trkpt lat="59.1042163968" lon="30.4867560323"><ele>303.43</ele><time>2026-08-20T20:06:09Z</time></trkpt><trkpt lat="59.1042163968" lon="30.4867560323"><ele>303.43</ele><time>2026-08-20T20:06:10Z</time></trkpt><trkpt lat="59.1042163968" lon="30.4867560323"><ele>303.43</ele><time>2026-08-20T20:06:11Z</time></trkpt><trkpt lat="59.1042163968" lon="30.4867560323"><ele>303.43</ele><time>2026-08-20T20:06:12Z</time></trkpt><trkpt lat="59.1042163968" lon="30.4867560323"><ele>303.43</ele><time>2026-08-20T20:06:13Z</time></trkpt><trkpt lat="59.1042163968" lon="30.4867560323"><ele>303.43</ele><time>2026-08-20T20:06:14Z</time></trkpt><trkpt lat="59.1042163968" lon="30.4867560323"><ele>303.43</ele><time>2026-08-20T20:06:15Z</time></trkpt><trkpt lat="59.1042163968" lon="30.4867560323"><ele>303.43</ele><time>2026-08-20T20:06:16Z</time></trkpt><trkpt lat="59.1042163968" lon="30.4867560323"><ele>303.43</ele><time>2026-08-20T20:06:17Z</time></trkpt><trkpt lat="59.1042163968" lon="30.4867560323"><ele>303.43</ele><time>2026-08-20T20:06:18Z</time></trkpt><trkpt lat="59.1042163968" lon="30.4867560323"><ele>303.43</ele><time>2026-08-20T20:06:19Z</time></trkpt><trkpt lat="59.1042163968" lon="30.4867560323"><ele>303.43</ele><time>2026-08-20T20:06:20Z</time></trkpt><trkpt lat="59.1042163968" lon="30.4867560323"><ele>303.43</ele><time>2026-08-20T20:06:21Z</time></trkpt><trkpt lat="59.1042163968" lon="30.4867560323"><ele>303.43</ele><time>2026-08-20T20:06:22Z</time></trkpt><trkpt lat="59.1042163968" lon="30.4867560323"><ele>303.43</ele><time>2026-08-20T20:06:23Z</time></trkpt><trkpt lat="59.1042163968" lon="30.4867560323"><ele>303.43</ele><time>2026-08-20T20:06:24Z</time></trkpt><trkpt lat="59.1042163968" lon="30.4867560323"><ele>303.43</ele><time>2026-08-20T20:06:25Z</time></trkpt><trkpt lat="59.1042163968" lon="30.4867560323"><ele>303.43</ele><time>2026-08-20T20:06:26Z</time></trkpt><trkpt lat="59.1042163968" lon="30.4867560323"><ele>303.43</ele><time>2026-08-20T20:06:27Z</time></trkpt><trkpt lat="59.1042163968" lon="30.4867560323"><ele>303.43</ele><time>2026-08-20T20:06:28Z</time></trkpt><trkpt lat="59.1042163968" lon="30.4867560323"><ele>303.43</ele><time>2026-08-20T20:06:29Z</time></trkpt><trkpt lat="59.1042163968" lon="30.4867560323"><ele>303.43</ele><time>2026-08-20T20:06:30Z</time></trkpt><trkpt lat="59.1042163968" lon="30.4867560323"><ele>303.43</ele><time>2026-08-20T20:06:31Z</time></trkpt><trkpt lat="59.1042163968" lon="30.4867560323"><ele>303.43</ele><time>2026-08-20T20:06:32Z</time></trkpt><trkpt lat="59.1042163968" lon="30.4867560323"><ele>303.43</ele><time>2026-08-20T20:06:33Z</time></trkpt><trkpt lat="59.1042163968" lon="30.4867560323"><ele>303.43</ele><time>2026-08-20T20:06:34Z</time></trkpt><trkpt lat="59.1042163968" lon="30.4867560323"><ele>303.43</ele><time>2026-08-20T20:06:35Z</time></trkpt><trkpt lat="59.1042163968" lon="30.4867560323"><ele>303.43</ele><time>2026-08-20T20:06:36Z</time></trkpt><trkpt lat="59.1042163968" lon="30.4867560323"><ele>303.43</ele><time>2026-08-20T20:06:37Z</time></trkpt><trkpt lat="59.1042163968" lon="30.4867560323"><ele>303.43</ele><time>2026-08-20T20:06:38Z</time></trkpt><trkpt lat="59.1042163968" lon="30.4867560323"><ele>303.43</ele><time>2026-08-20T20:06:39Z</time></trkpt><trkpt lat="59.1042163968" lon="30.4867560323"><ele>303.43</ele><time>2026-08-20T20:06:40Z</time></trkpt><trkpt lat="59.1042163968" lon="30.4867560323"><ele>303.43</ele><time>2026-08-20T20:06:41Z</time></trkpt><trkpt lat="59.1042163968" lon="30.4867560323"><ele>303.43</ele><time>2026-08-20T20:06:42Z</time></trkpt><trkpt lat="59.1042163968" lon="30.4867560323"><ele>303.43</ele><time>2026-08-20T20:06:43Z</time></trkpt><trkpt lat="59.1042163968" lon="30.4867560323"><ele>303.43</ele><time>2026-08-20T20:06:44Z</time></trkpt><trkpt lat="59.1042163968" lon="30.4867560323"><ele>303.43</ele><time>2026-08-20T20:06:45Z</time></trkpt><trkpt lat="59.1042163968" lon="30.4867560323"><ele>303.43</ele><time>2026-08-20T20:06:46Z</time></trkpt><trkpt lat="59.1042163968" lon="30.4867560323"><ele>303.43</ele><time>2026-08-20T20:06:47Z</time></trkpt><trkpt lat="59.1042163968" lon="30.4867560323"><ele>303.43</ele><time>2026-08-20T20:06:48Z</time></trkpt><trkpt lat="59.1042163968" lon="30.4867560323"><ele>303.43</ele><time>2026-08-20T20:06:49Z</time></trkpt><trkpt lat="59.1042163968" lon="30.4867560323"><ele>303.43</ele><time>2026-08-20T20:06:50Z</time></trkpt><trkpt lat="59.1042163968" lon="30.4867560323"><ele>303.43</ele><time>2026-08-20T20:06:51Z</time></trkpt><trkpt lat="59.1042163968" lon="30.4867560323"><ele>303.43</ele><time>2026-08-20T20:06:52Z</time></trkpt><trkpt lat="59.1042163968" lon="30.4867560323"><ele>303.43</ele><time>2026-08-20T20:06:53Z</time></trkpt><trkpt lat="59.1042163968" lon="30.4867560323"><ele>303.43</ele><time>2026-08-20T20:06:54Z</time></trkpt><trkpt lat="59.1042163968" lon="30.4867560323"><ele>303.43</ele><time>2026-08-20T20:06:55Z</time></trkpt><trkpt lat="59.1042163968" lon="30.4867560323"><ele>303.43</ele><time>2026-08-20T20:06:56Z</time></trkpt><trkpt lat="59.1042163968" lon="30.4867560323"><ele>303.43</ele><time>2026-08-20T20:06:57Z</time></trkpt><trkpt lat="59.1042163968" lon="30.4867560323"><ele>303.43</ele><time>2026-08-20T20:06:58Z</time></trkpt><trkpt lat="59.1042163968" lon="30.4867560323"><ele>303.43</ele><time>2026-08-20T20:06:59Z</time></trkpt><trkpt lat="59.1042163968" lon="30.4867560323"><ele>303.43</ele><time>2026-08-20T20:07:00Z</time></trkpt><trkpt lat="59.1042163968" lon="30.4867560323"><ele>303.43</ele><time>2026-08-20T20:07:01Z</time></trkpt><trkpt lat="59.1042163968" lon="30.4867560323"><ele>303.43</ele><time>2026-08-20T20:07:02Z</time></trkpt><trkpt lat="59.1042163968" lon="30.4867560323"><ele>303.43</ele><time>2026-08-20T20:07:03Z</time></trkpt><trkpt lat="59.1042163968" lon="30.4867560323"><ele>303.43</ele><time>2026-08-20T20:07:04Z</time></trkpt><trkpt lat="59.1042163968" lon="30.4867560323"><ele>303.43</ele><time>2026-08-20T20:07:05Z</time></trkpt><trkpt lat="59.1042163968" lon="30.4867560323"><ele>303.43</ele><time>2026-08-20T20:07:06Z</time></trkpt><trkpt lat="59.1042163968" lon="30.4867560323"><ele>303.43</ele><time>2026-08-20T20:07:07Z</time></trkpt><trkpt lat="59.1042163968" lon="30.4867560323"><ele>303.43</ele><time>2026-08-20T20:07:08Z</time></trkpt><trkpt lat="59.1042163968" lon="30.4867560323"><ele>303.43</ele><time>2026-08-20T20:07:09Z</time></trkpt><trkpt lat="59.1042163968" lon="30.4867560323"><ele>303.43</ele><time>2026-08-20T20:07:10Z</time></trkpt><trkpt lat="59.1042163968" lon="30.4867560323"><ele>303.43</ele><time>2026-08-20T20:07:11Z</time></trkpt><trkpt lat="59.1042163968" lon="30.4867560323"><ele>303.43</ele><time>2026-08-20T20:07:12Z</time></trkpt><trkpt lat="59.1042163968" lon="30.4867560323"><ele>303.43</ele><time>2026-08-20T20:07:13Z</time></trkpt><trkpt lat="59.1042163968" lon="30.4867560323"><ele>303.43</ele><time>2026-08-20T20:07:14Z</time></trkpt><trkpt lat="59.1042163968" lon="30.4867560323"><ele>303.43</ele><time>2026-08-20T20:07:15Z</time></trkpt><trkpt lat="59.1042163968" lon="30.4867560323"><ele>303.43</ele><time>2026-08-20T20:07:16Z</time></trkpt><trkpt lat="59.1042163968" lon="30.4867560323"><ele>303.43</ele><time>2026-08-20T20:07:17Z</time></trkpt><trkpt lat="59.1042163968" lon="30.4867560323"><ele>303.43</ele><time>2026-08-20T20:07:18Z</time></trkpt><trkpt lat="59.1042163968" lon="30.4867560323"><ele>303.43</ele><time>2026-08-20T20:07:19Z</time></trkpt><trkpt lat="59.1042163968" lon="30.4867560323"><ele>303.43</ele><time>2026-08-20T20:07:20Z</time></trkpt><trkpt lat="59.1042163968" lon="30.4867560323"><ele>303.43</ele><time>2026-08-20T20:07:21Z</time></trkpt><trkpt lat="59.1042163968" lon="30.4867560323"><ele>303.43</ele><time>2026-08-20T20:07:22Z</time></trkpt><trkpt lat="59.1042163968" lon="30.4867560323"><ele>303.43</ele><time>2026-08-20T20:07:23Z</time></trkpt><trkpt lat="59.1042163968" lon="30.4867560323"><ele>303.43</ele><time>2026-08-20T20:07:24Z</time></trkpt><trkpt lat="59.1042163968" lon="30.4867560323"><ele>303.43</ele><time>2026-08-20T20:07:25Z</time></trkpt><trkpt lat="59.1042163968" lon="30.4867560323"><ele>303.43</ele><time>2026-08-20T20:07:26Z</time></trkpt><trkpt lat="59.1042163968" lon="30.4867560323"><ele>303.43</ele><time>2026-08-20T20:07:27Z</time></trkpt><trkpt lat="59.1042163968" lon="30.4867560323"><ele>303.43</ele><time>2026-08-20T20:07:28Z</time></trkpt><trkpt lat="59.1042163968" lon="30.4867560323"><ele>303.43</ele><time>2026-08-20T20:07:29Z</time></trkpt><trkpt lat="59.1042163968" lon="30.4867560323"><ele>303.43</ele><time>2026-08-20T20:07:30Z</time></trkpt><trkpt lat="59.1042163968" lon="30.4867560323"><ele>303.43</ele><time>2026-08-20T20:07:31Z</time></trkpt><trkpt lat="59.1042163968" lon="30.4867560323"><ele>303.43</ele><time>2026-08-20T20:07:32Z</time></trkpt><trkpt lat="59.1042163968" lon="30.4867560323"><ele>303.43</ele><time>2026-08-20T20:07:33Z</time></trkpt><trkpt lat="59.1042163968" lon="30.4867560323"><ele>303.43</ele><time>2026-08-20T20:07:34Z</time></trkpt><trkpt lat="59.1042163968" lon="30.4867560323"><ele>303.43</ele><time>2026-08-20T20:07:35Z</time></trkpt><trkpt lat="59.1042163968" lon="30.4867560323"><ele>303.43</ele><time>2026-08-20T20:07:36Z</time></trkpt><trkpt lat="59.1042163968" lon="30.4867560323"><ele>303.43</ele><time>2026-08-20T20:07:37Z</time></trkpt><trkpt lat="59.1042163968" lon="30.4867560323"><ele>303.43</ele><time>2026-08-20T20:07:38Z</time></trkpt><trkpt lat="59.1042163968" lon="30.4867560323"><ele>303.43</ele><time>2026-08-20T20:07:39Z</time></trkpt><trkpt lat="59.1042163968" lon="30.4867560323"><ele>303.43</ele><time>2026-08-20T20:07:40Z</time></trkpt><trkpt lat="59.1042163968" lon="30.4867560323"><ele>303.43</ele><time>2026-08-20T20:07:41Z</time></trkpt><trkpt lat="59.1042163968" lon="30.4867560323"><ele>303.43</ele><time>2026-08-20T20:07:42Z</time></trkpt><trkpt lat="59.1042163968" lon="30.4867560323"><ele>303.43</ele><time>2026-08-20T20:07:43Z</time></trkpt><trkpt lat="59.1042163968" lon="30.4867560323"><ele>303.43</ele><time>2026-08-20T20:07:44Z</time></trkpt><trkpt lat="59.1042163968" lon="30.4867560323"><ele>303.43</ele><time>2026-08-20T20:07:45Z</time></trkpt><trkpt lat="59.1042163968" lon="30.4867560323"><ele>303.43</ele><time>2026-08-20T20:07:46Z</time></trkpt><trkpt lat="59.1042163968" lon="30.4867560323"><ele>303.43</ele><time>2026-08-20T20:07:47Z</time></trkpt><trkpt lat="59.1042163968" lon="30.4867560323"><ele>303.43</ele><time>2026-08-20T20:07:48Z</time></trkpt><trkpt lat="59.1042163968" lon="30.4867560323"><ele>303.43</ele><time>2026-08-20T20:07:49Z</time></trkpt><trkpt lat="59.1042163968" lon="30.4867560323"><ele>303.43</ele><time>2026-08-20T20:07:50Z</time></trkpt><trkpt lat="59.1042163968" lon="30.4867560323"><ele>303.43</ele><time>2026-08-20T20:07:51Z</time></trkpt><trkpt lat="59.1042163968" lon="30.4867560323"><ele>303.43</ele><time>2026-08-20T20:07:52Z</time></trkpt><trkpt lat="59.1042163968" lon="30.4867560323"><ele>303.43</ele><time>2026-08-20T20:07:53Z</time></trkpt><trkpt lat="59.1042163968" lon="30.4867560323"><ele>303.43</ele><time>2026-08-20T20:07:54Z</time></trkpt><trkpt lat="59.1042163968" lon="30.4867560323"><ele>303.43</ele><time>2026-08-20T20:07:55Z</time></trkpt><trkpt lat="59.1042163968" lon="30.4867560323"><ele>303.43</ele><time>2026-08-20T20:07:56Z</time></trkpt><trkpt lat="59.1042163968" lon="30.4867560323"><ele>303.43</ele><time>2026-08-20T20:07:57Z</time></trkpt><trkpt lat="59.1042163968" lon="30.4867560323"><ele>303.43</ele><time>2026-08-20T20:07:58Z</time></trkpt><trkpt lat="59.1042163968" lon="30.4867560323"><ele>303.43</ele><time>2026-08-20T20:07:59Z</time></trkpt><trkpt lat="59.1042163968" lon="30.4867560323"><ele>303.43</ele><time>2026-08-20T20:08:00Z</time></trkpt><trkpt lat="59.1042163968" lon="30.4867560323"><ele>303.43</ele><time>2026-08-20T20:08:01Z</time></trkpt><trkpt lat="59.1042163968" lon="30.4867560323"><ele>303.43</ele><time>2026-08-20T20:08:02Z</time></trkpt><trkpt lat="59.1042163968" lon="30.4867560323"><ele>303.43</ele><time>2026-08-20T20:08:03Z</time></trkpt><trkpt lat="59.1042163968" lon="30.4867560323"><ele>303.43</ele><time>2026-08-20T20:08:04Z</time></trkpt><trkpt lat="59.1042163968" lon="30.4867560323"><ele>303.43</ele><time>2026-08-20T20:08:05Z</time></trkpt><trkpt lat="59.1042163968" lon="30.4867560323"><ele>303.43</ele><time>2026-08-20T20:08:06Z</time></trkpt><trkpt lat="59.1042163968" lon="30.4867560323"><ele>303.43</ele><time>2026-08-20T20:08:07Z</time></trkpt><trkpt lat="59.1042163968" lon="30.4867560323"><ele>303.43</ele><time>2026-08-20T20:08:08Z</time></trkpt><trkpt lat="59.1042163968" lon="30.4867560323"><ele>303.43</ele><time>2026-08-20T20:08:09Z</time></trkpt><trkpt lat="59.1042163968" lon="30.4867560323"><ele>303.43</ele><time>2026-08-20T20:08:10Z</time></trkpt><trkpt lat="59.1042163968" lon="30.4867560323"><ele>303.43</ele><time>2026-08-20T20:08:11Z</time></trkpt><trkpt lat="59.1042163968" lon="30.4867560323"><ele>303.43</ele><time>2026-08-20T20:08:12Z</time></trkpt><trkpt lat="59.1042163968" lon="30.4867560323"><ele>303.43</ele><time>2026-08-20T20:08:13Z</time></trkpt><trkpt lat="59.1042163968" lon="30.4867560323"><ele>303.43</ele><time>2026-08-20T20:08:14Z</time></trkpt><trkpt lat="59.1042163968" lon="30.4867560323"><ele>303.43</ele><time>2026-08-20T20:08:15Z</time></trkpt><trkpt lat="59.1042163968" lon="30.4867560323"><ele>303.43</ele><time>2026-08-20T20:08:16Z</time></trkpt><trkpt lat="59.1042163968" lon="30.4867560323"><ele>303.43</ele><time>2026-08-20T20:08:17Z</time></trkpt><trkpt lat="59.1042163968" lon="30.4867560323"><ele>303.43</ele><time>2026-08-20T20:08:18Z</time></trkpt><trkpt lat="59.1042163968" lon="30.4867560323"><ele>303.43</ele><time>2026-08-20T20:08:19Z</time></trkpt><trkpt lat="59.1042163968" lon="30.4867560323"><ele>303.43</ele><time>2026-08-20T20:08:20Z</time></trkpt><trkpt lat="59.1042163968" lon="30.4867560323"><ele>303.43</ele><time>2026-08-20T20:08:21Z</time></trkpt><trkpt lat="59.1042163968" lon="30.4867560323"><ele>303.43</ele><time>2026-08-20T20:08:22Z</time></trkpt><trkpt lat="59.1042163968" lon="30.4867560323"><ele>303.43</ele><time>2026-08-20T20:08:23Z</time></trkpt><trkpt lat="59.1042163968" lon="30.4867560323"><ele>303.43</ele><time>2026-08-20T20:08:24Z</time></trkpt><trkpt lat="59.1042163968" lon="30.4867560323"><ele>303.43</ele><time>2026-08-20T20:08:25Z</time></trkpt><trkpt lat="59.1042163968" lon="30.4867560323"><ele>303.43</ele><time>2026-08-20T20:08:26Z</time></trkpt><trkpt lat="59.1042163968" lon="30.4867560323"><ele>303.43</ele><time>2026-08-20T20:08:27Z</time></trkpt><trkpt lat="59.1042163968" lon="30.4867560323"><ele>303.43</ele><time>2026-08-20T20:08:28Z</time></trkpt><trkpt lat="59.1042163968" lon="30.4867560323"><ele>303.43</ele><time>2026-08-20T20:08:29Z</time></trkpt><trkpt lat="59.1042163968" lon="30.4867560323"><ele>303.43</ele><time>2026-08-20T20:08:30Z</time></trkpt><trkpt lat="59.1042163968" lon="30.4867560323"><ele>303.43</ele><time>2026-08-20T20:08:31Z</time></trkpt><trkpt lat="59.1042163968" lon="30.4867560323"><ele>303.43</ele><time>2026-08-20T20:08:32Z</time></trkpt><trkpt lat="59.1042163968" lon="30.4867560323"><ele>303.43</ele><time>2026-08-20T20:08:33Z</time></trkpt><trkpt lat="59.1042163968" lon="30.4867560323"><ele>303.43</ele><time>2026-08-20T20:08:34Z</time></trkpt><trkpt lat="59.1042163968" lon="30.4867560323"><ele>303.43</ele><time>2026-08-20T20:08:35Z</time></trkpt><trkpt lat="59.1042163968" lon="30.4867560323"><ele>303.43</ele><time>2026-08-20T20:08:36Z</time></trkpt><trkpt lat="59.1042163968" lon="30.4867560323"><ele>303.43</ele><time>2026-08-20T20:08:37Z</time></trkpt><trkpt lat="59.1042163968" lon="30.4867560323"><ele>303.43</ele><time>2026-08-20T20:08:38Z</time></trkpt><trkpt lat="59.1042163968" lon="30.4867560323"><ele>303.43</ele><time>2026-08-20T20:08:39Z</time></trkpt><trkpt lat="59.1042163968" lon="30.4867560323"><ele>303.43</ele><time>2026-08-20T20:08:40Z</time></trkpt><trkpt lat="59.1042163968" lon="30.4867560323"><ele>303.43</ele><time>2026-08-20T20:08:41Z</time></trkpt><trkpt lat="59.1042163968" lon="30.4867560323"><ele>303.43</ele><time>2026-08-20T20:08:42Z</time></trkpt><trkpt lat="59.1042163968" lon="30.4867560323"><ele>303.43</ele><time>2026-08-20T20:08:43Z</time></trkpt><trkpt lat="59.1042163968" lon="30.4867560323"><ele>303.43</ele><time>2026-08-20T20:08:44Z</time></trkpt><trkpt lat="59.1042163968" lon="30.4867560323"><ele>303.43</ele><time>2026-08-20T20:08:45Z</time></trkpt><trkpt lat="59.1042163968" lon="30.4867560323"><ele>303.43</ele><time>2026-08-20T20:08:46Z</time></trkpt><trkpt lat="59.1042163968" lon="30.4867560323"><ele>303.43</ele><time>2026-08-20T20:08:47Z</time></trkpt><trkpt lat="59.1042163968" lon="30.4867560323"><ele>303.43</ele><time>2026-08-20T20:08:48Z</time></trkpt><trkpt lat="59.1042163968" lon="30.4867560323"><ele>303.43</ele><time>2026-08-20T20:08:49Z</time></trkpt><trkpt lat="59.1042163968" lon="30.4867560323"><ele>303.43</ele><time>2026-08-20T20:08:50Z</time></trkpt><trkpt lat="59.1042163968" lon="30.4867560323"><ele>303.43</ele><time>2026-08-20T20:08:51Z</time></trkpt><trkpt lat="59.1042163968" lon="30.4867560323"><ele>303.43</ele><time>2026-08-20T20:08:52Z</time></trkpt><trkpt lat="59.1042163968" lon="30.4867560323"><ele>303.43</ele><time>2026-08-20T20:08:53Z</time></trkpt><trkpt lat="59.1042163968" lon="30.4867560323"><ele>303.43</ele><time>2026-08-20T20:08:54Z</time></trkpt><trkpt lat="59.1042163968" lon="30.4867560323"><ele>303.43</ele><time>2026-08-20T20:08:55Z</time></trkpt><trkpt lat="59.1042163968" lon="30.4867560323"><ele>303.43</ele><time>2026-08-20T20:08:56Z</time></trkpt><trkpt lat="59.1042163968" lon="30.4867560323"><ele>303.43</ele><time>2026-08-20T20:08:57Z</time></trkpt><trkpt lat="59.1042163968" lon="30.4867560323"><ele>303.43</ele><time>2026-08-20T20:08:58Z</time></trkpt><trkpt lat="59.1042163968" lon="30.4867560323"><ele>303.43</ele><time>2026-08-20T20:08:59Z</time></trkpt><trkpt lat="59.1042163968" lon="30.4867560323"><ele>303.43</ele><time>2026-08-20T20:09:00Z</time></trkpt><trkpt lat="59.1042163968" lon="30.4867560323"><ele>303.43</ele><time>2026-08-20T20:09:01Z</time></trkpt><trkpt lat="59.1042163968" lon="30.4867560323"><ele>303.43</ele><time>2026-08-20T20:09:02Z</time></trkpt><trkpt lat="59.1042163968" lon="30.4867560323"><ele>303.43</ele><time>2026-08-20T20:09:03Z</time></trkpt><trkpt lat="59.1042163968" lon="30.4867560323"><ele>303.43</ele><time>2026-08-20T20:09:04Z</time></trkpt><trkpt lat="59.1042163968" lon="30.4867560323"><ele>303.43</ele><time>2026-08-20T20:09:05Z</time></trkpt><trkpt lat="59.1042163968" lon="30.4867560323"><ele>303.43</ele><time>2026-08-20T20:09:06Z</time></trkpt><trkpt lat="59.1042163968" lon="30.4867560323"><ele>303.43</ele><time>2026-08-20T20:09:07Z</time></trkpt><trkpt lat="59.1042163968" lon="30.4867560323"><ele>303.43</ele><time>2026-08-20T20:09:08Z</time></trkpt><trkpt lat="59.1042163968" lon="30.4867560323"><ele>303.43</ele><time>2026-08-20T20:09:09Z</time></trkpt><trkpt lat="59.1042163968" lon="30.4867560323"><ele>303.43</ele><time>2026-08-20T20:09:10Z</time></trkpt><trkpt lat="59.1042163968" lon="30.4867560323"><ele>303.43</ele><time>2026-08-20T20:09:11Z</time></trkpt><trkpt lat="59.1042163968" lon="30.4867560323"><ele>303.43</ele><time>2026-08-20T20:09:12Z</time></trkpt><trkpt lat="59.1042163968" lon="30.4867560323"><ele>303.43</ele><time>2026-08-20T20:09:13Z</time></trkpt><trkpt lat="59.1042163968" lon="30.4867560323"><ele>303.43</ele><time>2026-08-20T20:09:14Z</time></trkpt><trkpt lat="59.1042163968" lon="30.4867560323"><ele>303.43</ele><time>2026-08-20T20:09:15Z</time></trkpt><trkpt lat="59.1042163968" lon="30.4867560323"><ele>303.43</ele><time>2026-08-20T20:09:16Z</time></trkpt><trkpt lat="59.1042163968" lon="30.4867560323"><ele>303.43</ele><time>2026-08-20T20:09:17Z</time></trkpt><trkpt lat="59.1042163968" lon="30.4867560323"><ele>303.43</ele><time>2026-08-20T20:09:18Z</time></trkpt><trkpt lat="59.1042163968" lon="30.4867560323"><ele>303.43</ele><time>2026-08-20T20:09:19Z</time></trkpt><trkpt lat="59.1042163968" lon="30.4867560323"><ele>303.43</ele><time>2026-08-20T20:09:20Z</time></trkpt><trkpt lat="59.1042163968" lon="30.4867560323"><ele>303.43</ele><time>2026-08-20T20:09:21Z</time></trkpt><trkpt lat="59.1042163968" lon="30.4867560323"><ele>303.43</ele><time>2026-08-20T20:09:22Z</time></trkpt><trkpt lat="59.1042163968" lon="30.4867560323"><ele>303.43</ele><time>2026-08-20T20:09:23Z</time></trkpt><trkpt lat="59.1042163968" lon="30.4867560323"><ele>303.43</ele><time>2026-08-20T20:09:24Z</time></trkpt><trkpt lat="59.1042163968" lon="30.4867560323"><ele>303.43</ele><time>2026-08-20T20:09:25Z</time></trkpt><trkpt lat="59.1042163968" lon="30.4867560323"><ele>303.43</ele><time>2026-08-20T20:09:26Z</time></trkpt><trkpt lat="59.1042163968" lon="30.4867560323"><ele>303.43</ele><time>2026-08-20T20:09:27Z</time></trkpt><trkpt lat="59.1042163968" lon="30.4867560323"><ele>303.43</ele><time>2026-08-20T20:09:28Z</time></trkpt><trkpt lat="59.1042163968" lon="30.4867560323"><ele>303.43</ele><time>2026-08-20T20:09:29Z</time></trkpt><trkpt lat="59.1042163968" lon="30.4867560323"><ele>303.43</ele><time>2026-08-20T20:09:30Z</time></trkpt><trkpt lat="59.1042163968" lon="30.4867560323"><ele>303.43</ele><time>2026-08-20T20:09:31Z</time></trkpt><trkpt lat="59.1042163968" lon="30.4867560323"><ele>303.43</ele><time>2026-08-20T20:09:32Z</time></trkpt><trkpt lat="59.1042163968" lon="30.4867560323"><ele>303.43</ele><time>2026-08-20T20:09:33Z</time></trkpt><trkpt lat="59.1042163968" lon="30.4867560323"><ele>303.43</ele><time>2026-08-20T20:09:34Z</time></trkpt><trkpt lat="59.1042163968" lon="30.4867560323"><ele>303.43</ele><time>2026-08-20T20:09:35Z</time></trkpt><trkpt lat="59.1042163968" lon="30.4867560323"><ele>303.43</ele><time>2026-08-20T20:09:36Z</time></trkpt><trkpt lat="59.1042163968" lon="30.4867560323"><ele>303.43</ele><time>2026-08-20T20:09:37Z</time></trkpt><trkpt lat="59.1042163968" lon="30.4867560323"><ele>303.43</ele><time>2026-08-20T20:09:38Z</time></trkpt><trkpt lat="59.1042163968" lon="30.4867560323"><ele>303.43</ele><time>2026-08-20T20:09:39Z</time></trkpt><trkpt lat="59.1042163968" lon="30.4867560323"><ele>303.43</ele><time>2026-08-20T20:09:40Z</time></trkpt><trkpt lat="59.1042163968" lon="30.4867560323"><ele>303.43</ele><time>2026-08-20T20:09:41Z</time></trkpt><trkpt lat="59.1042163968" lon="30.4867560323"><ele>303.43</ele><time>2026-08-20T20:09:42Z</time></trkpt><trkpt lat="59.1042163968" lon="30.4867560323"><ele>303.43</ele><time>2026-08-20T20:09:43Z</time></trkpt><trkpt lat="59.1042163968" lon="30.4867560323"><ele>303.43</ele><time>2026-08-20T20:09:44Z</time></trkpt><trkpt lat="59.1042163968" lon="30.4867560323"><ele>303.43</ele><time>2026-08-20T20:09:45Z</time></trkpt><trkpt lat="59.1042163968" lon="30.4867560323"><ele>303.43</ele><time>2026-08-20T20:09:46Z</time></trkpt><trkpt lat="59.1042163968" lon="30.4867560323"><ele>303.43</ele><time>2026-08-20T20:09:47Z</time></trkpt><trkpt lat="59.1042163968" lon="30.4867560323"><ele>303.43</ele><time>2026-08-20T20:09:48Z</time></trkpt><trkpt lat="59.1042163968" lon="30.4867560323"><ele>303.43</ele><time>2026-08-20T20:09:49Z</time></trkpt><trkpt lat="59.1042163968" lon="30.4867560323"><ele>303.43</ele><time>2026-08-20T20:09:50Z</time></trkpt><trkpt lat="59.1042163968" lon="30.4867560323"><ele>303.43</ele><time>2026-08-20T20:09:51Z</time></trkpt><trkpt lat="59.1042163968" lon="30.4867560323"><ele>303.43</ele><time>2026-08-20T20:09:52Z</time></trkpt><trkpt lat="59.1042163968" lon="30.4867560323"><ele>303.43</ele><time>2026-08-20T20:09:53Z</time></trkpt><trkpt lat="59.1042163968" lon="30.4867560323"><ele>303.43</ele><time>2026-08-20T20:09:54Z</time></trkpt><trkpt lat="59.1042163968" lon="30.4867560323"><ele>303.43</ele><time>2026-08-20T20:09:55Z</time></trkpt><trkpt lat="59.1042163968" lon="30.4867560323"><ele>303.43</ele><time>2026-08-20T20:09:56Z</time></trkpt><trkpt lat="59.1042163968" lon="30.4867560323"><ele>303.43</ele><time>2026-08-20T20:09:57Z</time></trkpt><trkpt lat="59.1042163968" lon="30.4867560323"><ele>303.43</ele><time>2026-08-20T20:09:58Z</time></trkpt><trkpt lat="59.1042163968" lon="30.4867560323"><ele>303.43</ele><time>2026-08-20T20:09:59Z</time></trkpt><trkpt lat="59.1042163968" lon="30.4867560323"><ele>303.43</ele><time>2026-08-20T20:10:00Z</time></trkpt><trkpt lat="59.1042163968" lon="30.4867560323"><ele>303.43</ele><time>2026-08-20T20:10:01Z</time></trkpt><trkpt lat="59.1042163968" lon="30.4867560323"><ele>303.43</ele><time>2026-08-20T20:10:02Z</time></trkpt><trkpt lat="59.1042163968" lon="30.4867560323"><ele>303.43</ele><time>2026-08-20T20:10:03Z</time></trkpt><trkpt lat="59.1042163968" lon="30.4867560323"><ele>303.43</ele><time>2026-08-20T20:10:04Z</time></trkpt><trkpt lat="59.1042163968" lon="30.4867560323"><ele>303.43</ele><time>2026-08-20T20:10:05Z</time></trkpt><trkpt lat="59.1042163968" lon="30.4867560323"><ele>303.43</ele><time>2026-08-20T20:10:06Z</time></trkpt><trkpt lat="59.1042163968" lon="30.4867560323"><ele>303.43</ele><time>2026-08-20T20:10:07Z</time></trkpt><trkpt lat="59.1042163968" lon="30.4867560323"><ele>303.43</ele><time>2026-08-20T20:10:08Z</time></trkpt><trkpt lat="59.1042163968" lon="30.4867560323"><ele>303.43</ele><time>2026-08-20T20:10:09Z</time></trkpt><trkpt lat="59.1042163968" lon="30.4867560323"><ele>303.43</ele><time>2026-08-20T20:10:10Z</time></trkpt><trkpt lat="59.1042163968" lon="30.4867560323"><ele>303.43</ele><time>2026-08-20T20:10:11Z</time></trkpt><trkpt lat="59.1042163968" lon="30.4867560323"><ele>303.43</ele><time>2026-08-20T20:10:12Z</time></trkpt><trkpt lat="59.1042163968" lon="30.4867560323"><ele>303.43</ele><time>2026-08-20T20:10:13Z</time></trkpt><trkpt lat="59.1042163968" lon="30.4867560323"><ele>303.43</ele><time>2026-08-20T20:10:14Z</time></trkpt><trkpt lat="59.1042163968" lon="30.4867560323"><ele>303.43</ele><time>2026-08-20T20:10:15Z</time></trkpt><trkpt lat="59.1042163968" lon="30.4867560323"><ele>303.43</ele><time>2026-08-20T20:10:16Z</time></trkpt><trkpt lat="59.1042163968" lon="30.4867560323"><ele>303.43</ele><time>2026-08-20T20:10:17Z</time></trkpt><trkpt lat="59.1042163968" lon="30.4867560323"><ele>303.43</ele><time>2026-08-20T20:10:18Z</time></trkpt><trkpt lat="59.1042163968" lon="30.4867560323"><ele>303.43</ele><time>2026-08-20T20:10:19Z</time></trkpt><trkpt lat="59.1042163968" lon="30.4867560323"><ele>303.43</ele><time>2026-08-20T20:10:20Z</time></trkpt><trkpt lat="59.1042163968" lon="30.4867560323"><ele>303.43</ele><time>2026-08-20T20:10:21Z</time></trkpt><trkpt lat="59.1042163968" lon="30.4867560323"><ele>303.43</ele><time>2026-08-20T20:10:22Z</time></trkpt><trkpt lat="59.1042163968" lon="30.4867560323"><ele>303.43</ele><time>2026-08-20T20:10:23Z</time></trkpt><trkpt lat="59.1042163968" lon="30.4867560323"><ele>303.43</ele><time>2026-08-20T20:10:24Z</time></trkpt><trkpt lat="59.1042163968" lon="30.4867560323"><ele>303.43</ele><time>2026-08-20T20:10:25Z</time></trkpt><trkpt lat="59.1042163968" lon="30.4867560323"><ele>303.43</ele><time>2026-08-20T20:10:26Z</time></trkpt><trkpt lat="59.1042163968" lon="30.4867560323"><ele>303.43</ele><time>2026-08-20T20:10:27Z</time></trkpt><trkpt lat="59.1042163968" lon="30.4867560323"><ele>303.43</ele><time>2026-08-20T20:10:28Z</time></trkpt><trkpt lat="59.1042163968" lon="30.4867560323"><ele>303.43</ele><time>2026-08-20T20:10:29Z</time></trkpt><trkpt lat="59.1042163968" lon="30.4867560323"><ele>303.43</ele><time>2026-08-20T20:10:30Z</time></trkpt><trkpt lat="59.1042163968" lon="30.4867560323"><ele>303.43</ele><time>2026-08-20T20:10:31Z</time></trkpt><trkpt lat="59.1042163968" lon="30.4867560323"><ele>303.43</ele><time>2026-08-20T20:10:32Z</time></trkpt><trkpt lat="59.1042163968" lon="30.4867560323"><ele>303.43</ele><time>2026-08-20T20:10:33Z</time></trkpt><trkpt lat="59.1042163968" lon="30.4867560323"><ele>303.43</ele><time>2026-08-20T20:10:34Z</time></trkpt><trkpt lat="59.1042163968" lon="30.4867560323"><ele>303.43</ele><time>2026-08-20T20:10:35Z</time></trkpt><trkpt lat="59.1042163968" lon="30.4867560323"><ele>303.43</ele><time>2026-08-20T20:10:36Z</time></trkpt><trkpt lat="59.1042163968" lon="30.4867560323"><ele>303.43</ele><time>2026-08-20T20:10:37Z</time></trkpt><trkpt lat="59.1042163968" lon="30.4867560323"><ele>303.43</ele><time>2026-08-20T20:10:38Z</time></trkpt><trkpt lat="59.1042163968" lon="30.4867560323"><ele>303.43</ele><time>2026-08-20T20:10:39Z</time></trkpt><trkpt lat="59.1042163968" lon="30.4867560323"><ele>303.43</ele><time>2026-08-20T20:10:40Z</time></trkpt><trkpt lat="59.1042163968" lon="30.4867560323"><ele>303.43</ele><time>2026-08-20T20:10:41Z</time></trkpt><trkpt lat="59.1042163968" lon="30.4867560323"><ele>303.43</ele><time>2026-08-20T20:10:42Z</time></trkpt><trkpt lat="59.1042163968" lon="30.4867560323"><ele>303.43</ele><time>2026-08-20T20:10:43Z</time></trkpt><trkpt lat="59.1042163968" lon="30.4867560323"><ele>303.43</ele><time>2026-08-20T20:10:44Z</time></trkpt><trkpt lat="59.1042163968" lon="30.4867560323"><ele>303.43</ele><time>2026-08-20T20:10:45Z</time></trkpt><trkpt lat="59.1042163968" lon="30.4867560323"><ele>303.43</ele><time>2026-08-20T20:10:46Z</time></trkpt><trkpt lat="59.1042163968" lon="30.4867560323"><ele>303.43</ele><time>2026-08-20T20:10:47Z</time></trkpt><trkpt lat="59.1042163968" lon="30.4867560323"><ele>303.43</ele><time>2026-08-20T20:10:48Z</time></trkpt><trkpt lat="59.1042163968" lon="30.4867560323"><ele>303.43</ele><time>2026-08-20T20:10:49Z</time></trkpt><trkpt lat="59.1042163968" lon="30.4867560323"><ele>303.43</ele><time>2026-08-20T20:10:50Z</time></trkpt><trkpt lat="59.1042163968" lon="30.4867560323"><ele>303.43</ele><time>2026-08-20T20:10:51Z</time></trkpt><trkpt lat="59.1042163968" lon="30.4867560323"><ele>303.43</ele><time>2026-08-20T20:10:52Z</time></trkpt><trkpt lat="59.1042163968" lon="30.4867560323"><ele>303.43</ele><time>2026-08-20T20:10:53Z</time></trkpt><trkpt lat="59.1042163968" lon="30.4867560323"><ele>303.43</ele><time>2026-08-20T20:10:54Z</time></trkpt><trkpt lat="59.1042163968" lon="30.4867560323"><ele>303.43</ele><time>2026-08-20T20:10:55Z</time></trkpt><trkpt lat="59.1042163968" lon="30.4867560323"><ele>303.43</ele><time>2026-08-20T20:10:56Z</time></trkpt><trkpt lat="59.1042163968" lon="30.4867560323"><ele>303.43</ele><time>2026-08-20T20:10:57Z</time></trkpt><trkpt lat="59.1042163968" lon="30.4867560323"><ele>303.43</ele><time>2026-08-20T20:10:58Z</time></trkpt><trkpt lat="59.1042163968" lon="30.4867560323"><ele>303.43</ele><time>2026-08-20T20:10:59Z</time></trkpt><trkpt lat="59.1042163968" lon="30.4867560323"><ele>303.43</ele><time>2026-08-20T20:11:00Z</time></trkpt><trkpt lat="59.1042163968" lon="30.4867560323"><ele>303.43</ele><time>2026-08-20T20:11:01Z</time></trkpt><trkpt lat="59.1042163968" lon="30.4867560323"><ele>303.43</ele><time>2026-08-20T20:11:02Z</time></trkpt><trkpt lat="59.1042163968" lon="30.4867560323"><ele>303.43</ele><time>2026-08-20T20:11:03Z</time></trkpt><trkpt lat="59.1042163968" lon="30.4867560323"><ele>303.43</ele><time>2026-08-20T20:11:04Z</time></trkpt><trkpt lat="59.1042163968" lon="30.4867560323"><ele>303.43</ele><time>2026-08-20T20:11:05Z</time></trkpt><trkpt lat="59.1042163968" lon="30.4867560323"><ele>303.43</ele><time>2026-08-20T20:11:06Z</time></trkpt><trkpt lat="59.1042163968" lon="30.4867560323"><ele>303.43</ele><time>2026-08-20T20:11:07Z</time></trkpt><trkpt lat="59.1042163968" lon="30.4867560323"><ele>303.43</ele><time>2026-08-20T20:11:08Z</time></trkpt><trkpt lat="59.1042163968" lon="30.4867560323"><ele>303.43</ele><time>2026-08-20T20:11:09Z</time></trkpt><trkpt lat="59.1042163968" lon="30.4867560323"><ele>303.43</ele><time>2026-08-20T20:11:10Z</time></trkpt><trkpt lat="59.1042163968" lon="30.4867560323"><ele>303.43</ele><time>2026-08-20T20:11:11Z</time></trkpt><trkpt lat="59.1042163968" lon="30.4867560323"><ele>303.43</ele><time>2026-08-20T20:11:12Z</time></trkpt><trkpt lat="59.1042163968" lon="30.4867560323"><ele>303.43</ele><time>2026-08-20T20:11:13Z</time></trkpt><trkpt lat="59.1042163968" lon="30.4867560323"><ele>303.43</ele><time>2026-08-20T20:11:14Z</time></trkpt><trkpt lat="59.1042163968" lon="30.4867560323"><ele>303.43</ele><time>2026-08-20T20:11:15Z</time></trkpt><trkpt lat="59.1042163968" lon="30.4867560323"><ele>303.43</ele><time>2026-08-20T20:11:16Z</time></trkpt><trkpt lat="59.1042163968" lon="30.4867560323"><ele>303.43</ele><time>2026-08-20T20:11:17Z</time></trkpt><trkpt lat="59.1042163968" lon="30.4867560323"><ele>303.43</ele><time>2026-08-20T20:11:18Z</time></trkpt><trkpt lat="59.1042163968" lon="30.4867560323"><ele>303.43</ele><time>2026-08-20T20:11:19Z</time></trkpt><trkpt lat="59.1042163968" lon="30.4867560323"><ele>303.43</ele><time>2026-08-20T20:11:20Z</time></trkpt><trkpt lat="59.1042163968" lon="30.4867560323"><ele>303.43</ele><time>2026-08-20T20:11:21Z</time></trkpt><trkpt lat="59.1042163968" lon="30.4867560323"><ele>303.43</ele><time>2026-08-20T20:11:22Z</time></trkpt><trkpt lat="59.1042163968" lon="30.4867560323"><ele>303.43</ele><time>2026-08-20T20:11:23Z</time></trkpt><trkpt lat="59.1042163968" lon="30.4867560323"><ele>303.43</ele><time>2026-08-20T20:11:24Z</time></trkpt><trkpt lat="59.1042163968" lon="30.4867560323"><ele>303.43</ele><time>2026-08-20T20:11:25Z</time></trkpt><trkpt lat="59.1042163968" lon="30.4867560323"><ele>303.43</ele><time>2026-08-20T20:11:26Z</time></trkpt><trkpt lat="59.1042163968" lon="30.4867560323"><ele>303.43</ele><time>2026-08-20T20:11:27Z</time></trkpt><trkpt lat="59.1042163968" lon="30.4867560323"><ele>303.43</ele><time>2026-08-20T20:11:28Z</time></trkpt><trkpt lat="59.1042163968" lon="30.4867560323"><ele>303.43</ele><time>2026-08-20T20:11:29Z</time></trkpt><trkpt lat="59.1042163968" lon="30.4867560323"><ele>303.43</ele><time>2026-08-20T20:11:30Z</time></trkpt><trkpt lat="59.1042163968" lon="30.4867560323"><ele>303.43</ele><time>2026-08-20T20:11:31Z</time></trkpt><trkpt lat="59.1042163968" lon="30.4867560323"><ele>303.43</ele><time>2026-08-20T20:11:32Z</time></trkpt><trkpt lat="59.1042163968" lon="30.4867560323"><ele>303.43</ele><time>2026-08-20T20:11:33Z</time></trkpt><trkpt lat="59.1042163968" lon="30.4867560323"><ele>303.43</ele><time>2026-08-20T20:11:34Z</time></trkpt><trkpt lat="59.1042163968" lon="30.4867560323"><ele>303.43</ele><time>2026-08-20T20:11:35Z</time></trkpt><trkpt lat="59.1042163968" lon="30.4867560323"><ele>303.43</ele><time>2026-08-20T20:11:36Z</time></trkpt><trkpt lat="59.1042163968" lon="30.4867560323"><ele>303.43</ele><time>2026-08-20T20:11:37Z</time></trkpt><trkpt lat="59.1042163968" lon="30.4867560323"><ele>303.43</ele><time>2026-08-20T20:11:38Z</time></trkpt><trkpt lat="59.1042163968" lon="30.4867560323"><ele>303.43</ele><time>2026-08-20T20:11:39Z</time></trkpt><trkpt lat="59.1042163968" lon="30.4867560323"><ele>303.43</ele><time>2026-08-20T20:11:40Z</time></trkpt><trkpt lat="59.1042163968" lon="30.4867560323"><ele>303.43</ele><time>2026-08-20T20:11:41Z</time></trkpt><trkpt lat="59.1042163968" lon="30.4867560323"><ele>303.43</ele><time>2026-08-20T20:11:42Z</time></trkpt><trkpt lat="59.1042163968" lon="30.4867560323"><ele>303.43</ele><time>2026-08-20T20:11:43Z</time></trkpt><trkpt lat="59.1042163968" lon="30.4867560323"><ele>303.43</ele><time>2026-08-20T20:11:44Z</time></trkpt><trkpt lat="59.1042163968" lon="30.4867560323"><ele>303.43</ele><time>2026-08-20T20:11:45Z</time></trkpt><trkpt lat="59.1042163968" lon="30.4867560323"><ele>303.43</ele><time>2026-08-20T20:11:46Z</time></trkpt><trkpt lat="59.1042163968" lon="30.4867560323"><ele>303.43</ele><time>2026-08-20T20:11:47Z</time></trkpt><trkpt lat="59.1042163968" lon="30.4867560323"><ele>303.43</ele><time>2026-08-20T20:11:48Z</time></trkpt><trkpt lat="59.1042163968" lon="30.4867560323"><ele>303.43</ele><time>2026-08-20T20:11:49Z</time></trkpt><trkpt lat="59.1042163968" lon="30.4867560323"><ele>303.43</ele><time>2026-08-20T20:11:50Z</time></trkpt><trkpt lat="59.1042163968" lon="30.4867560323"><ele>303.43</ele><time>2026-08-20T20:11:51Z</time></trkpt><trkpt lat="59.1042163968" lon="30.4867560323"><ele>303.43</ele><time>2026-08-20T20:11:52Z</time></trkpt><trkpt lat="59.1042163968" lon="30.4867560323"><ele>303.43</ele><time>2026-08-20T20:11:53Z</time></trkpt><trkpt lat="59.1042163968" lon="30.4867560323"><ele>303.43</ele><time>2026-08-20T20:11:54Z</time></trkpt><trkpt lat="59.1042163968" lon="30.4867560323"><ele>303.43</ele><time>2026-08-20T20:11:55Z</time></trkpt><trkpt lat="59.1042163968" lon="30.4867560323"><ele>303.43</ele><time>2026-08-20T20:11:56Z</time></trkpt><trkpt lat="59.1042163968" lon="30.4867560323"><ele>303.43</ele><time>2026-08-20T20:11:57Z</time></trkpt><trkpt lat="59.1042163968" lon="30.4867560323"><ele>303.43</ele><time>2026-08-20T20:11:58Z</time></trkpt><trkpt lat="59.1042163968" lon="30.4867560323"><ele>303.43</ele><time>2026-08-20T20:11:59Z</time></trkpt><trkpt lat="59.1042163968" lon="30.4867560323"><ele>303.43</ele><time>2026-08-20T20:12:00Z</time></trkpt><trkpt lat="59.1042163968" lon="30.4867560323"><ele>303.43</ele><time>2026-08-20T20:12:01Z</time></trkpt><trkpt lat="59.1042163968" lon="30.4867560323"><ele>303.43</ele><time>2026-08-20T20:12:02Z</time></trkpt><trkpt lat="59.1042163968" lon="30.4867560323"><ele>303.43</ele><time>2026-08-20T20:12:03Z</time></trkpt><trkpt lat="59.1042163968" lon="30.4867560323"><ele>303.43</ele><time>2026-08-20T20:12:04Z</time></trkpt><trkpt lat="59.1042163968" lon="30.4867560323"><ele>303.43</ele><time>2026-08-20T20:12:05Z</time></trkpt><trkpt lat="59.1042163968" lon="30.4867560323"><ele>303.43</ele><time>2026-08-20T20:12:06Z</time></trkpt><trkpt lat="59.1042163968" lon="30.4867560323"><ele>303.43</ele><time>2026-08-20T20:12:07Z</time></trkpt><trkpt lat="59.1042163968" lon="30.4867560323"><ele>303.43</ele><time>2026-08-20T20:12:08Z</time></trkpt><trkpt lat="59.1042163968" lon="30.4867560323"><ele>303.43</ele><time>2026-08-20T20:12:09Z</time></trkpt><trkpt lat="59.1042163968" lon="30.4867560323"><ele>303.43</ele><time>2026-08-20T20:12:10Z</time></trkpt><trkpt lat="59.1042163968" lon="30.4867560323"><ele>303.43</ele><time>2026-08-20T20:12:11Z</time></trkpt><trkpt lat="59.1042163968" lon="30.4867560323"><ele>303.43</ele><time>2026-08-20T20:12:12Z</time></trkpt><trkpt lat="59.1042163968" lon="30.4867560323"><ele>303.43</ele><time>2026-08-20T20:12:13Z</time></trkpt><trkpt lat="59.1042163968" lon="30.4867560323"><ele>303.43</ele><time>2026-08-20T20:12:14Z</time></trkpt><trkpt lat="59.1042163968" lon="30.4867560323"><ele>303.43</ele><time>2026-08-20T20:12:15Z</time></trkpt><trkpt lat="59.1042163968" lon="30.4867560323"><ele>303.43</ele><time>2026-08-20T20:12:16Z</time></trkpt><trkpt lat="59.1042163968" lon="30.4867560323"><ele>303.43</ele><time>2026-08-20T20:12:17Z</time></trkpt><trkpt lat="59.1042163968" lon="30.4867560323"><ele>303.43</ele><time>2026-08-20T20:12:18Z</time></trkpt><trkpt lat="59.1042163968" lon="30.4867560323"><ele>303.43</ele><time>2026-08-20T20:12:19Z</time></trkpt><trkpt lat="59.1042163968" lon="30.4867560323"><ele>303.43</ele><time>2026-08-20T20:12:20Z</time></trkpt><trkpt lat="59.1042163968" lon="30.4867560323"><ele>303.43</ele><time>2026-08-20T20:12:21Z</time></trkpt><trkpt lat="59.1042163968" lon="30.4867560323"><ele>303.43</ele><time>2026-08-20T20:12:22Z</time></trkpt><trkpt lat="59.1042163968" lon="30.4867560323"><ele>303.43</ele><time>2026-08-20T20:12:23Z</time></trkpt><trkpt lat="59.1042163968" lon="30.4867560323"><ele>303.43</ele><time>2026-08-20T20:12:24Z</time></trkpt><trkpt lat="59.1042163968" lon="30.4867560323"><ele>303.43</ele><time>2026-08-20T20:12:25Z</time></trkpt><trkpt lat="59.1042163968" lon="30.4867560323"><ele>303.43</ele><time>2026-08-20T20:12:26Z</time></trkpt><trkpt lat="59.1042163968" lon="30.4867560323"><ele>303.43</ele><time>2026-08-20T20:12:27Z</time></trkpt><trkpt lat="59.1042163968" lon="30.4867560323"><ele>303.43</ele><time>2026-08-20T20:12:28Z</time></trkpt><trkpt lat="59.1042163968" lon="30.4867560323"><ele>303.43</ele><time>2026-08-20T20:12:29Z</time></trkpt><trkpt lat="59.1042163968" lon="30.4867560323"><ele>303.43</ele><time>2026-08-20T20:12:30Z</time></trkpt><trkpt lat="59.1042163968" lon="30.4867560323"><ele>303.43</ele><time>2026-08-20T20:12:31Z</time></trkpt><trkpt lat="59.1042163968" lon="30.4867560323"><ele>303.43</ele><time>2026-08-20T20:12:32Z</time></trkpt><trkpt lat="59.1042163968" lon="30.4867560323"><ele>303.43</ele><time>2026-08-20T20:12:33Z</time></trkpt><trkpt lat="59.1042163968" lon="30.4867560323"><ele>303.43</ele><time>2026-08-20T20:12:34Z</time></trkpt><trkpt lat="59.1042163968" lon="30.4867560323"><ele>303.43</ele><time>2026-08-20T20:12:35Z</time></trkpt><trkpt lat="59.1042163968" lon="30.4867560323"><ele>303.43</ele><time>2026-08-20T20:12:36Z</time></trkpt><trkpt lat="59.1042163968" lon="30.4867560323"><ele>303.43</ele><time>2026-08-20T20:12:37Z</time></trkpt><trkpt lat="59.1042163968" lon="30.4867560323"><ele>303.43</ele><time>2026-08-20T20:12:38Z</time></trkpt><trkpt lat="59.1042163968" lon="30.4867560323"><ele>303.43</ele><time>2026-08-20T20:12:39Z</time></trkpt><trkpt lat="59.1042163968" lon="30.4867560323"><ele>303.43</ele><time>2026-08-20T20:12:40Z</time></trkpt><trkpt lat="59.1042163968" lon="30.4867560323"><ele>303.43</ele><time>2026-08-20T20:12:41Z</time></trkpt><trkpt lat="59.1042163968" lon="30.4867560323"><ele>303.43</ele><time>2026-08-20T20:12:42Z</time></trkpt><trkpt lat="59.1042163968" lon="30.4867560323"><ele>303.43</ele><time>2026-08-20T20:12:43Z</time></trkpt><trkpt lat="59.1042163968" lon="30.4867560323"><ele>303.43</ele><time>2026-08-20T20:12:44Z</time></trkpt><trkpt lat="59.1042163968" lon="30.4867560323"><ele>303.43</ele><time>2026-08-20T20:12:45Z</time></trkpt><trkpt lat="59.1042163968" lon="30.4867560323"><ele>303.43</ele><time>2026-08-20T20:12:46Z</time></trkpt><trkpt lat="59.1042163968" lon="30.4867560323"><ele>303.43</ele><time>2026-08-20T20:12:47Z</time></trkpt><trkpt lat="59.1042163968" lon="30.4867560323"><ele>303.43</ele><time>2026-08-20T20:12:48Z</time></trkpt><trkpt lat="59.1042163968" lon="30.4867560323"><ele>303.43</ele><time>2026-08-20T20:12:49Z</time></trkpt><trkpt lat="59.1042163968" lon="30.4867560323"><ele>303.43</ele><time>2026-08-20T20:12:50Z</time></trkpt><trkpt lat="59.1042163968" lon="30.4867560323"><ele>303.43</ele><time>2026-08-20T20:12:51Z</time></trkpt><trkpt lat="59.1042163968" lon="30.4867560323"><ele>303.43</ele><time>2026-08-20T20:12:52Z</time></trkpt><trkpt lat="59.1042163968" lon="30.4867560323"><ele>303.43</ele><time>2026-08-20T20:12:53Z</time></trkpt><trkpt lat="59.1042163968" lon="30.4867560323"><ele>303.43</ele><time>2026-08-20T20:12:54Z</time></trkpt><trkpt lat="59.1042163968" lon="30.4867560323"><ele>303.43</ele><time>2026-08-20T20:12:55Z</time></trkpt><trkpt lat="59.1042163968" lon="30.4867560323"><ele>303.43</ele><time>2026-08-20T20:12:56Z</time></trkpt><trkpt lat="59.1042163968" lon="30.4867560323"><ele>303.43</ele><time>2026-08-20T20:12:57Z</time></trkpt><trkpt lat="59.1042163968" lon="30.4867560323"><ele>303.43</ele><time>2026-08-20T20:12:58Z</time></trkpt><trkpt lat="59.1042163968" lon="30.4867560323"><ele>303.43</ele><time>2026-08-20T20:12:59Z</time></trkpt><trkpt lat="59.1042163968" lon="30.4867560323"><ele>303.43</ele><time>2026-08-20T20:13:00Z</time></trkpt><trkpt lat="59.1042163968" lon="30.4867560323"><ele>303.43</ele><time>2026-08-20T20:13:01Z</time></trkpt><trkpt lat="59.1042163968" lon="30.4867560323"><ele>303.43</ele><time>2026-08-20T20:13:02Z</time></trkpt><trkpt lat="59.1042163968" lon="30.4867560323"><ele>303.43</ele><time>2026-08-20T20:13:03Z</time></trkpt><trkpt lat="59.1042163968" lon="30.4867560323"><ele>303.43</ele><time>2026-08-20T20:13:04Z</time></trkpt><trkpt lat="59.1042163968" lon="30.4867560323"><ele>303.43</ele><time>2026-08-20T20:13:05Z</time></trkpt><trkpt lat="59.1042163968" lon="30.4867560323"><ele>303.43</ele><time>2026-08-20T20:13:06Z</time></trkpt><trkpt lat="59.1042163968" lon="30.4867560323"><ele>303.43</ele><time>2026-08-20T20:13:07Z</time></trkpt><trkpt lat="59.1042163968" lon="30.4867560323"><ele>303.43</ele><time>2026-08-20T20:13:08Z</time></trkpt><trkpt lat="59.1042163968" lon="30.4867560323"><ele>303.43</ele><time>2026-08-20T20:13:09Z</time></trkpt><trkpt lat="59.1042163968" lon="30.4867560323"><ele>303.43</ele><time>2026-08-20T20:13:10Z</time></trkpt><trkpt lat="59.1042163968" lon="30.4867560323"><ele>303.43</ele><time>2026-08-20T20:13:11Z</time></trkpt><trkpt lat="59.1042163968" lon="30.4867560323"><ele>303.43</ele><time>2026-08-20T20:13:12Z</time></trkpt><trkpt lat="59.1042163968" lon="30.4867560323"><ele>303.43</ele><time>2026-08-20T20:13:13Z</time></trkpt><trkpt lat="59.1042163968" lon="30.4867560323"><ele>303.43</ele><time>2026-08-20T20:13:14Z</time></trkpt><trkpt lat="59.1042163968" lon="30.4867560323"><ele>303.43</ele><time>2026-08-20T20:13:15Z</time></trkpt><trkpt lat="59.1042163968" lon="30.4867560323"><ele>303.43</ele><time>2026-08-20T20:13:16Z</time></trkpt><trkpt lat="59.1042163968" lon="30.4867560323"><ele>303.43</ele><time>2026-08-20T20:13:17Z</time></trkpt><trkpt lat="59.1042163968" lon="30.4867560323"><ele>303.43</ele><time>2026-08-20T20:13:18Z</time></trkpt><trkpt lat="59.1042163968" lon="30.4867560323"><ele>303.43</ele><time>2026-08-20T20:13:19Z</time></trkpt><trkpt lat="59.1042163968" lon="30.4867560323"><ele>303.43</ele><time>2026-08-20T20:13:20Z</time></trkpt><trkpt lat="59.1042163968" lon="30.4867560323"><ele>303.43</ele><time>2026-08-20T20:13:21Z</time></trkpt><trkpt lat="59.1042163968" lon="30.4867560323"><ele>303.43</ele><time>2026-08-20T20:13:22Z</time></trkpt><trkpt lat="59.1042163968" lon="30.4867560323"><ele>303.43</ele><time>2026-08-20T20:13:23Z</time></trkpt><trkpt lat="59.1042163968" lon="30.4867560323"><ele>303.43</ele><time>2026-08-20T20:13:24Z</time></trkpt><trkpt lat="59.1042163968" lon="30.4867560323"><ele>303.43</ele><time>2026-08-20T20:13:25Z</time></trkpt><trkpt lat="59.1042163968" lon="30.4867560323"><ele>303.43</ele><time>2026-08-20T20:13:26Z</time></trkpt><trkpt lat="59.1042163968" lon="30.4867560323"><ele>303.43</ele><time>2026-08-20T20:13:27Z</time></trkpt><trkpt lat="59.1042163968" lon="30.4867560323"><ele>303.43</ele><time>2026-08-20T20:13:28Z</time></trkpt><trkpt lat="59.1042163968" lon="30.4867560323"><ele>303.43</ele><time>2026-08-20T20:13:29Z</time></trkpt><trkpt lat="59.1042163968" lon="30.4867560323"><ele>303.43</ele><time>2026-08-20T20:13:30Z</time></trkpt><trkpt lat="59.1042163968" lon="30.4867560323"><ele>303.43</ele><time>2026-08-20T20:13:31Z</time></trkpt><trkpt lat="59.1042163968" lon="30.4867560323"><ele>303.43</ele><time>2026-08-20T20:13:32Z</time></trkpt><trkpt lat="59.1042163968" lon="30.4867560323"><ele>303.43</ele><time>2026-08-20T20:13:33Z</time></trkpt><trkpt lat="59.1042163968" lon="30.4867560323"><ele>303.43</ele><time>2026-08-20T20:13:34Z</time></trkpt><trkpt lat="59.1042163968" lon="30.4867560323"><ele>303.43</ele><time>2026-08-20T20:13:35Z</time></trkpt><trkpt lat="59.1042163968" lon="30.4867560323"><ele>303.43</ele><time>2026-08-20T20:13:36Z</time></trkpt><trkpt lat="59.1042163968" lon="30.4867560323"><ele>303.43</ele><time>2026-08-20T20:13:37Z</time></trkpt><trkpt lat="59.1042163968" lon="30.4867560323"><ele>303.43</ele><time>2026-08-20T20:13:38Z</time></trkpt><trkpt lat="59.1042163968" lon="30.4867560323"><ele>303.43</ele><time>2026-08-20T20:13:39Z</time></trkpt><trkpt lat="59.1042163968" lon="30.4867560323"><ele>303.43</ele><time>2026-08-20T20:13:40Z</time></trkpt><trkpt lat="59.1042163968" lon="30.4867560323"><ele>303.43</ele><time>2026-08-20T20:13:41Z</time></trkpt><trkpt lat="59.1042163968" lon="30.4867560323"><ele>303.43</ele><time>2026-08-20T20:13:42Z</time></trkpt><trkpt lat="59.1042163968" lon="30.4867560323"><ele>303.43</ele><time>2026-08-20T20:13:43Z</time></trkpt><trkpt lat="59.1042163968" lon="30.4867560323"><ele>303.43</ele><time>2026-08-20T20:13:44Z</time></trkpt><trkpt lat="59.1042163968" lon="30.4867560323"><ele>303.43</ele><time>2026-08-20T20:13:45Z</time></trkpt><trkpt lat="59.1042163968" lon="30.4867560323"><ele>303.43</ele><time>2026-08-20T20:13:46Z</time></trkpt><trkpt lat="59.1042163968" lon="30.4867560323"><ele>303.43</ele><time>2026-08-20T20:13:47Z</time></trkpt><trkpt lat="59.1042163968" lon="30.4867560323"><ele>303.43</ele><time>2026-08-20T20:13:48Z</time></trkpt><trkpt lat="59.1042163968" lon="30.4867560323"><ele>303.43</ele><time>2026-08-20T20:13:49Z</time></trkpt><trkpt lat="59.1042163968" lon="30.4867560323"><ele>302.95</ele><time>2026-08-20T20:13:50Z</time></trkpt><trkpt lat="59.1042163968" lon="30.4867560323"><ele>302.95</ele><time>2026-08-20T20:13:51Z</time></trkpt><trkpt lat="59.1042163968" lon="30.4867560323"><ele>302.95</ele><time>2026-08-20T20:13:52Z</time></trkpt><trkpt lat="59.1042163968" lon="30.4867560323"><ele>302.95</ele><time>2026-08-20T20:13:53Z</time></trkpt><trkpt lat="59.1042163968" lon="30.4867560323"><ele>302.95</ele><time>2026-08-20T20:13:54Z</time></trkpt><trkpt lat="59.1042163968" lon="30.4867560323"><ele>302.95</ele><time>2026-08-20T20:13:55Z</time></trkpt><trkpt lat="59.1042163968" lon="30.4867560323"><ele>302.95</ele><time>2026-08-20T20:13:56Z</time></trkpt><trkpt lat="59.1042163968" lon="30.4867560323"><ele>302.95</ele><time>2026-08-20T20:13:57Z</time></trkpt><trkpt lat="59.1042163968" lon="30.4867560323"><ele>302.95</ele><time>2026-08-20T20:13:58Z</time></trkpt><trkpt lat="59.1042163968" lon="30.4867560323"><ele>302.95</ele><time>2026-08-20T20:13:59Z</time></trkpt><trkpt lat="59.1042163968" lon="30.4867560323"><ele>302.95</ele><time>2026-08-20T20:14:00Z</time></trkpt><trkpt lat="59.1042163968" lon="30.4867560323"><ele>302.95</ele><time>2026-08-20T20:14:01Z</time></trkpt><trkpt lat="59.1042163968" lon="30.4867560323"><ele>302.95</ele><time>2026-08-20T20:14:02Z</time></trkpt><trkpt lat="59.1042163968" lon="30.4867560323"><ele>302.95</ele><time>2026-08-20T20:14:03Z</time></trkpt><trkpt lat="59.1042163968" lon="30.4867560323"><ele>302.95</ele><time>2026-08-20T20:14:04Z</time></trkpt><trkpt lat="59.1042163968" lon="30.4867560323"><ele>302.95</ele><time>2026-08-20T20:14:05Z</time></trkpt><trkpt lat="59.1042163968" lon="30.4867560323"><ele>302.95</ele><time>2026-08-20T20:14:06Z</time></trkpt><trkpt lat="59.1042163968" lon="30.4867560323"><ele>302.95</ele><time>2026-08-20T20:14:07Z</time></trkpt><trkpt lat="59.1042163968" lon="30.4867560323"><ele>302.95</ele><time>2026-08-20T20:14:08Z</time></trkpt><trkpt lat="59.1042163968" lon="30.4867560323"><ele>302.95</ele><time>2026-08-20T20:14:09Z</time></trkpt><trkpt lat="59.1042163968" lon="30.4867560323"><ele>302.95</ele><time>2026-08-20T20:14:10Z</time></trkpt><trkpt lat="59.1042163968" lon="30.4867560323"><ele>302.95</ele><time>2026-08-20T20:14:11Z</time></trkpt><trkpt lat="59.1042163968" lon="30.4867560323"><ele>302.95</ele><time>2026-08-20T20:14:12Z</time></trkpt><trkpt lat="59.1042163968" lon="30.4867560323"><ele>302.95</ele><time>2026-08-20T20:14:13Z</time></trkpt><trkpt lat="59.1042163968" lon="30.4867560323"><ele>302.95</ele><time>2026-08-20T20:14:14Z</time></trkpt><trkpt lat="59.1042163968" lon="30.4867560323"><ele>302.95</ele><time>2026-08-20T20:14:15Z</time></trkpt><trkpt lat="59.1042163968" lon="30.4867560323"><ele>302.95</ele><time>2026-08-20T20:14:16Z</time></trkpt><trkpt lat="59.1042163968" lon="30.4867560323"><ele>302.95</ele><time>2026-08-20T20:14:17Z</time></trkpt><trkpt lat="59.1042163968" lon="30.4867560323"><ele>302.95</ele><time>2026-08-20T20:14:18Z</time></trkpt><trkpt lat="59.1042163968" lon="30.4867560323"><ele>302.95</ele><time>2026-08-20T20:14:19Z</time></trkpt><trkpt lat="59.1042163968" lon="30.4867560323"><ele>302.95</ele><time>2026-08-20T20:14:20Z</time></trkpt><trkpt lat="59.1042163968" lon="30.4867560323"><ele>302.95</ele><time>2026-08-20T20:14:21Z</time></trkpt><trkpt lat="59.1042163968" lon="30.4867560323"><ele>302.95</ele><time>2026-08-20T20:14:22Z</time></trkpt><trkpt lat="59.1042163968" lon="30.4867560323"><ele>302.95</ele><time>2026-08-20T20:14:23Z</time></trkpt><trkpt lat="59.1042163968" lon="30.4867560323"><ele>302.95</ele><time>2026-08-20T20:14:24Z</time></trkpt><trkpt lat="59.1042163968" lon="30.4867560323"><ele>302.95</ele><time>2026-08-20T20:14:25Z</time></trkpt><trkpt lat="59.1042163968" lon="30.4867560323"><ele>302.95</ele><time>2026-08-20T20:14:26Z</time></trkpt><trkpt lat="59.1042163968" lon="30.4867560323"><ele>302.95</ele><time>2026-08-20T20:14:27Z</time></trkpt><trkpt lat="59.1042163968" lon="30.4867560323"><ele>302.95</ele><time>2026-08-20T20:14:28Z</time></trkpt><trkpt lat="59.1042163968" lon="30.4867560323"><ele>302.95</ele><time>2026-08-20T20:14:29Z</time></trkpt><trkpt lat="59.1042163968" lon="30.4867560323"><ele>302.95</ele><time>2026-08-20T20:14:30Z</time></trkpt><trkpt lat="59.1042163968" lon="30.4867560323"><ele>302.95</ele><time>2026-08-20T20:14:31Z</time></trkpt><trkpt lat="59.1042163968" lon="30.4867560323"><ele>302.95</ele><time>2026-08-20T20:14:32Z</time></trkpt><trkpt lat="59.1042163968" lon="30.4867560323"><ele>302.95</ele><time>2026-08-20T20:14:33Z</time></trkpt><trkpt lat="59.1042163968" lon="30.4867560323"><ele>302.95</ele><time>2026-08-20T20:14:34Z</time></trkpt><trkpt lat="59.1042163968" lon="30.4867560323"><ele>302.95</ele><time>2026-08-20T20:14:35Z</time></trkpt><trkpt lat="59.1042163968" lon="30.4867560323"><ele>302.95</ele><time>2026-08-20T20:14:36Z</time></trkpt><trkpt lat="59.1042163968" lon="30.4867560323"><ele>302.95</ele><time>2026-08-20T20:14:37Z</time></trkpt><trkpt lat="59.1042163968" lon="30.4867560323"><ele>302.95</ele><time>2026-08-20T20:14:38Z</time></trkpt><trkpt lat="59.1042163968" lon="30.4867560323"><ele>302.95</ele><time>2026-08-20T20:14:39Z</time></trkpt><trkpt lat="59.1042163968" lon="30.4867560323"><ele>302.95</ele><time>2026-08-20T20:14:40Z</time></trkpt><trkpt lat="59.1042163968" lon="30.4867560323"><ele>302.95</ele><time>2026-08-20T20:14:41Z</time></trkpt><trkpt lat="59.1042163968" lon="30.4867560323"><ele>302.95</ele><time>2026-08-20T20:14:42Z</time></trkpt><trkpt lat="59.1042163968" lon="30.4867560323"><ele>302.95</ele><time>2026-08-20T20:14:43Z</time></trkpt><trkpt lat="59.1042163968" lon="30.4867560323"><ele>302.95</ele><time>2026-08-20T20:14:44Z</time></trkpt><trkpt lat="59.1042163968" lon="30.4867560323"><ele>302.95</ele><time>2026-08-20T20:14:45Z</time></trkpt><trkpt lat="59.1042163968" lon="30.4867560323"><ele>302.95</ele><time>2026-08-20T20:14:46Z</time></trkpt><trkpt lat="59.1042163968" lon="30.4867560323"><ele>302.95</ele><time>2026-08-20T20:14:47Z</time></trkpt><trkpt lat="59.1042163968" lon="30.4867560323"><ele>302.95</ele><time>2026-08-20T20:14:48Z</time></trkpt><trkpt lat="59.1042163968" lon="30.4867560323"><ele>302.95</ele><time>2026-08-20T20:14:49Z</time></trkpt><trkpt lat="59.1042163968" lon="30.4867560323"><ele>302.95</ele><time>2026-08-20T20:14:50Z</time></trkpt><trkpt lat="59.1042163968" lon="30.4867560323"><ele>302.95</ele><time>2026-08-20T20:14:51Z</time></trkpt><trkpt lat="59.1042163968" lon="30.4867560323"><ele>302.95</ele><time>2026-08-20T20:14:52Z</time></trkpt><trkpt lat="59.1042163968" lon="30.4867560323"><ele>302.95</ele><time>2026-08-20T20:14:53Z</time></trkpt><trkpt lat="59.1042163968" lon="30.4867560323"><ele>302.95</ele><time>2026-08-20T20:14:54Z</time></trkpt><trkpt lat="59.1042163968" lon="30.4867560323"><ele>302.95</ele><time>2026-08-20T20:14:55Z</time></trkpt><trkpt lat="59.1042163968" lon="30.4867560323"><ele>302.95</ele><time>2026-08-20T20:14:56Z</time></trkpt><trkpt lat="59.1042163968" lon="30.4867560323"><ele>302.95</ele><time>2026-08-20T20:14:57Z</time></trkpt><trkpt lat="59.1042163968" lon="30.4867560323"><ele>302.95</ele><time>2026-08-20T20:14:58Z</time></trkpt><trkpt lat="59.1042163968" lon="30.4867560323"><ele>302.95</ele><time>2026-08-20T20:14:59Z</time></trkpt><trkpt lat="59.1042163968" lon="30.4867560323"><ele>302.95</ele><time>2026-08-20T20:15:00Z</time></trkpt><trkpt lat="59.1042163968" lon="30.4867560323"><ele>302.95</ele><time>2026-08-20T20:15:01Z</time></trkpt><trkpt lat="59.1042163968" lon="30.4867560323"><ele>302.95</ele><time>2026-08-20T20:15:02Z</time></trkpt><trkpt lat="59.1042163968" lon="30.4867560323"><ele>302.95</ele><time>2026-08-20T20:15:03Z</time></trkpt><trkpt lat="59.1042163968" lon="30.4867560323"><ele>302.95</ele><time>2026-08-20T20:15:04Z</time></trkpt><trkpt lat="59.1042163968" lon="30.4867560323"><ele>302.95</ele><time>2026-08-20T20:15:05Z</time></trkpt><trkpt lat="59.1042163968" lon="30.4867560323"><ele>302.95</ele><time>2026-08-20T20:15:06Z</time></trkpt><trkpt lat="59.1042163968" lon="30.4867560323"><ele>302.95</ele><time>2026-08-20T20:15:07Z</time></trkpt><trkpt lat="59.1042163968" lon="30.4867560323"><ele>302.95</ele><time>2026-08-20T20:15:08Z</time></trkpt><trkpt lat="59.1042163968" lon="30.4867560323"><ele>302.95</ele><time>2026-08-20T20:15:09Z</time></trkpt><trkpt lat="59.1042163968" lon="30.4867560323"><ele>302.95</ele><time>2026-08-20T20:15:10Z</time></trkpt><trkpt lat="59.1042163968" lon="30.4867560323"><ele>302.95</ele><time>2026-08-20T20:15:11Z</time></trkpt><trkpt lat="59.1042163968" lon="30.4867560323"><ele>302.95</ele><time>2026-08-20T20:15:12Z</time></trkpt><trkpt lat="59.1042163968" lon="30.4867560323"><ele>302.95</ele><time>2026-08-20T20:15:13Z</time></trkpt><trkpt lat="59.1042163968" lon="30.4867560323"><ele>302.95</ele><time>2026-08-20T20:15:14Z</time></trkpt><trkpt lat="59.1042163968" lon="30.4867560323"><ele>302.95</ele><time>2026-08-20T20:15:15Z</time></trkpt><trkpt lat="59.1042163968" lon="30.4867560323"><ele>302.95</ele><time>2026-08-20T20:15:16Z</time></trkpt><trkpt lat="59.1042163968" lon="30.4867560323"><ele>302.95</ele><time>2026-08-20T20:15:17Z</time></trkpt><trkpt lat="59.1042163968" lon="30.4867560323"><ele>302.95</ele><time>2026-08-20T20:15:18Z</time></trkpt><trkpt lat="59.1042163968" lon="30.4867560323"><ele>302.95</ele><time>2026-08-20T20:15:19Z</time></trkpt><trkpt lat="59.1042163968" lon="30.4867560323"><ele>302.95</ele><time>2026-08-20T20:15:20Z</time></trkpt><trkpt lat="59.1042163968" lon="30.4867560323"><ele>302.95</ele><time>2026-08-20T20:15:21Z</time></trkpt><trkpt lat="59.1042163968" lon="30.4867560323"><ele>302.95</ele><time>2026-08-20T20:15:22Z</time></trkpt><trkpt lat="59.1042163968" lon="30.4867560323"><ele>302.95</ele><time>2026-08-20T20:15:23Z</time></trkpt><trkpt lat="59.1042163968" lon="30.4867560323"><ele>302.95</ele><time>2026-08-20T20:15:24Z</time></trkpt><trkpt lat="59.1042163968" lon="30.4867560323"><ele>302.95</ele><time>2026-08-20T20:15:25Z</time></trkpt><trkpt lat="59.1042163968" lon="30.4867560323"><ele>302.95</ele><time>2026-08-20T20:15:26Z</time></trkpt><trkpt lat="59.1042163968" lon="30.4867560323"><ele>302.95</ele><time>2026-08-20T20:15:27Z</time></trkpt><trkpt lat="59.1042163968" lon="30.4867560323"><ele>302.95</ele><time>2026-08-20T20:15:28Z</time></trkpt><trkpt lat="59.1042163968" lon="30.4867560323"><ele>302.95</ele><time>2026-08-20T20:15:29Z</time></trkpt><trkpt lat="59.1042163968" lon="30.4867560323"><ele>302.95</ele><time>2026-08-20T20:15:30Z</time></trkpt><trkpt lat="59.1042163968" lon="30.4867560323"><ele>302.95</ele><time>2026-08-20T20:15:31Z</time></trkpt><trkpt lat="59.1042163968" lon="30.4867560323"><ele>302.95</ele><time>2026-08-20T20:15:32Z</time></trkpt><trkpt lat="59.1042163968" lon="30.4867560323"><ele>302.95</ele><time>2026-08-20T20:15:33Z</time></trkpt><trkpt lat="59.1042163968" lon="30.4867560323"><ele>302.95</ele><time>2026-08-20T20:15:34Z</time></trkpt><trkpt lat="59.1042163968" lon="30.4867560323"><ele>302.95</ele><time>2026-08-20T20:15:35Z</time></trkpt><trkpt lat="59.1042163968" lon="30.4867560323"><ele>302.95</ele><time>2026-08-20T20:15:36Z</time></trkpt><trkpt lat="59.1042163968" lon="30.4867560323"><ele>302.95</ele><time>2026-08-20T20:15:37Z</time></trkpt><trkpt lat="59.1042163968" lon="30.4867560323"><ele>302.95</ele><time>2026-08-20T20:15:38Z</time></trkpt><trkpt lat="59.1042163968" lon="30.4867560323"><ele>302.95</ele><time>2026-08-20T20:15:39Z</time></trkpt><trkpt lat="59.1042163968" lon="30.4867560323"><ele>302.95</ele><time>2026-08-20T20:15:40Z</time></trkpt><trkpt lat="59.1042163968" lon="30.4867560323"><ele>302.95</ele><time>2026-08-20T20:15:41Z</time></trkpt><trkpt lat="59.1042163968" lon="30.4867560323"><ele>302.95</ele><time>2026-08-20T20:15:42Z</time></trkpt><trkpt lat="59.1042163968" lon="30.4867560323"><ele>302.95</ele><time>2026-08-20T20:15:43Z</time></trkpt><trkpt lat="59.1042163968" lon="30.4867560323"><ele>302.95</ele><time>2026-08-20T20:15:44Z</time></trkpt><trkpt lat="59.1042163968" lon="30.4867560323"><ele>302.95</ele><time>2026-08-20T20:15:45Z</time></trkpt><trkpt lat="59.1042163968" lon="30.4867560323"><ele>302.95</ele><time>2026-08-20T20:15:46Z</time></trkpt><trkpt lat="59.1042163968" lon="30.4867560323"><ele>302.95</ele><time>2026-08-20T20:15:47Z</time></trkpt><trkpt lat="59.1042163968" lon="30.4867560323"><ele>302.95</ele><time>2026-08-20T20:15:48Z</time></trkpt><trkpt lat="59.1042163968" lon="30.4867560323"><ele>302.95</ele><time>2026-08-20T20:15:49Z</time></trkpt><trkpt lat="59.1042163968" lon="30.4867560323"><ele>302.95</ele><time>2026-08-20T20:15:50Z</time></trkpt><trkpt lat="59.1042163968" lon="30.4867560323"><ele>302.95</ele><time>2026-08-20T20:15:51Z</time></trkpt><trkpt lat="59.1042163968" lon="30.4867560323"><ele>302.95</ele><time>2026-08-20T20:15:52Z</time></trkpt><trkpt lat="59.1042163968" lon="30.4867560323"><ele>302.95</ele><time>2026-08-20T20:15:53Z</time></trkpt><trkpt lat="59.1042163968" lon="30.4867560323"><ele>302.95</ele><time>2026-08-20T20:15:54Z</time></trkpt><trkpt lat="59.1042163968" lon="30.4867560323"><ele>302.95</ele><time>2026-08-20T20:15:55Z</time></trkpt><trkpt lat="59.1042163968" lon="30.4867560323"><ele>302.95</ele><time>2026-08-20T20:15:56Z</time></trkpt><trkpt lat="59.1042163968" lon="30.4867560323"><ele>302.95</ele><time>2026-08-20T20:15:57Z</time></trkpt><trkpt lat="59.1042163968" lon="30.4867560323"><ele>302.95</ele><time>2026-08-20T20:15:58Z</time></trkpt><trkpt lat="59.1042163968" lon="30.4867560323"><ele>302.95</ele><time>2026-08-20T20:15:59Z</time></trkpt><trkpt lat="59.1042163968" lon="30.4867560323"><ele>302.95</ele><time>2026-08-20T20:16:00Z</time></trkpt><trkpt lat="59.1042163968" lon="30.4867560323"><ele>302.95</ele><time>2026-08-20T20:16:01Z</time></trkpt><trkpt lat="59.1042163968" lon="30.4867560323"><ele>302.95</ele><time>2026-08-20T20:16:02Z</time></trkpt><trkpt lat="59.1042163968" lon="30.4867560323"><ele>302.95</ele><time>2026-08-20T20:16:03Z</time></trkpt><trkpt lat="59.1042163968" lon="30.4867560323"><ele>302.95</ele><time>2026-08-20T20:16:04Z</time></trkpt><trkpt lat="59.1042163968" lon="30.4867560323"><ele>302.95</ele><time>2026-08-20T20:16:05Z</time></trkpt><trkpt lat="59.1042163968" lon="30.4867560323"><ele>302.95</ele><time>2026-08-20T20:16:06Z</time></trkpt><trkpt lat="59.1042163968" lon="30.4867560323"><ele>302.95</ele><time>2026-08-20T20:16:07Z</time></trkpt><trkpt lat="59.1042163968" lon="30.4867560323"><ele>302.95</ele><time>2026-08-20T20:16:08Z</time></trkpt><trkpt lat="59.1042163968" lon="30.4867560323"><ele>302.95</ele><time>2026-08-20T20:16:09Z</time></trkpt><trkpt lat="59.1042163968" lon="30.4867560323"><ele>302.95</ele><time>2026-08-20T20:16:10Z</time></trkpt><trkpt lat="59.1042163968" lon="30.4867560323"><ele>302.95</ele><time>2026-08-20T20:16:11Z</time></trkpt><trkpt lat="59.1042163968" lon="30.4867560323"><ele>302.95</ele><time>2026-08-20T20:16:12Z</time></trkpt><trkpt lat="59.1042163968" lon="30.4867560323"><ele>302.95</ele><time>2026-08-20T20:16:13Z</time></trkpt><trkpt lat="59.1042163968" lon="30.4867560323"><ele>302.95</ele><time>2026-08-20T20:16:14Z</time></trkpt><trkpt lat="59.1042163968" lon="30.4867560323"><ele>302.95</ele><time>2026-08-20T20:16:15Z</time></trkpt><trkpt lat="59.1042163968" lon="30.4867560323"><ele>302.95</ele><time>2026-08-20T20:16:16Z</time></trkpt><trkpt lat="59.1042163968" lon="30.4867560323"><ele>302.95</ele><time>2026-08-20T20:16:17Z</time></trkpt><trkpt lat="59.1042163968" lon="30.4867560323"><ele>302.95</ele><time>2026-08-20T20:16:18Z</time></trkpt><trkpt lat="59.1042163968" lon="30.4867560323"><ele>302.95</ele><time>2026-08-20T20:16:19Z</time></trkpt><trkpt lat="59.1042163968" lon="30.4867560323"><ele>302.95</ele><time>2026-08-20T20:16:20Z</time></trkpt><trkpt lat="59.1042163968" lon="30.4867560323"><ele>302.95</ele><time>2026-08-20T20:16:21Z</time></trkpt><trkpt lat="59.1042163968" lon="30.4867560323"><ele>302.95</ele><time>2026-08-20T20:16:22Z</time></trkpt><trkpt lat="59.1042163968" lon="30.4867560323"><ele>302.95</ele><time>2026-08-20T20:16:23Z</time></trkpt><trkpt lat="59.1042163968" lon="30.4867560323"><ele>302.95</ele><time>2026-08-20T20:16:24Z</time></trkpt><trkpt lat="59.1042163968" lon="30.4867560323"><ele>302.95</ele><time>2026-08-20T20:16:25Z</time></trkpt><trkpt lat="59.1042163968" lon="30.4867560323"><ele>302.95</ele><time>2026-08-20T20:16:26Z</time></trkpt><trkpt lat="59.1042163968" lon="30.4867560323"><ele>302.95</ele><time>2026-08-20T20:16:27Z</time></trkpt><trkpt lat="59.1042163968" lon="30.4867560323"><ele>302.95</ele><time>2026-08-20T20:16:28Z</time></trkpt><trkpt lat="59.1042163968" lon="30.4867560323"><ele>302.95</ele><time>2026-08-20T20:16:29Z</time></trkpt><trkpt lat="59.1042163968" lon="30.4867560323"><ele>302.95</ele><time>2026-08-20T20:16:30Z</time></trkpt><trkpt lat="59.1042163968" lon="30.4867560323"><ele>302.95</ele><time>2026-08-20T20:16:31Z</time></trkpt><trkpt lat="59.1042163968" lon="30.4867560323"><ele>302.95</ele><time>2026-08-20T20:16:32Z</time></trkpt><trkpt lat="59.1042163968" lon="30.4867560323"><ele>302.95</ele><time>2026-08-20T20:16:33Z</time></trkpt><trkpt lat="59.1042163968" lon="30.4867560323"><ele>302.95</ele><time>2026-08-20T20:16:34Z</time></trkpt><trkpt lat="59.1042163968" lon="30.4867560323"><ele>302.95</ele><time>2026-08-20T20:16:35Z</time></trkpt><trkpt lat="59.1042163968" lon="30.4867560323"><ele>302.95</ele><time>2026-08-20T20:16:36Z</time></trkpt><trkpt lat="59.1042163968" lon="30.4867560323"><ele>302.95</ele><time>2026-08-20T20:16:37Z</time></trkpt><trkpt lat="59.1042163968" lon="30.4867560323"><ele>302.95</ele><time>2026-08-20T20:16:38Z</time></trkpt><trkpt lat="59.1042163968" lon="30.4867560323"><ele>302.95</ele><time>2026-08-20T20:16:39Z</time></trkpt><trkpt lat="59.1042163968" lon="30.4867560323"><ele>302.95</ele><time>2026-08-20T20:16:40Z</time></trkpt><trkpt lat="59.1042163968" lon="30.4867560323"><ele>302.95</ele><time>2026-08-20T20:16:41Z</time></trkpt><trkpt lat="59.1042163968" lon="30.4867560323"><ele>302.95</ele><time>2026-08-20T20:16:42Z</time></trkpt><trkpt lat="59.1042163968" lon="30.4867560323"><ele>302.95</ele><time>2026-08-20T20:16:43Z</time></trkpt><trkpt lat="59.1042163968" lon="30.4867560323"><ele>302.95</ele><time>2026-08-20T20:16:44Z</time></trkpt><trkpt lat="59.1042163968" lon="30.4867560323"><ele>302.95</ele><time>2026-08-20T20:16:45Z</time></trkpt><trkpt lat="59.1042163968" lon="30.4867560323"><ele>302.95</ele><time>2026-08-20T20:16:46Z</time></trkpt><trkpt lat="59.1042163968" lon="30.4867560323"><ele>302.95</ele><time>2026-08-20T20:16:47Z</time></trkpt><trkpt lat="59.1042163968" lon="30.4867560323"><ele>302.95</ele><time>2026-08-20T20:16:48Z</time></trkpt><trkpt lat="59.1042163968" lon="30.4867560323"><ele>302.95</ele><time>2026-08-20T20:16:49Z</time></trkpt><trkpt lat="59.1042163968" lon="30.4867560323"><ele>302.95</ele><time>2026-08-20T20:16:50Z</time></trkpt><trkpt lat="59.1042163968" lon="30.4867560323"><ele>302.95</ele><time>2026-08-20T20:16:51Z</time></trkpt><trkpt lat="59.1042163968" lon="30.4867560323"><ele>302.95</ele><time>2026-08-20T20:16:52Z</time></trkpt><trkpt lat="59.1042163968" lon="30.4867560323"><ele>302.95</ele><time>2026-08-20T20:16:53Z</time></trkpt><trkpt lat="59.1042163968" lon="30.4867560323"><ele>302.95</ele><time>2026-08-20T20:16:54Z</time></trkpt><trkpt lat="59.1042163968" lon="30.4867560323"><ele>302.95</ele><time>2026-08-20T20:16:55Z</time></trkpt><trkpt lat="59.1042163968" lon="30.4867560323"><ele>302.95</ele><time>2026-08-20T20:16:56Z</time></trkpt><trkpt lat="59.1042163968" lon="30.4867560323"><ele>302.95</ele><time>2026-08-20T20:16:57Z</time></trkpt><trkpt lat="59.1042163968" lon="30.4867560323"><ele>302.95</ele><time>2026-08-20T20:16:58Z</time></trkpt><trkpt lat="59.1042163968" lon="30.4867560323"><ele>302.95</ele><time>2026-08-20T20:16:59Z</time></trkpt><trkpt lat="59.1042163968" lon="30.4867560323"><ele>302.95</ele><time>2026-08-20T20:17:00Z</time></trkpt><trkpt lat="59.1042163968" lon="30.4867560323"><ele>302.95</ele><time>2026-08-20T20:17:01Z</time></trkpt><trkpt lat="59.1042163968" lon="30.4867560323"><ele>302.95</ele><time>2026-08-20T20:17:02Z</time></trkpt><trkpt lat="59.1042163968" lon="30.4867560323"><ele>302.95</ele><time>2026-08-20T20:17:03Z</time></trkpt><trkpt lat="59.1042163968" lon="30.4867560323"><ele>302.95</ele><time>2026-08-20T20:17:04Z</time></trkpt><trkpt lat="59.1042163968" lon="30.4867560323"><ele>302.95</ele><time>2026-08-20T20:17:05Z</time></trkpt><trkpt lat="59.1042163968" lon="30.4867560323"><ele>302.95</ele><time>2026-08-20T20:17:06Z</time></trkpt><trkpt lat="59.1042163968" lon="30.4867560323"><ele>302.95</ele><time>2026-08-20T20:17:07Z</time></trkpt><trkpt lat="59.1042163968" lon="30.4867560323"><ele>302.95</ele><time>2026-08-20T20:17:08Z</time></trkpt><trkpt lat="59.1042163968" lon="30.4867560323"><ele>302.95</ele><time>2026-08-20T20:17:09Z</time></trkpt><trkpt lat="59.1042163968" lon="30.4867560323"><ele>302.95</ele><time>2026-08-20T20:17:10Z</time></trkpt><trkpt lat="59.1042163968" lon="30.4867560323"><ele>302.95</ele><time>2026-08-20T20:17:11Z</time></trkpt><trkpt lat="59.1042163968" lon="30.4867560323"><ele>302.95</ele><time>2026-08-20T20:17:12Z</time></trkpt><trkpt lat="59.1042163968" lon="30.4867560323"><ele>302.95</ele><time>2026-08-20T20:17:13Z</time></trkpt><trkpt lat="59.1042163968" lon="30.4867560323"><ele>302.95</ele><time>2026-08-20T20:17:14Z</time></trkpt><trkpt lat="59.1042163968" lon="30.4867560323"><ele>302.95</ele><time>2026-08-20T20:17:15Z</time></trkpt><trkpt lat="59.1042163968" lon="30.4867560323"><ele>302.95</ele><time>2026-08-20T20:17:16Z</time></trkpt><trkpt lat="59.1042163968" lon="30.4867560323"><ele>302.95</ele><time>2026-08-20T20:17:17Z</time></trkpt><trkpt lat="59.1042163968" lon="30.4867560323"><ele>302.95</ele><time>2026-08-20T20:17:18Z</time></trkpt><trkpt lat="59.1042163968" lon="30.4867560323"><ele>302.95</ele><time>2026-08-20T20:17:19Z</time></trkpt><trkpt lat="59.1042163968" lon="30.4867560323"><ele>302.95</ele><time>2026-08-20T20:17:20Z</time></trkpt><trkpt lat="59.1042163968" lon="30.4867560323"><ele>302.95</ele><time>2026-08-20T20:17:21Z</time></trkpt><trkpt lat="59.1042163968" lon="30.4867560323"><ele>302.95</ele><time>2026-08-20T20:17:22Z</time></trkpt><trkpt lat="59.1042163968" lon="30.4867560323"><ele>302.95</ele><time>2026-08-20T20:17:23Z</time></trkpt><trkpt lat="59.1042163968" lon="30.4867560323"><ele>302.95</ele><time>2026-08-20T20:17:24Z</time></trkpt><trkpt lat="59.1042163968" lon="30.4867560323"><ele>302.95</ele><time>2026-08-20T20:17:25Z</time></trkpt><trkpt lat="59.1042163968" lon="30.4867560323"><ele>302.95</ele><time>2026-08-20T20:17:26Z</time></trkpt><trkpt lat="59.1042163968" lon="30.4867560323"><ele>302.95</ele><time>2026-08-20T20:17:27Z</time></trkpt><trkpt lat="59.1042163968" lon="30.4867560323"><ele>302.95</ele><time>2026-08-20T20:17:28Z</time></trkpt><trkpt lat="59.1042163968" lon="30.4867560323"><ele>302.95</ele><time>2026-08-20T20:17:29Z</time></trkpt><trkpt lat="59.1042163968" lon="30.4867560323"><ele>302.95</ele><time>2026-08-20T20:17:30Z</time></trkpt><trkpt lat="59.1042163968" lon="30.4867560323"><ele>302.95</ele><time>2026-08-20T20:17:31Z</time></trkpt><trkpt lat="59.1042163968" lon="30.4867560323"><ele>302.95</ele><time>2026-08-20T20:17:32Z</time></trkpt><trkpt lat="59.1042163968" lon="30.4867560323"><ele>302.95</ele><time>2026-08-20T20:17:33Z</time></trkpt><trkpt lat="59.1042163968" lon="30.4867560323"><ele>302.95</ele><time>2026-08-20T20:17:34Z</time></trkpt><trkpt lat="59.1042163968" lon="30.4867560323"><ele>302.95</ele><time>2026-08-20T20:17:35Z</time></trkpt><trkpt lat="59.1042163968" lon="30.4867560323"><ele>302.95</ele><time>2026-08-20T20:17:36Z</time></trkpt><trkpt lat="59.1042163968" lon="30.4867560323"><ele>302.95</ele><time>2026-08-20T20:17:37Z</time></trkpt><trkpt lat="59.1042163968" lon="30.4867560323"><ele>302.95</ele><time>2026-08-20T20:17:38Z</time></trkpt><trkpt lat="59.1042163968" lon="30.4867560323"><ele>302.95</ele><time>2026-08-20T20:17:39Z</time></trkpt><trkpt lat="59.1042163968" lon="30.4867560323"><ele>302.95</ele><time>2026-08-20T20:17:40Z</time></trkpt><trkpt lat="59.1042163968" lon="30.4867560323"><ele>302.95</ele><time>2026-08-20T20:17:41Z</time></trkpt><trkpt lat="59.1042163968" lon="30.4867560323"><ele>302.95</ele><time>2026-08-20T20:17:42Z</time></trkpt><trkpt lat="59.1042163968" lon="30.4867560323"><ele>302.95</ele><time>2026-08-20T20:17:43Z</time></trkpt><trkpt lat="59.1042163968" lon="30.4867560323"><ele>302.95</ele><time>2026-08-20T20:17:44Z</time></trkpt><trkpt lat="59.1042163968" lon="30.4867560323"><ele>302.95</ele><time>2026-08-20T20:17:45Z</time></trkpt><trkpt lat="59.1042163968" lon="30.4867560323"><ele>302.95</ele><time>2026-08-20T20:17:46Z</time></trkpt><trkpt lat="59.1042163968" lon="30.4867560323"><ele>302.95</ele><time>2026-08-20T20:17:47Z</time></trkpt><trkpt lat="59.1042163968" lon="30.4867560323"><ele>302.95</ele><time>2026-08-20T20:17:48Z</time></trkpt><trkpt lat="59.1042163968" lon="30.4867560323"><ele>302.95</ele><time>2026-08-20T20:17:49Z</time></trkpt><trkpt lat="59.1042163968" lon="30.4867560323"><ele>302.95</ele><time>2026-08-20T20:17:50Z</time></trkpt><trkpt lat="59.1042163968" lon="30.4867560323"><ele>302.95</ele><time>2026-08-20T20:17:51Z</time></trkpt><trkpt lat="59.1042163968" lon="30.4867560323"><ele>302.95</ele><time>2026-08-20T20:17:52Z</time></trkpt><trkpt lat="59.1042163968" lon="30.4867560323"><ele>302.95</ele><time>2026-08-20T20:17:53Z</time></trkpt><trkpt lat="59.1042163968" lon="30.4867560323"><ele>302.95</ele><time>2026-08-20T20:17:54Z</time></trkpt><trkpt lat="59.1042163968" lon="30.4867560323"><ele>302.95</ele><time>2026-08-20T20:17:55Z</time></trkpt><trkpt lat="59.1042163968" lon="30.4867560323"><ele>302.95</ele><time>2026-08-20T20:17:56Z</time></trkpt><trkpt lat="59.1042163968" lon="30.4867560323"><ele>302.95</ele><time>2026-08-20T20:17:57Z</time></trkpt><trkpt lat="59.1042163968" lon="30.4867560323"><ele>302.95</ele><time>2026-08-20T20:17:58Z</time></trkpt><trkpt lat="59.1041371878" lon="30.4868420307"><ele>302.95</ele><time>2026-08-20T20:17:59Z</time></trkpt><trkpt lat="59.1041358467" lon="30.4868412763"><ele>302.95</ele><time>2026-08-20T20:18:00Z</time></trkpt><trkpt lat="59.1041357629" lon="30.4868405219"><ele>302.95</ele><time>2026-08-20T20:18:01Z</time></trkpt><trkpt lat="59.1041349247" lon="30.4868409410"><ele>302.95</ele><time>2026-08-20T20:18:02Z</time></trkpt><trkpt lat="59.1041349247" lon="30.4868409410"><ele>302.95</ele><time>2026-08-20T20:18:03Z</time></trkpt><trkpt lat="59.1041349247" lon="30.4868409410"><ele>303.43</ele><time>2026-08-20T20:18:04Z</time></trkpt><trkpt lat="59.1041349247" lon="30.4868409410"><ele>303.43</ele><time>2026-08-20T20:18:05Z</time></trkpt><trkpt lat="59.1041349247" lon="30.4868409410"><ele>303.43</ele><time>2026-08-20T20:18:06Z</time></trkpt><trkpt lat="59.1041349247" lon="30.4868409410"><ele>303.43</ele><time>2026-08-20T20:18:07Z</time></trkpt><trkpt lat="59.1041349247" lon="30.4868409410"><ele>303.43</ele><time>2026-08-20T20:18:08Z</time></trkpt><trkpt lat="59.1041349247" lon="30.4868409410"><ele>303.43</ele><time>2026-08-20T20:18:09Z</time></trkpt><trkpt lat="59.1041349247" lon="30.4868409410"><ele>303.43</ele><time>2026-08-20T20:18:10Z</time></trkpt><trkpt lat="59.1041349247" lon="30.4868409410"><ele>303.43</ele><time>2026-08-20T20:18:11Z</time></trkpt><trkpt lat="59.1041349247" lon="30.4868409410"><ele>303.43</ele><time>2026-08-20T20:18:12Z</time></trkpt><trkpt lat="59.1041349247" lon="30.4868409410"><ele>303.43</ele><time>2026-08-20T20:18:13Z</time></trkpt><trkpt lat="59.1041349247" lon="30.4868409410"><ele>303.43</ele><time>2026-08-20T20:18:14Z</time></trkpt><trkpt lat="59.1041349247" lon="30.4868409410"><ele>303.43</ele><time>2026-08-20T20:18:15Z</time></trkpt><trkpt lat="59.1041349247" lon="30.4868409410"><ele>303.43</ele><time>2026-08-20T20:18:16Z</time></trkpt><trkpt lat="59.1041349247" lon="30.4868409410"><ele>303.43</ele><time>2026-08-20T20:18:17Z</time></trkpt><trkpt lat="59.1041349247" lon="30.4868409410"><ele>303.43</ele><time>2026-08-20T20:18:18Z</time></trkpt><trkpt lat="59.1041349247" lon="30.4868409410"><ele>303.43</ele><time>2026-08-20T20:18:19Z</time></trkpt><trkpt lat="59.1041349247" lon="30.4868409410"><ele>303.43</ele><time>2026-08-20T20:18:20Z</time></trkpt><trkpt lat="59.1041349247" lon="30.4868409410"><ele>303.43</ele><time>2026-08-20T20:18:21Z</time></trkpt><trkpt lat="59.1041349247" lon="30.4868409410"><ele>303.43</ele><time>2026-08-20T20:18:22Z</time></trkpt><trkpt lat="59.1041349247" lon="30.4868409410"><ele>303.43</ele><time>2026-08-20T20:18:23Z</time></trkpt><trkpt lat="59.1041349247" lon="30.4868409410"><ele>303.43</ele><time>2026-08-20T20:18:24Z</time></trkpt><trkpt lat="59.1041349247" lon="30.4868409410"><ele>303.43</ele><time>2026-08-20T20:18:25Z</time></trkpt><trkpt lat="59.1041349247" lon="30.4868409410"><ele>303.43</ele><time>2026-08-20T20:18:26Z</time></trkpt><trkpt lat="59.1041349247" lon="30.4868409410"><ele>303.43</ele><time>2026-08-20T20:18:27Z</time></trkpt><trkpt lat="59.1041349247" lon="30.4868409410"><ele>303.43</ele><time>2026-08-20T20:18:28Z</time></trkpt><trkpt lat="59.1041349247" lon="30.4868409410"><ele>303.43</ele><time>2026-08-20T20:18:29Z</time></trkpt><trkpt lat="59.1041349247" lon="30.4868409410"><ele>303.43</ele><time>2026-08-20T20:18:30Z</time></trkpt><trkpt lat="59.1041349247" lon="30.4868409410"><ele>303.43</ele><time>2026-08-20T20:18:31Z</time></trkpt><trkpt lat="59.1041349247" lon="30.4868409410"><ele>303.43</ele><time>2026-08-20T20:18:32Z</time></trkpt><trkpt lat="59.1041349247" lon="30.4868409410"><ele>303.43</ele><time>2026-08-20T20:18:33Z</time></trkpt><trkpt lat="59.1041349247" lon="30.4868409410"><ele>303.43</ele><time>2026-08-20T20:18:34Z</time></trkpt><trkpt lat="59.1041349247" lon="30.4868409410"><ele>303.43</ele><time>2026-08-20T20:18:35Z</time></trkpt><trkpt lat="59.1041349247" lon="30.4868409410"><ele>303.43</ele><time>2026-08-20T20:18:36Z</time></trkpt><trkpt lat="59.1041349247" lon="30.4868409410"><ele>303.43</ele><time>2026-08-20T20:18:37Z</time></trkpt><trkpt lat="59.1041349247" lon="30.4868409410"><ele>303.43</ele><time>2026-08-20T20:18:38Z</time></trkpt><trkpt lat="59.1041349247" lon="30.4868409410"><ele>303.43</ele><time>2026-08-20T20:18:39Z</time></trkpt><trkpt lat="59.1041349247" lon="30.4868409410"><ele>303.43</ele><time>2026-08-20T20:18:40Z</time></trkpt><trkpt lat="59.1041349247" lon="30.4868409410"><ele>303.43</ele><time>2026-08-20T20:18:41Z</time></trkpt><trkpt lat="59.1041349247" lon="30.4868409410"><ele>303.43</ele><time>2026-08-20T20:18:42Z</time></trkpt><trkpt lat="59.1041349247" lon="30.4868409410"><ele>303.43</ele><time>2026-08-20T20:18:43Z</time></trkpt><trkpt lat="59.1041349247" lon="30.4868409410"><ele>303.43</ele><time>2026-08-20T20:18:44Z</time></trkpt><trkpt lat="59.1041349247" lon="30.4868409410"><ele>303.43</ele><time>2026-08-20T20:18:45Z</time></trkpt><trkpt lat="59.1041349247" lon="30.4868409410"><ele>303.43</ele><time>2026-08-20T20:18:46Z</time></trkpt><trkpt lat="59.1041349247" lon="30.4868409410"><ele>303.43</ele><time>2026-08-20T20:18:47Z</time></trkpt><trkpt lat="59.1041349247" lon="30.4868409410"><ele>303.43</ele><time>2026-08-20T20:18:48Z</time></trkpt><trkpt lat="59.1041349247" lon="30.4868409410"><ele>303.43</ele><time>2026-08-20T20:18:49Z</time></trkpt><trkpt lat="59.1041349247" lon="30.4868409410"><ele>303.43</ele><time>2026-08-20T20:18:50Z</time></trkpt><trkpt lat="59.1041349247" lon="30.4868409410"><ele>303.43</ele><time>2026-08-20T20:18:51Z</time></trkpt><trkpt lat="59.1041349247" lon="30.4868409410"><ele>303.43</ele><time>2026-08-20T20:18:52Z</time></trkpt><trkpt lat="59.1041349247" lon="30.4868409410"><ele>303.43</ele><time>2026-08-20T20:18:53Z</time></trkpt><trkpt lat="59.1041349247" lon="30.4868409410"><ele>303.43</ele><time>2026-08-20T20:18:54Z</time></trkpt><trkpt lat="59.1041349247" lon="30.4868409410"><ele>303.43</ele><time>2026-08-20T20:18:55Z</time></trkpt><trkpt lat="59.1041349247" lon="30.4868409410"><ele>303.43</ele><time>2026-08-20T20:18:56Z</time></trkpt><trkpt lat="59.1041349247" lon="30.4868409410"><ele>303.43</ele><time>2026-08-20T20:18:57Z</time></trkpt><trkpt lat="59.1041349247" lon="30.4868409410"><ele>303.43</ele><time>2026-08-20T20:18:58Z</time></trkpt><trkpt lat="59.1041349247" lon="30.4868409410"><ele>303.43</ele><time>2026-08-20T20:18:59Z</time></trkpt><trkpt lat="59.1041349247" lon="30.4868409410"><ele>303.43</ele><time>2026-08-20T20:19:00Z</time></trkpt><trkpt lat="59.1041349247" lon="30.4868409410"><ele>303.43</ele><time>2026-08-20T20:19:01Z</time></trkpt><trkpt lat="59.1041349247" lon="30.4868409410"><ele>303.43</ele><time>2026-08-20T20:19:02Z</time></trkpt><trkpt lat="59.1041349247" lon="30.4868409410"><ele>303.43</ele><time>2026-08-20T20:19:03Z</time></trkpt><trkpt lat="59.1041349247" lon="30.4868409410"><ele>303.43</ele><time>2026-08-20T20:19:04Z</time></trkpt><trkpt lat="59.1041349247" lon="30.4868409410"><ele>303.43</ele><time>2026-08-20T20:19:05Z</time></trkpt><trkpt lat="59.1041349247" lon="30.4868409410"><ele>303.43</ele><time>2026-08-20T20:19:06Z</time></trkpt><trkpt lat="59.1041349247" lon="30.4868409410"><ele>303.43</ele><time>2026-08-20T20:19:07Z</time></trkpt><trkpt lat="59.1041349247" lon="30.4868409410"><ele>303.43</ele><time>2026-08-20T20:19:08Z</time></trkpt><trkpt lat="59.1041349247" lon="30.4868409410"><ele>303.43</ele><time>2026-08-20T20:19:09Z</time></trkpt><trkpt lat="59.1041349247" lon="30.4868409410"><ele>303.43</ele><time>2026-08-20T20:19:10Z</time></trkpt><trkpt lat="59.1041349247" lon="30.4868409410"><ele>303.43</ele><time>2026-08-20T20:19:11Z</time></trkpt><trkpt lat="59.1041349247" lon="30.4868409410"><ele>303.43</ele><time>2026-08-20T20:19:12Z</time></trkpt><trkpt lat="59.1041349247" lon="30.4868409410"><ele>303.43</ele><time>2026-08-20T20:19:13Z</time></trkpt><trkpt lat="59.1041349247" lon="30.4868409410"><ele>303.43</ele><time>2026-08-20T20:19:14Z</time></trkpt><trkpt lat="59.1041349247" lon="30.4868409410"><ele>303.43</ele><time>2026-08-20T20:19:15Z</time></trkpt><trkpt lat="59.1041349247" lon="30.4868409410"><ele>303.43</ele><time>2026-08-20T20:19:16Z</time></trkpt><trkpt lat="59.1041349247" lon="30.4868409410"><ele>303.43</ele><time>2026-08-20T20:19:17Z</time></trkpt><trkpt lat="59.1041349247" lon="30.4868409410"><ele>303.43</ele><time>2026-08-20T20:19:18Z</time></trkpt><trkpt lat="59.1041349247" lon="30.4868409410"><ele>303.43</ele><time>2026-08-20T20:19:19Z</time></trkpt><trkpt lat="59.1041349247" lon="30.4868409410"><ele>303.43</ele><time>2026-08-20T20:19:20Z</time></trkpt><trkpt lat="59.1041349247" lon="30.4868409410"><ele>303.43</ele><time>2026-08-20T20:19:21Z</time></trkpt><trkpt lat="59.1041349247" lon="30.4868409410"><ele>303.43</ele><time>2026-08-20T20:19:22Z</time></trkpt><trkpt lat="59.1041349247" lon="30.4868409410"><ele>303.43</ele><time>2026-08-20T20:19:23Z</time></trkpt><trkpt lat="59.1041349247" lon="30.4868409410"><ele>303.43</ele><time>2026-08-20T20:19:24Z</time></trkpt><trkpt lat="59.1041349247" lon="30.4868409410"><ele>303.43</ele><time>2026-08-20T20:19:25Z</time></trkpt><trkpt lat="59.1041349247" lon="30.4868409410"><ele>303.43</ele><time>2026-08-20T20:19:26Z</time></trkpt><trkpt lat="59.1041349247" lon="30.4868409410"><ele>303.43</ele><time>2026-08-20T20:19:27Z</time></trkpt><trkpt lat="59.1041349247" lon="30.4868409410"><ele>303.43</ele><time>2026-08-20T20:19:28Z</time></trkpt><trkpt lat="59.1041349247" lon="30.4868409410"><ele>303.43</ele><time>2026-08-20T20:19:29Z</time></trkpt><trkpt lat="59.1041349247" lon="30.4868409410"><ele>303.43</ele><time>2026-08-20T20:19:30Z</time></trkpt><trkpt lat="59.1041349247" lon="30.4868409410"><ele>303.43</ele><time>2026-08-20T20:19:31Z</time></trkpt><trkpt lat="59.1041349247" lon="30.4868409410"><ele>303.43</ele><time>2026-08-20T20:19:32Z</time></trkpt><trkpt lat="59.1041349247" lon="30.4868409410"><ele>303.43</ele><time>2026-08-20T20:19:33Z</time></trkpt><trkpt lat="59.1041349247" lon="30.4868409410"><ele>303.43</ele><time>2026-08-20T20:19:34Z</time></trkpt><trkpt lat="59.1041349247" lon="30.4868409410"><ele>303.43</ele><time>2026-08-20T20:19:35Z</time></trkpt><trkpt lat="59.1041349247" lon="30.4868409410"><ele>303.43</ele><time>2026-08-20T20:19:36Z</time></trkpt><trkpt lat="59.1041349247" lon="30.4868409410"><ele>303.43</ele><time>2026-08-20T20:19:37Z</time></trkpt><trkpt lat="59.1041349247" lon="30.4868409410"><ele>303.43</ele><time>2026-08-20T20:19:38Z</time></trkpt><trkpt lat="59.1041349247" lon="30.4868409410"><ele>303.43</ele><time>2026-08-20T20:19:39Z</time></trkpt><trkpt lat="59.1041349247" lon="30.4868409410"><ele>303.43</ele><time>2026-08-20T20:19:40Z</time></trkpt><trkpt lat="59.1041349247" lon="30.4868409410"><ele>303.43</ele><time>2026-08-20T20:19:41Z</time></trkpt><trkpt lat="59.1041349247" lon="30.4868409410"><ele>303.43</ele><time>2026-08-20T20:19:42Z</time></trkpt><trkpt lat="59.1041349247" lon="30.4868409410"><ele>303.43</ele><time>2026-08-20T20:19:43Z</time></trkpt><trkpt lat="59.1041349247" lon="30.4868409410"><ele>303.43</ele><time>2026-08-20T20:19:44Z</time></trkpt><trkpt lat="59.1041349247" lon="30.4868409410"><ele>303.43</ele><time>2026-08-20T20:19:45Z</time></trkpt><trkpt lat="59.1041349247" lon="30.4868409410"><ele>303.43</ele><time>2026-08-20T20:19:46Z</time></trkpt><trkpt lat="59.1041349247" lon="30.4868409410"><ele>303.43</ele><time>2026-08-20T20:19:47Z</time></trkpt><trkpt lat="59.1041349247" lon="30.4868409410"><ele>303.43</ele><time>2026-08-20T20:19:48Z</time></trkpt><trkpt lat="59.1041349247" lon="30.4868409410"><ele>303.43</ele><time>2026-08-20T20:19:49Z</time></trkpt><trkpt lat="59.1041349247" lon="30.4868409410"><ele>303.43</ele><time>2026-08-20T20:19:50Z</time></trkpt><trkpt lat="59.1041349247" lon="30.4868409410"><ele>303.43</ele><time>2026-08-20T20:19:51Z</time></trkpt><trkpt lat="59.1041349247" lon="30.4868409410"><ele>303.43</ele><time>2026-08-20T20:19:52Z</time></trkpt><trkpt lat="59.1041349247" lon="30.4868409410"><ele>303.43</ele><time>2026-08-20T20:19:53Z</time></trkpt><trkpt lat="59.1041349247" lon="30.4868409410"><ele>303.43</ele><time>2026-08-20T20:19:54Z</time></trkpt><trkpt lat="59.1041349247" lon="30.4868409410"><ele>303.43</ele><time>2026-08-20T20:19:55Z</time></trkpt><trkpt lat="59.1041349247" lon="30.4868409410"><ele>303.43</ele><time>2026-08-20T20:19:56Z</time></trkpt><trkpt lat="59.1041349247" lon="30.4868409410"><ele>303.43</ele><time>2026-08-20T20:19:57Z</time></trkpt><trkpt lat="59.1041349247" lon="30.4868409410"><ele>303.43</ele><time>2026-08-20T20:19:58Z</time></trkpt><trkpt lat="59.1041349247" lon="30.4868409410"><ele>303.43</ele><time>2026-08-20T20:19:59Z</time></trkpt><trkpt lat="59.1041349247" lon="30.4868409410"><ele>303.43</ele><time>2026-08-20T20:20:00Z</time></trkpt><trkpt lat="59.1041349247" lon="30.4868409410"><ele>303.43</ele><time>2026-08-20T20:20:01Z</time></trkpt><trkpt lat="59.1041349247" lon="30.4868409410"><ele>303.43</ele><time>2026-08-20T20:20:02Z</time></trkpt><trkpt lat="59.1041349247" lon="30.4868409410"><ele>303.43</ele><time>2026-08-20T20:20:03Z</time></trkpt><trkpt lat="59.1041349247" lon="30.4868409410"><ele>303.43</ele><time>2026-08-20T20:20:04Z</time></trkpt><trkpt lat="59.1041349247" lon="30.4868409410"><ele>303.43</ele><time>2026-08-20T20:20:05Z</time></trkpt><trkpt lat="59.1041349247" lon="30.4868409410"><ele>303.43</ele><time>2026-08-20T20:20:06Z</time></trkpt><trkpt lat="59.1041349247" lon="30.4868409410"><ele>303.43</ele><time>2026-08-20T20:20:07Z</time></trkpt><trkpt lat="59.1041349247" lon="30.4868409410"><ele>303.43</ele><time>2026-08-20T20:20:08Z</time></trkpt><trkpt lat="59.1041349247" lon="30.4868409410"><ele>303.43</ele><time>2026-08-20T20:20:09Z</time></trkpt><trkpt lat="59.1041349247" lon="30.4868409410"><ele>303.43</ele><time>2026-08-20T20:20:10Z</time></trkpt><trkpt lat="59.1041349247" lon="30.4868409410"><ele>303.43</ele><time>2026-08-20T20:20:11Z</time></trkpt><trkpt lat="59.1041349247" lon="30.4868409410"><ele>303.43</ele><time>2026-08-20T20:20:12Z</time></trkpt><trkpt lat="59.1041349247" lon="30.4868409410"><ele>303.43</ele><time>2026-08-20T20:20:13Z</time></trkpt><trkpt lat="59.1041349247" lon="30.4868409410"><ele>303.43</ele><time>2026-08-20T20:20:14Z</time></trkpt><trkpt lat="59.1041349247" lon="30.4868409410"><ele>303.43</ele><time>2026-08-20T20:20:15Z</time></trkpt><trkpt lat="59.1041349247" lon="30.4868409410"><ele>303.43</ele><time>2026-08-20T20:20:16Z</time></trkpt><trkpt lat="59.1041349247" lon="30.4868409410"><ele>303.43</ele><time>2026-08-20T20:20:17Z</time></trkpt><trkpt lat="59.1041349247" lon="30.4868409410"><ele>303.43</ele><time>2026-08-20T20:20:18Z</time></trkpt><trkpt lat="59.1041349247" lon="30.4868409410"><ele>303.43</ele><time>2026-08-20T20:20:19Z</time></trkpt><trkpt lat="59.1041349247" lon="30.4868409410"><ele>303.43</ele><time>2026-08-20T20:20:20Z</time></trkpt><trkpt lat="59.1041349247" lon="30.4868409410"><ele>303.43</ele><time>2026-08-20T20:20:21Z</time></trkpt><trkpt lat="59.1041349247" lon="30.4868409410"><ele>303.43</ele><time>2026-08-20T20:20:22Z</time></trkpt><trkpt lat="59.1041349247" lon="30.4868409410"><ele>303.43</ele><time>2026-08-20T20:20:23Z</time></trkpt><trkpt lat="59.1041349247" lon="30.4868409410"><ele>303.43</ele><time>2026-08-20T20:20:24Z</time></trkpt><trkpt lat="59.1041349247" lon="30.4868409410"><ele>303.43</ele><time>2026-08-20T20:20:25Z</time></trkpt><trkpt lat="59.1041349247" lon="30.4868409410"><ele>303.43</ele><time>2026-08-20T20:20:26Z</time></trkpt><trkpt lat="59.1041349247" lon="30.4868409410"><ele>303.43</ele><time>2026-08-20T20:20:27Z</time></trkpt><trkpt lat="59.1041349247" lon="30.4868409410"><ele>303.43</ele><time>2026-08-20T20:20:28Z</time></trkpt><trkpt lat="59.1041349247" lon="30.4868409410"><ele>303.43</ele><time>2026-08-20T20:20:29Z</time></trkpt><trkpt lat="59.1041349247" lon="30.4868409410"><ele>303.43</ele><time>2026-08-20T20:20:30Z</time></trkpt><trkpt lat="59.1041349247" lon="30.4868409410"><ele>303.43</ele><time>2026-08-20T20:20:31Z</time></trkpt><trkpt lat="59.1041349247" lon="30.4868409410"><ele>303.43</ele><time>2026-08-20T20:20:32Z</time></trkpt><trkpt lat="59.1041349247" lon="30.4868409410"><ele>303.43</ele><time>2026-08-20T20:20:33Z</time></trkpt><trkpt lat="59.1041349247" lon="30.4868409410"><ele>303.43</ele><time>2026-08-20T20:20:34Z</time></trkpt><trkpt lat="59.1041349247" lon="30.4868409410"><ele>303.43</ele><time>2026-08-20T20:20:35Z</time></trkpt><trkpt lat="59.1041349247" lon="30.4868409410"><ele>303.43</ele><time>2026-08-20T20:20:36Z</time></trkpt><trkpt lat="59.1041349247" lon="30.4868409410"><ele>303.43</ele><time>2026-08-20T20:20:37Z</time></trkpt><trkpt lat="59.1041349247" lon="30.4868409410"><ele>303.43</ele><time>2026-08-20T20:20:38Z</time></trkpt><trkpt lat="59.1041349247" lon="30.4868409410"><ele>303.43</ele><time>2026-08-20T20:20:39Z</time></trkpt><trkpt lat="59.1041349247" lon="30.4868409410"><ele>303.43</ele><time>2026-08-20T20:20:40Z</time></trkpt><trkpt lat="59.1041349247" lon="30.4868409410"><ele>303.43</ele><time>2026-08-20T20:20:41Z</time></trkpt><trkpt lat="59.1041349247" lon="30.4868409410"><ele>303.43</ele><time>2026-08-20T20:20:42Z</time></trkpt><trkpt lat="59.1041349247" lon="30.4868409410"><ele>303.43</ele><time>2026-08-20T20:20:43Z</time></trkpt><trkpt lat="59.1041349247" lon="30.4868409410"><ele>303.43</ele><time>2026-08-20T20:20:44Z</time></trkpt><trkpt lat="59.1041349247" lon="30.4868409410"><ele>303.43</ele><time>2026-08-20T20:20:45Z</time></trkpt><trkpt lat="59.1041349247" lon="30.4868409410"><ele>303.43</ele><time>2026-08-20T20:20:46Z</time></trkpt><trkpt lat="59.1041349247" lon="30.4868409410"><ele>303.43</ele><time>2026-08-20T20:20:47Z</time></trkpt><trkpt lat="59.1041349247" lon="30.4868409410"><ele>303.43</ele><time>2026-08-20T20:20:48Z</time></trkpt><trkpt lat="59.1041349247" lon="30.4868409410"><ele>303.43</ele><time>2026-08-20T20:20:49Z</time></trkpt><trkpt lat="59.1041349247" lon="30.4868409410"><ele>303.43</ele><time>2026-08-20T20:20:50Z</time></trkpt><trkpt lat="59.1041349247" lon="30.4868409410"><ele>303.43</ele><time>2026-08-20T20:20:51Z</time></trkpt><trkpt lat="59.1041349247" lon="30.4868409410"><ele>303.43</ele><time>2026-08-20T20:20:52Z</time></trkpt><trkpt lat="59.1041349247" lon="30.4868409410"><ele>303.43</ele><time>2026-08-20T20:20:53Z</time></trkpt><trkpt lat="59.1041349247" lon="30.4868409410"><ele>303.43</ele><time>2026-08-20T20:20:54Z</time></trkpt><trkpt lat="59.1041349247" lon="30.4868409410"><ele>303.43</ele><time>2026-08-20T20:20:55Z</time></trkpt><trkpt lat="59.1041349247" lon="30.4868409410"><ele>303.43</ele><time>2026-08-20T20:20:56Z</time></trkpt><trkpt lat="59.1041349247" lon="30.4868409410"><ele>303.43</ele><time>2026-08-20T20:20:57Z</time></trkpt><trkpt lat="59.1041349247" lon="30.4868409410"><ele>303.43</ele><time>2026-08-20T20:20:58Z</time></trkpt><trkpt lat="59.1041349247" lon="30.4868409410"><ele>303.43</ele><time>2026-08-20T20:20:59Z</time></trkpt><trkpt lat="59.1041349247" lon="30.4868409410"><ele>303.43</ele><time>2026-08-20T20:21:00Z</time></trkpt><trkpt lat="59.1041349247" lon="30.4868409410"><ele>303.43</ele><time>2026-08-20T20:21:01Z</time></trkpt><trkpt lat="59.1041349247" lon="30.4868409410"><ele>303.43</ele><time>2026-08-20T20:21:02Z</time></trkpt><trkpt lat="59.1041349247" lon="30.4868409410"><ele>303.43</ele><time>2026-08-20T20:21:03Z</time></trkpt><trkpt lat="59.1041349247" lon="30.4868409410"><ele>303.43</ele><time>2026-08-20T20:21:04Z</time></trkpt><trkpt lat="59.1041349247" lon="30.4868409410"><ele>303.43</ele><time>2026-08-20T20:21:05Z</time></trkpt><trkpt lat="59.1041349247" lon="30.4868409410"><ele>303.43</ele><time>2026-08-20T20:21:06Z</time></trkpt><trkpt lat="59.1041349247" lon="30.4868409410"><ele>303.43</ele><time>2026-08-20T20:21:07Z</time></trkpt><trkpt lat="59.1041349247" lon="30.4868409410"><ele>303.43</ele><time>2026-08-20T20:21:08Z</time></trkpt><trkpt lat="59.1041349247" lon="30.4868409410"><ele>303.43</ele><time>2026-08-20T20:21:09Z</time></trkpt><trkpt lat="59.1041349247" lon="30.4868409410"><ele>303.43</ele><time>2026-08-20T20:21:10Z</time></trkpt><trkpt lat="59.1041349247" lon="30.4868409410"><ele>303.43</ele><time>2026-08-20T20:21:11Z</time></trkpt><trkpt lat="59.1041349247" lon="30.4868409410"><ele>303.43</ele><time>2026-08-20T20:21:12Z</time></trkpt><trkpt lat="59.1041349247" lon="30.4868409410"><ele>303.43</ele><time>2026-08-20T20:21:13Z</time></trkpt><trkpt lat="59.1041349247" lon="30.4868409410"><ele>303.43</ele><time>2026-08-20T20:21:14Z</time></trkpt><trkpt lat="59.1041349247" lon="30.4868409410"><ele>303.43</ele><time>2026-08-20T20:21:15Z</time></trkpt><trkpt lat="59.1041349247" lon="30.4868409410"><ele>303.43</ele><time>2026-08-20T20:21:16Z</time></trkpt><trkpt lat="59.1041349247" lon="30.4868409410"><ele>303.43</ele><time>2026-08-20T20:21:17Z</time></trkpt><trkpt lat="59.1041349247" lon="30.4868409410"><ele>303.43</ele><time>2026-08-20T20:21:18Z</time></trkpt><trkpt lat="59.1041349247" lon="30.4868409410"><ele>303.43</ele><time>2026-08-20T20:21:19Z</time></trkpt><trkpt lat="59.1041349247" lon="30.4868409410"><ele>303.43</ele><time>2026-08-20T20:21:20Z</time></trkpt><trkpt lat="59.1041349247" lon="30.4868409410"><ele>303.43</ele><time>2026-08-20T20:21:21Z</time></trkpt><trkpt lat="59.1041349247" lon="30.4868409410"><ele>303.43</ele><time>2026-08-20T20:21:22Z</time></trkpt><trkpt lat="59.1041349247" lon="30.4868409410"><ele>303.43</ele><time>2026-08-20T20:21:23Z</time></trkpt><trkpt lat="59.1041349247" lon="30.4868409410"><ele>303.43</ele><time>2026-08-20T20:21:24Z</time></trkpt><trkpt lat="59.1041349247" lon="30.4868409410"><ele>303.43</ele><time>2026-08-20T20:21:25Z</time></trkpt><trkpt lat="59.1041349247" lon="30.4868409410"><ele>303.43</ele><time>2026-08-20T20:21:26Z</time></trkpt><trkpt lat="59.1041349247" lon="30.4868409410"><ele>303.43</ele><time>2026-08-20T20:21:27Z</time></trkpt><trkpt lat="59.1041349247" lon="30.4868409410"><ele>303.43</ele><time>2026-08-20T20:21:28Z</time></trkpt><trkpt lat="59.1041349247" lon="30.4868409410"><ele>303.43</ele><time>2026-08-20T20:21:29Z</time></trkpt><trkpt lat="59.1041349247" lon="30.4868409410"><ele>303.43</ele><time>2026-08-20T20:21:30Z</time></trkpt><trkpt lat="59.1041349247" lon="30.4868409410"><ele>303.43</ele><time>2026-08-20T20:21:31Z</time></trkpt><trkpt lat="59.1041349247" lon="30.4868409410"><ele>303.43</ele><time>2026-08-20T20:21:32Z</time></trkpt><trkpt lat="59.1041349247" lon="30.4868409410"><ele>303.43</ele><time>2026-08-20T20:21:33Z</time></trkpt><trkpt lat="59.1041349247" lon="30.4868409410"><ele>303.43</ele><time>2026-08-20T20:21:34Z</time></trkpt><trkpt lat="59.1041349247" lon="30.4868409410"><ele>303.43</ele><time>2026-08-20T20:21:35Z</time></trkpt><trkpt lat="59.1041349247" lon="30.4868409410"><ele>303.43</ele><time>2026-08-20T20:21:36Z</time></trkpt><trkpt lat="59.1041349247" lon="30.4868409410"><ele>302.95</ele><time>2026-08-20T20:21:37Z</time></trkpt><trkpt lat="59.1041349247" lon="30.4868409410"><ele>302.95</ele><time>2026-08-20T20:21:38Z</time></trkpt><trkpt lat="59.1041349247" lon="30.4868409410"><ele>302.95</ele><time>2026-08-20T20:21:39Z</time></trkpt><trkpt lat="59.1041349247" lon="30.4868409410"><ele>302.95</ele><time>2026-08-20T20:21:40Z</time></trkpt><trkpt lat="59.1041349247" lon="30.4868409410"><ele>302.95</ele><time>2026-08-20T20:21:41Z</time></trkpt><trkpt lat="59.1041349247" lon="30.4868409410"><ele>302.95</ele><time>2026-08-20T20:21:42Z</time></trkpt><trkpt lat="59.1041349247" lon="30.4868409410"><ele>302.95</ele><time>2026-08-20T20:21:43Z</time></trkpt><trkpt lat="59.1041349247" lon="30.4868409410"><ele>302.95</ele><time>2026-08-20T20:21:44Z</time></trkpt><trkpt lat="59.1041349247" lon="30.4868409410"><ele>302.95</ele><time>2026-08-20T20:21:45Z</time></trkpt><trkpt lat="59.1041349247" lon="30.4868409410"><ele>302.95</ele><time>2026-08-20T20:21:46Z</time></trkpt><trkpt lat="59.1041349247" lon="30.4868409410"><ele>302.95</ele><time>2026-08-20T20:21:47Z</time></trkpt><trkpt lat="59.1041349247" lon="30.4868409410"><ele>302.95</ele><time>2026-08-20T20:21:48Z</time></trkpt><trkpt lat="59.1041349247" lon="30.4868409410"><ele>302.95</ele><time>2026-08-20T20:21:49Z</time></trkpt><trkpt lat="59.1041349247" lon="30.4868409410"><ele>303.43</ele><time>2026-08-20T20:21:50Z</time></trkpt><trkpt lat="59.1041349247" lon="30.4868409410"><ele>303.43</ele><time>2026-08-20T20:21:51Z</time></trkpt><trkpt lat="59.1041349247" lon="30.4868409410"><ele>303.43</ele><time>2026-08-20T20:21:52Z</time></trkpt><trkpt lat="59.1041349247" lon="30.4868409410"><ele>302.95</ele><time>2026-08-20T20:21:53Z</time></trkpt><trkpt lat="59.1041349247" lon="30.4868409410"><ele>302.95</ele><time>2026-08-20T20:21:54Z</time></trkpt><trkpt lat="59.1041349247" lon="30.4868409410"><ele>302.95</ele><time>2026-08-20T20:21:55Z</time></trkpt><trkpt lat="59.1041349247" lon="30.4868409410"><ele>302.95</ele><time>2026-08-20T20:21:56Z</time></trkpt><trkpt lat="59.1041349247" lon="30.4868409410"><ele>302.95</ele><time>2026-08-20T20:21:57Z</time></trkpt><trkpt lat="59.1041349247" lon="30.4868409410"><ele>302.95</ele><time>2026-08-20T20:21:58Z</time></trkpt><trkpt lat="59.1041349247" lon="30.4868409410"><ele>302.95</ele><time>2026-08-20T20:21:59Z</time></trkpt><trkpt lat="59.1041349247" lon="30.4868409410"><ele>302.95</ele><time>2026-08-20T20:22:00Z</time></trkpt><trkpt lat="59.1041349247" lon="30.4868409410"><ele>302.95</ele><time>2026-08-20T20:22:01Z</time></trkpt><trkpt lat="59.1041349247" lon="30.4868409410"><ele>302.95</ele><time>2026-08-20T20:22:02Z</time></trkpt><trkpt lat="59.1041349247" lon="30.4868409410"><ele>302.95</ele><time>2026-08-20T20:22:03Z</time></trkpt><trkpt lat="59.1041349247" lon="30.4868409410"><ele>302.95</ele><time>2026-08-20T20:22:04Z</time></trkpt><trkpt lat="59.1041349247" lon="30.4868409410"><ele>302.95</ele><time>2026-08-20T20:22:05Z</time></trkpt><trkpt lat="59.1041349247" lon="30.4868409410"><ele>302.95</ele><time>2026-08-20T20:22:06Z</time></trkpt><trkpt lat="59.1041349247" lon="30.4868409410"><ele>302.95</ele><time>2026-08-20T20:22:07Z</time></trkpt><trkpt lat="59.1041349247" lon="30.4868409410"><ele>302.95</ele><time>2026-08-20T20:22:08Z</time></trkpt><trkpt lat="59.1041349247" lon="30.4868409410"><ele>302.95</ele><time>2026-08-20T20:22:09Z</time></trkpt><trkpt lat="59.1041349247" lon="30.4868409410"><ele>302.95</ele><time>2026-08-20T20:22:10Z</time></trkpt><trkpt lat="59.1041349247" lon="30.4868409410"><ele>302.95</ele><time>2026-08-20T20:22:11Z</time></trkpt><trkpt lat="59.1041349247" lon="30.4868409410"><ele>302.95</ele><time>2026-08-20T20:22:12Z</time></trkpt><trkpt lat="59.1041349247" lon="30.4868409410"><ele>302.95</ele><time>2026-08-20T20:22:13Z</time></trkpt><trkpt lat="59.1041349247" lon="30.4868409410"><ele>302.95</ele><time>2026-08-20T20:22:14Z</time></trkpt><trkpt lat="59.1041349247" lon="30.4868409410"><ele>302.95</ele><time>2026-08-20T20:22:15Z</time></trkpt><trkpt lat="59.1041349247" lon="30.4868409410"><ele>302.95</ele><time>2026-08-20T20:22:16Z</time></trkpt><trkpt lat="59.1041349247" lon="30.4868409410"><ele>302.95</ele><time>2026-08-20T20:22:17Z</time></trkpt><trkpt lat="59.1041349247" lon="30.4868409410"><ele>302.95</ele><time>2026-08-20T20:22:18Z</time></trkpt><trkpt lat="59.1041349247" lon="30.4868409410"><ele>302.95</ele><time>2026-08-20T20:22:19Z</time></trkpt><trkpt lat="59.1041349247" lon="30.4868409410"><ele>302.95</ele><time>2026-08-20T20:22:20Z</time></trkpt><trkpt lat="59.1041349247" lon="30.4868409410"><ele>302.95</ele><time>2026-08-20T20:22:21Z</time></trkpt><trkpt lat="59.1041349247" lon="30.4868409410"><ele>302.95</ele><time>2026-08-20T20:22:22Z</time></trkpt><trkpt lat="59.1041349247" lon="30.4868409410"><ele>302.95</ele><time>2026-08-20T20:22:23Z</time></trkpt><trkpt lat="59.1041349247" lon="30.4868409410"><ele>302.95</ele><time>2026-08-20T20:22:24Z</time></trkpt><trkpt lat="59.1041349247" lon="30.4868409410"><ele>302.95</ele><time>2026-08-20T20:22:25Z</time></trkpt><trkpt lat="59.1041349247" lon="30.4868409410"><ele>302.95</ele><time>2026-08-20T20:22:26Z</time></trkpt><trkpt lat="59.1041349247" lon="30.4868409410"><ele>302.95</ele><time>2026-08-20T20:22:27Z</time></trkpt><trkpt lat="59.1041349247" lon="30.4868409410"><ele>302.95</ele><time>2026-08-20T20:22:28Z</time></trkpt><trkpt lat="59.1041349247" lon="30.4868409410"><ele>302.95</ele><time>2026-08-20T20:22:29Z</time></trkpt><trkpt lat="59.1041349247" lon="30.4868409410"><ele>302.95</ele><time>2026-08-20T20:22:30Z</time></trkpt><trkpt lat="59.1041349247" lon="30.4868409410"><ele>302.95</ele><time>2026-08-20T20:22:31Z</time></trkpt><trkpt lat="59.1041349247" lon="30.4868409410"><ele>302.95</ele><time>2026-08-20T20:22:32Z</time></trkpt><trkpt lat="59.1041349247" lon="30.4868409410"><ele>302.95</ele><time>2026-08-20T20:22:33Z</time></trkpt><trkpt lat="59.1041349247" lon="30.4868409410"><ele>302.95</ele><time>2026-08-20T20:22:34Z</time></trkpt><trkpt lat="59.1041349247" lon="30.4868409410"><ele>302.95</ele><time>2026-08-20T20:22:35Z</time></trkpt><trkpt lat="59.1041349247" lon="30.4868409410"><ele>302.95</ele><time>2026-08-20T20:22:36Z</time></trkpt><trkpt lat="59.1041349247" lon="30.4868409410"><ele>302.95</ele><time>2026-08-20T20:22:37Z</time></trkpt><trkpt lat="59.1041349247" lon="30.4868409410"><ele>302.95</ele><time>2026-08-20T20:22:38Z</time></trkpt><trkpt lat="59.1041349247" lon="30.4868409410"><ele>302.95</ele><time>2026-08-20T20:22:39Z</time></trkpt><trkpt lat="59.1041349247" lon="30.4868409410"><ele>302.95</ele><time>2026-08-20T20:22:40Z</time></trkpt><trkpt lat="59.1041349247" lon="30.4868409410"><ele>302.95</ele><time>2026-08-20T20:22:41Z</time></trkpt><trkpt lat="59.1041349247" lon="30.4868409410"><ele>302.95</ele><time>2026-08-20T20:22:42Z</time></trkpt><trkpt lat="59.1041349247" lon="30.4868409410"><ele>302.95</ele><time>2026-08-20T20:22:43Z</time></trkpt><trkpt lat="59.1041349247" lon="30.4868409410"><ele>302.95</ele><time>2026-08-20T20:22:44Z</time></trkpt><trkpt lat="59.1041349247" lon="30.4868409410"><ele>302.95</ele><time>2026-08-20T20:22:45Z</time></trkpt><trkpt lat="59.1041349247" lon="30.4868409410"><ele>302.95</ele><time>2026-08-20T20:22:46Z</time></trkpt><trkpt lat="59.1041349247" lon="30.4868409410"><ele>302.95</ele><time>2026-08-20T20:22:47Z</time></trkpt><trkpt lat="59.1041349247" lon="30.4868409410"><ele>302.95</ele><time>2026-08-20T20:22:48Z</time></trkpt><trkpt lat="59.1041349247" lon="30.4868409410"><ele>302.95</ele><time>2026-08-20T20:22:49Z</time></trkpt><trkpt lat="59.1041349247" lon="30.4868409410"><ele>302.95</ele><time>2026-08-20T20:22:50Z</time></trkpt><trkpt lat="59.1041349247" lon="30.4868409410"><ele>302.95</ele><time>2026-08-20T20:22:51Z</time></trkpt><trkpt lat="59.1041349247" lon="30.4868409410"><ele>302.95</ele><time>2026-08-20T20:22:52Z</time></trkpt><trkpt lat="59.1041349247" lon="30.4868409410"><ele>302.95</ele><time>2026-08-20T20:22:53Z</time></trkpt><trkpt lat="59.1041349247" lon="30.4868409410"><ele>302.95</ele><time>2026-08-20T20:22:54Z</time></trkpt><trkpt lat="59.1041349247" lon="30.4868409410"><ele>302.95</ele><time>2026-08-20T20:22:55Z</time></trkpt><trkpt lat="59.1041349247" lon="30.4868409410"><ele>302.95</ele><time>2026-08-20T20:22:56Z</time></trkpt><trkpt lat="59.1041349247" lon="30.4868409410"><ele>302.95</ele><time>2026-08-20T20:22:57Z</time></trkpt><trkpt lat="59.1041349247" lon="30.4868409410"><ele>302.95</ele><time>2026-08-20T20:22:58Z</time></trkpt><trkpt lat="59.1041349247" lon="30.4868409410"><ele>303.43</ele><time>2026-08-20T20:22:59Z</time></trkpt><trkpt lat="59.1041349247" lon="30.4868409410"><ele>303.43</ele><time>2026-08-20T20:23:00Z</time></trkpt><trkpt lat="59.1041349247" lon="30.4868409410"><ele>303.43</ele><time>2026-08-20T20:23:01Z</time></trkpt><trkpt lat="59.1041349247" lon="30.4868409410"><ele>303.43</ele><time>2026-08-20T20:23:02Z</time></trkpt><trkpt lat="59.1041349247" lon="30.4868409410"><ele>303.43</ele><time>2026-08-20T20:23:03Z</time></trkpt><trkpt lat="59.1041349247" lon="30.4868409410"><ele>303.43</ele><time>2026-08-20T20:23:04Z</time></trkpt><trkpt lat="59.1041349247" lon="30.4868409410"><ele>302.95</ele><time>2026-08-20T20:23:05Z</time></trkpt><trkpt lat="59.1041349247" lon="30.4868409410"><ele>302.95</ele><time>2026-08-20T20:23:06Z</time></trkpt><trkpt lat="59.1041349247" lon="30.4868409410"><ele>302.95</ele><time>2026-08-20T20:23:07Z</time></trkpt><trkpt lat="59.1041349247" lon="30.4868409410"><ele>302.95</ele><time>2026-08-20T20:23:08Z</time></trkpt><trkpt lat="59.1041349247" lon="30.4868409410"><ele>303.43</ele><time>2026-08-20T20:23:09Z</time></trkpt><trkpt lat="59.1041349247" lon="30.4868409410"><ele>302.95</ele><time>2026-08-20T20:23:10Z</time></trkpt><trkpt lat="59.1041349247" lon="30.4868409410"><ele>303.43</ele><time>2026-08-20T20:23:11Z</time></trkpt><trkpt lat="59.1041349247" lon="30.4868409410"><ele>303.43</ele><time>2026-08-20T20:23:12Z</time></trkpt><trkpt lat="59.1041349247" lon="30.4868409410"><ele>303.43</ele><time>2026-08-20T20:23:13Z</time></trkpt><trkpt lat="59.1041349247" lon="30.4868409410"><ele>303.43</ele><time>2026-08-20T20:23:14Z</time></trkpt><trkpt lat="59.1041349247" lon="30.4868409410"><ele>303.43</ele><time>2026-08-20T20:23:15Z</time></trkpt><trkpt lat="59.1041349247" lon="30.4868409410"><ele>302.95</ele><time>2026-08-20T20:23:16Z</time></trkpt><trkpt lat="59.1041349247" lon="30.4868409410"><ele>302.95</ele><time>2026-08-20T20:23:17Z</time></trkpt><trkpt lat="59.1041349247" lon="30.4868409410"><ele>302.95</ele><time>2026-08-20T20:23:18Z</time></trkpt><trkpt lat="59.1041349247" lon="30.4868409410"><ele>302.95</ele><time>2026-08-20T20:23:19Z</time></trkpt><trkpt lat="59.1041349247" lon="30.4868409410"><ele>302.95</ele><time>2026-08-20T20:23:20Z</time></trkpt><trkpt lat="59.1041349247" lon="30.4868409410"><ele>302.95</ele><time>2026-08-20T20:23:21Z</time></trkpt><trkpt lat="59.1041349247" lon="30.4868409410"><ele>302.95</ele><time>2026-08-20T20:23:22Z</time></trkpt><trkpt lat="59.1041349247" lon="30.4868409410"><ele>302.95</ele><time>2026-08-20T20:23:23Z</time></trkpt><trkpt lat="59.1041349247" lon="30.4868409410"><ele>302.95</ele><time>2026-08-20T20:23:24Z</time></trkpt><trkpt lat="59.1041349247" lon="30.4868409410"><ele>302.95</ele><time>2026-08-20T20:23:25Z</time></trkpt><trkpt lat="59.1041349247" lon="30.4868409410"><ele>302.95</ele><time>2026-08-20T20:23:26Z</time></trkpt><trkpt lat="59.1041349247" lon="30.4868409410"><ele>302.95</ele><time>2026-08-20T20:23:27Z</time></trkpt><trkpt lat="59.1041349247" lon="30.4868409410"><ele>302.95</ele><time>2026-08-20T20:23:28Z</time></trkpt><trkpt lat="59.1041349247" lon="30.4868409410"><ele>302.95</ele><time>2026-08-20T20:23:29Z</time></trkpt><trkpt lat="59.1041349247" lon="30.4868409410"><ele>302.95</ele><time>2026-08-20T20:23:30Z</time></trkpt><trkpt lat="59.1041349247" lon="30.4868409410"><ele>302.95</ele><time>2026-08-20T20:23:31Z</time></trkpt><trkpt lat="59.1041349247" lon="30.4868409410"><ele>302.95</ele><time>2026-08-20T20:23:32Z</time></trkpt><trkpt lat="59.1041349247" lon="30.4868409410"><ele>302.95</ele><time>2026-08-20T20:23:33Z</time></trkpt><trkpt lat="59.1041349247" lon="30.4868409410"><ele>302.95</ele><time>2026-08-20T20:23:34Z</time></trkpt><trkpt lat="59.1041349247" lon="30.4868409410"><ele>302.95</ele><time>2026-08-20T20:23:35Z</time></trkpt><trkpt lat="59.1041349247" lon="30.4868409410"><ele>302.95</ele><time>2026-08-20T20:23:36Z</time></trkpt><trkpt lat="59.1041349247" lon="30.4868409410"><ele>302.95</ele><time>2026-08-20T20:23:37Z</time></trkpt><trkpt lat="59.1041349247" lon="30.4868409410"><ele>302.95</ele><time>2026-08-20T20:23:38Z</time></trkpt><trkpt lat="59.1041349247" lon="30.4868409410"><ele>302.95</ele><time>2026-08-20T20:23:39Z</time></trkpt><trkpt lat="59.1041349247" lon="30.4868409410"><ele>302.95</ele><time>2026-08-20T20:23:40Z</time></trkpt><trkpt lat="59.1041349247" lon="30.4868409410"><ele>302.95</ele><time>2026-08-20T20:23:41Z</time></trkpt><trkpt lat="59.1041349247" lon="30.4868409410"><ele>302.95</ele><time>2026-08-20T20:23:42Z</time></trkpt><trkpt lat="59.1041349247" lon="30.4868409410"><ele>302.95</ele><time>2026-08-20T20:23:43Z</time></trkpt><trkpt lat="59.1041349247" lon="30.4868409410"><ele>302.95</ele><time>2026-08-20T20:23:44Z</time></trkpt><trkpt lat="59.1041349247" lon="30.4868409410"><ele>302.95</ele><time>2026-08-20T20:23:45Z</time></trkpt><trkpt lat="59.1041349247" lon="30.4868409410"><ele>302.95</ele><time>2026-08-20T20:23:46Z</time></trkpt><trkpt lat="59.1041349247" lon="30.4868409410"><ele>302.95</ele><time>2026-08-20T20:23:47Z</time></trkpt><trkpt lat="59.1041349247" lon="30.4868409410"><ele>302.95</ele><time>2026-08-20T20:23:48Z</time></trkpt><trkpt lat="59.1041349247" lon="30.4868409410"><ele>302.95</ele><time>2026-08-20T20:23:49Z</time></trkpt><trkpt lat="59.1041349247" lon="30.4868409410"><ele>302.95</ele><time>2026-08-20T20:23:50Z</time></trkpt><trkpt lat="59.1041349247" lon="30.4868409410"><ele>302.95</ele><time>2026-08-20T20:23:51Z</time></trkpt><trkpt lat="59.1041349247" lon="30.4868409410"><ele>302.95</ele><time>2026-08-20T20:23:52Z</time></trkpt><trkpt lat="59.1041349247" lon="30.4868409410"><ele>302.95</ele><time>2026-08-20T20:23:53Z</time></trkpt><trkpt lat="59.1041349247" lon="30.4868409410"><ele>302.95</ele><time>2026-08-20T20:23:54Z</time></trkpt><trkpt lat="59.1041349247" lon="30.4868409410"><ele>302.95</ele><time>2026-08-20T20:23:55Z</time></trkpt><trkpt lat="59.1041349247" lon="30.4868409410"><ele>302.95</ele><time>2026-08-20T20:23:56Z</time></trkpt><trkpt lat="59.1041349247" lon="30.4868409410"><ele>302.95</ele><time>2026-08-20T20:23:57Z</time></trkpt><trkpt lat="59.1041349247" lon="30.4868409410"><ele>302.95</ele><time>2026-08-20T20:23:58Z</time></trkpt><trkpt lat="59.1041349247" lon="30.4868409410"><ele>302.95</ele><time>2026-08-20T20:23:59Z</time></trkpt><trkpt lat="59.1041349247" lon="30.4868409410"><ele>302.95</ele><time>2026-08-20T20:24:00Z</time></trkpt><trkpt lat="59.1041349247" lon="30.4868409410"><ele>302.95</ele><time>2026-08-20T20:24:01Z</time></trkpt><trkpt lat="59.1041349247" lon="30.4868409410"><ele>302.95</ele><time>2026-08-20T20:24:02Z</time></trkpt><trkpt lat="59.1041349247" lon="30.4868409410"><ele>302.95</ele><time>2026-08-20T20:24:03Z</time></trkpt><trkpt lat="59.1041349247" lon="30.4868409410"><ele>302.95</ele><time>2026-08-20T20:24:04Z</time></trkpt><trkpt lat="59.1041349247" lon="30.4868409410"><ele>302.95</ele><time>2026-08-20T20:24:05Z</time></trkpt><trkpt lat="59.1041349247" lon="30.4868409410"><ele>302.95</ele><time>2026-08-20T20:24:06Z</time></trkpt><trkpt lat="59.1041349247" lon="30.4868409410"><ele>302.95</ele><time>2026-08-20T20:24:07Z</time></trkpt><trkpt lat="59.1041349247" lon="30.4868409410"><ele>302.95</ele><time>2026-08-20T20:24:08Z</time></trkpt><trkpt lat="59.1041349247" lon="30.4868409410"><ele>302.95</ele><time>2026-08-20T20:24:09Z</time></trkpt><trkpt lat="59.1041349247" lon="30.4868409410"><ele>302.95</ele><time>2026-08-20T20:24:10Z</time></trkpt><trkpt lat="59.1041349247" lon="30.4868409410"><ele>302.95</ele><time>2026-08-20T20:24:11Z</time></trkpt><trkpt lat="59.1041349247" lon="30.4868409410"><ele>302.95</ele><time>2026-08-20T20:24:12Z</time></trkpt><trkpt lat="59.1041349247" lon="30.4868409410"><ele>302.95</ele><time>2026-08-20T20:24:13Z</time></trkpt><trkpt lat="59.1041349247" lon="30.4868409410"><ele>302.95</ele><time>2026-08-20T20:24:14Z</time></trkpt><trkpt lat="59.1041349247" lon="30.4868409410"><ele>302.95</ele><time>2026-08-20T20:24:15Z</time></trkpt><trkpt lat="59.1041349247" lon="30.4868409410"><ele>302.95</ele><time>2026-08-20T20:24:16Z</time></trkpt><trkpt lat="59.1041349247" lon="30.4868409410"><ele>302.95</ele><time>2026-08-20T20:24:17Z</time></trkpt><trkpt lat="59.1041349247" lon="30.4868409410"><ele>302.95</ele><time>2026-08-20T20:24:18Z</time></trkpt><trkpt lat="59.1041349247" lon="30.4868409410"><ele>302.95</ele><time>2026-08-20T20:24:19Z</time></trkpt><trkpt lat="59.1041349247" lon="30.4868409410"><ele>302.95</ele><time>2026-08-20T20:24:20Z</time></trkpt><trkpt lat="59.1041349247" lon="30.4868409410"><ele>302.95</ele><time>2026-08-20T20:24:21Z</time></trkpt><trkpt lat="59.1041349247" lon="30.4868409410"><ele>302.95</ele><time>2026-08-20T20:24:22Z</time></trkpt><trkpt lat="59.1041349247" lon="30.4868409410"><ele>302.95</ele><time>2026-08-20T20:24:23Z</time></trkpt><trkpt lat="59.1041349247" lon="30.4868409410"><ele>302.95</ele><time>2026-08-20T20:24:24Z</time></trkpt><trkpt lat="59.1041349247" lon="30.4868409410"><ele>302.95</ele><time>2026-08-20T20:24:25Z</time></trkpt><trkpt lat="59.1041349247" lon="30.4868409410"><ele>302.95</ele><time>2026-08-20T20:24:26Z</time></trkpt><trkpt lat="59.1041349247" lon="30.4868409410"><ele>302.95</ele><time>2026-08-20T20:24:27Z</time></trkpt><trkpt lat="59.1041349247" lon="30.4868409410"><ele>302.95</ele><time>2026-08-20T20:24:28Z</time></trkpt><trkpt lat="59.1041349247" lon="30.4868409410"><ele>302.95</ele><time>2026-08-20T20:24:29Z</time></trkpt><trkpt lat="59.1041349247" lon="30.4868409410"><ele>302.95</ele><time>2026-08-20T20:24:30Z</time></trkpt><trkpt lat="59.1041349247" lon="30.4868409410"><ele>302.95</ele><time>2026-08-20T20:24:31Z</time></trkpt><trkpt lat="59.1041349247" lon="30.4868409410"><ele>302.95</ele><time>2026-08-20T20:24:32Z</time></trkpt><trkpt lat="59.1041349247" lon="30.4868409410"><ele>302.95</ele><time>2026-08-20T20:24:33Z</time></trkpt><trkpt lat="59.1041349247" lon="30.4868409410"><ele>302.95</ele><time>2026-08-20T20:24:34Z</time></trkpt><trkpt lat="59.1041349247" lon="30.4868409410"><ele>302.95</ele><time>2026-08-20T20:24:35Z</time></trkpt><trkpt lat="59.1041349247" lon="30.4868409410"><ele>302.95</ele><time>2026-08-20T20:24:36Z</time></trkpt><trkpt lat="59.1041349247" lon="30.4868409410"><ele>302.95</ele><time>2026-08-20T20:24:37Z</time></trkpt><trkpt lat="59.1041349247" lon="30.4868409410"><ele>302.95</ele><time>2026-08-20T20:24:38Z</time></trkpt><trkpt lat="59.1041349247" lon="30.4868409410"><ele>302.95</ele><time>2026-08-20T20:24:39Z</time></trkpt><trkpt lat="59.1041349247" lon="30.4868409410"><ele>302.95</ele><time>2026-08-20T20:24:40Z</time></trkpt><trkpt lat="59.1041349247" lon="30.4868409410"><ele>302.95</ele><time>2026-08-20T20:24:41Z</time></trkpt><trkpt lat="59.1041349247" lon="30.4868409410"><ele>302.95</ele><time>2026-08-20T20:24:42Z</time></trkpt><trkpt lat="59.1041349247" lon="30.4868409410"><ele>302.95</ele><time>2026-08-20T20:24:43Z</time></trkpt><trkpt lat="59.1041349247" lon="30.4868409410"><ele>302.95</ele><time>2026-08-20T20:24:44Z</time></trkpt><trkpt lat="59.1041349247" lon="30.4868409410"><ele>302.95</ele><time>2026-08-20T20:24:45Z</time></trkpt><trkpt lat="59.1041349247" lon="30.4868409410"><ele>302.95</ele><time>2026-08-20T20:24:46Z</time></trkpt><trkpt lat="59.1041349247" lon="30.4868409410"><ele>302.95</ele><time>2026-08-20T20:24:47Z</time></trkpt><trkpt lat="59.1041349247" lon="30.4868409410"><ele>302.95</ele><time>2026-08-20T20:24:48Z</time></trkpt><trkpt lat="59.1041349247" lon="30.4868409410"><ele>302.95</ele><time>2026-08-20T20:24:49Z</time></trkpt><trkpt lat="59.1041349247" lon="30.4868409410"><ele>302.95</ele><time>2026-08-20T20:24:50Z</time></trkpt><trkpt lat="59.1041349247" lon="30.4868409410"><ele>302.95</ele><time>2026-08-20T20:24:51Z</time></trkpt><trkpt lat="59.1041349247" lon="30.4868409410"><ele>302.95</ele><time>2026-08-20T20:24:52Z</time></trkpt><trkpt lat="59.1041349247" lon="30.4868409410"><ele>302.95</ele><time>2026-08-20T20:24:53Z</time></trkpt><trkpt lat="59.1041349247" lon="30.4868409410"><ele>302.95</ele><time>2026-08-20T20:24:54Z</time></trkpt><trkpt lat="59.1041349247" lon="30.4868409410"><ele>302.95</ele><time>2026-08-20T20:24:55Z</time></trkpt><trkpt lat="59.1041349247" lon="30.4868409410"><ele>302.95</ele><time>2026-08-20T20:24:56Z</time></trkpt><trkpt lat="59.1041349247" lon="30.4868409410"><ele>302.95</ele><time>2026-08-20T20:24:57Z</time></trkpt><trkpt lat="59.1041349247" lon="30.4868409410"><ele>302.95</ele><time>2026-08-20T20:24:58Z</time></trkpt><trkpt lat="59.1041349247" lon="30.4868409410"><ele>302.95</ele><time>2026-08-20T20:24:59Z</time></trkpt><trkpt lat="59.1041349247" lon="30.4868409410"><ele>302.95</ele><time>2026-08-20T20:25:00Z</time></trkpt><trkpt lat="59.1041349247" lon="30.4868409410"><ele>302.95</ele><time>2026-08-20T20:25:01Z</time></trkpt><trkpt lat="59.1041349247" lon="30.4868409410"><ele>302.95</ele><time>2026-08-20T20:25:02Z</time></trkpt><trkpt lat="59.1041349247" lon="30.4868409410"><ele>302.95</ele><time>2026-08-20T20:25:03Z</time></trkpt><trkpt lat="59.1041349247" lon="30.4868409410"><ele>302.95</ele><time>2026-08-20T20:25:04Z</time></trkpt><trkpt lat="59.1041349247" lon="30.4868409410"><ele>302.95</ele><time>2026-08-20T20:25:05Z</time></trkpt><trkpt lat="59.1041349247" lon="30.4868409410"><ele>302.95</ele><time>2026-08-20T20:25:06Z</time></trkpt><trkpt lat="59.1041349247" lon="30.4868409410"><ele>302.95</ele><time>2026-08-20T20:25:07Z</time></trkpt><trkpt lat="59.1041349247" lon="30.4868409410"><ele>302.95</ele><time>2026-08-20T20:25:08Z</time></trkpt><trkpt lat="59.1041349247" lon="30.4868409410"><ele>302.95</ele><time>2026-08-20T20:25:09Z</time></trkpt><trkpt lat="59.1041349247" lon="30.4868409410"><ele>302.95</ele><time>2026-08-20T20:25:10Z</time></trkpt><trkpt lat="59.1041349247" lon="30.4868409410"><ele>302.95</ele><time>2026-08-20T20:25:11Z</time></trkpt><trkpt lat="59.1041349247" lon="30.4868409410"><ele>302.95</ele><time>2026-08-20T20:25:12Z</time></trkpt><trkpt lat="59.1041349247" lon="30.4868409410"><ele>302.95</ele><time>2026-08-20T20:25:13Z</time></trkpt><trkpt lat="59.1041349247" lon="30.4868409410"><ele>302.95</ele><time>2026-08-20T20:25:14Z</time></trkpt><trkpt lat="59.1041349247" lon="30.4868409410"><ele>302.95</ele><time>2026-08-20T20:25:15Z</time></trkpt><trkpt lat="59.1041349247" lon="30.4868409410"><ele>302.95</ele><time>2026-08-20T20:25:16Z</time></trkpt><trkpt lat="59.1041349247" lon="30.4868409410"><ele>302.95</ele><time>2026-08-20T20:25:17Z</time></trkpt><trkpt lat="59.1041349247" lon="30.4868409410"><ele>302.95</ele><time>2026-08-20T20:25:18Z</time></trkpt><trkpt lat="59.1041349247" lon="30.4868409410"><ele>302.95</ele><time>2026-08-20T20:25:19Z</time></trkpt><trkpt lat="59.1041349247" lon="30.4868409410"><ele>302.95</ele><time>2026-08-20T20:25:20Z</time></trkpt><trkpt lat="59.1041349247" lon="30.4868409410"><ele>302.95</ele><time>2026-08-20T20:25:21Z</time></trkpt><trkpt lat="59.1041349247" lon="30.4868409410"><ele>302.95</ele><time>2026-08-20T20:25:22Z</time></trkpt><trkpt lat="59.1041349247" lon="30.4868409410"><ele>302.95</ele><time>2026-08-20T20:25:23Z</time></trkpt><trkpt lat="59.1041349247" lon="30.4868409410"><ele>302.95</ele><time>2026-08-20T20:25:24Z</time></trkpt><trkpt lat="59.1041349247" lon="30.4868409410"><ele>302.95</ele><time>2026-08-20T20:25:25Z</time></trkpt><trkpt lat="59.1041349247" lon="30.4868409410"><ele>302.95</ele><time>2026-08-20T20:25:26Z</time></trkpt><trkpt lat="59.1041349247" lon="30.4868409410"><ele>302.95</ele><time>2026-08-20T20:25:27Z</time></trkpt><trkpt lat="59.1041349247" lon="30.4868409410"><ele>302.95</ele><time>2026-08-20T20:25:28Z</time></trkpt><trkpt lat="59.1041349247" lon="30.4868409410"><ele>302.95</ele><time>2026-08-20T20:25:29Z</time></trkpt><trkpt lat="59.1041349247" lon="30.4868409410"><ele>302.95</ele><time>2026-08-20T20:25:30Z</time></trkpt><trkpt lat="59.1041349247" lon="30.4868409410"><ele>302.95</ele><time>2026-08-20T20:25:31Z</time></trkpt><trkpt lat="59.1041349247" lon="30.4868409410"><ele>302.95</ele><time>2026-08-20T20:25:32Z</time></trkpt><trkpt lat="59.1041349247" lon="30.4868409410"><ele>302.95</ele><time>2026-08-20T20:25:33Z</time></trkpt><trkpt lat="59.1041349247" lon="30.4868409410"><ele>302.95</ele><time>2026-08-20T20:25:34Z</time></trkpt><trkpt lat="59.1041349247" lon="30.4868409410"><ele>302.95</ele><time>2026-08-20T20:25:35Z</time></trkpt><trkpt lat="59.1041349247" lon="30.4868409410"><ele>302.95</ele><time>2026-08-20T20:25:36Z</time></trkpt><trkpt lat="59.1041349247" lon="30.4868409410"><ele>302.95</ele><time>2026-08-20T20:25:37Z</time></trkpt><trkpt lat="59.1041349247" lon="30.4868409410"><ele>302.95</ele><time>2026-08-20T20:25:38Z</time></trkpt><trkpt lat="59.1041349247" lon="30.4868409410"><ele>303.43</ele><time>2026-08-20T20:25:39Z</time></trkpt><trkpt lat="59.1041349247" lon="30.4868409410"><ele>303.43</ele><time>2026-08-20T20:25:40Z</time></trkpt><trkpt lat="59.1041349247" lon="30.4868409410"><ele>303.43</ele><time>2026-08-20T20:25:41Z</time></trkpt><trkpt lat="59.1041349247" lon="30.4868409410"><ele>303.43</ele><time>2026-08-20T20:25:42Z</time></trkpt><trkpt lat="59.1041349247" lon="30.4868409410"><ele>303.43</ele><time>2026-08-20T20:25:43Z</time></trkpt><trkpt lat="59.1041349247" lon="30.4868409410"><ele>303.43</ele><time>2026-08-20T20:25:44Z</time></trkpt><trkpt lat="59.1041349247" lon="30.4868409410"><ele>302.95</ele><time>2026-08-20T20:25:45Z</time></trkpt><trkpt lat="59.1041349247" lon="30.4868409410"><ele>302.95</ele><time>2026-08-20T20:25:46Z</time></trkpt><trkpt lat="59.1041349247" lon="30.4868409410"><ele>302.95</ele><time>2026-08-20T20:25:47Z</time></trkpt><trkpt lat="59.1041349247" lon="30.4868409410"><ele>302.95</ele><time>2026-08-20T20:25:48Z</time></trkpt><trkpt lat="59.1041349247" lon="30.4868409410"><ele>302.95</ele><time>2026-08-20T20:25:49Z</time></trkpt><trkpt lat="59.1041349247" lon="30.4868409410"><ele>302.95</ele><time>2026-08-20T20:25:50Z</time></trkpt><trkpt lat="59.1041349247" lon="30.4868409410"><ele>302.95</ele><time>2026-08-20T20:25:51Z</time></trkpt><trkpt lat="59.1041349247" lon="30.4868409410"><ele>302.95</ele><time>2026-08-20T20:25:52Z</time></trkpt><trkpt lat="59.1041349247" lon="30.4868409410"><ele>303.43</ele><time>2026-08-20T20:25:53Z</time></trkpt><trkpt lat="59.1041349247" lon="30.4868409410"><ele>302.95</ele><time>2026-08-20T20:25:54Z</time></trkpt><trkpt lat="59.1041349247" lon="30.4868409410"><ele>303.43</ele><time>2026-08-20T20:25:55Z</time></trkpt><trkpt lat="59.1041349247" lon="30.4868409410"><ele>303.43</ele><time>2026-08-20T20:25:56Z</time></trkpt><trkpt lat="59.1041349247" lon="30.4868409410"><ele>303.43</ele><time>2026-08-20T20:25:57Z</time></trkpt><trkpt lat="59.1041349247" lon="30.4868409410"><ele>302.95</ele><time>2026-08-20T20:25:58Z</time></trkpt><trkpt lat="59.1041349247" lon="30.4868409410"><ele>302.95</ele><time>2026-08-20T20:25:59Z</time></trkpt><trkpt lat="59.1041349247" lon="30.4868409410"><ele>302.95</ele><time>2026-08-20T20:26:00Z</time></trkpt><trkpt lat="59.1041349247" lon="30.4868409410"><ele>302.95</ele><time>2026-08-20T20:26:01Z</time></trkpt><trkpt lat="59.1041349247" lon="30.4868409410"><ele>302.95</ele><time>2026-08-20T20:26:02Z</time></trkpt><trkpt lat="59.1041349247" lon="30.4868409410"><ele>302.95</ele><time>2026-08-20T20:26:03Z</time></trkpt><trkpt lat="59.1041349247" lon="30.4868409410"><ele>302.95</ele><time>2026-08-20T20:26:04Z</time></trkpt><trkpt lat="59.1041349247" lon="30.4868409410"><ele>302.95</ele><time>2026-08-20T20:26:05Z</time></trkpt><trkpt lat="59.1041349247" lon="30.4868409410"><ele>303.43</ele><time>2026-08-20T20:26:06Z</time></trkpt><trkpt lat="59.1041349247" lon="30.4868409410"><ele>303.43</ele><time>2026-08-20T20:26:07Z</time></trkpt><trkpt lat="59.1041349247" lon="30.4868409410"><ele>303.43</ele><time>2026-08-20T20:26:08Z</time></trkpt><trkpt lat="59.1041349247" lon="30.4868409410"><ele>303.43</ele><time>2026-08-20T20:26:09Z</time></trkpt><trkpt lat="59.1041349247" lon="30.4868409410"><ele>303.43</ele><time>2026-08-20T20:26:10Z</time></trkpt><trkpt lat="59.1041349247" lon="30.4868409410"><ele>303.43</ele><time>2026-08-20T20:26:11Z</time></trkpt><trkpt lat="59.1041349247" lon="30.4868409410"><ele>303.43</ele><time>2026-08-20T20:26:12Z</time></trkpt><trkpt lat="59.1041349247" lon="30.4868409410"><ele>303.43</ele><time>2026-08-20T20:26:13Z</time></trkpt><trkpt lat="59.1041349247" lon="30.4868409410"><ele>303.43</ele><time>2026-08-20T20:26:14Z</time></trkpt><trkpt lat="59.1041349247" lon="30.4868409410"><ele>303.43</ele><time>2026-08-20T20:26:15Z</time></trkpt><trkpt lat="59.1041349247" lon="30.4868409410"><ele>303.43</ele><time>2026-08-20T20:26:16Z</time></trkpt><trkpt lat="59.1041349247" lon="30.4868409410"><ele>303.43</ele><time>2026-08-20T20:26:17Z</time></trkpt><trkpt lat="59.1041349247" lon="30.4868409410"><ele>303.43</ele><time>2026-08-20T20:26:18Z</time></trkpt><trkpt lat="59.1041349247" lon="30.4868409410"><ele>303.43</ele><time>2026-08-20T20:26:19Z</time></trkpt><trkpt lat="59.1041349247" lon="30.4868409410"><ele>303.43</ele><time>2026-08-20T20:26:20Z</time></trkpt><trkpt lat="59.1041349247" lon="30.4868409410"><ele>303.43</ele><time>2026-08-20T20:26:21Z</time></trkpt><trkpt lat="59.1041349247" lon="30.4868409410"><ele>303.43</ele><time>2026-08-20T20:26:22Z</time></trkpt><trkpt lat="59.1041349247" lon="30.4868409410"><ele>303.43</ele><time>2026-08-20T20:26:23Z</time></trkpt><trkpt lat="59.1041349247" lon="30.4868409410"><ele>303.43</ele><time>2026-08-20T20:26:24Z</time></trkpt><trkpt lat="59.1041349247" lon="30.4868409410"><ele>303.43</ele><time>2026-08-20T20:26:25Z</time></trkpt><trkpt lat="59.1041349247" lon="30.4868409410"><ele>303.43</ele><time>2026-08-20T20:26:26Z</time></trkpt><trkpt lat="59.1041349247" lon="30.4868409410"><ele>303.43</ele><time>2026-08-20T20:26:27Z</time></trkpt><trkpt lat="59.1041349247" lon="30.4868409410"><ele>303.43</ele><time>2026-08-20T20:26:28Z</time></trkpt><trkpt lat="59.1041349247" lon="30.4868409410"><ele>303.43</ele><time>2026-08-20T20:26:29Z</time></trkpt><trkpt lat="59.1041349247" lon="30.4868409410"><ele>303.43</ele><time>2026-08-20T20:26:30Z</time></trkpt><trkpt lat="59.1041349247" lon="30.4868409410"><ele>303.43</ele><time>2026-08-20T20:26:31Z</time></trkpt><trkpt lat="59.1041349247" lon="30.4868409410"><ele>303.43</ele><time>2026-08-20T20:26:32Z</time></trkpt><trkpt lat="59.1041349247" lon="30.4868409410"><ele>303.43</ele><time>2026-08-20T20:26:33Z</time></trkpt><trkpt lat="59.1041349247" lon="30.4868409410"><ele>303.43</ele><time>2026-08-20T20:26:34Z</time></trkpt><trkpt lat="59.1041349247" lon="30.4868409410"><ele>303.43</ele><time>2026-08-20T20:26:35Z</time></trkpt><trkpt lat="59.1041349247" lon="30.4868409410"><ele>303.43</ele><time>2026-08-20T20:26:36Z</time></trkpt><trkpt lat="59.1041349247" lon="30.4868409410"><ele>303.43</ele><time>2026-08-20T20:26:37Z</time></trkpt><trkpt lat="59.1041349247" lon="30.4868409410"><ele>303.43</ele><time>2026-08-20T20:26:38Z</time></trkpt><trkpt lat="59.1041349247" lon="30.4868409410"><ele>303.43</ele><time>2026-08-20T20:26:39Z</time></trkpt><trkpt lat="59.1041349247" lon="30.4868409410"><ele>303.43</ele><time>2026-08-20T20:26:40Z</time></trkpt><trkpt lat="59.1041349247" lon="30.4868409410"><ele>303.43</ele><time>2026-08-20T20:26:41Z</time></trkpt><trkpt lat="59.1041349247" lon="30.4868409410"><ele>303.43</ele><time>2026-08-20T20:26:42Z</time></trkpt><trkpt lat="59.1041349247" lon="30.4868409410"><ele>303.43</ele><time>2026-08-20T20:26:43Z</time></trkpt><trkpt lat="59.1041349247" lon="30.4868409410"><ele>303.43</ele><time>2026-08-20T20:26:44Z</time></trkpt><trkpt lat="59.1041349247" lon="30.4868409410"><ele>303.43</ele><time>2026-08-20T20:26:45Z</time></trkpt><trkpt lat="59.1041349247" lon="30.4868409410"><ele>303.43</ele><time>2026-08-20T20:26:46Z</time></trkpt><trkpt lat="59.1041349247" lon="30.4868409410"><ele>303.43</ele><time>2026-08-20T20:26:47Z</time></trkpt><trkpt lat="59.1041349247" lon="30.4868409410"><ele>303.43</ele><time>2026-08-20T20:26:48Z</time></trkpt><trkpt lat="59.1041349247" lon="30.4868409410"><ele>303.43</ele><time>2026-08-20T20:26:49Z</time></trkpt><trkpt lat="59.1041349247" lon="30.4868409410"><ele>303.43</ele><time>2026-08-20T20:26:50Z</time></trkpt><trkpt lat="59.1041349247" lon="30.4868409410"><ele>303.43</ele><time>2026-08-20T20:26:51Z</time></trkpt><trkpt lat="59.1041349247" lon="30.4868409410"><ele>303.43</ele><time>2026-08-20T20:26:52Z</time></trkpt><trkpt lat="59.1041349247" lon="30.4868409410"><ele>303.43</ele><time>2026-08-20T20:26:53Z</time></trkpt><trkpt lat="59.1041349247" lon="30.4868409410"><ele>303.43</ele><time>2026-08-20T20:26:54Z</time></trkpt><trkpt lat="59.1041349247" lon="30.4868409410"><ele>303.43</ele><time>2026-08-20T20:26:55Z</time></trkpt><trkpt lat="59.1041349247" lon="30.4868409410"><ele>303.43</ele><time>2026-08-20T20:26:56Z</time></trkpt><trkpt lat="59.1041349247" lon="30.4868409410"><ele>303.43</ele><time>2026-08-20T20:26:57Z</time></trkpt><trkpt lat="59.1041349247" lon="30.4868409410"><ele>303.43</ele><time>2026-08-20T20:26:58Z</time></trkpt><trkpt lat="59.1041349247" lon="30.4868409410"><ele>303.43</ele><time>2026-08-20T20:26:59Z</time></trkpt><trkpt lat="59.1041349247" lon="30.4868409410"><ele>303.43</ele><time>2026-08-20T20:27:00Z</time></trkpt><trkpt lat="59.1041349247" lon="30.4868409410"><ele>303.43</ele><time>2026-08-20T20:27:01Z</time></trkpt><trkpt lat="59.1041349247" lon="30.4868409410"><ele>303.43</ele><time>2026-08-20T20:27:02Z</time></trkpt><trkpt lat="59.1041349247" lon="30.4868409410"><ele>303.43</ele><time>2026-08-20T20:27:03Z</time></trkpt><trkpt lat="59.1041349247" lon="30.4868409410"><ele>303.43</ele><time>2026-08-20T20:27:04Z</time></trkpt><trkpt lat="59.1041349247" lon="30.4868409410"><ele>303.43</ele><time>2026-08-20T20:27:05Z</time></trkpt><trkpt lat="59.1041349247" lon="30.4868409410"><ele>303.43</ele><time>2026-08-20T20:27:06Z</time></trkpt><trkpt lat="59.1041349247" lon="30.4868409410"><ele>303.43</ele><time>2026-08-20T20:27:07Z</time></trkpt><trkpt lat="59.1041349247" lon="30.4868409410"><ele>303.43</ele><time>2026-08-20T20:27:08Z</time></trkpt><trkpt lat="59.1041349247" lon="30.4868409410"><ele>303.43</ele><time>2026-08-20T20:27:09Z</time></trkpt><trkpt lat="59.1041349247" lon="30.4868409410"><ele>303.43</ele><time>2026-08-20T20:27:10Z</time></trkpt><trkpt lat="59.1041349247" lon="30.4868409410"><ele>303.43</ele><time>2026-08-20T20:27:11Z</time></trkpt><trkpt lat="59.1041349247" lon="30.4868409410"><ele>303.43</ele><time>2026-08-20T20:27:12Z</time></trkpt><trkpt lat="59.1041349247" lon="30.4868409410"><ele>303.43</ele><time>2026-08-20T20:27:13Z</time></trkpt><trkpt lat="59.1041349247" lon="30.4868409410"><ele>303.43</ele><time>2026-08-20T20:27:14Z</time></trkpt><trkpt lat="59.1041349247" lon="30.4868409410"><ele>303.43</ele><time>2026-08-20T20:27:15Z</time></trkpt><trkpt lat="59.1041349247" lon="30.4868409410"><ele>303.43</ele><time>2026-08-20T20:27:16Z</time></trkpt><trkpt lat="59.1041349247" lon="30.4868409410"><ele>303.43</ele><time>2026-08-20T20:27:17Z</time></trkpt><trkpt lat="59.1041349247" lon="30.4868409410"><ele>303.43</ele><time>2026-08-20T20:27:18Z</time></trkpt><trkpt lat="59.1041349247" lon="30.4868409410"><ele>303.43</ele><time>2026-08-20T20:27:19Z</time></trkpt><trkpt lat="59.1041349247" lon="30.4868409410"><ele>303.43</ele><time>2026-08-20T20:27:20Z</time></trkpt><trkpt lat="59.1041349247" lon="30.4868409410"><ele>303.43</ele><time>2026-08-20T20:27:21Z</time></trkpt><trkpt lat="59.1041349247" lon="30.4868409410"><ele>303.43</ele><time>2026-08-20T20:27:22Z</time></trkpt><trkpt lat="59.1041349247" lon="30.4868409410"><ele>303.43</ele><time>2026-08-20T20:27:23Z</time></trkpt><trkpt lat="59.1041349247" lon="30.4868409410"><ele>303.43</ele><time>2026-08-20T20:27:24Z</time></trkpt><trkpt lat="59.1041349247" lon="30.4868409410"><ele>303.43</ele><time>2026-08-20T20:27:25Z</time></trkpt><trkpt lat="59.1041349247" lon="30.4868409410"><ele>303.43</ele><time>2026-08-20T20:27:26Z</time></trkpt><trkpt lat="59.1041349247" lon="30.4868409410"><ele>303.43</ele><time>2026-08-20T20:27:27Z</time></trkpt><trkpt lat="59.1041349247" lon="30.4868409410"><ele>303.43</ele><time>2026-08-20T20:27:28Z</time></trkpt><trkpt lat="59.1041349247" lon="30.4868409410"><ele>303.43</ele><time>2026-08-20T20:27:29Z</time></trkpt><trkpt lat="59.1041349247" lon="30.4868409410"><ele>303.43</ele><time>2026-08-20T20:27:30Z</time></trkpt><trkpt lat="59.1041349247" lon="30.4868409410"><ele>303.43</ele><time>2026-08-20T20:27:31Z</time></trkpt><trkpt lat="59.1041349247" lon="30.4868409410"><ele>303.43</ele><time>2026-08-20T20:27:32Z</time></trkpt><trkpt lat="59.1041349247" lon="30.4868409410"><ele>303.43</ele><time>2026-08-20T20:27:33Z</time></trkpt><trkpt lat="59.1041349247" lon="30.4868409410"><ele>303.43</ele><time>2026-08-20T20:27:34Z</time></trkpt><trkpt lat="59.1041349247" lon="30.4868409410"><ele>303.43</ele><time>2026-08-20T20:27:35Z</time></trkpt><trkpt lat="59.1041349247" lon="30.4868409410"><ele>303.43</ele><time>2026-08-20T20:27:36Z</time></trkpt><trkpt lat="59.1041349247" lon="30.4868409410"><ele>303.43</ele><time>2026-08-20T20:27:37Z</time></trkpt><trkpt lat="59.1041349247" lon="30.4868409410"><ele>303.43</ele><time>2026-08-20T20:27:38Z</time></trkpt><trkpt lat="59.1041349247" lon="30.4868409410"><ele>303.43</ele><time>2026-08-20T20:27:39Z</time></trkpt><trkpt lat="59.1041349247" lon="30.4868409410"><ele>303.43</ele><time>2026-08-20T20:27:40Z</time></trkpt><trkpt lat="59.1041349247" lon="30.4868409410"><ele>303.43</ele><time>2026-08-20T20:27:41Z</time></trkpt><trkpt lat="59.1041349247" lon="30.4868409410"><ele>303.43</ele><time>2026-08-20T20:27:42Z</time></trkpt><trkpt lat="59.1041349247" lon="30.4868409410"><ele>303.43</ele><time>2026-08-20T20:27:43Z</time></trkpt><trkpt lat="59.1041349247" lon="30.4868409410"><ele>303.43</ele><time>2026-08-20T20:27:44Z</time></trkpt><trkpt lat="59.1041349247" lon="30.4868409410"><ele>303.43</ele><time>2026-08-20T20:27:45Z</time></trkpt><trkpt lat="59.1041349247" lon="30.4868409410"><ele>303.43</ele><time>2026-08-20T20:27:46Z</time></trkpt><trkpt lat="59.1041349247" lon="30.4868409410"><ele>303.43</ele><time>2026-08-20T20:27:47Z</time></trkpt><trkpt lat="59.1041349247" lon="30.4868409410"><ele>303.43</ele><time>2026-08-20T20:27:48Z</time></trkpt><trkpt lat="59.1041349247" lon="30.4868409410"><ele>303.43</ele><time>2026-08-20T20:27:49Z</time></trkpt><trkpt lat="59.1041349247" lon="30.4868409410"><ele>303.43</ele><time>2026-08-20T20:27:50Z</time></trkpt><trkpt lat="59.1041349247" lon="30.4868409410"><ele>303.43</ele><time>2026-08-20T20:27:51Z</time></trkpt><trkpt lat="59.1041349247" lon="30.4868409410"><ele>303.43</ele><time>2026-08-20T20:27:52Z</time></trkpt><trkpt lat="59.1041349247" lon="30.4868409410"><ele>303.43</ele><time>2026-08-20T20:27:53Z</time></trkpt><trkpt lat="59.1041349247" lon="30.4868409410"><ele>303.43</ele><time>2026-08-20T20:27:54Z</time></trkpt><trkpt lat="59.1041349247" lon="30.4868409410"><ele>303.43</ele><time>2026-08-20T20:27:55Z</time></trkpt><trkpt lat="59.1041349247" lon="30.4868409410"><ele>303.43</ele><time>2026-08-20T20:27:56Z</time></trkpt><trkpt lat="59.1041349247" lon="30.4868409410"><ele>303.43</ele><time>2026-08-20T20:27:57Z</time></trkpt><trkpt lat="59.1041349247" lon="30.4868409410"><ele>303.43</ele><time>2026-08-20T20:27:58Z</time></trkpt><trkpt lat="59.1041349247" lon="30.4868409410"><ele>303.43</ele><time>2026-08-20T20:27:59Z</time></trkpt><trkpt lat="59.1041349247" lon="30.4868409410"><ele>303.43</ele><time>2026-08-20T20:28:00Z</time></trkpt><trkpt lat="59.1041349247" lon="30.4868409410"><ele>303.43</ele><time>2026-08-20T20:28:01Z</time></trkpt><trkpt lat="59.1041349247" lon="30.4868409410"><ele>303.43</ele><time>2026-08-20T20:28:02Z</time></trkpt><trkpt lat="59.1041349247" lon="30.4868409410"><ele>303.43</ele><time>2026-08-20T20:28:03Z</time></trkpt><trkpt lat="59.1041349247" lon="30.4868409410"><ele>303.43</ele><time>2026-08-20T20:28:04Z</time></trkpt><trkpt lat="59.1041349247" lon="30.4868409410"><ele>303.43</ele><time>2026-08-20T20:28:05Z</time></trkpt><trkpt lat="59.1041349247" lon="30.4868409410"><ele>303.43</ele><time>2026-08-20T20:28:06Z</time></trkpt><trkpt lat="59.1041349247" lon="30.4868409410"><ele>303.43</ele><time>2026-08-20T20:28:07Z</time></trkpt><trkpt lat="59.1041349247" lon="30.4868409410"><ele>303.43</ele><time>2026-08-20T20:28:08Z</time></trkpt><trkpt lat="59.1041349247" lon="30.4868409410"><ele>303.43</ele><time>2026-08-20T20:28:09Z</time></trkpt><trkpt lat="59.1041349247" lon="30.4868409410"><ele>303.43</ele><time>2026-08-20T20:28:10Z</time></trkpt><trkpt lat="59.1041349247" lon="30.4868409410"><ele>303.43</ele><time>2026-08-20T20:28:11Z</time></trkpt><trkpt lat="59.1041349247" lon="30.4868409410"><ele>303.43</ele><time>2026-08-20T20:28:12Z</time></trkpt><trkpt lat="59.1041349247" lon="30.4868409410"><ele>303.43</ele><time>2026-08-20T20:28:13Z</time></trkpt><trkpt lat="59.1041349247" lon="30.4868409410"><ele>303.43</ele><time>2026-08-20T20:28:14Z</time></trkpt><trkpt lat="59.1041349247" lon="30.4868409410"><ele>303.43</ele><time>2026-08-20T20:28:15Z</time></trkpt><trkpt lat="59.1041349247" lon="30.4868409410"><ele>303.43</ele><time>2026-08-20T20:28:16Z</time></trkpt><trkpt lat="59.1041349247" lon="30.4868409410"><ele>303.43</ele><time>2026-08-20T20:28:17Z</time></trkpt><trkpt lat="59.1041349247" lon="30.4868409410"><ele>303.43</ele><time>2026-08-20T20:28:18Z</time></trkpt><trkpt lat="59.1041349247" lon="30.4868409410"><ele>303.43</ele><time>2026-08-20T20:28:19Z</time></trkpt><trkpt lat="59.1041349247" lon="30.4868409410"><ele>303.43</ele><time>2026-08-20T20:28:20Z</time></trkpt><trkpt lat="59.1041349247" lon="30.4868409410"><ele>303.43</ele><time>2026-08-20T20:28:21Z</time></trkpt><trkpt lat="59.1041349247" lon="30.4868409410"><ele>303.43</ele><time>2026-08-20T20:28:22Z</time></trkpt><trkpt lat="59.1041349247" lon="30.4868409410"><ele>303.43</ele><time>2026-08-20T20:28:23Z</time></trkpt><trkpt lat="59.1041349247" lon="30.4868409410"><ele>303.43</ele><time>2026-08-20T20:28:24Z</time></trkpt><trkpt lat="59.1041349247" lon="30.4868409410"><ele>303.43</ele><time>2026-08-20T20:28:25Z</time></trkpt><trkpt lat="59.1041349247" lon="30.4868409410"><ele>303.43</ele><time>2026-08-20T20:28:26Z</time></trkpt><trkpt lat="59.1041349247" lon="30.4868409410"><ele>303.43</ele><time>2026-08-20T20:28:27Z</time></trkpt><trkpt lat="59.1041349247" lon="30.4868409410"><ele>303.43</ele><time>2026-08-20T20:28:28Z</time></trkpt><trkpt lat="59.1041349247" lon="30.4868409410"><ele>303.43</ele><time>2026-08-20T20:28:29Z</time></trkpt><trkpt lat="59.1041349247" lon="30.4868409410"><ele>303.43</ele><time>2026-08-20T20:28:30Z</time></trkpt><trkpt lat="59.1041349247" lon="30.4868409410"><ele>303.43</ele><time>2026-08-20T20:28:31Z</time></trkpt><trkpt lat="59.1041349247" lon="30.4868409410"><ele>303.43</ele><time>2026-08-20T20:28:32Z</time></trkpt><trkpt lat="59.1041349247" lon="30.4868409410"><ele>303.43</ele><time>2026-08-20T20:28:33Z</time></trkpt><trkpt lat="59.1041349247" lon="30.4868409410"><ele>303.43</ele><time>2026-08-20T20:28:34Z</time></trkpt><trkpt lat="59.1041349247" lon="30.4868409410"><ele>303.43</ele><time>2026-08-20T20:28:35Z</time></trkpt><trkpt lat="59.1041349247" lon="30.4868409410"><ele>303.43</ele><time>2026-08-20T20:28:36Z</time></trkpt><trkpt lat="59.1041349247" lon="30.4868409410"><ele>303.43</ele><time>2026-08-20T20:28:37Z</time></trkpt><trkpt lat="59.1041349247" lon="30.4868409410"><ele>303.43</ele><time>2026-08-20T20:28:38Z</time></trkpt><trkpt lat="59.1041349247" lon="30.4868409410"><ele>303.43</ele><time>2026-08-20T20:28:39Z</time></trkpt><trkpt lat="59.1041349247" lon="30.4868409410"><ele>303.43</ele><time>2026-08-20T20:28:40Z</time></trkpt><trkpt lat="59.1041349247" lon="30.4868409410"><ele>303.43</ele><time>2026-08-20T20:28:41Z</time></trkpt><trkpt lat="59.1041349247" lon="30.4868409410"><ele>303.43</ele><time>2026-08-20T20:28:42Z</time></trkpt><trkpt lat="59.1041349247" lon="30.4868409410"><ele>303.43</ele><time>2026-08-20T20:28:43Z</time></trkpt><trkpt lat="59.1041349247" lon="30.4868409410"><ele>303.43</ele><time>2026-08-20T20:28:44Z</time></trkpt><trkpt lat="59.1041349247" lon="30.4868409410"><ele>303.43</ele><time>2026-08-20T20:28:45Z</time></trkpt><trkpt lat="59.1041349247" lon="30.4868409410"><ele>303.43</ele><time>2026-08-20T20:28:46Z</time></trkpt><trkpt lat="59.1041349247" lon="30.4868409410"><ele>303.43</ele><time>2026-08-20T20:28:47Z</time></trkpt><trkpt lat="59.1041349247" lon="30.4868409410"><ele>303.43</ele><time>2026-08-20T20:28:48Z</time></trkpt><trkpt lat="59.1041349247" lon="30.4868409410"><ele>303.43</ele><time>2026-08-20T20:28:49Z</time></trkpt><trkpt lat="59.1041349247" lon="30.4868409410"><ele>303.43</ele><time>2026-08-20T20:28:50Z</time></trkpt><trkpt lat="59.1041349247" lon="30.4868409410"><ele>303.43</ele><time>2026-08-20T20:28:51Z</time></trkpt><trkpt lat="59.1041349247" lon="30.4868409410"><ele>303.43</ele><time>2026-08-20T20:28:52Z</time></trkpt><trkpt lat="59.1041349247" lon="30.4868409410"><ele>303.43</ele><time>2026-08-20T20:28:53Z</time></trkpt><trkpt lat="59.1041349247" lon="30.4868409410"><ele>303.43</ele><time>2026-08-20T20:28:54Z</time></trkpt><trkpt lat="59.1041349247" lon="30.4868409410"><ele>303.43</ele><time>2026-08-20T20:28:55Z</time></trkpt><trkpt lat="59.1041349247" lon="30.4868409410"><ele>303.43</ele><time>2026-08-20T20:28:56Z</time></trkpt><trkpt lat="59.1041349247" lon="30.4868409410"><ele>303.43</ele><time>2026-08-20T20:28:57Z</time></trkpt><trkpt lat="59.1041349247" lon="30.4868409410"><ele>303.43</ele><time>2026-08-20T20:28:58Z</time></trkpt><trkpt lat="59.1041349247" lon="30.4868409410"><ele>303.43</ele><time>2026-08-20T20:28:59Z</time></trkpt><trkpt lat="59.1041349247" lon="30.4868409410"><ele>303.43</ele><time>2026-08-20T20:29:00Z</time></trkpt><trkpt lat="59.1041349247" lon="30.4868409410"><ele>303.43</ele><time>2026-08-20T20:29:01Z</time></trkpt><trkpt lat="59.1041349247" lon="30.4868409410"><ele>303.43</ele><time>2026-08-20T20:29:02Z</time></trkpt><trkpt lat="59.1041349247" lon="30.4868409410"><ele>303.43</ele><time>2026-08-20T20:29:03Z</time></trkpt><trkpt lat="59.1041349247" lon="30.4868409410"><ele>303.43</ele><time>2026-08-20T20:29:04Z</time></trkpt><trkpt lat="59.1041349247" lon="30.4868409410"><ele>303.43</ele><time>2026-08-20T20:29:05Z</time></trkpt><trkpt lat="59.1041349247" lon="30.4868409410"><ele>303.43</ele><time>2026-08-20T20:29:06Z</time></trkpt><trkpt lat="59.1041349247" lon="30.4868409410"><ele>303.43</ele><time>2026-08-20T20:29:07Z</time></trkpt><trkpt lat="59.1041349247" lon="30.4868409410"><ele>303.43</ele><time>2026-08-20T20:29:08Z</time></trkpt><trkpt lat="59.1041349247" lon="30.4868409410"><ele>303.43</ele><time>2026-08-20T20:29:09Z</time></trkpt><trkpt lat="59.1041349247" lon="30.4868409410"><ele>303.43</ele><time>2026-08-20T20:29:10Z</time></trkpt><trkpt lat="59.1041349247" lon="30.4868409410"><ele>303.43</ele><time>2026-08-20T20:29:11Z</time></trkpt><trkpt lat="59.1041349247" lon="30.4868409410"><ele>303.43</ele><time>2026-08-20T20:29:12Z</time></trkpt><trkpt lat="59.1041349247" lon="30.4868409410"><ele>303.43</ele><time>2026-08-20T20:29:13Z</time></trkpt><trkpt lat="59.1041349247" lon="30.4868409410"><ele>303.43</ele><time>2026-08-20T20:29:14Z</time></trkpt><trkpt lat="59.1041349247" lon="30.4868409410"><ele>303.43</ele><time>2026-08-20T20:29:15Z</time></trkpt><trkpt lat="59.1041349247" lon="30.4868409410"><ele>303.43</ele><time>2026-08-20T20:29:16Z</time></trkpt><trkpt lat="59.1041349247" lon="30.4868409410"><ele>303.43</ele><time>2026-08-20T20:29:17Z</time></trkpt><trkpt lat="59.1041349247" lon="30.4868409410"><ele>303.43</ele><time>2026-08-20T20:29:18Z</time></trkpt><trkpt lat="59.1041349247" lon="30.4868409410"><ele>303.43</ele><time>2026-08-20T20:29:19Z</time></trkpt><trkpt lat="59.1041349247" lon="30.4868409410"><ele>303.43</ele><time>2026-08-20T20:29:20Z</time></trkpt><trkpt lat="59.1041349247" lon="30.4868409410"><ele>303.43</ele><time>2026-08-20T20:29:21Z</time></trkpt><trkpt lat="59.1041349247" lon="30.4868409410"><ele>303.43</ele><time>2026-08-20T20:29:22Z</time></trkpt><trkpt lat="59.1041349247" lon="30.4868409410"><ele>303.43</ele><time>2026-08-20T20:29:23Z</time></trkpt><trkpt lat="59.1041349247" lon="30.4868409410"><ele>303.43</ele><time>2026-08-20T20:29:24Z</time></trkpt><trkpt lat="59.1041349247" lon="30.4868409410"><ele>303.43</ele><time>2026-08-20T20:29:25Z</time></trkpt><trkpt lat="59.1041349247" lon="30.4868409410"><ele>303.43</ele><time>2026-08-20T20:29:26Z</time></trkpt><trkpt lat="59.1041349247" lon="30.4868409410"><ele>303.43</ele><time>2026-08-20T20:29:27Z</time></trkpt><trkpt lat="59.1041349247" lon="30.4868409410"><ele>303.43</ele><time>2026-08-20T20:29:28Z</time></trkpt><trkpt lat="59.1041349247" lon="30.4868409410"><ele>303.43</ele><time>2026-08-20T20:29:29Z</time></trkpt><trkpt lat="59.1041349247" lon="30.4868409410"><ele>303.43</ele><time>2026-08-20T20:29:30Z</time></trkpt><trkpt lat="59.1041349247" lon="30.4868409410"><ele>303.43</ele><time>2026-08-20T20:29:31Z</time></trkpt><trkpt lat="59.1041349247" lon="30.4868409410"><ele>303.43</ele><time>2026-08-20T20:29:32Z</time></trkpt><trkpt lat="59.1041349247" lon="30.4868409410"><ele>303.43</ele><time>2026-08-20T20:29:33Z</time></trkpt><trkpt lat="59.1041349247" lon="30.4868409410"><ele>303.43</ele><time>2026-08-20T20:29:34Z</time></trkpt><trkpt lat="59.1041349247" lon="30.4868409410"><ele>303.43</ele><time>2026-08-20T20:29:35Z</time></trkpt><trkpt lat="59.1041349247" lon="30.4868409410"><ele>303.43</ele><time>2026-08-20T20:29:36Z</time></trkpt><trkpt lat="59.1041349247" lon="30.4868409410"><ele>303.43</ele><time>2026-08-20T20:29:37Z</time></trkpt><trkpt lat="59.1041349247" lon="30.4868409410"><ele>303.43</ele><time>2026-08-20T20:29:38Z</time></trkpt><trkpt lat="59.1041349247" lon="30.4868409410"><ele>303.43</ele><time>2026-08-20T20:29:39Z</time></trkpt><trkpt lat="59.1041349247" lon="30.4868409410"><ele>303.43</ele><time>2026-08-20T20:29:40Z</time></trkpt><trkpt lat="59.1041349247" lon="30.4868409410"><ele>303.43</ele><time>2026-08-20T20:29:41Z</time></trkpt><trkpt lat="59.1041349247" lon="30.4868409410"><ele>303.43</ele><time>2026-08-20T20:29:42Z</time></trkpt><trkpt lat="59.1041349247" lon="30.4868409410"><ele>303.43</ele><time>2026-08-20T20:29:43Z</time></trkpt><trkpt lat="59.1041349247" lon="30.4868409410"><ele>303.43</ele><time>2026-08-20T20:29:44Z</time></trkpt><trkpt lat="59.1041349247" lon="30.4868409410"><ele>303.43</ele><time>2026-08-20T20:29:45Z</time></trkpt><trkpt lat="59.1041349247" lon="30.4868409410"><ele>303.43</ele><time>2026-08-20T20:29:46Z</time></trkpt><trkpt lat="59.1041349247" lon="30.4868409410"><ele>303.43</ele><time>2026-08-20T20:29:47Z</time></trkpt><trkpt lat="59.1041349247" lon="30.4868409410"><ele>303.43</ele><time>2026-08-20T20:29:48Z</time></trkpt><trkpt lat="59.1041349247" lon="30.4868409410"><ele>303.43</ele><time>2026-08-20T20:29:49Z</time></trkpt><trkpt lat="59.1041349247" lon="30.4868409410"><ele>303.43</ele><time>2026-08-20T20:29:50Z</time></trkpt><trkpt lat="59.1041349247" lon="30.4868409410"><ele>303.43</ele><time>2026-08-20T20:29:51Z</time></trkpt><trkpt lat="59.1041349247" lon="30.4868409410"><ele>303.43</ele><time>2026-08-20T20:29:52Z</time></trkpt><trkpt lat="59.1041349247" lon="30.4868409410"><ele>303.43</ele><time>2026-08-20T20:29:53Z</time></trkpt><trkpt lat="59.1041349247" lon="30.4868409410"><ele>303.43</ele><time>2026-08-20T20:29:54Z</time></trkpt><trkpt lat="59.1041349247" lon="30.4868409410"><ele>303.43</ele><time>2026-08-20T20:29:55Z</time></trkpt><trkpt lat="59.1041349247" lon="30.4868409410"><ele>303.43</ele><time>2026-08-20T20:29:56Z</time></trkpt><trkpt lat="59.1041349247" lon="30.4868409410"><ele>303.43</ele><time>2026-08-20T20:29:57Z</time></trkpt><trkpt lat="59.1041349247" lon="30.4868409410"><ele>303.43</ele><time>2026-08-20T20:29:58Z</time></trkpt><trkpt lat="59.1041349247" lon="30.4868409410"><ele>303.43</ele><time>2026-08-20T20:29:59Z</time></trkpt><trkpt lat="59.1041349247" lon="30.4868409410"><ele>303.43</ele><time>2026-08-20T20:30:00Z</time></trkpt><trkpt lat="59.1041349247" lon="30.4868409410"><ele>303.43</ele><time>2026-08-20T20:30:01Z</time></trkpt><trkpt lat="59.1041349247" lon="30.4868409410"><ele>303.43</ele><time>2026-08-20T20:30:02Z</time></trkpt><trkpt lat="59.1041349247" lon="30.4868409410"><ele>303.43</ele><time>2026-08-20T20:30:03Z</time></trkpt><trkpt lat="59.1041349247" lon="30.4868409410"><ele>303.43</ele><time>2026-08-20T20:30:04Z</time></trkpt><trkpt lat="59.1041349247" lon="30.4868409410"><ele>303.43</ele><time>2026-08-20T20:30:05Z</time></trkpt><trkpt lat="59.1041349247" lon="30.4868409410"><ele>303.43</ele><time>2026-08-20T20:30:06Z</time></trkpt><trkpt lat="59.1041349247" lon="30.4868409410"><ele>303.43</ele><time>2026-08-20T20:30:07Z</time></trkpt><trkpt lat="59.1041349247" lon="30.4868409410"><ele>303.43</ele><time>2026-08-20T20:30:08Z</time></trkpt><trkpt lat="59.1041349247" lon="30.4868409410"><ele>303.43</ele><time>2026-08-20T20:30:09Z</time></trkpt><trkpt lat="59.1041349247" lon="30.4868409410"><ele>303.43</ele><time>2026-08-20T20:30:10Z</time></trkpt><trkpt lat="59.1041349247" lon="30.4868409410"><ele>303.43</ele><time>2026-08-20T20:30:11Z</time></trkpt><trkpt lat="59.1041349247" lon="30.4868409410"><ele>303.43</ele><time>2026-08-20T20:30:12Z</time></trkpt><trkpt lat="59.1041349247" lon="30.4868409410"><ele>303.43</ele><time>2026-08-20T20:30:13Z</time></trkpt><trkpt lat="59.1041349247" lon="30.4868409410"><ele>303.43</ele><time>2026-08-20T20:30:14Z</time></trkpt><trkpt lat="59.1041349247" lon="30.4868409410"><ele>303.43</ele><time>2026-08-20T20:30:15Z</time></trkpt><trkpt lat="59.1041349247" lon="30.4868409410"><ele>303.43</ele><time>2026-08-20T20:30:16Z</time></trkpt><trkpt lat="59.1041349247" lon="30.4868409410"><ele>303.43</ele><time>2026-08-20T20:30:17Z</time></trkpt><trkpt lat="59.1041349247" lon="30.4868409410"><ele>303.43</ele><time>2026-08-20T20:30:18Z</time></trkpt><trkpt lat="59.1041349247" lon="30.4868409410"><ele>303.43</ele><time>2026-08-20T20:30:19Z</time></trkpt><trkpt lat="59.1041349247" lon="30.4868409410"><ele>303.43</ele><time>2026-08-20T20:30:20Z</time></trkpt><trkpt lat="59.1041349247" lon="30.4868409410"><ele>303.43</ele><time>2026-08-20T20:30:21Z</time></trkpt><trkpt lat="59.1041349247" lon="30.4868409410"><ele>303.43</ele><time>2026-08-20T20:30:22Z</time></trkpt><trkpt lat="59.1041349247" lon="30.4868409410"><ele>303.43</ele><time>2026-08-20T20:30:23Z</time></trkpt><trkpt lat="59.1041349247" lon="30.4868409410"><ele>303.43</ele><time>2026-08-20T20:30:24Z</time></trkpt><trkpt lat="59.1041349247" lon="30.4868409410"><ele>303.43</ele><time>2026-08-20T20:30:25Z</time></trkpt><trkpt lat="59.1041349247" lon="30.4868409410"><ele>303.43</ele><time>2026-08-20T20:30:26Z</time></trkpt><trkpt lat="59.1041349247" lon="30.4868409410"><ele>303.43</ele><time>2026-08-20T20:30:27Z</time></trkpt><trkpt lat="59.1041349247" lon="30.4868409410"><ele>303.43</ele><time>2026-08-20T20:30:28Z</time></trkpt><trkpt lat="59.1041349247" lon="30.4868409410"><ele>303.43</ele><time>2026-08-20T20:30:29Z</time></trkpt><trkpt lat="59.1041349247" lon="30.4868409410"><ele>303.43</ele><time>2026-08-20T20:30:30Z</time></trkpt><trkpt lat="59.1041349247" lon="30.4868409410"><ele>303.43</ele><time>2026-08-20T20:30:31Z</time></trkpt><trkpt lat="59.1041349247" lon="30.4868409410"><ele>303.43</ele><time>2026-08-20T20:30:32Z</time></trkpt><trkpt lat="59.1041349247" lon="30.4868409410"><ele>303.43</ele><time>2026-08-20T20:30:33Z</time></trkpt><trkpt lat="59.1041349247" lon="30.4868409410"><ele>303.43</ele><time>2026-08-20T20:30:34Z</time></trkpt><trkpt lat="59.1041349247" lon="30.4868409410"><ele>303.43</ele><time>2026-08-20T20:30:35Z</time></trkpt><trkpt lat="59.1041349247" lon="30.4868409410"><ele>303.43</ele><time>2026-08-20T20:30:36Z</time></trkpt><trkpt lat="59.1041349247" lon="30.4868409410"><ele>303.43</ele><time>2026-08-20T20:30:37Z</time></trkpt><trkpt lat="59.1041349247" lon="30.4868409410"><ele>303.43</ele><time>2026-08-20T20:30:38Z</time></trkpt><trkpt lat="59.1041349247" lon="30.4868409410"><ele>303.43</ele><time>2026-08-20T20:30:39Z</time></trkpt><trkpt lat="59.1041349247" lon="30.4868409410"><ele>303.43</ele><time>2026-08-20T20:30:40Z</time></trkpt><trkpt lat="59.1041349247" lon="30.4868409410"><ele>303.43</ele><time>2026-08-20T20:30:41Z</time></trkpt><trkpt lat="59.1041349247" lon="30.4868409410"><ele>303.43</ele><time>2026-08-20T20:30:42Z</time></trkpt><trkpt lat="59.1041349247" lon="30.4868409410"><ele>303.43</ele><time>2026-08-20T20:30:43Z</time></trkpt><trkpt lat="59.1041349247" lon="30.4868409410"><ele>303.43</ele><time>2026-08-20T20:30:44Z</time></trkpt><trkpt lat="59.1041349247" lon="30.4868409410"><ele>303.43</ele><time>2026-08-20T20:30:45Z</time></trkpt><trkpt lat="59.1041349247" lon="30.4868409410"><ele>303.43</ele><time>2026-08-20T20:30:46Z</time></trkpt><trkpt lat="59.1041349247" lon="30.4868409410"><ele>303.43</ele><time>2026-08-20T20:30:47Z</time></trkpt><trkpt lat="59.1041349247" lon="30.4868409410"><ele>303.43</ele><time>2026-08-20T20:30:48Z</time></trkpt><trkpt lat="59.1041349247" lon="30.4868409410"><ele>303.43</ele><time>2026-08-20T20:30:49Z</time></trkpt><trkpt lat="59.1041349247" lon="30.4868409410"><ele>303.43</ele><time>2026-08-20T20:30:50Z</time></trkpt><trkpt lat="59.1041349247" lon="30.4868409410"><ele>303.43</ele><time>2026-08-20T20:30:51Z</time></trkpt><trkpt lat="59.1041349247" lon="30.4868409410"><ele>303.43</ele><time>2026-08-20T20:30:52Z</time></trkpt><trkpt lat="59.1041349247" lon="30.4868409410"><ele>303.43</ele><time>2026-08-20T20:30:53Z</time></trkpt><trkpt lat="59.1041349247" lon="30.4868409410"><ele>303.43</ele><time>2026-08-20T20:30:54Z</time></trkpt><trkpt lat="59.1041349247" lon="30.4868409410"><ele>303.43</ele><time>2026-08-20T20:30:55Z</time></trkpt><trkpt lat="59.1041349247" lon="30.4868409410"><ele>303.43</ele><time>2026-08-20T20:30:56Z</time></trkpt><trkpt lat="59.1041349247" lon="30.4868409410"><ele>303.43</ele><time>2026-08-20T20:30:57Z</time></trkpt><trkpt lat="59.1041349247" lon="30.4868409410"><ele>303.43</ele><time>2026-08-20T20:30:58Z</time></trkpt><trkpt lat="59.1041349247" lon="30.4868409410"><ele>303.43</ele><time>2026-08-20T20:30:59Z</time></trkpt><trkpt lat="59.1041349247" lon="30.4868409410"><ele>303.43</ele><time>2026-08-20T20:31:00Z</time></trkpt><trkpt lat="59.1041349247" lon="30.4868409410"><ele>303.43</ele><time>2026-08-20T20:31:01Z</time></trkpt><trkpt lat="59.1041349247" lon="30.4868409410"><ele>303.43</ele><time>2026-08-20T20:31:02Z</time></trkpt><trkpt lat="59.1041349247" lon="30.4868409410"><ele>303.43</ele><time>2026-08-20T20:31:03Z</time></trkpt><trkpt lat="59.1041349247" lon="30.4868409410"><ele>303.43</ele><time>2026-08-20T20:31:04Z</time></trkpt><trkpt lat="59.1041349247" lon="30.4868409410"><ele>303.43</ele><time>2026-08-20T20:31:05Z</time></trkpt><trkpt lat="59.1041349247" lon="30.4868409410"><ele>303.43</ele><time>2026-08-20T20:31:06Z</time></trkpt><trkpt lat="59.1041349247" lon="30.4868409410"><ele>303.43</ele><time>2026-08-20T20:31:07Z</time></trkpt><trkpt lat="59.1041349247" lon="30.4868409410"><ele>303.43</ele><time>2026-08-20T20:31:08Z</time></trkpt><trkpt lat="59.1041349247" lon="30.4868409410"><ele>303.43</ele><time>2026-08-20T20:31:09Z</time></trkpt><trkpt lat="59.1041349247" lon="30.4868409410"><ele>303.43</ele><time>2026-08-20T20:31:10Z</time></trkpt><trkpt lat="59.1041349247" lon="30.4868409410"><ele>303.43</ele><time>2026-08-20T20:31:11Z</time></trkpt><trkpt lat="59.1041349247" lon="30.4868409410"><ele>303.43</ele><time>2026-08-20T20:31:12Z</time></trkpt><trkpt lat="59.1041349247" lon="30.4868409410"><ele>303.43</ele><time>2026-08-20T20:31:13Z</time></trkpt><trkpt lat="59.1041349247" lon="30.4868409410"><ele>303.43</ele><time>2026-08-20T20:31:14Z</time></trkpt><trkpt lat="59.1041349247" lon="30.4868409410"><ele>303.43</ele><time>2026-08-20T20:31:15Z</time></trkpt><trkpt lat="59.1041349247" lon="30.4868409410"><ele>303.43</ele><time>2026-08-20T20:31:16Z</time></trkpt><trkpt lat="59.1041349247" lon="30.4868409410"><ele>303.43</ele><time>2026-08-20T20:31:17Z</time></trkpt><trkpt lat="59.1041349247" lon="30.4868409410"><ele>303.43</ele><time>2026-08-20T20:31:18Z</time></trkpt><trkpt lat="59.1041349247" lon="30.4868409410"><ele>303.43</ele><time>2026-08-20T20:31:19Z</time></trkpt><trkpt lat="59.1041349247" lon="30.4868409410"><ele>303.43</ele><time>2026-08-20T20:31:20Z</time></trkpt><trkpt lat="59.1041349247" lon="30.4868409410"><ele>303.43</ele><time>2026-08-20T20:31:21Z</time></trkpt><trkpt lat="59.1041349247" lon="30.4868409410"><ele>303.43</ele><time>2026-08-20T20:31:22Z</time></trkpt><trkpt lat="59.1041349247" lon="30.4868409410"><ele>303.43</ele><time>2026-08-20T20:31:23Z</time></trkpt><trkpt lat="59.1041349247" lon="30.4868409410"><ele>303.43</ele><time>2026-08-20T20:31:24Z</time></trkpt><trkpt lat="59.1041349247" lon="30.4868409410"><ele>303.43</ele><time>2026-08-20T20:31:25Z</time></trkpt><trkpt lat="59.1041349247" lon="30.4868409410"><ele>303.43</ele><time>2026-08-20T20:31:26Z</time></trkpt><trkpt lat="59.1041349247" lon="30.4868409410"><ele>303.43</ele><time>2026-08-20T20:31:27Z</time></trkpt><trkpt lat="59.1041349247" lon="30.4868409410"><ele>303.43</ele><time>2026-08-20T20:31:28Z</time></trkpt><trkpt lat="59.1041349247" lon="30.4868409410"><ele>303.43</ele><time>2026-08-20T20:31:29Z</time></trkpt><trkpt lat="59.1041349247" lon="30.4868409410"><ele>303.43</ele><time>2026-08-20T20:31:30Z</time></trkpt><trkpt lat="59.1041349247" lon="30.4868409410"><ele>303.43</ele><time>2026-08-20T20:31:31Z</time></trkpt><trkpt lat="59.1041349247" lon="30.4868409410"><ele>303.43</ele><time>2026-08-20T20:31:32Z</time></trkpt><trkpt lat="59.1041349247" lon="30.4868409410"><ele>303.43</ele><time>2026-08-20T20:31:33Z</time></trkpt><trkpt lat="59.1041349247" lon="30.4868409410"><ele>303.43</ele><time>2026-08-20T20:31:34Z</time></trkpt><trkpt lat="59.1041349247" lon="30.4868409410"><ele>303.43</ele><time>2026-08-20T20:31:35Z</time></trkpt><trkpt lat="59.1041349247" lon="30.4868409410"><ele>303.43</ele><time>2026-08-20T20:31:36Z</time></trkpt><trkpt lat="59.1041349247" lon="30.4868409410"><ele>303.43</ele><time>2026-08-20T20:31:37Z</time></trkpt><trkpt lat="59.1041349247" lon="30.4868409410"><ele>303.43</ele><time>2026-08-20T20:31:38Z</time></trkpt><trkpt lat="59.1041349247" lon="30.4868409410"><ele>303.43</ele><time>2026-08-20T20:31:39Z</time></trkpt><trkpt lat="59.1041349247" lon="30.4868409410"><ele>303.43</ele><time>2026-08-20T20:31:40Z</time></trkpt><trkpt lat="59.1041349247" lon="30.4868409410"><ele>303.43</ele><time>2026-08-20T20:31:41Z</time></trkpt><trkpt lat="59.1041349247" lon="30.4868409410"><ele>303.43</ele><time>2026-08-20T20:31:42Z</time></trkpt><trkpt lat="59.1041349247" lon="30.4868409410"><ele>303.43</ele><time>2026-08-20T20:31:43Z</time></trkpt><trkpt lat="59.1041349247" lon="30.4868409410"><ele>303.43</ele><time>2026-08-20T20:31:44Z</time></trkpt><trkpt lat="59.1041349247" lon="30.4868409410"><ele>303.43</ele><time>2026-08-20T20:31:45Z</time></trkpt><trkpt lat="59.1041349247" lon="30.4868409410"><ele>303.43</ele><time>2026-08-20T20:31:46Z</time></trkpt><trkpt lat="59.1041349247" lon="30.4868409410"><ele>303.43</ele><time>2026-08-20T20:31:47Z</time></trkpt><trkpt lat="59.1041349247" lon="30.4868409410"><ele>303.43</ele><time>2026-08-20T20:31:48Z</time></trkpt><trkpt lat="59.1041349247" lon="30.4868409410"><ele>303.43</ele><time>2026-08-20T20:31:49Z</time></trkpt><trkpt lat="59.1041349247" lon="30.4868409410"><ele>303.43</ele><time>2026-08-20T20:31:50Z</time></trkpt><trkpt lat="59.1041349247" lon="30.4868409410"><ele>303.43</ele><time>2026-08-20T20:31:51Z</time></trkpt><trkpt lat="59.1041349247" lon="30.4868409410"><ele>303.43</ele><time>2026-08-20T20:31:52Z</time></trkpt><trkpt lat="59.1041349247" lon="30.4868409410"><ele>303.43</ele><time>2026-08-20T20:31:53Z</time></trkpt><trkpt lat="59.1041349247" lon="30.4868409410"><ele>303.43</ele><time>2026-08-20T20:31:54Z</time></trkpt><trkpt lat="59.1041349247" lon="30.4868409410"><ele>303.43</ele><time>2026-08-20T20:31:55Z</time></trkpt><trkpt lat="59.1041349247" lon="30.4868409410"><ele>303.43</ele><time>2026-08-20T20:31:56Z</time></trkpt><trkpt lat="59.1041349247" lon="30.4868409410"><ele>303.43</ele><time>2026-08-20T20:31:57Z</time></trkpt><trkpt lat="59.1041349247" lon="30.4868409410"><ele>303.43</ele><time>2026-08-20T20:31:58Z</time></trkpt><trkpt lat="59.1041349247" lon="30.4868409410"><ele>303.43</ele><time>2026-08-20T20:31:59Z</time></trkpt><trkpt lat="59.1041349247" lon="30.4868409410"><ele>303.43</ele><time>2026-08-20T20:32:00Z</time></trkpt><trkpt lat="59.1041349247" lon="30.4868409410"><ele>303.43</ele><time>2026-08-20T20:32:01Z</time></trkpt><trkpt lat="59.1041349247" lon="30.4868409410"><ele>303.43</ele><time>2026-08-20T20:32:02Z</time></trkpt><trkpt lat="59.1041349247" lon="30.4868409410"><ele>303.43</ele><time>2026-08-20T20:32:03Z</time></trkpt><trkpt lat="59.1041349247" lon="30.4868409410"><ele>303.43</ele><time>2026-08-20T20:32:04Z</time></trkpt><trkpt lat="59.1041349247" lon="30.4868409410"><ele>303.43</ele><time>2026-08-20T20:32:05Z</time></trkpt><trkpt lat="59.1041349247" lon="30.4868409410"><ele>303.43</ele><time>2026-08-20T20:32:06Z</time></trkpt><trkpt lat="59.1041349247" lon="30.4868409410"><ele>303.43</ele><time>2026-08-20T20:32:07Z</time></trkpt><trkpt lat="59.1041349247" lon="30.4868409410"><ele>303.43</ele><time>2026-08-20T20:32:08Z</time></trkpt><trkpt lat="59.1041349247" lon="30.4868409410"><ele>303.43</ele><time>2026-08-20T20:32:09Z</time></trkpt><trkpt lat="59.1041349247" lon="30.4868409410"><ele>303.43</ele><time>2026-08-20T20:32:10Z</time></trkpt><trkpt lat="59.1041349247" lon="30.4868409410"><ele>303.43</ele><time>2026-08-20T20:32:11Z</time></trkpt><trkpt lat="59.1041349247" lon="30.4868409410"><ele>303.43</ele><time>2026-08-20T20:32:12Z</time></trkpt><trkpt lat="59.1041349247" lon="30.4868409410"><ele>303.43</ele><time>2026-08-20T20:32:13Z</time></trkpt><trkpt lat="59.1041349247" lon="30.4868409410"><ele>303.43</ele><time>2026-08-20T20:32:14Z</time></trkpt><trkpt lat="59.1041349247" lon="30.4868409410"><ele>303.43</ele><time>2026-08-20T20:32:15Z</time></trkpt><trkpt lat="59.1041349247" lon="30.4868409410"><ele>303.43</ele><time>2026-08-20T20:32:16Z</time></trkpt><trkpt lat="59.1041349247" lon="30.4868409410"><ele>303.43</ele><time>2026-08-20T20:32:17Z</time></trkpt><trkpt lat="59.1041349247" lon="30.4868409410"><ele>303.43</ele><time>2026-08-20T20:32:18Z</time></trkpt><trkpt lat="59.1041349247" lon="30.4868409410"><ele>303.43</ele><time>2026-08-20T20:32:19Z</time></trkpt><trkpt lat="59.1041349247" lon="30.4868409410"><ele>303.43</ele><time>2026-08-20T20:32:20Z</time></trkpt><trkpt lat="59.1041349247" lon="30.4868409410"><ele>303.43</ele><time>2026-08-20T20:32:21Z</time></trkpt><trkpt lat="59.1041349247" lon="30.4868409410"><ele>303.43</ele><time>2026-08-20T20:32:22Z</time></trkpt><trkpt lat="59.1041349247" lon="30.4868409410"><ele>303.43</ele><time>2026-08-20T20:32:23Z</time></trkpt><trkpt lat="59.1041349247" lon="30.4868409410"><ele>303.43</ele><time>2026-08-20T20:32:24Z</time></trkpt><trkpt lat="59.1041349247" lon="30.4868409410"><ele>303.43</ele><time>2026-08-20T20:32:25Z</time></trkpt><trkpt lat="59.1041349247" lon="30.4868409410"><ele>303.43</ele><time>2026-08-20T20:32:26Z</time></trkpt><trkpt lat="59.1041349247" lon="30.4868409410"><ele>303.43</ele><time>2026-08-20T20:32:27Z</time></trkpt><trkpt lat="59.1041349247" lon="30.4868409410"><ele>303.43</ele><time>2026-08-20T20:32:28Z</time></trkpt><trkpt lat="59.1041349247" lon="30.4868409410"><ele>303.43</ele><time>2026-08-20T20:32:29Z</time></trkpt><trkpt lat="59.1041349247" lon="30.4868409410"><ele>303.43</ele><time>2026-08-20T20:32:30Z</time></trkpt><trkpt lat="59.1041349247" lon="30.4868409410"><ele>303.43</ele><time>2026-08-20T20:32:31Z</time></trkpt><trkpt lat="59.1041349247" lon="30.4868409410"><ele>303.43</ele><time>2026-08-20T20:32:32Z</time></trkpt><trkpt lat="59.1041349247" lon="30.4868409410"><ele>303.43</ele><time>2026-08-20T20:32:33Z</time></trkpt><trkpt lat="59.1041349247" lon="30.4868409410"><ele>303.43</ele><time>2026-08-20T20:32:34Z</time></trkpt><trkpt lat="59.1041349247" lon="30.4868409410"><ele>303.43</ele><time>2026-08-20T20:32:35Z</time></trkpt><trkpt lat="59.1041349247" lon="30.4868409410"><ele>303.43</ele><time>2026-08-20T20:32:36Z</time></trkpt><trkpt lat="59.1041349247" lon="30.4868409410"><ele>303.43</ele><time>2026-08-20T20:32:37Z</time></trkpt><trkpt lat="59.1041349247" lon="30.4868409410"><ele>303.43</ele><time>2026-08-20T20:32:38Z</time></trkpt><trkpt lat="59.1041349247" lon="30.4868409410"><ele>303.43</ele><time>2026-08-20T20:32:39Z</time></trkpt><trkpt lat="59.1041349247" lon="30.4868409410"><ele>303.43</ele><time>2026-08-20T20:32:40Z</time></trkpt><trkpt lat="59.1041349247" lon="30.4868409410"><ele>303.43</ele><time>2026-08-20T20:32:41Z</time></trkpt><trkpt lat="59.1041349247" lon="30.4868409410"><ele>303.43</ele><time>2026-08-20T20:32:42Z</time></trkpt><trkpt lat="59.1041349247" lon="30.4868409410"><ele>303.43</ele><time>2026-08-20T20:32:43Z</time></trkpt><trkpt lat="59.1041349247" lon="30.4868409410"><ele>303.43</ele><time>2026-08-20T20:32:44Z</time></trkpt><trkpt lat="59.1041349247" lon="30.4868409410"><ele>303.43</ele><time>2026-08-20T20:32:45Z</time></trkpt><trkpt lat="59.1041349247" lon="30.4868409410"><ele>303.43</ele><time>2026-08-20T20:32:46Z</time></trkpt><trkpt lat="59.1041349247" lon="30.4868409410"><ele>303.43</ele><time>2026-08-20T20:32:47Z</time></trkpt><trkpt lat="59.1041349247" lon="30.4868409410"><ele>303.43</ele><time>2026-08-20T20:32:48Z</time></trkpt><trkpt lat="59.1041349247" lon="30.4868409410"><ele>303.43</ele><time>2026-08-20T20:32:49Z</time></trkpt><trkpt lat="59.1041349247" lon="30.4868409410"><ele>303.43</ele><time>2026-08-20T20:32:50Z</time></trkpt><trkpt lat="59.1041349247" lon="30.4868409410"><ele>303.43</ele><time>2026-08-20T20:32:51Z</time></trkpt><trkpt lat="59.1041349247" lon="30.4868409410"><ele>303.43</ele><time>2026-08-20T20:32:52Z</time></trkpt><trkpt lat="59.1041349247" lon="30.4868409410"><ele>303.43</ele><time>2026-08-20T20:32:53Z</time></trkpt><trkpt lat="59.1041349247" lon="30.4868409410"><ele>303.43</ele><time>2026-08-20T20:32:54Z</time></trkpt><trkpt lat="59.1041349247" lon="30.4868409410"><ele>303.43</ele><time>2026-08-20T20:32:55Z</time></trkpt><trkpt lat="59.1041349247" lon="30.4868409410"><ele>303.43</ele><time>2026-08-20T20:32:56Z</time></trkpt><trkpt lat="59.1041349247" lon="30.4868409410"><ele>303.43</ele><time>2026-08-20T20:32:57Z</time></trkpt><trkpt lat="59.1041349247" lon="30.4868409410"><ele>303.43</ele><time>2026-08-20T20:32:58Z</time></trkpt><trkpt lat="59.1041349247" lon="30.4868409410"><ele>303.43</ele><time>2026-08-20T20:32:59Z</time></trkpt><trkpt lat="59.1041349247" lon="30.4868409410"><ele>303.43</ele><time>2026-08-20T20:33:00Z</time></trkpt><trkpt lat="59.1041349247" lon="30.4868409410"><ele>303.43</ele><time>2026-08-20T20:33:01Z</time></trkpt><trkpt lat="59.1041349247" lon="30.4868409410"><ele>303.43</ele><time>2026-08-20T20:33:02Z</time></trkpt><trkpt lat="59.1041349247" lon="30.4868409410"><ele>303.43</ele><time>2026-08-20T20:33:03Z</time></trkpt><trkpt lat="59.1041349247" lon="30.4868409410"><ele>303.43</ele><time>2026-08-20T20:33:04Z</time></trkpt><trkpt lat="59.1041349247" lon="30.4868409410"><ele>303.43</ele><time>2026-08-20T20:33:05Z</time></trkpt><trkpt lat="59.1041349247" lon="30.4868409410"><ele>303.43</ele><time>2026-08-20T20:33:06Z</time></trkpt><trkpt lat="59.1041349247" lon="30.4868409410"><ele>303.43</ele><time>2026-08-20T20:33:07Z</time></trkpt><trkpt lat="59.1041349247" lon="30.4868409410"><ele>303.43</ele><time>2026-08-20T20:33:08Z</time></trkpt><trkpt lat="59.1041349247" lon="30.4868409410"><ele>303.43</ele><time>2026-08-20T20:33:09Z</time></trkpt><trkpt lat="59.1041349247" lon="30.4868409410"><ele>303.43</ele><time>2026-08-20T20:33:10Z</time></trkpt><trkpt lat="59.1041349247" lon="30.4868409410"><ele>303.43</ele><time>2026-08-20T20:33:11Z</time></trkpt><trkpt lat="59.1041349247" lon="30.4868409410"><ele>303.43</ele><time>2026-08-20T20:33:12Z</time></trkpt><trkpt lat="59.1041349247" lon="30.4868409410"><ele>303.43</ele><time>2026-08-20T20:33:13Z</time></trkpt><trkpt lat="59.1041349247" lon="30.4868409410"><ele>303.43</ele><time>2026-08-20T20:33:14Z</time></trkpt><trkpt lat="59.1041349247" lon="30.4868409410"><ele>303.43</ele><time>2026-08-20T20:33:15Z</time></trkpt><trkpt lat="59.1041349247" lon="30.4868409410"><ele>303.43</ele><time>2026-08-20T20:33:16Z</time></trkpt><trkpt lat="59.1041349247" lon="30.4868409410"><ele>303.43</ele><time>2026-08-20T20:33:17Z</time></trkpt><trkpt lat="59.1041349247" lon="30.4868409410"><ele>303.43</ele><time>2026-08-20T20:33:18Z</time></trkpt><trkpt lat="59.1041349247" lon="30.4868409410"><ele>303.43</ele><time>2026-08-20T20:33:19Z</time></trkpt><trkpt lat="59.1041349247" lon="30.4868409410"><ele>303.43</ele><time>2026-08-20T20:33:20Z</time></trkpt><trkpt lat="59.1041349247" lon="30.4868409410"><ele>303.43</ele><time>2026-08-20T20:33:21Z</time></trkpt><trkpt lat="59.1041349247" lon="30.4868409410"><ele>303.43</ele><time>2026-08-20T20:33:22Z</time></trkpt><trkpt lat="59.1041349247" lon="30.4868409410"><ele>303.43</ele><time>2026-08-20T20:33:23Z</time></trkpt><trkpt lat="59.1041349247" lon="30.4868409410"><ele>303.43</ele><time>2026-08-20T20:33:24Z</time></trkpt><trkpt lat="59.1041349247" lon="30.4868409410"><ele>303.43</ele><time>2026-08-20T20:33:25Z</time></trkpt><trkpt lat="59.1041349247" lon="30.4868409410"><ele>303.43</ele><time>2026-08-20T20:33:26Z</time></trkpt><trkpt lat="59.1041349247" lon="30.4868409410"><ele>303.43</ele><time>2026-08-20T20:33:27Z</time></trkpt><trkpt lat="59.1041349247" lon="30.4868409410"><ele>303.43</ele><time>2026-08-20T20:33:28Z</time></trkpt><trkpt lat="59.1041349247" lon="30.4868409410"><ele>303.43</ele><time>2026-08-20T20:33:29Z</time></trkpt><trkpt lat="59.1041349247" lon="30.4868409410"><ele>303.43</ele><time>2026-08-20T20:33:30Z</time></trkpt><trkpt lat="59.1041349247" lon="30.4868409410"><ele>303.43</ele><time>2026-08-20T20:33:31Z</time></trkpt><trkpt lat="59.1041349247" lon="30.4868409410"><ele>303.43</ele><time>2026-08-20T20:33:32Z</time></trkpt><trkpt lat="59.1041349247" lon="30.4868409410"><ele>303.43</ele><time>2026-08-20T20:33:33Z</time></trkpt><trkpt lat="59.1041349247" lon="30.4868409410"><ele>303.43</ele><time>2026-08-20T20:33:34Z</time></trkpt><trkpt lat="59.1041349247" lon="30.4868409410"><ele>303.43</ele><time>2026-08-20T20:33:35Z</time></trkpt><trkpt lat="59.1041349247" lon="30.4868409410"><ele>303.43</ele><time>2026-08-20T20:33:36Z</time></trkpt><trkpt lat="59.1041349247" lon="30.4868409410"><ele>303.43</ele><time>2026-08-20T20:33:37Z</time></trkpt><trkpt lat="59.1041349247" lon="30.4868409410"><ele>303.43</ele><time>2026-08-20T20:33:38Z</time></trkpt><trkpt lat="59.1041349247" lon="30.4868409410"><ele>303.43</ele><time>2026-08-20T20:33:39Z</time></trkpt><trkpt lat="59.1041349247" lon="30.4868409410"><ele>303.43</ele><time>2026-08-20T20:33:40Z</time></trkpt><trkpt lat="59.1041349247" lon="30.4868409410"><ele>303.43</ele><time>2026-08-20T20:33:41Z</time></trkpt><trkpt lat="59.1041349247" lon="30.4868409410"><ele>303.43</ele><time>2026-08-20T20:33:42Z</time></trkpt><trkpt lat="59.1041349247" lon="30.4868409410"><ele>303.43</ele><time>2026-08-20T20:33:43Z</time></trkpt><trkpt lat="59.1041349247" lon="30.4868409410"><ele>303.43</ele><time>2026-08-20T20:33:44Z</time></trkpt><trkpt lat="59.1041349247" lon="30.4868409410"><ele>303.43</ele><time>2026-08-20T20:33:45Z</time></trkpt><trkpt lat="59.1041349247" lon="30.4868409410"><ele>303.43</ele><time>2026-08-20T20:33:46Z</time></trkpt><trkpt lat="59.1041349247" lon="30.4868409410"><ele>303.43</ele><time>2026-08-20T20:33:47Z</time></trkpt><trkpt lat="59.1041349247" lon="30.4868409410"><ele>303.43</ele><time>2026-08-20T20:33:48Z</time></trkpt><trkpt lat="59.1041349247" lon="30.4868409410"><ele>303.43</ele><time>2026-08-20T20:33:49Z</time></trkpt><trkpt lat="59.1041349247" lon="30.4868409410"><ele>303.43</ele><time>2026-08-20T20:33:50Z</time></trkpt><trkpt lat="59.1041349247" lon="30.4868409410"><ele>303.43</ele><time>2026-08-20T20:33:51Z</time></trkpt><trkpt lat="59.1041349247" lon="30.4868409410"><ele>303.43</ele><time>2026-08-20T20:33:52Z</time></trkpt><trkpt lat="59.1041349247" lon="30.4868409410"><ele>303.43</ele><time>2026-08-20T20:33:53Z</time></trkpt><trkpt lat="59.1041349247" lon="30.4868409410"><ele>303.43</ele><time>2026-08-20T20:33:54Z</time></trkpt><trkpt lat="59.1041349247" lon="30.4868409410"><ele>303.43</ele><time>2026-08-20T20:33:55Z</time></trkpt><trkpt lat="59.1041349247" lon="30.4868409410"><ele>303.43</ele><time>2026-08-20T20:33:56Z</time></trkpt><trkpt lat="59.1041349247" lon="30.4868409410"><ele>303.43</ele><time>2026-08-20T20:33:57Z</time></trkpt><trkpt lat="59.1041349247" lon="30.4868409410"><ele>303.43</ele><time>2026-08-20T20:33:58Z</time></trkpt><trkpt lat="59.1041349247" lon="30.4868409410"><ele>303.43</ele><time>2026-08-20T20:33:59Z</time></trkpt><trkpt lat="59.1041349247" lon="30.4868409410"><ele>303.43</ele><time>2026-08-20T20:34:00Z</time></trkpt><trkpt lat="59.1041349247" lon="30.4868409410"><ele>303.43</ele><time>2026-08-20T20:34:01Z</time></trkpt><trkpt lat="59.1041349247" lon="30.4868409410"><ele>303.43</ele><time>2026-08-20T20:34:02Z</time></trkpt><trkpt lat="59.1041349247" lon="30.4868409410"><ele>303.43</ele><time>2026-08-20T20:34:03Z</time></trkpt><trkpt lat="59.1041349247" lon="30.4868409410"><ele>303.43</ele><time>2026-08-20T20:34:04Z</time></trkpt><trkpt lat="59.1041349247" lon="30.4868409410"><ele>303.43</ele><time>2026-08-20T20:34:05Z</time></trkpt><trkpt lat="59.1041349247" lon="30.4868409410"><ele>303.43</ele><time>2026-08-20T20:34:06Z</time></trkpt><trkpt lat="59.1041349247" lon="30.4868409410"><ele>303.43</ele><time>2026-08-20T20:34:07Z</time></trkpt><trkpt lat="59.1041349247" lon="30.4868409410"><ele>303.43</ele><time>2026-08-20T20:34:08Z</time></trkpt><trkpt lat="59.1041349247" lon="30.4868409410"><ele>303.43</ele><time>2026-08-20T20:34:09Z</time></trkpt><trkpt lat="59.1041349247" lon="30.4868409410"><ele>303.43</ele><time>2026-08-20T20:34:10Z</time></trkpt><trkpt lat="59.1041349247" lon="30.4868409410"><ele>303.43</ele><time>2026-08-20T20:34:11Z</time></trkpt><trkpt lat="59.1041349247" lon="30.4868409410"><ele>303.43</ele><time>2026-08-20T20:34:12Z</time></trkpt><trkpt lat="59.1041349247" lon="30.4868409410"><ele>303.43</ele><time>2026-08-20T20:34:13Z</time></trkpt><trkpt lat="59.1041349247" lon="30.4868409410"><ele>303.43</ele><time>2026-08-20T20:34:14Z</time></trkpt><trkpt lat="59.1041349247" lon="30.4868409410"><ele>303.43</ele><time>2026-08-20T20:34:15Z</time></trkpt><trkpt lat="59.1041349247" lon="30.4868409410"><ele>303.43</ele><time>2026-08-20T20:34:16Z</time></trkpt><trkpt lat="59.1041349247" lon="30.4868409410"><ele>303.43</ele><time>2026-08-20T20:34:17Z</time></trkpt><trkpt lat="59.1041349247" lon="30.4868409410"><ele>303.43</ele><time>2026-08-20T20:34:18Z</time></trkpt><trkpt lat="59.1041349247" lon="30.4868409410"><ele>303.43</ele><time>2026-08-20T20:34:19Z</time></trkpt><trkpt lat="59.1041349247" lon="30.4868409410"><ele>303.43</ele><time>2026-08-20T20:34:20Z</time></trkpt><trkpt lat="59.1041349247" lon="30.4868409410"><ele>303.43</ele><time>2026-08-20T20:34:21Z</time></trkpt><trkpt lat="59.1041349247" lon="30.4868409410"><ele>303.43</ele><time>2026-08-20T20:34:22Z</time></trkpt><trkpt lat="59.1041349247" lon="30.4868409410"><ele>303.43</ele><time>2026-08-20T20:34:23Z</time></trkpt><trkpt lat="59.1041349247" lon="30.4868409410"><ele>303.43</ele><time>2026-08-20T20:34:24Z</time></trkpt><trkpt lat="59.1041349247" lon="30.4868409410"><ele>303.43</ele><time>2026-08-20T20:34:25Z</time></trkpt><trkpt lat="59.1041349247" lon="30.4868409410"><ele>303.43</ele><time>2026-08-20T20:34:26Z</time></trkpt><trkpt lat="59.1041349247" lon="30.4868409410"><ele>303.43</ele><time>2026-08-20T20:34:27Z</time></trkpt><trkpt lat="59.1041349247" lon="30.4868409410"><ele>303.43</ele><time>2026-08-20T20:34:28Z</time></trkpt><trkpt lat="59.1041349247" lon="30.4868409410"><ele>303.43</ele><time>2026-08-20T20:34:29Z</time></trkpt><trkpt lat="59.1041349247" lon="30.4868409410"><ele>303.43</ele><time>2026-08-20T20:34:30Z</time></trkpt><trkpt lat="59.1041349247" lon="30.4868409410"><ele>303.43</ele><time>2026-08-20T20:34:31Z</time></trkpt><trkpt lat="59.1041349247" lon="30.4868409410"><ele>303.43</ele><time>2026-08-20T20:34:32Z</time></trkpt><trkpt lat="59.1041349247" lon="30.4868409410"><ele>303.43</ele><time>2026-08-20T20:34:33Z</time></trkpt><trkpt lat="59.1041349247" lon="30.4868409410"><ele>303.43</ele><time>2026-08-20T20:34:34Z</time></trkpt><trkpt lat="59.1041349247" lon="30.4868409410"><ele>303.43</ele><time>2026-08-20T20:34:35Z</time></trkpt><trkpt lat="59.1041349247" lon="30.4868409410"><ele>303.43</ele><time>2026-08-20T20:34:36Z</time></trkpt><trkpt lat="59.1041349247" lon="30.4868409410"><ele>303.43</ele><time>2026-08-20T20:34:37Z</time></trkpt><trkpt lat="59.1041349247" lon="30.4868409410"><ele>303.43</ele><time>2026-08-20T20:34:38Z</time></trkpt><trkpt lat="59.1041349247" lon="30.4868409410"><ele>303.43</ele><time>2026-08-20T20:34:39Z</time></trkpt><trkpt lat="59.1041349247" lon="30.4868409410"><ele>303.43</ele><time>2026-08-20T20:34:40Z</time></trkpt><trkpt lat="59.1041349247" lon="30.4868409410"><ele>303.43</ele><time>2026-08-20T20:34:41Z</time></trkpt><trkpt lat="59.1041349247" lon="30.4868409410"><ele>303.43</ele><time>2026-08-20T20:34:42Z</time></trkpt><trkpt lat="59.1041349247" lon="30.4868409410"><ele>303.43</ele><time>2026-08-20T20:34:43Z</time></trkpt><trkpt lat="59.1041349247" lon="30.4868409410"><ele>303.43</ele><time>2026-08-20T20:34:44Z</time></trkpt><trkpt lat="59.1041349247" lon="30.4868409410"><ele>303.43</ele><time>2026-08-20T20:34:45Z</time></trkpt><trkpt lat="59.1041349247" lon="30.4868409410"><ele>303.43</ele><time>2026-08-20T20:34:46Z</time></trkpt><trkpt lat="59.1041349247" lon="30.4868409410"><ele>303.43</ele><time>2026-08-20T20:34:47Z</time></trkpt><trkpt lat="59.1041349247" lon="30.4868409410"><ele>303.43</ele><time>2026-08-20T20:34:48Z</time></trkpt><trkpt lat="59.1041349247" lon="30.4868409410"><ele>303.43</ele><time>2026-08-20T20:34:49Z</time></trkpt><trkpt lat="59.1041349247" lon="30.4868409410"><ele>303.43</ele><time>2026-08-20T20:34:50Z</time></trkpt><trkpt lat="59.1041349247" lon="30.4868409410"><ele>303.43</ele><time>2026-08-20T20:34:51Z</time></trkpt><trkpt lat="59.1041349247" lon="30.4868409410"><ele>303.43</ele><time>2026-08-20T20:34:52Z</time></trkpt><trkpt lat="59.1041349247" lon="30.4868409410"><ele>303.43</ele><time>2026-08-20T20:34:53Z</time></trkpt><trkpt lat="59.1041349247" lon="30.4868409410"><ele>303.43</ele><time>2026-08-20T20:34:54Z</time></trkpt><trkpt lat="59.1041349247" lon="30.4868409410"><ele>303.43</ele><time>2026-08-20T20:34:55Z</time></trkpt><trkpt lat="59.1041349247" lon="30.4868409410"><ele>303.43</ele><time>2026-08-20T20:34:56Z</time></trkpt><trkpt lat="59.1041349247" lon="30.4868409410"><ele>303.43</ele><time>2026-08-20T20:34:57Z</time></trkpt><trkpt lat="59.1041349247" lon="30.4868409410"><ele>303.43</ele><time>2026-08-20T20:34:58Z</time></trkpt><trkpt lat="59.1041349247" lon="30.4868409410"><ele>303.43</ele><time>2026-08-20T20:34:59Z</time></trkpt><trkpt lat="59.1041349247" lon="30.4868409410"><ele>303.43</ele><time>2026-08-20T20:35:00Z</time></trkpt><trkpt lat="59.1041349247" lon="30.4868409410"><ele>303.43</ele><time>2026-08-20T20:35:01Z</time></trkpt><trkpt lat="59.1041349247" lon="30.4868409410"><ele>303.43</ele><time>2026-08-20T20:35:02Z</time></trkpt><trkpt lat="59.1041349247" lon="30.4868409410"><ele>303.43</ele><time>2026-08-20T20:35:03Z</time></trkpt><trkpt lat="59.1041349247" lon="30.4868409410"><ele>303.43</ele><time>2026-08-20T20:35:04Z</time></trkpt><trkpt lat="59.1041349247" lon="30.4868409410"><ele>303.43</ele><time>2026-08-20T20:35:05Z</time></trkpt><trkpt lat="59.1041349247" lon="30.4868409410"><ele>303.43</ele><time>2026-08-20T20:35:06Z</time></trkpt><trkpt lat="59.1041349247" lon="30.4868409410"><ele>303.43</ele><time>2026-08-20T20:35:07Z</time></trkpt><trkpt lat="59.1041349247" lon="30.4868409410"><ele>303.43</ele><time>2026-08-20T20:35:08Z</time></trkpt><trkpt lat="59.1041349247" lon="30.4868409410"><ele>303.43</ele><time>2026-08-20T20:35:09Z</time></trkpt><trkpt lat="59.1041349247" lon="30.4868409410"><ele>303.43</ele><time>2026-08-20T20:35:10Z</time></trkpt><trkpt lat="59.1041349247" lon="30.4868409410"><ele>303.43</ele><time>2026-08-20T20:35:11Z</time></trkpt><trkpt lat="59.1041349247" lon="30.4868409410"><ele>303.43</ele><time>2026-08-20T20:35:12Z</time></trkpt><trkpt lat="59.1041349247" lon="30.4868409410"><ele>303.43</ele><time>2026-08-20T20:35:13Z</time></trkpt><trkpt lat="59.1041349247" lon="30.4868409410"><ele>303.43</ele><time>2026-08-20T20:35:14Z</time></trkpt><trkpt lat="59.1041349247" lon="30.4868409410"><ele>303.43</ele><time>2026-08-20T20:35:15Z</time></trkpt><trkpt lat="59.1041349247" lon="30.4868409410"><ele>303.43</ele><time>2026-08-20T20:35:16Z</time></trkpt><trkpt lat="59.1041349247" lon="30.4868409410"><ele>303.43</ele><time>2026-08-20T20:35:17Z</time></trkpt><trkpt lat="59.1041349247" lon="30.4868409410"><ele>303.43</ele><time>2026-08-20T20:35:18Z</time></trkpt><trkpt lat="59.1041349247" lon="30.4868409410"><ele>303.43</ele><time>2026-08-20T20:35:19Z</time></trkpt><trkpt lat="59.1041349247" lon="30.4868409410"><ele>303.43</ele><time>2026-08-20T20:35:20Z</time></trkpt><trkpt lat="59.1041349247" lon="30.4868409410"><ele>303.43</ele><time>2026-08-20T20:35:21Z</time></trkpt><trkpt lat="59.1041349247" lon="30.4868409410"><ele>303.43</ele><time>2026-08-20T20:35:22Z</time></trkpt><trkpt lat="59.1041349247" lon="30.4868409410"><ele>303.43</ele><time>2026-08-20T20:35:23Z</time></trkpt><trkpt lat="59.1041349247" lon="30.4868409410"><ele>303.43</ele><time>2026-08-20T20:35:24Z</time></trkpt><trkpt lat="59.1041349247" lon="30.4868409410"><ele>303.43</ele><time>2026-08-20T20:35:25Z</time></trkpt><trkpt lat="59.1041349247" lon="30.4868409410"><ele>303.43</ele><time>2026-08-20T20:35:26Z</time></trkpt><trkpt lat="59.1041349247" lon="30.4868409410"><ele>303.43</ele><time>2026-08-20T20:35:27Z</time></trkpt><trkpt lat="59.1041349247" lon="30.4868409410"><ele>303.43</ele><time>2026-08-20T20:35:28Z</time></trkpt><trkpt lat="59.1041349247" lon="30.4868409410"><ele>303.43</ele><time>2026-08-20T20:35:29Z</time></trkpt><trkpt lat="59.1041349247" lon="30.4868409410"><ele>303.43</ele><time>2026-08-20T20:35:30Z</time></trkpt><trkpt lat="59.1041349247" lon="30.4868409410"><ele>303.43</ele><time>2026-08-20T20:35:31Z</time></trkpt><trkpt lat="59.1041349247" lon="30.4868409410"><ele>303.43</ele><time>2026-08-20T20:35:32Z</time></trkpt><trkpt lat="59.1041349247" lon="30.4868409410"><ele>303.43</ele><time>2026-08-20T20:35:33Z</time></trkpt><trkpt lat="59.1041349247" lon="30.4868409410"><ele>303.43</ele><time>2026-08-20T20:35:34Z</time></trkpt><trkpt lat="59.1041349247" lon="30.4868409410"><ele>303.43</ele><time>2026-08-20T20:35:35Z</time></trkpt><trkpt lat="59.1041349247" lon="30.4868409410"><ele>303.43</ele><time>2026-08-20T20:35:36Z</time></trkpt><trkpt lat="59.1041349247" lon="30.4868409410"><ele>303.43</ele><time>2026-08-20T20:35:37Z</time></trkpt><trkpt lat="59.1041349247" lon="30.4868409410"><ele>303.43</ele><time>2026-08-20T20:35:38Z</time></trkpt><trkpt lat="59.1041349247" lon="30.4868409410"><ele>303.43</ele><time>2026-08-20T20:35:39Z</time></trkpt><trkpt lat="59.1041349247" lon="30.4868409410"><ele>303.43</ele><time>2026-08-20T20:35:40Z</time></trkpt><trkpt lat="59.1041349247" lon="30.4868409410"><ele>303.43</ele><time>2026-08-20T20:35:41Z</time></trkpt><trkpt lat="59.1041349247" lon="30.4868409410"><ele>303.43</ele><time>2026-08-20T20:35:42Z</time></trkpt><trkpt lat="59.1041349247" lon="30.4868409410"><ele>303.43</ele><time>2026-08-20T20:35:43Z</time></trkpt><trkpt lat="59.1041349247" lon="30.4868409410"><ele>303.43</ele><time>2026-08-20T20:35:44Z</time></trkpt><trkpt lat="59.1041349247" lon="30.4868409410"><ele>303.43</ele><time>2026-08-20T20:35:45Z</time></trkpt><trkpt lat="59.1041349247" lon="30.4868409410"><ele>303.43</ele><time>2026-08-20T20:35:46Z</time></trkpt><trkpt lat="59.1041349247" lon="30.4868409410"><ele>303.43</ele><time>2026-08-20T20:35:47Z</time></trkpt><trkpt lat="59.1041349247" lon="30.4868409410"><ele>303.43</ele><time>2026-08-20T20:35:48Z</time></trkpt><trkpt lat="59.1041349247" lon="30.4868409410"><ele>303.43</ele><time>2026-08-20T20:35:49Z</time></trkpt><trkpt lat="59.1041349247" lon="30.4868409410"><ele>303.43</ele><time>2026-08-20T20:35:50Z</time></trkpt><trkpt lat="59.1041349247" lon="30.4868409410"><ele>303.43</ele><time>2026-08-20T20:35:51Z</time></trkpt><trkpt lat="59.1041349247" lon="30.4868409410"><ele>303.43</ele><time>2026-08-20T20:35:52Z</time></trkpt><trkpt lat="59.1041349247" lon="30.4868409410"><ele>303.43</ele><time>2026-08-20T20:35:53Z</time></trkpt><trkpt lat="59.1041349247" lon="30.4868409410"><ele>303.43</ele><time>2026-08-20T20:35:54Z</time></trkpt><trkpt lat="59.1041349247" lon="30.4868409410"><ele>303.43</ele><time>2026-08-20T20:35:55Z</time></trkpt><trkpt lat="59.1041349247" lon="30.4868409410"><ele>303.43</ele><time>2026-08-20T20:35:56Z</time></trkpt><trkpt lat="59.1041349247" lon="30.4868409410"><ele>303.43</ele><time>2026-08-20T20:35:57Z</time></trkpt><trkpt lat="59.1041349247" lon="30.4868409410"><ele>303.43</ele><time>2026-08-20T20:35:58Z</time></trkpt><trkpt lat="59.1041349247" lon="30.4868409410"><ele>303.43</ele><time>2026-08-20T20:35:59Z</time></trkpt><trkpt lat="59.1041349247" lon="30.4868409410"><ele>303.43</ele><time>2026-08-20T20:36:00Z</time></trkpt><trkpt lat="59.1041349247" lon="30.4868409410"><ele>303.91</ele><time>2026-08-20T20:36:01Z</time></trkpt><trkpt lat="59.1041349247" lon="30.4868409410"><ele>303.91</ele><time>2026-08-20T20:36:02Z</time></trkpt><trkpt lat="59.1041349247" lon="30.4868409410"><ele>303.91</ele><time>2026-08-20T20:36:03Z</time></trkpt><trkpt lat="59.1041349247" lon="30.4868409410"><ele>303.91</ele><time>2026-08-20T20:36:04Z</time></trkpt><trkpt lat="59.1041349247" lon="30.4868409410"><ele>303.91</ele><time>2026-08-20T20:36:05Z</time></trkpt><trkpt lat="59.1041349247" lon="30.4868409410"><ele>303.91</ele><time>2026-08-20T20:36:06Z</time></trkpt><trkpt lat="59.1041349247" lon="30.4868409410"><ele>303.91</ele><time>2026-08-20T20:36:07Z</time></trkpt><trkpt lat="59.1041349247" lon="30.4868409410"><ele>303.91</ele><time>2026-08-20T20:36:08Z</time></trkpt><trkpt lat="59.1041349247" lon="30.4868409410"><ele>303.91</ele><time>2026-08-20T20:36:09Z</time></trkpt><trkpt lat="59.1041349247" lon="30.4868409410"><ele>303.91</ele><time>2026-08-20T20:36:10Z</time></trkpt><trkpt lat="59.1041349247" lon="30.4868409410"><ele>303.91</ele><time>2026-08-20T20:36:11Z</time></trkpt><trkpt lat="59.1041349247" lon="30.4868409410"><ele>303.91</ele><time>2026-08-20T20:36:12Z</time></trkpt><trkpt lat="59.1041349247" lon="30.4868409410"><ele>303.91</ele><time>2026-08-20T20:36:13Z</time></trkpt><trkpt lat="59.1041349247" lon="30.4868409410"><ele>304.39</ele><time>2026-08-20T20:36:14Z</time></trkpt><trkpt lat="59.1041349247" lon="30.4868409410"><ele>304.39</ele><time>2026-08-20T20:36:15Z</time></trkpt><trkpt lat="59.1041349247" lon="30.4868409410"><ele>304.39</ele><time>2026-08-20T20:36:16Z</time></trkpt><trkpt lat="59.1041349247" lon="30.4868409410"><ele>304.39</ele><time>2026-08-20T20:36:17Z</time></trkpt><trkpt lat="59.1041349247" lon="30.4868409410"><ele>304.39</ele><time>2026-08-20T20:36:18Z</time></trkpt><trkpt lat="59.1041349247" lon="30.4868409410"><ele>304.39</ele><time>2026-08-20T20:36:19Z</time></trkpt><trkpt lat="59.1041349247" lon="30.4868409410"><ele>304.39</ele><time>2026-08-20T20:36:20Z</time></trkpt><trkpt lat="59.1041349247" lon="30.4868409410"><ele>304.39</ele><time>2026-08-20T20:36:21Z</time></trkpt><trkpt lat="59.1041349247" lon="30.4868409410"><ele>304.39</ele><time>2026-08-20T20:36:22Z</time></trkpt><trkpt lat="59.1041349247" lon="30.4868409410"><ele>304.39</ele><time>2026-08-20T20:36:23Z</time></trkpt><trkpt lat="59.1041349247" lon="30.4868409410"><ele>304.39</ele><time>2026-08-20T20:36:24Z</time></trkpt><trkpt lat="59.1041349247" lon="30.4868409410"><ele>304.39</ele><time>2026-08-20T20:36:25Z</time></trkpt><trkpt lat="59.1041349247" lon="30.4868409410"><ele>304.39</ele><time>2026-08-20T20:36:26Z</time></trkpt><trkpt lat="59.1041349247" lon="30.4868409410"><ele>304.39</ele><time>2026-08-20T20:36:27Z</time></trkpt><trkpt lat="59.1041349247" lon="30.4868409410"><ele>304.39</ele><time>2026-08-20T20:36:28Z</time></trkpt><trkpt lat="59.1041349247" lon="30.4868409410"><ele>304.39</ele><time>2026-08-20T20:36:29Z</time></trkpt><trkpt lat="59.1041349247" lon="30.4868409410"><ele>304.39</ele><time>2026-08-20T20:36:30Z</time></trkpt><trkpt lat="59.1041349247" lon="30.4868409410"><ele>304.39</ele><time>2026-08-20T20:36:31Z</time></trkpt><trkpt lat="59.1041349247" lon="30.4868409410"><ele>304.39</ele><time>2026-08-20T20:36:32Z</time></trkpt><trkpt lat="59.1041349247" lon="30.4868409410"><ele>304.39</ele><time>2026-08-20T20:36:33Z</time></trkpt><trkpt lat="59.1041349247" lon="30.4868409410"><ele>304.39</ele><time>2026-08-20T20:36:34Z</time></trkpt><trkpt lat="59.1041323263" lon="30.4868412763"><ele>304.39</ele><time>2026-08-20T20:36:35Z</time></trkpt><trkpt lat="59.1041240282" lon="30.4868473951"><ele>304.39</ele><time>2026-08-20T20:36:36Z</time></trkpt><trkpt lat="59.1041160654" lon="30.4868485685"><ele>304.39</ele><time>2026-08-20T20:36:37Z</time></trkpt><trkpt lat="59.1041099466" lon="30.4868546873"><ele>304.39</ele><time>2026-08-20T20:36:38Z</time></trkpt><trkpt lat="59.1041056719" lon="30.4868631531"><ele>304.39</ele><time>2026-08-20T20:36:39Z</time></trkpt><trkpt lat="59.1041003913" lon="30.4868718702"><ele>304.39</ele><time>2026-08-20T20:36:40Z</time></trkpt><trkpt lat="59.1040959489" lon="30.4868752230"><ele>304.39</ele><time>2026-08-20T20:36:41Z</time></trkpt><trkpt lat="59.1040891595" lon="30.4868801683"><ele>304.39</ele><time>2026-08-20T20:36:42Z</time></trkpt><trkpt lat="59.1040843818" lon="30.4868880473"><ele>304.39</ele><time>2026-08-20T20:36:43Z</time></trkpt><trkpt lat="59.1040787660" lon="30.4868939985"><ele>304.39</ele><time>2026-08-20T20:36:44Z</time></trkpt><trkpt lat="59.1040727310" lon="30.4868976865"><ele>304.39</ele><time>2026-08-20T20:36:45Z</time></trkpt><trkpt lat="59.1040657740" lon="30.4869010393"><ele>304.39</ele><time>2026-08-20T20:36:46Z</time></trkpt><trkpt lat="59.1040594876" lon="30.4869069904"><ele>304.39</ele><time>2026-08-20T20:36:47Z</time></trkpt><trkpt lat="59.1040544584" lon="30.4869153723"><ele>304.39</ele><time>2026-08-20T20:36:48Z</time></trkpt><trkpt lat="59.1040480882" lon="30.4869236704"><ele>304.39</ele><time>2026-08-20T20:36:49Z</time></trkpt><trkpt lat="59.1040411312" lon="30.4869291186"><ele>304.39</ele><time>2026-08-20T20:36:50Z</time></trkpt><trkpt lat="59.1040331684" lon="30.4869357403"><ele>304.39</ele><time>2026-08-20T20:36:51Z</time></trkpt><trkpt lat="59.1040250380" lon="30.4869456310"><ele>304.39</ele><time>2026-08-20T20:36:52Z</time></trkpt><trkpt lat="59.1040178295" lon="30.4869536776"><ele>304.39</ele><time>2026-08-20T20:36:53Z</time></trkpt><trkpt lat="59.1040118784" lon="30.4869616404"><ele>304.39</ele><time>2026-08-20T20:36:54Z</time></trkpt><trkpt lat="59.1040040832" lon="30.4869681783"><ele>304.39</ele><time>2026-08-20T20:36:55Z</time></trkpt><trkpt lat="59.1039973777" lon="30.4869652446"><ele>304.39</ele><time>2026-08-20T20:36:56Z</time></trkpt><trkpt lat="59.1039902531" lon="30.4869606346"><ele>304.39</ele><time>2026-08-20T20:36:57Z</time></trkpt><trkpt lat="59.1039834637" lon="30.4869576171"><ele>304.39</ele><time>2026-08-20T20:36:58Z</time></trkpt><trkpt lat="59.1039770935" lon="30.4869514983"><ele>304.39</ele><time>2026-08-20T20:36:59Z</time></trkpt><trkpt lat="59.1039691307" lon="30.4869471397"><ele>304.39</ele><time>2026-08-20T20:37:00Z</time></trkpt><trkpt lat="59.1039615870" lon="30.4869398475"><ele>304.39</ele><time>2026-08-20T20:37:01Z</time></trkpt><trkpt lat="59.1039535403" lon="30.4869337287"><ele>304.39</ele><time>2026-08-20T20:37:02Z</time></trkpt><trkpt lat="59.1039561387" lon="30.4869362433"><ele>304.39</ele><time>2026-08-20T20:37:03Z</time></trkpt><trkpt lat="59.1039500199" lon="30.4869343992"><ele>304.39</ele><time>2026-08-20T20:37:04Z</time></trkpt><trkpt lat="59.1039482597" lon="30.4869350698"><ele>304.39</ele><time>2026-08-20T20:37:05Z</time></trkpt><trkpt lat="59.1039458290" lon="30.4869361594"><ele>304.39</ele><time>2026-08-20T20:37:06Z</time></trkpt><trkpt lat="59.1039458290" lon="30.4869361594"><ele>304.39</ele><time>2026-08-20T20:37:07Z</time></trkpt><trkpt lat="59.1039278917" lon="30.4869437870"><ele>304.39</ele><time>2026-08-20T20:37:08Z</time></trkpt><trkpt lat="59.1039207671" lon="30.4869498219"><ele>304.39</ele><time>2026-08-20T20:37:09Z</time></trkpt><trkpt lat="59.1039109603" lon="30.4869569466"><ele>304.39</ele><time>2026-08-20T20:37:10Z</time></trkpt><trkpt lat="59.1039021593" lon="30.4869660828"><ele>304.39</ele><time>2026-08-20T20:37:11Z</time></trkpt><trkpt lat="59.1038920172" lon="30.4869850259"><ele>304.39</ele><time>2026-08-20T20:37:12Z</time></trkpt><trkpt lat="59.1038826294" lon="30.4869982693"><ele>304.39</ele><time>2026-08-20T20:37:13Z</time></trkpt><trkpt lat="59.1038730741" lon="30.4870110936"><ele>304.39</ele><time>2026-08-20T20:37:14Z</time></trkpt><trkpt lat="59.1038641892" lon="30.4870233312"><ele>304.39</ele><time>2026-08-20T20:37:15Z</time></trkpt><trkpt lat="59.1038575675" lon="30.4870372452"><ele>304.39</ele><time>2026-08-20T20:37:16Z</time></trkpt><trkpt lat="59.1038508620" lon="30.4870500695"><ele>304.39</ele><time>2026-08-20T20:37:17Z</time></trkpt><trkpt lat="59.1038434859" lon="30.4870623909"><ele>304.39</ele><time>2026-08-20T20:37:18Z</time></trkpt><trkpt lat="59.1038357746" lon="30.4870768916"><ele>304.39</ele><time>2026-08-20T20:37:19Z</time></trkpt><trkpt lat="59.1038272250" lon="30.4870853573"><ele>304.39</ele><time>2026-08-20T20:37:20Z</time></trkpt><trkpt lat="59.1038209386" lon="30.4870913923"><ele>304.39</ele><time>2026-08-20T20:37:21Z</time></trkpt><trkpt lat="59.1038153227" lon="30.4870959185"><ele>304.39</ele><time>2026-08-20T20:37:22Z</time></trkpt><trkpt lat="59.1038059350" lon="30.4871038813"><ele>304.39</ele><time>2026-08-20T20:37:23Z</time></trkpt><trkpt lat="59.1037983913" lon="30.4871099163"><ele>304.39</ele><time>2026-08-20T20:37:24Z</time></trkpt><trkpt lat="59.1037902609" lon="30.4871100839"><ele>304.39</ele><time>2026-08-20T20:37:25Z</time></trkpt><trkpt lat="59.1037849803" lon="30.4871087428"><ele>304.39</ele><time>2026-08-20T20:37:26Z</time></trkpt><trkpt lat="59.1037763469" lon="30.4871078208"><ele>304.39</ele><time>2026-08-20T20:37:27Z</time></trkpt><trkpt lat="59.1037661210" lon="30.4871067312"><ele>304.39</ele><time>2026-08-20T20:37:28Z</time></trkpt><trkpt lat="59.1037556436" lon="30.4871038813"><ele>304.39</ele><time>2026-08-20T20:37:29Z</time></trkpt><trkpt lat="59.1037450824" lon="30.4870999418"><ele>304.39</ele><time>2026-08-20T20:37:30Z</time></trkpt><trkpt lat="59.1037303302" lon="30.4870959185"><ele>304.39</ele><time>2026-08-20T20:37:31Z</time></trkpt><trkpt lat="59.1037203558" lon="30.4870941583"><ele>304.39</ele><time>2026-08-20T20:37:32Z</time></trkpt><trkpt lat="59.1037125606" lon="30.4870956670"><ele>304.39</ele><time>2026-08-20T20:37:33Z</time></trkpt><trkpt lat="59.1037045978" lon="30.4870986845"><ele>304.39</ele><time>2026-08-20T20:37:34Z</time></trkpt><trkpt lat="59.1036927793" lon="30.4870971758"><ele>304.39</ele><time>2026-08-20T20:37:35Z</time></trkpt><trkpt lat="59.1036771890" lon="30.4870955832"><ele>304.39</ele><time>2026-08-20T20:37:36Z</time></trkpt><trkpt lat="59.1036652867" lon="30.4870971758"><ele>304.39</ele><time>2026-08-20T20:37:37Z</time></trkpt><trkpt lat="59.1036558989" lon="30.4870988522"><ele>304.39</ele><time>2026-08-20T20:37:38Z</time></trkpt><trkpt lat="59.1036463436" lon="30.4870927334"><ele>304.39</ele><time>2026-08-20T20:37:39Z</time></trkpt><trkpt lat="59.1036383808" lon="30.4870925657"><ele>304.39</ele><time>2026-08-20T20:37:40Z</time></trkpt><trkpt lat="59.1036268976" lon="30.4870886263"><ele>304.39</ele><time>2026-08-20T20:37:41Z</time></trkpt><trkpt lat="59.1036203597" lon="30.4870887939"><ele>304.39</ele><time>2026-08-20T20:37:42Z</time></trkpt><trkpt lat="59.1036145762" lon="30.4870869499"><ele>304.39</ele><time>2026-08-20T20:37:43Z</time></trkpt><trkpt lat="59.1036098823" lon="30.4870809987"><ele>304.39</ele><time>2026-08-20T20:37:44Z</time></trkpt><trkpt lat="59.1035996564" lon="30.4870639835"><ele>304.39</ele><time>2026-08-20T20:37:45Z</time></trkpt><trkpt lat="59.1035910230" lon="30.4870589543"><ele>304.39</ele><time>2026-08-20T20:37:46Z</time></trkpt><trkpt lat="59.1035790369" lon="30.4870536737"><ele>304.39</ele><time>2026-08-20T20:37:47Z</time></trkpt><trkpt lat="59.1035665479" lon="30.4870456271"><ele>304.39</ele><time>2026-08-20T20:37:48Z</time></trkpt><trkpt lat="59.1035586689" lon="30.4870364908"><ele>304.39</ele><time>2026-08-20T20:37:49Z</time></trkpt><trkpt lat="59.1035481915" lon="30.4870340601"><ele>304.39</ele><time>2026-08-20T20:37:50Z</time></trkpt><trkpt lat="59.1035364568" lon="30.4870290309"><ele>304.39</ele><time>2026-08-20T20:37:51Z</time></trkpt><trkpt lat="59.1035244707" lon="30.4870246723"><ele>304.39</ele><time>2026-08-20T20:37:52Z</time></trkpt><trkpt lat="59.1035131551" lon="30.4870241694"><ele>304.39</ele><time>2026-08-20T20:37:53Z</time></trkpt><trkpt lat="59.1035035998" lon="30.4870260973"><ele>304.39</ele><time>2026-08-20T20:37:54Z</time></trkpt><trkpt lat="59.1034947988" lon="30.4870232474"><ele>304.39</ele><time>2026-08-20T20:37:55Z</time></trkpt><trkpt lat="59.1034841537" lon="30.4870237503"><ele>304.39</ele><time>2026-08-20T20:37:56Z</time></trkpt><trkpt lat="59.1034751851" lon="30.4870246723"><ele>304.39</ele><time>2026-08-20T20:37:57Z</time></trkpt><trkpt lat="59.1034647916" lon="30.4870244209"><ele>304.39</ele><time>2026-08-20T20:37:58Z</time></trkpt><trkpt lat="59.1034572478" lon="30.4870271869"><ele>304.39</ele><time>2026-08-20T20:37:59Z</time></trkpt><trkpt lat="59.1034494527" lon="30.4870293662"><ele>304.39</ele><time>2026-08-20T20:38:00Z</time></trkpt><trkpt lat="59.1034433339" lon="30.4870334733"><ele>304.39</ele><time>2026-08-20T20:38:01Z</time></trkpt><trkpt lat="59.1034368798" lon="30.4870434478"><ele>304.39</ele><time>2026-08-20T20:38:02Z</time></trkpt><trkpt lat="59.1034283303" lon="30.4870504886"><ele>304.39</ele><time>2026-08-20T20:38:03Z</time></trkpt><trkpt lat="59.1034222953" lon="30.4870552663"><ele>304.39</ele><time>2026-08-20T20:38:04Z</time></trkpt><trkpt lat="59.1034163442" lon="30.4870603792"><ele>304.39</ele><time>2026-08-20T20:38:05Z</time></trkpt><trkpt lat="59.1034075432" lon="30.4870669171"><ele>304.39</ele><time>2026-08-20T20:38:06Z</time></trkpt><trkpt lat="59.1033981554" lon="30.4870743770"><ele>304.39</ele><time>2026-08-20T20:38:07Z</time></trkpt><trkpt lat="59.1033891868" lon="30.4870795738"><ele>304.39</ele><time>2026-08-20T20:38:08Z</time></trkpt><trkpt lat="59.1033778712" lon="30.4870805796"><ele>304.39</ele><time>2026-08-20T20:38:09Z</time></trkpt><trkpt lat="59.1033656336" lon="30.4871012829"><ele>304.39</ele><time>2026-08-20T20:38:10Z</time></trkpt><trkpt lat="59.1033553239" lon="30.4871006962"><ele>304.39</ele><time>2026-08-20T20:38:11Z</time></trkpt><trkpt lat="59.1033456847" lon="30.4870991874"><ele>304.39</ele><time>2026-08-20T20:38:12Z</time></trkpt><trkpt lat="59.1033345368" lon="30.4870929848"><ele>304.39</ele><time>2026-08-20T20:38:13Z</time></trkpt><trkpt lat="59.1033246461" lon="30.4870883748"><ele>304.39</ele><time>2026-08-20T20:38:14Z</time></trkpt><trkpt lat="59.1033168510" lon="30.4870873690"><ele>304.39</ele><time>2026-08-20T20:38:15Z</time></trkpt><trkpt lat="59.1033089720" lon="30.4870857764"><ele>304.39</ele><time>2026-08-20T20:38:16Z</time></trkpt><trkpt lat="59.1033027694" lon="30.4870851897"><ele>304.39</ele><time>2026-08-20T20:38:17Z</time></trkpt><trkpt lat="59.1032946389" lon="30.4870890453"><ele>304.39</ele><time>2026-08-20T20:38:18Z</time></trkpt><trkpt lat="59.1032837424" lon="30.4870972596"><ele>304.39</ele><time>2026-08-20T20:38:19Z</time></trkpt><trkpt lat="59.1032750253" lon="30.4870976787"><ele>304.39</ele><time>2026-08-20T20:38:20Z</time></trkpt><trkpt lat="59.1032669786" lon="30.4870990198"><ele>304.39</ele><time>2026-08-20T20:38:21Z</time></trkpt><trkpt lat="59.1032602731" lon="30.4870983493"><ele>304.39</ele><time>2026-08-20T20:38:22Z</time></trkpt><trkpt lat="59.1032569204" lon="30.4870995227"><ele>304.39</ele><time>2026-08-20T20:38:23Z</time></trkpt><trkpt lat="59.1032519750" lon="30.4871030431"><ele>304.39</ele><time>2026-08-20T20:38:24Z</time></trkpt><trkpt lat="59.1032463592" lon="30.4871037975"><ele>304.39</ele><time>2026-08-20T20:38:25Z</time></trkpt><trkpt lat="59.1032407433" lon="30.4870977625"><ele>304.39</ele><time>2026-08-20T20:38:26Z</time></trkpt><trkpt lat="59.1032356303" lon="30.4870922305"><ele>304.39</ele><time>2026-08-20T20:38:27Z</time></trkpt><trkpt lat="59.1032309365" lon="30.4870836809"><ele>304.39</ele><time>2026-08-20T20:38:28Z</time></trkpt><trkpt lat="59.1032277513" lon="30.4870771430"><ele>304.39</ele><time>2026-08-20T20:38:29Z</time></trkpt><trkpt lat="59.1032245662" lon="30.4870675877"><ele>304.39</ele><time>2026-08-20T20:38:30Z</time></trkpt><trkpt lat="59.1032227222" lon="30.4870596249"><ele>304.39</ele><time>2026-08-20T20:38:31Z</time></trkpt><trkpt lat="59.1032232251" lon="30.4870507400"><ele>304.39</ele><time>2026-08-20T20:38:32Z</time></trkpt><trkpt lat="59.1032253206" lon="30.4870444536"><ele>304.39</ele><time>2026-08-20T20:38:33Z</time></trkpt><trkpt lat="59.1032222193" lon="30.4870376643"><ele>304.39</ele><time>2026-08-20T20:38:34Z</time></trkpt><trkpt lat="59.1032190342" lon="30.4870343953"><ele>304.39</ele><time>2026-08-20T20:38:35Z</time></trkpt><trkpt lat="59.1032190342" lon="30.4870343953"><ele>304.39</ele><time>2026-08-20T20:38:36Z</time></trkpt><trkpt lat="59.1032190342" lon="30.4870343953"><ele>304.39</ele><time>2026-08-20T20:38:37Z</time></trkpt><trkpt lat="59.1032190342" lon="30.4870343953"><ele>304.39</ele><time>2026-08-20T20:38:38Z</time></trkpt><trkpt lat="59.1032190342" lon="30.4870343953"><ele>304.39</ele><time>2026-08-20T20:38:39Z</time></trkpt><trkpt lat="59.1032190342" lon="30.4870343953"><ele>304.39</ele><time>2026-08-20T20:38:40Z</time></trkpt><trkpt lat="59.1032190342" lon="30.4870343953"><ele>304.39</ele><time>2026-08-20T20:38:41Z</time></trkpt><trkpt lat="59.1032190342" lon="30.4870343953"><ele>304.39</ele><time>2026-08-20T20:38:42Z</time></trkpt><trkpt lat="59.1032190342" lon="30.4870343953"><ele>304.39</ele><time>2026-08-20T20:38:43Z</time></trkpt><trkpt lat="59.1032190342" lon="30.4870343953"><ele>304.39</ele><time>2026-08-20T20:38:44Z</time></trkpt><trkpt lat="59.1032190342" lon="30.4870343953"><ele>304.39</ele><time>2026-08-20T20:38:45Z</time></trkpt><trkpt lat="59.1032190342" lon="30.4870343953"><ele>304.39</ele><time>2026-08-20T20:38:46Z</time></trkpt><trkpt lat="59.1032190342" lon="30.4870343953"><ele>304.39</ele><time>2026-08-20T20:38:47Z</time></trkpt><trkpt lat="59.1032190342" lon="30.4870343953"><ele>304.39</ele><time>2026-08-20T20:38:48Z</time></trkpt><trkpt lat="59.1032190342" lon="30.4870343953"><ele>304.39</ele><time>2026-08-20T20:38:49Z</time></trkpt><trkpt lat="59.1032190342" lon="30.4870343953"><ele>303.91</ele><time>2026-08-20T20:38:50Z</time></trkpt><trkpt lat="59.1032190342" lon="30.4870343953"><ele>303.91</ele><time>2026-08-20T20:38:51Z</time></trkpt><trkpt lat="59.1032190342" lon="30.4870343953"><ele>303.91</ele><time>2026-08-20T20:38:52Z</time></trkpt><trkpt lat="59.1032190342" lon="30.4870343953"><ele>303.91</ele><time>2026-08-20T20:38:53Z</time></trkpt><trkpt lat="59.1032190342" lon="30.4870343953"><ele>303.91</ele><time>2026-08-20T20:38:54Z</time></trkpt><trkpt lat="59.1032190342" lon="30.4870343953"><ele>303.91</ele><time>2026-08-20T20:38:55Z</time></trkpt><trkpt lat="59.1032190342" lon="30.4870343953"><ele>303.91</ele><time>2026-08-20T20:38:56Z</time></trkpt><trkpt lat="59.1032190342" lon="30.4870343953"><ele>303.91</ele><time>2026-08-20T20:38:57Z</time></trkpt><trkpt lat="59.1032190342" lon="30.4870343953"><ele>303.91</ele><time>2026-08-20T20:38:58Z</time></trkpt><trkpt lat="59.1032190342" lon="30.4870343953"><ele>303.91</ele><time>2026-08-20T20:38:59Z</time></trkpt><trkpt lat="59.1032190342" lon="30.4870343953"><ele>303.91</ele><time>2026-08-20T20:39:00Z</time></trkpt><trkpt lat="59.1032190342" lon="30.4870343953"><ele>303.91</ele><time>2026-08-20T20:39:01Z</time></trkpt><trkpt lat="59.1032190342" lon="30.4870343953"><ele>303.91</ele><time>2026-08-20T20:39:02Z</time></trkpt><trkpt lat="59.1032190342" lon="30.4870343953"><ele>303.91</ele><time>2026-08-20T20:39:03Z</time></trkpt><trkpt lat="59.1032190342" lon="30.4870343953"><ele>303.91</ele><time>2026-08-20T20:39:04Z</time></trkpt><trkpt lat="59.1032190342" lon="30.4870343953"><ele>303.91</ele><time>2026-08-20T20:39:05Z</time></trkpt><trkpt lat="59.1031878535" lon="30.4870418552"><ele>303.91</ele><time>2026-08-20T20:39:06Z</time></trkpt><trkpt lat="59.1031874344" lon="30.4870236665"><ele>303.91</ele><time>2026-08-20T20:39:07Z</time></trkpt><trkpt lat="59.1031870991" lon="30.4870042205"><ele>303.91</ele><time>2026-08-20T20:39:08Z</time></trkpt><trkpt lat="59.1031870991" lon="30.4869863670"><ele>304.39</ele><time>2026-08-20T20:39:09Z</time></trkpt><trkpt lat="59.1031869315" lon="30.4869687650"><ele>304.39</ele><time>2026-08-20T20:39:10Z</time></trkpt><trkpt lat="59.1031894460" lon="30.4869498219"><ele>304.39</ele><time>2026-08-20T20:39:11Z</time></trkpt><trkpt lat="59.1031904519" lon="30.4869349860"><ele>304.39</ele><time>2026-08-20T20:39:12Z</time></trkpt><trkpt lat="59.1031938884" lon="30.4869165458"><ele>304.39</ele><time>2026-08-20T20:39:13Z</time></trkpt><trkpt lat="59.1031952295" lon="30.4868971836"><ele>304.39</ele><time>2026-08-20T20:39:14Z</time></trkpt><trkpt lat="59.1031934693" lon="30.4868781567"><ele>304.39</ele><time>2026-08-20T20:39:15Z</time></trkpt><trkpt lat="59.1031904519" lon="30.4868611414"><ele>304.39</ele><time>2026-08-20T20:39:16Z</time></trkpt><trkpt lat="59.1031852551" lon="30.4868403543"><ele>304.39</ele><time>2026-08-20T20:39:17Z</time></trkpt><trkpt lat="59.1031789687" lon="30.4868202377"><ele>304.39</ele><time>2026-08-20T20:39:18Z</time></trkpt><trkpt lat="59.1031736881" lon="30.4867975228"><ele>304.39</ele><time>2026-08-20T20:39:19Z</time></trkpt><trkpt lat="59.1031710897" lon="30.4867755622"><ele>304.39</ele><time>2026-08-20T20:39:20Z</time></trkpt><trkpt lat="59.1031671502" lon="30.4867548589"><ele>304.39</ele><time>2026-08-20T20:39:21Z</time></trkpt><trkpt lat="59.1031603608" lon="30.4867402744"><ele>304.39</ele><time>2026-08-20T20:39:22Z</time></trkpt><trkpt lat="59.1031516436" lon="30.4867263604"><ele>304.39</ele><time>2026-08-20T20:39:23Z</time></trkpt><trkpt lat="59.1031473689" lon="30.4867230915"><ele>304.39</ele><time>2026-08-20T20:39:24Z</time></trkpt><trkpt lat="59.1031493805" lon="30.4867257737"><ele>304.39</ele><time>2026-08-20T20:39:25Z</time></trkpt><trkpt lat="59.1031493805" lon="30.4867257737"><ele>304.39</ele><time>2026-08-20T20:39:26Z</time></trkpt><trkpt lat="59.1031493805" lon="30.4867257737"><ele>304.39</ele><time>2026-08-20T20:39:27Z</time></trkpt><trkpt lat="59.1031507216" lon="30.4867412802"><ele>304.39</ele><time>2026-08-20T20:39:28Z</time></trkpt><trkpt lat="59.1031542420" lon="30.4867519252"><ele>304.39</ele><time>2026-08-20T20:39:29Z</time></trkpt><trkpt lat="59.1031566728" lon="30.4867614806"><ele>304.39</ele><time>2026-08-20T20:39:30Z</time></trkpt><trkpt lat="59.1031591874" lon="30.4867737181"><ele>304.39</ele><time>2026-08-20T20:39:31Z</time></trkpt><trkpt lat="59.1031616181" lon="30.4867778253"><ele>304.39</ele><time>2026-08-20T20:39:32Z</time></trkpt><trkpt lat="59.1031622887" lon="30.4867811780"><ele>304.39</ele><time>2026-08-20T20:39:33Z</time></trkpt><trkpt lat="59.1031604446" lon="30.4867832735"><ele>304.39</ele><time>2026-08-20T20:39:34Z</time></trkpt><trkpt lat="59.1031643841" lon="30.4867829382"><ele>304.39</ele><time>2026-08-20T20:39:35Z</time></trkpt><trkpt lat="59.1031643841" lon="30.4867829382"><ele>304.39</ele><time>2026-08-20T20:39:36Z</time></trkpt><trkpt lat="59.1031643841" lon="30.4867829382"><ele>304.39</ele><time>2026-08-20T20:39:37Z</time></trkpt><trkpt lat="59.1031643841" lon="30.4867829382"><ele>304.39</ele><time>2026-08-20T20:39:39Z</time></trkpt><trkpt lat="59.1031643841" lon="30.4867829382"><ele>304.39</ele><time>2026-08-20T20:39:40Z</time></trkpt><trkpt lat="59.1031643841" lon="30.4867829382"><ele>304.39</ele><time>2026-08-20T20:39:41Z</time></trkpt><trkpt lat="59.1031643841" lon="30.4867829382"><ele>304.39</ele><time>2026-08-20T20:39:42Z</time></trkpt><trkpt lat="59.1031643841" lon="30.4867829382"><ele>304.39</ele><time>2026-08-20T20:39:43Z</time></trkpt><trkpt lat="59.1031643841" lon="30.4867829382"><ele>304.39</ele><time>2026-08-20T20:39:44Z</time></trkpt><trkpt lat="59.1031643841" lon="30.4867829382"><ele>304.39</ele><time>2026-08-20T20:39:45Z</time></trkpt><trkpt lat="59.1031643841" lon="30.4867829382"><ele>304.39</ele><time>2026-08-20T20:39:46Z</time></trkpt><trkpt lat="59.1031643841" lon="30.4867829382"><ele>304.39</ele><time>2026-08-20T20:39:47Z</time></trkpt><trkpt lat="59.1031643841" lon="30.4867829382"><ele>304.39</ele><time>2026-08-20T20:39:48Z</time></trkpt><trkpt lat="59.1031643841" lon="30.4867829382"><ele>304.39</ele><time>2026-08-20T20:39:49Z</time></trkpt><trkpt lat="59.1031643841" lon="30.4867829382"><ele>304.39</ele><time>2026-08-20T20:39:50Z</time></trkpt><trkpt lat="59.1031643841" lon="30.4867829382"><ele>304.39</ele><time>2026-08-20T20:39:51Z</time></trkpt><trkpt lat="59.1031643841" lon="30.4867829382"><ele>304.39</ele><time>2026-08-20T20:39:52Z</time></trkpt><trkpt lat="59.1031643841" lon="30.4867829382"><ele>304.39</ele><time>2026-08-20T20:39:53Z</time></trkpt><trkpt lat="59.1031643841" lon="30.4867829382"><ele>304.39</ele><time>2026-08-20T20:39:54Z</time></trkpt><trkpt lat="59.1031643841" lon="30.4867829382"><ele>304.39</ele><time>2026-08-20T20:39:55Z</time></trkpt><trkpt lat="59.1031643841" lon="30.4867829382"><ele>304.39</ele><time>2026-08-20T20:39:56Z</time></trkpt><trkpt lat="59.1031643841" lon="30.4867829382"><ele>304.39</ele><time>2026-08-20T20:39:57Z</time></trkpt><trkpt lat="59.1031643841" lon="30.4867829382"><ele>304.39</ele><time>2026-08-20T20:39:58Z</time></trkpt><trkpt lat="59.1031643841" lon="30.4867829382"><ele>304.39</ele><time>2026-08-20T20:39:59Z</time></trkpt><trkpt lat="59.1031643841" lon="30.4867829382"><ele>304.39</ele><time>2026-08-20T20:40:00Z</time></trkpt><trkpt lat="59.1031643841" lon="30.4867829382"><ele>304.39</ele><time>2026-08-20T20:40:01Z</time></trkpt><trkpt lat="59.1031643841" lon="30.4867829382"><ele>304.39</ele><time>2026-08-20T20:40:02Z</time></trkpt><trkpt lat="59.1031643841" lon="30.4867829382"><ele>304.39</ele><time>2026-08-20T20:40:03Z</time></trkpt><trkpt lat="59.1031643841" lon="30.4867829382"><ele>304.39</ele><time>2026-08-20T20:40:04Z</time></trkpt><trkpt lat="59.1031643841" lon="30.4867829382"><ele>304.39</ele><time>2026-08-20T20:40:05Z</time></trkpt><trkpt lat="59.1031643841" lon="30.4867829382"><ele>304.39</ele><time>2026-08-20T20:40:06Z</time></trkpt><trkpt lat="59.1031643841" lon="30.4867829382"><ele>304.39</ele><time>2026-08-20T20:40:07Z</time></trkpt><trkpt lat="59.1031643841" lon="30.4867829382"><ele>304.39</ele><time>2026-08-20T20:40:08Z</time></trkpt><trkpt lat="59.1031643841" lon="30.4867829382"><ele>304.39</ele><time>2026-08-20T20:40:09Z</time></trkpt><trkpt lat="59.1031643841" lon="30.4867829382"><ele>304.39</ele><time>2026-08-20T20:40:10Z</time></trkpt><trkpt lat="59.1031643841" lon="30.4867829382"><ele>304.39</ele><time>2026-08-20T20:40:11Z</time></trkpt><trkpt lat="59.1031643841" lon="30.4867829382"><ele>304.39</ele><time>2026-08-20T20:40:12Z</time></trkpt><trkpt lat="59.1031643841" lon="30.4867829382"><ele>304.39</ele><time>2026-08-20T20:40:13Z</time></trkpt><trkpt lat="59.1031643841" lon="30.4867829382"><ele>304.39</ele><time>2026-08-20T20:40:14Z</time></trkpt><trkpt lat="59.1031643841" lon="30.4867829382"><ele>304.39</ele><time>2026-08-20T20:40:15Z</time></trkpt><trkpt lat="59.1031643841" lon="30.4867829382"><ele>304.39</ele><time>2026-08-20T20:40:16Z</time></trkpt><trkpt lat="59.1031643841" lon="30.4867829382"><ele>304.39</ele><time>2026-08-20T20:40:17Z</time></trkpt><trkpt lat="59.1031643841" lon="30.4867829382"><ele>304.39</ele><time>2026-08-20T20:40:18Z</time></trkpt><trkpt lat="59.1031643841" lon="30.4867829382"><ele>304.39</ele><time>2026-08-20T20:40:19Z</time></trkpt><trkpt lat="59.1031643841" lon="30.4867829382"><ele>304.39</ele><time>2026-08-20T20:40:20Z</time></trkpt><trkpt lat="59.1031643841" lon="30.4867829382"><ele>304.39</ele><time>2026-08-20T20:40:21Z</time></trkpt><trkpt lat="59.1031643841" lon="30.4867829382"><ele>304.39</ele><time>2026-08-20T20:40:22Z</time></trkpt><trkpt lat="59.1031643841" lon="30.4867829382"><ele>304.39</ele><time>2026-08-20T20:40:23Z</time></trkpt><trkpt lat="59.1031643841" lon="30.4867829382"><ele>304.39</ele><time>2026-08-20T20:40:24Z</time></trkpt><trkpt lat="59.1031643841" lon="30.4867829382"><ele>304.39</ele><time>2026-08-20T20:40:25Z</time></trkpt><trkpt lat="59.1031643841" lon="30.4867829382"><ele>304.39</ele><time>2026-08-20T20:40:26Z</time></trkpt><trkpt lat="59.1031643841" lon="30.4867829382"><ele>304.39</ele><time>2026-08-20T20:40:27Z</time></trkpt><trkpt lat="59.1031643841" lon="30.4867829382"><ele>304.39</ele><time>2026-08-20T20:40:28Z</time></trkpt><trkpt lat="59.1031643841" lon="30.4867829382"><ele>304.39</ele><time>2026-08-20T20:40:29Z</time></trkpt><trkpt lat="59.1031643841" lon="30.4867829382"><ele>304.39</ele><time>2026-08-20T20:40:30Z</time></trkpt><trkpt lat="59.1031643841" lon="30.4867829382"><ele>304.39</ele><time>2026-08-20T20:40:31Z</time></trkpt><trkpt lat="59.1031643841" lon="30.4867829382"><ele>304.39</ele><time>2026-08-20T20:40:32Z</time></trkpt><trkpt lat="59.1031643841" lon="30.4867829382"><ele>304.39</ele><time>2026-08-20T20:40:33Z</time></trkpt><trkpt lat="59.1031643841" lon="30.4867829382"><ele>304.39</ele><time>2026-08-20T20:40:34Z</time></trkpt><trkpt lat="59.1031643841" lon="30.4867829382"><ele>304.39</ele><time>2026-08-20T20:40:35Z</time></trkpt><trkpt lat="59.1031643841" lon="30.4867829382"><ele>304.39</ele><time>2026-08-20T20:40:36Z</time></trkpt><trkpt lat="59.1031643841" lon="30.4867829382"><ele>304.39</ele><time>2026-08-20T20:40:37Z</time></trkpt><trkpt lat="59.1031643841" lon="30.4867829382"><ele>304.39</ele><time>2026-08-20T20:40:38Z</time></trkpt><trkpt lat="59.1031531524" lon="30.4868559446"><ele>304.39</ele><time>2026-08-20T20:40:39Z</time></trkpt><trkpt lat="59.1031506378" lon="30.4868692718"><ele>304.39</ele><time>2026-08-20T20:40:40Z</time></trkpt><trkpt lat="59.1031500511" lon="30.4868836887"><ele>304.39</ele><time>2026-08-20T20:40:41Z</time></trkpt><trkpt lat="59.1031483747" lon="30.4868995305"><ele>304.39</ele><time>2026-08-20T20:40:42Z</time></trkpt><trkpt lat="59.1031519789" lon="30.4869233351"><ele>304.39</ele><time>2026-08-20T20:40:43Z</time></trkpt><trkpt lat="59.1031532362" lon="30.4869414400"><ele>304.39</ele><time>2026-08-20T20:40:44Z</time></trkpt><trkpt lat="59.1031538229" lon="30.4869580362"><ele>304.39</ele><time>2026-08-20T20:40:45Z</time></trkpt><trkpt lat="59.1031567566" lon="30.4869829305"><ele>304.39</ele><time>2026-08-20T20:40:46Z</time></trkpt><trkpt lat="59.1031577624" lon="30.4870042205"><ele>304.39</ele><time>2026-08-20T20:40:47Z</time></trkpt><trkpt lat="59.1031585168" lon="30.4870245885"><ele>304.39</ele><time>2026-08-20T20:40:48Z</time></trkpt><trkpt lat="59.1031597741" lon="30.4870431963"><ele>304.39</ele><time>2026-08-20T20:40:49Z</time></trkpt><trkpt lat="59.1031619534" lon="30.4870633967"><ele>304.39</ele><time>2026-08-20T20:40:50Z</time></trkpt><trkpt lat="59.1031641327" lon="30.4870823398"><ele>304.39</ele><time>2026-08-20T20:40:51Z</time></trkpt><trkpt lat="59.1031638812" lon="30.4871031269"><ele>304.39</ele><time>2026-08-20T20:40:52Z</time></trkpt><trkpt lat="59.1031662282" lon="30.4871235788"><ele>304.39</ele><time>2026-08-20T20:40:53Z</time></trkpt><trkpt lat="59.1031659767" lon="30.4871440306"><ele>304.39</ele><time>2026-08-20T20:40:54Z</time></trkpt><trkpt lat="59.1031652223" lon="30.4871641472"><ele>304.39</ele><time>2026-08-20T20:40:55Z</time></trkpt><trkpt lat="59.1031675693" lon="30.4871860240"><ele>304.39</ele><time>2026-08-20T20:40:56Z</time></trkpt><trkpt lat="59.1031649709" lon="30.4872109182"><ele>304.39</ele><time>2026-08-20T20:40:57Z</time></trkpt><trkpt lat="59.1031659767" lon="30.4872345552"><ele>304.39</ele><time>2026-08-20T20:40:58Z</time></trkpt><trkpt lat="59.1031662282" lon="30.4872586951"><ele>304.39</ele><time>2026-08-20T20:40:59Z</time></trkpt><trkpt lat="59.1031687427" lon="30.4872821644"><ele>304.39</ele><time>2026-08-20T20:41:00Z</time></trkpt><trkpt lat="59.1031704191" lon="30.4873051308"><ele>304.39</ele><time>2026-08-20T20:41:01Z</time></trkpt><trkpt lat="59.1031716764" lon="30.4873272590"><ele>304.39</ele><time>2026-08-20T20:41:02Z</time></trkpt><trkpt lat="59.1031713411" lon="30.4873482976"><ele>304.39</ele><time>2026-08-20T20:41:03Z</time></trkpt><trkpt lat="59.1031670664" lon="30.4873720184"><ele>304.39</ele><time>2026-08-20T20:41:04Z</time></trkpt><trkpt lat="59.1031639650" lon="30.4873965774"><ele>304.39</ele><time>2026-08-20T20:41:05Z</time></trkpt><trkpt lat="59.1031618696" lon="30.4874198791"><ele>304.39</ele><time>2026-08-20T20:41:06Z</time></trkpt><trkpt lat="59.1031600256" lon="30.4874427617"><ele>304.39</ele><time>2026-08-20T20:41:07Z</time></trkpt><trkpt lat="59.1031594388" lon="30.4874626268"><ele>304.39</ele><time>2026-08-20T20:41:08Z</time></trkpt><trkpt lat="59.1031608637" lon="30.4874836653"><ele>304.39</ele><time>2026-08-20T20:41:09Z</time></trkpt><trkpt lat="59.1031640489" lon="30.4875023570"><ele>304.39</ele><time>2026-08-20T20:41:10Z</time></trkpt><trkpt lat="59.1031650547" lon="30.4875214677"><ele>304.39</ele><time>2026-08-20T20:41:11Z</time></trkpt><trkpt lat="59.1031654738" lon="30.4875431769"><ele>304.39</ele><time>2026-08-20T20:41:12Z</time></trkpt><trkpt lat="59.1031631269" lon="30.4875649698"><ele>304.39</ele><time>2026-08-20T20:41:13Z</time></trkpt><trkpt lat="59.1031606961" lon="30.4875875171"><ele>304.39</ele><time>2026-08-20T20:41:14Z</time></trkpt><trkpt lat="59.1031614505" lon="30.4876093939"><ele>304.39</ele><time>2026-08-20T20:41:15Z</time></trkpt><trkpt lat="59.1031640489" lon="30.4876288399"><ele>304.39</ele><time>2026-08-20T20:41:16Z</time></trkpt><trkpt lat="59.1031681560" lon="30.4876417480"><ele>304.39</ele><time>2026-08-20T20:41:17Z</time></trkpt><trkpt lat="59.1031724308" lon="30.4876455199"><ele>304.39</ele><time>2026-08-20T20:41:18Z</time></trkpt><trkpt lat="59.1031794716" lon="30.4876503814"><ele>304.39</ele><time>2026-08-20T20:41:19Z</time></trkpt><trkpt lat="59.1031814832" lon="30.4876647983"><ele>304.39</ele><time>2026-08-20T20:41:20Z</time></trkpt><trkpt lat="59.1031754483" lon="30.4876839928"><ele>304.39</ele><time>2026-08-20T20:41:21Z</time></trkpt><trkpt lat="59.1031775437" lon="30.4877005890"><ele>304.39</ele><time>2026-08-20T20:41:22Z</time></trkpt><trkpt lat="59.1031810641" lon="30.4877167661"><ele>304.39</ele><time>2026-08-20T20:41:23Z</time></trkpt><trkpt lat="59.1031829920" lon="30.4877350386"><ele>304.39</ele><time>2026-08-20T20:41:24Z</time></trkpt><trkpt lat="59.1031839978" lon="30.4877527244"><ele>304.39</ele><time>2026-08-20T20:41:25Z</time></trkpt><trkpt lat="59.1031845845" lon="30.4877694882"><ele>304.39</ele><time>2026-08-20T20:41:26Z</time></trkpt><trkpt lat="59.1031883564" lon="30.4877882637"><ele>304.39</ele><time>2026-08-20T20:41:27Z</time></trkpt><trkpt lat="59.1031919606" lon="30.4878056981"><ele>304.39</ele><time>2026-08-20T20:41:28Z</time></trkpt><trkpt lat="59.1031949781" lon="30.4878200311"><ele>304.39</ele><time>2026-08-20T20:41:29Z</time></trkpt><trkpt lat="59.1031985823" lon="30.4878348671"><ele>304.39</ele><time>2026-08-20T20:41:30Z</time></trkpt><trkpt lat="59.1032023542" lon="30.4878525529"><ele>304.39</ele><time>2026-08-20T20:41:31Z</time></trkpt><trkpt lat="59.1032041982" lon="30.4878748488"><ele>304.39</ele><time>2026-08-20T20:41:32Z</time></trkpt><trkpt lat="59.1032069642" lon="30.4878964741"><ele>304.39</ele><time>2026-08-20T20:41:33Z</time></trkpt><trkpt lat="59.1032122448" lon="30.4879161716"><ele>304.39</ele><time>2026-08-20T20:41:34Z</time></trkpt><trkpt lat="59.1032166872" lon="30.4879362881"><ele>304.39</ele><time>2026-08-20T20:41:35Z</time></trkpt><trkpt lat="59.1032207943" lon="30.4879532196"><ele>304.39</ele><time>2026-08-20T20:41:36Z</time></trkpt><trkpt lat="59.1032208782" lon="30.4879678879"><ele>304.39</ele><time>2026-08-20T20:41:37Z</time></trkpt><trkpt lat="59.1032182798" lon="30.4879830591"><ele>304.39</ele><time>2026-08-20T20:41:38Z</time></trkpt><trkpt lat="59.1032170225" lon="30.4880022537"><ele>304.39</ele><time>2026-08-20T20:41:39Z</time></trkpt><trkpt lat="59.1032174416" lon="30.4880247172"><ele>304.39</ele><time>2026-08-20T20:41:40Z</time></trkpt><trkpt lat="59.1032157652" lon="30.4880452529"><ele>304.39</ele><time>2026-08-20T20:41:41Z</time></trkpt><trkpt lat="59.1032154299" lon="30.4880674649"><ele>304.39</ele><time>2026-08-20T20:41:42Z</time></trkpt><trkpt lat="59.1032141726" lon="30.4880892579"><ele>304.39</ele><time>2026-08-20T20:41:43Z</time></trkpt><trkpt lat="59.1032128315" lon="30.4881077819"><ele>304.39</ele><time>2026-08-20T20:41:44Z</time></trkpt><trkpt lat="59.1032133345" lon="30.4881272279"><ele>304.39</ele><time>2026-08-20T20:41:45Z</time></trkpt><trkpt lat="59.1032174416" lon="30.4881486855"><ele>304.39</ele><time>2026-08-20T20:41:46Z</time></trkpt><trkpt lat="59.1032174416" lon="30.4881697241"><ele>304.39</ele><time>2026-08-20T20:41:47Z</time></trkpt><trkpt lat="59.1032183636" lon="30.4881921876"><ele>304.39</ele><time>2026-08-20T20:41:48Z</time></trkpt><trkpt lat="59.1032178607" lon="30.4882175848"><ele>304.39</ele><time>2026-08-20T20:41:49Z</time></trkpt><trkpt lat="59.1032175254" lon="30.4882424790"><ele>304.39</ele><time>2026-08-20T20:41:50Z</time></trkpt><trkpt lat="59.1032182798" lon="30.4882649425"><ele>304.39</ele><time>2026-08-20T20:41:51Z</time></trkpt><trkpt lat="59.1032200400" lon="30.4882887471"><ele>304.39</ele><time>2026-08-20T20:41:52Z</time></trkpt><trkpt lat="59.1032204591" lon="30.4883111268"><ele>304.39</ele><time>2026-08-20T20:41:53Z</time></trkpt><trkpt lat="59.1032187827" lon="30.4883296508"><ele>304.39</ele><time>2026-08-20T20:41:54Z</time></trkpt><trkpt lat="59.1032187827" lon="30.4883525334"><ele>304.39</ele><time>2026-08-20T20:41:55Z</time></trkpt><trkpt lat="59.1032181960" lon="30.4883747455"><ele>304.39</ele><time>2026-08-20T20:41:56Z</time></trkpt><trkpt lat="59.1032211296" lon="30.4883973766"><ele>304.39</ele><time>2026-08-20T20:41:57Z</time></trkpt><trkpt lat="59.1032234766" lon="30.4884241987"><ele>304.39</ele><time>2026-08-20T20:41:58Z</time></trkpt><trkpt lat="59.1032259911" lon="30.4884531163"><ele>304.39</ele><time>2026-08-20T20:41:59Z</time></trkpt><trkpt lat="59.1032269970" lon="30.4884800222"><ele>304.39</ele><time>2026-08-20T20:42:00Z</time></trkpt><trkpt lat="59.1032261588" lon="30.4885094427"><ele>304.39</ele><time>2026-08-20T20:42:01Z</time></trkpt><trkpt lat="59.1032273322" lon="30.4885330796"><ele>304.39</ele><time>2026-08-20T20:42:02Z</time></trkpt><trkpt lat="59.1032254882" lon="30.4885538667"><ele>304.39</ele><time>2026-08-20T20:42:03Z</time></trkpt><trkpt lat="59.1032253206" lon="30.4885709658"><ele>304.39</ele><time>2026-08-20T20:42:04Z</time></trkpt><trkpt lat="59.1032245662" lon="30.4885775875"><ele>304.39</ele><time>2026-08-20T20:42:05Z</time></trkpt><trkpt lat="59.1032269970" lon="30.4885857180"><ele>304.39</ele><time>2026-08-20T20:42:06Z</time></trkpt><trkpt lat="59.1032311879" lon="30.4885947704"><ele>304.39</ele><time>2026-08-20T20:42:07Z</time></trkpt><trkpt lat="59.1032338701" lon="30.4886083491"><ele>304.39</ele><time>2026-08-20T20:42:08Z</time></trkpt><trkpt lat="59.1032355465" lon="30.4886241909"><ele>304.39</ele><time>2026-08-20T20:42:09Z</time></trkpt><trkpt lat="59.1032375582" lon="30.4886394460"><ele>304.39</ele><time>2026-08-20T20:42:10Z</time></trkpt><trkpt lat="59.1032406595" lon="30.4886534438"><ele>304.39</ele><time>2026-08-20T20:42:11Z</time></trkpt><trkpt lat="59.1032429226" lon="30.4886658490"><ele>304.39</ele><time>2026-08-20T20:42:12Z</time></trkpt><trkpt lat="59.1032462753" lon="30.4886820260"><ele>304.39</ele><time>2026-08-20T20:42:13Z</time></trkpt><trkpt lat="59.1032531485" lon="30.4886995442"><ele>304.39</ele><time>2026-08-20T20:42:14Z</time></trkpt><trkpt lat="59.1032554954" lon="30.4887245223"><ele>304.39</ele><time>2026-08-20T20:42:15Z</time></trkpt><trkpt lat="59.1032567527" lon="30.4887494165"><ele>304.39</ele><time>2026-08-20T20:42:16Z</time></trkpt><trkpt lat="59.1032582615" lon="30.4887694493"><ele>304.39</ele><time>2026-08-20T20:42:17Z</time></trkpt><trkpt lat="59.1032574233" lon="30.4887853749"><ele>304.39</ele><time>2026-08-20T20:42:18Z</time></trkpt><trkpt lat="59.1032573394" lon="30.4888063297"><ele>304.39</ele><time>2026-08-20T20:42:19Z</time></trkpt><trkpt lat="59.1032585967" lon="30.4888299666"><ele>304.39</ele><time>2026-08-20T20:42:20Z</time></trkpt><trkpt lat="59.1032610275" lon="30.4888513405"><ele>304.39</ele><time>2026-08-20T20:42:21Z</time></trkpt><trkpt lat="59.1032638773" lon="30.4888746422"><ele>304.39</ele><time>2026-08-20T20:42:22Z</time></trkpt><trkpt lat="59.1032668948" lon="30.4888965189"><ele>304.39</ele><time>2026-08-20T20:42:23Z</time></trkpt><trkpt lat="59.1032663919" lon="30.4889175575"><ele>304.39</ele><time>2026-08-20T20:42:24Z</time></trkpt><trkpt lat="59.1032665595" lon="30.4889379255"><ele>304.39</ele><time>2026-08-20T20:42:25Z</time></trkpt><trkpt lat="59.1032665595" lon="30.4889579583"><ele>304.39</ele><time>2026-08-20T20:42:26Z</time></trkpt><trkpt lat="59.1032682359" lon="30.4889859539"><ele>304.39</ele><time>2026-08-20T20:42:27Z</time></trkpt><trkpt lat="59.1032728460" lon="30.4890066572"><ele>304.39</ele><time>2026-08-20T20:42:28Z</time></trkpt><trkpt lat="59.1032745223" lon="30.4890222475"><ele>304.39</ele><time>2026-08-20T20:42:29Z</time></trkpt><trkpt lat="59.1032735165" lon="30.4890368320"><ele>304.39</ele><time>2026-08-20T20:42:30Z</time></trkpt><trkpt lat="59.1032750253" lon="30.4890556913"><ele>304.88</ele><time>2026-08-20T20:42:31Z</time></trkpt><trkpt lat="59.1032771207" lon="30.4890759755"><ele>304.88</ele><time>2026-08-20T20:42:32Z</time></trkpt><trkpt lat="59.1032801382" lon="30.4890983552"><ele>304.88</ele><time>2026-08-20T20:42:33Z</time></trkpt><trkpt lat="59.1032806411" lon="30.4891233332"><ele>304.88</ele><time>2026-08-20T20:42:34Z</time></trkpt><trkpt lat="59.1032796353" lon="30.4891454615"><ele>304.88</ele><time>2026-08-20T20:42:35Z</time></trkpt><trkpt lat="59.1032771207" lon="30.4891604651"><ele>304.39</ele><time>2026-08-20T20:42:36Z</time></trkpt><trkpt lat="59.1032774560" lon="30.4891635664"><ele>304.39</ele><time>2026-08-20T20:42:37Z</time></trkpt><trkpt lat="59.1032770369" lon="30.4891655780"><ele>304.39</ele><time>2026-08-20T20:42:38Z</time></trkpt><trkpt lat="59.1032770369" lon="30.4891655780"><ele>304.88</ele><time>2026-08-20T20:42:39Z</time></trkpt><trkpt lat="59.1032770369" lon="30.4891655780"><ele>304.88</ele><time>2026-08-20T20:42:40Z</time></trkpt><trkpt lat="59.1032770369" lon="30.4891655780"><ele>304.88</ele><time>2026-08-20T20:42:41Z</time></trkpt><trkpt lat="59.1032770369" lon="30.4891655780"><ele>304.88</ele><time>2026-08-20T20:42:42Z</time></trkpt><trkpt lat="59.1032770369" lon="30.4891655780"><ele>304.88</ele><time>2026-08-20T20:42:43Z</time></trkpt><trkpt lat="59.1032770369" lon="30.4891655780"><ele>304.88</ele><time>2026-08-20T20:42:44Z</time></trkpt><trkpt lat="59.1032770369" lon="30.4891655780"><ele>304.88</ele><time>2026-08-20T20:42:45Z</time></trkpt><trkpt lat="59.1032770369" lon="30.4891655780"><ele>304.88</ele><time>2026-08-20T20:42:46Z</time></trkpt><trkpt lat="59.1032770369" lon="30.4891655780"><ele>304.88</ele><time>2026-08-20T20:42:47Z</time></trkpt><trkpt lat="59.1032636259" lon="30.4891664162"><ele>304.88</ele><time>2026-08-20T20:42:48Z</time></trkpt><trkpt lat="59.1032629553" lon="30.4891899694"><ele>304.88</ele><time>2026-08-20T20:42:49Z</time></trkpt><trkpt lat="59.1032592673" lon="30.4892067332"><ele>304.88</ele><time>2026-08-20T20:42:50Z</time></trkpt><trkpt lat="59.1032562498" lon="30.4892238323"><ele>304.88</ele><time>2026-08-20T20:42:51Z</time></trkpt><trkpt lat="59.1032557469" lon="30.4892418534"><ele>304.88</ele><time>2026-08-20T20:42:52Z</time></trkpt><trkpt lat="59.1032552440" lon="30.4892588686"><ele>304.88</ele><time>2026-08-20T20:42:53Z</time></trkpt><trkpt lat="59.1032572556" lon="30.4892777279"><ele>304.88</ele><time>2026-08-20T20:42:54Z</time></trkpt><trkpt lat="59.1032567527" lon="30.4892940726"><ele>304.88</ele><time>2026-08-20T20:42:55Z</time></trkpt><trkpt lat="59.1032566689" lon="30.4893104173"><ele>304.88</ele><time>2026-08-20T20:42:56Z</time></trkpt><trkpt lat="59.1032567527" lon="30.4893280193"><ele>304.39</ele><time>2026-08-20T20:42:57Z</time></trkpt><trkpt lat="59.1032566689" lon="30.4893419333"><ele>304.39</ele><time>2026-08-20T20:42:58Z</time></trkpt><trkpt lat="59.1032548249" lon="30.4893498961"><ele>304.39</ele><time>2026-08-20T20:42:59Z</time></trkpt><trkpt lat="59.1032540705" lon="30.4893596191"><ele>304.39</ele><time>2026-08-20T20:43:00Z</time></trkpt><trkpt lat="59.1032525618" lon="30.4893676657"><ele>304.39</ele><time>2026-08-20T20:43:01Z</time></trkpt><trkpt lat="59.1032525618" lon="30.4893676657"><ele>304.39</ele><time>2026-08-20T20:43:02Z</time></trkpt><trkpt lat="59.1032525618" lon="30.4893676657"><ele>304.39</ele><time>2026-08-20T20:43:03Z</time></trkpt><trkpt lat="59.1032525618" lon="30.4893676657"><ele>304.39</ele><time>2026-08-20T20:43:04Z</time></trkpt><trkpt lat="59.1032525618" lon="30.4893676657"><ele>304.39</ele><time>2026-08-20T20:43:05Z</time></trkpt><trkpt lat="59.1032525618" lon="30.4893676657"><ele>304.39</ele><time>2026-08-20T20:43:06Z</time></trkpt><trkpt lat="59.1032525618" lon="30.4893676657"><ele>304.39</ele><time>2026-08-20T20:43:07Z</time></trkpt><trkpt lat="59.1032525618" lon="30.4893676657"><ele>304.39</ele><time>2026-08-20T20:43:08Z</time></trkpt><trkpt lat="59.1032525618" lon="30.4893676657"><ele>304.39</ele><time>2026-08-20T20:43:09Z</time></trkpt><trkpt lat="59.1032525618" lon="30.4893676657"><ele>304.39</ele><time>2026-08-20T20:43:10Z</time></trkpt><trkpt lat="59.1032525618" lon="30.4893676657"><ele>304.39</ele><time>2026-08-20T20:43:11Z</time></trkpt><trkpt lat="59.1032525618" lon="30.4893676657"><ele>304.39</ele><time>2026-08-20T20:43:12Z</time></trkpt><trkpt lat="59.1032525618" lon="30.4893676657"><ele>304.39</ele><time>2026-08-20T20:43:13Z</time></trkpt><trkpt lat="59.1032525618" lon="30.4893676657"><ele>304.39</ele><time>2026-08-20T20:43:14Z</time></trkpt><trkpt lat="59.1032525618" lon="30.4893676657"><ele>304.39</ele><time>2026-08-20T20:43:15Z</time></trkpt><trkpt lat="59.1032525618" lon="30.4893676657"><ele>304.39</ele><time>2026-08-20T20:43:16Z</time></trkpt><trkpt lat="59.1032525618" lon="30.4893676657"><ele>304.39</ele><time>2026-08-20T20:43:17Z</time></trkpt><trkpt lat="59.1032525618" lon="30.4893676657"><ele>304.39</ele><time>2026-08-20T20:43:18Z</time></trkpt><trkpt lat="59.1032525618" lon="30.4893676657"><ele>304.39</ele><time>2026-08-20T20:43:19Z</time></trkpt><trkpt lat="59.1032525618" lon="30.4893676657"><ele>304.39</ele><time>2026-08-20T20:43:20Z</time></trkpt><trkpt lat="59.1032525618" lon="30.4893676657"><ele>304.39</ele><time>2026-08-20T20:43:21Z</time></trkpt><trkpt lat="59.1032525618" lon="30.4893676657"><ele>304.39</ele><time>2026-08-20T20:43:22Z</time></trkpt><trkpt lat="59.1032525618" lon="30.4893676657"><ele>304.39</ele><time>2026-08-20T20:43:23Z</time></trkpt><trkpt lat="59.1032525618" lon="30.4893676657"><ele>304.39</ele><time>2026-08-20T20:43:24Z</time></trkpt><trkpt lat="59.1032525618" lon="30.4893676657"><ele>304.39</ele><time>2026-08-20T20:43:25Z</time></trkpt><trkpt lat="59.1032525618" lon="30.4893676657"><ele>304.39</ele><time>2026-08-20T20:43:26Z</time></trkpt><trkpt lat="59.1032525618" lon="30.4893676657"><ele>304.39</ele><time>2026-08-20T20:43:27Z</time></trkpt><trkpt lat="59.1032525618" lon="30.4893676657"><ele>304.39</ele><time>2026-08-20T20:43:28Z</time></trkpt><trkpt lat="59.1032525618" lon="30.4893676657"><ele>304.39</ele><time>2026-08-20T20:43:29Z</time></trkpt><trkpt lat="59.1032525618" lon="30.4893676657"><ele>304.39</ele><time>2026-08-20T20:43:30Z</time></trkpt><trkpt lat="59.1032525618" lon="30.4893676657"><ele>304.39</ele><time>2026-08-20T20:43:31Z</time></trkpt><trkpt lat="59.1032525618" lon="30.4893676657"><ele>304.39</ele><time>2026-08-20T20:43:32Z</time></trkpt><trkpt lat="59.1032525618" lon="30.4893676657"><ele>304.39</ele><time>2026-08-20T20:43:33Z</time></trkpt><trkpt lat="59.1032525618" lon="30.4893676657"><ele>304.39</ele><time>2026-08-20T20:43:34Z</time></trkpt><trkpt lat="59.1032525618" lon="30.4893676657"><ele>304.39</ele><time>2026-08-20T20:43:35Z</time></trkpt><trkpt lat="59.1032525618" lon="30.4893676657"><ele>304.39</ele><time>2026-08-20T20:43:36Z</time></trkpt><trkpt lat="59.1032525618" lon="30.4893676657"><ele>304.39</ele><time>2026-08-20T20:43:37Z</time></trkpt><trkpt lat="59.1032525618" lon="30.4893676657"><ele>304.39</ele><time>2026-08-20T20:43:38Z</time></trkpt><trkpt lat="59.1032525618" lon="30.4893676657"><ele>304.39</ele><time>2026-08-20T20:43:39Z</time></trkpt><trkpt lat="59.1032525618" lon="30.4893676657"><ele>304.39</ele><time>2026-08-20T20:43:40Z</time></trkpt><trkpt lat="59.1032525618" lon="30.4893676657"><ele>304.39</ele><time>2026-08-20T20:43:41Z</time></trkpt><trkpt lat="59.1032525618" lon="30.4893676657"><ele>304.39</ele><time>2026-08-20T20:43:42Z</time></trkpt><trkpt lat="59.1032525618" lon="30.4893676657"><ele>304.39</ele><time>2026-08-20T20:43:43Z</time></trkpt><trkpt lat="59.1032525618" lon="30.4893676657"><ele>304.39</ele><time>2026-08-20T20:43:44Z</time></trkpt><trkpt lat="59.1032525618" lon="30.4893676657"><ele>304.39</ele><time>2026-08-20T20:43:45Z</time></trkpt><trkpt lat="59.1032525618" lon="30.4893676657"><ele>304.39</ele><time>2026-08-20T20:43:46Z</time></trkpt><trkpt lat="59.1032525618" lon="30.4893676657"><ele>304.39</ele><time>2026-08-20T20:43:47Z</time></trkpt><trkpt lat="59.1032525618" lon="30.4893676657"><ele>304.39</ele><time>2026-08-20T20:43:48Z</time></trkpt><trkpt lat="59.1032525618" lon="30.4893676657"><ele>304.39</ele><time>2026-08-20T20:43:49Z</time></trkpt><trkpt lat="59.1032525618" lon="30.4893676657"><ele>304.39</ele><time>2026-08-20T20:43:50Z</time></trkpt><trkpt lat="59.1032525618" lon="30.4893676657"><ele>304.39</ele><time>2026-08-20T20:43:51Z</time></trkpt><trkpt lat="59.1032525618" lon="30.4893676657"><ele>304.39</ele><time>2026-08-20T20:43:52Z</time></trkpt><trkpt lat="59.1032525618" lon="30.4893676657"><ele>304.39</ele><time>2026-08-20T20:43:53Z</time></trkpt><trkpt lat="59.1032525618" lon="30.4893676657"><ele>304.39</ele><time>2026-08-20T20:43:54Z</time></trkpt><trkpt lat="59.1032525618" lon="30.4893676657"><ele>304.39</ele><time>2026-08-20T20:43:55Z</time></trkpt><trkpt lat="59.1032525618" lon="30.4893676657"><ele>304.39</ele><time>2026-08-20T20:43:56Z</time></trkpt><trkpt lat="59.1032525618" lon="30.4893676657"><ele>304.39</ele><time>2026-08-20T20:43:57Z</time></trkpt><trkpt lat="59.1032525618" lon="30.4893676657"><ele>304.39</ele><time>2026-08-20T20:43:58Z</time></trkpt><trkpt lat="59.1032525618" lon="30.4893676657"><ele>304.39</ele><time>2026-08-20T20:43:59Z</time></trkpt><trkpt lat="59.1032525618" lon="30.4893676657"><ele>304.39</ele><time>2026-08-20T20:44:00Z</time></trkpt><trkpt lat="59.1032525618" lon="30.4893676657"><ele>304.39</ele><time>2026-08-20T20:44:01Z</time></trkpt><trkpt lat="59.1032525618" lon="30.4893676657"><ele>304.39</ele><time>2026-08-20T20:44:02Z</time></trkpt><trkpt lat="59.1032525618" lon="30.4893676657"><ele>304.39</ele><time>2026-08-20T20:44:03Z</time></trkpt><trkpt lat="59.1032525618" lon="30.4893676657"><ele>304.39</ele><time>2026-08-20T20:44:04Z</time></trkpt><trkpt lat="59.1032525618" lon="30.4893676657"><ele>304.39</ele><time>2026-08-20T20:44:05Z</time></trkpt><trkpt lat="59.1032525618" lon="30.4893676657"><ele>304.39</ele><time>2026-08-20T20:44:06Z</time></trkpt><trkpt lat="59.1032525618" lon="30.4893676657"><ele>304.39</ele><time>2026-08-20T20:44:07Z</time></trkpt><trkpt lat="59.1032525618" lon="30.4893676657"><ele>304.39</ele><time>2026-08-20T20:44:08Z</time></trkpt><trkpt lat="59.1032525618" lon="30.4893676657"><ele>304.39</ele><time>2026-08-20T20:44:09Z</time></trkpt><trkpt lat="59.1032525618" lon="30.4893676657"><ele>304.39</ele><time>2026-08-20T20:44:10Z</time></trkpt><trkpt lat="59.1032525618" lon="30.4893676657"><ele>304.39</ele><time>2026-08-20T20:44:11Z</time></trkpt><trkpt lat="59.1032525618" lon="30.4893676657"><ele>304.39</ele><time>2026-08-20T20:44:12Z</time></trkpt><trkpt lat="59.1032525618" lon="30.4893676657"><ele>304.39</ele><time>2026-08-20T20:44:13Z</time></trkpt><trkpt lat="59.1032525618" lon="30.4893676657"><ele>304.39</ele><time>2026-08-20T20:44:14Z</time></trkpt><trkpt lat="59.1032525618" lon="30.4893676657"><ele>304.39</ele><time>2026-08-20T20:44:15Z</time></trkpt><trkpt lat="59.1032525618" lon="30.4893676657"><ele>304.39</ele><time>2026-08-20T20:44:16Z</time></trkpt><trkpt lat="59.1032525618" lon="30.4893676657"><ele>304.39</ele><time>2026-08-20T20:44:17Z</time></trkpt><trkpt lat="59.1032525618" lon="30.4893676657"><ele>304.39</ele><time>2026-08-20T20:44:18Z</time></trkpt><trkpt lat="59.1032525618" lon="30.4893676657"><ele>304.39</ele><time>2026-08-20T20:44:19Z</time></trkpt><trkpt lat="59.1032525618" lon="30.4893676657"><ele>304.39</ele><time>2026-08-20T20:44:20Z</time></trkpt><trkpt lat="59.1032525618" lon="30.4893676657"><ele>304.39</ele><time>2026-08-20T20:44:21Z</time></trkpt><trkpt lat="59.1032525618" lon="30.4893676657"><ele>304.39</ele><time>2026-08-20T20:44:22Z</time></trkpt><trkpt lat="59.1032525618" lon="30.4893676657"><ele>304.39</ele><time>2026-08-20T20:44:23Z</time></trkpt><trkpt lat="59.1032525618" lon="30.4893676657"><ele>304.39</ele><time>2026-08-20T20:44:24Z</time></trkpt><trkpt lat="59.1032525618" lon="30.4893676657"><ele>304.39</ele><time>2026-08-20T20:44:25Z</time></trkpt><trkpt lat="59.1032525618" lon="30.4893676657"><ele>304.39</ele><time>2026-08-20T20:44:26Z</time></trkpt><trkpt lat="59.1032525618" lon="30.4893676657"><ele>304.39</ele><time>2026-08-20T20:44:27Z</time></trkpt><trkpt lat="59.1032525618" lon="30.4893676657"><ele>304.39</ele><time>2026-08-20T20:44:28Z</time></trkpt><trkpt lat="59.1032525618" lon="30.4893676657"><ele>304.39</ele><time>2026-08-20T20:44:29Z</time></trkpt><trkpt lat="59.1032525618" lon="30.4893676657"><ele>304.39</ele><time>2026-08-20T20:44:30Z</time></trkpt><trkpt lat="59.1032525618" lon="30.4893676657"><ele>304.39</ele><time>2026-08-20T20:44:31Z</time></trkpt><trkpt lat="59.1032525618" lon="30.4893676657"><ele>304.39</ele><time>2026-08-20T20:44:32Z</time></trkpt><trkpt lat="59.1032525618" lon="30.4893676657"><ele>304.39</ele><time>2026-08-20T20:44:33Z</time></trkpt><trkpt lat="59.1032525618" lon="30.4893676657"><ele>304.39</ele><time>2026-08-20T20:44:34Z</time></trkpt><trkpt lat="59.1032525618" lon="30.4893676657"><ele>304.39</ele><time>2026-08-20T20:44:35Z</time></trkpt><trkpt lat="59.1032525618" lon="30.4893676657"><ele>304.39</ele><time>2026-08-20T20:44:36Z</time></trkpt><trkpt lat="59.1032525618" lon="30.4893676657"><ele>304.39</ele><time>2026-08-20T20:44:37Z</time></trkpt><trkpt lat="59.1032525618" lon="30.4893676657"><ele>304.88</ele><time>2026-08-20T20:44:38Z</time></trkpt><trkpt lat="59.1032525618" lon="30.4893676657"><ele>304.88</ele><time>2026-08-20T20:44:39Z</time></trkpt><trkpt lat="59.1032502986" lon="30.4893785622"><ele>304.88</ele><time>2026-08-20T20:44:40Z</time></trkpt><trkpt lat="59.1032491252" lon="30.4893947393"><ele>304.88</ele><time>2026-08-20T20:44:41Z</time></trkpt><trkpt lat="59.1032470297" lon="30.4894145206"><ele>304.88</ele><time>2026-08-20T20:44:42Z</time></trkpt><trkpt lat="59.1032458562" lon="30.4894331284"><ele>304.39</ele><time>2026-08-20T20:44:43Z</time></trkpt><trkpt lat="59.1032446828" lon="30.4894520715"><ele>304.39</ele><time>2026-08-20T20:44:44Z</time></trkpt><trkpt lat="59.1032474488" lon="30.4894706793"><ele>304.39</ele><time>2026-08-20T20:44:45Z</time></trkpt><trkpt lat="59.1032475326" lon="30.4894921370"><ele>304.39</ele><time>2026-08-20T20:44:46Z</time></trkpt><trkpt lat="59.1032479517" lon="30.4895148519"><ele>304.39</ele><time>2026-08-20T20:44:47Z</time></trkpt><trkpt lat="59.1032468621" lon="30.4895358905"><ele>304.39</ele><time>2026-08-20T20:44:48Z</time></trkpt><trkpt lat="59.1032465268" lon="30.4895492177"><ele>304.39</ele><time>2026-08-20T20:44:49Z</time></trkpt><trkpt lat="59.1032450181" lon="30.4895592760"><ele>304.39</ele><time>2026-08-20T20:44:50Z</time></trkpt><trkpt lat="59.1032445990" lon="30.4895742796"><ele>304.39</ele><time>2026-08-20T20:44:51Z</time></trkpt><trkpt lat="59.1032463592" lon="30.4895977490"><ele>304.39</ele><time>2026-08-20T20:44:52Z</time></trkpt><trkpt lat="59.1032463592" lon="30.4896153510"><ele>304.39</ele><time>2026-08-20T20:44:53Z</time></trkpt><trkpt lat="59.1032461915" lon="30.4896335397"><ele>304.39</ele><time>2026-08-20T20:44:54Z</time></trkpt><trkpt lat="59.1032435931" lon="30.4896533210"><ele>304.39</ele><time>2026-08-20T20:44:55Z</time></trkpt><trkpt lat="59.1032412462" lon="30.4896752816"><ele>304.39</ele><time>2026-08-20T20:44:56Z</time></trkpt><trkpt lat="59.1032400727" lon="30.4896941409"><ele>304.39</ele><time>2026-08-20T20:44:57Z</time></trkpt><trkpt lat="59.1032403242" lon="30.4897138383"><ele>304.39</ele><time>2026-08-20T20:44:58Z</time></trkpt><trkpt lat="59.1032395698" lon="30.4897424206"><ele>304.39</ele><time>2026-08-20T20:44:59Z</time></trkpt><trkpt lat="59.1032400727" lon="30.4897646327"><ele>304.39</ele><time>2026-08-20T20:45:00Z</time></trkpt><trkpt lat="59.1032418329" lon="30.4897882696"><ele>304.39</ele><time>2026-08-20T20:45:01Z</time></trkpt><trkpt lat="59.1032431740" lon="30.4898100626"><ele>304.39</ele><time>2026-08-20T20:45:02Z</time></trkpt><trkpt lat="59.1032442637" lon="30.4898362979"><ele>304.39</ele><time>2026-08-20T20:45:03Z</time></trkpt><trkpt lat="59.1032432579" lon="30.4898559954"><ele>304.39</ele><time>2026-08-20T20:45:04Z</time></trkpt><trkpt lat="59.1032416653" lon="30.4898744356"><ele>304.39</ele><time>2026-08-20T20:45:05Z</time></trkpt><trkpt lat="59.1032431740" lon="30.4898925405"><ele>304.39</ele><time>2026-08-20T20:45:06Z</time></trkpt><trkpt lat="59.1032451857" lon="30.4899142496"><ele>304.39</ele><time>2026-08-20T20:45:07Z</time></trkpt><trkpt lat="59.1032474488" lon="30.4899357911"><ele>304.39</ele><time>2026-08-20T20:45:08Z</time></trkpt><trkpt lat="59.1032488737" lon="30.4899576679"><ele>304.39</ele><time>2026-08-20T20:45:09Z</time></trkpt><trkpt lat="59.1032523941" lon="30.4899777845"><ele>304.39</ele><time>2026-08-20T20:45:10Z</time></trkpt><trkpt lat="59.1032563336" lon="30.4899999965"><ele>304.39</ele><time>2026-08-20T20:45:11Z</time></trkpt><trkpt lat="59.1032601893" lon="30.4900240526"><ele>304.39</ele><time>2026-08-20T20:45:12Z</time></trkpt><trkpt lat="59.1032614466" lon="30.4900491983"><ele>304.39</ele><time>2026-08-20T20:45:13Z</time></trkpt><trkpt lat="59.1032613628" lon="30.4900678899"><ele>304.39</ele><time>2026-08-20T20:45:14Z</time></trkpt><trkpt lat="59.1032607760" lon="30.4900869168"><ele>304.39</ele><time>2026-08-20T20:45:15Z</time></trkpt><trkpt lat="59.1032588482" lon="30.4901078716"><ele>304.39</ele><time>2026-08-20T20:45:16Z</time></trkpt><trkpt lat="59.1032615304" lon="30.4901253898"><ele>304.39</ele><time>2026-08-20T20:45:17Z</time></trkpt><trkpt lat="59.1032661404" lon="30.4901445843"><ele>304.39</ele><time>2026-08-20T20:45:18Z</time></trkpt><trkpt lat="59.1032681521" lon="30.4901670478"><ele>304.39</ele><time>2026-08-20T20:45:19Z</time></trkpt><trkpt lat="59.1032678168" lon="30.4901899304"><ele>304.39</ele><time>2026-08-20T20:45:20Z</time></trkpt><trkpt lat="59.1032700799" lon="30.4902090412"><ele>304.39</ele><time>2026-08-20T20:45:21Z</time></trkpt><trkpt lat="59.1032718401" lon="30.4902275652"><ele>304.39</ele><time>2026-08-20T20:45:22Z</time></trkpt><trkpt lat="59.1032658890" lon="30.4902499449"><ele>304.39</ele><time>2026-08-20T20:45:23Z</time></trkpt><trkpt lat="59.1032608598" lon="30.4902732465"><ele>304.39</ele><time>2026-08-20T20:45:24Z</time></trkpt><trkpt lat="59.1032594349" lon="30.4902961291"><ele>304.39</ele><time>2026-08-20T20:45:25Z</time></trkpt><trkpt lat="59.1032627877" lon="30.4903156590"><ele>304.39</ele><time>2026-08-20T20:45:26Z</time></trkpt><trkpt lat="59.1032656375" lon="30.4903356917"><ele>304.39</ele><time>2026-08-20T20:45:27Z</time></trkpt><trkpt lat="59.1032679845" lon="30.4903514497"><ele>304.39</ele><time>2026-08-20T20:45:28Z</time></trkpt><trkpt lat="59.1032713372" lon="30.4903689679"><ele>304.39</ele><time>2026-08-20T20:45:29Z</time></trkpt><trkpt lat="59.1032775398" lon="30.4903916828"><ele>304.39</ele><time>2026-08-20T20:45:30Z</time></trkpt><trkpt lat="59.1032806411" lon="30.4904151522"><ele>304.39</ele><time>2026-08-20T20:45:31Z</time></trkpt><trkpt lat="59.1032815631" lon="30.4904384539"><ele>304.39</ele><time>2026-08-20T20:45:32Z</time></trkpt><trkpt lat="59.1032828204" lon="30.4904624261"><ele>304.39</ele><time>2026-08-20T20:45:33Z</time></trkpt><trkpt lat="59.1032830719" lon="30.4904855601"><ele>304.39</ele><time>2026-08-20T20:45:34Z</time></trkpt><trkpt lat="59.1032833233" lon="30.4905054253"><ele>304.39</ele><time>2026-08-20T20:45:35Z</time></trkpt><trkpt lat="59.1032861732" lon="30.4905179981"><ele>304.39</ele><time>2026-08-20T20:45:36Z</time></trkpt><trkpt lat="59.1032890230" lon="30.4905343428"><ele>304.39</ele><time>2026-08-20T20:45:37Z</time></trkpt><trkpt lat="59.1032942198" lon="30.4905546270"><ele>304.39</ele><time>2026-08-20T20:45:38Z</time></trkpt><trkpt lat="59.1032983270" lon="30.4905742407"><ele>304.39</ele><time>2026-08-20T20:45:39Z</time></trkpt><trkpt lat="59.1033018474" lon="30.4905918427"><ele>304.39</ele><time>2026-08-20T20:45:40Z</time></trkpt><trkpt lat="59.1033029370" lon="30.4906074330"><ele>304.39</ele><time>2026-08-20T20:45:41Z</time></trkpt><trkpt lat="59.1033008415" lon="30.4906214308"><ele>304.39</ele><time>2026-08-20T20:45:42Z</time></trkpt><trkpt lat="59.1033003386" lon="30.4906374402"><ele>304.39</ele><time>2026-08-20T20:45:43Z</time></trkpt><trkpt lat="59.1032989975" lon="30.4906442296"><ele>304.39</ele><time>2026-08-20T20:45:44Z</time></trkpt><trkpt lat="59.1032957286" lon="30.4906505998"><ele>304.39</ele><time>2026-08-20T20:45:45Z</time></trkpt><trkpt lat="59.1032957286" lon="30.4906505998"><ele>304.39</ele><time>2026-08-20T20:45:46Z</time></trkpt><trkpt lat="59.1032957286" lon="30.4906505998"><ele>304.39</ele><time>2026-08-20T20:45:47Z</time></trkpt><trkpt lat="59.1032986622" lon="30.4906826187"><ele>304.39</ele><time>2026-08-20T20:45:48Z</time></trkpt><trkpt lat="59.1033028532" lon="30.4906974547"><ele>304.39</ele><time>2026-08-20T20:45:49Z</time></trkpt><trkpt lat="59.1033089720" lon="30.4907177389"><ele>304.39</ele><time>2026-08-20T20:45:50Z</time></trkpt><trkpt lat="59.1033124924" lon="30.4907365981"><ele>304.39</ele><time>2026-08-20T20:45:51Z</time></trkpt><trkpt lat="59.1033183597" lon="30.4907561280"><ele>304.39</ele><time>2026-08-20T20:45:52Z</time></trkpt><trkpt lat="59.1033238918" lon="30.4907754902"><ele>304.39</ele><time>2026-08-20T20:45:53Z</time></trkpt><trkpt lat="59.1033295915" lon="30.4907974508"><ele>304.39</ele><time>2026-08-20T20:45:54Z</time></trkpt><trkpt lat="59.1033331957" lon="30.4908196628"><ele>304.39</ele><time>2026-08-20T20:45:55Z</time></trkpt><trkpt lat="59.1033320222" lon="30.4908349179"><ele>304.39</ele><time>2026-08-20T20:45:56Z</time></trkpt><trkpt lat="59.1033337824" lon="30.4908588901"><ele>304.39</ele><time>2026-08-20T20:45:57Z</time></trkpt><trkpt lat="59.1033358779" lon="30.4908846226"><ele>304.39</ele><time>2026-08-20T20:45:58Z</time></trkpt><trkpt lat="59.1033358779" lon="30.4909079242"><ele>304.39</ele><time>2026-08-20T20:45:59Z</time></trkpt><trkpt lat="59.1033365484" lon="30.4909325670"><ele>304.39</ele><time>2026-08-20T20:46:00Z</time></trkpt><trkpt lat="59.1033375543" lon="30.4909567907"><ele>304.39</ele><time>2026-08-20T20:46:01Z</time></trkpt><trkpt lat="59.1033390630" lon="30.4909793381"><ele>304.39</ele><time>2026-08-20T20:46:02Z</time></trkpt><trkpt lat="59.1033407394" lon="30.4910013825"><ele>304.39</ele><time>2026-08-20T20:46:03Z</time></trkpt><trkpt lat="59.1033419967" lon="30.4910239298"><ele>304.39</ele><time>2026-08-20T20:46:04Z</time></trkpt><trkpt lat="59.1033435892" lon="30.4910436273"><ele>304.39</ele><time>2026-08-20T20:46:05Z</time></trkpt><trkpt lat="59.1033477802" lon="30.4910633247"><ele>304.39</ele><time>2026-08-20T20:46:06Z</time></trkpt><trkpt lat="59.1033482831" lon="30.4910864588"><ele>304.39</ele><time>2026-08-20T20:46:07Z</time></trkpt><trkpt lat="59.1033496242" lon="30.4911104310"><ele>304.39</ele><time>2026-08-20T20:46:08Z</time></trkpt><trkpt lat="59.1033492889" lon="30.4911246803"><ele>304.39</ele><time>2026-08-20T20:46:09Z</time></trkpt><trkpt lat="59.1033471934" lon="30.4911359958"><ele>304.39</ele><time>2026-08-20T20:46:10Z</time></trkpt><trkpt lat="59.1033437569" lon="30.4911517538"><ele>304.39</ele><time>2026-08-20T20:46:11Z</time></trkpt><trkpt lat="59.1033432540" lon="30.4911737982"><ele>304.39</ele><time>2026-08-20T20:46:12Z</time></trkpt><trkpt lat="59.1033417452" lon="30.4911974352"><ele>304.39</ele><time>2026-08-20T20:46:13Z</time></trkpt><trkpt lat="59.1033398174" lon="30.4912153725"><ele>304.39</ele><time>2026-08-20T20:46:14Z</time></trkpt><trkpt lat="59.1033395659" lon="30.4912290350"><ele>304.39</ele><time>2026-08-20T20:46:15Z</time></trkpt><trkpt lat="59.1033389792" lon="30.4912414402"><ele>304.39</ele><time>2026-08-20T20:46:16Z</time></trkpt><trkpt lat="59.1033393983" lon="30.4912486486"><ele>304.39</ele><time>2026-08-20T20:46:17Z</time></trkpt><trkpt lat="59.1033416614" lon="30.4912556894"><ele>304.39</ele><time>2026-08-20T20:46:18Z</time></trkpt><trkpt lat="59.1033440921" lon="30.4912698548"><ele>304.39</ele><time>2026-08-20T20:46:19Z</time></trkpt><trkpt lat="59.1033452656" lon="30.4912846908"><ele>304.39</ele><time>2026-08-20T20:46:20Z</time></trkpt><trkpt lat="59.1033477802" lon="30.4912980180"><ele>304.39</ele><time>2026-08-20T20:46:21Z</time></trkpt><trkpt lat="59.1033491213" lon="30.4913116805"><ele>304.39</ele><time>2026-08-20T20:46:22Z</time></trkpt><trkpt lat="59.1033501271" lon="30.4913267680"><ele>304.39</ele><time>2026-08-20T20:46:23Z</time></trkpt><trkpt lat="59.1033494566" lon="30.4913430288"><ele>304.39</ele><time>2026-08-20T20:46:24Z</time></trkpt><trkpt lat="59.1033508815" lon="30.4913569428"><ele>304.39</ele><time>2026-08-20T20:46:25Z</time></trkpt><trkpt lat="59.1033579223" lon="30.4913743772"><ele>304.39</ele><time>2026-08-20T20:46:26Z</time></trkpt><trkpt lat="59.1033566650" lon="30.4913939908"><ele>304.39</ele><time>2026-08-20T20:46:27Z</time></trkpt><trkpt lat="59.1033536475" lon="30.4914136883"><ele>304.39</ele><time>2026-08-20T20:46:28Z</time></trkpt><trkpt lat="59.1033531446" lon="30.4914332181"><ele>304.39</ele><time>2026-08-20T20:46:29Z</time></trkpt><trkpt lat="59.1033534799" lon="30.4914522450"><ele>304.39</ele><time>2026-08-20T20:46:30Z</time></trkpt><trkpt lat="59.1033539828" lon="30.4914721940"><ele>304.39</ele><time>2026-08-20T20:46:31Z</time></trkpt><trkpt lat="59.1033571679" lon="30.4914913885"><ele>304.39</ele><time>2026-08-20T20:46:32Z</time></trkpt><trkpt lat="59.1033617780" lon="30.4915085714"><ele>304.39</ele><time>2026-08-20T20:46:33Z</time></trkpt><trkpt lat="59.1033662204" lon="30.4915283527"><ele>304.39</ele><time>2026-08-20T20:46:34Z</time></trkpt><trkpt lat="59.1033708304" lon="30.4915498942"><ele>304.39</ele><time>2026-08-20T20:46:35Z</time></trkpt><trkpt lat="59.1033713333" lon="30.4915685859"><ele>304.39</ele><time>2026-08-20T20:46:36Z</time></trkpt><trkpt lat="59.1033753566" lon="30.4915805720"><ele>304.39</ele><time>2026-08-20T20:46:37Z</time></trkpt><trkpt lat="59.1033739317" lon="30.4915990960"><ele>304.39</ele><time>2026-08-20T20:46:38Z</time></trkpt><trkpt lat="59.1033724230" lon="30.4916201346"><ele>304.39</ele><time>2026-08-20T20:46:39Z</time></trkpt><trkpt lat="59.1033690702" lon="30.4916393291"><ele>304.39</ele><time>2026-08-20T20:46:40Z</time></trkpt><trkpt lat="59.1033668909" lon="30.4916619603"><ele>304.39</ele><time>2026-08-20T20:46:41Z</time></trkpt><trkpt lat="59.1033650469" lon="30.4916857649"><ele>304.39</ele><time>2026-08-20T20:46:42Z</time></trkpt><trkpt lat="59.1033673938" lon="30.4917084798"><ele>304.39</ele><time>2026-08-20T20:46:43Z</time></trkpt><trkpt lat="59.1033707466" lon="30.4917283449"><ele>304.39</ele><time>2026-08-20T20:46:44Z</time></trkpt><trkpt lat="59.1033751890" lon="30.4917491321"><ele>304.39</ele><time>2026-08-20T20:46:45Z</time></trkpt><trkpt lat="59.1033776198" lon="30.4917714279"><ele>304.39</ele><time>2026-08-20T20:46:46Z</time></trkpt><trkpt lat="59.1033806372" lon="30.4917919636"><ele>304.39</ele><time>2026-08-20T20:46:47Z</time></trkpt><trkpt lat="59.1033819783" lon="30.4918098170"><ele>304.39</ele><time>2026-08-20T20:46:48Z</time></trkpt><trkpt lat="59.1033859178" lon="30.4918256588"><ele>304.39</ele><time>2026-08-20T20:46:49Z</time></trkpt><trkpt lat="59.1033871751" lon="30.4918491282"><ele>304.39</ele><time>2026-08-20T20:46:50Z</time></trkpt><trkpt lat="59.1033891868" lon="30.4918722622"><ele>304.39</ele><time>2026-08-20T20:46:51Z</time></trkpt><trkpt lat="59.1033916175" lon="30.4918938875"><ele>304.39</ele><time>2026-08-20T20:46:52Z</time></trkpt><trkpt lat="59.1033941321" lon="30.4919175245"><ele>304.39</ele><time>2026-08-20T20:46:53Z</time></trkpt><trkpt lat="59.1033937968" lon="30.4919433407"><ele>304.39</ele><time>2026-08-20T20:46:54Z</time></trkpt><trkpt lat="59.1033957247" lon="30.4919675644"><ele>304.39</ele><time>2026-08-20T20:46:55Z</time></trkpt><trkpt lat="59.1034006700" lon="30.4919848312"><ele>304.39</ele><time>2026-08-20T20:46:56Z</time></trkpt><trkpt lat="59.1034011729" lon="30.4919984937"><ele>304.39</ele><time>2026-08-20T20:46:57Z</time></trkpt><trkpt lat="59.1034029331" lon="30.4920100607"><ele>304.39</ele><time>2026-08-20T20:46:58Z</time></trkpt><trkpt lat="59.1034054477" lon="30.4920247290"><ele>304.39</ele><time>2026-08-20T20:46:59Z</time></trkpt><trkpt lat="59.1034062859" lon="30.4920502938"><ele>304.39</ele><time>2026-08-20T20:47:00Z</time></trkpt><trkpt lat="59.1034068726" lon="30.4920721706"><ele>304.39</ele><time>2026-08-20T20:47:01Z</time></trkpt><trkpt lat="59.1034091357" lon="30.4920924548"><ele>304.39</ele><time>2026-08-20T20:47:02Z</time></trkpt><trkpt lat="59.1034099739" lon="30.4921183549"><ele>304.39</ele><time>2026-08-20T20:47:03Z</time></trkpt><trkpt lat="59.1034106445" lon="30.4921464343"><ele>304.39</ele><time>2026-08-20T20:47:04Z</time></trkpt><trkpt lat="59.1034113988" lon="30.4921722505"><ele>304.39</ele><time>2026-08-20T20:47:05Z</time></trkpt><trkpt lat="59.1034128238" lon="30.4921977315"><ele>304.39</ele><time>2026-08-20T20:47:06Z</time></trkpt><trkpt lat="59.1034141649" lon="30.4922206979"><ele>304.39</ele><time>2026-08-20T20:47:07Z</time></trkpt><trkpt lat="59.1034145840" lon="30.4922439996"><ele>304.39</ele><time>2026-08-20T20:47:08Z</time></trkpt><trkpt lat="59.1034156736" lon="30.4922724981"><ele>304.39</ele><time>2026-08-20T20:47:09Z</time></trkpt><trkpt lat="59.1034172662" lon="30.4922982305"><ele>304.39</ele><time>2026-08-20T20:47:10Z</time></trkpt><trkpt lat="59.1034184396" lon="30.4923206940"><ele>304.39</ele><time>2026-08-20T20:47:11Z</time></trkpt><trkpt lat="59.1034216247" lon="30.4923444986"><ele>304.39</ele><time>2026-08-20T20:47:12Z</time></trkpt><trkpt lat="59.1034248937" lon="30.4923694767"><ele>304.39</ele><time>2026-08-20T20:47:13Z</time></trkpt><trkpt lat="59.1034274921" lon="30.4923932813"><ele>304.39</ele><time>2026-08-20T20:47:14Z</time></trkpt><trkpt lat="59.1034289170" lon="30.4924151581"><ele>304.39</ele><time>2026-08-20T20:47:15Z</time></trkpt><trkpt lat="59.1034301743" lon="30.4924395494"><ele>304.39</ele><time>2026-08-20T20:47:16Z</time></trkpt><trkpt lat="59.1034294199" lon="30.4924675450"><ele>304.39</ele><time>2026-08-20T20:47:17Z</time></trkpt><trkpt lat="59.1034297552" lon="30.4924919363"><ele>304.39</ele><time>2026-08-20T20:47:18Z</time></trkpt><trkpt lat="59.1034307610" lon="30.4925150704"><ele>304.39</ele><time>2026-08-20T20:47:19Z</time></trkpt><trkpt lat="59.1034320183" lon="30.4925375339"><ele>304.39</ele><time>2026-08-20T20:47:20Z</time></trkpt><trkpt lat="59.1034330241" lon="30.4925547168"><ele>304.39</ele><time>2026-08-20T20:47:21Z</time></trkpt><trkpt lat="59.1034306772" lon="30.4925734922"><ele>304.39</ele><time>2026-08-20T20:47:22Z</time></trkpt><trkpt lat="59.1034289170" lon="30.4925907589"><ele>304.39</ele><time>2026-08-20T20:47:23Z</time></trkpt><trkpt lat="59.1034313478" lon="30.4926160723"><ele>304.39</ele><time>2026-08-20T20:47:24Z</time></trkpt><trkpt lat="59.1034304257" lon="30.4926319979"><ele>304.39</ele><time>2026-08-20T20:47:25Z</time></trkpt><trkpt lat="59.1034295876" lon="30.4926363565"><ele>304.39</ele><time>2026-08-20T20:47:26Z</time></trkpt><trkpt lat="59.1034288332" lon="30.4926407989"><ele>304.39</ele><time>2026-08-20T20:47:27Z</time></trkpt><trkpt lat="59.1034288332" lon="30.4926407989"><ele>304.39</ele><time>2026-08-20T20:47:28Z</time></trkpt><trkpt lat="59.1034253966" lon="30.4926562216"><ele>304.39</ele><time>2026-08-20T20:47:29Z</time></trkpt><trkpt lat="59.1034250613" lon="30.4926629271"><ele>304.39</ele><time>2026-08-20T20:47:30Z</time></trkpt><trkpt lat="59.1034255642" lon="30.4926735722"><ele>304.39</ele><time>2026-08-20T20:47:31Z</time></trkpt><trkpt lat="59.1034279950" lon="30.4926920962"><ele>304.39</ele><time>2026-08-20T20:47:32Z</time></trkpt><trkpt lat="59.1034319345" lon="30.4927072674"><ele>304.39</ele><time>2026-08-20T20:47:33Z</time></trkpt><trkpt lat="59.1034301743" lon="30.4927232768"><ele>304.39</ele><time>2026-08-20T20:47:34Z</time></trkpt><trkpt lat="59.1034318507" lon="30.4927401245"><ele>304.39</ele><time>2026-08-20T20:47:35Z</time></trkpt><trkpt lat="59.1034328565" lon="30.4927573912"><ele>304.39</ele><time>2026-08-20T20:47:36Z</time></trkpt><trkpt lat="59.1034334432" lon="30.4927725624"><ele>304.39</ele><time>2026-08-20T20:47:37Z</time></trkpt><trkpt lat="59.1034349520" lon="30.4927868955"><ele>304.39</ele><time>2026-08-20T20:47:38Z</time></trkpt><trkpt lat="59.1034367960" lon="30.4928017315"><ele>304.39</ele><time>2026-08-20T20:47:39Z</time></trkpt><trkpt lat="59.1034404840" lon="30.4928221833"><ele>304.39</ele><time>2026-08-20T20:47:40Z</time></trkpt><trkpt lat="59.1034432501" lon="30.4928424675"><ele>304.39</ele><time>2026-08-20T20:47:41Z</time></trkpt><trkpt lat="59.1034438368" lon="30.4928658530"><ele>304.39</ele><time>2026-08-20T20:47:42Z</time></trkpt><trkpt lat="59.1034454294" lon="30.4928879812"><ele>304.39</ele><time>2026-08-20T20:47:43Z</time></trkpt><trkpt lat="59.1034469381" lon="30.4929084331"><ele>304.39</ele><time>2026-08-20T20:47:44Z</time></trkpt><trkpt lat="59.1034499556" lon="30.4929259513"><ele>304.39</ele><time>2026-08-20T20:47:45Z</time></trkpt><trkpt lat="59.1034509614" lon="30.4929361772"><ele>304.39</ele><time>2026-08-20T20:47:46Z</time></trkpt><trkpt lat="59.1034507938" lon="30.4929337464"><ele>304.39</ele><time>2026-08-20T20:47:47Z</time></trkpt><trkpt lat="59.1034557391" lon="30.4929398652"><ele>304.39</ele><time>2026-08-20T20:47:48Z</time></trkpt><trkpt lat="59.1034587566" lon="30.4929520190"><ele>304.39</ele><time>2026-08-20T20:47:49Z</time></trkpt><trkpt lat="59.1034578346" lon="30.4929630831"><ele>304.39</ele><time>2026-08-20T20:47:50Z</time></trkpt><trkpt lat="59.1034586728" lon="30.4929730576"><ele>304.39</ele><time>2026-08-20T20:47:51Z</time></trkpt><trkpt lat="59.1034580860" lon="30.4929821938"><ele>304.39</ele><time>2026-08-20T20:47:52Z</time></trkpt><trkpt lat="59.1034572478" lon="30.4929917492"><ele>304.39</ele><time>2026-08-20T20:47:53Z</time></trkpt><trkpt lat="59.1034574993" lon="30.4930051602"><ele>304.39</ele><time>2026-08-20T20:47:54Z</time></trkpt><trkpt lat="59.1034571640" lon="30.4930219240"><ele>304.39</ele><time>2026-08-20T20:47:55Z</time></trkpt><trkpt lat="59.1034575831" lon="30.4930348322"><ele>304.39</ele><time>2026-08-20T20:47:56Z</time></trkpt><trkpt lat="59.1034575831" lon="30.4930459801"><ele>304.39</ele><time>2026-08-20T20:47:57Z</time></trkpt><trkpt lat="59.1034579184" lon="30.4930653423"><ele>304.39</ele><time>2026-08-20T20:47:58Z</time></trkpt><trkpt lat="59.1034601815" lon="30.4930810165"><ele>304.39</ele><time>2026-08-20T20:47:59Z</time></trkpt><trkpt lat="59.1034599300" lon="30.4930952657"><ele>304.39</ele><time>2026-08-20T20:48:00Z</time></trkpt><trkpt lat="59.1034603491" lon="30.4931110237"><ele>304.39</ele><time>2026-08-20T20:48:01Z</time></trkpt><trkpt lat="59.1034599300" lon="30.4931248538"><ele>304.39</ele><time>2026-08-20T20:48:02Z</time></trkpt><trkpt lat="59.1034596786" lon="30.4931335710"><ele>304.39</ele><time>2026-08-20T20:48:03Z</time></trkpt><trkpt lat="59.1034589242" lon="30.4931415338"><ele>304.39</ele><time>2026-08-20T20:48:04Z</time></trkpt><trkpt lat="59.1034609359" lon="30.4931521788"><ele>304.39</ele><time>2026-08-20T20:48:05Z</time></trkpt><trkpt lat="59.1034610197" lon="30.4931616504"><ele>304.39</ele><time>2026-08-20T20:48:06Z</time></trkpt><trkpt lat="59.1034656297" lon="30.4931813478"><ele>304.39</ele><time>2026-08-20T20:48:07Z</time></trkpt><trkpt lat="59.1034680605" lon="30.4931978602"><ele>304.39</ele><time>2026-08-20T20:48:08Z</time></trkpt><trkpt lat="59.1034694854" lon="30.4932052363"><ele>304.39</ele><time>2026-08-20T20:48:09Z</time></trkpt><trkpt lat="59.1034703236" lon="30.4932159651"><ele>304.39</ele><time>2026-08-20T20:48:10Z</time></trkpt><trkpt lat="59.1034715809" lon="30.4932330642"><ele>304.39</ele><time>2026-08-20T20:48:11Z</time></trkpt><trkpt lat="59.1034736764" lon="30.4932513367"><ele>304.39</ele><time>2026-08-20T20:48:12Z</time></trkpt><trkpt lat="59.1034736764" lon="30.4932663403"><ele>304.39</ele><time>2026-08-20T20:48:13Z</time></trkpt><trkpt lat="59.1034727544" lon="30.4932838585"><ele>304.39</ele><time>2026-08-20T20:48:14Z</time></trkpt><trkpt lat="59.1034727544" lon="30.4933026340"><ele>304.39</ele><time>2026-08-20T20:48:15Z</time></trkpt><trkpt lat="59.1034689825" lon="30.4933232535"><ele>304.39</ele><time>2026-08-20T20:48:16Z</time></trkpt><trkpt lat="59.1034633666" lon="30.4933341499"><ele>304.39</ele><time>2026-08-20T20:48:17Z</time></trkpt><trkpt lat="59.1034600977" lon="30.4933423642"><ele>303.91</ele><time>2026-08-20T20:48:18Z</time></trkpt><trkpt lat="59.1034603491" lon="30.4933554400"><ele>303.91</ele><time>2026-08-20T20:48:19Z</time></trkpt><trkpt lat="59.1034588404" lon="30.4933718685"><ele>303.91</ele><time>2026-08-20T20:48:20Z</time></trkpt><trkpt lat="59.1034594271" lon="30.4933849443"><ele>303.91</ele><time>2026-08-20T20:48:21Z</time></trkpt><trkpt lat="59.1034595948" lon="30.4933961760"><ele>303.91</ele><time>2026-08-20T20:48:22Z</time></trkpt><trkpt lat="59.1034592595" lon="30.4934119340"><ele>303.91</ele><time>2026-08-20T20:48:23Z</time></trkpt><trkpt lat="59.1034567449" lon="30.4934323858"><ele>303.91</ele><time>2026-08-20T20:48:24Z</time></trkpt><trkpt lat="59.1034550685" lon="30.4934511613"><ele>303.91</ele><time>2026-08-20T20:48:25Z</time></trkpt><trkpt lat="59.1034558229" lon="30.4934676737"><ele>303.91</ele><time>2026-08-20T20:48:26Z</time></trkpt><trkpt lat="59.1034578346" lon="30.4934888799"><ele>303.91</ele><time>2026-08-20T20:48:27Z</time></trkpt><trkpt lat="59.1034585889" lon="30.4935065657"><ele>303.91</ele><time>2026-08-20T20:48:28Z</time></trkpt><trkpt lat="59.1034597624" lon="30.4935165402"><ele>303.91</ele><time>2026-08-20T20:48:29Z</time></trkpt><trkpt lat="59.1034609359" lon="30.4935191385"><ele>303.91</ele><time>2026-08-20T20:48:30Z</time></trkpt><trkpt lat="59.1034611873" lon="30.4935210664"><ele>303.91</ele><time>2026-08-20T20:48:31Z</time></trkpt><trkpt lat="59.1034597624" lon="30.4935258441"><ele>303.91</ele><time>2026-08-20T20:48:32Z</time></trkpt><trkpt lat="59.1034597624" lon="30.4935258441"><ele>303.91</ele><time>2026-08-20T20:48:33Z</time></trkpt><trkpt lat="59.1034604330" lon="30.4935481399"><ele>303.91</ele><time>2026-08-20T20:48:34Z</time></trkpt><trkpt lat="59.1034657974" lon="30.4935601261"><ele>304.39</ele><time>2026-08-20T20:48:35Z</time></trkpt><trkpt lat="59.1034698207" lon="30.4935754649"><ele>304.39</ele><time>2026-08-20T20:48:36Z</time></trkpt><trkpt lat="59.1034743469" lon="30.4935968388"><ele>304.39</ele><time>2026-08-20T20:48:37Z</time></trkpt><trkpt lat="59.1034797952" lon="30.4936134350"><ele>304.39</ele><time>2026-08-20T20:48:38Z</time></trkpt><trkpt lat="59.1034832317" lon="30.4936248343"><ele>304.39</ele><time>2026-08-20T20:48:39Z</time></trkpt><trkpt lat="59.1034854949" lon="30.4936356470"><ele>304.39</ele><time>2026-08-20T20:48:40Z</time></trkpt><trkpt lat="59.1034861654" lon="30.4936481360"><ele>304.39</ele><time>2026-08-20T20:48:41Z</time></trkpt><trkpt lat="59.1034842376" lon="30.4936591163"><ele>304.39</ele><time>2026-08-20T20:48:42Z</time></trkpt><trkpt lat="59.1034870874" lon="30.4936752934"><ele>304.39</ele><time>2026-08-20T20:48:43Z</time></trkpt><trkpt lat="59.1034883447" lon="30.4936940689"><ele>304.39</ele><time>2026-08-20T20:48:44Z</time></trkpt><trkpt lat="59.1034881771" lon="30.4937091563"><ele>304.39</ele><time>2026-08-20T20:48:45Z</time></trkpt><trkpt lat="59.1034878418" lon="30.4937312845"><ele>304.39</ele><time>2026-08-20T20:48:46Z</time></trkpt><trkpt lat="59.1034874227" lon="30.4937485512"><ele>304.39</ele><time>2026-08-20T20:48:47Z</time></trkpt><trkpt lat="59.1034872551" lon="30.4937657341"><ele>304.39</ele><time>2026-08-20T20:48:48Z</time></trkpt><trkpt lat="59.1034892667" lon="30.4937731940"><ele>304.39</ele><time>2026-08-20T20:48:49Z</time></trkpt><trkpt lat="59.1034903564" lon="30.4937857669"><ele>304.39</ele><time>2026-08-20T20:48:50Z</time></trkpt><trkpt lat="59.1034900211" lon="30.4937887844"><ele>304.39</ele><time>2026-08-20T20:48:51Z</time></trkpt><trkpt lat="59.1034891829" lon="30.4937870242"><ele>304.39</ele><time>2026-08-20T20:48:52Z</time></trkpt><trkpt lat="59.1034873389" lon="30.4937866889"><ele>303.91</ele><time>2026-08-20T20:48:53Z</time></trkpt><trkpt lat="59.1034873389" lon="30.4937866889"><ele>304.39</ele><time>2026-08-20T20:48:54Z</time></trkpt><trkpt lat="59.1034873389" lon="30.4937866889"><ele>304.39</ele><time>2026-08-20T20:48:55Z</time></trkpt><trkpt lat="59.1034873389" lon="30.4937866889"><ele>304.39</ele><time>2026-08-20T20:48:56Z</time></trkpt><trkpt lat="59.1034873389" lon="30.4937866889"><ele>304.39</ele><time>2026-08-20T20:48:57Z</time></trkpt><trkpt lat="59.1034873389" lon="30.4937866889"><ele>304.39</ele><time>2026-08-20T20:48:58Z</time></trkpt><trkpt lat="59.1034873389" lon="30.4937866889"><ele>304.39</ele><time>2026-08-20T20:48:59Z</time></trkpt><trkpt lat="59.1034873389" lon="30.4937866889"><ele>304.39</ele><time>2026-08-20T20:49:00Z</time></trkpt><trkpt lat="59.1034873389" lon="30.4937866889"><ele>304.39</ele><time>2026-08-20T20:49:01Z</time></trkpt><trkpt lat="59.1034873389" lon="30.4937866889"><ele>304.39</ele><time>2026-08-20T20:49:02Z</time></trkpt><trkpt lat="59.1034873389" lon="30.4937866889"><ele>304.39</ele><time>2026-08-20T20:49:03Z</time></trkpt><trkpt lat="59.1034873389" lon="30.4937866889"><ele>304.39</ele><time>2026-08-20T20:49:04Z</time></trkpt><trkpt lat="59.1034873389" lon="30.4937866889"><ele>304.39</ele><time>2026-08-20T20:49:05Z</time></trkpt><trkpt lat="59.1034873389" lon="30.4937866889"><ele>304.39</ele><time>2026-08-20T20:49:06Z</time></trkpt><trkpt lat="59.1034873389" lon="30.4937866889"><ele>303.91</ele><time>2026-08-20T20:49:07Z</time></trkpt><trkpt lat="59.1034873389" lon="30.4937866889"><ele>304.39</ele><time>2026-08-20T20:49:08Z</time></trkpt><trkpt lat="59.1034873389" lon="30.4937866889"><ele>303.91</ele><time>2026-08-20T20:49:09Z</time></trkpt><trkpt lat="59.1034873389" lon="30.4937866889"><ele>304.39</ele><time>2026-08-20T20:49:10Z</time></trkpt><trkpt lat="59.1034873389" lon="30.4937866889"><ele>304.39</ele><time>2026-08-20T20:49:11Z</time></trkpt><trkpt lat="59.1034873389" lon="30.4937866889"><ele>304.39</ele><time>2026-08-20T20:49:12Z</time></trkpt><trkpt lat="59.1034873389" lon="30.4937866889"><ele>304.39</ele><time>2026-08-20T20:49:13Z</time></trkpt><trkpt lat="59.1034873389" lon="30.4937866889"><ele>304.39</ele><time>2026-08-20T20:49:14Z</time></trkpt><trkpt lat="59.1034873389" lon="30.4937866889"><ele>304.39</ele><time>2026-08-20T20:49:15Z</time></trkpt><trkpt lat="59.1034873389" lon="30.4937866889"><ele>304.39</ele><time>2026-08-20T20:49:16Z</time></trkpt><trkpt lat="59.1034873389" lon="30.4937866889"><ele>304.39</ele><time>2026-08-20T20:49:17Z</time></trkpt><trkpt lat="59.1034873389" lon="30.4937866889"><ele>304.39</ele><time>2026-08-20T20:49:18Z</time></trkpt><trkpt lat="59.1034873389" lon="30.4937866889"><ele>304.39</ele><time>2026-08-20T20:49:19Z</time></trkpt><trkpt lat="59.1034873389" lon="30.4937866889"><ele>304.39</ele><time>2026-08-20T20:49:20Z</time></trkpt><trkpt lat="59.1034873389" lon="30.4937866889"><ele>304.39</ele><time>2026-08-20T20:49:21Z</time></trkpt><trkpt lat="59.1034678929" lon="30.4938300233"><ele>304.39</ele><time>2026-08-20T20:49:22Z</time></trkpt><trkpt lat="59.1034690663" lon="30.4938395787"><ele>303.91</ele><time>2026-08-20T20:49:23Z</time></trkpt><trkpt lat="59.1034716647" lon="30.4938533250"><ele>303.91</ele><time>2026-08-20T20:49:24Z</time></trkpt><trkpt lat="59.1034748498" lon="30.4938642215"><ele>303.91</ele><time>2026-08-20T20:49:25Z</time></trkpt><trkpt lat="59.1034774482" lon="30.4938756209"><ele>303.91</ele><time>2026-08-20T20:49:26Z</time></trkpt><trkpt lat="59.1034774482" lon="30.4938967433"><ele>303.91</ele><time>2026-08-20T20:49:27Z</time></trkpt><trkpt lat="59.1034784541" lon="30.4939112440"><ele>303.91</ele><time>2026-08-20T20:49:28Z</time></trkpt><trkpt lat="59.1034799628" lon="30.4939265829"><ele>303.91</ele><time>2026-08-20T20:49:29Z</time></trkpt><trkpt lat="59.1034802981" lon="30.4939417541"><ele>303.91</ele><time>2026-08-20T20:49:30Z</time></trkpt><trkpt lat="59.1034821421" lon="30.4939550813"><ele>303.91</ele><time>2026-08-20T20:49:31Z</time></trkpt><trkpt lat="59.1034866683" lon="30.4939682409"><ele>303.91</ele><time>2026-08-20T20:49:32Z</time></trkpt><trkpt lat="59.1034884285" lon="30.4939857591"><ele>303.91</ele><time>2026-08-20T20:49:33Z</time></trkpt><trkpt lat="59.1034913622" lon="30.4940031935"><ele>303.91</ele><time>2026-08-20T20:49:34Z</time></trkpt><trkpt lat="59.1034942959" lon="30.4940192867"><ele>303.91</ele><time>2026-08-20T20:49:35Z</time></trkpt><trkpt lat="59.1034984868" lon="30.4940364696"><ele>303.91</ele><time>2026-08-20T20:49:36Z</time></trkpt><trkpt lat="59.1035018396" lon="30.4940495454"><ele>303.91</ele><time>2026-08-20T20:49:37Z</time></trkpt><trkpt lat="59.1035035998" lon="30.4940637946"><ele>303.91</ele><time>2026-08-20T20:49:38Z</time></trkpt><trkpt lat="59.1035073716" lon="30.4940818995"><ele>303.91</ele><time>2026-08-20T20:49:39Z</time></trkpt><trkpt lat="59.1035110597" lon="30.4940928798"><ele>303.91</ele><time>2026-08-20T20:49:40Z</time></trkpt><trkpt lat="59.1035166755" lon="30.4941083863"><ele>303.91</ele><time>2026-08-20T20:49:41Z</time></trkpt><trkpt lat="59.1035236325" lon="30.4941237252"><ele>303.91</ele><time>2026-08-20T20:49:42Z</time></trkpt><trkpt lat="59.1035281587" lon="30.4941380583"><ele>303.91</ele><time>2026-08-20T20:49:43Z</time></trkpt><trkpt lat="59.1035308409" lon="30.4941476975"><ele>303.91</ele><time>2026-08-20T20:49:44Z</time></trkpt><trkpt lat="59.1035315953" lon="30.4941552412"><ele>303.91</ele><time>2026-08-20T20:49:45Z</time></trkpt><trkpt lat="59.1035344452" lon="30.4941579234"><ele>303.91</ele><time>2026-08-20T20:49:46Z</time></trkpt><trkpt lat="59.1035333555" lon="30.4941632878"><ele>303.91</ele><time>2026-08-20T20:49:47Z</time></trkpt><trkpt lat="59.1035333555" lon="30.4941632878"><ele>303.91</ele><time>2026-08-20T20:49:48Z</time></trkpt><trkpt lat="59.1035333555" lon="30.4941632878"><ele>303.91</ele><time>2026-08-20T20:49:49Z</time></trkpt><trkpt lat="59.1035284940" lon="30.4941357952"><ele>303.91</ele><time>2026-08-20T20:49:50Z</time></trkpt><trkpt lat="59.1035233811" lon="30.4941263236"><ele>303.91</ele><time>2026-08-20T20:49:51Z</time></trkpt><trkpt lat="59.1035178490" lon="30.4941180255"><ele>303.91</ele><time>2026-08-20T20:49:52Z</time></trkpt><trkpt lat="59.1035153344" lon="30.4941098951"><ele>303.91</ele><time>2026-08-20T20:49:53Z</time></trkpt><trkpt lat="59.1035137419" lon="30.4941054527"><ele>303.91</ele><time>2026-08-20T20:49:54Z</time></trkpt><trkpt lat="59.1035107244" lon="30.4940996692"><ele>303.91</ele><time>2026-08-20T20:49:55Z</time></trkpt><trkpt lat="59.1035093833" lon="30.4940960649"><ele>303.91</ele><time>2026-08-20T20:49:56Z</time></trkpt><trkpt lat="59.1035093833" lon="30.4940960649"><ele>303.91</ele><time>2026-08-20T20:49:57Z</time></trkpt><trkpt lat="59.1035093833" lon="30.4940960649"><ele>303.91</ele><time>2026-08-20T20:49:58Z</time></trkpt><trkpt lat="59.1035093833" lon="30.4940960649"><ele>303.91</ele><time>2026-08-20T20:49:59Z</time></trkpt><trkpt lat="59.1035093833" lon="30.4940960649"><ele>303.91</ele><time>2026-08-20T20:50:00Z</time></trkpt><trkpt lat="59.1035093833" lon="30.4940960649"><ele>303.91</ele><time>2026-08-20T20:50:01Z</time></trkpt><trkpt lat="59.1035093833" lon="30.4940960649"><ele>303.91</ele><time>2026-08-20T20:50:02Z</time></trkpt><trkpt lat="59.1035093833" lon="30.4940960649"><ele>303.91</ele><time>2026-08-20T20:50:03Z</time></trkpt><trkpt lat="59.1035093833" lon="30.4940960649"><ele>303.91</ele><time>2026-08-20T20:50:04Z</time></trkpt><trkpt lat="59.1035093833" lon="30.4940960649"><ele>303.91</ele><time>2026-08-20T20:50:05Z</time></trkpt><trkpt lat="59.1035093833" lon="30.4940960649"><ele>303.91</ele><time>2026-08-20T20:50:06Z</time></trkpt><trkpt lat="59.1035093833" lon="30.4940960649"><ele>303.91</ele><time>2026-08-20T20:50:07Z</time></trkpt><trkpt lat="59.1035052761" lon="30.4940678179"><ele>303.91</ele><time>2026-08-20T20:50:08Z</time></trkpt><trkpt lat="59.1035092995" lon="30.4940632917"><ele>303.91</ele><time>2026-08-20T20:50:09Z</time></trkpt><trkpt lat="59.1035114788" lon="30.4940610286"><ele>303.91</ele><time>2026-08-20T20:50:10Z</time></trkpt><trkpt lat="59.1035131551" lon="30.4940589331"><ele>303.91</ele><time>2026-08-20T20:50:11Z</time></trkpt><trkpt lat="59.1035138257" lon="30.4940587655"><ele>303.91</ele><time>2026-08-20T20:50:12Z</time></trkpt><trkpt lat="59.1035138257" lon="30.4940587655"><ele>303.91</ele><time>2026-08-20T20:50:13Z</time></trkpt><trkpt lat="59.1035138257" lon="30.4940587655"><ele>303.91</ele><time>2026-08-20T20:50:14Z</time></trkpt><trkpt lat="59.1035138257" lon="30.4940587655"><ele>303.91</ele><time>2026-08-20T20:50:15Z</time></trkpt><trkpt lat="59.1035138257" lon="30.4940587655"><ele>303.91</ele><time>2026-08-20T20:50:16Z</time></trkpt><trkpt lat="59.1035138257" lon="30.4940587655"><ele>303.91</ele><time>2026-08-20T20:50:17Z</time></trkpt><trkpt lat="59.1035138257" lon="30.4940587655"><ele>303.91</ele><time>2026-08-20T20:50:18Z</time></trkpt><trkpt lat="59.1035138257" lon="30.4940587655"><ele>303.91</ele><time>2026-08-20T20:50:19Z</time></trkpt><trkpt lat="59.1035138257" lon="30.4940587655"><ele>303.91</ele><time>2026-08-20T20:50:20Z</time></trkpt><trkpt lat="59.1035138257" lon="30.4940587655"><ele>303.91</ele><time>2026-08-20T20:50:21Z</time></trkpt><trkpt lat="59.1035138257" lon="30.4940587655"><ele>303.91</ele><time>2026-08-20T20:50:22Z</time></trkpt><trkpt lat="59.1035138257" lon="30.4940587655"><ele>303.91</ele><time>2026-08-20T20:50:23Z</time></trkpt><trkpt lat="59.1035138257" lon="30.4940587655"><ele>303.91</ele><time>2026-08-20T20:50:24Z</time></trkpt><trkpt lat="59.1035138257" lon="30.4940587655"><ele>303.91</ele><time>2026-08-20T20:50:25Z</time></trkpt><trkpt lat="59.1035138257" lon="30.4940587655"><ele>303.91</ele><time>2026-08-20T20:50:26Z</time></trkpt><trkpt lat="59.1035138257" lon="30.4940587655"><ele>303.91</ele><time>2026-08-20T20:50:27Z</time></trkpt><trkpt lat="59.1035138257" lon="30.4940587655"><ele>303.91</ele><time>2026-08-20T20:50:28Z</time></trkpt><trkpt lat="59.1035138257" lon="30.4940587655"><ele>303.91</ele><time>2026-08-20T20:50:29Z</time></trkpt><trkpt lat="59.1035138257" lon="30.4940587655"><ele>303.91</ele><time>2026-08-20T20:50:30Z</time></trkpt><trkpt lat="59.1035138257" lon="30.4940587655"><ele>303.91</ele><time>2026-08-20T20:50:31Z</time></trkpt><trkpt lat="59.1035138257" lon="30.4940587655"><ele>303.91</ele><time>2026-08-20T20:50:32Z</time></trkpt><trkpt lat="59.1035138257" lon="30.4940587655"><ele>303.91</ele><time>2026-08-20T20:50:33Z</time></trkpt><trkpt lat="59.1035138257" lon="30.4940587655"><ele>303.91</ele><time>2026-08-20T20:50:34Z</time></trkpt><trkpt lat="59.1035378817" lon="30.4940338712"><ele>303.91</ele><time>2026-08-20T20:50:35Z</time></trkpt><trkpt lat="59.1035417374" lon="30.4940344580"><ele>303.43</ele><time>2026-08-20T20:50:36Z</time></trkpt><trkpt lat="59.1035449225" lon="30.4940352961"><ele>303.43</ele><time>2026-08-20T20:50:37Z</time></trkpt><trkpt lat="59.1035462637" lon="30.4940373916"><ele>303.43</ele><time>2026-08-20T20:50:38Z</time></trkpt><trkpt lat="59.1035472695" lon="30.4940390680"><ele>303.43</ele><time>2026-08-20T20:50:39Z</time></trkpt><trkpt lat="59.1035469342" lon="30.4940422531"><ele>303.43</ele><time>2026-08-20T20:50:40Z</time></trkpt><trkpt lat="59.1035469342" lon="30.4940422531"><ele>303.43</ele><time>2026-08-20T20:50:41Z</time></trkpt><trkpt lat="59.1035469342" lon="30.4940422531"><ele>303.43</ele><time>2026-08-20T20:50:42Z</time></trkpt><trkpt lat="59.1035469342" lon="30.4940422531"><ele>303.43</ele><time>2026-08-20T20:50:43Z</time></trkpt><trkpt lat="59.1035469342" lon="30.4940422531"><ele>303.43</ele><time>2026-08-20T20:50:44Z</time></trkpt><trkpt lat="59.1035469342" lon="30.4940422531"><ele>303.43</ele><time>2026-08-20T20:50:45Z</time></trkpt><trkpt lat="59.1035469342" lon="30.4940422531"><ele>303.43</ele><time>2026-08-20T20:50:46Z</time></trkpt><trkpt lat="59.1035469342" lon="30.4940422531"><ele>303.43</ele><time>2026-08-20T20:50:47Z</time></trkpt><trkpt lat="59.1035469342" lon="30.4940422531"><ele>303.43</ele><time>2026-08-20T20:50:48Z</time></trkpt><trkpt lat="59.1035469342" lon="30.4940422531"><ele>303.43</ele><time>2026-08-20T20:50:49Z</time></trkpt><trkpt lat="59.1035469342" lon="30.4940422531"><ele>303.43</ele><time>2026-08-20T20:50:50Z</time></trkpt><trkpt lat="59.1035469342" lon="30.4940422531"><ele>303.91</ele><time>2026-08-20T20:50:51Z</time></trkpt><trkpt lat="59.1035469342" lon="30.4940422531"><ele>303.91</ele><time>2026-08-20T20:50:52Z</time></trkpt><trkpt lat="59.1035469342" lon="30.4940422531"><ele>303.91</ele><time>2026-08-20T20:50:53Z</time></trkpt><trkpt lat="59.1035469342" lon="30.4940422531"><ele>303.91</ele><time>2026-08-20T20:50:54Z</time></trkpt><trkpt lat="59.1035469342" lon="30.4940422531"><ele>303.91</ele><time>2026-08-20T20:50:55Z</time></trkpt><trkpt lat="59.1035469342" lon="30.4940422531"><ele>303.43</ele><time>2026-08-20T20:50:56Z</time></trkpt><trkpt lat="59.1035469342" lon="30.4940422531"><ele>303.43</ele><time>2026-08-20T20:50:57Z</time></trkpt><trkpt lat="59.1035469342" lon="30.4940422531"><ele>303.43</ele><time>2026-08-20T20:50:58Z</time></trkpt><trkpt lat="59.1035469342" lon="30.4940422531"><ele>303.43</ele><time>2026-08-20T20:50:59Z</time></trkpt><trkpt lat="59.1035469342" lon="30.4940422531"><ele>303.43</ele><time>2026-08-20T20:51:00Z</time></trkpt><trkpt lat="59.1035469342" lon="30.4940422531"><ele>303.43</ele><time>2026-08-20T20:51:01Z</time></trkpt><trkpt lat="59.1035469342" lon="30.4940422531"><ele>303.43</ele><time>2026-08-20T20:51:02Z</time></trkpt><trkpt lat="59.1035469342" lon="30.4940422531"><ele>303.43</ele><time>2026-08-20T20:51:03Z</time></trkpt><trkpt lat="59.1035469342" lon="30.4940422531"><ele>303.43</ele><time>2026-08-20T20:51:04Z</time></trkpt><trkpt lat="59.1035469342" lon="30.4940422531"><ele>303.43</ele><time>2026-08-20T20:51:05Z</time></trkpt><trkpt lat="59.1035469342" lon="30.4940422531"><ele>303.43</ele><time>2026-08-20T20:51:06Z</time></trkpt><trkpt lat="59.1035469342" lon="30.4940422531"><ele>303.43</ele><time>2026-08-20T20:51:07Z</time></trkpt><trkpt lat="59.1035469342" lon="30.4940422531"><ele>303.43</ele><time>2026-08-20T20:51:08Z</time></trkpt><trkpt lat="59.1035469342" lon="30.4940422531"><ele>303.43</ele><time>2026-08-20T20:51:09Z</time></trkpt><trkpt lat="59.1035469342" lon="30.4940422531"><ele>303.43</ele><time>2026-08-20T20:51:10Z</time></trkpt><trkpt lat="59.1035469342" lon="30.4940422531"><ele>303.43</ele><time>2026-08-20T20:51:11Z</time></trkpt><trkpt lat="59.1035469342" lon="30.4940422531"><ele>303.43</ele><time>2026-08-20T20:51:12Z</time></trkpt><trkpt lat="59.1035469342" lon="30.4940422531"><ele>303.43</ele><time>2026-08-20T20:51:13Z</time></trkpt><trkpt lat="59.1035469342" lon="30.4940422531"><ele>303.43</ele><time>2026-08-20T20:51:14Z</time></trkpt><trkpt lat="59.1035469342" lon="30.4940422531"><ele>303.43</ele><time>2026-08-20T20:51:15Z</time></trkpt><trkpt lat="59.1035469342" lon="30.4940422531"><ele>303.43</ele><time>2026-08-20T20:51:16Z</time></trkpt><trkpt lat="59.1035469342" lon="30.4940422531"><ele>303.43</ele><time>2026-08-20T20:51:17Z</time></trkpt><trkpt lat="59.1035469342" lon="30.4940422531"><ele>303.43</ele><time>2026-08-20T20:51:18Z</time></trkpt><trkpt lat="59.1035469342" lon="30.4940422531"><ele>303.43</ele><time>2026-08-20T20:51:19Z</time></trkpt><trkpt lat="59.1035469342" lon="30.4940422531"><ele>303.43</ele><time>2026-08-20T20:51:20Z</time></trkpt><trkpt lat="59.1035469342" lon="30.4940422531"><ele>303.43</ele><time>2026-08-20T20:51:21Z</time></trkpt><trkpt lat="59.1035469342" lon="30.4940422531"><ele>303.43</ele><time>2026-08-20T20:51:22Z</time></trkpt><trkpt lat="59.1035469342" lon="30.4940422531"><ele>303.43</ele><time>2026-08-20T20:51:23Z</time></trkpt><trkpt lat="59.1035469342" lon="30.4940422531"><ele>303.43</ele><time>2026-08-20T20:51:24Z</time></trkpt><trkpt lat="59.1035469342" lon="30.4940422531"><ele>303.43</ele><time>2026-08-20T20:51:25Z</time></trkpt><trkpt lat="59.1035469342" lon="30.4940422531"><ele>303.43</ele><time>2026-08-20T20:51:26Z</time></trkpt><trkpt lat="59.1035469342" lon="30.4940422531"><ele>303.43</ele><time>2026-08-20T20:51:27Z</time></trkpt><trkpt lat="59.1035469342" lon="30.4940422531"><ele>303.43</ele><time>2026-08-20T20:51:28Z</time></trkpt><trkpt lat="59.1035469342" lon="30.4940422531"><ele>303.43</ele><time>2026-08-20T20:51:29Z</time></trkpt><trkpt lat="59.1035469342" lon="30.4940422531"><ele>303.43</ele><time>2026-08-20T20:51:30Z</time></trkpt><trkpt lat="59.1035469342" lon="30.4940422531"><ele>303.43</ele><time>2026-08-20T20:51:31Z</time></trkpt><trkpt lat="59.1035469342" lon="30.4940422531"><ele>303.43</ele><time>2026-08-20T20:51:32Z</time></trkpt><trkpt lat="59.1035469342" lon="30.4940422531"><ele>303.43</ele><time>2026-08-20T20:51:33Z</time></trkpt><trkpt lat="59.1035469342" lon="30.4940422531"><ele>303.43</ele><time>2026-08-20T20:51:34Z</time></trkpt><trkpt lat="59.1035469342" lon="30.4940422531"><ele>303.43</ele><time>2026-08-20T20:51:35Z</time></trkpt><trkpt lat="59.1035469342" lon="30.4940422531"><ele>303.43</ele><time>2026-08-20T20:51:36Z</time></trkpt><trkpt lat="59.1035469342" lon="30.4940422531"><ele>303.43</ele><time>2026-08-20T20:51:37Z</time></trkpt><trkpt lat="59.1035469342" lon="30.4940422531"><ele>303.43</ele><time>2026-08-20T20:51:38Z</time></trkpt><trkpt lat="59.1035469342" lon="30.4940422531"><ele>303.43</ele><time>2026-08-20T20:51:39Z</time></trkpt><trkpt lat="59.1035469342" lon="30.4940422531"><ele>303.43</ele><time>2026-08-20T20:51:40Z</time></trkpt><trkpt lat="59.1035469342" lon="30.4940422531"><ele>303.43</ele><time>2026-08-20T20:51:41Z</time></trkpt><trkpt lat="59.1035469342" lon="30.4940422531"><ele>303.43</ele><time>2026-08-20T20:51:42Z</time></trkpt><trkpt lat="59.1035469342" lon="30.4940422531"><ele>303.43</ele><time>2026-08-20T20:51:43Z</time></trkpt><trkpt lat="59.1035469342" lon="30.4940422531"><ele>303.43</ele><time>2026-08-20T20:51:44Z</time></trkpt><trkpt lat="59.1035469342" lon="30.4940422531"><ele>303.43</ele><time>2026-08-20T20:51:45Z</time></trkpt><trkpt lat="59.1035469342" lon="30.4940422531"><ele>303.43</ele><time>2026-08-20T20:51:46Z</time></trkpt><trkpt lat="59.1035469342" lon="30.4940422531"><ele>303.43</ele><time>2026-08-20T20:51:47Z</time></trkpt><trkpt lat="59.1035469342" lon="30.4940422531"><ele>303.43</ele><time>2026-08-20T20:51:48Z</time></trkpt><trkpt lat="59.1035469342" lon="30.4940422531"><ele>303.43</ele><time>2026-08-20T20:51:49Z</time></trkpt><trkpt lat="59.1035469342" lon="30.4940422531"><ele>303.43</ele><time>2026-08-20T20:51:50Z</time></trkpt><trkpt lat="59.1035469342" lon="30.4940422531"><ele>303.43</ele><time>2026-08-20T20:51:51Z</time></trkpt><trkpt lat="59.1035469342" lon="30.4940422531"><ele>303.43</ele><time>2026-08-20T20:51:52Z</time></trkpt><trkpt lat="59.1035469342" lon="30.4940422531"><ele>303.43</ele><time>2026-08-20T20:51:53Z</time></trkpt><trkpt lat="59.1035469342" lon="30.4940422531"><ele>303.43</ele><time>2026-08-20T20:51:54Z</time></trkpt><trkpt lat="59.1035469342" lon="30.4940422531"><ele>303.43</ele><time>2026-08-20T20:51:55Z</time></trkpt><trkpt lat="59.1035469342" lon="30.4940422531"><ele>303.43</ele><time>2026-08-20T20:51:56Z</time></trkpt><trkpt lat="59.1035469342" lon="30.4940422531"><ele>303.43</ele><time>2026-08-20T20:51:57Z</time></trkpt><trkpt lat="59.1035469342" lon="30.4940422531"><ele>303.43</ele><time>2026-08-20T20:51:58Z</time></trkpt><trkpt lat="59.1035469342" lon="30.4940422531"><ele>303.43</ele><time>2026-08-20T20:51:59Z</time></trkpt><trkpt lat="59.1035469342" lon="30.4940422531"><ele>303.43</ele><time>2026-08-20T20:52:00Z</time></trkpt><trkpt lat="59.1035469342" lon="30.4940422531"><ele>303.43</ele><time>2026-08-20T20:52:01Z</time></trkpt><trkpt lat="59.1035469342" lon="30.4940422531"><ele>303.43</ele><time>2026-08-20T20:52:02Z</time></trkpt><trkpt lat="59.1035469342" lon="30.4940422531"><ele>303.43</ele><time>2026-08-20T20:52:03Z</time></trkpt><trkpt lat="59.1035469342" lon="30.4940422531"><ele>303.43</ele><time>2026-08-20T20:52:04Z</time></trkpt><trkpt lat="59.1035469342" lon="30.4940422531"><ele>303.43</ele><time>2026-08-20T20:52:05Z</time></trkpt><trkpt lat="59.1035469342" lon="30.4940422531"><ele>303.43</ele><time>2026-08-20T20:52:06Z</time></trkpt><trkpt lat="59.1035469342" lon="30.4940422531"><ele>303.43</ele><time>2026-08-20T20:52:07Z</time></trkpt><trkpt lat="59.1035469342" lon="30.4940422531"><ele>303.43</ele><time>2026-08-20T20:52:08Z</time></trkpt><trkpt lat="59.1035469342" lon="30.4940422531"><ele>303.43</ele><time>2026-08-20T20:52:09Z</time></trkpt><trkpt lat="59.1035469342" lon="30.4940422531"><ele>303.43</ele><time>2026-08-20T20:52:10Z</time></trkpt><trkpt lat="59.1035469342" lon="30.4940422531"><ele>303.43</ele><time>2026-08-20T20:52:11Z</time></trkpt><trkpt lat="59.1035469342" lon="30.4940422531"><ele>303.43</ele><time>2026-08-20T20:52:12Z</time></trkpt><trkpt lat="59.1035469342" lon="30.4940422531"><ele>303.43</ele><time>2026-08-20T20:52:13Z</time></trkpt><trkpt lat="59.1035469342" lon="30.4940422531"><ele>303.43</ele><time>2026-08-20T20:52:14Z</time></trkpt><trkpt lat="59.1035469342" lon="30.4940422531"><ele>303.43</ele><time>2026-08-20T20:52:15Z</time></trkpt><trkpt lat="59.1035469342" lon="30.4940422531"><ele>303.43</ele><time>2026-08-20T20:52:16Z</time></trkpt><trkpt lat="59.1035469342" lon="30.4940422531"><ele>303.43</ele><time>2026-08-20T20:52:17Z</time></trkpt><trkpt lat="59.1035469342" lon="30.4940422531"><ele>303.43</ele><time>2026-08-20T20:52:18Z</time></trkpt><trkpt lat="59.1035469342" lon="30.4940422531"><ele>303.43</ele><time>2026-08-20T20:52:19Z</time></trkpt><trkpt lat="59.1035469342" lon="30.4940422531"><ele>303.43</ele><time>2026-08-20T20:52:20Z</time></trkpt><trkpt lat="59.1035469342" lon="30.4940422531"><ele>303.43</ele><time>2026-08-20T20:52:21Z</time></trkpt><trkpt lat="59.1035469342" lon="30.4940422531"><ele>303.43</ele><time>2026-08-20T20:52:22Z</time></trkpt><trkpt lat="59.1035469342" lon="30.4940422531"><ele>303.43</ele><time>2026-08-20T20:52:23Z</time></trkpt><trkpt lat="59.1035469342" lon="30.4940422531"><ele>303.43</ele><time>2026-08-20T20:52:24Z</time></trkpt><trkpt lat="59.1035469342" lon="30.4940422531"><ele>303.43</ele><time>2026-08-20T20:52:25Z</time></trkpt><trkpt lat="59.1035469342" lon="30.4940422531"><ele>303.43</ele><time>2026-08-20T20:52:26Z</time></trkpt><trkpt lat="59.1035469342" lon="30.4940422531"><ele>303.43</ele><time>2026-08-20T20:52:27Z</time></trkpt><trkpt lat="59.1035469342" lon="30.4940422531"><ele>303.43</ele><time>2026-08-20T20:52:28Z</time></trkpt><trkpt lat="59.1035469342" lon="30.4940422531"><ele>303.43</ele><time>2026-08-20T20:52:29Z</time></trkpt><trkpt lat="59.1035179328" lon="30.4941196181"><ele>303.43</ele><time>2026-08-20T20:52:30Z</time></trkpt><trkpt lat="59.1035228781" lon="30.4941364657"><ele>303.43</ele><time>2026-08-20T20:52:31Z</time></trkpt><trkpt lat="59.1035269853" lon="30.4941521399"><ele>303.43</ele><time>2026-08-20T20:52:32Z</time></trkpt><trkpt lat="59.1035303380" lon="30.4941691551"><ele>303.43</ele><time>2026-08-20T20:52:33Z</time></trkpt><trkpt lat="59.1035332717" lon="30.4941837396"><ele>303.43</ele><time>2026-08-20T20:52:34Z</time></trkpt><trkpt lat="59.1035344452" lon="30.4941986594"><ele>303.43</ele><time>2026-08-20T20:52:35Z</time></trkpt><trkpt lat="59.1035329364" lon="30.4942133278"><ele>303.43</ele><time>2026-08-20T20:52:36Z</time></trkpt><trkpt lat="59.1035336908" lon="30.4942252301"><ele>303.43</ele><time>2026-08-20T20:52:37Z</time></trkpt><trkpt lat="59.1035316791" lon="30.4942384735"><ele>303.43</ele><time>2026-08-20T20:52:38Z</time></trkpt><trkpt lat="59.1035290807" lon="30.4942500405"><ele>303.43</ele><time>2026-08-20T20:52:39Z</time></trkpt><trkpt lat="59.1035304219" lon="30.4942624457"><ele>303.43</ele><time>2026-08-20T20:52:40Z</time></trkpt><trkpt lat="59.1035327688" lon="30.4942758568"><ele>303.43</ele><time>2026-08-20T20:52:41Z</time></trkpt><trkpt lat="59.1035323497" lon="30.4942887649"><ele>303.43</ele><time>2026-08-20T20:52:42Z</time></trkpt><trkpt lat="59.1035333555" lon="30.4943058640"><ele>303.43</ele><time>2026-08-20T20:52:43Z</time></trkpt><trkpt lat="59.1035377979" lon="30.4943183530"><ele>303.43</ele><time>2026-08-20T20:52:44Z</time></trkpt><trkpt lat="59.1035496164" lon="30.4943380505"><ele>303.43</ele><time>2026-08-20T20:52:45Z</time></trkpt><trkpt lat="59.1035578307" lon="30.4943497851"><ele>303.43</ele><time>2026-08-20T20:52:46Z</time></trkpt><trkpt lat="59.1035616864" lon="30.4943630286"><ele>303.43</ele><time>2026-08-20T20:52:47Z</time></trkpt><trkpt lat="59.1035652906" lon="30.4943838995"><ele>303.43</ele><time>2026-08-20T20:52:48Z</time></trkpt><trkpt lat="59.1035689786" lon="30.4944036808"><ele>303.43</ele><time>2026-08-20T20:52:49Z</time></trkpt><trkpt lat="59.1035706550" lon="30.4944219533"><ele>303.43</ele><time>2026-08-20T20:52:50Z</time></trkpt><trkpt lat="59.1035696492" lon="30.4944398906"><ele>303.91</ele><time>2026-08-20T20:52:51Z</time></trkpt><trkpt lat="59.1035698168" lon="30.4944553971"><ele>303.91</ele><time>2026-08-20T20:52:52Z</time></trkpt><trkpt lat="59.1035704874" lon="30.4944666289"><ele>303.91</ele><time>2026-08-20T20:52:53Z</time></trkpt><trkpt lat="59.1035710741" lon="30.4944663774"><ele>303.91</ele><time>2026-08-20T20:52:54Z</time></trkpt><trkpt lat="59.1035710741" lon="30.4944628570"><ele>303.91</ele><time>2026-08-20T20:52:55Z</time></trkpt><trkpt lat="59.1035707388" lon="30.4944626894"><ele>303.91</ele><time>2026-08-20T20:52:56Z</time></trkpt><trkpt lat="59.1035707388" lon="30.4944626894"><ele>303.91</ele><time>2026-08-20T20:52:57Z</time></trkpt><trkpt lat="59.1035707388" lon="30.4944626894"><ele>303.91</ele><time>2026-08-20T20:52:58Z</time></trkpt><trkpt lat="59.1035707388" lon="30.4944626894"><ele>303.91</ele><time>2026-08-20T20:52:59Z</time></trkpt><trkpt lat="59.1035707388" lon="30.4944626894"><ele>303.91</ele><time>2026-08-20T20:53:00Z</time></trkpt><trkpt lat="59.1035707388" lon="30.4944626894"><ele>303.91</ele><time>2026-08-20T20:53:01Z</time></trkpt><trkpt lat="59.1035707388" lon="30.4944626894"><ele>303.91</ele><time>2026-08-20T20:53:02Z</time></trkpt><trkpt lat="59.1035707388" lon="30.4944626894"><ele>303.91</ele><time>2026-08-20T20:53:03Z</time></trkpt><trkpt lat="59.1035707388" lon="30.4944626894"><ele>303.91</ele><time>2026-08-20T20:53:04Z</time></trkpt><trkpt lat="59.1035799589" lon="30.4944938701"><ele>303.91</ele><time>2026-08-20T20:53:05Z</time></trkpt><trkpt lat="59.1035822220" lon="30.4945099633"><ele>303.91</ele><time>2026-08-20T20:53:06Z</time></trkpt><trkpt lat="59.1035817191" lon="30.4945288226"><ele>303.43</ele><time>2026-08-20T20:53:07Z</time></trkpt><trkpt lat="59.1035788693" lon="30.4945439938"><ele>303.43</ele><time>2026-08-20T20:53:08Z</time></trkpt><trkpt lat="59.1035771929" lon="30.4945557285"><ele>303.43</ele><time>2026-08-20T20:53:09Z</time></trkpt><trkpt lat="59.1035722475" lon="30.4945780244"><ele>303.43</ele><time>2026-08-20T20:53:10Z</time></trkpt><trkpt lat="59.1035655420" lon="30.4946022481"><ele>303.43</ele><time>2026-08-20T20:53:11Z</time></trkpt><trkpt lat="59.1035617702" lon="30.4946168326"><ele>303.43</ele><time>2026-08-20T20:53:12Z</time></trkpt><trkpt lat="59.1035577469" lon="30.4946389608"><ele>303.43</ele><time>2026-08-20T20:53:13Z</time></trkpt><trkpt lat="59.1035548970" lon="30.4946601670"><ele>303.43</ele><time>2026-08-20T20:53:14Z</time></trkpt><trkpt lat="59.1035542265" lon="30.4946854804"><ele>303.43</ele><time>2026-08-20T20:53:15Z</time></trkpt><trkpt lat="59.1035544779" lon="30.4947071895"><ele>303.43</ele><time>2026-08-20T20:53:16Z</time></trkpt><trkpt lat="59.1035562381" lon="30.4947244562"><ele>303.43</ele><time>2026-08-20T20:53:17Z</time></trkpt><trkpt lat="59.1035576630" lon="30.4947403818"><ele>303.43</ele><time>2026-08-20T20:53:18Z</time></trkpt><trkpt lat="59.1035573278" lon="30.4947521165"><ele>303.43</ele><time>2026-08-20T20:53:19Z</time></trkpt><trkpt lat="59.1035582498" lon="30.4947651923"><ele>303.43</ele><time>2026-08-20T20:53:20Z</time></trkpt><trkpt lat="59.1035572439" lon="30.4947803635"><ele>303.43</ele><time>2026-08-20T20:53:21Z</time></trkpt><trkpt lat="59.1035570763" lon="30.4947935231"><ele>303.43</ele><time>2026-08-20T20:53:22Z</time></trkpt><trkpt lat="59.1035568248" lon="30.4948131368"><ele>303.43</ele><time>2026-08-20T20:53:23Z</time></trkpt><trkpt lat="59.1035582498" lon="30.4948367737"><ele>303.43</ele><time>2026-08-20T20:53:24Z</time></trkpt><trkpt lat="59.1035584174" lon="30.4948557168"><ele>303.43</ele><time>2026-08-20T20:53:25Z</time></trkpt><trkpt lat="59.1035575792" lon="30.4948726483"><ele>303.43</ele><time>2026-08-20T20:53:26Z</time></trkpt><trkpt lat="59.1035575792" lon="30.4948956985"><ele>303.43</ele><time>2026-08-20T20:53:27Z</time></trkpt><trkpt lat="59.1035596747" lon="30.4949212633"><ele>303.43</ele><time>2026-08-20T20:53:28Z</time></trkpt><trkpt lat="59.1035641171" lon="30.4949445650"><ele>303.43</ele><time>2026-08-20T20:53:29Z</time></trkpt><trkpt lat="59.1035671346" lon="30.4949689563"><ele>303.43</ele><time>2026-08-20T20:53:30Z</time></trkpt><trkpt lat="59.1035729181" lon="30.4949948564"><ele>303.43</ele><time>2026-08-20T20:53:31Z</time></trkpt><trkpt lat="59.1035779472" lon="30.4950197507"><ele>303.43</ele><time>2026-08-20T20:53:32Z</time></trkpt><trkpt lat="59.1035843175" lon="30.4950445611"><ele>303.43</ele><time>2026-08-20T20:53:33Z</time></trkpt><trkpt lat="59.1035883408" lon="30.4950634204"><ele>303.43</ele><time>2026-08-20T20:53:34Z</time></trkpt><trkpt lat="59.1035921965" lon="30.4950802680"><ele>303.43</ele><time>2026-08-20T20:53:35Z</time></trkpt><trkpt lat="59.1035984829" lon="30.4951024801"><ele>303.43</ele><time>2026-08-20T20:53:36Z</time></trkpt><trkpt lat="59.1036031768" lon="30.4951251950"><ele>303.43</ele><time>2026-08-20T20:53:37Z</time></trkpt><trkpt lat="59.1036052722" lon="30.4951494187"><ele>303.43</ele><time>2026-08-20T20:53:38Z</time></trkpt><trkpt lat="59.1036070324" lon="30.4951734748"><ele>303.43</ele><time>2026-08-20T20:53:39Z</time></trkpt><trkpt lat="59.1036086250" lon="30.4951964412"><ele>303.43</ele><time>2026-08-20T20:53:40Z</time></trkpt><trkpt lat="59.1036091279" lon="30.4952196591"><ele>303.43</ele><time>2026-08-20T20:53:41Z</time></trkpt><trkpt lat="59.1036080383" lon="30.4952410329"><ele>303.43</ele><time>2026-08-20T20:53:42Z</time></trkpt><trkpt lat="59.1036091279" lon="30.4952637479"><ele>303.43</ele><time>2026-08-20T20:53:43Z</time></trkpt><trkpt lat="59.1036127321" lon="30.4952865466"><ele>303.43</ele><time>2026-08-20T20:53:44Z</time></trkpt><trkpt lat="59.1036153305" lon="30.4953095969"><ele>303.43</ele><time>2026-08-20T20:53:45Z</time></trkpt><trkpt lat="59.1036142409" lon="30.4953308869"><ele>303.43</ele><time>2026-08-20T20:53:46Z</time></trkpt><trkpt lat="59.1036155820" lon="30.4953521769"><ele>303.43</ele><time>2026-08-20T20:53:47Z</time></trkpt><trkpt lat="59.1036194377" lon="30.4953751434"><ele>303.43</ele><time>2026-08-20T20:53:48Z</time></trkpt><trkpt lat="59.1036211979" lon="30.4953960981"><ele>303.91</ele><time>2026-08-20T20:53:49Z</time></trkpt><trkpt lat="59.1036233772" lon="30.4954152927"><ele>303.91</ele><time>2026-08-20T20:53:50Z</time></trkpt><trkpt lat="59.1036275681" lon="30.4954371694"><ele>303.91</ele><time>2026-08-20T20:53:51Z</time></trkpt><trkpt lat="59.1036300827" lon="30.4954582918"><ele>303.91</ele><time>2026-08-20T20:53:52Z</time></trkpt><trkpt lat="59.1036306694" lon="30.4954748880"><ele>303.91</ele><time>2026-08-20T20:53:53Z</time></trkpt><trkpt lat="59.1036299989" lon="30.4954898916"><ele>303.91</ele><time>2026-08-20T20:53:54Z</time></trkpt><trkpt lat="59.1036314238" lon="30.4955006205"><ele>303.91</ele><time>2026-08-20T20:53:55Z</time></trkpt><trkpt lat="59.1036310885" lon="30.4955110978"><ele>303.91</ele><time>2026-08-20T20:53:56Z</time></trkpt><trkpt lat="59.1036299989" lon="30.4955262691"><ele>303.91</ele><time>2026-08-20T20:53:57Z</time></trkpt><trkpt lat="59.1036349442" lon="30.4955414403"><ele>303.91</ele><time>2026-08-20T20:53:58Z</time></trkpt><trkpt lat="59.1036348604" lon="30.4955643229"><ele>303.43</ele><time>2026-08-20T20:53:59Z</time></trkpt><trkpt lat="59.1036293283" lon="30.4955937434"><ele>303.43</ele><time>2026-08-20T20:54:00Z</time></trkpt><trkpt lat="59.1036314238" lon="30.4956196435"><ele>303.43</ele><time>2026-08-20T20:54:01Z</time></trkpt><trkpt lat="59.1036297474" lon="30.4956408497"><ele>303.43</ele><time>2026-08-20T20:54:02Z</time></trkpt><trkpt lat="59.1036330163" lon="30.4956518300"><ele>303.43</ele><time>2026-08-20T20:54:03Z</time></trkpt><trkpt lat="59.1036355309" lon="30.4956569429"><ele>303.43</ele><time>2026-08-20T20:54:04Z</time></trkpt><trkpt lat="59.1036363691" lon="30.4956660792"><ele>303.43</ele><time>2026-08-20T20:54:05Z</time></trkpt><trkpt lat="59.1036363691" lon="30.4956660792"><ele>303.43</ele><time>2026-08-20T20:54:06Z</time></trkpt><trkpt lat="59.1036363691" lon="30.4956660792"><ele>303.43</ele><time>2026-08-20T20:54:07Z</time></trkpt><trkpt lat="59.1036363691" lon="30.4956660792"><ele>303.43</ele><time>2026-08-20T20:54:08Z</time></trkpt><trkpt lat="59.1036376264" lon="30.4957153648"><ele>303.43</ele><time>2026-08-20T20:54:09Z</time></trkpt><trkpt lat="59.1036393866" lon="30.4957274348"><ele>303.43</ele><time>2026-08-20T20:54:10Z</time></trkpt><trkpt lat="59.1036354471" lon="30.4957559332"><ele>303.43</ele><time>2026-08-20T20:54:11Z</time></trkpt><trkpt lat="59.1036381293" lon="30.4957738705"><ele>303.43</ele><time>2026-08-20T20:54:12Z</time></trkpt><trkpt lat="59.1036412306" lon="30.4957924783"><ele>303.43</ele><time>2026-08-20T20:54:13Z</time></trkpt><trkpt lat="59.1036420688" lon="30.4958111700"><ele>303.43</ele><time>2026-08-20T20:54:14Z</time></trkpt><trkpt lat="59.1036449187" lon="30.4958282690"><ele>303.43</ele><time>2026-08-20T20:54:15Z</time></trkpt><trkpt lat="59.1036478523" lon="30.4958422668"><ele>303.43</ele><time>2026-08-20T20:54:16Z</time></trkpt><trkpt lat="59.1036531329" lon="30.4958547559"><ele>303.43</ele><time>2026-08-20T20:54:17Z</time></trkpt><trkpt lat="59.1036591679" lon="30.4958677478"><ele>303.43</ele><time>2026-08-20T20:54:18Z</time></trkpt><trkpt lat="59.1036611795" lon="30.4958884511"><ele>303.43</ele><time>2026-08-20T20:54:19Z</time></trkpt><trkpt lat="59.1036627721" lon="30.4959127586"><ele>303.43</ele><time>2026-08-20T20:54:20Z</time></trkpt><trkpt lat="59.1036631912" lon="30.4959332943"><ele>303.43</ele><time>2026-08-20T20:54:21Z</time></trkpt><trkpt lat="59.1036623530" lon="30.4959554225"><ele>303.43</ele><time>2026-08-20T20:54:22Z</time></trkpt><trkpt lat="59.1036611795" lon="30.4959809873"><ele>303.43</ele><time>2026-08-20T20:54:23Z</time></trkpt><trkpt lat="59.1036595870" lon="30.4960058816"><ele>303.43</ele><time>2026-08-20T20:54:24Z</time></trkpt><trkpt lat="59.1036608443" lon="30.4960370623"><ele>303.43</ele><time>2026-08-20T20:54:25Z</time></trkpt><trkpt lat="59.1036620177" lon="30.4960628785"><ele>303.91</ele><time>2026-08-20T20:54:26Z</time></trkpt><trkpt lat="59.1036628559" lon="30.4960877728"><ele>303.43</ele><time>2026-08-20T20:54:27Z</time></trkpt><trkpt lat="59.1036615986" lon="30.4961150978"><ele>303.43</ele><time>2026-08-20T20:54:28Z</time></trkpt><trkpt lat="59.1036609281" lon="30.4961427581"><ele>303.43</ele><time>2026-08-20T20:54:29Z</time></trkpt><trkpt lat="59.1036605928" lon="30.4961689934"><ele>303.43</ele><time>2026-08-20T20:54:30Z</time></trkpt><trkpt lat="59.1036618501" lon="30.4961931333"><ele>303.43</ele><time>2026-08-20T20:54:31Z</time></trkpt><trkpt lat="59.1036617663" lon="30.4962189496"><ele>303.43</ele><time>2026-08-20T20:54:32Z</time></trkpt><trkpt lat="59.1036622692" lon="30.4962422512"><ele>303.43</ele><time>2026-08-20T20:54:33Z</time></trkpt><trkpt lat="59.1036610957" lon="30.4962678999"><ele>303.43</ele><time>2026-08-20T20:54:34Z</time></trkpt><trkpt lat="59.1036603414" lon="30.4962940514"><ele>303.43</ele><time>2026-08-20T20:54:35Z</time></trkpt><trkpt lat="59.1036594193" lon="30.4963195324"><ele>303.43</ele><time>2026-08-20T20:54:36Z</time></trkpt><trkpt lat="59.1036605928" lon="30.4963415768"><ele>303.43</ele><time>2026-08-20T20:54:37Z</time></trkpt><trkpt lat="59.1036604252" lon="30.4963660520"><ele>303.43</ele><time>2026-08-20T20:54:38Z</time></trkpt><trkpt lat="59.1036608443" lon="30.4963887669"><ele>303.43</ele><time>2026-08-20T20:54:39Z</time></trkpt><trkpt lat="59.1036610957" lon="30.4964131583"><ele>303.43</ele><time>2026-08-20T20:54:40Z</time></trkpt><trkpt lat="59.1036629397" lon="30.4964363761"><ele>303.43</ele><time>2026-08-20T20:54:41Z</time></trkpt><trkpt lat="59.1036631912" lon="30.4964602645"><ele>303.43</ele><time>2026-08-20T20:54:42Z</time></trkpt><trkpt lat="59.1036631912" lon="30.4964794591"><ele>303.43</ele><time>2026-08-20T20:54:43Z</time></trkpt><trkpt lat="59.1036613472" lon="30.4965001624"><ele>303.43</ele><time>2026-08-20T20:54:44Z</time></trkpt><trkpt lat="59.1036595870" lon="30.4965290800"><ele>303.43</ele><time>2026-08-20T20:54:45Z</time></trkpt><trkpt lat="59.1036584973" lon="30.4965546448"><ele>303.43</ele><time>2026-08-20T20:54:46Z</time></trkpt><trkpt lat="59.1036573239" lon="30.4965820536"><ele>303.43</ele><time>2026-08-20T20:54:47Z</time></trkpt><trkpt lat="59.1036566533" lon="30.4966055229"><ele>303.43</ele><time>2026-08-20T20:54:48Z</time></trkpt><trkpt lat="59.1036553960" lon="30.4966238793"><ele>303.43</ele><time>2026-08-20T20:54:49Z</time></trkpt><trkpt lat="59.1036569886" lon="30.4966434930"><ele>303.43</ele><time>2026-08-20T20:54:50Z</time></trkpt><trkpt lat="59.1036578268" lon="30.4966613464"><ele>303.43</ele><time>2026-08-20T20:54:51Z</time></trkpt><trkpt lat="59.1036621854" lon="30.4966785293"><ele>303.43</ele><time>2026-08-20T20:54:52Z</time></trkpt><trkpt lat="59.1036597546" lon="30.4967041779"><ele>303.43</ele><time>2026-08-20T20:54:53Z</time></trkpt><trkpt lat="59.1036598384" lon="30.4967255518"><ele>303.43</ele><time>2026-08-20T20:54:54Z</time></trkpt><trkpt lat="59.1036592517" lon="30.4967477638"><ele>303.43</ele><time>2026-08-20T20:54:55Z</time></trkpt><trkpt lat="59.1036592517" lon="30.4967702273"><ele>303.43</ele><time>2026-08-20T20:54:56Z</time></trkpt><trkpt lat="59.1036577430" lon="30.4967941996"><ele>303.43</ele><time>2026-08-20T20:54:57Z</time></trkpt><trkpt lat="59.1036562342" lon="30.4968182556"><ele>303.43</ele><time>2026-08-20T20:54:58Z</time></trkpt><trkpt lat="59.1036545578" lon="30.4968447424"><ele>303.43</ele><time>2026-08-20T20:54:59Z</time></trkpt><trkpt lat="59.1036543902" lon="30.4968694691"><ele>303.43</ele><time>2026-08-20T20:55:00Z</time></trkpt><trkpt lat="59.1036575753" lon="30.4968915973"><ele>303.91</ele><time>2026-08-20T20:55:01Z</time></trkpt><trkpt lat="59.1036621854" lon="30.4969068523"><ele>303.91</ele><time>2026-08-20T20:55:02Z</time></trkpt><trkpt lat="59.1036634427" lon="30.4969150666"><ele>303.91</ele><time>2026-08-20T20:55:03Z</time></trkpt><trkpt lat="59.1036659572" lon="30.4969229456"><ele>303.91</ele><time>2026-08-20T20:55:04Z</time></trkpt><trkpt lat="59.1036672983" lon="30.4969349317"><ele>303.91</ele><time>2026-08-20T20:55:05Z</time></trkpt><trkpt lat="59.1036671307" lon="30.4969461635"><ele>303.91</ele><time>2026-08-20T20:55:06Z</time></trkpt><trkpt lat="59.1036697291" lon="30.4969541263"><ele>303.91</ele><time>2026-08-20T20:55:07Z</time></trkpt><trkpt lat="59.1036712378" lon="30.4969661962"><ele>303.43</ele><time>2026-08-20T20:55:08Z</time></trkpt><trkpt lat="59.1036726627" lon="30.4969786853"><ele>303.43</ele><time>2026-08-20T20:55:09Z</time></trkpt><trkpt lat="59.1036746744" lon="30.4969905876"><ele>303.43</ele><time>2026-08-20T20:55:10Z</time></trkpt><trkpt lat="59.1036753450" lon="30.4970110394"><ele>303.43</ele><time>2026-08-20T20:55:11Z</time></trkpt><trkpt lat="59.1036760993" lon="30.4970219359"><ele>303.43</ele><time>2026-08-20T20:55:12Z</time></trkpt><trkpt lat="59.1036760993" lon="30.4970219359"><ele>303.43</ele><time>2026-08-20T20:55:13Z</time></trkpt><trkpt lat="59.1036760993" lon="30.4970219359"><ele>303.43</ele><time>2026-08-20T20:55:14Z</time></trkpt><trkpt lat="59.1036760993" lon="30.4970219359"><ele>303.91</ele><time>2026-08-20T20:55:15Z</time></trkpt><trkpt lat="59.1036760993" lon="30.4970219359"><ele>303.91</ele><time>2026-08-20T20:55:16Z</time></trkpt><trkpt lat="59.1036760993" lon="30.4970219359"><ele>303.91</ele><time>2026-08-20T20:55:17Z</time></trkpt><trkpt lat="59.1036760993" lon="30.4970219359"><ele>303.91</ele><time>2026-08-20T20:55:18Z</time></trkpt><trkpt lat="59.1036789492" lon="30.4970584810"><ele>303.43</ele><time>2026-08-20T20:55:19Z</time></trkpt><trkpt lat="59.1036808770" lon="30.4970664438"><ele>303.43</ele><time>2026-08-20T20:55:20Z</time></trkpt><trkpt lat="59.1036802903" lon="30.4970707186"><ele>303.43</ele><time>2026-08-20T20:55:21Z</time></trkpt><trkpt lat="59.1036807932" lon="30.4970793519"><ele>303.43</ele><time>2026-08-20T20:55:22Z</time></trkpt><trkpt lat="59.1036815476" lon="30.4970844649"><ele>303.43</ele><time>2026-08-20T20:55:23Z</time></trkpt><trkpt lat="59.1036815476" lon="30.4970844649"><ele>303.43</ele><time>2026-08-20T20:55:24Z</time></trkpt><trkpt lat="59.1036815476" lon="30.4970844649"><ele>303.43</ele><time>2026-08-20T20:55:25Z</time></trkpt><trkpt lat="59.1036815476" lon="30.4970844649"><ele>303.43</ele><time>2026-08-20T20:55:26Z</time></trkpt><trkpt lat="59.1036815476" lon="30.4970844649"><ele>303.43</ele><time>2026-08-20T20:55:27Z</time></trkpt><trkpt lat="59.1036815476" lon="30.4970844649"><ele>303.43</ele><time>2026-08-20T20:55:28Z</time></trkpt><trkpt lat="59.1036815476" lon="30.4970844649"><ele>303.43</ele><time>2026-08-20T20:55:29Z</time></trkpt><trkpt lat="59.1036815476" lon="30.4970844649"><ele>303.43</ele><time>2026-08-20T20:55:30Z</time></trkpt><trkpt lat="59.1036714893" lon="30.4971079342"><ele>303.43</ele><time>2026-08-20T20:55:31Z</time></trkpt><trkpt lat="59.1036686394" lon="30.4971094429"><ele>303.43</ele><time>2026-08-20T20:55:32Z</time></trkpt><trkpt lat="59.1036674660" lon="30.4971069284"><ele>303.43</ele><time>2026-08-20T20:55:33Z</time></trkpt><trkpt lat="59.1036662925" lon="30.4971059225"><ele>303.43</ele><time>2026-08-20T20:55:34Z</time></trkpt><trkpt lat="59.1036662925" lon="30.4971059225"><ele>303.43</ele><time>2026-08-20T20:55:35Z</time></trkpt><trkpt lat="59.1036662925" lon="30.4971059225"><ele>303.43</ele><time>2026-08-20T20:55:36Z</time></trkpt><trkpt lat="59.1036662925" lon="30.4971059225"><ele>303.43</ele><time>2026-08-20T20:55:37Z</time></trkpt><trkpt lat="59.1036682203" lon="30.4971058387"><ele>303.43</ele><time>2026-08-20T20:55:38Z</time></trkpt><trkpt lat="59.1036689747" lon="30.4971060902"><ele>303.43</ele><time>2026-08-20T20:55:39Z</time></trkpt><trkpt lat="59.1036684718" lon="30.4971051682"><ele>303.43</ele><time>2026-08-20T20:55:40Z</time></trkpt><trkpt lat="59.1036715731" lon="30.4971044976"><ele>303.43</ele><time>2026-08-20T20:55:41Z</time></trkpt><trkpt lat="59.1036715731" lon="30.4971044976"><ele>303.43</ele><time>2026-08-20T20:55:42Z</time></trkpt><trkpt lat="59.1036715731" lon="30.4971044976"><ele>303.43</ele><time>2026-08-20T20:55:43Z</time></trkpt><trkpt lat="59.1036715731" lon="30.4971044976"><ele>303.43</ele><time>2026-08-20T20:55:44Z</time></trkpt><trkpt lat="59.1036715731" lon="30.4971044976"><ele>303.43</ele><time>2026-08-20T20:55:45Z</time></trkpt><trkpt lat="59.1036715731" lon="30.4971044976"><ele>303.43</ele><time>2026-08-20T20:55:46Z</time></trkpt><trkpt lat="59.1036715731" lon="30.4971044976"><ele>303.43</ele><time>2026-08-20T20:55:47Z</time></trkpt><trkpt lat="59.1036715731" lon="30.4971044976"><ele>303.43</ele><time>2026-08-20T20:55:48Z</time></trkpt><trkpt lat="59.1036715731" lon="30.4971044976"><ele>303.43</ele><time>2026-08-20T20:55:49Z</time></trkpt><trkpt lat="59.1036715731" lon="30.4971044976"><ele>303.43</ele><time>2026-08-20T20:55:50Z</time></trkpt><trkpt lat="59.1036715731" lon="30.4971044976"><ele>303.43</ele><time>2026-08-20T20:55:51Z</time></trkpt><trkpt lat="59.1036715731" lon="30.4971044976"><ele>303.43</ele><time>2026-08-20T20:55:52Z</time></trkpt><trkpt lat="59.1036715731" lon="30.4971044976"><ele>303.43</ele><time>2026-08-20T20:55:53Z</time></trkpt><trkpt lat="59.1036715731" lon="30.4971044976"><ele>303.43</ele><time>2026-08-20T20:55:54Z</time></trkpt><trkpt lat="59.1036715731" lon="30.4971044976"><ele>303.43</ele><time>2026-08-20T20:55:55Z</time></trkpt><trkpt lat="59.1036712378" lon="30.4971030727"><ele>303.43</ele><time>2026-08-20T20:55:56Z</time></trkpt><trkpt lat="59.1036688909" lon="30.4971025698"><ele>303.43</ele><time>2026-08-20T20:55:57Z</time></trkpt><trkpt lat="59.1036678851" lon="30.4971015640"><ele>303.43</ele><time>2026-08-20T20:55:58Z</time></trkpt><trkpt lat="59.1036702320" lon="30.4970962834"><ele>303.43</ele><time>2026-08-20T20:55:59Z</time></trkpt><trkpt lat="59.1036702320" lon="30.4970962834"><ele>303.43</ele><time>2026-08-20T20:56:00Z</time></trkpt><trkpt lat="59.1036702320" lon="30.4970962834"><ele>303.43</ele><time>2026-08-20T20:56:01Z</time></trkpt><trkpt lat="59.1036702320" lon="30.4970962834"><ele>303.43</ele><time>2026-08-20T20:56:02Z</time></trkpt><trkpt lat="59.1036702320" lon="30.4970962834"><ele>303.43</ele><time>2026-08-20T20:56:03Z</time></trkpt><trkpt lat="59.1036702320" lon="30.4970962834"><ele>303.43</ele><time>2026-08-20T20:56:04Z</time></trkpt><trkpt lat="59.1036702320" lon="30.4970962834"><ele>303.43</ele><time>2026-08-20T20:56:05Z</time></trkpt><trkpt lat="59.1036702320" lon="30.4970962834"><ele>303.43</ele><time>2026-08-20T20:56:06Z</time></trkpt><trkpt lat="59.1036702320" lon="30.4970962834"><ele>303.43</ele><time>2026-08-20T20:56:07Z</time></trkpt><trkpt lat="59.1036702320" lon="30.4970962834"><ele>303.43</ele><time>2026-08-20T20:56:08Z</time></trkpt><trkpt lat="59.1036702320" lon="30.4970962834"><ele>303.43</ele><time>2026-08-20T20:56:09Z</time></trkpt><trkpt lat="59.1036702320" lon="30.4970962834"><ele>303.43</ele><time>2026-08-20T20:56:10Z</time></trkpt><trkpt lat="59.1036702320" lon="30.4970962834"><ele>303.43</ele><time>2026-08-20T20:56:11Z</time></trkpt><trkpt lat="59.1036702320" lon="30.4970962834"><ele>303.43</ele><time>2026-08-20T20:56:12Z</time></trkpt><trkpt lat="59.1036702320" lon="30.4970962834"><ele>303.43</ele><time>2026-08-20T20:56:13Z</time></trkpt><trkpt lat="59.1036702320" lon="30.4970962834"><ele>303.43</ele><time>2026-08-20T20:56:14Z</time></trkpt><trkpt lat="59.1036702320" lon="30.4970962834"><ele>303.43</ele><time>2026-08-20T20:56:15Z</time></trkpt><trkpt lat="59.1036702320" lon="30.4970962834"><ele>303.43</ele><time>2026-08-20T20:56:16Z</time></trkpt><trkpt lat="59.1036702320" lon="30.4970962834"><ele>303.43</ele><time>2026-08-20T20:56:17Z</time></trkpt><trkpt lat="59.1036702320" lon="30.4970962834"><ele>303.43</ele><time>2026-08-20T20:56:18Z</time></trkpt><trkpt lat="59.1036702320" lon="30.4970962834"><ele>303.43</ele><time>2026-08-20T20:56:19Z</time></trkpt><trkpt lat="59.1036702320" lon="30.4970962834"><ele>303.43</ele><time>2026-08-20T20:56:20Z</time></trkpt><trkpt lat="59.1036702320" lon="30.4970962834"><ele>303.43</ele><time>2026-08-20T20:56:21Z</time></trkpt><trkpt lat="59.1036702320" lon="30.4970962834"><ele>303.43</ele><time>2026-08-20T20:56:22Z</time></trkpt><trkpt lat="59.1036702320" lon="30.4970962834"><ele>303.43</ele><time>2026-08-20T20:56:23Z</time></trkpt><trkpt lat="59.1036702320" lon="30.4970962834"><ele>303.43</ele><time>2026-08-20T20:56:24Z</time></trkpt><trkpt lat="59.1036702320" lon="30.4970962834"><ele>302.95</ele><time>2026-08-20T20:56:25Z</time></trkpt><trkpt lat="59.1036833916" lon="30.4971216805"><ele>302.95</ele><time>2026-08-20T20:56:26Z</time></trkpt><trkpt lat="59.1036845651" lon="30.4971420486"><ele>302.95</ele><time>2026-08-20T20:56:27Z</time></trkpt><trkpt lat="59.1036870796" lon="30.4971569683"><ele>302.95</ele><time>2026-08-20T20:56:28Z</time></trkpt><trkpt lat="59.1036892589" lon="30.4971776716"><ele>302.95</ele><time>2026-08-20T20:56:29Z</time></trkpt><trkpt lat="59.1036916897" lon="30.4972028174"><ele>303.43</ele><time>2026-08-20T20:56:30Z</time></trkpt><trkpt lat="59.1036922764" lon="30.4972225986"><ele>303.43</ele><time>2026-08-20T20:56:31Z</time></trkpt><trkpt lat="59.1036927793" lon="30.4972387757"><ele>303.43</ele><time>2026-08-20T20:56:32Z</time></trkpt><trkpt lat="59.1036956292" lon="30.4972570483"><ele>303.43</ele><time>2026-08-20T20:56:33Z</time></trkpt><trkpt lat="59.1036970541" lon="30.4972780868"><ele>303.43</ele><time>2026-08-20T20:56:34Z</time></trkpt><trkpt lat="59.1036978923" lon="30.4973013885"><ele>303.43</ele><time>2026-08-20T20:56:35Z</time></trkpt><trkpt lat="59.1037002392" lon="30.4973230977"><ele>303.43</ele><time>2026-08-20T20:56:36Z</time></trkpt><trkpt lat="59.1037011612" lon="30.4973374307"><ele>303.43</ele><time>2026-08-20T20:56:37Z</time></trkpt><trkpt lat="59.1037024185" lon="30.4973554518"><ele>303.43</ele><time>2026-08-20T20:56:38Z</time></trkpt><trkpt lat="59.1037042625" lon="30.4973723833"><ele>303.43</ele><time>2026-08-20T20:56:39Z</time></trkpt><trkpt lat="59.1037073638" lon="30.4973933380"><ele>303.43</ele><time>2026-08-20T20:56:40Z</time></trkpt><trkpt lat="59.1037109680" lon="30.4974179808"><ele>303.43</ele><time>2026-08-20T20:56:41Z</time></trkpt><trkpt lat="59.1037125606" lon="30.4974403605"><ele>303.43</ele><time>2026-08-20T20:56:42Z</time></trkpt><trkpt lat="59.1037154943" lon="30.4974664282"><ele>303.43</ele><time>2026-08-20T20:56:43Z</time></trkpt><trkpt lat="59.1037157457" lon="30.4974984471"><ele>303.43</ele><time>2026-08-20T20:56:44Z</time></trkpt><trkpt lat="59.1037155781" lon="30.4975369200"><ele>303.43</ele><time>2026-08-20T20:56:45Z</time></trkpt><trkpt lat="59.1037131473" lon="30.4975733813"><ele>303.43</ele><time>2026-08-20T20:56:46Z</time></trkpt><trkpt lat="59.1037144884" lon="30.4976003710"><ele>303.43</ele><time>2026-08-20T20:56:47Z</time></trkpt><trkpt lat="59.1037168354" lon="30.4976262711"><ele>303.43</ele><time>2026-08-20T20:56:48Z</time></trkpt><trkpt lat="59.1037192661" lon="30.4976527579"><ele>303.43</ele><time>2026-08-20T20:56:49Z</time></trkpt><trkpt lat="59.1037214454" lon="30.4976758920"><ele>303.43</ele><time>2026-08-20T20:56:50Z</time></trkpt><trkpt lat="59.1037213616" lon="30.4977048934"><ele>303.43</ele><time>2026-08-20T20:56:51Z</time></trkpt><trkpt lat="59.1037232894" lon="30.4977313802"><ele>303.43</ele><time>2026-08-20T20:56:52Z</time></trkpt><trkpt lat="59.1037232894" lon="30.4977628961"><ele>303.43</ele><time>2026-08-20T20:56:53Z</time></trkpt><trkpt lat="59.1037213616" lon="30.4977897182"><ele>303.43</ele><time>2026-08-20T20:56:54Z</time></trkpt><trkpt lat="59.1037191823" lon="30.4978183843"><ele>303.43</ele><time>2026-08-20T20:56:55Z</time></trkpt><trkpt lat="59.1037189309" lon="30.4978448711"><ele>303.43</ele><time>2026-08-20T20:56:56Z</time></trkpt><trkpt lat="59.1037204396" lon="30.4978754651"><ele>303.43</ele><time>2026-08-20T20:56:57Z</time></trkpt><trkpt lat="59.1037237924" lon="30.4979102500"><ele>303.43</ele><time>2026-08-20T20:56:58Z</time></trkpt><trkpt lat="59.1037268937" lon="30.4979489744"><ele>303.43</ele><time>2026-08-20T20:56:59Z</time></trkpt><trkpt lat="59.1037299950" lon="30.4979759641"><ele>303.43</ele><time>2026-08-20T20:57:00Z</time></trkpt><trkpt lat="59.1037323419" lon="30.4980039597"><ele>302.95</ele><time>2026-08-20T20:57:01Z</time></trkpt><trkpt lat="59.1037337668" lon="30.4980343860"><ele>302.95</ele><time>2026-08-20T20:57:02Z</time></trkpt><trkpt lat="59.1037373710" lon="30.4980581906"><ele>302.95</ele><time>2026-08-20T20:57:03Z</time></trkpt><trkpt lat="59.1037439927" lon="30.4980820790"><ele>302.95</ele><time>2026-08-20T20:57:04Z</time></trkpt><trkpt lat="59.1037483513" lon="30.4981091525"><ele>302.95</ele><time>2026-08-20T20:57:05Z</time></trkpt><trkpt lat="59.1037492733" lon="30.4981352203"><ele>302.95</ele><time>2026-08-20T20:57:06Z</time></trkpt><trkpt lat="59.1037500277" lon="30.4981602821"><ele>302.95</ele><time>2026-08-20T20:57:07Z</time></trkpt><trkpt lat="59.1037489381" lon="30.4981881939"><ele>302.95</ele><time>2026-08-20T20:57:08Z</time></trkpt><trkpt lat="59.1037476808" lon="30.4982143454"><ele>302.95</ele><time>2026-08-20T20:57:09Z</time></trkpt><trkpt lat="59.1037498601" lon="30.4982354678"><ele>302.95</ele><time>2026-08-20T20:57:10Z</time></trkpt><trkpt lat="59.1037486866" lon="30.4982616194"><ele>302.95</ele><time>2026-08-20T20:57:11Z</time></trkpt><trkpt lat="59.1037469264" lon="30.4982907884"><ele>302.95</ele><time>2026-08-20T20:57:12Z</time></trkpt><trkpt lat="59.1037485190" lon="30.4983192869"><ele>302.95</ele><time>2026-08-20T20:57:13Z</time></trkpt><trkpt lat="59.1037485190" lon="30.4983486235"><ele>302.95</ele><time>2026-08-20T20:57:14Z</time></trkpt><trkpt lat="59.1037473455" lon="30.4983798880"><ele>302.95</ele><time>2026-08-20T20:57:15Z</time></trkpt><trkpt lat="59.1037462559" lon="30.4984131642"><ele>302.95</ele><time>2026-08-20T20:57:16Z</time></trkpt><trkpt lat="59.1037496924" lon="30.4984370526"><ele>302.95</ele><time>2026-08-20T20:57:17Z</time></trkpt><trkpt lat="59.1037500277" lon="30.4984651320"><ele>302.95</ele><time>2026-08-20T20:57:18Z</time></trkpt><trkpt lat="59.1037506983" lon="30.4984907806"><ele>302.95</ele><time>2026-08-20T20:57:19Z</time></trkpt><trkpt lat="59.1037506983" lon="30.4985185247"><ele>302.95</ele><time>2026-08-20T20:57:20Z</time></trkpt><trkpt lat="59.1037532967" lon="30.4985478614"><ele>302.95</ele><time>2026-08-20T20:57:21Z</time></trkpt><trkpt lat="59.1037555598" lon="30.4985788744"><ele>302.95</ele><time>2026-08-20T20:57:22Z</time></trkpt><trkpt lat="59.1037577391" lon="30.4986091331"><ele>302.95</ele><time>2026-08-20T20:57:23Z</time></trkpt><trkpt lat="59.1037595831" lon="30.4986396432"><ele>302.95</ele><time>2026-08-20T20:57:24Z</time></trkpt><trkpt lat="59.1037613433" lon="30.4986692313"><ele>302.95</ele><time>2026-08-20T20:57:25Z</time></trkpt><trkpt lat="59.1037645284" lon="30.4986929521"><ele>302.95</ele><time>2026-08-20T20:57:26Z</time></trkpt><trkpt lat="59.1037678812" lon="30.4987145774"><ele>302.95</ele><time>2026-08-20T20:57:27Z</time></trkpt><trkpt lat="59.1037722398" lon="30.4987382982"><ele>302.95</ele><time>2026-08-20T20:57:28Z</time></trkpt><trkpt lat="59.1037769336" lon="30.4987641983"><ele>302.95</ele><time>2026-08-20T20:57:29Z</time></trkpt><trkpt lat="59.1037778556" lon="30.4987943731"><ele>302.95</ele><time>2026-08-20T20:57:30Z</time></trkpt><trkpt lat="59.1037787776" lon="30.4988223687"><ele>302.95</ele><time>2026-08-20T20:57:31Z</time></trkpt><trkpt lat="59.1037831362" lon="30.4988478497"><ele>302.95</ele><time>2026-08-20T20:57:32Z</time></trkpt><trkpt lat="59.1037875786" lon="30.4988734983"><ele>302.95</ele><time>2026-08-20T20:57:33Z</time></trkpt><trkpt lat="59.1037905961" lon="30.4988960456"><ele>302.95</ele><time>2026-08-20T20:57:34Z</time></trkpt><trkpt lat="59.1037937813" lon="30.4989175871"><ele>302.95</ele><time>2026-08-20T20:57:35Z</time></trkpt><trkpt lat="59.1037943680" lon="30.4989425652"><ele>302.95</ele><time>2026-08-20T20:57:36Z</time></trkpt><trkpt lat="59.1037913505" lon="30.4989705607"><ele>302.47</ele><time>2026-08-20T20:57:37Z</time></trkpt><trkpt lat="59.1037879977" lon="30.4989973828"><ele>302.47</ele><time>2026-08-20T20:57:38Z</time></trkpt><trkpt lat="59.1037849803" lon="30.4990249593"><ele>302.47</ele><time>2026-08-20T20:57:39Z</time></trkpt><trkpt lat="59.1037836391" lon="30.4990535416"><ele>302.47</ele><time>2026-08-20T20:57:40Z</time></trkpt><trkpt lat="59.1037857346" lon="30.4990813695"><ele>302.47</ele><time>2026-08-20T20:57:41Z</time></trkpt><trkpt lat="59.1037833877" lon="30.4991124664"><ele>302.47</ele><time>2026-08-20T20:57:42Z</time></trkpt><trkpt lat="59.1037813760" lon="30.4991418868"><ele>302.47</ele><time>2026-08-20T20:57:43Z</time></trkpt><trkpt lat="59.1037848964" lon="30.4991663620"><ele>302.47</ele><time>2026-08-20T20:57:44Z</time></trkpt><trkpt lat="59.1037888359" lon="30.4991877358"><ele>302.47</ele><time>2026-08-20T20:57:45Z</time></trkpt><trkpt lat="59.1037933622" lon="30.4992098641"><ele>302.47</ele><time>2026-08-20T20:57:46Z</time></trkpt><trkpt lat="59.1037997324" lon="30.4992303997"><ele>302.47</ele><time>2026-08-20T20:57:47Z</time></trkpt><trkpt lat="59.1038054321" lon="30.4992519412"><ele>302.47</ele><time>2026-08-20T20:57:48Z</time></trkpt><trkpt lat="59.1038099583" lon="30.4992715549"><ele>302.47</ele><time>2026-08-20T20:57:49Z</time></trkpt><trkpt lat="59.1038122214" lon="30.4992903303"><ele>302.47</ele><time>2026-08-20T20:57:50Z</time></trkpt><trkpt lat="59.1038141493" lon="30.4993086867"><ele>302.47</ele><time>2026-08-20T20:57:51Z</time></trkpt><trkpt lat="59.1038130596" lon="30.4993309826"><ele>302.47</ele><time>2026-08-20T20:57:52Z</time></trkpt><trkpt lat="59.1038131434" lon="30.4993510991"><ele>302.47</ele><time>2026-08-20T20:57:53Z</time></trkpt><trkpt lat="59.1038117185" lon="30.4993738979"><ele>302.47</ele><time>2026-08-20T20:57:54Z</time></trkpt><trkpt lat="59.1038126405" lon="30.4993967805"><ele>302.47</ele><time>2026-08-20T20:57:55Z</time></trkpt><trkpt lat="59.1038139816" lon="30.4994163942"><ele>302.47</ele><time>2026-08-20T20:57:56Z</time></trkpt><trkpt lat="59.1038160771" lon="30.4994340800"><ele>302.47</ele><time>2026-08-20T20:57:57Z</time></trkpt><trkpt lat="59.1038199328" lon="30.4994516820"><ele>302.47</ele><time>2026-08-20T20:57:58Z</time></trkpt><trkpt lat="59.1038205195" lon="30.4994710442"><ele>302.47</ele><time>2026-08-20T20:57:59Z</time></trkpt><trkpt lat="59.1038204357" lon="30.4994882271"><ele>302.47</ele><time>2026-08-20T20:58:00Z</time></trkpt><trkpt lat="59.1038241237" lon="30.4995032307"><ele>302.47</ele><time>2026-08-20T20:58:01Z</time></trkpt><trkpt lat="59.1038284823" lon="30.4995226767"><ele>302.47</ele><time>2026-08-20T20:58:02Z</time></trkpt><trkpt lat="59.1038296558" lon="30.4995457269"><ele>302.47</ele><time>2026-08-20T20:58:03Z</time></trkpt><trkpt lat="59.1038312484" lon="30.4995702859"><ele>302.47</ele><time>2026-08-20T20:58:04Z</time></trkpt><trkpt lat="59.1038365290" lon="30.4995986167"><ele>302.47</ele><time>2026-08-20T20:58:05Z</time></trkpt><trkpt lat="59.1038403846" lon="30.4996258579"><ele>302.47</ele><time>2026-08-20T20:58:06Z</time></trkpt><trkpt lat="59.1038408875" lon="30.4996536858"><ele>302.47</ele><time>2026-08-20T20:58:07Z</time></trkpt><trkpt lat="59.1038434859" lon="30.4996738862"><ele>302.47</ele><time>2026-08-20T20:58:08Z</time></trkpt><trkpt lat="59.1038431507" lon="30.4996874649"><ele>302.47</ele><time>2026-08-20T20:58:09Z</time></trkpt><trkpt lat="59.1038437374" lon="30.4997025523"><ele>302.47</ele><time>2026-08-20T20:58:10Z</time></trkpt><trkpt lat="59.1038482636" lon="30.4997256864"><ele>302.47</ele><time>2026-08-20T20:58:11Z</time></trkpt><trkpt lat="59.1038507782" lon="30.4997484852"><ele>302.47</ele><time>2026-08-20T20:58:12Z</time></trkpt><trkpt lat="59.1038564779" lon="30.4997619800"><ele>302.47</ele><time>2026-08-20T20:58:13Z</time></trkpt><trkpt lat="59.1038607527" lon="30.4997796658"><ele>302.47</ele><time>2026-08-20T20:58:14Z</time></trkpt><trkpt lat="59.1038631834" lon="30.4998017941"><ele>302.47</ele><time>2026-08-20T20:58:15Z</time></trkpt><trkpt lat="59.1038663685" lon="30.4998217430"><ele>302.47</ele><time>2026-08-20T20:58:16Z</time></trkpt><trkpt lat="59.1038715653" lon="30.4998385906"><ele>302.47</ele><time>2026-08-20T20:58:17Z</time></trkpt><trkpt lat="59.1038781870" lon="30.4998543486"><ele>302.47</ele><time>2026-08-20T20:58:18Z</time></trkpt><trkpt lat="59.1038804501" lon="30.4998805840"><ele>302.47</ele><time>2026-08-20T20:58:19Z</time></trkpt><trkpt lat="59.1038816236" lon="30.4999010358"><ele>302.47</ele><time>2026-08-20T20:58:20Z</time></trkpt><trkpt lat="59.1038807854" lon="30.4999170452"><ele>302.47</ele><time>2026-08-20T20:58:21Z</time></trkpt><trkpt lat="59.1038760915" lon="30.4999308754"><ele>302.47</ele><time>2026-08-20T20:58:22Z</time></trkpt><trkpt lat="59.1038735770" lon="30.4999435320"><ele>302.47</ele><time>2026-08-20T20:58:23Z</time></trkpt><trkpt lat="59.1038711462" lon="30.4999548476"><ele>302.47</ele><time>2026-08-20T20:58:24Z</time></trkpt><trkpt lat="59.1038710624" lon="30.4999664985"><ele>302.47</ele><time>2026-08-20T20:58:25Z</time></trkpt><trkpt lat="59.1038698889" lon="30.4999810830"><ele>302.47</ele><time>2026-08-20T20:58:26Z</time></trkpt><trkpt lat="59.1038711462" lon="30.5000017863"><ele>302.47</ele><time>2026-08-20T20:58:27Z</time></trkpt><trkpt lat="59.1038729902" lon="30.5000257585"><ele>302.47</ele><time>2026-08-20T20:58:28Z</time></trkpt><trkpt lat="59.1038749181" lon="30.5000465456"><ele>302.47</ele><time>2026-08-20T20:58:29Z</time></trkpt><trkpt lat="59.1038761754" lon="30.5000665784"><ele>302.47</ele><time>2026-08-20T20:58:30Z</time></trkpt><trkpt lat="59.1038748343" lon="30.5000923946"><ele>302.47</ele><time>2026-08-20T20:58:31Z</time></trkpt><trkpt lat="59.1038775165" lon="30.5001204740"><ele>302.47</ele><time>2026-08-20T20:58:32Z</time></trkpt><trkpt lat="59.1038810369" lon="30.5001468770"><ele>302.47</ele><time>2026-08-20T20:58:33Z</time></trkpt><trkpt lat="59.1038826294" lon="30.5001695920"><ele>302.47</ele><time>2026-08-20T20:58:34Z</time></trkpt><trkpt lat="59.1038856469" lon="30.5001925584"><ele>302.47</ele><time>2026-08-20T20:58:35Z</time></trkpt><trkpt lat="59.1038844734" lon="30.5002184585"><ele>302.47</ele><time>2026-08-20T20:58:36Z</time></trkpt><trkpt lat="59.1038859822" lon="30.5002433527"><ele>302.47</ele><time>2026-08-20T20:58:37Z</time></trkpt><trkpt lat="59.1038853955" lon="30.5002680793"><ele>302.47</ele><time>2026-08-20T20:58:38Z</time></trkpt><trkpt lat="59.1038883291" lon="30.5002907943"><ele>302.47</ele><time>2026-08-20T20:58:39Z</time></trkpt><trkpt lat="59.1038906761" lon="30.5003156886"><ele>302.47</ele><time>2026-08-20T20:58:40Z</time></trkpt><trkpt lat="59.1038923524" lon="30.5003386550"><ele>302.47</ele><time>2026-08-20T20:58:41Z</time></trkpt><trkpt lat="59.1038912628" lon="30.5003581848"><ele>302.47</ele><time>2026-08-20T20:58:42Z</time></trkpt><trkpt lat="59.1038912628" lon="30.5003730208"><ele>302.47</ele><time>2026-08-20T20:58:43Z</time></trkpt><trkpt lat="59.1038887482" lon="30.5003894493"><ele>302.47</ele><time>2026-08-20T20:58:44Z</time></trkpt><trkpt lat="59.1038856469" lon="30.5004040338"><ele>302.47</ele><time>2026-08-20T20:58:45Z</time></trkpt><trkpt lat="59.1038828809" lon="30.5004185345"><ele>301.99</ele><time>2026-08-20T20:58:46Z</time></trkpt><trkpt lat="59.1038818751" lon="30.5004381482"><ele>301.99</ele><time>2026-08-20T20:58:47Z</time></trkpt><trkpt lat="59.1038837191" lon="30.5004759505"><ele>301.99</ele><time>2026-08-20T20:58:48Z</time></trkpt><trkpt lat="59.1038840543" lon="30.5005041976"><ele>301.99</ele><time>2026-08-20T20:58:49Z</time></trkpt><trkpt lat="59.1038887482" lon="30.5005293433"><ele>301.99</ele><time>2026-08-20T20:58:50Z</time></trkpt><trkpt lat="59.1038920172" lon="30.5005521420"><ele>301.99</ele><time>2026-08-20T20:58:51Z</time></trkpt><trkpt lat="59.1038938612" lon="30.5005743541"><ele>301.99</ele><time>2026-08-20T20:58:52Z</time></trkpt><trkpt lat="59.1038940288" lon="30.5005981587"><ele>301.99</ele><time>2026-08-20T20:58:53Z</time></trkpt><trkpt lat="59.1038929392" lon="30.5006212927"><ele>301.99</ele><time>2026-08-20T20:58:54Z</time></trkpt><trkpt lat="59.1038926877" lon="30.5006424990"><ele>301.99</ele><time>2026-08-20T20:58:55Z</time></trkpt><trkpt lat="59.1038972978" lon="30.5006600171"><ele>301.99</ele><time>2026-08-20T20:58:56Z</time></trkpt><trkpt lat="59.1038990580" lon="30.5006806366"><ele>301.99</ele><time>2026-08-20T20:58:57Z</time></trkpt><trkpt lat="59.1038993932" lon="30.5007023457"><ele>301.99</ele><time>2026-08-20T20:58:58Z</time></trkpt><trkpt lat="59.1038979683" lon="30.5007234681"><ele>301.99</ele><time>2026-08-20T20:58:59Z</time></trkpt><trkpt lat="59.1038970463" lon="30.5007436685"><ele>301.99</ele><time>2026-08-20T20:59:00Z</time></trkpt><trkpt lat="59.1038968787" lon="30.5007671379"><ele>301.99</ele><time>2026-08-20T20:59:01Z</time></trkpt><trkpt lat="59.1038984712" lon="30.5007894337"><ele>301.99</ele><time>2026-08-20T20:59:02Z</time></trkpt><trkpt lat="59.1038987227" lon="30.5008111428"><ele>301.99</ele><time>2026-08-20T20:59:03Z</time></trkpt><trkpt lat="59.1038970463" lon="30.5008341931"><ele>301.99</ele><time>2026-08-20T20:59:04Z</time></trkpt><trkpt lat="59.1038974654" lon="30.5008534715"><ele>301.99</ele><time>2026-08-20T20:59:05Z</time></trkpt><trkpt lat="59.1038977169" lon="30.5008710735"><ele>301.99</ele><time>2026-08-20T20:59:06Z</time></trkpt><trkpt lat="59.1038990580" lon="30.5008865800"><ele>301.99</ele><time>2026-08-20T20:59:07Z</time></trkpt><trkpt lat="59.1039022431" lon="30.5009055231"><ele>301.99</ele><time>2026-08-20T20:59:08Z</time></trkpt><trkpt lat="59.1039028298" lon="30.5009300821"><ele>301.99</ele><time>2026-08-20T20:59:09Z</time></trkpt><trkpt lat="59.1039057635" lon="30.5009555630"><ele>301.99</ele><time>2026-08-20T20:59:10Z</time></trkpt><trkpt lat="59.1039133910" lon="30.5009791162"><ele>301.99</ele><time>2026-08-20T20:59:11Z</time></trkpt><trkpt lat="59.1039174981" lon="30.5010076985"><ele>301.99</ele><time>2026-08-20T20:59:12Z</time></trkpt><trkpt lat="59.1039205994" lon="30.5010341853"><ele>301.99</ele><time>2026-08-20T20:59:13Z</time></trkpt><trkpt lat="59.1039242875" lon="30.5010510329"><ele>301.99</ele><time>2026-08-20T20:59:14Z</time></trkpt><trkpt lat="59.1039273888" lon="30.5010740831"><ele>301.99</ele><time>2026-08-20T20:59:15Z</time></trkpt><trkpt lat="59.1039286461" lon="30.5010996480"><ele>301.99</ele><time>2026-08-20T20:59:16Z</time></trkpt><trkpt lat="59.1039284784" lon="30.5011212733"><ele>301.99</ele><time>2026-08-20T20:59:17Z</time></trkpt><trkpt lat="59.1039306577" lon="30.5011388753"><ele>301.99</ele><time>2026-08-20T20:59:18Z</time></trkpt><trkpt lat="59.1039314959" lon="30.5011563934"><ele>301.99</ele><time>2026-08-20T20:59:19Z</time></trkpt><trkpt lat="59.1039306577" lon="30.5011754204"><ele>301.99</ele><time>2026-08-20T20:59:20Z</time></trkpt><trkpt lat="59.1039318312" lon="30.5012013204"><ele>301.99</ele><time>2026-08-20T20:59:21Z</time></trkpt><trkpt lat="59.1039395425" lon="30.5012205988"><ele>301.99</ele><time>2026-08-20T20:59:22Z</time></trkpt><trkpt lat="59.1039441526" lon="30.5012436491"><ele>301.99</ele><time>2026-08-20T20:59:23Z</time></trkpt><trkpt lat="59.1039501876" lon="30.5012611672"><ele>301.99</ele><time>2026-08-20T20:59:24Z</time></trkpt><trkpt lat="59.1039537918" lon="30.5012795236"><ele>301.99</ele><time>2026-08-20T20:59:25Z</time></trkpt><trkpt lat="59.1039546300" lon="30.5012973770"><ele>301.99</ele><time>2026-08-20T20:59:26Z</time></trkpt><trkpt lat="59.1039555520" lon="30.5013162363"><ele>301.99</ele><time>2026-08-20T20:59:27Z</time></trkpt><trkpt lat="59.1039569769" lon="30.5013358500"><ele>301.99</ele><time>2026-08-20T20:59:28Z</time></trkpt><trkpt lat="59.1039582342" lon="30.5013562180"><ele>301.99</ele><time>2026-08-20T20:59:29Z</time></trkpt><trkpt lat="59.1039595753" lon="30.5013805255"><ele>301.99</ele><time>2026-08-20T20:59:30Z</time></trkpt><trkpt lat="59.1039621737" lon="30.5014032405"><ele>301.99</ele><time>2026-08-20T20:59:31Z</time></trkpt><trkpt lat="59.1039620899" lon="30.5014244467"><ele>301.99</ele><time>2026-08-20T20:59:32Z</time></trkpt><trkpt lat="59.1039599944" lon="30.5014435574"><ele>301.99</ele><time>2026-08-20T20:59:33Z</time></trkpt><trkpt lat="59.1039569769" lon="30.5014633387"><ele>301.99</ele><time>2026-08-20T20:59:34Z</time></trkpt><trkpt lat="59.1039571445" lon="30.5014815275"><ele>301.99</ele><time>2026-08-20T20:59:35Z</time></trkpt><trkpt lat="59.1039587371" lon="30.5015014764"><ele>301.99</ele><time>2026-08-20T20:59:36Z</time></trkpt><trkpt lat="59.1039603297" lon="30.5015183240"><ele>301.99</ele><time>2026-08-20T20:59:37Z</time></trkpt><trkpt lat="59.1039621737" lon="30.5015409552"><ele>301.99</ele><time>2026-08-20T20:59:38Z</time></trkpt><trkpt lat="59.1039649397" lon="30.5015619937"><ele>301.99</ele><time>2026-08-20T20:59:39Z</time></trkpt><trkpt lat="59.1039657779" lon="30.5015794281"><ele>301.99</ele><time>2026-08-20T20:59:40Z</time></trkpt><trkpt lat="59.1039644368" lon="30.5015989579"><ele>301.99</ele><time>2026-08-20T20:59:41Z</time></trkpt><trkpt lat="59.1039654426" lon="30.5016145483"><ele>301.99</ele><time>2026-08-20T20:59:42Z</time></trkpt><trkpt lat="59.1039645206" lon="30.5016308930"><ele>301.99</ele><time>2026-08-20T20:59:43Z</time></trkpt><trkpt lat="59.1039643530" lon="30.5016325694"><ele>301.99</ele><time>2026-08-20T20:59:44Z</time></trkpt><trkpt lat="59.1039649397" lon="30.5016329885"><ele>301.99</ele><time>2026-08-20T20:59:45Z</time></trkpt><trkpt lat="59.1039649397" lon="30.5016329885"><ele>301.99</ele><time>2026-08-20T20:59:46Z</time></trkpt><trkpt lat="59.1039649397" lon="30.5016329885"><ele>301.99</ele><time>2026-08-20T20:59:47Z</time></trkpt><trkpt lat="59.1039649397" lon="30.5016329885"><ele>301.99</ele><time>2026-08-20T20:59:48Z</time></trkpt><trkpt lat="59.1039649397" lon="30.5016329885"><ele>301.99</ele><time>2026-08-20T20:59:49Z</time></trkpt><trkpt lat="59.1039649397" lon="30.5016329885"><ele>301.99</ele><time>2026-08-20T20:59:50Z</time></trkpt><trkpt lat="59.1039649397" lon="30.5016329885"><ele>301.99</ele><time>2026-08-20T20:59:51Z</time></trkpt><trkpt lat="59.1039649397" lon="30.5016329885"><ele>301.99</ele><time>2026-08-20T20:59:52Z</time></trkpt><trkpt lat="59.1039649397" lon="30.5016329885"><ele>301.99</ele><time>2026-08-20T20:59:53Z</time></trkpt><trkpt lat="59.1039649397" lon="30.5016329885"><ele>301.99</ele><time>2026-08-20T20:59:54Z</time></trkpt><trkpt lat="59.1039649397" lon="30.5016329885"><ele>301.99</ele><time>2026-08-20T20:59:55Z</time></trkpt><trkpt lat="59.1039649397" lon="30.5016329885"><ele>301.99</ele><time>2026-08-20T20:59:56Z</time></trkpt><trkpt lat="59.1039649397" lon="30.5016329885"><ele>301.99</ele><time>2026-08-20T20:59:57Z</time></trkpt><trkpt lat="59.1039649397" lon="30.5016329885"><ele>301.99</ele><time>2026-08-20T20:59:58Z</time></trkpt><trkpt lat="59.1039649397" lon="30.5016329885"><ele>301.99</ele><time>2026-08-20T20:59:59Z</time></trkpt><trkpt lat="59.1039649397" lon="30.5016329885"><ele>301.99</ele><time>2026-08-20T21:00:00Z</time></trkpt><trkpt lat="59.1039649397" lon="30.5016329885"><ele>301.99</ele><time>2026-08-20T21:00:01Z</time></trkpt><trkpt lat="59.1039649397" lon="30.5016329885"><ele>301.99</ele><time>2026-08-20T21:00:02Z</time></trkpt><trkpt lat="59.1039649397" lon="30.5016329885"><ele>301.99</ele><time>2026-08-20T21:00:03Z</time></trkpt><trkpt lat="59.1039763391" lon="30.5016587209"><ele>301.99</ele><time>2026-08-20T21:00:04Z</time></trkpt><trkpt lat="59.1039748304" lon="30.5016719643"><ele>301.51</ele><time>2026-08-20T21:00:05Z</time></trkpt><trkpt lat="59.1039719805" lon="30.5016863812"><ele>301.51</ele><time>2026-08-20T21:00:06Z</time></trkpt><trkpt lat="59.1039718967" lon="30.5017006304"><ele>301.51</ele><time>2026-08-20T21:00:07Z</time></trkpt><trkpt lat="59.1039702203" lon="30.5017127842"><ele>301.51</ele><time>2026-08-20T21:00:08Z</time></trkpt><trkpt lat="59.1039688792" lon="30.5017224234"><ele>301.51</ele><time>2026-08-20T21:00:09Z</time></trkpt><trkpt lat="59.1039656941" lon="30.5017341580"><ele>301.51</ele><time>2026-08-20T21:00:10Z</time></trkpt><trkpt lat="59.1039636824" lon="30.5017452221"><ele>301.51</ele><time>2026-08-20T21:00:11Z</time></trkpt><trkpt lat="59.1039606649" lon="30.5017556995"><ele>301.99</ele><time>2026-08-20T21:00:12Z</time></trkpt><trkpt lat="59.1039591562" lon="30.5017635785"><ele>301.99</ele><time>2026-08-20T21:00:13Z</time></trkpt><trkpt lat="59.1039569769" lon="30.5017733853"><ele>301.99</ele><time>2026-08-20T21:00:14Z</time></trkpt><trkpt lat="59.1039581504" lon="30.5017753970"><ele>301.99</ele><time>2026-08-20T21:00:15Z</time></trkpt><trkpt lat="59.1039544623" lon="30.5017815996"><ele>301.51</ele><time>2026-08-20T21:00:16Z</time></trkpt><trkpt lat="59.1039533727" lon="30.5017830245"><ele>301.51</ele><time>2026-08-20T21:00:17Z</time></trkpt><trkpt lat="59.1039533727" lon="30.5017830245"><ele>301.51</ele><time>2026-08-20T21:00:18Z</time></trkpt><trkpt lat="59.1039533727" lon="30.5017830245"><ele>301.51</ele><time>2026-08-20T21:00:19Z</time></trkpt><trkpt lat="59.1039533727" lon="30.5017830245"><ele>301.51</ele><time>2026-08-20T21:00:20Z</time></trkpt><trkpt lat="59.1039533727" lon="30.5017830245"><ele>301.51</ele><time>2026-08-20T21:00:21Z</time></trkpt><trkpt lat="59.1039533727" lon="30.5017830245"><ele>301.51</ele><time>2026-08-20T21:00:22Z</time></trkpt><trkpt lat="59.1039533727" lon="30.5017830245"><ele>301.51</ele><time>2026-08-20T21:00:23Z</time></trkpt><trkpt lat="59.1039533727" lon="30.5017830245"><ele>301.51</ele><time>2026-08-20T21:00:24Z</time></trkpt><trkpt lat="59.1039533727" lon="30.5017830245"><ele>301.51</ele><time>2026-08-20T21:00:25Z</time></trkpt><trkpt lat="59.1039533727" lon="30.5017830245"><ele>301.51</ele><time>2026-08-20T21:00:26Z</time></trkpt><trkpt lat="59.1039533727" lon="30.5017830245"><ele>301.51</ele><time>2026-08-20T21:00:27Z</time></trkpt><trkpt lat="59.1039533727" lon="30.5017830245"><ele>301.51</ele><time>2026-08-20T21:00:28Z</time></trkpt><trkpt lat="59.1039550491" lon="30.5018093437"><ele>301.51</ele><time>2026-08-20T21:00:29Z</time></trkpt><trkpt lat="59.1039578989" lon="30.5018120259"><ele>301.51</ele><time>2026-08-20T21:00:30Z</time></trkpt><trkpt lat="59.1039607488" lon="30.5018147919"><ele>301.51</ele><time>2026-08-20T21:00:31Z</time></trkpt><trkpt lat="59.1039638501" lon="30.5018196534"><ele>301.51</ele><time>2026-08-20T21:00:32Z</time></trkpt><trkpt lat="59.1039638501" lon="30.5018196534"><ele>301.51</ele><time>2026-08-20T21:00:33Z</time></trkpt><trkpt lat="59.1039638501" lon="30.5018196534"><ele>301.51</ele><time>2026-08-20T21:00:34Z</time></trkpt><trkpt lat="59.1039638501" lon="30.5018196534"><ele>301.51</ele><time>2026-08-20T21:00:35Z</time></trkpt><trkpt lat="59.1039638501" lon="30.5018196534"><ele>301.51</ele><time>2026-08-20T21:00:36Z</time></trkpt><trkpt lat="59.1039638501" lon="30.5018196534"><ele>301.51</ele><time>2026-08-20T21:00:37Z</time></trkpt><trkpt lat="59.1039638501" lon="30.5018196534"><ele>301.51</ele><time>2026-08-20T21:00:38Z</time></trkpt><trkpt lat="59.1039638501" lon="30.5018196534"><ele>301.51</ele><time>2026-08-20T21:00:39Z</time></trkpt><trkpt lat="59.1039638501" lon="30.5018196534"><ele>301.51</ele><time>2026-08-20T21:00:40Z</time></trkpt><trkpt lat="59.1039638501" lon="30.5018196534"><ele>301.51</ele><time>2026-08-20T21:00:41Z</time></trkpt><trkpt lat="59.1039638501" lon="30.5018196534"><ele>301.51</ele><time>2026-08-20T21:00:42Z</time></trkpt><trkpt lat="59.1039638501" lon="30.5018196534"><ele>301.51</ele><time>2026-08-20T21:00:43Z</time></trkpt><trkpt lat="59.1039638501" lon="30.5018196534"><ele>301.51</ele><time>2026-08-20T21:00:44Z</time></trkpt><trkpt lat="59.1039638501" lon="30.5018196534"><ele>301.51</ele><time>2026-08-20T21:00:45Z</time></trkpt><trkpt lat="59.1039638501" lon="30.5018196534"><ele>301.51</ele><time>2026-08-20T21:00:46Z</time></trkpt><trkpt lat="59.1039638501" lon="30.5018196534"><ele>301.51</ele><time>2026-08-20T21:00:47Z</time></trkpt><trkpt lat="59.1039638501" lon="30.5018196534"><ele>301.51</ele><time>2026-08-20T21:00:48Z</time></trkpt><trkpt lat="59.1039638501" lon="30.5018196534"><ele>301.51</ele><time>2026-08-20T21:00:49Z</time></trkpt><trkpt lat="59.1039638501" lon="30.5018196534"><ele>301.51</ele><time>2026-08-20T21:00:50Z</time></trkpt><trkpt lat="59.1039638501" lon="30.5018196534"><ele>301.51</ele><time>2026-08-20T21:00:51Z</time></trkpt><trkpt lat="59.1039638501" lon="30.5018196534"><ele>301.51</ele><time>2026-08-20T21:00:52Z</time></trkpt><trkpt lat="59.1039638501" lon="30.5018196534"><ele>301.51</ele><time>2026-08-20T21:00:53Z</time></trkpt><trkpt lat="59.1039638501" lon="30.5018196534"><ele>301.51</ele><time>2026-08-20T21:00:54Z</time></trkpt><trkpt lat="59.1039638501" lon="30.5018196534"><ele>301.51</ele><time>2026-08-20T21:00:55Z</time></trkpt><trkpt lat="59.1039638501" lon="30.5018196534"><ele>301.51</ele><time>2026-08-20T21:00:56Z</time></trkpt><trkpt lat="59.1039638501" lon="30.5018196534"><ele>301.51</ele><time>2026-08-20T21:00:57Z</time></trkpt><trkpt lat="59.1039638501" lon="30.5018196534"><ele>301.51</ele><time>2026-08-20T21:00:58Z</time></trkpt><trkpt lat="59.1039638501" lon="30.5018196534"><ele>301.51</ele><time>2026-08-20T21:00:59Z</time></trkpt><trkpt lat="59.1039638501" lon="30.5018196534"><ele>301.51</ele><time>2026-08-20T21:01:00Z</time></trkpt><trkpt lat="59.1039638501" lon="30.5018196534"><ele>301.51</ele><time>2026-08-20T21:01:01Z</time></trkpt><trkpt lat="59.1039638501" lon="30.5018196534"><ele>301.51</ele><time>2026-08-20T21:01:02Z</time></trkpt><trkpt lat="59.1039638501" lon="30.5018196534"><ele>301.51</ele><time>2026-08-20T21:01:03Z</time></trkpt><trkpt lat="59.1039638501" lon="30.5018196534"><ele>301.51</ele><time>2026-08-20T21:01:04Z</time></trkpt><trkpt lat="59.1039638501" lon="30.5018196534"><ele>301.51</ele><time>2026-08-20T21:01:05Z</time></trkpt><trkpt lat="59.1039638501" lon="30.5018196534"><ele>301.51</ele><time>2026-08-20T21:01:06Z</time></trkpt><trkpt lat="59.1039638501" lon="30.5018196534"><ele>301.51</ele><time>2026-08-20T21:01:07Z</time></trkpt><trkpt lat="59.1039638501" lon="30.5018196534"><ele>301.51</ele><time>2026-08-20T21:01:08Z</time></trkpt><trkpt lat="59.1039638501" lon="30.5018196534"><ele>301.51</ele><time>2026-08-20T21:01:09Z</time></trkpt><trkpt lat="59.1039638501" lon="30.5018196534"><ele>301.51</ele><time>2026-08-20T21:01:10Z</time></trkpt><trkpt lat="59.1039638501" lon="30.5018196534"><ele>301.51</ele><time>2026-08-20T21:01:11Z</time></trkpt><trkpt lat="59.1039638501" lon="30.5018196534"><ele>301.51</ele><time>2026-08-20T21:01:12Z</time></trkpt><trkpt lat="59.1039638501" lon="30.5018196534"><ele>301.51</ele><time>2026-08-20T21:01:13Z</time></trkpt><trkpt lat="59.1039638501" lon="30.5018196534"><ele>301.51</ele><time>2026-08-20T21:01:14Z</time></trkpt><trkpt lat="59.1039638501" lon="30.5018196534"><ele>301.51</ele><time>2026-08-20T21:01:15Z</time></trkpt><trkpt lat="59.1039638501" lon="30.5018196534"><ele>301.51</ele><time>2026-08-20T21:01:16Z</time></trkpt><trkpt lat="59.1039638501" lon="30.5018196534"><ele>301.51</ele><time>2026-08-20T21:01:17Z</time></trkpt><trkpt lat="59.1039638501" lon="30.5018196534"><ele>301.51</ele><time>2026-08-20T21:01:18Z</time></trkpt><trkpt lat="59.1039638501" lon="30.5018196534"><ele>301.51</ele><time>2026-08-20T21:01:19Z</time></trkpt><trkpt lat="59.1039638501" lon="30.5018196534"><ele>301.51</ele><time>2026-08-20T21:01:20Z</time></trkpt><trkpt lat="59.1039638501" lon="30.5018196534"><ele>301.51</ele><time>2026-08-20T21:01:21Z</time></trkpt><trkpt lat="59.1039638501" lon="30.5018196534"><ele>301.51</ele><time>2026-08-20T21:01:22Z</time></trkpt><trkpt lat="59.1039638501" lon="30.5018196534"><ele>301.99</ele><time>2026-08-20T21:01:23Z</time></trkpt><trkpt lat="59.1039530374" lon="30.5018770695"><ele>301.99</ele><time>2026-08-20T21:01:24Z</time></trkpt><trkpt lat="59.1039523669" lon="30.5018896423"><ele>301.99</ele><time>2026-08-20T21:01:25Z</time></trkpt><trkpt lat="59.1039539594" lon="30.5019034725"><ele>301.99</ele><time>2026-08-20T21:01:26Z</time></trkpt><trkpt lat="59.1039527860" lon="30.5019184761"><ele>301.99</ele><time>2026-08-20T21:01:27Z</time></trkpt><trkpt lat="59.1039555520" lon="30.5019311327"><ele>301.99</ele><time>2026-08-20T21:01:28Z</time></trkpt><trkpt lat="59.1039602458" lon="30.5019458849"><ele>301.99</ele><time>2026-08-20T21:01:29Z</time></trkpt><trkpt lat="59.1039649397" lon="30.5019622296"><ele>301.99</ele><time>2026-08-20T21:01:30Z</time></trkpt><trkpt lat="59.1039669514" lon="30.5019777361"><ele>301.99</ele><time>2026-08-20T21:01:31Z</time></trkpt><trkpt lat="59.1039711423" lon="30.5019929912"><ele>301.99</ele><time>2026-08-20T21:01:32Z</time></trkpt><trkpt lat="59.1039749980" lon="30.5020132754"><ele>301.99</ele><time>2026-08-20T21:01:33Z</time></trkpt><trkpt lat="59.1039790213" lon="30.5020305421"><ele>301.99</ele><time>2026-08-20T21:01:34Z</time></trkpt><trkpt lat="59.1039804462" lon="30.5020455457"><ele>301.99</ele><time>2026-08-20T21:01:35Z</time></trkpt><trkpt lat="59.1039814521" lon="30.5020660814"><ele>301.99</ele><time>2026-08-20T21:01:36Z</time></trkpt><trkpt lat="59.1039826255" lon="30.5020895507"><ele>301.99</ele><time>2026-08-20T21:01:37Z</time></trkpt><trkpt lat="59.1039888281" lon="30.5021077394"><ele>301.99</ele><time>2026-08-20T21:01:38Z</time></trkpt><trkpt lat="59.1039941926" lon="30.5021269340"><ele>301.99</ele><time>2026-08-20T21:01:39Z</time></trkpt><trkpt lat="59.1039977968" lon="30.5021456257"><ele>301.99</ele><time>2026-08-20T21:01:40Z</time></trkpt><trkpt lat="59.1039980482" lon="30.5021628924"><ele>301.99</ele><time>2026-08-20T21:01:41Z</time></trkpt><trkpt lat="59.1039973777" lon="30.5021762196"><ele>301.99</ele><time>2026-08-20T21:01:42Z</time></trkpt><trkpt lat="59.1039964557" lon="30.5021897983"><ele>301.99</ele><time>2026-08-20T21:01:43Z</time></trkpt><trkpt lat="59.1039948631" lon="30.5022056401"><ele>301.99</ele><time>2026-08-20T21:01:44Z</time></trkpt><trkpt lat="59.1039939411" lon="30.5022239964"><ele>301.99</ele><time>2026-08-20T21:01:45Z</time></trkpt><trkpt lat="59.1039946955" lon="30.5022430234"><ele>301.99</ele><time>2026-08-20T21:01:46Z</time></trkpt><trkpt lat="59.1039970424" lon="30.5022585299"><ele>301.99</ele><time>2026-08-20T21:01:47Z</time></trkpt><trkpt lat="59.1039984673" lon="30.5022783950"><ele>301.99</ele><time>2026-08-20T21:01:48Z</time></trkpt><trkpt lat="59.1039987188" lon="30.5022997689"><ele>301.99</ele><time>2026-08-20T21:01:49Z</time></trkpt><trkpt lat="59.1039979644" lon="30.5023173708"><ele>301.99</ele><time>2026-08-20T21:01:50Z</time></trkpt><trkpt lat="59.1040015686" lon="30.5023392476"><ele>301.99</ele><time>2026-08-20T21:01:51Z</time></trkpt><trkpt lat="59.1040019877" lon="30.5023632199"><ele>301.99</ele><time>2026-08-20T21:01:52Z</time></trkpt><trkpt lat="59.1040028259" lon="30.5023800675"><ele>301.99</ele><time>2026-08-20T21:01:53Z</time></trkpt><trkpt lat="59.1040014848" lon="30.5023953225"><ele>301.99</ele><time>2026-08-20T21:01:54Z</time></trkpt><trkpt lat="59.1040069330" lon="30.5024127569"><ele>301.99</ele><time>2026-08-20T21:01:55Z</time></trkpt><trkpt lat="59.1040110402" lon="30.5024304427"><ele>301.99</ele><time>2026-08-20T21:01:56Z</time></trkpt><trkpt lat="59.1040148959" lon="30.5024455301"><ele>301.99</ele><time>2026-08-20T21:01:57Z</time></trkpt><trkpt lat="59.1040155664" lon="30.5024592765"><ele>301.99</ele><time>2026-08-20T21:01:58Z</time></trkpt><trkpt lat="59.1040132195" lon="30.5024738610"><ele>301.99</ele><time>2026-08-20T21:01:59Z</time></trkpt><trkpt lat="59.1040143929" lon="30.5024858471"><ele>301.99</ele><time>2026-08-20T21:02:00Z</time></trkpt><trkpt lat="59.1040145606" lon="30.5024960730"><ele>301.99</ele><time>2026-08-20T21:02:01Z</time></trkpt><trkpt lat="59.1040148959" lon="30.5025051255"><ele>301.99</ele><time>2026-08-20T21:02:02Z</time></trkpt><trkpt lat="59.1040116269" lon="30.5025135912"><ele>301.99</ele><time>2026-08-20T21:02:03Z</time></trkpt><trkpt lat="59.1040074360" lon="30.5025237333"><ele>301.99</ele><time>2026-08-20T21:02:04Z</time></trkpt><trkpt lat="59.1040044185" lon="30.5025363900"><ele>301.99</ele><time>2026-08-20T21:02:05Z</time></trkpt><trkpt lat="59.1040068492" lon="30.5025481246"><ele>301.99</ele><time>2026-08-20T21:02:06Z</time></trkpt><trkpt lat="59.1040039994" lon="30.5025564227"><ele>301.51</ele><time>2026-08-20T21:02:07Z</time></trkpt><trkpt lat="59.1040061787" lon="30.5025697500"><ele>301.51</ele><time>2026-08-20T21:02:08Z</time></trkpt><trkpt lat="59.1040096991" lon="30.5025788862"><ele>301.51</ele><time>2026-08-20T21:02:09Z</time></trkpt><trkpt lat="59.1040163208" lon="30.5025864299"><ele>301.99</ele><time>2026-08-20T21:02:10Z</time></trkpt><trkpt lat="59.1040183324" lon="30.5025969911"><ele>301.99</ele><time>2026-08-20T21:02:11Z</time></trkpt><trkpt lat="59.1040224396" lon="30.5026108213"><ele>301.99</ele><time>2026-08-20T21:02:12Z</time></trkpt><trkpt lat="59.1040266305" lon="30.5026289262"><ele>301.99</ele><time>2026-08-20T21:02:13Z</time></trkpt><trkpt lat="59.1040298995" lon="30.5026459415"><ele>301.99</ele><time>2026-08-20T21:02:14Z</time></trkpt><trkpt lat="59.1040321626" lon="30.5026617832"><ele>301.99</ele><time>2026-08-20T21:02:15Z</time></trkpt><trkpt lat="59.1040356830" lon="30.5026767869"><ele>301.99</ele><time>2026-08-20T21:02:16Z</time></trkpt><trkpt lat="59.1040390357" lon="30.5026905332"><ele>301.99</ele><time>2026-08-20T21:02:17Z</time></trkpt><trkpt lat="59.1040410474" lon="30.5027023517"><ele>301.99</ele><time>2026-08-20T21:02:18Z</time></trkpt><trkpt lat="59.1040419694" lon="30.5027179420"><ele>301.99</ele><time>2026-08-20T21:02:19Z</time></trkpt><trkpt lat="59.1040444840" lon="30.5027307663"><ele>301.99</ele><time>2026-08-20T21:02:20Z</time></trkpt><trkpt lat="59.1040439811" lon="30.5027429201"><ele>301.99</ele><time>2026-08-20T21:02:21Z</time></trkpt><trkpt lat="59.1040487587" lon="30.5027488712"><ele>301.99</ele><time>2026-08-20T21:02:22Z</time></trkpt><trkpt lat="59.1040512733" lon="30.5027597677"><ele>301.99</ele><time>2026-08-20T21:02:23Z</time></trkpt><trkpt lat="59.1040442325" lon="30.5027721729"><ele>301.99</ele><time>2026-08-20T21:02:24Z</time></trkpt><trkpt lat="59.1040427238" lon="30.5027863383"><ele>301.99</ele><time>2026-08-20T21:02:25Z</time></trkpt><trkpt lat="59.1040381975" lon="30.5027982406"><ele>301.99</ele><time>2026-08-20T21:02:26Z</time></trkpt><trkpt lat="59.1040365212" lon="30.5028099753"><ele>301.99</ele><time>2026-08-20T21:02:27Z</time></trkpt><trkpt lat="59.1040359344" lon="30.5028239731"><ele>301.99</ele><time>2026-08-20T21:02:28Z</time></trkpt><trkpt lat="59.1040343419" lon="30.5028369650"><ele>301.99</ele><time>2026-08-20T21:02:29Z</time></trkpt><trkpt lat="59.1040319949" lon="30.5028556567"><ele>301.99</ele><time>2026-08-20T21:02:30Z</time></trkpt><trkpt lat="59.1040306538" lon="30.5028750189"><ele>301.99</ele><time>2026-08-20T21:02:31Z</time></trkpt><trkpt lat="59.1040312406" lon="30.5028971471"><ele>301.99</ele><time>2026-08-20T21:02:32Z</time></trkpt><trkpt lat="59.1040310729" lon="30.5029182695"><ele>301.99</ele><time>2026-08-20T21:02:33Z</time></trkpt><trkpt lat="59.1040323302" lon="30.5029443372"><ele>301.99</ele><time>2026-08-20T21:02:34Z</time></trkpt><trkpt lat="59.1040291451" lon="30.5029711593"><ele>301.99</ele><time>2026-08-20T21:02:35Z</time></trkpt><trkpt lat="59.1040282231" lon="30.5029967241"><ele>301.99</ele><time>2026-08-20T21:02:36Z</time></trkpt><trkpt lat="59.1040304862" lon="30.5030183494"><ele>301.99</ele><time>2026-08-20T21:02:37Z</time></trkpt><trkpt lat="59.1040313244" lon="30.5030404776"><ele>301.99</ele><time>2026-08-20T21:02:38Z</time></trkpt><trkpt lat="59.1040308215" lon="30.5030590855"><ele>301.99</ele><time>2026-08-20T21:02:39Z</time></trkpt><trkpt lat="59.1040324979" lon="30.5030773580"><ele>301.99</ele><time>2026-08-20T21:02:40Z</time></trkpt><trkpt lat="59.1040368564" lon="30.5030937865"><ele>301.99</ele><time>2026-08-20T21:02:41Z</time></trkpt><trkpt lat="59.1040385328" lon="30.5031096283"><ele>301.99</ele><time>2026-08-20T21:02:42Z</time></trkpt><trkpt lat="59.1040404607" lon="30.5031223688"><ele>301.99</ele><time>2026-08-20T21:02:43Z</time></trkpt><trkpt lat="59.1040393710" lon="30.5031358637"><ele>301.99</ele><time>2026-08-20T21:02:44Z</time></trkpt><trkpt lat="59.1040385328" lon="30.5031523760"><ele>301.99</ele><time>2026-08-20T21:02:45Z</time></trkpt><trkpt lat="59.1040366888" lon="30.5031704810"><ele>301.99</ele><time>2026-08-20T21:02:46Z</time></trkpt><trkpt lat="59.1040383652" lon="30.5031846464"><ele>301.99</ele><time>2026-08-20T21:02:47Z</time></trkpt><trkpt lat="59.1040390357" lon="30.5031967163"><ele>301.99</ele><time>2026-08-20T21:02:48Z</time></trkpt><trkpt lat="59.1040377785" lon="30.5032062717"><ele>301.99</ele><time>2026-08-20T21:02:49Z</time></trkpt><trkpt lat="59.1040369403" lon="30.5032147374"><ele>301.99</ele><time>2026-08-20T21:02:50Z</time></trkpt><trkpt lat="59.1040347610" lon="30.5032247957"><ele>301.99</ele><time>2026-08-20T21:02:51Z</time></trkpt><trkpt lat="59.1040340904" lon="30.5032331776"><ele>301.99</ele><time>2026-08-20T21:02:52Z</time></trkpt><trkpt lat="59.1040346771" lon="30.5032520369"><ele>301.99</ele><time>2026-08-20T21:02:53Z</time></trkpt><trkpt lat="59.1040342581" lon="30.5032730754"><ele>301.99</ele><time>2026-08-20T21:02:54Z</time></trkpt><trkpt lat="59.1040340904" lon="30.5032927729"><ele>301.99</ele><time>2026-08-20T21:02:55Z</time></trkpt><trkpt lat="59.1040343419" lon="30.5033096205"><ele>301.99</ele><time>2026-08-20T21:02:56Z</time></trkpt><trkpt lat="59.1040351801" lon="30.5033275578"><ele>301.99</ele><time>2026-08-20T21:02:57Z</time></trkpt><trkpt lat="59.1040354315" lon="30.5033420585"><ele>301.99</ele><time>2026-08-20T21:02:58Z</time></trkpt><trkpt lat="59.1040348448" lon="30.5033560563"><ele>301.99</ele><time>2026-08-20T21:02:59Z</time></trkpt><trkpt lat="59.1040369403" lon="30.5033721495"><ele>301.99</ele><time>2026-08-20T21:03:00Z</time></trkpt><trkpt lat="59.1040383652" lon="30.5033868179"><ele>301.99</ele><time>2026-08-20T21:03:01Z</time></trkpt><trkpt lat="59.1040389519" lon="30.5034030788"><ele>301.99</ele><time>2026-08-20T21:03:02Z</time></trkpt><trkpt lat="59.1040402930" lon="30.5034163222"><ele>301.99</ele><time>2026-08-20T21:03:03Z</time></trkpt><trkpt lat="59.1040435620" lon="30.5034311581"><ele>301.99</ele><time>2026-08-20T21:03:04Z</time></trkpt><trkpt lat="59.1040461604" lon="30.5034417193"><ele>301.99</ele><time>2026-08-20T21:03:05Z</time></trkpt><trkpt lat="59.1040486749" lon="30.5034550466"><ele>301.99</ele><time>2026-08-20T21:03:06Z</time></trkpt><trkpt lat="59.1040519439" lon="30.5034700502"><ele>301.99</ele><time>2026-08-20T21:03:07Z</time></trkpt><trkpt lat="59.1040546261" lon="30.5034868978"><ele>301.99</ele><time>2026-08-20T21:03:08Z</time></trkpt><trkpt lat="59.1040585656" lon="30.5035063438"><ele>301.99</ele><time>2026-08-20T21:03:09Z</time></trkpt><trkpt lat="59.1040623374" lon="30.5035216827"><ele>301.99</ele><time>2026-08-20T21:03:10Z</time></trkpt><trkpt lat="59.1040647682" lon="30.5035347585"><ele>301.99</ele><time>2026-08-20T21:03:11Z</time></trkpt><trkpt lat="59.1040684562" lon="30.5035500973"><ele>301.99</ele><time>2026-08-20T21:03:12Z</time></trkpt><trkpt lat="59.1040694620" lon="30.5035584792"><ele>301.99</ele><time>2026-08-20T21:03:13Z</time></trkpt><trkpt lat="59.1040679533" lon="30.5035596527"><ele>301.99</ele><time>2026-08-20T21:03:14Z</time></trkpt><trkpt lat="59.1040682886" lon="30.5035544559"><ele>301.99</ele><time>2026-08-20T21:03:15Z</time></trkpt><trkpt lat="59.1040678695" lon="30.5035550427"><ele>301.99</ele><time>2026-08-20T21:03:16Z</time></trkpt><trkpt lat="59.1040678695" lon="30.5035550427"><ele>301.99</ele><time>2026-08-20T21:03:17Z</time></trkpt><trkpt lat="59.1040678695" lon="30.5035550427"><ele>301.99</ele><time>2026-08-20T21:03:18Z</time></trkpt><trkpt lat="59.1040678695" lon="30.5035550427"><ele>301.99</ele><time>2026-08-20T21:03:19Z</time></trkpt><trkpt lat="59.1040678695" lon="30.5035550427"><ele>301.99</ele><time>2026-08-20T21:03:20Z</time></trkpt><trkpt lat="59.1040678695" lon="30.5035550427"><ele>301.99</ele><time>2026-08-20T21:03:21Z</time></trkpt><trkpt lat="59.1040678695" lon="30.5035550427"><ele>301.99</ele><time>2026-08-20T21:03:22Z</time></trkpt><trkpt lat="59.1040678695" lon="30.5035550427"><ele>301.99</ele><time>2026-08-20T21:03:23Z</time></trkpt><trkpt lat="59.1040678695" lon="30.5035550427"><ele>301.99</ele><time>2026-08-20T21:03:24Z</time></trkpt><trkpt lat="59.1040678695" lon="30.5035550427"><ele>301.99</ele><time>2026-08-20T21:03:25Z</time></trkpt><trkpt lat="59.1040678695" lon="30.5035550427"><ele>301.99</ele><time>2026-08-20T21:03:26Z</time></trkpt><trkpt lat="59.1040678695" lon="30.5035550427"><ele>301.99</ele><time>2026-08-20T21:03:27Z</time></trkpt><trkpt lat="59.1040700488" lon="30.5035852175"><ele>301.99</ele><time>2026-08-20T21:03:28Z</time></trkpt><trkpt lat="59.1040713899" lon="30.5035978742"><ele>301.99</ele><time>2026-08-20T21:03:29Z</time></trkpt><trkpt lat="59.1040713899" lon="30.5036127940"><ele>301.99</ele><time>2026-08-20T21:03:30Z</time></trkpt><trkpt lat="59.1040725634" lon="30.5036300607"><ele>301.99</ele><time>2026-08-20T21:03:31Z</time></trkpt><trkpt lat="59.1040719766" lon="30.5036445614"><ele>301.99</ele><time>2026-08-20T21:03:32Z</time></trkpt><trkpt lat="59.1040736530" lon="30.5036596488"><ele>301.99</ele><time>2026-08-20T21:03:33Z</time></trkpt><trkpt lat="59.1040756647" lon="30.5036739819"><ele>301.99</ele><time>2026-08-20T21:03:34Z</time></trkpt><trkpt lat="59.1040766705" lon="30.5036873929"><ele>301.99</ele><time>2026-08-20T21:03:35Z</time></trkpt><trkpt lat="59.1040768381" lon="30.5036914162"><ele>301.99</ele><time>2026-08-20T21:03:36Z</time></trkpt><trkpt lat="59.1040760837" lon="30.5036934279"><ele>301.99</ele><time>2026-08-20T21:03:37Z</time></trkpt><trkpt lat="59.1040759999" lon="30.5036939308"><ele>301.99</ele><time>2026-08-20T21:03:38Z</time></trkpt><trkpt lat="59.1040759999" lon="30.5036939308"><ele>301.99</ele><time>2026-08-20T21:03:39Z</time></trkpt><trkpt lat="59.1040759999" lon="30.5036939308"><ele>301.99</ele><time>2026-08-20T21:03:40Z</time></trkpt><trkpt lat="59.1040759999" lon="30.5036939308"><ele>301.99</ele><time>2026-08-20T21:03:41Z</time></trkpt><trkpt lat="59.1040759999" lon="30.5036939308"><ele>301.99</ele><time>2026-08-20T21:03:42Z</time></trkpt><trkpt lat="59.1040759999" lon="30.5036939308"><ele>301.99</ele><time>2026-08-20T21:03:43Z</time></trkpt><trkpt lat="59.1040759999" lon="30.5036939308"><ele>301.99</ele><time>2026-08-20T21:03:44Z</time></trkpt><trkpt lat="59.1040759999" lon="30.5036939308"><ele>301.99</ele><time>2026-08-20T21:03:45Z</time></trkpt><trkpt lat="59.1040759999" lon="30.5036939308"><ele>301.99</ele><time>2026-08-20T21:03:46Z</time></trkpt><trkpt lat="59.1040759999" lon="30.5036939308"><ele>301.99</ele><time>2026-08-20T21:03:47Z</time></trkpt><trkpt lat="59.1040855553" lon="30.5037166458"><ele>301.99</ele><time>2026-08-20T21:03:48Z</time></trkpt><trkpt lat="59.1040886566" lon="30.5037336610"><ele>301.99</ele><time>2026-08-20T21:03:49Z</time></trkpt><trkpt lat="59.1040862259" lon="30.5037510954"><ele>301.99</ele><time>2026-08-20T21:03:50Z</time></trkpt><trkpt lat="59.1040869802" lon="30.5037682783"><ele>301.99</ele><time>2026-08-20T21:03:51Z</time></trkpt><trkpt lat="59.1040839627" lon="30.5037819408"><ele>301.99</ele><time>2026-08-20T21:03:52Z</time></trkpt><trkpt lat="59.1040861420" lon="30.5037950166"><ele>301.99</ele><time>2026-08-20T21:03:53Z</time></trkpt><trkpt lat="59.1040857229" lon="30.5038086791"><ele>301.99</ele><time>2026-08-20T21:03:54Z</time></trkpt><trkpt lat="59.1040854715" lon="30.5038256943"><ele>301.99</ele><time>2026-08-20T21:03:55Z</time></trkpt><trkpt lat="59.1040862259" lon="30.5038419552"><ele>301.99</ele><time>2026-08-20T21:03:56Z</time></trkpt><trkpt lat="59.1040872317" lon="30.5038538575"><ele>301.99</ele><time>2026-08-20T21:03:57Z</time></trkpt><trkpt lat="59.1040883213" lon="30.5038697831"><ele>301.99</ele><time>2026-08-20T21:03:58Z</time></trkpt><trkpt lat="59.1040879861" lon="30.5038822722"><ele>301.99</ele><time>2026-08-20T21:03:59Z</time></trkpt><trkpt lat="59.1040884890" lon="30.5038925819"><ele>301.99</ele><time>2026-08-20T21:04:00Z</time></trkpt><trkpt lat="59.1040898301" lon="30.5039039813"><ele>301.99</ele><time>2026-08-20T21:04:01Z</time></trkpt><trkpt lat="59.1040878184" lon="30.5039160512"><ele>301.99</ele><time>2026-08-20T21:04:02Z</time></trkpt><trkpt lat="59.1040885728" lon="30.5039332341"><ele>301.99</ele><time>2026-08-20T21:04:03Z</time></trkpt><trkpt lat="59.1040885728" lon="30.5039511714"><ele>301.99</ele><time>2026-08-20T21:04:04Z</time></trkpt><trkpt lat="59.1040877346" lon="30.5039768200"><ele>301.99</ele><time>2026-08-20T21:04:05Z</time></trkpt><trkpt lat="59.1040873993" lon="30.5039984453"><ele>301.99</ele><time>2026-08-20T21:04:06Z</time></trkpt><trkpt lat="59.1040877346" lon="30.5040200707"><ele>301.99</ele><time>2026-08-20T21:04:07Z</time></trkpt><trkpt lat="59.1040899977" lon="30.5040402710"><ele>301.99</ele><time>2026-08-20T21:04:08Z</time></trkpt><trkpt lat="59.1040902492" lon="30.5040586274"><ele>301.99</ele><time>2026-08-20T21:04:09Z</time></trkpt><trkpt lat="59.1040904168" lon="30.5040738825"><ele>301.99</ele><time>2026-08-20T21:04:10Z</time></trkpt><trkpt lat="59.1040940210" lon="30.5040890537"><ele>301.51</ele><time>2026-08-20T21:04:11Z</time></trkpt><trkpt lat="59.1040974576" lon="30.5041089188"><ele>301.51</ele><time>2026-08-20T21:04:12Z</time></trkpt><trkpt lat="59.1041002236" lon="30.5041316338"><ele>301.51</ele><time>2026-08-20T21:04:13Z</time></trkpt><trkpt lat="59.1041005589" lon="30.5041497387"><ele>301.51</ele><time>2026-08-20T21:04:14Z</time></trkpt><trkpt lat="59.1041007265" lon="30.5041649938"><ele>301.51</ele><time>2026-08-20T21:04:15Z</time></trkpt><trkpt lat="59.1041019838" lon="30.5041799974"><ele>301.51</ele><time>2026-08-20T21:04:16Z</time></trkpt><trkpt lat="59.1041021515" lon="30.5041947495"><ele>301.51</ele><time>2026-08-20T21:04:17Z</time></trkpt><trkpt lat="59.1041041631" lon="30.5042111780"><ele>301.99</ele><time>2026-08-20T21:04:18Z</time></trkpt><trkpt lat="59.1041049175" lon="30.5042241700"><ele>301.51</ele><time>2026-08-20T21:04:19Z</time></trkpt><trkpt lat="59.1041070968" lon="30.5042394251"><ele>301.51</ele><time>2026-08-20T21:04:20Z</time></trkpt><trkpt lat="59.1041084379" lon="30.5042505730"><ele>301.51</ele><time>2026-08-20T21:04:21Z</time></trkpt><trkpt lat="59.1041088570" lon="30.5042584520"><ele>301.51</ele><time>2026-08-20T21:04:22Z</time></trkpt><trkpt lat="59.1041105334" lon="30.5042681750"><ele>301.51</ele><time>2026-08-20T21:04:23Z</time></trkpt><trkpt lat="59.1041124612" lon="30.5042864475"><ele>301.51</ele><time>2026-08-20T21:04:24Z</time></trkpt><trkpt lat="59.1041137185" lon="30.5043022893"><ele>301.51</ele><time>2026-08-20T21:04:25Z</time></trkpt><trkpt lat="59.1041150596" lon="30.5043191370"><ele>301.51</ele><time>2026-08-20T21:04:26Z</time></trkpt><trkpt lat="59.1041153949" lon="30.5043312907"><ele>301.51</ele><time>2026-08-20T21:04:27Z</time></trkpt><trkpt lat="59.1041146405" lon="30.5043427739"><ele>301.51</ele><time>2026-08-20T21:04:28Z</time></trkpt><trkpt lat="59.1041166522" lon="30.5043514911"><ele>301.51</ele><time>2026-08-20T21:04:29Z</time></trkpt><trkpt lat="59.1041173227" lon="30.5043632258"><ele>301.51</ele><time>2026-08-20T21:04:30Z</time></trkpt><trkpt lat="59.1041191667" lon="30.5043733679"><ele>301.51</ele><time>2026-08-20T21:04:31Z</time></trkpt><trkpt lat="59.1041208431" lon="30.5043856893"><ele>301.51</ele><time>2026-08-20T21:04:32Z</time></trkpt><trkpt lat="59.1041218489" lon="30.5043945741"><ele>301.51</ele><time>2026-08-20T21:04:33Z</time></trkpt><trkpt lat="59.1041219328" lon="30.5044029560"><ele>301.51</ele><time>2026-08-20T21:04:34Z</time></trkpt><trkpt lat="59.1041221842" lon="30.5044089910"><ele>301.51</ele><time>2026-08-20T21:04:35Z</time></trkpt><trkpt lat="59.1041225195" lon="30.5044184625"><ele>301.51</ele><time>2026-08-20T21:04:36Z</time></trkpt><trkpt lat="59.1041245311" lon="30.5044337176"><ele>301.51</ele><time>2026-08-20T21:04:37Z</time></trkpt><trkpt lat="59.1041257884" lon="30.5044461228"><ele>301.51</ele><time>2026-08-20T21:04:38Z</time></trkpt><trkpt lat="59.1041259561" lon="30.5044544209"><ele>301.51</ele><time>2026-08-20T21:04:39Z</time></trkpt><trkpt lat="59.1041274648" lon="30.5044650659"><ele>301.51</ele><time>2026-08-20T21:04:40Z</time></trkpt><trkpt lat="59.1041257884" lon="30.5044762976"><ele>301.51</ele><time>2026-08-20T21:04:41Z</time></trkpt><trkpt lat="59.1041234415" lon="30.5044858530"><ele>301.51</ele><time>2026-08-20T21:04:42Z</time></trkpt><trkpt lat="59.1041224357" lon="30.5044954922"><ele>301.51</ele><time>2026-08-20T21:04:43Z</time></trkpt><trkpt lat="59.1041219328" lon="30.5045008566"><ele>301.51</ele><time>2026-08-20T21:04:44Z</time></trkpt><trkpt lat="59.1041219328" lon="30.5045021977"><ele>301.51</ele><time>2026-08-20T21:04:45Z</time></trkpt><trkpt lat="59.1041219328" lon="30.5045048799"><ele>301.51</ele><time>2026-08-20T21:04:46Z</time></trkpt><trkpt lat="59.1041219328" lon="30.5045048799"><ele>301.51</ele><time>2026-08-20T21:04:47Z</time></trkpt><trkpt lat="59.1041219328" lon="30.5045048799"><ele>301.51</ele><time>2026-08-20T21:04:48Z</time></trkpt><trkpt lat="59.1041219328" lon="30.5045048799"><ele>301.51</ele><time>2026-08-20T21:04:49Z</time></trkpt><trkpt lat="59.1041219328" lon="30.5045048799"><ele>301.51</ele><time>2026-08-20T21:04:50Z</time></trkpt><trkpt lat="59.1041219328" lon="30.5045048799"><ele>301.51</ele><time>2026-08-20T21:04:51Z</time></trkpt><trkpt lat="59.1041219328" lon="30.5045048799"><ele>301.51</ele><time>2026-08-20T21:04:52Z</time></trkpt><trkpt lat="59.1041239444" lon="30.5044869427"><ele>301.51</ele><time>2026-08-20T21:04:53Z</time></trkpt><trkpt lat="59.1041249502" lon="30.5044807401"><ele>301.51</ele><time>2026-08-20T21:04:54Z</time></trkpt><trkpt lat="59.1041259561" lon="30.5044755433"><ele>301.51</ele><time>2026-08-20T21:04:55Z</time></trkpt><trkpt lat="59.1041238606" lon="30.5044630542"><ele>301.51</ele><time>2026-08-20T21:04:56Z</time></trkpt><trkpt lat="59.1041214298" lon="30.5044490565"><ele>301.51</ele><time>2026-08-20T21:04:57Z</time></trkpt><trkpt lat="59.1041212622" lon="30.5044336338"><ele>301.51</ele><time>2026-08-20T21:04:58Z</time></trkpt><trkpt lat="59.1041221842" lon="30.5044145230"><ele>301.51</ele><time>2026-08-20T21:04:59Z</time></trkpt><trkpt lat="59.1041220166" lon="30.5043949932"><ele>301.51</ele><time>2026-08-20T21:05:00Z</time></trkpt><trkpt lat="59.1041202564" lon="30.5043746252"><ele>301.51</ele><time>2026-08-20T21:05:01Z</time></trkpt><trkpt lat="59.1041188315" lon="30.5043556821"><ele>301.51</ele><time>2026-08-20T21:05:02Z</time></trkpt><trkpt lat="59.1041182447" lon="30.5043354817"><ele>301.51</ele><time>2026-08-20T21:05:03Z</time></trkpt><trkpt lat="59.1041165683" lon="30.5043164548"><ele>301.51</ele><time>2026-08-20T21:05:04Z</time></trkpt><trkpt lat="59.1041155625" lon="30.5042995233"><ele>301.51</ele><time>2026-08-20T21:05:05Z</time></trkpt><trkpt lat="59.1041143890" lon="30.5042815860"><ele>301.51</ele><time>2026-08-20T21:05:06Z</time></trkpt><trkpt lat="59.1041122936" lon="30.5042650737"><ele>301.51</ele><time>2026-08-20T21:05:07Z</time></trkpt><trkpt lat="59.1041103657" lon="30.5042527523"><ele>301.51</ele><time>2026-08-20T21:05:08Z</time></trkpt><trkpt lat="59.1041093599" lon="30.5042456277"><ele>301.51</ele><time>2026-08-20T21:05:09Z</time></trkpt><trkpt lat="59.1041097790" lon="30.5042463820"><ele>301.51</ele><time>2026-08-20T21:05:10Z</time></trkpt><trkpt lat="59.1041086894" lon="30.5042424425"><ele>301.51</ele><time>2026-08-20T21:05:11Z</time></trkpt><trkpt lat="59.1041071806" lon="30.5042392574"><ele>301.51</ele><time>2026-08-20T21:05:12Z</time></trkpt><trkpt lat="59.1041071806" lon="30.5042392574"><ele>301.51</ele><time>2026-08-20T21:05:13Z</time></trkpt><trkpt lat="59.1041071806" lon="30.5042392574"><ele>301.51</ele><time>2026-08-20T21:05:14Z</time></trkpt><trkpt lat="59.1041071806" lon="30.5042392574"><ele>301.51</ele><time>2026-08-20T21:05:15Z</time></trkpt><trkpt lat="59.1041071806" lon="30.5042392574"><ele>301.51</ele><time>2026-08-20T21:05:16Z</time></trkpt><trkpt lat="59.1041071806" lon="30.5042392574"><ele>301.51</ele><time>2026-08-20T21:05:17Z</time></trkpt><trkpt lat="59.1041071806" lon="30.5042392574"><ele>301.03</ele><time>2026-08-20T21:05:18Z</time></trkpt><trkpt lat="59.1041071806" lon="30.5042392574"><ele>301.03</ele><time>2026-08-20T21:05:19Z</time></trkpt><trkpt lat="59.1041071806" lon="30.5042392574"><ele>301.03</ele><time>2026-08-20T21:05:20Z</time></trkpt><trkpt lat="59.1041071806" lon="30.5042392574"><ele>301.03</ele><time>2026-08-20T21:05:21Z</time></trkpt><trkpt lat="59.1041071806" lon="30.5042392574"><ele>301.03</ele><time>2026-08-20T21:05:22Z</time></trkpt><trkpt lat="59.1041071806" lon="30.5042392574"><ele>301.03</ele><time>2026-08-20T21:05:23Z</time></trkpt><trkpt lat="59.1041071806" lon="30.5042392574"><ele>301.03</ele><time>2026-08-20T21:05:24Z</time></trkpt><trkpt lat="59.1041071806" lon="30.5042392574"><ele>301.03</ele><time>2026-08-20T21:05:25Z</time></trkpt><trkpt lat="59.1041071806" lon="30.5042392574"><ele>301.03</ele><time>2026-08-20T21:05:26Z</time></trkpt><trkpt lat="59.1041071806" lon="30.5042392574"><ele>301.03</ele><time>2026-08-20T21:05:27Z</time></trkpt><trkpt lat="59.1041071806" lon="30.5042392574"><ele>301.03</ele><time>2026-08-20T21:05:28Z</time></trkpt><trkpt lat="59.1041071806" lon="30.5042392574"><ele>301.03</ele><time>2026-08-20T21:05:29Z</time></trkpt><trkpt lat="59.1041071806" lon="30.5042392574"><ele>301.03</ele><time>2026-08-20T21:05:30Z</time></trkpt><trkpt lat="59.1041071806" lon="30.5042392574"><ele>301.03</ele><time>2026-08-20T21:05:31Z</time></trkpt><trkpt lat="59.1041071806" lon="30.5042392574"><ele>301.03</ele><time>2026-08-20T21:05:32Z</time></trkpt><trkpt lat="59.1041071806" lon="30.5042392574"><ele>301.03</ele><time>2026-08-20T21:05:33Z</time></trkpt><trkpt lat="59.1041071806" lon="30.5042392574"><ele>301.03</ele><time>2026-08-20T21:05:34Z</time></trkpt><trkpt lat="59.1041071806" lon="30.5042392574"><ele>301.03</ele><time>2026-08-20T21:05:35Z</time></trkpt><trkpt lat="59.1041071806" lon="30.5042392574"><ele>301.03</ele><time>2026-08-20T21:05:36Z</time></trkpt><trkpt lat="59.1041071806" lon="30.5042392574"><ele>301.03</ele><time>2026-08-20T21:05:37Z</time></trkpt><trkpt lat="59.1041071806" lon="30.5042392574"><ele>301.03</ele><time>2026-08-20T21:05:38Z</time></trkpt><trkpt lat="59.1041071806" lon="30.5042392574"><ele>301.51</ele><time>2026-08-20T21:05:39Z</time></trkpt><trkpt lat="59.1041071806" lon="30.5042392574"><ele>301.51</ele><time>2026-08-20T21:05:40Z</time></trkpt><trkpt lat="59.1041071806" lon="30.5042392574"><ele>301.51</ele><time>2026-08-20T21:05:41Z</time></trkpt><trkpt lat="59.1041071806" lon="30.5042392574"><ele>301.51</ele><time>2026-08-20T21:05:42Z</time></trkpt><trkpt lat="59.1041071806" lon="30.5042392574"><ele>301.51</ele><time>2026-08-20T21:05:43Z</time></trkpt><trkpt lat="59.1041071806" lon="30.5042392574"><ele>301.51</ele><time>2026-08-20T21:05:44Z</time></trkpt><trkpt lat="59.1041071806" lon="30.5042392574"><ele>301.51</ele><time>2026-08-20T21:05:45Z</time></trkpt><trkpt lat="59.1041071806" lon="30.5042392574"><ele>301.51</ele><time>2026-08-20T21:05:46Z</time></trkpt><trkpt lat="59.1041071806" lon="30.5042392574"><ele>301.51</ele><time>2026-08-20T21:05:47Z</time></trkpt><trkpt lat="59.1041071806" lon="30.5042392574"><ele>301.51</ele><time>2026-08-20T21:05:48Z</time></trkpt><trkpt lat="59.1041071806" lon="30.5042392574"><ele>301.51</ele><time>2026-08-20T21:05:49Z</time></trkpt><trkpt lat="59.1041071806" lon="30.5042392574"><ele>301.51</ele><time>2026-08-20T21:05:50Z</time></trkpt><trkpt lat="59.1041071806" lon="30.5042392574"><ele>301.51</ele><time>2026-08-20T21:05:51Z</time></trkpt><trkpt lat="59.1041071806" lon="30.5042392574"><ele>301.51</ele><time>2026-08-20T21:05:52Z</time></trkpt><trkpt lat="59.1041071806" lon="30.5042392574"><ele>301.51</ele><time>2026-08-20T21:05:53Z</time></trkpt><trkpt lat="59.1041071806" lon="30.5042392574"><ele>301.51</ele><time>2026-08-20T21:05:54Z</time></trkpt><trkpt lat="59.1041071806" lon="30.5042392574"><ele>301.51</ele><time>2026-08-20T21:05:55Z</time></trkpt><trkpt lat="59.1041071806" lon="30.5042392574"><ele>301.51</ele><time>2026-08-20T21:05:56Z</time></trkpt><trkpt lat="59.1041071806" lon="30.5042392574"><ele>301.51</ele><time>2026-08-20T21:05:57Z</time></trkpt><trkpt lat="59.1041071806" lon="30.5042392574"><ele>301.51</ele><time>2026-08-20T21:05:58Z</time></trkpt><trkpt lat="59.1041071806" lon="30.5042392574"><ele>301.51</ele><time>2026-08-20T21:05:59Z</time></trkpt><trkpt lat="59.1041071806" lon="30.5042392574"><ele>301.51</ele><time>2026-08-20T21:06:00Z</time></trkpt><trkpt lat="59.1041071806" lon="30.5042392574"><ele>301.51</ele><time>2026-08-20T21:06:01Z</time></trkpt><trkpt lat="59.1041071806" lon="30.5042392574"><ele>301.51</ele><time>2026-08-20T21:06:02Z</time></trkpt><trkpt lat="59.1041071806" lon="30.5042392574"><ele>301.51</ele><time>2026-08-20T21:06:03Z</time></trkpt><trkpt lat="59.1041071806" lon="30.5042392574"><ele>301.51</ele><time>2026-08-20T21:06:04Z</time></trkpt><trkpt lat="59.1041071806" lon="30.5042392574"><ele>301.51</ele><time>2026-08-20T21:06:05Z</time></trkpt><trkpt lat="59.1041071806" lon="30.5042392574"><ele>301.51</ele><time>2026-08-20T21:06:06Z</time></trkpt><trkpt lat="59.1041071806" lon="30.5042392574"><ele>301.51</ele><time>2026-08-20T21:06:07Z</time></trkpt><trkpt lat="59.1041071806" lon="30.5042392574"><ele>301.51</ele><time>2026-08-20T21:06:08Z</time></trkpt><trkpt lat="59.1041071806" lon="30.5042392574"><ele>301.51</ele><time>2026-08-20T21:06:09Z</time></trkpt><trkpt lat="59.1041071806" lon="30.5042392574"><ele>301.51</ele><time>2026-08-20T21:06:10Z</time></trkpt><trkpt lat="59.1041071806" lon="30.5042392574"><ele>301.51</ele><time>2026-08-20T21:06:11Z</time></trkpt><trkpt lat="59.1041071806" lon="30.5042392574"><ele>301.51</ele><time>2026-08-20T21:06:12Z</time></trkpt><trkpt lat="59.1041071806" lon="30.5042392574"><ele>301.51</ele><time>2026-08-20T21:06:13Z</time></trkpt><trkpt lat="59.1041071806" lon="30.5042392574"><ele>301.51</ele><time>2026-08-20T21:06:14Z</time></trkpt><trkpt lat="59.1041071806" lon="30.5042392574"><ele>301.51</ele><time>2026-08-20T21:06:15Z</time></trkpt><trkpt lat="59.1041071806" lon="30.5042392574"><ele>301.51</ele><time>2026-08-20T21:06:16Z</time></trkpt><trkpt lat="59.1041071806" lon="30.5042392574"><ele>301.51</ele><time>2026-08-20T21:06:17Z</time></trkpt><trkpt lat="59.1041071806" lon="30.5042392574"><ele>301.51</ele><time>2026-08-20T21:06:18Z</time></trkpt><trkpt lat="59.1041071806" lon="30.5042392574"><ele>301.51</ele><time>2026-08-20T21:06:19Z</time></trkpt><trkpt lat="59.1041071806" lon="30.5042392574"><ele>301.51</ele><time>2026-08-20T21:06:20Z</time></trkpt><trkpt lat="59.1041071806" lon="30.5042392574"><ele>301.51</ele><time>2026-08-20T21:06:21Z</time></trkpt><trkpt lat="59.1041071806" lon="30.5042392574"><ele>301.51</ele><time>2026-08-20T21:06:22Z</time></trkpt><trkpt lat="59.1041071806" lon="30.5042392574"><ele>301.51</ele><time>2026-08-20T21:06:23Z</time></trkpt><trkpt lat="59.1041071806" lon="30.5042392574"><ele>301.51</ele><time>2026-08-20T21:06:24Z</time></trkpt><trkpt lat="59.1041071806" lon="30.5042392574"><ele>301.51</ele><time>2026-08-20T21:06:25Z</time></trkpt><trkpt lat="59.1041071806" lon="30.5042392574"><ele>301.51</ele><time>2026-08-20T21:06:26Z</time></trkpt><trkpt lat="59.1041071806" lon="30.5042392574"><ele>301.51</ele><time>2026-08-20T21:06:27Z</time></trkpt><trkpt lat="59.1041071806" lon="30.5042392574"><ele>301.51</ele><time>2026-08-20T21:06:28Z</time></trkpt><trkpt lat="59.1041071806" lon="30.5042392574"><ele>301.51</ele><time>2026-08-20T21:06:29Z</time></trkpt><trkpt lat="59.1041071806" lon="30.5042392574"><ele>301.51</ele><time>2026-08-20T21:06:30Z</time></trkpt><trkpt lat="59.1041071806" lon="30.5042392574"><ele>301.51</ele><time>2026-08-20T21:06:31Z</time></trkpt><trkpt lat="59.1041071806" lon="30.5042392574"><ele>301.51</ele><time>2026-08-20T21:06:32Z</time></trkpt><trkpt lat="59.1041071806" lon="30.5042392574"><ele>301.51</ele><time>2026-08-20T21:06:33Z</time></trkpt><trkpt lat="59.1041071806" lon="30.5042392574"><ele>301.51</ele><time>2026-08-20T21:06:34Z</time></trkpt><trkpt lat="59.1041071806" lon="30.5042392574"><ele>301.51</ele><time>2026-08-20T21:06:35Z</time></trkpt><trkpt lat="59.1041071806" lon="30.5042392574"><ele>301.51</ele><time>2026-08-20T21:06:36Z</time></trkpt><trkpt lat="59.1041071806" lon="30.5042392574"><ele>301.51</ele><time>2026-08-20T21:06:37Z</time></trkpt><trkpt lat="59.1041071806" lon="30.5042392574"><ele>301.51</ele><time>2026-08-20T21:06:38Z</time></trkpt><trkpt lat="59.1041071806" lon="30.5042392574"><ele>301.51</ele><time>2026-08-20T21:06:39Z</time></trkpt><trkpt lat="59.1041071806" lon="30.5042392574"><ele>301.51</ele><time>2026-08-20T21:06:40Z</time></trkpt><trkpt lat="59.1041071806" lon="30.5042392574"><ele>301.51</ele><time>2026-08-20T21:06:41Z</time></trkpt><trkpt lat="59.1041071806" lon="30.5042392574"><ele>301.51</ele><time>2026-08-20T21:06:42Z</time></trkpt><trkpt lat="59.1041071806" lon="30.5042392574"><ele>301.51</ele><time>2026-08-20T21:06:43Z</time></trkpt><trkpt lat="59.1041071806" lon="30.5042392574"><ele>301.51</ele><time>2026-08-20T21:06:44Z</time></trkpt><trkpt lat="59.1041071806" lon="30.5042392574"><ele>301.51</ele><time>2026-08-20T21:06:45Z</time></trkpt><trkpt lat="59.1041071806" lon="30.5042392574"><ele>301.03</ele><time>2026-08-20T21:06:46Z</time></trkpt><trkpt lat="59.1041071806" lon="30.5042392574"><ele>301.03</ele><time>2026-08-20T21:06:47Z</time></trkpt><trkpt lat="59.1041071806" lon="30.5042392574"><ele>301.03</ele><time>2026-08-20T21:06:48Z</time></trkpt><trkpt lat="59.1041071806" lon="30.5042392574"><ele>301.03</ele><time>2026-08-20T21:06:49Z</time></trkpt><trkpt lat="59.1041071806" lon="30.5042392574"><ele>301.03</ele><time>2026-08-20T21:06:50Z</time></trkpt><trkpt lat="59.1041071806" lon="30.5042392574"><ele>301.03</ele><time>2026-08-20T21:06:51Z</time></trkpt><trkpt lat="59.1041071806" lon="30.5042392574"><ele>301.03</ele><time>2026-08-20T21:06:52Z</time></trkpt><trkpt lat="59.1041071806" lon="30.5042392574"><ele>301.03</ele><time>2026-08-20T21:06:53Z</time></trkpt><trkpt lat="59.1041071806" lon="30.5042392574"><ele>301.03</ele><time>2026-08-20T21:06:54Z</time></trkpt><trkpt lat="59.1041071806" lon="30.5042392574"><ele>301.03</ele><time>2026-08-20T21:06:55Z</time></trkpt><trkpt lat="59.1041071806" lon="30.5042392574"><ele>301.03</ele><time>2026-08-20T21:06:56Z</time></trkpt><trkpt lat="59.1041071806" lon="30.5042392574"><ele>301.03</ele><time>2026-08-20T21:06:57Z</time></trkpt><trkpt lat="59.1041071806" lon="30.5042392574"><ele>301.03</ele><time>2026-08-20T21:06:58Z</time></trkpt><trkpt lat="59.1041071806" lon="30.5042392574"><ele>301.03</ele><time>2026-08-20T21:06:59Z</time></trkpt><trkpt lat="59.1041071806" lon="30.5042392574"><ele>301.03</ele><time>2026-08-20T21:07:00Z</time></trkpt><trkpt lat="59.1041071806" lon="30.5042392574"><ele>301.03</ele><time>2026-08-20T21:07:01Z</time></trkpt><trkpt lat="59.1041071806" lon="30.5042392574"><ele>301.03</ele><time>2026-08-20T21:07:02Z</time></trkpt><trkpt lat="59.1041071806" lon="30.5042392574"><ele>301.03</ele><time>2026-08-20T21:07:03Z</time></trkpt><trkpt lat="59.1041071806" lon="30.5042392574"><ele>301.03</ele><time>2026-08-20T21:07:04Z</time></trkpt><trkpt lat="59.1041071806" lon="30.5042392574"><ele>301.03</ele><time>2026-08-20T21:07:05Z</time></trkpt><trkpt lat="59.1041071806" lon="30.5042392574"><ele>301.03</ele><time>2026-08-20T21:07:06Z</time></trkpt><trkpt lat="59.1041071806" lon="30.5042392574"><ele>301.03</ele><time>2026-08-20T21:07:07Z</time></trkpt><trkpt lat="59.1041071806" lon="30.5042392574"><ele>301.03</ele><time>2026-08-20T21:07:08Z</time></trkpt><trkpt lat="59.1041071806" lon="30.5042392574"><ele>301.03</ele><time>2026-08-20T21:07:09Z</time></trkpt><trkpt lat="59.1041071806" lon="30.5042392574"><ele>301.03</ele><time>2026-08-20T21:07:10Z</time></trkpt><trkpt lat="59.1041071806" lon="30.5042392574"><ele>301.03</ele><time>2026-08-20T21:07:11Z</time></trkpt><trkpt lat="59.1041071806" lon="30.5042392574"><ele>301.03</ele><time>2026-08-20T21:07:12Z</time></trkpt><trkpt lat="59.1041071806" lon="30.5042392574"><ele>301.03</ele><time>2026-08-20T21:07:13Z</time></trkpt><trkpt lat="59.1041071806" lon="30.5042392574"><ele>301.03</ele><time>2026-08-20T21:07:14Z</time></trkpt><trkpt lat="59.1041071806" lon="30.5042392574"><ele>301.03</ele><time>2026-08-20T21:07:15Z</time></trkpt><trkpt lat="59.1041071806" lon="30.5042392574"><ele>301.03</ele><time>2026-08-20T21:07:16Z</time></trkpt><trkpt lat="59.1041071806" lon="30.5042392574"><ele>301.03</ele><time>2026-08-20T21:07:17Z</time></trkpt><trkpt lat="59.1041071806" lon="30.5042392574"><ele>301.03</ele><time>2026-08-20T21:07:18Z</time></trkpt><trkpt lat="59.1041071806" lon="30.5042392574"><ele>301.03</ele><time>2026-08-20T21:07:19Z</time></trkpt><trkpt lat="59.1040630918" lon="30.5042545963"><ele>301.03</ele><time>2026-08-20T21:07:20Z</time></trkpt><trkpt lat="59.1040678695" lon="30.5042563565"><ele>301.03</ele><time>2026-08-20T21:07:21Z</time></trkpt><trkpt lat="59.1040704679" lon="30.5042519979"><ele>301.03</ele><time>2026-08-20T21:07:22Z</time></trkpt><trkpt lat="59.1040718928" lon="30.5042507406"><ele>301.03</ele><time>2026-08-20T21:07:23Z</time></trkpt><trkpt lat="59.1040718928" lon="30.5042507406"><ele>301.03</ele><time>2026-08-20T21:07:24Z</time></trkpt><trkpt lat="59.1040718928" lon="30.5042507406"><ele>301.03</ele><time>2026-08-20T21:07:25Z</time></trkpt><trkpt lat="59.1040663607" lon="30.5042587873"><ele>301.03</ele><time>2026-08-20T21:07:26Z</time></trkpt><trkpt lat="59.1040688753" lon="30.5042577814"><ele>301.03</ele><time>2026-08-20T21:07:27Z</time></trkpt><trkpt lat="59.1040712222" lon="30.5042604636"><ele>301.03</ele><time>2026-08-20T21:07:28Z</time></trkpt><trkpt lat="59.1040730663" lon="30.5042612180"><ele>301.03</ele><time>2026-08-20T21:07:29Z</time></trkpt><trkpt lat="59.1040730663" lon="30.5042612180"><ele>301.03</ele><time>2026-08-20T21:07:30Z</time></trkpt><trkpt lat="59.1040730663" lon="30.5042612180"><ele>301.03</ele><time>2026-08-20T21:07:31Z</time></trkpt><trkpt lat="59.1040730663" lon="30.5042612180"><ele>301.03</ele><time>2026-08-20T21:07:32Z</time></trkpt><trkpt lat="59.1040730663" lon="30.5042612180"><ele>301.03</ele><time>2026-08-20T21:07:33Z</time></trkpt><trkpt lat="59.1040730663" lon="30.5042612180"><ele>301.03</ele><time>2026-08-20T21:07:34Z</time></trkpt><trkpt lat="59.1040730663" lon="30.5042612180"><ele>301.03</ele><time>2026-08-20T21:07:35Z</time></trkpt><trkpt lat="59.1040730663" lon="30.5042612180"><ele>301.03</ele><time>2026-08-20T21:07:36Z</time></trkpt><trkpt lat="59.1040730663" lon="30.5042612180"><ele>301.03</ele><time>2026-08-20T21:07:37Z</time></trkpt><trkpt lat="59.1040730663" lon="30.5042612180"><ele>301.03</ele><time>2026-08-20T21:07:38Z</time></trkpt><trkpt lat="59.1040730663" lon="30.5042612180"><ele>301.03</ele><time>2026-08-20T21:07:39Z</time></trkpt><trkpt lat="59.1040730663" lon="30.5042612180"><ele>301.03</ele><time>2026-08-20T21:07:40Z</time></trkpt><trkpt lat="59.1040620860" lon="30.5042777304"><ele>301.03</ele><time>2026-08-20T21:07:41Z</time></trkpt><trkpt lat="59.1040616669" lon="30.5042839330"><ele>301.03</ele><time>2026-08-20T21:07:42Z</time></trkpt><trkpt lat="59.1040575597" lon="30.5042868666"><ele>301.03</ele><time>2026-08-20T21:07:43Z</time></trkpt><trkpt lat="59.1040535364" lon="30.5042920634"><ele>301.03</ele><time>2026-08-20T21:07:44Z</time></trkpt><trkpt lat="59.1040500998" lon="30.5043009482"><ele>301.03</ele><time>2026-08-20T21:07:45Z</time></trkpt><trkpt lat="59.1040522791" lon="30.5043159518"><ele>301.03</ele><time>2026-08-20T21:07:46Z</time></trkpt><trkpt lat="59.1040580627" lon="30.5043272674"><ele>301.03</ele><time>2026-08-20T21:07:47Z</time></trkpt><trkpt lat="59.1040606610" lon="30.5043390859"><ele>301.03</ele><time>2026-08-20T21:07:48Z</time></trkpt><trkpt lat="59.1040616669" lon="30.5043512397"><ele>301.03</ele><time>2026-08-20T21:07:49Z</time></trkpt><trkpt lat="59.1040609963" lon="30.5043632258"><ele>301.51</ele><time>2026-08-20T21:07:50Z</time></trkpt><trkpt lat="59.1040614992" lon="30.5043783970"><ele>301.03</ele><time>2026-08-20T21:07:51Z</time></trkpt><trkpt lat="59.1040622536" lon="30.5043937359"><ele>301.03</ele><time>2026-08-20T21:07:52Z</time></trkpt><trkpt lat="59.1040626727" lon="30.5044040456"><ele>301.03</ele><time>2026-08-20T21:07:53Z</time></trkpt><trkpt lat="59.1040625889" lon="30.5044167861"><ele>301.03</ele><time>2026-08-20T21:07:54Z</time></trkpt><trkpt lat="59.1040632594" lon="30.5044276826"><ele>301.03</ele><time>2026-08-20T21:07:55Z</time></trkpt><trkpt lat="59.1040665284" lon="30.5044367351"><ele>301.03</ele><time>2026-08-20T21:07:56Z</time></trkpt><trkpt lat="59.1040671989" lon="30.5044466257"><ele>301.03</ele><time>2026-08-20T21:07:57Z</time></trkpt><trkpt lat="59.1040692944" lon="30.5044592824"><ele>301.03</ele><time>2026-08-20T21:07:58Z</time></trkpt><trkpt lat="59.1040742397" lon="30.5044724420"><ele>301.03</ele><time>2026-08-20T21:07:59Z</time></trkpt><trkpt lat="59.1040786821" lon="30.5044867750"><ele>301.03</ele><time>2026-08-20T21:08:00Z</time></trkpt><trkpt lat="59.1040812805" lon="30.5044988450"><ele>301.03</ele><time>2026-08-20T21:08:01Z</time></trkpt><trkpt lat="59.1040846333" lon="30.5045080651"><ele>301.03</ele><time>2026-08-20T21:08:02Z</time></trkpt><trkpt lat="59.1040880699" lon="30.5045232363"><ele>301.03</ele><time>2026-08-20T21:08:03Z</time></trkpt><trkpt lat="59.1040911712" lon="30.5045312829"><ele>301.03</ele><time>2026-08-20T21:08:04Z</time></trkpt><trkpt lat="59.1040930990" lon="30.5045419279"><ele>301.03</ele><time>2026-08-20T21:08:05Z</time></trkpt><trkpt lat="59.1040953621" lon="30.5045507289"><ele>301.51</ele><time>2026-08-20T21:08:06Z</time></trkpt><trkpt lat="59.1040996369" lon="30.5045570992"><ele>301.51</ele><time>2026-08-20T21:08:07Z</time></trkpt><trkpt lat="59.1041014809" lon="30.5045662355"><ele>301.51</ele><time>2026-08-20T21:08:08Z</time></trkpt><trkpt lat="59.1041069292" lon="30.5045845918"><ele>301.51</ele><time>2026-08-20T21:08:10Z</time></trkpt><trkpt lat="59.1041104496" lon="30.5045952369"><ele>301.51</ele><time>2026-08-20T21:08:11Z</time></trkpt><trkpt lat="59.1041132994" lon="30.5046060495"><ele>301.51</ele><time>2026-08-20T21:08:12Z</time></trkpt><trkpt lat="59.1041207593" lon="30.5046166945"><ele>301.51</ele><time>2026-08-20T21:08:13Z</time></trkpt><trkpt lat="59.1041262913" lon="30.5046283454"><ele>301.51</ele><time>2026-08-20T21:08:14Z</time></trkpt><trkpt lat="59.1041320749" lon="30.5046386551"><ele>301.51</ele><time>2026-08-20T21:08:15Z</time></trkpt><trkpt lat="59.1041362658" lon="30.5046496354"><ele>301.51</ele><time>2026-08-20T21:08:16Z</time></trkpt><trkpt lat="59.1041398700" lon="30.5046657287"><ele>301.51</ele><time>2026-08-20T21:08:17Z</time></trkpt><trkpt lat="59.1041448992" lon="30.5046808999"><ele>301.51</ele><time>2026-08-20T21:08:18Z</time></trkpt><trkpt lat="59.1041486710" lon="30.5046955682"><ele>301.51</ele><time>2026-08-20T21:08:19Z</time></trkpt><trkpt lat="59.1041493416" lon="30.5047084764"><ele>301.51</ele><time>2026-08-20T21:08:20Z</time></trkpt><trkpt lat="59.1041500960" lon="30.5047217198"><ele>301.51</ele><time>2026-08-20T21:08:21Z</time></trkpt><trkpt lat="59.1041514371" lon="30.5047325324"><ele>301.51</ele><time>2026-08-20T21:08:22Z</time></trkpt><trkpt lat="59.1041517723" lon="30.5047470331"><ele>301.51</ele><time>2026-08-20T21:08:23Z</time></trkpt><trkpt lat="59.1041521914" lon="30.5047577620"><ele>301.51</ele><time>2026-08-20T21:08:24Z</time></trkpt><trkpt lat="59.1041516885" lon="30.5047683232"><ele>301.51</ele><time>2026-08-20T21:08:25Z</time></trkpt><trkpt lat="59.1041516885" lon="30.5047774594"><ele>301.51</ele><time>2026-08-20T21:08:26Z</time></trkpt><trkpt lat="59.1041518562" lon="30.5047850870"><ele>301.51</ele><time>2026-08-20T21:08:27Z</time></trkpt><trkpt lat="59.1041522752" lon="30.5047924630"><ele>301.51</ele><time>2026-08-20T21:08:28Z</time></trkpt><trkpt lat="59.1041519400" lon="30.5047966540"><ele>301.51</ele><time>2026-08-20T21:08:29Z</time></trkpt><trkpt lat="59.1041519400" lon="30.5047966540"><ele>301.51</ele><time>2026-08-20T21:08:30Z</time></trkpt><trkpt lat="59.1041519400" lon="30.5047966540"><ele>301.51</ele><time>2026-08-20T21:08:31Z</time></trkpt><trkpt lat="59.1041519400" lon="30.5047966540"><ele>301.51</ele><time>2026-08-20T21:08:32Z</time></trkpt><trkpt lat="59.1041519400" lon="30.5047966540"><ele>301.51</ele><time>2026-08-20T21:08:33Z</time></trkpt><trkpt lat="59.1041519400" lon="30.5047966540"><ele>301.03</ele><time>2026-08-20T21:08:34Z</time></trkpt><trkpt lat="59.1041519400" lon="30.5047966540"><ele>301.03</ele><time>2026-08-20T21:08:35Z</time></trkpt><trkpt lat="59.1041519400" lon="30.5047966540"><ele>301.03</ele><time>2026-08-20T21:08:36Z</time></trkpt><trkpt lat="59.1041519400" lon="30.5047966540"><ele>301.03</ele><time>2026-08-20T21:08:37Z</time></trkpt><trkpt lat="59.1041458212" lon="30.5048375577"><ele>301.03</ele><time>2026-08-20T21:08:38Z</time></trkpt><trkpt lat="59.1041451506" lon="30.5048475321"><ele>301.03</ele><time>2026-08-20T21:08:39Z</time></trkpt><trkpt lat="59.1041455697" lon="30.5048562493"><ele>301.03</ele><time>2026-08-20T21:08:40Z</time></trkpt><trkpt lat="59.1041478328" lon="30.5048833229"><ele>301.03</ele><time>2026-08-20T21:08:41Z</time></trkpt><trkpt lat="59.1041484196" lon="30.5048996676"><ele>301.51</ele><time>2026-08-20T21:08:42Z</time></trkpt><trkpt lat="59.1041500960" lon="30.5049165990"><ele>301.51</ele><time>2026-08-20T21:08:43Z</time></trkpt><trkpt lat="59.1041528620" lon="30.5049321894"><ele>301.51</ele><time>2026-08-20T21:08:44Z</time></trkpt><trkpt lat="59.1041541193" lon="30.5049472768"><ele>301.51</ele><time>2026-08-20T21:08:45Z</time></trkpt><trkpt lat="59.1041545384" lon="30.5049609393"><ele>301.51</ele><time>2026-08-20T21:08:46Z</time></trkpt><trkpt lat="59.1041562986" lon="30.5049861688"><ele>301.51</ele><time>2026-08-20T21:08:47Z</time></trkpt><trkpt lat="59.1041580588" lon="30.5050066207"><ele>301.51</ele><time>2026-08-20T21:08:48Z</time></trkpt><trkpt lat="59.1041584779" lon="30.5050285812"><ele>301.51</ele><time>2026-08-20T21:08:49Z</time></trkpt><trkpt lat="59.1041615792" lon="30.5050466862"><ele>301.51</ele><time>2026-08-20T21:08:50Z</time></trkpt><trkpt lat="59.1041650996" lon="30.5050599296"><ele>301.51</ele><time>2026-08-20T21:08:51Z</time></trkpt><trkpt lat="59.1041635908" lon="30.5050749332"><ele>301.51</ele><time>2026-08-20T21:08:52Z</time></trkpt><trkpt lat="59.1041664407" lon="30.5050924513"><ele>301.51</ele><time>2026-08-20T21:08:53Z</time></trkpt><trkpt lat="59.1041665245" lon="30.5051085446"><ele>301.51</ele><time>2026-08-20T21:08:54Z</time></trkpt><trkpt lat="59.1041698772" lon="30.5051265657"><ele>301.51</ele><time>2026-08-20T21:08:55Z</time></trkpt><trkpt lat="59.1041713860" lon="30.5051487777"><ele>301.51</ele><time>2026-08-20T21:08:56Z</time></trkpt><trkpt lat="59.1041728947" lon="30.5051673856"><ele>301.51</ele><time>2026-08-20T21:08:57Z</time></trkpt><trkpt lat="59.1041767504" lon="30.5051888432"><ele>301.51</ele><time>2026-08-20T21:08:58Z</time></trkpt><trkpt lat="59.1041790973" lon="30.5052089598"><ele>301.51</ele><time>2026-08-20T21:08:59Z</time></trkpt><trkpt lat="59.1041827854" lon="30.5052276514"><ele>301.51</ele><time>2026-08-20T21:09:00Z</time></trkpt><trkpt lat="59.1041840427" lon="30.5052484386"><ele>301.51</ele><time>2026-08-20T21:09:01Z</time></trkpt><trkpt lat="59.1041879822" lon="30.5052663758"><ele>301.51</ele><time>2026-08-20T21:09:02Z</time></trkpt><trkpt lat="59.1041890718" lon="30.5052821338"><ele>301.51</ele><time>2026-08-20T21:09:03Z</time></trkpt><trkpt lat="59.1041897424" lon="30.5052962992"><ele>301.51</ele><time>2026-08-20T21:09:04Z</time></trkpt><trkpt lat="59.1041897424" lon="30.5053011607"><ele>301.51</ele><time>2026-08-20T21:09:05Z</time></trkpt><trkpt lat="59.1041900776" lon="30.5053055193"><ele>301.51</ele><time>2026-08-20T21:09:06Z</time></trkpt><trkpt lat="59.1041888203" lon="30.5053101294"><ele>301.51</ele><time>2026-08-20T21:09:07Z</time></trkpt><trkpt lat="59.1041888203" lon="30.5053101294"><ele>301.51</ele><time>2026-08-20T21:09:08Z</time></trkpt><trkpt lat="59.1041888203" lon="30.5053101294"><ele>301.51</ele><time>2026-08-20T21:09:09Z</time></trkpt><trkpt lat="59.1041888203" lon="30.5053101294"><ele>301.51</ele><time>2026-08-20T21:09:10Z</time></trkpt><trkpt lat="59.1041888203" lon="30.5053101294"><ele>301.51</ele><time>2026-08-20T21:09:11Z</time></trkpt><trkpt lat="59.1041888203" lon="30.5053101294"><ele>301.51</ele><time>2026-08-20T21:09:12Z</time></trkpt><trkpt lat="59.1041888203" lon="30.5053101294"><ele>301.51</ele><time>2026-08-20T21:09:13Z</time></trkpt><trkpt lat="59.1041888203" lon="30.5053101294"><ele>301.51</ele><time>2026-08-20T21:09:14Z</time></trkpt><trkpt lat="59.1041888203" lon="30.5053101294"><ele>301.51</ele><time>2026-08-20T21:09:15Z</time></trkpt><trkpt lat="59.1041888203" lon="30.5053101294"><ele>301.51</ele><time>2026-08-20T21:09:16Z</time></trkpt><trkpt lat="59.1041888203" lon="30.5053101294"><ele>301.51</ele><time>2026-08-20T21:09:17Z</time></trkpt><trkpt lat="59.1041888203" lon="30.5053101294"><ele>301.51</ele><time>2026-08-20T21:09:18Z</time></trkpt><trkpt lat="59.1041888203" lon="30.5053101294"><ele>301.51</ele><time>2026-08-20T21:09:19Z</time></trkpt><trkpt lat="59.1041934304" lon="30.5053458363"><ele>301.51</ele><time>2026-08-20T21:09:20Z</time></trkpt><trkpt lat="59.1041893233" lon="30.5053571519"><ele>301.51</ele><time>2026-08-20T21:09:21Z</time></trkpt><trkpt lat="59.1041842941" lon="30.5053659528"><ele>301.51</ele><time>2026-08-20T21:09:22Z</time></trkpt><trkpt lat="59.1041823663" lon="30.5053723231"><ele>301.51</ele><time>2026-08-20T21:09:23Z</time></trkpt><trkpt lat="59.1041808575" lon="30.5053784419"><ele>301.51</ele><time>2026-08-20T21:09:24Z</time></trkpt><trkpt lat="59.1041781753" lon="30.5053819623"><ele>301.51</ele><time>2026-08-20T21:09:25Z</time></trkpt><trkpt lat="59.1041781753" lon="30.5053819623"><ele>301.51</ele><time>2026-08-20T21:09:26Z</time></trkpt><trkpt lat="59.1041781753" lon="30.5053819623"><ele>301.51</ele><time>2026-08-20T21:09:27Z</time></trkpt><trkpt lat="59.1041719727" lon="30.5053904280"><ele>301.51</ele><time>2026-08-20T21:09:28Z</time></trkpt><trkpt lat="59.1041679494" lon="30.5053955410"><ele>301.51</ele><time>2026-08-20T21:09:29Z</time></trkpt><trkpt lat="59.1041650996" lon="30.5054047611"><ele>301.51</ele><time>2026-08-20T21:09:30Z</time></trkpt><trkpt lat="59.1041637585" lon="30.5054171663"><ele>301.51</ele><time>2026-08-20T21:09:31Z</time></trkpt><trkpt lat="59.1041631717" lon="30.5054291524"><ele>301.51</ele><time>2026-08-20T21:09:32Z</time></trkpt><trkpt lat="59.1041660216" lon="30.5054376181"><ele>301.51</ele><time>2026-08-20T21:09:33Z</time></trkpt><trkpt lat="59.1041680332" lon="30.5054518674"><ele>301.51</ele><time>2026-08-20T21:09:34Z</time></trkpt><trkpt lat="59.1041692905" lon="30.5054622609"><ele>301.51</ele><time>2026-08-20T21:09:35Z</time></trkpt><trkpt lat="59.1041714698" lon="30.5054651946"><ele>301.51</ele><time>2026-08-20T21:09:36Z</time></trkpt><trkpt lat="59.1041680332" lon="30.5054695532"><ele>301.51</ele><time>2026-08-20T21:09:37Z</time></trkpt><trkpt lat="59.1041655187" lon="30.5054765940"><ele>301.51</ele><time>2026-08-20T21:09:38Z</time></trkpt><trkpt lat="59.1041655187" lon="30.5054765940"><ele>301.51</ele><time>2026-08-20T21:09:39Z</time></trkpt><trkpt lat="59.1041655187" lon="30.5054765940"><ele>301.51</ele><time>2026-08-20T21:09:40Z</time></trkpt><trkpt lat="59.1041655187" lon="30.5054765940"><ele>301.51</ele><time>2026-08-20T21:09:41Z</time></trkpt><trkpt lat="59.1041650996" lon="30.5055157375"><ele>301.51</ele><time>2026-08-20T21:09:42Z</time></trkpt><trkpt lat="59.1041670274" lon="30.5055216886"><ele>301.51</ele><time>2026-08-20T21:09:43Z</time></trkpt><trkpt lat="59.1041717213" lon="30.5055288970"><ele>301.51</ele><time>2026-08-20T21:09:44Z</time></trkpt><trkpt lat="59.1041692905" lon="30.5055321660"><ele>301.51</ele><time>2026-08-20T21:09:45Z</time></trkpt><trkpt lat="59.1041711345" lon="30.5055391230"><ele>301.51</ele><time>2026-08-20T21:09:46Z</time></trkpt><trkpt lat="59.1041726433" lon="30.5055431463"><ele>301.51</ele><time>2026-08-20T21:09:47Z</time></trkpt><trkpt lat="59.1041726433" lon="30.5055431463"><ele>301.51</ele><time>2026-08-20T21:09:48Z</time></trkpt><trkpt lat="59.1041726433" lon="30.5055431463"><ele>301.51</ele><time>2026-08-20T21:09:49Z</time></trkpt><trkpt lat="59.1041726433" lon="30.5055431463"><ele>301.51</ele><time>2026-08-20T21:09:50Z</time></trkpt><trkpt lat="59.1041776724" lon="30.5055573955"><ele>301.51</ele><time>2026-08-20T21:09:51Z</time></trkpt><trkpt lat="59.1041806899" lon="30.5055670347"><ele>301.51</ele><time>2026-08-20T21:09:52Z</time></trkpt><trkpt lat="59.1041835397" lon="30.5055773444"><ele>301.51</ele><time>2026-08-20T21:09:53Z</time></trkpt><trkpt lat="59.1041860543" lon="30.5055891629"><ele>301.51</ele><time>2026-08-20T21:09:54Z</time></trkpt><trkpt lat="59.1041881498" lon="30.5056020711"><ele>301.51</ele><time>2026-08-20T21:09:55Z</time></trkpt><trkpt lat="59.1041892394" lon="30.5056130514"><ele>301.51</ele><time>2026-08-20T21:09:56Z</time></trkpt><trkpt lat="59.1041918378" lon="30.5056260433"><ele>301.51</ele><time>2026-08-20T21:09:57Z</time></trkpt><trkpt lat="59.1041947715" lon="30.5056447349"><ele>301.51</ele><time>2026-08-20T21:09:58Z</time></trkpt><trkpt lat="59.1041975375" lon="30.5056607444"><ele>301.51</ele><time>2026-08-20T21:09:59Z</time></trkpt><trkpt lat="59.1042007226" lon="30.5056756642"><ele>301.51</ele><time>2026-08-20T21:10:00Z</time></trkpt><trkpt lat="59.1042037401" lon="30.5056917574"><ele>301.51</ele><time>2026-08-20T21:10:01Z</time></trkpt><trkpt lat="59.1042024828" lon="30.5057074316"><ele>301.51</ele><time>2026-08-20T21:10:02Z</time></trkpt><trkpt lat="59.1042042430" lon="30.5057219323"><ele>301.51</ele><time>2026-08-20T21:10:03Z</time></trkpt><trkpt lat="59.1042045783" lon="30.5057323258"><ele>301.51</ele><time>2026-08-20T21:10:04Z</time></trkpt><trkpt lat="59.1042068414" lon="30.5057434738"><ele>301.51</ele><time>2026-08-20T21:10:05Z</time></trkpt><trkpt lat="59.1042079311" lon="30.5057554599"><ele>301.51</ele><time>2026-08-20T21:10:06Z</time></trkpt><trkpt lat="59.1042081825" lon="30.5057632551"><ele>301.51</ele><time>2026-08-20T21:10:07Z</time></trkpt><trkpt lat="59.1042107809" lon="30.5057643447"><ele>301.51</ele><time>2026-08-20T21:10:08Z</time></trkpt><trkpt lat="59.1042113677" lon="30.5057726428"><ele>301.51</ele><time>2026-08-20T21:10:09Z</time></trkpt><trkpt lat="59.1042116191" lon="30.5057783425"><ele>301.51</ele><time>2026-08-20T21:10:10Z</time></trkpt><trkpt lat="59.1042116191" lon="30.5057783425"><ele>301.51</ele><time>2026-08-20T21:10:11Z</time></trkpt><trkpt lat="59.1042116191" lon="30.5057783425"><ele>301.51</ele><time>2026-08-20T21:10:12Z</time></trkpt><trkpt lat="59.1042116191" lon="30.5057783425"><ele>301.51</ele><time>2026-08-20T21:10:13Z</time></trkpt><trkpt lat="59.1042116191" lon="30.5057783425"><ele>301.51</ele><time>2026-08-20T21:10:14Z</time></trkpt><trkpt lat="59.1042116191" lon="30.5057783425"><ele>301.51</ele><time>2026-08-20T21:10:15Z</time></trkpt><trkpt lat="59.1042116191" lon="30.5057783425"><ele>301.51</ele><time>2026-08-20T21:10:16Z</time></trkpt><trkpt lat="59.1042116191" lon="30.5057783425"><ele>301.51</ele><time>2026-08-20T21:10:17Z</time></trkpt><trkpt lat="59.1042116191" lon="30.5057783425"><ele>301.51</ele><time>2026-08-20T21:10:18Z</time></trkpt><trkpt lat="59.1042116191" lon="30.5057783425"><ele>301.51</ele><time>2026-08-20T21:10:19Z</time></trkpt><trkpt lat="59.1042116191" lon="30.5057783425"><ele>301.51</ele><time>2026-08-20T21:10:20Z</time></trkpt><trkpt lat="59.1042116191" lon="30.5057783425"><ele>301.51</ele><time>2026-08-20T21:10:21Z</time></trkpt><trkpt lat="59.1042116191" lon="30.5057783425"><ele>301.51</ele><time>2026-08-20T21:10:22Z</time></trkpt><trkpt lat="59.1042116191" lon="30.5057783425"><ele>301.51</ele><time>2026-08-20T21:10:23Z</time></trkpt><trkpt lat="59.1042116191" lon="30.5057783425"><ele>301.51</ele><time>2026-08-20T21:10:24Z</time></trkpt><trkpt lat="59.1042116191" lon="30.5057783425"><ele>301.51</ele><time>2026-08-20T21:10:25Z</time></trkpt><trkpt lat="59.1042116191" lon="30.5057783425"><ele>301.51</ele><time>2026-08-20T21:10:26Z</time></trkpt><trkpt lat="59.1042116191" lon="30.5057783425"><ele>301.51</ele><time>2026-08-20T21:10:27Z</time></trkpt><trkpt lat="59.1042116191" lon="30.5057783425"><ele>301.51</ele><time>2026-08-20T21:10:28Z</time></trkpt><trkpt lat="59.1042116191" lon="30.5057783425"><ele>301.51</ele><time>2026-08-20T21:10:29Z</time></trkpt><trkpt lat="59.1042116191" lon="30.5057783425"><ele>301.51</ele><time>2026-08-20T21:10:30Z</time></trkpt><trkpt lat="59.1042116191" lon="30.5057783425"><ele>301.51</ele><time>2026-08-20T21:10:31Z</time></trkpt><trkpt lat="59.1042116191" lon="30.5057783425"><ele>301.51</ele><time>2026-08-20T21:10:32Z</time></trkpt><trkpt lat="59.1042116191" lon="30.5057783425"><ele>301.51</ele><time>2026-08-20T21:10:33Z</time></trkpt><trkpt lat="59.1042116191" lon="30.5057783425"><ele>301.51</ele><time>2026-08-20T21:10:34Z</time></trkpt><trkpt lat="59.1042116191" lon="30.5057783425"><ele>301.51</ele><time>2026-08-20T21:10:35Z</time></trkpt><trkpt lat="59.1042116191" lon="30.5057783425"><ele>301.51</ele><time>2026-08-20T21:10:36Z</time></trkpt><trkpt lat="59.1042116191" lon="30.5057783425"><ele>301.51</ele><time>2026-08-20T21:10:37Z</time></trkpt><trkpt lat="59.1042116191" lon="30.5057783425"><ele>301.51</ele><time>2026-08-20T21:10:38Z</time></trkpt><trkpt lat="59.1042116191" lon="30.5057783425"><ele>301.51</ele><time>2026-08-20T21:10:39Z</time></trkpt><trkpt lat="59.1042116191" lon="30.5057783425"><ele>301.51</ele><time>2026-08-20T21:10:40Z</time></trkpt><trkpt lat="59.1042116191" lon="30.5057783425"><ele>301.51</ele><time>2026-08-20T21:10:41Z</time></trkpt><trkpt lat="59.1042116191" lon="30.5057783425"><ele>301.51</ele><time>2026-08-20T21:10:42Z</time></trkpt><trkpt lat="59.1042116191" lon="30.5057783425"><ele>301.51</ele><time>2026-08-20T21:10:43Z</time></trkpt><trkpt lat="59.1042116191" lon="30.5057783425"><ele>301.51</ele><time>2026-08-20T21:10:44Z</time></trkpt><trkpt lat="59.1042116191" lon="30.5057783425"><ele>301.51</ele><time>2026-08-20T21:10:45Z</time></trkpt><trkpt lat="59.1042116191" lon="30.5057783425"><ele>301.51</ele><time>2026-08-20T21:10:46Z</time></trkpt><trkpt lat="59.1042116191" lon="30.5057783425"><ele>301.51</ele><time>2026-08-20T21:10:47Z</time></trkpt><trkpt lat="59.1042116191" lon="30.5057783425"><ele>301.51</ele><time>2026-08-20T21:10:48Z</time></trkpt><trkpt lat="59.1042116191" lon="30.5057783425"><ele>301.51</ele><time>2026-08-20T21:10:49Z</time></trkpt><trkpt lat="59.1042116191" lon="30.5057783425"><ele>301.51</ele><time>2026-08-20T21:10:50Z</time></trkpt><trkpt lat="59.1042116191" lon="30.5057783425"><ele>301.51</ele><time>2026-08-20T21:10:51Z</time></trkpt><trkpt lat="59.1042116191" lon="30.5057783425"><ele>301.51</ele><time>2026-08-20T21:10:52Z</time></trkpt><trkpt lat="59.1042116191" lon="30.5057783425"><ele>301.51</ele><time>2026-08-20T21:10:53Z</time></trkpt><trkpt lat="59.1042116191" lon="30.5057783425"><ele>301.51</ele><time>2026-08-20T21:10:54Z</time></trkpt><trkpt lat="59.1042116191" lon="30.5057783425"><ele>301.51</ele><time>2026-08-20T21:10:55Z</time></trkpt><trkpt lat="59.1042116191" lon="30.5057783425"><ele>301.51</ele><time>2026-08-20T21:10:56Z</time></trkpt><trkpt lat="59.1042116191" lon="30.5057783425"><ele>301.51</ele><time>2026-08-20T21:10:57Z</time></trkpt><trkpt lat="59.1042116191" lon="30.5057783425"><ele>301.51</ele><time>2026-08-20T21:10:58Z</time></trkpt><trkpt lat="59.1042116191" lon="30.5057783425"><ele>301.51</ele><time>2026-08-20T21:10:59Z</time></trkpt><trkpt lat="59.1042116191" lon="30.5057783425"><ele>301.51</ele><time>2026-08-20T21:11:00Z</time></trkpt><trkpt lat="59.1042116191" lon="30.5057783425"><ele>301.51</ele><time>2026-08-20T21:11:01Z</time></trkpt><trkpt lat="59.1042116191" lon="30.5057783425"><ele>301.51</ele><time>2026-08-20T21:11:02Z</time></trkpt><trkpt lat="59.1042116191" lon="30.5057783425"><ele>301.51</ele><time>2026-08-20T21:11:03Z</time></trkpt><trkpt lat="59.1042116191" lon="30.5057783425"><ele>301.51</ele><time>2026-08-20T21:11:04Z</time></trkpt><trkpt lat="59.1042116191" lon="30.5057783425"><ele>301.51</ele><time>2026-08-20T21:11:05Z</time></trkpt><trkpt lat="59.1042116191" lon="30.5057783425"><ele>301.51</ele><time>2026-08-20T21:11:06Z</time></trkpt><trkpt lat="59.1042116191" lon="30.5057783425"><ele>301.51</ele><time>2026-08-20T21:11:07Z</time></trkpt><trkpt lat="59.1042116191" lon="30.5057783425"><ele>301.51</ele><time>2026-08-20T21:11:08Z</time></trkpt><trkpt lat="59.1042116191" lon="30.5057783425"><ele>301.51</ele><time>2026-08-20T21:11:09Z</time></trkpt><trkpt lat="59.1042116191" lon="30.5057783425"><ele>301.51</ele><time>2026-08-20T21:11:10Z</time></trkpt><trkpt lat="59.1042116191" lon="30.5057783425"><ele>301.51</ele><time>2026-08-20T21:11:11Z</time></trkpt><trkpt lat="59.1042116191" lon="30.5057783425"><ele>301.51</ele><time>2026-08-20T21:11:12Z</time></trkpt><trkpt lat="59.1042116191" lon="30.5057783425"><ele>301.51</ele><time>2026-08-20T21:11:13Z</time></trkpt><trkpt lat="59.1042116191" lon="30.5057783425"><ele>301.51</ele><time>2026-08-20T21:11:14Z</time></trkpt><trkpt lat="59.1042116191" lon="30.5057783425"><ele>301.51</ele><time>2026-08-20T21:11:15Z</time></trkpt><trkpt lat="59.1042116191" lon="30.5057783425"><ele>301.51</ele><time>2026-08-20T21:11:16Z</time></trkpt><trkpt lat="59.1042116191" lon="30.5057783425"><ele>301.51</ele><time>2026-08-20T21:11:17Z</time></trkpt><trkpt lat="59.1042116191" lon="30.5057783425"><ele>301.51</ele><time>2026-08-20T21:11:18Z</time></trkpt><trkpt lat="59.1042116191" lon="30.5057783425"><ele>301.51</ele><time>2026-08-20T21:11:19Z</time></trkpt><trkpt lat="59.1042116191" lon="30.5057783425"><ele>301.51</ele><time>2026-08-20T21:11:20Z</time></trkpt><trkpt lat="59.1042116191" lon="30.5057783425"><ele>301.51</ele><time>2026-08-20T21:11:21Z</time></trkpt><trkpt lat="59.1042116191" lon="30.5057783425"><ele>301.51</ele><time>2026-08-20T21:11:22Z</time></trkpt><trkpt lat="59.1042116191" lon="30.5057783425"><ele>301.51</ele><time>2026-08-20T21:11:23Z</time></trkpt><trkpt lat="59.1042116191" lon="30.5057783425"><ele>301.51</ele><time>2026-08-20T21:11:24Z</time></trkpt><trkpt lat="59.1042116191" lon="30.5057783425"><ele>301.51</ele><time>2026-08-20T21:11:25Z</time></trkpt><trkpt lat="59.1042116191" lon="30.5057783425"><ele>301.51</ele><time>2026-08-20T21:11:26Z</time></trkpt><trkpt lat="59.1041917540" lon="30.5057866406"><ele>301.51</ele><time>2026-08-20T21:11:27Z</time></trkpt><trkpt lat="59.1041973699" lon="30.5058011413"><ele>301.51</ele><time>2026-08-20T21:11:28Z</time></trkpt><trkpt lat="59.1042011417" lon="30.5058234371"><ele>301.51</ele><time>2026-08-20T21:11:29Z</time></trkpt><trkpt lat="59.1042038240" lon="30.5058405362"><ele>301.51</ele><time>2026-08-20T21:11:30Z</time></trkpt><trkpt lat="59.1042055842" lon="30.5058581382"><ele>301.51</ele><time>2026-08-20T21:11:31Z</time></trkpt><trkpt lat="59.1042087693" lon="30.5058758240"><ele>301.51</ele><time>2026-08-20T21:11:32Z</time></trkpt><trkpt lat="59.1042117868" lon="30.5058937613"><ele>301.99</ele><time>2026-08-20T21:11:33Z</time></trkpt><trkpt lat="59.1042170674" lon="30.5059132911"><ele>301.99</ele><time>2026-08-20T21:11:34Z</time></trkpt><trkpt lat="59.1042222641" lon="30.5059350841"><ele>301.99</ele><time>2026-08-20T21:11:35Z</time></trkpt><trkpt lat="59.1042255331" lon="30.5059606489"><ele>301.99</ele><time>2026-08-20T21:11:36Z</time></trkpt><trkpt lat="59.1042279638" lon="30.5059828609"><ele>301.99</ele><time>2026-08-20T21:11:37Z</time></trkpt><trkpt lat="59.1042293888" lon="30.5059987865"><ele>301.99</ele><time>2026-08-20T21:11:38Z</time></trkpt><trkpt lat="59.1042297240" lon="30.5060135387"><ele>301.99</ele><time>2026-08-20T21:11:39Z</time></trkpt><trkpt lat="59.1042286344" lon="30.5060292967"><ele>301.99</ele><time>2026-08-20T21:11:40Z</time></trkpt><trkpt lat="59.1042273771" lon="30.5060460605"><ele>301.99</ele><time>2026-08-20T21:11:41Z</time></trkpt><trkpt lat="59.1042246949" lon="30.5060612317"><ele>301.99</ele><time>2026-08-20T21:11:42Z</time></trkpt><trkpt lat="59.1042240243" lon="30.5060801748"><ele>301.51</ele><time>2026-08-20T21:11:43Z</time></trkpt><trkpt lat="59.1042244434" lon="30.5061002914"><ele>301.51</ele><time>2026-08-20T21:11:44Z</time></trkpt><trkpt lat="59.1042263713" lon="30.5061168876"><ele>301.51</ele><time>2026-08-20T21:11:45Z</time></trkpt><trkpt lat="59.1042267904" lon="30.5061299633"><ele>301.51</ele><time>2026-08-20T21:11:46Z</time></trkpt><trkpt lat="59.1042278800" lon="30.5061475653"><ele>301.51</ele><time>2026-08-20T21:11:47Z</time></trkpt><trkpt lat="59.1042237729" lon="30.5061688554"><ele>301.51</ele><time>2026-08-20T21:11:48Z</time></trkpt><trkpt lat="59.1042210907" lon="30.5061919894"><ele>301.51</ele><time>2026-08-20T21:11:49Z</time></trkpt><trkpt lat="59.1042215936" lon="30.5062123574"><ele>301.51</ele><time>2026-08-20T21:11:50Z</time></trkpt><trkpt lat="59.1042222641" lon="30.5062344857"><ele>301.51</ele><time>2026-08-20T21:11:51Z</time></trkpt><trkpt lat="59.1042254493" lon="30.5062597990"><ele>301.51</ele><time>2026-08-20T21:11:52Z</time></trkpt><trkpt lat="59.1042276286" lon="30.5062818434"><ele>301.51</ele><time>2026-08-20T21:11:53Z</time></trkpt><trkpt lat="59.1042292211" lon="30.5062994454"><ele>301.51</ele><time>2026-08-20T21:11:54Z</time></trkpt><trkpt lat="59.1042296402" lon="30.5063179694"><ele>301.51</ele><time>2026-08-20T21:11:55Z</time></trkpt><trkpt lat="59.1042302269" lon="30.5063364934"><ele>301.51</ele><time>2026-08-20T21:11:56Z</time></trkpt><trkpt lat="59.1042304784" lon="30.5063572805"><ele>301.99</ele><time>2026-08-20T21:11:57Z</time></trkpt><trkpt lat="59.1042309813" lon="30.5063792411"><ele>301.99</ele><time>2026-08-20T21:11:58Z</time></trkpt><trkpt lat="59.1042332444" lon="30.5063991901"><ele>301.99</ele><time>2026-08-20T21:11:59Z</time></trkpt><trkpt lat="59.1042374354" lon="30.5064184684"><ele>301.99</ele><time>2026-08-20T21:12:00Z</time></trkpt><trkpt lat="59.1042396985" lon="30.5064365733"><ele>301.99</ele><time>2026-08-20T21:12:01Z</time></trkpt><trkpt lat="59.1042386927" lon="30.5064588692"><ele>301.99</ele><time>2026-08-20T21:12:02Z</time></trkpt><trkpt lat="59.1042381898" lon="30.5064824224"><ele>301.99</ele><time>2026-08-20T21:12:03Z</time></trkpt><trkpt lat="59.1042397823" lon="30.5065057240"><ele>301.99</ele><time>2026-08-20T21:12:04Z</time></trkpt><trkpt lat="59.1042412911" lon="30.5065308698"><ele>301.99</ele><time>2026-08-20T21:12:05Z</time></trkpt><trkpt lat="59.1042416263" lon="30.5065557640"><ele>301.99</ele><time>2026-08-20T21:12:06Z</time></trkpt><trkpt lat="59.1042435542" lon="30.5065823346"><ele>301.99</ele><time>2026-08-20T21:12:07Z</time></trkpt><trkpt lat="59.1042461526" lon="30.5066046305"><ele>301.99</ele><time>2026-08-20T21:12:08Z</time></trkpt><trkpt lat="59.1042491701" lon="30.5066283513"><ele>301.99</ele><time>2026-08-20T21:12:09Z</time></trkpt><trkpt lat="59.1042519361" lon="30.5066514853"><ele>301.99</ele><time>2026-08-20T21:12:10Z</time></trkpt><trkpt lat="59.1042547859" lon="30.5066732783"><ele>301.99</ele><time>2026-08-20T21:12:11Z</time></trkpt><trkpt lat="59.1042565461" lon="30.5066911317"><ele>301.99</ele><time>2026-08-20T21:12:12Z</time></trkpt><trkpt lat="59.1042569652" lon="30.5067111645"><ele>301.99</ele><time>2026-08-20T21:12:13Z</time></trkpt><trkpt lat="59.1042567976" lon="30.5067381542"><ele>301.99</ele><time>2026-08-20T21:12:14Z</time></trkpt><trkpt lat="59.1042560432" lon="30.5067646410"><ele>301.99</ele><time>2026-08-20T21:12:15Z</time></trkpt><trkpt lat="59.1042577196" lon="30.5067856796"><ele>301.99</ele><time>2026-08-20T21:12:16Z</time></trkpt><trkpt lat="59.1042606533" lon="30.5068055447"><ele>301.99</ele><time>2026-08-20T21:12:17Z</time></trkpt><trkpt lat="59.1042629164" lon="30.5068281759"><ele>301.99</ele><time>2026-08-20T21:12:18Z</time></trkpt><trkpt lat="59.1042635869" lon="30.5068502203"><ele>301.99</ele><time>2026-08-20T21:12:19Z</time></trkpt><trkpt lat="59.1042632516" lon="30.5068675708"><ele>301.99</ele><time>2026-08-20T21:12:20Z</time></trkpt><trkpt lat="59.1042622458" lon="30.5068852566"><ele>301.99</ele><time>2026-08-20T21:12:21Z</time></trkpt><trkpt lat="59.1042614914" lon="30.5069023557"><ele>301.99</ele><time>2026-08-20T21:12:22Z</time></trkpt><trkpt lat="59.1042600665" lon="30.5069226399"><ele>301.99</ele><time>2026-08-20T21:12:23Z</time></trkpt><trkpt lat="59.1042588931" lon="30.5069464445"><ele>301.99</ele><time>2026-08-20T21:12:24Z</time></trkpt><trkpt lat="59.1042604856" lon="30.5069662258"><ele>301.99</ele><time>2026-08-20T21:12:25Z</time></trkpt><trkpt lat="59.1042622458" lon="30.5069891922"><ele>301.99</ele><time>2026-08-20T21:12:26Z</time></trkpt><trkpt lat="59.1042631678" lon="30.5070090573"><ele>301.99</ele><time>2026-08-20T21:12:27Z</time></trkpt><trkpt lat="59.1042641737" lon="30.5070224684"><ele>301.99</ele><time>2026-08-20T21:12:28Z</time></trkpt><trkpt lat="59.1042608209" lon="30.5070386454"><ele>301.99</ele><time>2026-08-20T21:12:29Z</time></trkpt><trkpt lat="59.1042601503" lon="30.5070587620"><ele>301.99</ele><time>2026-08-20T21:12:30Z</time></trkpt><trkpt lat="59.1042597312" lon="30.5070780404"><ele>301.99</ele><time>2026-08-20T21:12:31Z</time></trkpt><trkpt lat="59.1042632516" lon="30.5070941336"><ele>301.99</ele><time>2026-08-20T21:12:32Z</time></trkpt><trkpt lat="59.1042643413" lon="30.5071140826"><ele>301.99</ele><time>2026-08-20T21:12:33Z</time></trkpt><trkpt lat="59.1042684484" lon="30.5071346182"><ele>301.99</ele><time>2026-08-20T21:12:34Z</time></trkpt><trkpt lat="59.1042728908" lon="30.5071530584"><ele>301.99</ele><time>2026-08-20T21:12:35Z</time></trkpt><trkpt lat="59.1042753216" lon="30.5071715824"><ele>301.99</ele><time>2026-08-20T21:12:36Z</time></trkpt><trkpt lat="59.1042785905" lon="30.5071909446"><ele>301.99</ele><time>2026-08-20T21:12:37Z</time></trkpt><trkpt lat="59.1042819433" lon="30.5072119832"><ele>301.99</ele><time>2026-08-20T21:12:38Z</time></trkpt><trkpt lat="59.1042859666" lon="30.5072372966"><ele>301.99</ele><time>2026-08-20T21:12:39Z</time></trkpt><trkpt lat="59.1042889841" lon="30.5072598439"><ele>301.99</ele><time>2026-08-20T21:12:40Z</time></trkpt><trkpt lat="59.1042890679" lon="30.5072823912"><ele>301.99</ele><time>2026-08-20T21:12:41Z</time></trkpt><trkpt lat="59.1042867210" lon="30.5073071178"><ele>301.99</ele><time>2026-08-20T21:12:42Z</time></trkpt><trkpt lat="59.1042856313" lon="30.5073305871"><ele>301.99</ele><time>2026-08-20T21:12:43Z</time></trkpt><trkpt lat="59.1042822786" lon="30.5073522963"><ele>301.99</ele><time>2026-08-20T21:12:44Z</time></trkpt><trkpt lat="59.1042789258" lon="30.5073734187"><ele>301.99</ele><time>2026-08-20T21:12:45Z</time></trkpt><trkpt lat="59.1042791773" lon="30.5073978938"><ele>301.99</ele><time>2026-08-20T21:12:46Z</time></trkpt><trkpt lat="59.1042811889" lon="30.5074228719"><ele>301.99</ele><time>2026-08-20T21:12:47Z</time></trkpt><trkpt lat="59.1042825300" lon="30.5074447487"><ele>301.99</ele><time>2026-08-20T21:12:48Z</time></trkpt><trkpt lat="59.1042837873" lon="30.5074639432"><ele>301.99</ele><time>2026-08-20T21:12:49Z</time></trkpt><trkpt lat="59.1042816918" lon="30.5074849818"><ele>301.99</ele><time>2026-08-20T21:12:50Z</time></trkpt><trkpt lat="59.1042798478" lon="30.5075083673"><ele>301.99</ele><time>2026-08-20T21:12:51Z</time></trkpt><trkpt lat="59.1042776685" lon="30.5075295735"><ele>301.99</ele><time>2026-08-20T21:12:52Z</time></trkpt><trkpt lat="59.1042762436" lon="30.5075524561"><ele>301.99</ele><time>2026-08-20T21:12:53Z</time></trkpt><trkpt lat="59.1042772494" lon="30.5075750872"><ele>301.99</ele><time>2026-08-20T21:12:54Z</time></trkpt><trkpt lat="59.1042792611" lon="30.5076014902"><ele>301.99</ele><time>2026-08-20T21:12:55Z</time></trkpt><trkpt lat="59.1042824462" lon="30.5076236185"><ele>301.99</ele><time>2026-08-20T21:12:56Z</time></trkpt><trkpt lat="59.1042827815" lon="30.5076464172"><ele>301.99</ele><time>2026-08-20T21:12:57Z</time></trkpt><trkpt lat="59.1042818595" lon="30.5076678749"><ele>301.99</ele><time>2026-08-20T21:12:58Z</time></trkpt><trkpt lat="59.1042835359" lon="30.5076930206"><ele>301.99</ele><time>2026-08-20T21:12:59Z</time></trkpt><trkpt lat="59.1042858828" lon="30.5077162385"><ele>301.99</ele><time>2026-08-20T21:13:00Z</time></trkpt><trkpt lat="59.1042875592" lon="30.5077388696"><ele>301.99</ele><time>2026-08-20T21:13:01Z</time></trkpt><trkpt lat="59.1042901576" lon="30.5077531189"><ele>301.99</ele><time>2026-08-20T21:13:02Z</time></trkpt><trkpt lat="59.1042918339" lon="30.5077683739"><ele>301.99</ele><time>2026-08-20T21:13:03Z</time></trkpt><trkpt lat="59.1042922530" lon="30.5077913404"><ele>301.99</ele><time>2026-08-20T21:13:04Z</time></trkpt><trkpt lat="59.1042929236" lon="30.5078140553"><ele>301.99</ele><time>2026-08-20T21:13:05Z</time></trkpt><trkpt lat="59.1042926721" lon="30.5078414641"><ele>301.99</ele><time>2026-08-20T21:13:06Z</time></trkpt><trkpt lat="59.1042950191" lon="30.5078632571"><ele>301.99</ele><time>2026-08-20T21:13:07Z</time></trkpt><trkpt lat="59.1042983718" lon="30.5078868940"><ele>301.99</ele><time>2026-08-20T21:13:08Z</time></trkpt><trkpt lat="59.1042972822" lon="30.5079087708"><ele>301.99</ele><time>2026-08-20T21:13:09Z</time></trkpt><trkpt lat="59.1042965278" lon="30.5079298932"><ele>301.99</ele><time>2026-08-20T21:13:10Z</time></trkpt><trkpt lat="59.1042956896" lon="30.5079468247"><ele>301.99</ele><time>2026-08-20T21:13:11Z</time></trkpt><trkpt lat="59.1043016408" lon="30.5079630855"><ele>301.99</ele><time>2026-08-20T21:13:12Z</time></trkpt><trkpt lat="59.1043068375" lon="30.5079758260"><ele>301.99</ele><time>2026-08-20T21:13:13Z</time></trkpt><trkpt lat="59.1043041553" lon="30.5079944339"><ele>301.99</ele><time>2026-08-20T21:13:14Z</time></trkpt><trkpt lat="59.1043060832" lon="30.5080106948"><ele>301.99</ele><time>2026-08-20T21:13:15Z</time></trkpt><trkpt lat="59.1043050773" lon="30.5080312304"><ele>301.99</ele><time>2026-08-20T21:13:16Z</time></trkpt><trkpt lat="59.1043032333" lon="30.5080530234"><ele>301.99</ele><time>2026-08-20T21:13:17Z</time></trkpt><trkpt lat="59.1043025628" lon="30.5080755707"><ele>301.99</ele><time>2026-08-20T21:13:18Z</time></trkpt><trkpt lat="59.1043026466" lon="30.5080951843"><ele>301.99</ele><time>2026-08-20T21:13:19Z</time></trkpt><trkpt lat="59.1043063346" lon="30.5081087630"><ele>301.99</ele><time>2026-08-20T21:13:20Z</time></trkpt><trkpt lat="59.1043094359" lon="30.5081297178"><ele>301.99</ele><time>2026-08-20T21:13:21Z</time></trkpt><trkpt lat="59.1043100227" lon="30.5081488285"><ele>301.99</ele><time>2026-08-20T21:13:22Z</time></trkpt><trkpt lat="59.1043097712" lon="30.5081672687"><ele>301.99</ele><time>2026-08-20T21:13:23Z</time></trkpt><trkpt lat="59.1043096874" lon="30.5081844516"><ele>301.99</ele><time>2026-08-20T21:13:24Z</time></trkpt><trkpt lat="59.1043058317" lon="30.5082024727"><ele>301.99</ele><time>2026-08-20T21:13:25Z</time></trkpt><trkpt lat="59.1043081786" lon="30.5082338210"><ele>301.99</ele><time>2026-08-20T21:13:26Z</time></trkpt><trkpt lat="59.1043105256" lon="30.5082536861"><ele>301.99</ele><time>2026-08-20T21:13:27Z</time></trkpt><trkpt lat="59.1043137945" lon="30.5082663428"><ele>301.99</ele><time>2026-08-20T21:13:28Z</time></trkpt><trkpt lat="59.1043156385" lon="30.5082817655"><ele>301.99</ele><time>2026-08-20T21:13:29Z</time></trkpt><trkpt lat="59.1043202486" lon="30.5082906503"><ele>301.99</ele><time>2026-08-20T21:13:30Z</time></trkpt><trkpt lat="59.1043190751" lon="30.5083106831"><ele>301.99</ele><time>2026-08-20T21:13:31Z</time></trkpt><trkpt lat="59.1043150518" lon="30.5083355773"><ele>301.99</ele><time>2026-08-20T21:13:32Z</time></trkpt><trkpt lat="59.1043101903" lon="30.5083526764"><ele>301.99</ele><time>2026-08-20T21:13:33Z</time></trkpt><trkpt lat="59.1043057479" lon="30.5083663389"><ele>301.99</ele><time>2026-08-20T21:13:34Z</time></trkpt><trkpt lat="59.1043032333" lon="30.5083824322"><ele>301.99</ele><time>2026-08-20T21:13:35Z</time></trkpt><trkpt lat="59.1043022275" lon="30.5084036384"><ele>301.99</ele><time>2026-08-20T21:13:36Z</time></trkpt><trkpt lat="59.1043034848" lon="30.5084219947"><ele>301.99</ele><time>2026-08-20T21:13:37Z</time></trkpt><trkpt lat="59.1043016408" lon="30.5084418599"><ele>301.99</ele><time>2026-08-20T21:13:38Z</time></trkpt><trkpt lat="59.1043022275" lon="30.5084547680"><ele>302.47</ele><time>2026-08-20T21:13:39Z</time></trkpt><trkpt lat="59.1043004673" lon="30.5084659997"><ele>302.47</ele><time>2026-08-20T21:13:40Z</time></trkpt><trkpt lat="59.1042991262" lon="30.5084835179"><ele>301.99</ele><time>2026-08-20T21:13:41Z</time></trkpt><trkpt lat="59.1042968631" lon="30.5084960908"><ele>301.99</ele><time>2026-08-20T21:13:42Z</time></trkpt><trkpt lat="59.1042915825" lon="30.5085160397"><ele>301.99</ele><time>2026-08-20T21:13:43Z</time></trkpt><trkpt lat="59.1042929236" lon="30.5085321330"><ele>301.99</ele><time>2026-08-20T21:13:44Z</time></trkpt><trkpt lat="59.1042985395" lon="30.5085379165"><ele>301.99</ele><time>2026-08-20T21:13:45Z</time></trkpt><trkpt lat="59.1043009702" lon="30.5085463822"><ele>301.99</ele><time>2026-08-20T21:13:46Z</time></trkpt><trkpt lat="59.1043016408" lon="30.5085564405"><ele>301.99</ele><time>2026-08-20T21:13:47Z</time></trkpt><trkpt lat="59.1043008864" lon="30.5085669179"><ele>301.99</ele><time>2026-08-20T21:13:48Z</time></trkpt><trkpt lat="59.1043058317" lon="30.5085823406"><ele>301.99</ele><time>2026-08-20T21:13:49Z</time></trkpt><trkpt lat="59.1043087654" lon="30.5085991882"><ele>301.99</ele><time>2026-08-20T21:13:50Z</time></trkpt><trkpt lat="59.1043120343" lon="30.5086141918"><ele>301.99</ele><time>2026-08-20T21:13:51Z</time></trkpt><trkpt lat="59.1043149680" lon="30.5086338893"><ele>301.99</ele><time>2026-08-20T21:13:52Z</time></trkpt><trkpt lat="59.1043183208" lon="30.5086602923"><ele>301.99</ele><time>2026-08-20T21:13:53Z</time></trkpt><trkpt lat="59.1043218412" lon="30.5086888745"><ele>301.99</ele><time>2026-08-20T21:13:54Z</time></trkpt><trkpt lat="59.1043179855" lon="30.5087115895"><ele>301.99</ele><time>2026-08-20T21:13:55Z</time></trkpt><trkpt lat="59.1043142974" lon="30.5087282695"><ele>301.99</ele><time>2026-08-20T21:13:56Z</time></trkpt><trkpt lat="59.1043158900" lon="30.5087485537"><ele>301.99</ele><time>2026-08-20T21:13:57Z</time></trkpt><trkpt lat="59.1043195780" lon="30.5087703466"><ele>301.99</ele><time>2026-08-20T21:13:58Z</time></trkpt><trkpt lat="59.1043220926" lon="30.5087891221"><ele>301.99</ele><time>2026-08-20T21:13:59Z</time></trkpt><trkpt lat="59.1043263674" lon="30.5088107474"><ele>301.99</ele><time>2026-08-20T21:14:00Z</time></trkpt><trkpt lat="59.1043297201" lon="30.5088354740"><ele>301.99</ele><time>2026-08-20T21:14:01Z</time></trkpt><trkpt lat="59.1043309774" lon="30.5088526569"><ele>301.99</ele><time>2026-08-20T21:14:02Z</time></trkpt><trkpt lat="59.1043341625" lon="30.5088688340"><ele>301.99</ele><time>2026-08-20T21:14:03Z</time></trkpt><trkpt lat="59.1043439694" lon="30.5088844243"><ele>301.99</ele><time>2026-08-20T21:14:04Z</time></trkpt><trkpt lat="59.1043468192" lon="30.5088957399"><ele>301.99</ele><time>2026-08-20T21:14:05Z</time></trkpt><trkpt lat="59.1043468192" lon="30.5088957399"><ele>301.99</ele><time>2026-08-20T21:14:06Z</time></trkpt><trkpt lat="59.1043468192" lon="30.5088957399"><ele>301.99</ele><time>2026-08-20T21:14:07Z</time></trkpt><trkpt lat="59.1043468192" lon="30.5088957399"><ele>301.99</ele><time>2026-08-20T21:14:08Z</time></trkpt><trkpt lat="59.1043468192" lon="30.5088957399"><ele>302.47</ele><time>2026-08-20T21:14:09Z</time></trkpt><trkpt lat="59.1043468192" lon="30.5088957399"><ele>302.47</ele><time>2026-08-20T21:14:10Z</time></trkpt><trkpt lat="59.1043468192" lon="30.5088957399"><ele>302.47</ele><time>2026-08-20T21:14:11Z</time></trkpt><trkpt lat="59.1043468192" lon="30.5088957399"><ele>302.47</ele><time>2026-08-20T21:14:12Z</time></trkpt><trkpt lat="59.1043468192" lon="30.5088957399"><ele>302.47</ele><time>2026-08-20T21:14:13Z</time></trkpt><trkpt lat="59.1043508425" lon="30.5089010205"><ele>302.47</ele><time>2026-08-20T21:14:14Z</time></trkpt><trkpt lat="59.1043548658" lon="30.5088859331"><ele>302.47</ele><time>2026-08-20T21:14:15Z</time></trkpt><trkpt lat="59.1043557879" lon="30.5088736955"><ele>302.47</ele><time>2026-08-20T21:14:16Z</time></trkpt><trkpt lat="59.1043576319" lon="30.5088586919"><ele>301.99</ele><time>2026-08-20T21:14:17Z</time></trkpt><trkpt lat="59.1043583862" lon="30.5088459514"><ele>301.99</ele><time>2026-08-20T21:14:18Z</time></trkpt><trkpt lat="59.1043605655" lon="30.5088324565"><ele>301.99</ele><time>2026-08-20T21:14:19Z</time></trkpt><trkpt lat="59.1043637507" lon="30.5088240746"><ele>301.99</ele><time>2026-08-20T21:14:20Z</time></trkpt><trkpt lat="59.1043650918" lon="30.5088139325"><ele>301.99</ele><time>2026-08-20T21:14:21Z</time></trkpt><trkpt lat="59.1043637507" lon="30.5088021979"><ele>301.99</ele><time>2026-08-20T21:14:22Z</time></trkpt><trkpt lat="59.1043625772" lon="30.5087858532"><ele>301.99</ele><time>2026-08-20T21:14:23Z</time></trkpt><trkpt lat="59.1043597274" lon="30.5087708496"><ele>301.99</ele><time>2026-08-20T21:14:24Z</time></trkpt><trkpt lat="59.1043599788" lon="30.5087563489"><ele>301.99</ele><time>2026-08-20T21:14:25Z</time></trkpt><trkpt lat="59.1043562908" lon="30.5087326281"><ele>301.99</ele><time>2026-08-20T21:14:26Z</time></trkpt><trkpt lat="59.1043590568" lon="30.5087150261"><ele>301.99</ele><time>2026-08-20T21:14:27Z</time></trkpt><trkpt lat="59.1043630801" lon="30.5086975917"><ele>301.99</ele><time>2026-08-20T21:14:28Z</time></trkpt><trkpt lat="59.1043660976" lon="30.5086799897"><ele>301.99</ele><time>2026-08-20T21:14:29Z</time></trkpt><trkpt lat="59.1043672711" lon="30.5086641479"><ele>301.99</ele><time>2026-08-20T21:14:30Z</time></trkpt><trkpt lat="59.1043636668" lon="30.5086457916"><ele>301.99</ele><time>2026-08-20T21:14:31Z</time></trkpt><trkpt lat="59.1043650918" lon="30.5086272676"><ele>301.99</ele><time>2026-08-20T21:14:32Z</time></trkpt><trkpt lat="59.1043672711" lon="30.5086100847"><ele>301.99</ele><time>2026-08-20T21:14:33Z</time></trkpt><trkpt lat="59.1043649241" lon="30.5085952487"><ele>301.99</ele><time>2026-08-20T21:14:34Z</time></trkpt><trkpt lat="59.1043648403" lon="30.5085784849"><ele>301.99</ele><time>2026-08-20T21:14:35Z</time></trkpt><trkpt lat="59.1043636668" lon="30.5085657444"><ele>301.99</ele><time>2026-08-20T21:14:36Z</time></trkpt><trkpt lat="59.1043605655" lon="30.5085570272"><ele>301.99</ele><time>2026-08-20T21:14:37Z</time></trkpt><trkpt lat="59.1043568775" lon="30.5085513275"><ele>301.99</ele><time>2026-08-20T21:14:38Z</time></trkpt><trkpt lat="59.1043527704" lon="30.5085432809"><ele>301.99</ele><time>2026-08-20T21:14:39Z</time></trkpt><trkpt lat="59.1043469869" lon="30.5085321330"><ele>301.99</ele><time>2026-08-20T21:14:40Z</time></trkpt><trkpt lat="59.1043445561" lon="30.5085227452"><ele>301.99</ele><time>2026-08-20T21:14:41Z</time></trkpt><trkpt lat="59.1043434665" lon="30.5085141957"><ele>301.99</ele><time>2026-08-20T21:14:42Z</time></trkpt><trkpt lat="59.1043448914" lon="30.5085111782"><ele>301.99</ele><time>2026-08-20T21:14:43Z</time></trkpt><trkpt lat="59.1043426283" lon="30.5085081607"><ele>301.99</ele><time>2026-08-20T21:14:44Z</time></trkpt><trkpt lat="59.1043401975" lon="30.5085050594"><ele>301.99</ele><time>2026-08-20T21:14:45Z</time></trkpt><trkpt lat="59.1043401975" lon="30.5085050594"><ele>301.99</ele><time>2026-08-20T21:14:46Z</time></trkpt><trkpt lat="59.1043401975" lon="30.5085050594"><ele>301.99</ele><time>2026-08-20T21:14:47Z</time></trkpt><trkpt lat="59.1043401975" lon="30.5085050594"><ele>301.99</ele><time>2026-08-20T21:14:48Z</time></trkpt><trkpt lat="59.1043401975" lon="30.5085050594"><ele>301.99</ele><time>2026-08-20T21:14:49Z</time></trkpt><trkpt lat="59.1043401975" lon="30.5085050594"><ele>301.99</ele><time>2026-08-20T21:14:50Z</time></trkpt><trkpt lat="59.1043401975" lon="30.5085050594"><ele>301.99</ele><time>2026-08-20T21:14:51Z</time></trkpt><trkpt lat="59.1043401975" lon="30.5085050594"><ele>301.99</ele><time>2026-08-20T21:14:52Z</time></trkpt><trkpt lat="59.1043401975" lon="30.5085050594"><ele>301.99</ele><time>2026-08-20T21:14:53Z</time></trkpt><trkpt lat="59.1043401975" lon="30.5085050594"><ele>301.99</ele><time>2026-08-20T21:14:54Z</time></trkpt><trkpt lat="59.1043401975" lon="30.5085050594"><ele>301.99</ele><time>2026-08-20T21:14:55Z</time></trkpt><trkpt lat="59.1043401975" lon="30.5085050594"><ele>301.99</ele><time>2026-08-20T21:14:56Z</time></trkpt><trkpt lat="59.1043401975" lon="30.5085050594"><ele>301.99</ele><time>2026-08-20T21:14:57Z</time></trkpt><trkpt lat="59.1043401975" lon="30.5085050594"><ele>301.99</ele><time>2026-08-20T21:14:58Z</time></trkpt><trkpt lat="59.1043401975" lon="30.5085050594"><ele>301.99</ele><time>2026-08-20T21:14:59Z</time></trkpt><trkpt lat="59.1043401975" lon="30.5085050594"><ele>301.99</ele><time>2026-08-20T21:15:00Z</time></trkpt><trkpt lat="59.1043401975" lon="30.5085050594"><ele>301.99</ele><time>2026-08-20T21:15:01Z</time></trkpt><trkpt lat="59.1043358389" lon="30.5084648263"><ele>301.99</ele><time>2026-08-20T21:15:02Z</time></trkpt><trkpt lat="59.1043348331" lon="30.5084566958"><ele>301.99</ele><time>2026-08-20T21:15:03Z</time></trkpt><trkpt lat="59.1043372639" lon="30.5084533431"><ele>301.99</ele><time>2026-08-20T21:15:04Z</time></trkpt><trkpt lat="59.1043376829" lon="30.5084542651"><ele>301.99</ele><time>2026-08-20T21:15:05Z</time></trkpt><trkpt lat="59.1043394431" lon="30.5084551871"><ele>301.99</ele><time>2026-08-20T21:15:06Z</time></trkpt><trkpt lat="59.1043394431" lon="30.5084551871"><ele>301.99</ele><time>2026-08-20T21:15:07Z</time></trkpt><trkpt lat="59.1043394431" lon="30.5084551871"><ele>301.99</ele><time>2026-08-20T21:15:08Z</time></trkpt><trkpt lat="59.1043394431" lon="30.5084551871"><ele>301.99</ele><time>2026-08-20T21:15:09Z</time></trkpt><trkpt lat="59.1043394431" lon="30.5084551871"><ele>301.99</ele><time>2026-08-20T21:15:10Z</time></trkpt><trkpt lat="59.1043394431" lon="30.5084551871"><ele>301.99</ele><time>2026-08-20T21:15:11Z</time></trkpt><trkpt lat="59.1043394431" lon="30.5084551871"><ele>301.99</ele><time>2026-08-20T21:15:12Z</time></trkpt><trkpt lat="59.1043394431" lon="30.5084551871"><ele>301.99</ele><time>2026-08-20T21:15:13Z</time></trkpt><trkpt lat="59.1043394431" lon="30.5084551871"><ele>301.99</ele><time>2026-08-20T21:15:14Z</time></trkpt><trkpt lat="59.1043394431" lon="30.5084551871"><ele>301.99</ele><time>2026-08-20T21:15:15Z</time></trkpt><trkpt lat="59.1043394431" lon="30.5084551871"><ele>301.99</ele><time>2026-08-20T21:15:16Z</time></trkpt><trkpt lat="59.1043394431" lon="30.5084551871"><ele>301.99</ele><time>2026-08-20T21:15:17Z</time></trkpt><trkpt lat="59.1043394431" lon="30.5084551871"><ele>301.99</ele><time>2026-08-20T21:15:18Z</time></trkpt><trkpt lat="59.1043394431" lon="30.5084551871"><ele>301.99</ele><time>2026-08-20T21:15:19Z</time></trkpt><trkpt lat="59.1043394431" lon="30.5084551871"><ele>301.99</ele><time>2026-08-20T21:15:20Z</time></trkpt><trkpt lat="59.1043394431" lon="30.5084551871"><ele>301.99</ele><time>2026-08-20T21:15:21Z</time></trkpt><trkpt lat="59.1043394431" lon="30.5084551871"><ele>301.99</ele><time>2026-08-20T21:15:22Z</time></trkpt><trkpt lat="59.1043394431" lon="30.5084551871"><ele>301.99</ele><time>2026-08-20T21:15:23Z</time></trkpt><trkpt lat="59.1043394431" lon="30.5084551871"><ele>301.99</ele><time>2026-08-20T21:15:24Z</time></trkpt><trkpt lat="59.1043394431" lon="30.5084551871"><ele>301.99</ele><time>2026-08-20T21:15:25Z</time></trkpt><trkpt lat="59.1043394431" lon="30.5084551871"><ele>301.99</ele><time>2026-08-20T21:15:26Z</time></trkpt><trkpt lat="59.1043394431" lon="30.5084551871"><ele>301.99</ele><time>2026-08-20T21:15:27Z</time></trkpt><trkpt lat="59.1043394431" lon="30.5084551871"><ele>301.99</ele><time>2026-08-20T21:15:28Z</time></trkpt><trkpt lat="59.1043394431" lon="30.5084551871"><ele>301.99</ele><time>2026-08-20T21:15:29Z</time></trkpt><trkpt lat="59.1043394431" lon="30.5084551871"><ele>301.99</ele><time>2026-08-20T21:15:30Z</time></trkpt><trkpt lat="59.1043394431" lon="30.5084551871"><ele>301.99</ele><time>2026-08-20T21:15:31Z</time></trkpt><trkpt lat="59.1043394431" lon="30.5084551871"><ele>301.99</ele><time>2026-08-20T21:15:32Z</time></trkpt><trkpt lat="59.1043394431" lon="30.5084551871"><ele>301.99</ele><time>2026-08-20T21:15:33Z</time></trkpt><trkpt lat="59.1043394431" lon="30.5084551871"><ele>301.99</ele><time>2026-08-20T21:15:34Z</time></trkpt><trkpt lat="59.1043394431" lon="30.5084551871"><ele>301.99</ele><time>2026-08-20T21:15:35Z</time></trkpt><trkpt lat="59.1043394431" lon="30.5084551871"><ele>301.99</ele><time>2026-08-20T21:15:36Z</time></trkpt><trkpt lat="59.1043394431" lon="30.5084551871"><ele>301.99</ele><time>2026-08-20T21:15:37Z</time></trkpt><trkpt lat="59.1043394431" lon="30.5084551871"><ele>301.99</ele><time>2026-08-20T21:15:38Z</time></trkpt><trkpt lat="59.1043394431" lon="30.5084551871"><ele>301.99</ele><time>2026-08-20T21:15:39Z</time></trkpt><trkpt lat="59.1043394431" lon="30.5084551871"><ele>301.99</ele><time>2026-08-20T21:15:40Z</time></trkpt><trkpt lat="59.1043394431" lon="30.5084551871"><ele>301.99</ele><time>2026-08-20T21:15:41Z</time></trkpt><trkpt lat="59.1043394431" lon="30.5084551871"><ele>301.99</ele><time>2026-08-20T21:15:42Z</time></trkpt><trkpt lat="59.1043394431" lon="30.5084551871"><ele>301.99</ele><time>2026-08-20T21:15:43Z</time></trkpt><trkpt lat="59.1043394431" lon="30.5084551871"><ele>301.99</ele><time>2026-08-20T21:15:44Z</time></trkpt><trkpt lat="59.1043394431" lon="30.5084551871"><ele>301.99</ele><time>2026-08-20T21:15:45Z</time></trkpt><trkpt lat="59.1043394431" lon="30.5084551871"><ele>301.99</ele><time>2026-08-20T21:15:46Z</time></trkpt><trkpt lat="59.1043394431" lon="30.5084551871"><ele>301.99</ele><time>2026-08-20T21:15:47Z</time></trkpt><trkpt lat="59.1043394431" lon="30.5084551871"><ele>301.99</ele><time>2026-08-20T21:15:48Z</time></trkpt><trkpt lat="59.1043394431" lon="30.5084551871"><ele>301.99</ele><time>2026-08-20T21:15:49Z</time></trkpt><trkpt lat="59.1043394431" lon="30.5084551871"><ele>301.99</ele><time>2026-08-20T21:15:50Z</time></trkpt><trkpt lat="59.1043394431" lon="30.5084551871"><ele>301.99</ele><time>2026-08-20T21:15:51Z</time></trkpt><trkpt lat="59.1043394431" lon="30.5084551871"><ele>301.99</ele><time>2026-08-20T21:15:52Z</time></trkpt><trkpt lat="59.1043394431" lon="30.5084551871"><ele>301.99</ele><time>2026-08-20T21:15:53Z</time></trkpt><trkpt lat="59.1043394431" lon="30.5084551871"><ele>301.99</ele><time>2026-08-20T21:15:54Z</time></trkpt><trkpt lat="59.1043394431" lon="30.5084551871"><ele>301.99</ele><time>2026-08-20T21:15:55Z</time></trkpt><trkpt lat="59.1043394431" lon="30.5084551871"><ele>301.99</ele><time>2026-08-20T21:15:56Z</time></trkpt><trkpt lat="59.1043394431" lon="30.5084551871"><ele>301.99</ele><time>2026-08-20T21:15:57Z</time></trkpt><trkpt lat="59.1043394431" lon="30.5084551871"><ele>301.99</ele><time>2026-08-20T21:15:58Z</time></trkpt><trkpt lat="59.1043394431" lon="30.5084551871"><ele>301.99</ele><time>2026-08-20T21:15:59Z</time></trkpt><trkpt lat="59.1043394431" lon="30.5084551871"><ele>301.99</ele><time>2026-08-20T21:16:00Z</time></trkpt><trkpt lat="59.1043394431" lon="30.5084551871"><ele>301.99</ele><time>2026-08-20T21:16:01Z</time></trkpt><trkpt lat="59.1043394431" lon="30.5084551871"><ele>301.99</ele><time>2026-08-20T21:16:02Z</time></trkpt><trkpt lat="59.1043394431" lon="30.5084551871"><ele>301.99</ele><time>2026-08-20T21:16:03Z</time></trkpt><trkpt lat="59.1043394431" lon="30.5084551871"><ele>301.99</ele><time>2026-08-20T21:16:04Z</time></trkpt><trkpt lat="59.1043394431" lon="30.5084551871"><ele>301.99</ele><time>2026-08-20T21:16:05Z</time></trkpt><trkpt lat="59.1043394431" lon="30.5084551871"><ele>301.99</ele><time>2026-08-20T21:16:06Z</time></trkpt><trkpt lat="59.1043394431" lon="30.5084551871"><ele>301.99</ele><time>2026-08-20T21:16:07Z</time></trkpt><trkpt lat="59.1043394431" lon="30.5084551871"><ele>301.99</ele><time>2026-08-20T21:16:08Z</time></trkpt><trkpt lat="59.1043394431" lon="30.5084551871"><ele>301.99</ele><time>2026-08-20T21:16:09Z</time></trkpt><trkpt lat="59.1043394431" lon="30.5084551871"><ele>301.99</ele><time>2026-08-20T21:16:10Z</time></trkpt><trkpt lat="59.1043394431" lon="30.5084551871"><ele>301.99</ele><time>2026-08-20T21:16:11Z</time></trkpt><trkpt lat="59.1043394431" lon="30.5084551871"><ele>301.99</ele><time>2026-08-20T21:16:12Z</time></trkpt><trkpt lat="59.1043394431" lon="30.5084551871"><ele>301.99</ele><time>2026-08-20T21:16:13Z</time></trkpt><trkpt lat="59.1043394431" lon="30.5084551871"><ele>301.99</ele><time>2026-08-20T21:16:14Z</time></trkpt><trkpt lat="59.1043394431" lon="30.5084551871"><ele>301.99</ele><time>2026-08-20T21:16:15Z</time></trkpt><trkpt lat="59.1043394431" lon="30.5084551871"><ele>301.99</ele><time>2026-08-20T21:16:16Z</time></trkpt><trkpt lat="59.1043394431" lon="30.5084551871"><ele>301.99</ele><time>2026-08-20T21:16:17Z</time></trkpt><trkpt lat="59.1043394431" lon="30.5084551871"><ele>301.99</ele><time>2026-08-20T21:16:18Z</time></trkpt><trkpt lat="59.1043394431" lon="30.5084551871"><ele>301.99</ele><time>2026-08-20T21:16:19Z</time></trkpt><trkpt lat="59.1043394431" lon="30.5084551871"><ele>301.99</ele><time>2026-08-20T21:16:20Z</time></trkpt><trkpt lat="59.1043394431" lon="30.5084551871"><ele>301.99</ele><time>2026-08-20T21:16:21Z</time></trkpt><trkpt lat="59.1043394431" lon="30.5084551871"><ele>301.99</ele><time>2026-08-20T21:16:22Z</time></trkpt><trkpt lat="59.1043394431" lon="30.5084551871"><ele>301.99</ele><time>2026-08-20T21:16:23Z</time></trkpt><trkpt lat="59.1043394431" lon="30.5084551871"><ele>301.99</ele><time>2026-08-20T21:16:24Z</time></trkpt><trkpt lat="59.1043394431" lon="30.5084551871"><ele>301.99</ele><time>2026-08-20T21:16:25Z</time></trkpt><trkpt lat="59.1043394431" lon="30.5084551871"><ele>301.99</ele><time>2026-08-20T21:16:26Z</time></trkpt><trkpt lat="59.1043394431" lon="30.5084551871"><ele>301.99</ele><time>2026-08-20T21:16:27Z</time></trkpt><trkpt lat="59.1043394431" lon="30.5084551871"><ele>301.99</ele><time>2026-08-20T21:16:28Z</time></trkpt><trkpt lat="59.1043394431" lon="30.5084551871"><ele>301.99</ele><time>2026-08-20T21:16:29Z</time></trkpt><trkpt lat="59.1043394431" lon="30.5084551871"><ele>301.99</ele><time>2026-08-20T21:16:30Z</time></trkpt><trkpt lat="59.1043394431" lon="30.5084551871"><ele>301.99</ele><time>2026-08-20T21:16:31Z</time></trkpt><trkpt lat="59.1043394431" lon="30.5084551871"><ele>301.99</ele><time>2026-08-20T21:16:32Z</time></trkpt><trkpt lat="59.1043394431" lon="30.5084551871"><ele>301.99</ele><time>2026-08-20T21:16:33Z</time></trkpt><trkpt lat="59.1043394431" lon="30.5084551871"><ele>301.99</ele><time>2026-08-20T21:16:34Z</time></trkpt><trkpt lat="59.1043394431" lon="30.5084551871"><ele>301.99</ele><time>2026-08-20T21:16:35Z</time></trkpt><trkpt lat="59.1043394431" lon="30.5084551871"><ele>301.99</ele><time>2026-08-20T21:16:36Z</time></trkpt><trkpt lat="59.1043394431" lon="30.5084551871"><ele>301.99</ele><time>2026-08-20T21:16:37Z</time></trkpt><trkpt lat="59.1043394431" lon="30.5084551871"><ele>301.99</ele><time>2026-08-20T21:16:38Z</time></trkpt><trkpt lat="59.1043394431" lon="30.5084551871"><ele>301.99</ele><time>2026-08-20T21:16:39Z</time></trkpt><trkpt lat="59.1043394431" lon="30.5084551871"><ele>301.99</ele><time>2026-08-20T21:16:40Z</time></trkpt><trkpt lat="59.1043394431" lon="30.5084551871"><ele>301.99</ele><time>2026-08-20T21:16:41Z</time></trkpt><trkpt lat="59.1043394431" lon="30.5084551871"><ele>301.99</ele><time>2026-08-20T21:16:42Z</time></trkpt><trkpt lat="59.1043394431" lon="30.5084551871"><ele>301.99</ele><time>2026-08-20T21:16:43Z</time></trkpt><trkpt lat="59.1043394431" lon="30.5084551871"><ele>301.99</ele><time>2026-08-20T21:16:44Z</time></trkpt><trkpt lat="59.1043494176" lon="30.5084480625"><ele>301.99</ele><time>2026-08-20T21:16:45Z</time></trkpt><trkpt lat="59.1043495853" lon="30.5084559415"><ele>301.99</ele><time>2026-08-20T21:16:46Z</time></trkpt><trkpt lat="59.1043471545" lon="30.5084622279"><ele>301.99</ele><time>2026-08-20T21:16:47Z</time></trkpt><trkpt lat="59.1043418739" lon="30.5084722862"><ele>301.99</ele><time>2026-08-20T21:16:48Z</time></trkpt><trkpt lat="59.1043407843" lon="30.5084823444"><ele>301.99</ele><time>2026-08-20T21:16:49Z</time></trkpt><trkpt lat="59.1043404490" lon="30.5084955879"><ele>301.99</ele><time>2026-08-20T21:16:50Z</time></trkpt><trkpt lat="59.1043412872" lon="30.5085061491"><ele>301.99</ele><time>2026-08-20T21:16:51Z</time></trkpt><trkpt lat="59.1043442208" lon="30.5085236672"><ele>301.99</ele><time>2026-08-20T21:16:52Z</time></trkpt><trkpt lat="59.1043471545" lon="30.5085417721"><ele>301.99</ele><time>2026-08-20T21:16:53Z</time></trkpt><trkpt lat="59.1043479927" lon="30.5085539259"><ele>301.99</ele><time>2026-08-20T21:16:54Z</time></trkpt><trkpt lat="59.1043483280" lon="30.5085689295"><ele>301.99</ele><time>2026-08-20T21:16:55Z</time></trkpt><trkpt lat="59.1043496691" lon="30.5085816700"><ele>301.99</ele><time>2026-08-20T21:16:56Z</time></trkpt><trkpt lat="59.1043495853" lon="30.5085934885"><ele>301.99</ele><time>2026-08-20T21:16:57Z</time></trkpt><trkpt lat="59.1043509264" lon="30.5086041335"><ele>301.99</ele><time>2026-08-20T21:16:58Z</time></trkpt><trkpt lat="59.1043546982" lon="30.5086177960"><ele>301.99</ele><time>2026-08-20T21:16:59Z</time></trkpt><trkpt lat="59.1043534409" lon="30.5086348951"><ele>301.99</ele><time>2026-08-20T21:17:00Z</time></trkpt><trkpt lat="59.1043578833" lon="30.5086494796"><ele>301.99</ele><time>2026-08-20T21:17:01Z</time></trkpt><trkpt lat="59.1043587215" lon="30.5086647347"><ele>301.99</ele><time>2026-08-20T21:17:02Z</time></trkpt><trkpt lat="59.1043641698" lon="30.5086826719"><ele>301.99</ele><time>2026-08-20T21:17:03Z</time></trkpt><trkpt lat="59.1043681931" lon="30.5087052193"><ele>301.99</ele><time>2026-08-20T21:17:04Z</time></trkpt><trkpt lat="59.1043687798" lon="30.5087235756"><ele>301.99</ele><time>2026-08-20T21:17:05Z</time></trkpt><trkpt lat="59.1043679416" lon="30.5087415967"><ele>301.99</ele><time>2026-08-20T21:17:06Z</time></trkpt><trkpt lat="59.1043754853" lon="30.5087565165"><ele>301.99</ele><time>2026-08-20T21:17:07Z</time></trkpt><trkpt lat="59.1043764912" lon="30.5087716877"><ele>301.99</ele><time>2026-08-20T21:17:08Z</time></trkpt><trkpt lat="59.1043747310" lon="30.5087885354"><ele>301.99</ele><time>2026-08-20T21:17:09Z</time></trkpt><trkpt lat="59.1043796763" lon="30.5087994318"><ele>301.99</ele><time>2026-08-20T21:17:10Z</time></trkpt><trkpt lat="59.1043780837" lon="30.5088148545"><ele>301.99</ele><time>2026-08-20T21:17:11Z</time></trkpt><trkpt lat="59.1043796763" lon="30.5088339653"><ele>301.99</ele><time>2026-08-20T21:17:12Z</time></trkpt><trkpt lat="59.1043776646" lon="30.5088509806"><ele>301.99</ele><time>2026-08-20T21:17:13Z</time></trkpt><trkpt lat="59.1043810174" lon="30.5088706780"><ele>301.99</ele><time>2026-08-20T21:17:14Z</time></trkpt><trkpt lat="59.1043799277" lon="30.5088869389"><ele>301.99</ele><time>2026-08-20T21:17:15Z</time></trkpt><trkpt lat="59.1043771617" lon="30.5088951532"><ele>301.99</ele><time>2026-08-20T21:17:16Z</time></trkpt><trkpt lat="59.1043770779" lon="30.5089016911"><ele>301.99</ele><time>2026-08-20T21:17:17Z</time></trkpt><trkpt lat="59.1043767426" lon="30.5089067202"><ele>301.99</ele><time>2026-08-20T21:17:18Z</time></trkpt><trkpt lat="59.1043756530" lon="30.5089111626"><ele>301.99</ele><time>2026-08-20T21:17:19Z</time></trkpt><trkpt lat="59.1043756530" lon="30.5089111626"><ele>301.99</ele><time>2026-08-20T21:17:20Z</time></trkpt><trkpt lat="59.1043756530" lon="30.5089111626"><ele>301.99</ele><time>2026-08-20T21:17:21Z</time></trkpt><trkpt lat="59.1043756530" lon="30.5089111626"><ele>301.99</ele><time>2026-08-20T21:17:22Z</time></trkpt><trkpt lat="59.1043756530" lon="30.5089111626"><ele>301.99</ele><time>2026-08-20T21:17:23Z</time></trkpt><trkpt lat="59.1043756530" lon="30.5089111626"><ele>301.99</ele><time>2026-08-20T21:17:24Z</time></trkpt><trkpt lat="59.1043756530" lon="30.5089111626"><ele>301.99</ele><time>2026-08-20T21:17:25Z</time></trkpt><trkpt lat="59.1043756530" lon="30.5089111626"><ele>301.99</ele><time>2026-08-20T21:17:26Z</time></trkpt><trkpt lat="59.1043756530" lon="30.5089111626"><ele>301.99</ele><time>2026-08-20T21:17:27Z</time></trkpt><trkpt lat="59.1043756530" lon="30.5089111626"><ele>301.99</ele><time>2026-08-20T21:17:28Z</time></trkpt><trkpt lat="59.1043756530" lon="30.5089111626"><ele>301.99</ele><time>2026-08-20T21:17:29Z</time></trkpt><trkpt lat="59.1043756530" lon="30.5089111626"><ele>301.99</ele><time>2026-08-20T21:17:30Z</time></trkpt><trkpt lat="59.1043756530" lon="30.5089111626"><ele>301.99</ele><time>2026-08-20T21:17:31Z</time></trkpt><trkpt lat="59.1043756530" lon="30.5089111626"><ele>301.99</ele><time>2026-08-20T21:17:32Z</time></trkpt><trkpt lat="59.1043756530" lon="30.5089111626"><ele>301.99</ele><time>2026-08-20T21:17:33Z</time></trkpt><trkpt lat="59.1043756530" lon="30.5089111626"><ele>301.99</ele><time>2026-08-20T21:17:34Z</time></trkpt><trkpt lat="59.1043756530" lon="30.5089111626"><ele>301.99</ele><time>2026-08-20T21:17:35Z</time></trkpt><trkpt lat="59.1043756530" lon="30.5089111626"><ele>301.99</ele><time>2026-08-20T21:17:36Z</time></trkpt><trkpt lat="59.1043756530" lon="30.5089111626"><ele>301.99</ele><time>2026-08-20T21:17:37Z</time></trkpt><trkpt lat="59.1043756530" lon="30.5089111626"><ele>301.99</ele><time>2026-08-20T21:17:38Z</time></trkpt><trkpt lat="59.1043756530" lon="30.5089111626"><ele>301.99</ele><time>2026-08-20T21:17:39Z</time></trkpt><trkpt lat="59.1043756530" lon="30.5089111626"><ele>301.99</ele><time>2026-08-20T21:17:40Z</time></trkpt><trkpt lat="59.1043756530" lon="30.5089111626"><ele>301.99</ele><time>2026-08-20T21:17:41Z</time></trkpt><trkpt lat="59.1043756530" lon="30.5089111626"><ele>301.99</ele><time>2026-08-20T21:17:42Z</time></trkpt><trkpt lat="59.1043756530" lon="30.5089111626"><ele>301.99</ele><time>2026-08-20T21:17:43Z</time></trkpt><trkpt lat="59.1043756530" lon="30.5089111626"><ele>301.99</ele><time>2026-08-20T21:17:44Z</time></trkpt><trkpt lat="59.1043756530" lon="30.5089111626"><ele>301.99</ele><time>2026-08-20T21:17:45Z</time></trkpt><trkpt lat="59.1043756530" lon="30.5089111626"><ele>301.99</ele><time>2026-08-20T21:17:46Z</time></trkpt><trkpt lat="59.1043756530" lon="30.5089111626"><ele>301.99</ele><time>2026-08-20T21:17:47Z</time></trkpt><trkpt lat="59.1043756530" lon="30.5089111626"><ele>301.99</ele><time>2026-08-20T21:17:48Z</time></trkpt><trkpt lat="59.1043756530" lon="30.5089111626"><ele>301.99</ele><time>2026-08-20T21:17:49Z</time></trkpt><trkpt lat="59.1043756530" lon="30.5089111626"><ele>301.99</ele><time>2026-08-20T21:17:50Z</time></trkpt><trkpt lat="59.1043756530" lon="30.5089111626"><ele>301.99</ele><time>2026-08-20T21:17:51Z</time></trkpt><trkpt lat="59.1043756530" lon="30.5089111626"><ele>301.99</ele><time>2026-08-20T21:17:52Z</time></trkpt><trkpt lat="59.1043756530" lon="30.5089111626"><ele>301.99</ele><time>2026-08-20T21:17:53Z</time></trkpt><trkpt lat="59.1043756530" lon="30.5089111626"><ele>301.99</ele><time>2026-08-20T21:17:54Z</time></trkpt><trkpt lat="59.1043756530" lon="30.5089111626"><ele>301.99</ele><time>2026-08-20T21:17:55Z</time></trkpt><trkpt lat="59.1043756530" lon="30.5089111626"><ele>301.99</ele><time>2026-08-20T21:17:56Z</time></trkpt><trkpt lat="59.1043756530" lon="30.5089111626"><ele>301.99</ele><time>2026-08-20T21:17:57Z</time></trkpt><trkpt lat="59.1043756530" lon="30.5089111626"><ele>301.99</ele><time>2026-08-20T21:17:58Z</time></trkpt><trkpt lat="59.1043756530" lon="30.5089111626"><ele>301.99</ele><time>2026-08-20T21:17:59Z</time></trkpt><trkpt lat="59.1043756530" lon="30.5089111626"><ele>301.99</ele><time>2026-08-20T21:18:00Z</time></trkpt><trkpt lat="59.1043756530" lon="30.5089111626"><ele>301.99</ele><time>2026-08-20T21:18:01Z</time></trkpt><trkpt lat="59.1043756530" lon="30.5089111626"><ele>301.99</ele><time>2026-08-20T21:18:02Z</time></trkpt><trkpt lat="59.1043756530" lon="30.5089111626"><ele>301.99</ele><time>2026-08-20T21:18:03Z</time></trkpt><trkpt lat="59.1043756530" lon="30.5089111626"><ele>301.99</ele><time>2026-08-20T21:18:04Z</time></trkpt><trkpt lat="59.1043756530" lon="30.5089111626"><ele>301.99</ele><time>2026-08-20T21:18:05Z</time></trkpt><trkpt lat="59.1043756530" lon="30.5089111626"><ele>301.99</ele><time>2026-08-20T21:18:06Z</time></trkpt><trkpt lat="59.1043756530" lon="30.5089111626"><ele>301.99</ele><time>2026-08-20T21:18:07Z</time></trkpt><trkpt lat="59.1043756530" lon="30.5089111626"><ele>301.99</ele><time>2026-08-20T21:18:08Z</time></trkpt><trkpt lat="59.1043756530" lon="30.5089111626"><ele>301.99</ele><time>2026-08-20T21:18:09Z</time></trkpt><trkpt lat="59.1043756530" lon="30.5089111626"><ele>301.99</ele><time>2026-08-20T21:18:10Z</time></trkpt><trkpt lat="59.1043756530" lon="30.5089111626"><ele>301.99</ele><time>2026-08-20T21:18:11Z</time></trkpt><trkpt lat="59.1043756530" lon="30.5089111626"><ele>301.99</ele><time>2026-08-20T21:18:12Z</time></trkpt><trkpt lat="59.1043756530" lon="30.5089111626"><ele>301.99</ele><time>2026-08-20T21:18:13Z</time></trkpt><trkpt lat="59.1043756530" lon="30.5089111626"><ele>301.99</ele><time>2026-08-20T21:18:14Z</time></trkpt><trkpt lat="59.1043756530" lon="30.5089111626"><ele>301.99</ele><time>2026-08-20T21:18:15Z</time></trkpt><trkpt lat="59.1043756530" lon="30.5089111626"><ele>301.99</ele><time>2026-08-20T21:18:16Z</time></trkpt><trkpt lat="59.1043756530" lon="30.5089111626"><ele>301.99</ele><time>2026-08-20T21:18:17Z</time></trkpt><trkpt lat="59.1043756530" lon="30.5089111626"><ele>301.99</ele><time>2026-08-20T21:18:18Z</time></trkpt><trkpt lat="59.1043756530" lon="30.5089111626"><ele>301.99</ele><time>2026-08-20T21:18:19Z</time></trkpt><trkpt lat="59.1043756530" lon="30.5089111626"><ele>301.99</ele><time>2026-08-20T21:18:20Z</time></trkpt><trkpt lat="59.1043756530" lon="30.5089111626"><ele>301.99</ele><time>2026-08-20T21:18:21Z</time></trkpt><trkpt lat="59.1043756530" lon="30.5089111626"><ele>301.99</ele><time>2026-08-20T21:18:22Z</time></trkpt><trkpt lat="59.1043756530" lon="30.5089111626"><ele>301.99</ele><time>2026-08-20T21:18:23Z</time></trkpt><trkpt lat="59.1043738928" lon="30.5089327879"><ele>301.99</ele><time>2026-08-20T21:18:24Z</time></trkpt><trkpt lat="59.1043731384" lon="30.5089485459"><ele>301.99</ele><time>2026-08-20T21:18:25Z</time></trkpt><trkpt lat="59.1043737251" lon="30.5089639686"><ele>301.99</ele><time>2026-08-20T21:18:26Z</time></trkpt><trkpt lat="59.1043753177" lon="30.5089709256"><ele>301.99</ele><time>2026-08-20T21:18:27Z</time></trkpt><trkpt lat="59.1043779999" lon="30.5089731887"><ele>301.99</ele><time>2026-08-20T21:18:28Z</time></trkpt><trkpt lat="59.1043793410" lon="30.5089783855"><ele>301.99</ele><time>2026-08-20T21:18:29Z</time></trkpt><trkpt lat="59.1043793410" lon="30.5089969933"><ele>301.99</ele><time>2026-08-20T21:18:30Z</time></trkpt><trkpt lat="59.1043793410" lon="30.5090115778"><ele>301.99</ele><time>2026-08-20T21:18:31Z</time></trkpt><trkpt lat="59.1043802630" lon="30.5090244859"><ele>301.99</ele><time>2026-08-20T21:18:32Z</time></trkpt><trkpt lat="59.1043791734" lon="30.5090292636"><ele>301.99</ele><time>2026-08-20T21:18:33Z</time></trkpt><trkpt lat="59.1043796763" lon="30.5090298504"><ele>301.99</ele><time>2026-08-20T21:18:34Z</time></trkpt><trkpt lat="59.1043814365" lon="30.5090352986"><ele>301.99</ele><time>2026-08-20T21:18:35Z</time></trkpt><trkpt lat="59.1043814365" lon="30.5090352986"><ele>301.99</ele><time>2026-08-20T21:18:36Z</time></trkpt><trkpt lat="59.1043814365" lon="30.5090352986"><ele>301.99</ele><time>2026-08-20T21:18:37Z</time></trkpt><trkpt lat="59.1043814365" lon="30.5090352986"><ele>301.99</ele><time>2026-08-20T21:18:38Z</time></trkpt><trkpt lat="59.1043814365" lon="30.5090352986"><ele>301.99</ele><time>2026-08-20T21:18:39Z</time></trkpt><trkpt lat="59.1043814365" lon="30.5090352986"><ele>301.99</ele><time>2026-08-20T21:18:40Z</time></trkpt><trkpt lat="59.1043803468" lon="30.5090540741"><ele>301.99</ele><time>2026-08-20T21:18:41Z</time></trkpt><trkpt lat="59.1043805983" lon="30.5090638809"><ele>301.99</ele><time>2026-08-20T21:18:42Z</time></trkpt><trkpt lat="59.1043816879" lon="30.5090755317"><ele>301.99</ele><time>2026-08-20T21:18:43Z</time></trkpt><trkpt lat="59.1043808497" lon="30.5090910383"><ele>301.99</ele><time>2026-08-20T21:18:44Z</time></trkpt><trkpt lat="59.1043826938" lon="30.5091085564"><ele>301.99</ele><time>2026-08-20T21:18:45Z</time></trkpt><trkpt lat="59.1043839511" lon="30.5091279186"><ele>301.99</ele><time>2026-08-20T21:18:46Z</time></trkpt><trkpt lat="59.1043853760" lon="30.5091410782"><ele>301.99</ele><time>2026-08-20T21:18:47Z</time></trkpt><trkpt lat="59.1043880582" lon="30.5091591831"><ele>301.99</ele><time>2026-08-20T21:18:48Z</time></trkpt><trkpt lat="59.1043891478" lon="30.5091805570"><ele>301.99</ele><time>2026-08-20T21:18:49Z</time></trkpt><trkpt lat="59.1043870524" lon="30.5091992486"><ele>301.99</ele><time>2026-08-20T21:18:50Z</time></trkpt><trkpt lat="59.1043851245" lon="30.5092180241"><ele>301.99</ele><time>2026-08-20T21:18:51Z</time></trkpt><trkpt lat="59.1043854598" lon="30.5092385598"><ele>301.99</ele><time>2026-08-20T21:18:52Z</time></trkpt><trkpt lat="59.1043854598" lon="30.5092613585"><ele>301.99</ele><time>2026-08-20T21:18:53Z</time></trkpt><trkpt lat="59.1043847892" lon="30.5092816427"><ele>301.99</ele><time>2026-08-20T21:18:54Z</time></trkpt><trkpt lat="59.1043856274" lon="30.5093014240"><ele>301.99</ele><time>2026-08-20T21:18:55Z</time></trkpt><trkpt lat="59.1043877229" lon="30.5093241390"><ele>301.99</ele><time>2026-08-20T21:18:56Z</time></trkpt><trkpt lat="59.1043909919" lon="30.5093503743"><ele>301.99</ele><time>2026-08-20T21:18:57Z</time></trkpt><trkpt lat="59.1043929197" lon="30.5093736760"><ele>301.99</ele><time>2026-08-20T21:18:58Z</time></trkpt><trkpt lat="59.1043927521" lon="30.5093908589"><ele>301.99</ele><time>2026-08-20T21:18:59Z</time></trkpt><trkpt lat="59.1043932550" lon="30.5094102211"><ele>301.99</ele><time>2026-08-20T21:19:00Z</time></trkpt><trkpt lat="59.1043956857" lon="30.5094286613"><ele>301.99</ele><time>2026-08-20T21:19:01Z</time></trkpt><trkpt lat="59.1044000443" lon="30.5094527174"><ele>301.99</ele><time>2026-08-20T21:19:02Z</time></trkpt><trkpt lat="59.1043976974" lon="30.5094714928"><ele>301.99</ele><time>2026-08-20T21:19:03Z</time></trkpt><trkpt lat="59.1043981165" lon="30.5094967224"><ele>301.99</ele><time>2026-08-20T21:19:04Z</time></trkpt><trkpt lat="59.1043951828" lon="30.5095129833"><ele>301.99</ele><time>2026-08-20T21:19:05Z</time></trkpt><trkpt lat="59.1043941770" lon="30.5095313396"><ele>301.99</ele><time>2026-08-20T21:19:06Z</time></trkpt><trkpt lat="59.1043931711" lon="30.5095509533"><ele>301.99</ele><time>2026-08-20T21:19:07Z</time></trkpt><trkpt lat="59.1043937579" lon="30.5095687229"><ele>301.99</ele><time>2026-08-20T21:19:08Z</time></trkpt><trkpt lat="59.1043925844" lon="30.5095859896"><ele>301.99</ele><time>2026-08-20T21:19:09Z</time></trkpt><trkpt lat="59.1043914948" lon="30.5095982272"><ele>301.99</ele><time>2026-08-20T21:19:10Z</time></trkpt><trkpt lat="59.1043917462" lon="30.5096089561"><ele>301.99</ele><time>2026-08-20T21:19:11Z</time></trkpt><trkpt lat="59.1043939255" lon="30.5096201878"><ele>301.99</ele><time>2026-08-20T21:19:12Z</time></trkpt><trkpt lat="59.1043990385" lon="30.5096402206"><ele>301.99</ele><time>2026-08-20T21:19:13Z</time></trkpt><trkpt lat="59.1043996252" lon="30.5096565653"><ele>301.99</ele><time>2026-08-20T21:19:14Z</time></trkpt><trkpt lat="59.1043976974" lon="30.5096681323"><ele>301.99</ele><time>2026-08-20T21:19:15Z</time></trkpt><trkpt lat="59.1043976974" lon="30.5096805375"><ele>301.99</ele><time>2026-08-20T21:19:16Z</time></trkpt><trkpt lat="59.1043981165" lon="30.5096938647"><ele>301.99</ele><time>2026-08-20T21:19:17Z</time></trkpt><trkpt lat="59.1043936741" lon="30.5097048450"><ele>301.99</ele><time>2026-08-20T21:19:18Z</time></trkpt><trkpt lat="59.1043910757" lon="30.5097121373"><ele>301.99</ele><time>2026-08-20T21:19:19Z</time></trkpt><trkpt lat="59.1043866333" lon="30.5097221956"><ele>301.99</ele><time>2026-08-20T21:19:20Z</time></trkpt><trkpt lat="59.1043805983" lon="30.5097320862"><ele>301.99</ele><time>2026-08-20T21:19:21Z</time></trkpt><trkpt lat="59.1043780837" lon="30.5097432341"><ele>301.99</ele><time>2026-08-20T21:19:22Z</time></trkpt><trkpt lat="59.1043764912" lon="30.5097610876"><ele>301.99</ele><time>2026-08-20T21:19:23Z</time></trkpt><trkpt lat="59.1043773293" lon="30.5097818747"><ele>301.99</ele><time>2026-08-20T21:19:24Z</time></trkpt><trkpt lat="59.1043795925" lon="30.5097967945"><ele>301.99</ele><time>2026-08-20T21:19:25Z</time></trkpt><trkpt lat="59.1043802630" lon="30.5098123848"><ele>301.99</ele><time>2026-08-20T21:19:26Z</time></trkpt><trkpt lat="59.1043824423" lon="30.5098213535"><ele>301.99</ele><time>2026-08-20T21:19:27Z</time></trkpt><trkpt lat="59.1043825261" lon="30.5098318309"><ele>301.99</ele><time>2026-08-20T21:19:28Z</time></trkpt><trkpt lat="59.1043821909" lon="30.5098430626"><ele>301.99</ele><time>2026-08-20T21:19:29Z</time></trkpt><trkpt lat="59.1043830290" lon="30.5098588206"><ele>301.99</ele><time>2026-08-20T21:19:30Z</time></trkpt><trkpt lat="59.1043844540" lon="30.5098771770"><ele>301.99</ele><time>2026-08-20T21:19:31Z</time></trkpt><trkpt lat="59.1043839511" lon="30.5098912586"><ele>301.99</ele><time>2026-08-20T21:19:32Z</time></trkpt><trkpt lat="59.1043798439" lon="30.5099032447"><ele>301.99</ele><time>2026-08-20T21:19:33Z</time></trkpt><trkpt lat="59.1043818556" lon="30.5099151470"><ele>302.47</ele><time>2026-08-20T21:19:34Z</time></trkpt><trkpt lat="59.1043799277" lon="30.5099232774"><ele>302.47</ele><time>2026-08-20T21:19:35Z</time></trkpt><trkpt lat="59.1043828614" lon="30.5099347606"><ele>302.47</ele><time>2026-08-20T21:19:36Z</time></trkpt><trkpt lat="59.1043853760" lon="30.5099430587"><ele>302.47</ele><time>2026-08-20T21:19:37Z</time></trkpt><trkpt lat="59.1043853760" lon="30.5099430587"><ele>302.47</ele><time>2026-08-20T21:19:38Z</time></trkpt><trkpt lat="59.1043855436" lon="30.5099512730"><ele>302.47</ele><time>2026-08-20T21:19:39Z</time></trkpt><trkpt lat="59.1043903213" lon="30.5099661928"><ele>302.47</ele><time>2026-08-20T21:19:40Z</time></trkpt><trkpt lat="59.1043911595" lon="30.5099814478"><ele>302.47</ele><time>2026-08-20T21:19:41Z</time></trkpt><trkpt lat="59.1043895669" lon="30.5099953618"><ele>302.47</ele><time>2026-08-20T21:19:42Z</time></trkpt><trkpt lat="59.1043907404" lon="30.5100061744"><ele>302.47</ele><time>2026-08-20T21:19:43Z</time></trkpt><trkpt lat="59.1043931711" lon="30.5100230221"><ele>302.47</ele><time>2026-08-20T21:19:44Z</time></trkpt><trkpt lat="59.1043944284" lon="30.5100396182"><ele>302.47</ele><time>2026-08-20T21:19:45Z</time></trkpt><trkpt lat="59.1043965239" lon="30.5100590643"><ele>302.47</ele><time>2026-08-20T21:19:46Z</time></trkpt><trkpt lat="59.1043998767" lon="30.5100804381"><ele>302.47</ele><time>2026-08-20T21:19:47Z</time></trkpt><trkpt lat="59.1044003796" lon="30.5100963637"><ele>301.99</ele><time>2026-08-20T21:19:48Z</time></trkpt><trkpt lat="59.1044000443" lon="30.5101126246"><ele>301.99</ele><time>2026-08-20T21:19:49Z</time></trkpt><trkpt lat="59.1044002958" lon="30.5101286341"><ele>301.99</ele><time>2026-08-20T21:19:50Z</time></trkpt><trkpt lat="59.1044018883" lon="30.5101319868"><ele>301.99</ele><time>2026-08-20T21:19:51Z</time></trkpt><trkpt lat="59.1044036485" lon="30.5101349205"><ele>301.99</ele><time>2026-08-20T21:19:52Z</time></trkpt><trkpt lat="59.1044048220" lon="30.5101396982"><ele>301.99</ele><time>2026-08-20T21:19:53Z</time></trkpt><trkpt lat="59.1044048220" lon="30.5101396982"><ele>301.99</ele><time>2026-08-20T21:19:54Z</time></trkpt><trkpt lat="59.1044048220" lon="30.5101396982"><ele>302.47</ele><time>2026-08-20T21:19:55Z</time></trkpt><trkpt lat="59.1044048220" lon="30.5101396982"><ele>302.47</ele><time>2026-08-20T21:19:56Z</time></trkpt><trkpt lat="59.1044048220" lon="30.5101396982"><ele>302.47</ele><time>2026-08-20T21:19:57Z</time></trkpt><trkpt lat="59.1044048220" lon="30.5101396982"><ele>302.47</ele><time>2026-08-20T21:19:58Z</time></trkpt><trkpt lat="59.1044048220" lon="30.5101396982"><ele>302.47</ele><time>2026-08-20T21:19:59Z</time></trkpt><trkpt lat="59.1044048220" lon="30.5101396982"><ele>302.47</ele><time>2026-08-20T21:20:00Z</time></trkpt><trkpt lat="59.1044056602" lon="30.5101069249"><ele>302.47</ele><time>2026-08-20T21:20:01Z</time></trkpt><trkpt lat="59.1044047382" lon="30.5100909993"><ele>302.47</ele><time>2026-08-20T21:20:02Z</time></trkpt><trkpt lat="59.1044037323" lon="30.5100723915"><ele>302.47</ele><time>2026-08-20T21:20:03Z</time></trkpt><trkpt lat="59.1044015530" lon="30.5100535322"><ele>302.47</ele><time>2026-08-20T21:20:04Z</time></trkpt><trkpt lat="59.1043997929" lon="30.5100404564"><ele>302.47</ele><time>2026-08-20T21:20:05Z</time></trkpt><trkpt lat="59.1044000443" lon="30.5100342538"><ele>302.47</ele><time>2026-08-20T21:20:06Z</time></trkpt><trkpt lat="59.1044008825" lon="30.5100279674"><ele>302.47</ele><time>2026-08-20T21:20:07Z</time></trkpt><trkpt lat="59.1043996252" lon="30.5100330804"><ele>302.47</ele><time>2026-08-20T21:20:08Z</time></trkpt><trkpt lat="59.1044001281" lon="30.5100319907"><ele>302.47</ele><time>2026-08-20T21:20:09Z</time></trkpt><trkpt lat="59.1044027265" lon="30.5100297276"><ele>302.47</ele><time>2026-08-20T21:20:10Z</time></trkpt><trkpt lat="59.1044027265" lon="30.5100297276"><ele>302.47</ele><time>2026-08-20T21:20:11Z</time></trkpt><trkpt lat="59.1044027265" lon="30.5100297276"><ele>302.47</ele><time>2026-08-20T21:20:12Z</time></trkpt><trkpt lat="59.1044027265" lon="30.5100297276"><ele>302.47</ele><time>2026-08-20T21:20:13Z</time></trkpt><trkpt lat="59.1044027265" lon="30.5100297276"><ele>301.99</ele><time>2026-08-20T21:20:14Z</time></trkpt><trkpt lat="59.1044027265" lon="30.5100297276"><ele>301.99</ele><time>2026-08-20T21:20:15Z</time></trkpt><trkpt lat="59.1044027265" lon="30.5100297276"><ele>301.99</ele><time>2026-08-20T21:20:16Z</time></trkpt><trkpt lat="59.1044027265" lon="30.5100297276"><ele>301.99</ele><time>2026-08-20T21:20:17Z</time></trkpt><trkpt lat="59.1044027265" lon="30.5100297276"><ele>301.99</ele><time>2026-08-20T21:20:18Z</time></trkpt><trkpt lat="59.1044027265" lon="30.5100297276"><ele>301.99</ele><time>2026-08-20T21:20:19Z</time></trkpt><trkpt lat="59.1044027265" lon="30.5100297276"><ele>301.99</ele><time>2026-08-20T21:20:20Z</time></trkpt><trkpt lat="59.1044027265" lon="30.5100297276"><ele>301.99</ele><time>2026-08-20T21:20:21Z</time></trkpt><trkpt lat="59.1044027265" lon="30.5100297276"><ele>301.99</ele><time>2026-08-20T21:20:22Z</time></trkpt><trkpt lat="59.1044027265" lon="30.5100297276"><ele>301.99</ele><time>2026-08-20T21:20:23Z</time></trkpt><trkpt lat="59.1044027265" lon="30.5100297276"><ele>301.99</ele><time>2026-08-20T21:20:24Z</time></trkpt><trkpt lat="59.1044027265" lon="30.5100297276"><ele>301.99</ele><time>2026-08-20T21:20:25Z</time></trkpt><trkpt lat="59.1044027265" lon="30.5100297276"><ele>301.99</ele><time>2026-08-20T21:20:26Z</time></trkpt><trkpt lat="59.1044027265" lon="30.5100297276"><ele>301.99</ele><time>2026-08-20T21:20:27Z</time></trkpt><trkpt lat="59.1044027265" lon="30.5100297276"><ele>301.99</ele><time>2026-08-20T21:20:28Z</time></trkpt><trkpt lat="59.1044027265" lon="30.5100297276"><ele>301.99</ele><time>2026-08-20T21:20:29Z</time></trkpt><trkpt lat="59.1044027265" lon="30.5100297276"><ele>301.99</ele><time>2026-08-20T21:20:30Z</time></trkpt><trkpt lat="59.1044027265" lon="30.5100297276"><ele>301.99</ele><time>2026-08-20T21:20:31Z</time></trkpt><trkpt lat="59.1044027265" lon="30.5100297276"><ele>301.99</ele><time>2026-08-20T21:20:32Z</time></trkpt><trkpt lat="59.1044027265" lon="30.5100297276"><ele>301.99</ele><time>2026-08-20T21:20:33Z</time></trkpt><trkpt lat="59.1044027265" lon="30.5100297276"><ele>301.99</ele><time>2026-08-20T21:20:34Z</time></trkpt><trkpt lat="59.1044027265" lon="30.5100297276"><ele>301.99</ele><time>2026-08-20T21:20:35Z</time></trkpt><trkpt lat="59.1044027265" lon="30.5100297276"><ele>301.99</ele><time>2026-08-20T21:20:36Z</time></trkpt><trkpt lat="59.1044027265" lon="30.5100297276"><ele>301.99</ele><time>2026-08-20T21:20:37Z</time></trkpt><trkpt lat="59.1044027265" lon="30.5100297276"><ele>301.99</ele><time>2026-08-20T21:20:38Z</time></trkpt><trkpt lat="59.1044027265" lon="30.5100297276"><ele>301.99</ele><time>2026-08-20T21:20:39Z</time></trkpt><trkpt lat="59.1044027265" lon="30.5100297276"><ele>301.99</ele><time>2026-08-20T21:20:40Z</time></trkpt><trkpt lat="59.1044027265" lon="30.5100297276"><ele>301.99</ele><time>2026-08-20T21:20:41Z</time></trkpt><trkpt lat="59.1044027265" lon="30.5100297276"><ele>302.47</ele><time>2026-08-20T21:20:42Z</time></trkpt><trkpt lat="59.1044027265" lon="30.5100297276"><ele>302.47</ele><time>2026-08-20T21:20:43Z</time></trkpt><trkpt lat="59.1044027265" lon="30.5100297276"><ele>302.47</ele><time>2026-08-20T21:20:44Z</time></trkpt><trkpt lat="59.1044027265" lon="30.5100297276"><ele>302.47</ele><time>2026-08-20T21:20:45Z</time></trkpt><trkpt lat="59.1044027265" lon="30.5100297276"><ele>302.47</ele><time>2026-08-20T21:20:46Z</time></trkpt><trkpt lat="59.1044027265" lon="30.5100297276"><ele>302.47</ele><time>2026-08-20T21:20:47Z</time></trkpt><trkpt lat="59.1044027265" lon="30.5100297276"><ele>302.47</ele><time>2026-08-20T21:20:48Z</time></trkpt><trkpt lat="59.1044027265" lon="30.5100297276"><ele>302.47</ele><time>2026-08-20T21:20:49Z</time></trkpt><trkpt lat="59.1044027265" lon="30.5100297276"><ele>302.47</ele><time>2026-08-20T21:20:50Z</time></trkpt><trkpt lat="59.1044027265" lon="30.5100297276"><ele>302.47</ele><time>2026-08-20T21:20:51Z</time></trkpt><trkpt lat="59.1044027265" lon="30.5100297276"><ele>302.47</ele><time>2026-08-20T21:20:52Z</time></trkpt><trkpt lat="59.1044027265" lon="30.5100297276"><ele>302.47</ele><time>2026-08-20T21:20:53Z</time></trkpt><trkpt lat="59.1044027265" lon="30.5100297276"><ele>302.47</ele><time>2026-08-20T21:20:54Z</time></trkpt><trkpt lat="59.1044027265" lon="30.5100297276"><ele>302.47</ele><time>2026-08-20T21:20:55Z</time></trkpt><trkpt lat="59.1044027265" lon="30.5100297276"><ele>302.47</ele><time>2026-08-20T21:20:56Z</time></trkpt><trkpt lat="59.1044027265" lon="30.5100297276"><ele>302.47</ele><time>2026-08-20T21:20:57Z</time></trkpt><trkpt lat="59.1044027265" lon="30.5100297276"><ele>302.47</ele><time>2026-08-20T21:20:58Z</time></trkpt><trkpt lat="59.1044027265" lon="30.5100297276"><ele>302.47</ele><time>2026-08-20T21:20:59Z</time></trkpt><trkpt lat="59.1044027265" lon="30.5100297276"><ele>302.47</ele><time>2026-08-20T21:21:00Z</time></trkpt><trkpt lat="59.1044027265" lon="30.5100297276"><ele>302.47</ele><time>2026-08-20T21:21:01Z</time></trkpt><trkpt lat="59.1044027265" lon="30.5100297276"><ele>302.47</ele><time>2026-08-20T21:21:02Z</time></trkpt><trkpt lat="59.1044027265" lon="30.5100297276"><ele>302.47</ele><time>2026-08-20T21:21:03Z</time></trkpt><trkpt lat="59.1044027265" lon="30.5100297276"><ele>302.47</ele><time>2026-08-20T21:21:04Z</time></trkpt><trkpt lat="59.1044027265" lon="30.5100297276"><ele>302.47</ele><time>2026-08-20T21:21:05Z</time></trkpt><trkpt lat="59.1044027265" lon="30.5100297276"><ele>302.47</ele><time>2026-08-20T21:21:06Z</time></trkpt><trkpt lat="59.1044027265" lon="30.5100297276"><ele>302.47</ele><time>2026-08-20T21:21:07Z</time></trkpt><trkpt lat="59.1044027265" lon="30.5100297276"><ele>302.47</ele><time>2026-08-20T21:21:08Z</time></trkpt><trkpt lat="59.1044027265" lon="30.5100297276"><ele>302.47</ele><time>2026-08-20T21:21:09Z</time></trkpt><trkpt lat="59.1044027265" lon="30.5100297276"><ele>302.47</ele><time>2026-08-20T21:21:10Z</time></trkpt><trkpt lat="59.1044027265" lon="30.5100297276"><ele>302.47</ele><time>2026-08-20T21:21:11Z</time></trkpt><trkpt lat="59.1044027265" lon="30.5100297276"><ele>302.47</ele><time>2026-08-20T21:21:12Z</time></trkpt><trkpt lat="59.1044027265" lon="30.5100297276"><ele>302.47</ele><time>2026-08-20T21:21:13Z</time></trkpt><trkpt lat="59.1044027265" lon="30.5100297276"><ele>302.47</ele><time>2026-08-20T21:21:14Z</time></trkpt><trkpt lat="59.1044027265" lon="30.5100297276"><ele>302.47</ele><time>2026-08-20T21:21:15Z</time></trkpt><trkpt lat="59.1044027265" lon="30.5100297276"><ele>302.47</ele><time>2026-08-20T21:21:16Z</time></trkpt><trkpt lat="59.1044027265" lon="30.5100297276"><ele>302.47</ele><time>2026-08-20T21:21:17Z</time></trkpt><trkpt lat="59.1044027265" lon="30.5100297276"><ele>302.47</ele><time>2026-08-20T21:21:18Z</time></trkpt><trkpt lat="59.1044027265" lon="30.5100297276"><ele>302.47</ele><time>2026-08-20T21:21:19Z</time></trkpt><trkpt lat="59.1044027265" lon="30.5100297276"><ele>302.47</ele><time>2026-08-20T21:21:20Z</time></trkpt><trkpt lat="59.1044027265" lon="30.5100297276"><ele>302.47</ele><time>2026-08-20T21:21:21Z</time></trkpt><trkpt lat="59.1044027265" lon="30.5100297276"><ele>302.47</ele><time>2026-08-20T21:21:22Z</time></trkpt><trkpt lat="59.1044027265" lon="30.5100297276"><ele>302.47</ele><time>2026-08-20T21:21:23Z</time></trkpt><trkpt lat="59.1044027265" lon="30.5100297276"><ele>302.47</ele><time>2026-08-20T21:21:24Z</time></trkpt><trkpt lat="59.1044027265" lon="30.5100297276"><ele>302.47</ele><time>2026-08-20T21:21:25Z</time></trkpt><trkpt lat="59.1044027265" lon="30.5100297276"><ele>302.47</ele><time>2026-08-20T21:21:26Z</time></trkpt><trkpt lat="59.1044027265" lon="30.5100297276"><ele>302.47</ele><time>2026-08-20T21:21:27Z</time></trkpt><trkpt lat="59.1044027265" lon="30.5100297276"><ele>302.47</ele><time>2026-08-20T21:21:28Z</time></trkpt><trkpt lat="59.1044027265" lon="30.5100297276"><ele>302.47</ele><time>2026-08-20T21:21:29Z</time></trkpt><trkpt lat="59.1044027265" lon="30.5100297276"><ele>302.47</ele><time>2026-08-20T21:21:30Z</time></trkpt><trkpt lat="59.1044027265" lon="30.5100297276"><ele>302.47</ele><time>2026-08-20T21:21:31Z</time></trkpt><trkpt lat="59.1044027265" lon="30.5100297276"><ele>302.47</ele><time>2026-08-20T21:21:32Z</time></trkpt><trkpt lat="59.1044027265" lon="30.5100297276"><ele>302.47</ele><time>2026-08-20T21:21:33Z</time></trkpt><trkpt lat="59.1044027265" lon="30.5100297276"><ele>302.47</ele><time>2026-08-20T21:21:34Z</time></trkpt><trkpt lat="59.1044027265" lon="30.5100297276"><ele>302.47</ele><time>2026-08-20T21:21:35Z</time></trkpt><trkpt lat="59.1044027265" lon="30.5100297276"><ele>302.47</ele><time>2026-08-20T21:21:36Z</time></trkpt><trkpt lat="59.1044027265" lon="30.5100297276"><ele>302.47</ele><time>2026-08-20T21:21:37Z</time></trkpt><trkpt lat="59.1044027265" lon="30.5100297276"><ele>301.99</ele><time>2026-08-20T21:21:38Z</time></trkpt><trkpt lat="59.1044027265" lon="30.5100297276"><ele>301.99</ele><time>2026-08-20T21:21:39Z</time></trkpt><trkpt lat="59.1044027265" lon="30.5100297276"><ele>301.99</ele><time>2026-08-20T21:21:40Z</time></trkpt><trkpt lat="59.1044027265" lon="30.5100297276"><ele>301.99</ele><time>2026-08-20T21:21:41Z</time></trkpt><trkpt lat="59.1044027265" lon="30.5100297276"><ele>301.99</ele><time>2026-08-20T21:21:42Z</time></trkpt><trkpt lat="59.1044027265" lon="30.5100297276"><ele>301.99</ele><time>2026-08-20T21:21:43Z</time></trkpt><trkpt lat="59.1044027265" lon="30.5100297276"><ele>301.99</ele><time>2026-08-20T21:21:44Z</time></trkpt><trkpt lat="59.1044120304" lon="30.5100519396"><ele>301.99</ele><time>2026-08-20T21:21:45Z</time></trkpt><trkpt lat="59.1044140421" lon="30.5100636743"><ele>301.99</ele><time>2026-08-20T21:21:46Z</time></trkpt><trkpt lat="59.1044150479" lon="30.5100848805"><ele>301.99</ele><time>2026-08-20T21:21:47Z</time></trkpt><trkpt lat="59.1044132877" lon="30.5101042427"><ele>301.99</ele><time>2026-08-20T21:21:48Z</time></trkpt><trkpt lat="59.1044144612" lon="30.5101195816"><ele>301.99</ele><time>2026-08-20T21:21:49Z</time></trkpt><trkpt lat="59.1044140421" lon="30.5101319868"><ele>301.99</ele><time>2026-08-20T21:21:50Z</time></trkpt><trkpt lat="59.1044148803" lon="30.5101483315"><ele>301.99</ele><time>2026-08-20T21:21:51Z</time></trkpt><trkpt lat="59.1044159699" lon="30.5101605691"><ele>301.99</ele><time>2026-08-20T21:21:52Z</time></trkpt><trkpt lat="59.1044161376" lon="30.5101749860"><ele>301.99</ele><time>2026-08-20T21:21:53Z</time></trkpt><trkpt lat="59.1044170596" lon="30.5101896543"><ele>301.99</ele><time>2026-08-20T21:21:54Z</time></trkpt><trkpt lat="59.1044158861" lon="30.5102046579"><ele>301.99</ele><time>2026-08-20T21:21:55Z</time></trkpt><trkpt lat="59.1044150479" lon="30.5102174822"><ele>301.99</ele><time>2026-08-20T21:21:56Z</time></trkpt><trkpt lat="59.1044158861" lon="30.5102328211"><ele>301.99</ele><time>2026-08-20T21:21:57Z</time></trkpt><trkpt lat="59.1044172272" lon="30.5102471542"><ele>301.99</ele><time>2026-08-20T21:21:58Z</time></trkpt><trkpt lat="59.1044239327" lon="30.5102638341"><ele>301.99</ele><time>2026-08-20T21:21:59Z</time></trkpt><trkpt lat="59.1044255253" lon="30.5102792569"><ele>301.99</ele><time>2026-08-20T21:22:00Z</time></trkpt><trkpt lat="59.1044262797" lon="30.5102946796"><ele>301.99</ele><time>2026-08-20T21:22:01Z</time></trkpt><trkpt lat="59.1044226754" lon="30.5103145447"><ele>301.99</ele><time>2026-08-20T21:22:02Z</time></trkpt><trkpt lat="59.1044264473" lon="30.5103334878"><ele>301.99</ele><time>2026-08-20T21:22:03Z</time></trkpt><trkpt lat="59.1044301353" lon="30.5103519280"><ele>301.99</ele><time>2026-08-20T21:22:04Z</time></trkpt><trkpt lat="59.1044301353" lon="30.5103702843"><ele>301.99</ele><time>2026-08-20T21:22:05Z</time></trkpt><trkpt lat="59.1044333205" lon="30.5103853717"><ele>301.99</ele><time>2026-08-20T21:22:06Z</time></trkpt><trkpt lat="59.1044348292" lon="30.5103989504"><ele>301.99</ele><time>2026-08-20T21:22:07Z</time></trkpt><trkpt lat="59.1044381820" lon="30.5104150437"><ele>301.99</ele><time>2026-08-20T21:22:08Z</time></trkpt><trkpt lat="59.1044382658" lon="30.5104306340"><ele>301.99</ele><time>2026-08-20T21:22:09Z</time></trkpt><trkpt lat="59.1044384334" lon="30.5104547739"><ele>301.99</ele><time>2026-08-20T21:22:10Z</time></trkpt><trkpt lat="59.1044390202" lon="30.5104744714"><ele>301.99</ele><time>2026-08-20T21:22:11Z</time></trkpt><trkpt lat="59.1044424567" lon="30.5104957614"><ele>301.99</ele><time>2026-08-20T21:22:12Z</time></trkpt><trkpt lat="59.1044456419" lon="30.5105156265"><ele>301.99</ele><time>2026-08-20T21:22:13Z</time></trkpt><trkpt lat="59.1044501681" lon="30.5105309654"><ele>301.99</ele><time>2026-08-20T21:22:14Z</time></trkpt><trkpt lat="59.1044524312" lon="30.5105467234"><ele>301.99</ele><time>2026-08-20T21:22:15Z</time></trkpt><trkpt lat="59.1044532694" lon="30.5105645768"><ele>301.99</ele><time>2026-08-20T21:22:16Z</time></trkpt><trkpt lat="59.1044515930" lon="30.5105802510"><ele>301.99</ele><time>2026-08-20T21:22:17Z</time></trkpt><trkpt lat="59.1044522636" lon="30.5105983559"><ele>301.99</ele><time>2026-08-20T21:22:18Z</time></trkpt><trkpt lat="59.1044515930" lon="30.5106191430"><ele>301.99</ele><time>2026-08-20T21:22:19Z</time></trkpt><trkpt lat="59.1044507548" lon="30.5106388405"><ele>301.99</ele><time>2026-08-20T21:22:20Z</time></trkpt><trkpt lat="59.1044509225" lon="30.5106567778"><ele>301.99</ele><time>2026-08-20T21:22:21Z</time></trkpt><trkpt lat="59.1044501681" lon="30.5106712785"><ele>301.99</ele><time>2026-08-20T21:22:22Z</time></trkpt><trkpt lat="59.1044480726" lon="30.5106876232"><ele>301.99</ele><time>2026-08-20T21:22:23Z</time></trkpt><trkpt lat="59.1044492461" lon="30.5107084941"><ele>301.99</ele><time>2026-08-20T21:22:24Z</time></trkpt><trkpt lat="59.1044490784" lon="30.5107282754"><ele>301.99</ele><time>2026-08-20T21:22:25Z</time></trkpt><trkpt lat="59.1044472344" lon="30.5107464641"><ele>301.99</ele><time>2026-08-20T21:22:26Z</time></trkpt><trkpt lat="59.1044449713" lon="30.5107663292"><ele>301.99</ele><time>2026-08-20T21:22:27Z</time></trkpt><trkpt lat="59.1044433787" lon="30.5107864458"><ele>301.99</ele><time>2026-08-20T21:22:28Z</time></trkpt><trkpt lat="59.1044442169" lon="30.5108088255"><ele>301.99</ele><time>2026-08-20T21:22:29Z</time></trkpt><trkpt lat="59.1044429597" lon="30.5108266789"><ele>301.99</ele><time>2026-08-20T21:22:30Z</time></trkpt><trkpt lat="59.1044433787" lon="30.5108466279"><ele>301.99</ele><time>2026-08-20T21:22:31Z</time></trkpt><trkpt lat="59.1044468991" lon="30.5108664930"><ele>301.99</ele><time>2026-08-20T21:22:32Z</time></trkpt><trkpt lat="59.1044508386" lon="30.5108813290"><ele>301.99</ele><time>2026-08-20T21:22:33Z</time></trkpt><trkpt lat="59.1044569574" lon="30.5108990986"><ele>301.99</ele><time>2026-08-20T21:22:34Z</time></trkpt><trkpt lat="59.1044631600" lon="30.5109155271"><ele>301.99</ele><time>2026-08-20T21:22:35Z</time></trkpt><trkpt lat="59.1044631600" lon="30.5109314527"><ele>301.99</ele><time>2026-08-20T21:22:36Z</time></trkpt><trkpt lat="59.1044599749" lon="30.5109523237"><ele>301.99</ele><time>2026-08-20T21:22:37Z</time></trkpt><trkpt lat="59.1044574603" lon="30.5109746195"><ele>301.99</ele><time>2026-08-20T21:22:38Z</time></trkpt><trkpt lat="59.1044553649" lon="30.5109909642"><ele>301.99</ele><time>2026-08-20T21:22:39Z</time></trkpt><trkpt lat="59.1044561192" lon="30.5110080633"><ele>301.99</ele><time>2026-08-20T21:22:40Z</time></trkpt><trkpt lat="59.1044581309" lon="30.5110250786"><ele>301.99</ele><time>2026-08-20T21:22:41Z</time></trkpt><trkpt lat="59.1044499166" lon="30.5110459495"><ele>301.99</ele><time>2026-08-20T21:22:42Z</time></trkpt><trkpt lat="59.1044489946" lon="30.5110556725"><ele>301.99</ele><time>2026-08-20T21:22:43Z</time></trkpt><trkpt lat="59.1044538561" lon="30.5110645574"><ele>301.99</ele><time>2026-08-20T21:22:44Z</time></trkpt><trkpt lat="59.1044538561" lon="30.5110645574"><ele>301.99</ele><time>2026-08-20T21:22:45Z</time></trkpt><trkpt lat="59.1044538561" lon="30.5110645574"><ele>301.99</ele><time>2026-08-20T21:22:46Z</time></trkpt><trkpt lat="59.1044538561" lon="30.5110645574"><ele>301.99</ele><time>2026-08-20T21:22:47Z</time></trkpt><trkpt lat="59.1044538561" lon="30.5110645574"><ele>301.99</ele><time>2026-08-20T21:22:48Z</time></trkpt><trkpt lat="59.1044538561" lon="30.5110645574"><ele>301.99</ele><time>2026-08-20T21:22:49Z</time></trkpt><trkpt lat="59.1044538561" lon="30.5110645574"><ele>301.99</ele><time>2026-08-20T21:22:50Z</time></trkpt><trkpt lat="59.1044552810" lon="30.5110931396"><ele>301.99</ele><time>2026-08-20T21:22:51Z</time></trkpt><trkpt lat="59.1044558678" lon="30.5111134239"><ele>301.99</ele><time>2026-08-20T21:22:52Z</time></trkpt><trkpt lat="59.1044566222" lon="30.5111336242"><ele>301.99</ele><time>2026-08-20T21:22:53Z</time></trkpt><trkpt lat="59.1044584662" lon="30.5111527350"><ele>301.99</ele><time>2026-08-20T21:22:54Z</time></trkpt><trkpt lat="59.1044577956" lon="30.5111704208"><ele>301.99</ele><time>2026-08-20T21:22:55Z</time></trkpt><trkpt lat="59.1044544429" lon="30.5111936387"><ele>301.99</ele><time>2026-08-20T21:22:56Z</time></trkpt><trkpt lat="59.1044543590" lon="30.5112113245"><ele>301.99</ele><time>2026-08-20T21:22:57Z</time></trkpt><trkpt lat="59.1044548620" lon="30.5112326983"><ele>301.99</ele><time>2026-08-20T21:22:58Z</time></trkpt><trkpt lat="59.1044570412" lon="30.5112493783"><ele>301.99</ele><time>2026-08-20T21:22:59Z</time></trkpt><trkpt lat="59.1044627409" lon="30.5112696625"><ele>301.99</ele><time>2026-08-20T21:23:00Z</time></trkpt><trkpt lat="59.1044676863" lon="30.5112879351"><ele>301.99</ele><time>2026-08-20T21:23:01Z</time></trkpt><trkpt lat="59.1044735536" lon="30.5113031901"><ele>301.99</ele><time>2026-08-20T21:23:02Z</time></trkpt><trkpt lat="59.1044761520" lon="30.5113212951"><ele>301.99</ele><time>2026-08-20T21:23:03Z</time></trkpt><trkpt lat="59.1044771578" lon="30.5113414954"><ele>301.51</ele><time>2026-08-20T21:23:04Z</time></trkpt><trkpt lat="59.1044810973" lon="30.5113571696"><ele>301.51</ele><time>2026-08-20T21:23:05Z</time></trkpt><trkpt lat="59.1044813488" lon="30.5113703292"><ele>301.51</ele><time>2026-08-20T21:23:06Z</time></trkpt><trkpt lat="59.1044826899" lon="30.5113820639"><ele>301.51</ele><time>2026-08-20T21:23:07Z</time></trkpt><trkpt lat="59.1044823546" lon="30.5113958940"><ele>301.51</ele><time>2026-08-20T21:23:08Z</time></trkpt><trkpt lat="59.1044845339" lon="30.5114080478"><ele>301.51</ele><time>2026-08-20T21:23:09Z</time></trkpt><trkpt lat="59.1044866294" lon="30.5114255659"><ele>301.51</ele><time>2026-08-20T21:23:10Z</time></trkpt><trkpt lat="59.1044863779" lon="30.5114398990"><ele>301.51</ele><time>2026-08-20T21:23:11Z</time></trkpt><trkpt lat="59.1044877190" lon="30.5114544835"><ele>301.51</ele><time>2026-08-20T21:23:12Z</time></trkpt><trkpt lat="59.1044899821" lon="30.5114674754"><ele>301.51</ele><time>2026-08-20T21:23:13Z</time></trkpt><trkpt lat="59.1044909880" lon="30.5114847422"><ele>301.51</ele><time>2026-08-20T21:23:14Z</time></trkpt><trkpt lat="59.1044932511" lon="30.5115019251"><ele>301.51</ele><time>2026-08-20T21:23:15Z</time></trkpt><trkpt lat="59.1044922452" lon="30.5115218740"><ele>301.51</ele><time>2026-08-20T21:23:16Z</time></trkpt><trkpt lat="59.1044901498" lon="30.5115426611"><ele>301.51</ele><time>2026-08-20T21:23:17Z</time></trkpt><trkpt lat="59.1044886410" lon="30.5115651246"><ele>301.51</ele><time>2026-08-20T21:23:18Z</time></trkpt><trkpt lat="59.1044870485" lon="30.5115892645"><ele>301.51</ele><time>2026-08-20T21:23:19Z</time></trkpt><trkpt lat="59.1044834442" lon="30.5116131529"><ele>301.51</ele><time>2026-08-20T21:23:20Z</time></trkpt><trkpt lat="59.1044810973" lon="30.5116370413"><ele>301.51</ele><time>2026-08-20T21:23:21Z</time></trkpt><trkpt lat="59.1044792533" lon="30.5116581637"><ele>301.51</ele><time>2026-08-20T21:23:22Z</time></trkpt><trkpt lat="59.1044764873" lon="30.5116819683"><ele>301.51</ele><time>2026-08-20T21:23:23Z</time></trkpt><trkpt lat="59.1044772416" lon="30.5117024202"><ele>301.51</ele><time>2026-08-20T21:23:24Z</time></trkpt><trkpt lat="59.1044769902" lon="30.5117147416"><ele>301.51</ele><time>2026-08-20T21:23:25Z</time></trkpt><trkpt lat="59.1044733860" lon="30.5117195193"><ele>301.51</ele><time>2026-08-20T21:23:26Z</time></trkpt><trkpt lat="59.1044749785" lon="30.5117271468"><ele>301.51</ele><time>2026-08-20T21:23:27Z</time></trkpt><trkpt lat="59.1044749785" lon="30.5117271468"><ele>301.51</ele><time>2026-08-20T21:23:28Z</time></trkpt><trkpt lat="59.1044794209" lon="30.5117534660"><ele>301.51</ele><time>2026-08-20T21:23:29Z</time></trkpt><trkpt lat="59.1044810973" lon="30.5117730796"><ele>301.51</ele><time>2026-08-20T21:23:30Z</time></trkpt><trkpt lat="59.1044848692" lon="30.5117906816"><ele>301.51</ele><time>2026-08-20T21:23:31Z</time></trkpt><trkpt lat="59.1044859588" lon="30.5118124746"><ele>301.51</ele><time>2026-08-20T21:23:32Z</time></trkpt><trkpt lat="59.1044851206" lon="30.5118362792"><ele>301.51</ele><time>2026-08-20T21:23:33Z</time></trkpt><trkpt lat="59.1044866294" lon="30.5118572339"><ele>301.51</ele><time>2026-08-20T21:23:34Z</time></trkpt><trkpt lat="59.1044852883" lon="30.5118820444"><ele>301.51</ele><time>2026-08-20T21:23:35Z</time></trkpt><trkpt lat="59.1044848692" lon="30.5119057652"><ele>301.51</ele><time>2026-08-20T21:23:36Z</time></trkpt><trkpt lat="59.1044889763" lon="30.5119247921"><ele>301.51</ele><time>2026-08-20T21:23:37Z</time></trkpt><trkpt lat="59.1044895630" lon="30.5119507760"><ele>301.51</ele><time>2026-08-20T21:23:38Z</time></trkpt><trkpt lat="59.1044897307" lon="30.5119743291"><ele>301.51</ele><time>2026-08-20T21:23:39Z</time></trkpt><trkpt lat="59.1044902336" lon="30.5119953677"><ele>301.51</ele><time>2026-08-20T21:23:40Z</time></trkpt><trkpt lat="59.1044913232" lon="30.5120182503"><ele>301.51</ele><time>2026-08-20T21:23:41Z</time></trkpt><trkpt lat="59.1044901498" lon="30.5120398756"><ele>301.51</ele><time>2026-08-20T21:23:42Z</time></trkpt><trkpt lat="59.1044879705" lon="30.5120594893"><ele>301.51</ele><time>2026-08-20T21:23:43Z</time></trkpt><trkpt lat="59.1044912394" lon="30.5120723974"><ele>301.51</ele><time>2026-08-20T21:23:44Z</time></trkpt><trkpt lat="59.1044970229" lon="30.5120837968"><ele>301.51</ele><time>2026-08-20T21:23:45Z</time></trkpt><trkpt lat="59.1044991184" lon="30.5120939389"><ele>301.51</ele><time>2026-08-20T21:23:46Z</time></trkpt><trkpt lat="59.1045015492" lon="30.5121085234"><ele>301.51</ele><time>2026-08-20T21:23:47Z</time></trkpt><trkpt lat="59.1044989508" lon="30.5121229403"><ele>301.51</ele><time>2026-08-20T21:23:48Z</time></trkpt><trkpt lat="59.1044964362" lon="30.5121422186"><ele>301.51</ele><time>2026-08-20T21:23:49Z</time></trkpt><trkpt lat="59.1044964362" lon="30.5121582281"><ele>301.51</ele><time>2026-08-20T21:23:50Z</time></trkpt><trkpt lat="59.1044970229" lon="30.5121759977"><ele>301.51</ele><time>2026-08-20T21:23:51Z</time></trkpt><trkpt lat="59.1044959333" lon="30.5121931806"><ele>301.51</ele><time>2026-08-20T21:23:52Z</time></trkpt><trkpt lat="59.1044965200" lon="30.5122093577"><ele>301.51</ele><time>2026-08-20T21:23:53Z</time></trkpt><trkpt lat="59.1044952627" lon="30.5122301448"><ele>301.51</ele><time>2026-08-20T21:23:54Z</time></trkpt><trkpt lat="59.1044957656" lon="30.5122550391"><ele>301.51</ele><time>2026-08-20T21:23:55Z</time></trkpt><trkpt lat="59.1045009624" lon="30.5122732278"><ele>301.51</ele><time>2026-08-20T21:23:56Z</time></trkpt><trkpt lat="59.1045071650" lon="30.5122906622"><ele>301.51</ele><time>2026-08-20T21:23:57Z</time></trkpt><trkpt lat="59.1045128647" lon="30.5123001337"><ele>301.51</ele><time>2026-08-20T21:23:58Z</time></trkpt><trkpt lat="59.1045132838" lon="30.5123068392"><ele>301.51</ele><time>2026-08-20T21:23:59Z</time></trkpt><trkpt lat="59.1045173910" lon="30.5123141315"><ele>301.51</ele><time>2026-08-20T21:24:00Z</time></trkpt><trkpt lat="59.1045208275" lon="30.5123234354"><ele>301.51</ele><time>2026-08-20T21:24:01Z</time></trkpt><trkpt lat="59.1045238450" lon="30.5123351701"><ele>301.51</ele><time>2026-08-20T21:24:02Z</time></trkpt><trkpt lat="59.1045240965" lon="30.5123475753"><ele>301.51</ele><time>2026-08-20T21:24:03Z</time></trkpt><trkpt lat="59.1045244318" lon="30.5123697873"><ele>301.51</ele><time>2026-08-20T21:24:04Z</time></trkpt><trkpt lat="59.1045237612" lon="30.5123906583"><ele>301.51</ele><time>2026-08-20T21:24:05Z</time></trkpt><trkpt lat="59.1045260243" lon="30.5124100205"><ele>301.51</ele><time>2026-08-20T21:24:06Z</time></trkpt><trkpt lat="59.1045286227" lon="30.5124258623"><ele>301.51</ele><time>2026-08-20T21:24:07Z</time></trkpt><trkpt lat="59.1045309696" lon="30.5124420393"><ele>301.51</ele><time>2026-08-20T21:24:08Z</time></trkpt><trkpt lat="59.1045326460" lon="30.5124628264"><ele>301.51</ele><time>2026-08-20T21:24:09Z</time></trkpt><trkpt lat="59.1045309696" lon="30.5124815181"><ele>301.51</ele><time>2026-08-20T21:24:10Z</time></trkpt><trkpt lat="59.1045306344" lon="30.5125023890"><ele>301.51</ele><time>2026-08-20T21:24:11Z</time></trkpt><trkpt lat="59.1045307182" lon="30.5125254393"><ele>301.51</ele><time>2026-08-20T21:24:12Z</time></trkpt><trkpt lat="59.1045291256" lon="30.5125461426"><ele>301.51</ele><time>2026-08-20T21:24:13Z</time></trkpt><trkpt lat="59.1045296285" lon="30.5125661753"><ele>301.51</ele><time>2026-08-20T21:24:14Z</time></trkpt><trkpt lat="59.1045341548" lon="30.5125837773"><ele>301.51</ele><time>2026-08-20T21:24:15Z</time></trkpt><trkpt lat="59.1045377590" lon="30.5126009602"><ele>301.51</ele><time>2026-08-20T21:24:16Z</time></trkpt><trkpt lat="59.1045403574" lon="30.5126176402"><ele>301.51</ele><time>2026-08-20T21:24:17Z</time></trkpt><trkpt lat="59.1045447998" lon="30.5126270279"><ele>301.51</ele><time>2026-08-20T21:24:18Z</time></trkpt><trkpt lat="59.1045470629" lon="30.5126323923"><ele>301.51</ele><time>2026-08-20T21:24:19Z</time></trkpt><trkpt lat="59.1045508347" lon="30.5126331467"><ele>301.51</ele><time>2026-08-20T21:24:20Z</time></trkpt><trkpt lat="59.1045508347" lon="30.5126331467"><ele>301.51</ele><time>2026-08-20T21:24:21Z</time></trkpt><trkpt lat="59.1045508347" lon="30.5126331467"><ele>301.51</ele><time>2026-08-20T21:24:22Z</time></trkpt><trkpt lat="59.1045508347" lon="30.5126331467"><ele>301.51</ele><time>2026-08-20T21:24:23Z</time></trkpt><trkpt lat="59.1045508347" lon="30.5126331467"><ele>301.51</ele><time>2026-08-20T21:24:24Z</time></trkpt><trkpt lat="59.1045508347" lon="30.5126331467"><ele>301.51</ele><time>2026-08-20T21:24:25Z</time></trkpt><trkpt lat="59.1045508347" lon="30.5126331467"><ele>301.51</ele><time>2026-08-20T21:24:26Z</time></trkpt><trkpt lat="59.1045508347" lon="30.5126331467"><ele>301.51</ele><time>2026-08-20T21:24:27Z</time></trkpt><trkpt lat="59.1045508347" lon="30.5126331467"><ele>301.51</ele><time>2026-08-20T21:24:28Z</time></trkpt><trkpt lat="59.1045508347" lon="30.5126331467"><ele>301.03</ele><time>2026-08-20T21:24:29Z</time></trkpt><trkpt lat="59.1045508347" lon="30.5126331467"><ele>301.03</ele><time>2026-08-20T21:24:30Z</time></trkpt><trkpt lat="59.1045508347" lon="30.5126331467"><ele>301.03</ele><time>2026-08-20T21:24:31Z</time></trkpt><trkpt lat="59.1045508347" lon="30.5126331467"><ele>301.03</ele><time>2026-08-20T21:24:32Z</time></trkpt><trkpt lat="59.1045508347" lon="30.5126331467"><ele>301.03</ele><time>2026-08-20T21:24:33Z</time></trkpt><trkpt lat="59.1045508347" lon="30.5126331467"><ele>301.03</ele><time>2026-08-20T21:24:34Z</time></trkpt><trkpt lat="59.1045508347" lon="30.5126331467"><ele>301.03</ele><time>2026-08-20T21:24:35Z</time></trkpt><trkpt lat="59.1045508347" lon="30.5126331467"><ele>301.03</ele><time>2026-08-20T21:24:36Z</time></trkpt><trkpt lat="59.1045508347" lon="30.5126331467"><ele>301.03</ele><time>2026-08-20T21:24:37Z</time></trkpt><trkpt lat="59.1045508347" lon="30.5126331467"><ele>301.03</ele><time>2026-08-20T21:24:38Z</time></trkpt><trkpt lat="59.1045508347" lon="30.5126331467"><ele>301.03</ele><time>2026-08-20T21:24:39Z</time></trkpt><trkpt lat="59.1045508347" lon="30.5126331467"><ele>301.03</ele><time>2026-08-20T21:24:40Z</time></trkpt><trkpt lat="59.1045508347" lon="30.5126331467"><ele>301.03</ele><time>2026-08-20T21:24:41Z</time></trkpt><trkpt lat="59.1045508347" lon="30.5126331467"><ele>301.03</ele><time>2026-08-20T21:24:42Z</time></trkpt><trkpt lat="59.1045508347" lon="30.5126331467"><ele>301.03</ele><time>2026-08-20T21:24:43Z</time></trkpt><trkpt lat="59.1045508347" lon="30.5126331467"><ele>301.03</ele><time>2026-08-20T21:24:44Z</time></trkpt><trkpt lat="59.1045508347" lon="30.5126331467"><ele>301.03</ele><time>2026-08-20T21:24:45Z</time></trkpt><trkpt lat="59.1045508347" lon="30.5126331467"><ele>301.03</ele><time>2026-08-20T21:24:46Z</time></trkpt><trkpt lat="59.1045508347" lon="30.5126331467"><ele>301.03</ele><time>2026-08-20T21:24:47Z</time></trkpt><trkpt lat="59.1045508347" lon="30.5126331467"><ele>301.03</ele><time>2026-08-20T21:24:48Z</time></trkpt><trkpt lat="59.1045508347" lon="30.5126331467"><ele>301.03</ele><time>2026-08-20T21:24:49Z</time></trkpt><trkpt lat="59.1045508347" lon="30.5126331467"><ele>301.03</ele><time>2026-08-20T21:24:50Z</time></trkpt><trkpt lat="59.1045508347" lon="30.5126331467"><ele>301.03</ele><time>2026-08-20T21:24:51Z</time></trkpt><trkpt lat="59.1045508347" lon="30.5126331467"><ele>301.03</ele><time>2026-08-20T21:24:52Z</time></trkpt><trkpt lat="59.1045508347" lon="30.5126331467"><ele>301.03</ele><time>2026-08-20T21:24:53Z</time></trkpt><trkpt lat="59.1045508347" lon="30.5126331467"><ele>301.03</ele><time>2026-08-20T21:24:54Z</time></trkpt><trkpt lat="59.1045508347" lon="30.5126331467"><ele>301.03</ele><time>2026-08-20T21:24:55Z</time></trkpt><trkpt lat="59.1045508347" lon="30.5126331467"><ele>301.03</ele><time>2026-08-20T21:24:56Z</time></trkpt><trkpt lat="59.1045508347" lon="30.5126331467"><ele>301.03</ele><time>2026-08-20T21:24:57Z</time></trkpt><trkpt lat="59.1045508347" lon="30.5126331467"><ele>301.03</ele><time>2026-08-20T21:24:58Z</time></trkpt><trkpt lat="59.1045508347" lon="30.5126331467"><ele>301.03</ele><time>2026-08-20T21:24:59Z</time></trkpt><trkpt lat="59.1045508347" lon="30.5126331467"><ele>301.03</ele><time>2026-08-20T21:25:00Z</time></trkpt><trkpt lat="59.1045508347" lon="30.5126331467"><ele>301.03</ele><time>2026-08-20T21:25:01Z</time></trkpt><trkpt lat="59.1045508347" lon="30.5126331467"><ele>301.03</ele><time>2026-08-20T21:25:02Z</time></trkpt><trkpt lat="59.1045508347" lon="30.5126331467"><ele>301.03</ele><time>2026-08-20T21:25:03Z</time></trkpt><trkpt lat="59.1045508347" lon="30.5126331467"><ele>301.03</ele><time>2026-08-20T21:25:04Z</time></trkpt><trkpt lat="59.1045508347" lon="30.5126331467"><ele>301.03</ele><time>2026-08-20T21:25:05Z</time></trkpt><trkpt lat="59.1045508347" lon="30.5126331467"><ele>301.03</ele><time>2026-08-20T21:25:06Z</time></trkpt><trkpt lat="59.1045508347" lon="30.5126331467"><ele>301.03</ele><time>2026-08-20T21:25:07Z</time></trkpt><trkpt lat="59.1045508347" lon="30.5126331467"><ele>301.03</ele><time>2026-08-20T21:25:08Z</time></trkpt><trkpt lat="59.1045508347" lon="30.5126331467"><ele>301.03</ele><time>2026-08-20T21:25:09Z</time></trkpt><trkpt lat="59.1045508347" lon="30.5126331467"><ele>301.03</ele><time>2026-08-20T21:25:10Z</time></trkpt><trkpt lat="59.1045508347" lon="30.5126331467"><ele>301.03</ele><time>2026-08-20T21:25:11Z</time></trkpt><trkpt lat="59.1045508347" lon="30.5126331467"><ele>301.03</ele><time>2026-08-20T21:25:12Z</time></trkpt><trkpt lat="59.1045508347" lon="30.5126331467"><ele>301.03</ele><time>2026-08-20T21:25:13Z</time></trkpt><trkpt lat="59.1045508347" lon="30.5126331467"><ele>301.03</ele><time>2026-08-20T21:25:14Z</time></trkpt><trkpt lat="59.1045508347" lon="30.5126331467"><ele>301.03</ele><time>2026-08-20T21:25:15Z</time></trkpt><trkpt lat="59.1045508347" lon="30.5126331467"><ele>301.03</ele><time>2026-08-20T21:25:16Z</time></trkpt><trkpt lat="59.1045508347" lon="30.5126331467"><ele>301.03</ele><time>2026-08-20T21:25:17Z</time></trkpt><trkpt lat="59.1045508347" lon="30.5126331467"><ele>301.03</ele><time>2026-08-20T21:25:18Z</time></trkpt><trkpt lat="59.1045508347" lon="30.5126331467"><ele>301.03</ele><time>2026-08-20T21:25:19Z</time></trkpt><trkpt lat="59.1045508347" lon="30.5126331467"><ele>301.03</ele><time>2026-08-20T21:25:20Z</time></trkpt><trkpt lat="59.1045508347" lon="30.5126331467"><ele>301.03</ele><time>2026-08-20T21:25:21Z</time></trkpt><trkpt lat="59.1045508347" lon="30.5126331467"><ele>301.03</ele><time>2026-08-20T21:25:22Z</time></trkpt><trkpt lat="59.1045508347" lon="30.5126331467"><ele>301.03</ele><time>2026-08-20T21:25:23Z</time></trkpt><trkpt lat="59.1045508347" lon="30.5126331467"><ele>301.03</ele><time>2026-08-20T21:25:24Z</time></trkpt><trkpt lat="59.1045508347" lon="30.5126331467"><ele>301.03</ele><time>2026-08-20T21:25:25Z</time></trkpt><trkpt lat="59.1045508347" lon="30.5126331467"><ele>301.03</ele><time>2026-08-20T21:25:26Z</time></trkpt><trkpt lat="59.1045508347" lon="30.5126331467"><ele>301.03</ele><time>2026-08-20T21:25:27Z</time></trkpt><trkpt lat="59.1045508347" lon="30.5126331467"><ele>301.03</ele><time>2026-08-20T21:25:28Z</time></trkpt><trkpt lat="59.1045508347" lon="30.5126331467"><ele>301.03</ele><time>2026-08-20T21:25:29Z</time></trkpt><trkpt lat="59.1045507509" lon="30.5126764812"><ele>301.03</ele><time>2026-08-20T21:25:30Z</time></trkpt><trkpt lat="59.1045529302" lon="30.5126867909"><ele>301.03</ele><time>2026-08-20T21:25:31Z</time></trkpt><trkpt lat="59.1045540199" lon="30.5127010401"><ele>301.03</ele><time>2026-08-20T21:25:32Z</time></trkpt><trkpt lat="59.1045548581" lon="30.5127131939"><ele>301.03</ele><time>2026-08-20T21:25:33Z</time></trkpt><trkpt lat="59.1045591328" lon="30.5127258506"><ele>301.03</ele><time>2026-08-20T21:25:34Z</time></trkpt><trkpt lat="59.1045597196" lon="30.5127397645"><ele>301.03</ele><time>2026-08-20T21:25:35Z</time></trkpt><trkpt lat="59.1045608930" lon="30.5127546843"><ele>301.03</ele><time>2026-08-20T21:25:36Z</time></trkpt><trkpt lat="59.1045638267" lon="30.5127683468"><ele>301.03</ele><time>2026-08-20T21:25:37Z</time></trkpt><trkpt lat="59.1045667604" lon="30.5127866194"><ele>301.03</ele><time>2026-08-20T21:25:38Z</time></trkpt><trkpt lat="59.1045682691" lon="30.5128053948"><ele>301.03</ele><time>2026-08-20T21:25:39Z</time></trkpt><trkpt lat="59.1045710351" lon="30.5128212366"><ele>301.03</ele><time>2026-08-20T21:25:40Z</time></trkpt><trkpt lat="59.1045724601" lon="30.5128366593"><ele>301.03</ele><time>2026-08-20T21:25:41Z</time></trkpt><trkpt lat="59.1045753937" lon="30.5128494836"><ele>301.03</ele><time>2026-08-20T21:25:42Z</time></trkpt><trkpt lat="59.1045767348" lon="30.5128645711"><ele>301.03</ele><time>2026-08-20T21:25:43Z</time></trkpt><trkpt lat="59.1045759805" lon="30.5128844362"><ele>301.03</ele><time>2026-08-20T21:25:44Z</time></trkpt><trkpt lat="59.1045764834" lon="30.5129072350"><ele>301.03</ele><time>2026-08-20T21:25:45Z</time></trkpt><trkpt lat="59.1045764834" lon="30.5129248369"><ele>301.03</ele><time>2026-08-20T21:25:46Z</time></trkpt><trkpt lat="59.1045790818" lon="30.5129411817"><ele>301.03</ele><time>2026-08-20T21:25:47Z</time></trkpt><trkpt lat="59.1045813449" lon="30.5129574426"><ele>301.03</ele><time>2026-08-20T21:25:48Z</time></trkpt><trkpt lat="59.1045842785" lon="30.5129711889"><ele>301.03</ele><time>2026-08-20T21:25:49Z</time></trkpt><trkpt lat="59.1045960970" lon="30.5129786488"><ele>301.03</ele><time>2026-08-20T21:25:50Z</time></trkpt><trkpt lat="59.1045997851" lon="30.5129932333"><ele>301.03</ele><time>2026-08-20T21:25:51Z</time></trkpt><trkpt lat="59.1046013776" lon="30.5130101647"><ele>301.03</ele><time>2026-08-20T21:25:52Z</time></trkpt><trkpt lat="59.1046024673" lon="30.5130331311"><ele>301.03</ele><time>2026-08-20T21:25:53Z</time></trkpt><trkpt lat="59.1046040598" lon="30.5130556785"><ele>301.03</ele><time>2026-08-20T21:25:54Z</time></trkpt><trkpt lat="59.1046038922" lon="30.5130783934"><ele>301.03</ele><time>2026-08-20T21:25:55Z</time></trkpt><trkpt lat="59.1046048980" lon="30.5130978394"><ele>301.03</ele><time>2026-08-20T21:25:56Z</time></trkpt><trkpt lat="59.1046058200" lon="30.5131150223"><ele>301.03</ele><time>2026-08-20T21:25:57Z</time></trkpt><trkpt lat="59.1046052333" lon="30.5131423473"><ele>301.03</ele><time>2026-08-20T21:25:58Z</time></trkpt><trkpt lat="59.1046037246" lon="30.5131593626"><ele>301.03</ele><time>2026-08-20T21:25:59Z</time></trkpt><trkpt lat="59.1045998689" lon="30.5131756235"><ele>301.03</ele><time>2026-08-20T21:26:00Z</time></trkpt><trkpt lat="59.1045992821" lon="30.5131916329"><ele>301.03</ele><time>2026-08-20T21:26:01Z</time></trkpt><trkpt lat="59.1045996174" lon="30.5132076424"><ele>301.03</ele><time>2026-08-20T21:26:02Z</time></trkpt><trkpt lat="59.1045973543" lon="30.5132318661"><ele>301.03</ele><time>2026-08-20T21:26:03Z</time></trkpt><trkpt lat="59.1045986954" lon="30.5132563412"><ele>301.03</ele><time>2026-08-20T21:26:04Z</time></trkpt><trkpt lat="59.1046017967" lon="30.5132747814"><ele>301.03</ele><time>2026-08-20T21:26:05Z</time></trkpt><trkpt lat="59.1046072450" lon="30.5132931378"><ele>301.03</ele><time>2026-08-20T21:26:06Z</time></trkpt><trkpt lat="59.1046112683" lon="30.5133088958"><ele>301.03</ele><time>2026-08-20T21:26:07Z</time></trkpt><trkpt lat="59.1046145372" lon="30.5133242346"><ele>301.03</ele><time>2026-08-20T21:26:08Z</time></trkpt><trkpt lat="59.1046181414" lon="30.5133430939"><ele>301.03</ele><time>2026-08-20T21:26:09Z</time></trkpt><trkpt lat="59.1046233382" lon="30.5133671500"><ele>301.03</ele><time>2026-08-20T21:26:10Z</time></trkpt><trkpt lat="59.1046268586" lon="30.5133959837"><ele>301.03</ele><time>2026-08-20T21:26:11Z</time></trkpt><trkpt lat="59.1046284512" lon="30.5134239793"><ele>301.03</ele><time>2026-08-20T21:26:12Z</time></trkpt><trkpt lat="59.1046306305" lon="30.5134504661"><ele>301.03</ele><time>2026-08-20T21:26:13Z</time></trkpt><trkpt lat="59.1046333965" lon="30.5134702474"><ele>301.03</ele><time>2026-08-20T21:26:14Z</time></trkpt><trkpt lat="59.1046331450" lon="30.5134875979"><ele>301.03</ele><time>2026-08-20T21:26:15Z</time></trkpt><trkpt lat="59.1046339832" lon="30.5135081336"><ele>301.03</ele><time>2026-08-20T21:26:16Z</time></trkpt><trkpt lat="59.1046331450" lon="30.5135290883"><ele>301.03</ele><time>2026-08-20T21:26:17Z</time></trkpt><trkpt lat="59.1046336479" lon="30.5135531444"><ele>301.03</ele><time>2026-08-20T21:26:18Z</time></trkpt><trkpt lat="59.1046346538" lon="30.5135777872"><ele>301.03</ele><time>2026-08-20T21:26:19Z</time></trkpt><trkpt lat="59.1046348214" lon="30.5136026815"><ele>301.03</ele><time>2026-08-20T21:26:20Z</time></trkpt><trkpt lat="59.1046366654" lon="30.5136275757"><ele>301.03</ele><time>2026-08-20T21:26:21Z</time></trkpt><trkpt lat="59.1046376713" lon="30.5136520509"><ele>301.03</ele><time>2026-08-20T21:26:22Z</time></trkpt><trkpt lat="59.1046394315" lon="30.5136722513"><ele>301.03</ele><time>2026-08-20T21:26:23Z</time></trkpt><trkpt lat="59.1046426166" lon="30.5136951338"><ele>301.03</ele><time>2026-08-20T21:26:24Z</time></trkpt><trkpt lat="59.1046451312" lon="30.5137160886"><ele>301.03</ele><time>2026-08-20T21:26:25Z</time></trkpt><trkpt lat="59.1046487354" lon="30.5137335230"><ele>301.03</ele><time>2026-08-20T21:26:26Z</time></trkpt><trkpt lat="59.1046509985" lon="30.5137532204"><ele>301.03</ele><time>2026-08-20T21:26:27Z</time></trkpt><trkpt lat="59.1046517529" lon="30.5137760192"><ele>301.03</ele><time>2026-08-20T21:26:28Z</time></trkpt><trkpt lat="59.1046541836" lon="30.5137981474"><ele>301.03</ele><time>2026-08-20T21:26:29Z</time></trkpt><trkpt lat="59.1046539322" lon="30.5138234608"><ele>301.03</ele><time>2026-08-20T21:26:30Z</time></trkpt><trkpt lat="59.1046526749" lon="30.5138434935"><ele>301.03</ele><time>2026-08-20T21:26:31Z</time></trkpt><trkpt lat="59.1046519205" lon="30.5138592515"><ele>301.03</ele><time>2026-08-20T21:26:32Z</time></trkpt><trkpt lat="59.1046515852" lon="30.5138768535"><ele>301.03</ele><time>2026-08-20T21:26:33Z</time></trkpt><trkpt lat="59.1046520881" lon="30.5138959642"><ele>301.03</ele><time>2026-08-20T21:26:34Z</time></trkpt><trkpt lat="59.1046531778" lon="30.5139167514"><ele>301.03</ele><time>2026-08-20T21:26:35Z</time></trkpt><trkpt lat="59.1046592966" lon="30.5139388796"><ele>301.03</ele><time>2026-08-20T21:26:36Z</time></trkpt><trkpt lat="59.1046609730" lon="30.5139696412"><ele>301.03</ele><time>2026-08-20T21:26:37Z</time></trkpt><trkpt lat="59.1046655830" lon="30.5139925238"><ele>301.03</ele><time>2026-08-20T21:26:38Z</time></trkpt><trkpt lat="59.1046689358" lon="30.5140129756"><ele>301.03</ele><time>2026-08-20T21:26:39Z</time></trkpt><trkpt lat="59.1046728753" lon="30.5140365288"><ele>301.03</ele><time>2026-08-20T21:26:40Z</time></trkpt><trkpt lat="59.1046764795" lon="30.5140569806"><ele>301.03</ele><time>2026-08-20T21:26:41Z</time></trkpt><trkpt lat="59.1046788264" lon="30.5140760913"><ele>301.03</ele><time>2026-08-20T21:26:42Z</time></trkpt><trkpt lat="59.1046770662" lon="30.5140959565"><ele>301.03</ele><time>2026-08-20T21:26:43Z</time></trkpt><trkpt lat="59.1046774853" lon="30.5141139776"><ele>301.03</ele><time>2026-08-20T21:26:44Z</time></trkpt><trkpt lat="59.1046767309" lon="30.5141300708"><ele>301.03</ele><time>2026-08-20T21:26:45Z</time></trkpt><trkpt lat="59.1046754736" lon="30.5141500197"><ele>301.03</ele><time>2026-08-20T21:26:46Z</time></trkpt><trkpt lat="59.1046740487" lon="30.5141633470"><ele>301.03</ele><time>2026-08-20T21:26:47Z</time></trkpt><trkpt lat="59.1046715342" lon="30.5141768418"><ele>301.03</ele><time>2026-08-20T21:26:48Z</time></trkpt><trkpt lat="59.1046704445" lon="30.5141917616"><ele>301.03</ele><time>2026-08-20T21:26:49Z</time></trkpt><trkpt lat="59.1046698578" lon="30.5142043345"><ele>301.03</ele><time>2026-08-20T21:26:50Z</time></trkpt><trkpt lat="59.1046724562" lon="30.5142183322"><ele>301.03</ele><time>2026-08-20T21:26:51Z</time></trkpt><trkpt lat="59.1046748869" lon="30.5142338388"><ele>301.03</ele><time>2026-08-20T21:26:52Z</time></trkpt><trkpt lat="59.1046763957" lon="30.5142524466"><ele>301.03</ele><time>2026-08-20T21:26:53Z</time></trkpt><trkpt lat="59.1046768986" lon="30.5142762512"><ele>301.03</ele><time>2026-08-20T21:26:54Z</time></trkpt><trkpt lat="59.1046808381" lon="30.5142995529"><ele>301.03</ele><time>2026-08-20T21:26:55Z</time></trkpt><trkpt lat="59.1046822630" lon="30.5143198371"><ele>301.03</ele><time>2026-08-20T21:26:56Z</time></trkpt><trkpt lat="59.1046844423" lon="30.5143386964"><ele>301.03</ele><time>2026-08-20T21:26:57Z</time></trkpt><trkpt lat="59.1046864539" lon="30.5143526942"><ele>301.03</ele><time>2026-08-20T21:26:58Z</time></trkpt><trkpt lat="59.1046874598" lon="30.5143734813"><ele>301.03</ele><time>2026-08-20T21:26:59Z</time></trkpt><trkpt lat="59.1046897229" lon="30.5143915862"><ele>301.03</ele><time>2026-08-20T21:27:00Z</time></trkpt><trkpt lat="59.1046905611" lon="30.5144111998"><ele>301.03</ele><time>2026-08-20T21:27:01Z</time></trkpt><trkpt lat="59.1046885494" lon="30.5144316517"><ele>301.03</ele><time>2026-08-20T21:27:02Z</time></trkpt><trkpt lat="59.1046877950" lon="30.5144479964"><ele>301.03</ele><time>2026-08-20T21:27:03Z</time></trkpt><trkpt lat="59.1046882980" lon="30.5144659337"><ele>301.03</ele><time>2026-08-20T21:27:04Z</time></trkpt><trkpt lat="59.1046934947" lon="30.5144839548"><ele>301.03</ele><time>2026-08-20T21:27:05Z</time></trkpt><trkpt lat="59.1046928242" lon="30.5145036522"><ele>301.03</ele><time>2026-08-20T21:27:06Z</time></trkpt><trkpt lat="59.1046928242" lon="30.5145197455"><ele>301.03</ele><time>2026-08-20T21:27:07Z</time></trkpt><trkpt lat="59.1046933271" lon="30.5145408679"><ele>301.03</ele><time>2026-08-20T21:27:08Z</time></trkpt><trkpt lat="59.1046933271" lon="30.5145673547"><ele>301.03</ele><time>2026-08-20T21:27:09Z</time></trkpt><trkpt lat="59.1046920698" lon="30.5145932548"><ele>301.03</ele><time>2026-08-20T21:27:10Z</time></trkpt><trkpt lat="59.1046905611" lon="30.5146158859"><ele>301.03</ele><time>2026-08-20T21:27:11Z</time></trkpt><trkpt lat="59.1046917345" lon="30.5146390200"><ele>301.03</ele><time>2026-08-20T21:27:12Z</time></trkpt><trkpt lat="59.1046907287" lon="30.5146646686"><ele>301.03</ele><time>2026-08-20T21:27:13Z</time></trkpt><trkpt lat="59.1046884656" lon="30.5146881379"><ele>301.03</ele><time>2026-08-20T21:27:14Z</time></trkpt><trkpt lat="59.1046884656" lon="30.5147102661"><ele>301.03</ele><time>2026-08-20T21:27:15Z</time></trkpt><trkpt lat="59.1046890523" lon="30.5147379264"><ele>301.03</ele><time>2026-08-20T21:27:16Z</time></trkpt><trkpt lat="59.1046878789" lon="30.5147620663"><ele>301.03</ele><time>2026-08-20T21:27:17Z</time></trkpt><trkpt lat="59.1046861187" lon="30.5147860385"><ele>301.03</ele><time>2026-08-20T21:27:18Z</time></trkpt><trkpt lat="59.1046871245" lon="30.5148084182"><ele>301.03</ele><time>2026-08-20T21:27:19Z</time></trkpt><trkpt lat="59.1046939977" lon="30.5148322228"><ele>301.03</ele><time>2026-08-20T21:27:20Z</time></trkpt><trkpt lat="59.1046983562" lon="30.5148522556"><ele>301.03</ele><time>2026-08-20T21:27:21Z</time></trkpt><trkpt lat="59.1046989430" lon="30.5148736294"><ele>301.03</ele><time>2026-08-20T21:27:22Z</time></trkpt><trkpt lat="59.1046996973" lon="30.5148881301"><ele>301.03</ele><time>2026-08-20T21:27:23Z</time></trkpt><trkpt lat="59.1047002841" lon="30.5149024632"><ele>301.03</ele><time>2026-08-20T21:27:24Z</time></trkpt><trkpt lat="59.1047001164" lon="30.5149173830"><ele>301.03</ele><time>2026-08-20T21:27:25Z</time></trkpt><trkpt lat="59.1047026310" lon="30.5149350688"><ele>301.03</ele><time>2026-08-20T21:27:26Z</time></trkpt><trkpt lat="59.1047032177" lon="30.5149554368"><ele>301.03</ele><time>2026-08-20T21:27:27Z</time></trkpt><trkpt lat="59.1047046427" lon="30.5149753857"><ele>301.03</ele><time>2026-08-20T21:27:28Z</time></trkpt><trkpt lat="59.1047036368" lon="30.5149978492"><ele>301.03</ele><time>2026-08-20T21:27:29Z</time></trkpt><trkpt lat="59.1047070734" lon="30.5150148645"><ele>301.03</ele><time>2026-08-20T21:27:30Z</time></trkpt><trkpt lat="59.1047093365" lon="30.5150333885"><ele>301.03</ele><time>2026-08-20T21:27:31Z</time></trkpt><trkpt lat="59.1047120187" lon="30.5150557682"><ele>301.03</ele><time>2026-08-20T21:27:32Z</time></trkpt><trkpt lat="59.1047153715" lon="30.5150793213"><ele>301.03</ele><time>2026-08-20T21:27:33Z</time></trkpt><trkpt lat="59.1047160421" lon="30.5151011981"><ele>301.03</ele><time>2026-08-20T21:27:34Z</time></trkpt><trkpt lat="59.1047177184" lon="30.5151229911"><ele>301.03</ele><time>2026-08-20T21:27:35Z</time></trkpt><trkpt lat="59.1047203168" lon="30.5151458737"><ele>301.03</ele><time>2026-08-20T21:27:36Z</time></trkpt><trkpt lat="59.1047207359" lon="30.5151619669"><ele>301.03</ele><time>2026-08-20T21:27:37Z</time></trkpt><trkpt lat="59.1047192272" lon="30.5151751265"><ele>301.03</ele><time>2026-08-20T21:27:38Z</time></trkpt><trkpt lat="59.1047188919" lon="30.5151938181"><ele>301.03</ele><time>2026-08-20T21:27:39Z</time></trkpt><trkpt lat="59.1047209874" lon="30.5152149405"><ele>301.03</ele><time>2026-08-20T21:27:40Z</time></trkpt><trkpt lat="59.1047236696" lon="30.5152294412"><ele>301.03</ele><time>2026-08-20T21:27:41Z</time></trkpt><trkpt lat="59.1047262680" lon="30.5152486358"><ele>301.03</ele><time>2026-08-20T21:27:42Z</time></trkpt><trkpt lat="59.1047294531" lon="30.5152689200"><ele>301.03</ele><time>2026-08-20T21:27:43Z</time></trkpt><trkpt lat="59.1047302913" lon="30.5152891204"><ele>301.03</ele><time>2026-08-20T21:27:44Z</time></trkpt><trkpt lat="59.1047301237" lon="30.5153139308"><ele>301.03</ele><time>2026-08-20T21:27:45Z</time></trkpt><trkpt lat="59.1047313809" lon="30.5153349694"><ele>301.03</ele><time>2026-08-20T21:27:46Z</time></trkpt><trkpt lat="59.1047290340" lon="30.5153603666"><ele>301.03</ele><time>2026-08-20T21:27:47Z</time></trkpt><trkpt lat="59.1047301237" lon="30.5153791420"><ele>301.03</ele><time>2026-08-20T21:27:48Z</time></trkpt><trkpt lat="59.1047331411" lon="30.5153967440"><ele>301.03</ele><time>2026-08-20T21:27:49Z</time></trkpt><trkpt lat="59.1047368292" lon="30.5154146813"><ele>301.03</ele><time>2026-08-20T21:27:50Z</time></trkpt><trkpt lat="59.1047395952" lon="30.5154342949"><ele>301.03</ele><time>2026-08-20T21:27:51Z</time></trkpt><trkpt lat="59.1047418583" lon="30.5154597759"><ele>301.03</ele><time>2026-08-20T21:27:52Z</time></trkpt><trkpt lat="59.1047442891" lon="30.5154823232"><ele>301.03</ele><time>2026-08-20T21:27:53Z</time></trkpt><trkpt lat="59.1047485638" lon="30.5155055411"><ele>301.03</ele><time>2026-08-20T21:27:54Z</time></trkpt><trkpt lat="59.1047500726" lon="30.5155287590"><ele>301.03</ele><time>2026-08-20T21:27:55Z</time></trkpt><trkpt lat="59.1047502402" lon="30.5155502167"><ele>301.03</ele><time>2026-08-20T21:27:56Z</time></trkpt><trkpt lat="59.1047548503" lon="30.5155695789"><ele>300.55</ele><time>2026-08-20T21:27:57Z</time></trkpt><trkpt lat="59.1047571972" lon="30.5155901983"><ele>300.55</ele><time>2026-08-20T21:27:58Z</time></trkpt><trkpt lat="59.1047604661" lon="30.5156076327"><ele>300.55</ele><time>2026-08-20T21:27:59Z</time></trkpt><trkpt lat="59.1047645733" lon="30.5156277493"><ele>300.55</ele><time>2026-08-20T21:28:00Z</time></trkpt><trkpt lat="59.1047683451" lon="30.5156505480"><ele>300.55</ele><time>2026-08-20T21:28:01Z</time></trkpt><trkpt lat="59.1047721170" lon="30.5156715866"><ele>300.55</ele><time>2026-08-20T21:28:02Z</time></trkpt><trkpt lat="59.1047656629" lon="30.5156996660"><ele>300.55</ele><time>2026-08-20T21:28:03Z</time></trkpt><trkpt lat="59.1047714464" lon="30.5157089699"><ele>300.55</ele><time>2026-08-20T21:28:04Z</time></trkpt><trkpt lat="59.1047750507" lon="30.5157095566"><ele>301.03</ele><time>2026-08-20T21:28:05Z</time></trkpt><trkpt lat="59.1047757212" lon="30.5157162622"><ele>301.03</ele><time>2026-08-20T21:28:06Z</time></trkpt><trkpt lat="59.1047808342" lon="30.5157244764"><ele>301.03</ele><time>2026-08-20T21:28:07Z</time></trkpt><trkpt lat="59.1047835164" lon="30.5157335289"><ele>301.03</ele><time>2026-08-20T21:28:08Z</time></trkpt><trkpt lat="59.1047839355" lon="30.5157457665"><ele>301.03</ele><time>2026-08-20T21:28:09Z</time></trkpt><trkpt lat="59.1047846898" lon="30.5157615244"><ele>301.03</ele><time>2026-08-20T21:28:10Z</time></trkpt><trkpt lat="59.1047874559" lon="30.5157772824"><ele>300.55</ele><time>2026-08-20T21:28:11Z</time></trkpt><trkpt lat="59.1047897190" lon="30.5157969799"><ele>300.55</ele><time>2026-08-20T21:28:12Z</time></trkpt><trkpt lat="59.1047926527" lon="30.5158166774"><ele>300.55</ele><time>2026-08-20T21:28:13Z</time></trkpt><trkpt lat="59.1047936585" lon="30.5158364587"><ele>300.55</ele><time>2026-08-20T21:28:14Z</time></trkpt><trkpt lat="59.1047948319" lon="30.5158631969"><ele>300.55</ele><time>2026-08-20T21:28:15Z</time></trkpt><trkpt lat="59.1047930717" lon="30.5158947967"><ele>300.55</ele><time>2026-08-20T21:28:16Z</time></trkpt><trkpt lat="59.1047913954" lon="30.5159129854"><ele>300.55</ele><time>2026-08-20T21:28:17Z</time></trkpt><trkpt lat="59.1047911439" lon="30.5159308389"><ele>300.55</ele><time>2026-08-20T21:28:18Z</time></trkpt><trkpt lat="59.1047895513" lon="30.5159377959"><ele>300.55</ele><time>2026-08-20T21:28:19Z</time></trkpt><trkpt lat="59.1047915630" lon="30.5159441661"><ele>300.55</ele><time>2026-08-20T21:28:20Z</time></trkpt><trkpt lat="59.1047895513" lon="30.5159481894"><ele>300.55</ele><time>2026-08-20T21:28:21Z</time></trkpt><trkpt lat="59.1047866177" lon="30.5159539729"><ele>300.55</ele><time>2026-08-20T21:28:22Z</time></trkpt><trkpt lat="59.1047873721" lon="30.5159662943"><ele>300.55</ele><time>2026-08-20T21:28:23Z</time></trkpt><trkpt lat="59.1047883779" lon="30.5159768555"><ele>300.55</ele><time>2026-08-20T21:28:24Z</time></trkpt><trkpt lat="59.1047883779" lon="30.5159768555"><ele>300.55</ele><time>2026-08-20T21:28:25Z</time></trkpt><trkpt lat="59.1047883779" lon="30.5159768555"><ele>300.55</ele><time>2026-08-20T21:28:26Z</time></trkpt><trkpt lat="59.1047883779" lon="30.5159768555"><ele>300.55</ele><time>2026-08-20T21:28:27Z</time></trkpt><trkpt lat="59.1047883779" lon="30.5159768555"><ele>300.55</ele><time>2026-08-20T21:28:28Z</time></trkpt><trkpt lat="59.1047883779" lon="30.5159768555"><ele>300.55</ele><time>2026-08-20T21:28:29Z</time></trkpt><trkpt lat="59.1048075724" lon="30.5159914400"><ele>300.55</ele><time>2026-08-20T21:28:30Z</time></trkpt><trkpt lat="59.1048083268" lon="30.5159936193"><ele>300.07</ele><time>2026-08-20T21:28:31Z</time></trkpt><trkpt lat="59.1048067342" lon="30.5159952957"><ele>300.07</ele><time>2026-08-20T21:28:32Z</time></trkpt><trkpt lat="59.1048051417" lon="30.5159935355"><ele>300.07</ele><time>2026-08-20T21:28:33Z</time></trkpt><trkpt lat="59.1048051417" lon="30.5159935355"><ele>300.07</ele><time>2026-08-20T21:28:34Z</time></trkpt><trkpt lat="59.1048051417" lon="30.5159935355"><ele>300.07</ele><time>2026-08-20T21:28:35Z</time></trkpt><trkpt lat="59.1048051417" lon="30.5159935355"><ele>300.07</ele><time>2026-08-20T21:28:36Z</time></trkpt><trkpt lat="59.1048051417" lon="30.5159935355"><ele>300.07</ele><time>2026-08-20T21:28:37Z</time></trkpt><trkpt lat="59.1048051417" lon="30.5159935355"><ele>300.07</ele><time>2026-08-20T21:28:38Z</time></trkpt><trkpt lat="59.1048051417" lon="30.5159935355"><ele>300.07</ele><time>2026-08-20T21:28:39Z</time></trkpt><trkpt lat="59.1048051417" lon="30.5159935355"><ele>300.07</ele><time>2026-08-20T21:28:40Z</time></trkpt><trkpt lat="59.1048051417" lon="30.5159935355"><ele>300.07</ele><time>2026-08-20T21:28:41Z</time></trkpt><trkpt lat="59.1048051417" lon="30.5159935355"><ele>300.07</ele><time>2026-08-20T21:28:42Z</time></trkpt><trkpt lat="59.1048051417" lon="30.5159935355"><ele>300.07</ele><time>2026-08-20T21:28:43Z</time></trkpt><trkpt lat="59.1048051417" lon="30.5159935355"><ele>300.07</ele><time>2026-08-20T21:28:44Z</time></trkpt><trkpt lat="59.1048051417" lon="30.5159935355"><ele>300.07</ele><time>2026-08-20T21:28:45Z</time></trkpt><trkpt lat="59.1048051417" lon="30.5159935355"><ele>300.07</ele><time>2026-08-20T21:28:46Z</time></trkpt><trkpt lat="59.1048051417" lon="30.5159935355"><ele>300.07</ele><time>2026-08-20T21:28:47Z</time></trkpt><trkpt lat="59.1048051417" lon="30.5159935355"><ele>300.07</ele><time>2026-08-20T21:28:48Z</time></trkpt><trkpt lat="59.1047933232" lon="30.5159812979"><ele>300.07</ele><time>2026-08-20T21:28:49Z</time></trkpt><trkpt lat="59.1047923174" lon="30.5159790348"><ele>300.07</ele><time>2026-08-20T21:28:50Z</time></trkpt><trkpt lat="59.1047905572" lon="30.5159791186"><ele>300.07</ele><time>2026-08-20T21:28:51Z</time></trkpt><trkpt lat="59.1047894675" lon="30.5159750953"><ele>300.07</ele><time>2026-08-20T21:28:52Z</time></trkpt><trkpt lat="59.1047894675" lon="30.5159750953"><ele>300.07</ele><time>2026-08-20T21:28:53Z</time></trkpt><trkpt lat="59.1047894675" lon="30.5159750953"><ele>300.07</ele><time>2026-08-20T21:28:54Z</time></trkpt><trkpt lat="59.1047894675" lon="30.5159750953"><ele>300.07</ele><time>2026-08-20T21:28:55Z</time></trkpt><trkpt lat="59.1047894675" lon="30.5159750953"><ele>300.07</ele><time>2026-08-20T21:28:56Z</time></trkpt><trkpt lat="59.1047894675" lon="30.5159750953"><ele>300.07</ele><time>2026-08-20T21:28:57Z</time></trkpt><trkpt lat="59.1047894675" lon="30.5159750953"><ele>300.07</ele><time>2026-08-20T21:28:58Z</time></trkpt><trkpt lat="59.1047894675" lon="30.5159750953"><ele>300.07</ele><time>2026-08-20T21:28:59Z</time></trkpt><trkpt lat="59.1047894675" lon="30.5159750953"><ele>300.07</ele><time>2026-08-20T21:29:00Z</time></trkpt><trkpt lat="59.1047894675" lon="30.5159750953"><ele>300.07</ele><time>2026-08-20T21:29:01Z</time></trkpt><trkpt lat="59.1047894675" lon="30.5159750953"><ele>300.07</ele><time>2026-08-20T21:29:02Z</time></trkpt><trkpt lat="59.1047894675" lon="30.5159750953"><ele>300.07</ele><time>2026-08-20T21:29:03Z</time></trkpt><trkpt lat="59.1047894675" lon="30.5159750953"><ele>300.07</ele><time>2026-08-20T21:29:04Z</time></trkpt><trkpt lat="59.1047894675" lon="30.5159750953"><ele>300.07</ele><time>2026-08-20T21:29:05Z</time></trkpt><trkpt lat="59.1047894675" lon="30.5159750953"><ele>300.07</ele><time>2026-08-20T21:29:06Z</time></trkpt><trkpt lat="59.1047721170" lon="30.5159643665"><ele>300.07</ele><time>2026-08-20T21:29:07Z</time></trkpt><trkpt lat="59.1047764756" lon="30.5159640312"><ele>300.07</ele><time>2026-08-20T21:29:08Z</time></trkpt><trkpt lat="59.1047802474" lon="30.5159637798"><ele>300.07</ele><time>2026-08-20T21:29:09Z</time></trkpt><trkpt lat="59.1047833487" lon="30.5159627739"><ele>300.07</ele><time>2026-08-20T21:29:10Z</time></trkpt><trkpt lat="59.1047834326" lon="30.5159614328"><ele>300.07</ele><time>2026-08-20T21:29:11Z</time></trkpt><trkpt lat="59.1047819238" lon="30.5159602594"><ele>300.07</ele><time>2026-08-20T21:29:12Z</time></trkpt><trkpt lat="59.1047829296" lon="30.5159551464"><ele>300.07</ele><time>2026-08-20T21:29:13Z</time></trkpt><trkpt lat="59.1047829296" lon="30.5159551464"><ele>300.07</ele><time>2026-08-20T21:29:14Z</time></trkpt><trkpt lat="59.1047829296" lon="30.5159551464"><ele>300.07</ele><time>2026-08-20T21:29:15Z</time></trkpt><trkpt lat="59.1047829296" lon="30.5159551464"><ele>300.07</ele><time>2026-08-20T21:29:16Z</time></trkpt><trkpt lat="59.1047829296" lon="30.5159551464"><ele>300.07</ele><time>2026-08-20T21:29:17Z</time></trkpt><trkpt lat="59.1047829296" lon="30.5159551464"><ele>300.07</ele><time>2026-08-20T21:29:18Z</time></trkpt><trkpt lat="59.1047829296" lon="30.5159551464"><ele>300.07</ele><time>2026-08-20T21:29:19Z</time></trkpt><trkpt lat="59.1047829296" lon="30.5159551464"><ele>300.07</ele><time>2026-08-20T21:29:20Z</time></trkpt><trkpt lat="59.1047829296" lon="30.5159551464"><ele>300.07</ele><time>2026-08-20T21:29:21Z</time></trkpt><trkpt lat="59.1047829296" lon="30.5159551464"><ele>300.07</ele><time>2026-08-20T21:29:22Z</time></trkpt><trkpt lat="59.1047829296" lon="30.5159551464"><ele>300.07</ele><time>2026-08-20T21:29:23Z</time></trkpt><trkpt lat="59.1047829296" lon="30.5159551464"><ele>300.07</ele><time>2026-08-20T21:29:24Z</time></trkpt><trkpt lat="59.1047829296" lon="30.5159551464"><ele>300.07</ele><time>2026-08-20T21:29:25Z</time></trkpt><trkpt lat="59.1047829296" lon="30.5159551464"><ele>300.07</ele><time>2026-08-20T21:29:26Z</time></trkpt><trkpt lat="59.1047829296" lon="30.5159551464"><ele>300.07</ele><time>2026-08-20T21:29:27Z</time></trkpt><trkpt lat="59.1047829296" lon="30.5159551464"><ele>300.07</ele><time>2026-08-20T21:29:28Z</time></trkpt><trkpt lat="59.1047829296" lon="30.5159551464"><ele>300.07</ele><time>2026-08-20T21:29:29Z</time></trkpt><trkpt lat="59.1047829296" lon="30.5159551464"><ele>300.07</ele><time>2026-08-20T21:29:30Z</time></trkpt><trkpt lat="59.1047829296" lon="30.5159551464"><ele>300.07</ele><time>2026-08-20T21:29:31Z</time></trkpt><trkpt lat="59.1047829296" lon="30.5159551464"><ele>300.07</ele><time>2026-08-20T21:29:32Z</time></trkpt><trkpt lat="59.1047829296" lon="30.5159551464"><ele>300.07</ele><time>2026-08-20T21:29:33Z</time></trkpt><trkpt lat="59.1047829296" lon="30.5159551464"><ele>300.07</ele><time>2026-08-20T21:29:34Z</time></trkpt><trkpt lat="59.1047829296" lon="30.5159551464"><ele>300.07</ele><time>2026-08-20T21:29:35Z</time></trkpt><trkpt lat="59.1047750507" lon="30.5159942899"><ele>300.07</ele><time>2026-08-20T21:29:36Z</time></trkpt><trkpt lat="59.1047753859" lon="30.5160117242"><ele>300.07</ele><time>2026-08-20T21:29:37Z</time></trkpt><trkpt lat="59.1047762241" lon="30.5160339363"><ele>300.07</ele><time>2026-08-20T21:29:38Z</time></trkpt><trkpt lat="59.1047786549" lon="30.5160514545"><ele>300.07</ele><time>2026-08-20T21:29:39Z</time></trkpt><trkpt lat="59.1047800798" lon="30.5160677992"><ele>300.07</ele><time>2026-08-20T21:29:40Z</time></trkpt><trkpt lat="59.1047804989" lon="30.5160860717"><ele>300.55</ele><time>2026-08-20T21:29:41Z</time></trkpt><trkpt lat="59.1047840193" lon="30.5160959624"><ele>300.55</ele><time>2026-08-20T21:29:42Z</time></trkpt><trkpt lat="59.1047846898" lon="30.5161072779"><ele>300.55</ele><time>2026-08-20T21:29:43Z</time></trkpt><trkpt lat="59.1047875397" lon="30.5161221977"><ele>300.07</ele><time>2026-08-20T21:29:44Z</time></trkpt><trkpt lat="59.1047896352" lon="30.5161412247"><ele>300.07</ele><time>2026-08-20T21:29:45Z</time></trkpt><trkpt lat="59.1047933232" lon="30.5161629338"><ele>300.07</ele><time>2026-08-20T21:29:46Z</time></trkpt><trkpt lat="59.1047960892" lon="30.5161803681"><ele>300.07</ele><time>2026-08-20T21:29:47Z</time></trkpt><trkpt lat="59.1047972627" lon="30.5161939468"><ele>300.07</ele><time>2026-08-20T21:29:48Z</time></trkpt><trkpt lat="59.1047956701" lon="30.5162137281"><ele>300.07</ele><time>2026-08-20T21:29:49Z</time></trkpt><trkpt lat="59.1047943290" lon="30.5162372813"><ele>300.07</ele><time>2026-08-20T21:29:50Z</time></trkpt><trkpt lat="59.1047928203" lon="30.5162609182"><ele>300.07</ele><time>2026-08-20T21:29:51Z</time></trkpt><trkpt lat="59.1047924850" lon="30.5162795261"><ele>300.07</ele><time>2026-08-20T21:29:52Z</time></trkpt><trkpt lat="59.1047923174" lon="30.5162965413"><ele>300.07</ele><time>2026-08-20T21:29:53Z</time></trkpt><trkpt lat="59.1047968436" lon="30.5163161550"><ele>300.07</ele><time>2026-08-20T21:29:54Z</time></trkpt><trkpt lat="59.1048014537" lon="30.5163343437"><ele>300.07</ele><time>2026-08-20T21:29:55Z</time></trkpt><trkpt lat="59.1048059799" lon="30.5163499340"><ele>300.07</ele><time>2026-08-20T21:29:56Z</time></trkpt><trkpt lat="59.1048085783" lon="30.5163626745"><ele>300.07</ele><time>2026-08-20T21:29:57Z</time></trkpt><trkpt lat="59.1048145294" lon="30.5163757503"><ele>300.07</ele><time>2026-08-20T21:29:58Z</time></trkpt><trkpt lat="59.1048170440" lon="30.5163894966"><ele>300.07</ele><time>2026-08-20T21:29:59Z</time></trkpt><trkpt lat="59.1048175469" lon="30.5163972918"><ele>300.07</ele><time>2026-08-20T21:30:00Z</time></trkpt><trkpt lat="59.1048172954" lon="30.5164014827"><ele>300.07</ele><time>2026-08-20T21:30:01Z</time></trkpt><trkpt lat="59.1048172954" lon="30.5164014827"><ele>300.07</ele><time>2026-08-20T21:30:02Z</time></trkpt><trkpt lat="59.1048180498" lon="30.5164026562"><ele>300.07</ele><time>2026-08-20T21:30:03Z</time></trkpt><trkpt lat="59.1048191395" lon="30.5164151452"><ele>300.07</ele><time>2026-08-20T21:30:04Z</time></trkpt><trkpt lat="59.1048206482" lon="30.5164287239"><ele>300.07</ele><time>2026-08-20T21:30:05Z</time></trkpt><trkpt lat="59.1048184689" lon="30.5164398719"><ele>300.07</ele><time>2026-08-20T21:30:06Z</time></trkpt><trkpt lat="59.1048227437" lon="30.5164524447"><ele>300.07</ele><time>2026-08-20T21:30:07Z</time></trkpt><trkpt lat="59.1048205644" lon="30.5164702982"><ele>300.07</ele><time>2026-08-20T21:30:08Z</time></trkpt><trkpt lat="59.1048204806" lon="30.5164860561"><ele>300.07</ele><time>2026-08-20T21:30:09Z</time></trkpt><trkpt lat="59.1048202291" lon="30.5164979585"><ele>300.07</ele><time>2026-08-20T21:30:10Z</time></trkpt><trkpt lat="59.1048206482" lon="30.5165064242"><ele>300.07</ele><time>2026-08-20T21:30:11Z</time></trkpt><trkpt lat="59.1048242524" lon="30.5165125430"><ele>300.07</ele><time>2026-08-20T21:30:12Z</time></trkpt><trkpt lat="59.1048270185" lon="30.5165199190"><ele>300.07</ele><time>2026-08-20T21:30:13Z</time></trkpt><trkpt lat="59.1048276890" lon="30.5165347550"><ele>300.07</ele><time>2026-08-20T21:30:14Z</time></trkpt><trkpt lat="59.1048303712" lon="30.5165498424"><ele>300.07</ele><time>2026-08-20T21:30:15Z</time></trkpt><trkpt lat="59.1048286948" lon="30.5165683664"><ele>300.07</ele><time>2026-08-20T21:30:16Z</time></trkpt><trkpt lat="59.1048254259" lon="30.5165859684"><ele>300.07</ele><time>2026-08-20T21:30:17Z</time></trkpt><trkpt lat="59.1048241686" lon="30.5166025646"><ele>300.07</ele><time>2026-08-20T21:30:18Z</time></trkpt><trkpt lat="59.1048241686" lon="30.5166151375"><ele>300.07</ele><time>2026-08-20T21:30:19Z</time></trkpt><trkpt lat="59.1048220731" lon="30.5166331585"><ele>300.07</ele><time>2026-08-20T21:30:20Z</time></trkpt><trkpt lat="59.1048195586" lon="30.5166482460"><ele>300.07</ele><time>2026-08-20T21:30:21Z</time></trkpt><trkpt lat="59.1048187204" lon="30.5166615732"><ele>300.07</ele><time>2026-08-20T21:30:22Z</time></trkpt><trkpt lat="59.1048192233" lon="30.5166754872"><ele>300.07</ele><time>2026-08-20T21:30:23Z</time></trkpt><trkpt lat="59.1048218217" lon="30.5166921671"><ele>300.07</ele><time>2026-08-20T21:30:24Z</time></trkpt><trkpt lat="59.1048268508" lon="30.5167225935"><ele>300.07</ele><time>2026-08-20T21:30:25Z</time></trkpt><trkpt lat="59.1048257612" lon="30.5167531874"><ele>300.07</ele><time>2026-08-20T21:30:26Z</time></trkpt><trkpt lat="59.1048278566" lon="30.5167742260"><ele>300.07</ele><time>2026-08-20T21:30:27Z</time></trkpt><trkpt lat="59.1048288625" lon="30.5167923309"><ele>300.07</ele><time>2026-08-20T21:30:28Z</time></trkpt><trkpt lat="59.1048255935" lon="30.5168078374"><ele>300.07</ele><time>2026-08-20T21:30:29Z</time></trkpt><trkpt lat="59.1048241686" lon="30.5168214999"><ele>300.07</ele><time>2026-08-20T21:30:30Z</time></trkpt><trkpt lat="59.1048187204" lon="30.5168433767"><ele>300.07</ele><time>2026-08-20T21:30:31Z</time></trkpt><trkpt lat="59.1048178822" lon="30.5168669298"><ele>300.07</ele><time>2026-08-20T21:30:32Z</time></trkpt><trkpt lat="59.1048180498" lon="30.5168898962"><ele>300.07</ele><time>2026-08-20T21:30:33Z</time></trkpt><trkpt lat="59.1048198938" lon="30.5169171374"><ele>300.07</ele><time>2026-08-20T21:30:34Z</time></trkpt><trkpt lat="59.1048220731" lon="30.5169379245"><ele>300.07</ele><time>2026-08-20T21:30:35Z</time></trkpt><trkpt lat="59.1048247553" lon="30.5169636570"><ele>300.07</ele><time>2026-08-20T21:30:36Z</time></trkpt><trkpt lat="59.1048307903" lon="30.5169822648"><ele>300.07</ele><time>2026-08-20T21:30:37Z</time></trkpt><trkpt lat="59.1048365738" lon="30.5169987772"><ele>300.07</ele><time>2026-08-20T21:30:38Z</time></trkpt><trkpt lat="59.1048394237" lon="30.5170162953"><ele>300.07</ele><time>2026-08-20T21:30:39Z</time></trkpt><trkpt lat="59.1048428603" lon="30.5170380883"><ele>300.07</ele><time>2026-08-20T21:30:40Z</time></trkpt><trkpt lat="59.1048449557" lon="30.5170556903"><ele>300.07</ele><time>2026-08-20T21:30:41Z</time></trkpt><trkpt lat="59.1048477218" lon="30.5170739628"><ele>300.07</ele><time>2026-08-20T21:30:42Z</time></trkpt><trkpt lat="59.1048480570" lon="30.5170915648"><ele>300.07</ele><time>2026-08-20T21:30:43Z</time></trkpt><trkpt lat="59.1048471350" lon="30.5171048921"><ele>300.07</ele><time>2026-08-20T21:30:44Z</time></trkpt><trkpt lat="59.1048470512" lon="30.5171170458"><ele>300.07</ele><time>2026-08-20T21:30:45Z</time></trkpt><trkpt lat="59.1048470512" lon="30.5171261821"><ele>300.07</ele><time>2026-08-20T21:30:46Z</time></trkpt><trkpt lat="59.1048473865" lon="30.5171358213"><ele>300.07</ele><time>2026-08-20T21:30:47Z</time></trkpt><trkpt lat="59.1048463807" lon="30.5171457957"><ele>300.07</ele><time>2026-08-20T21:30:48Z</time></trkpt><trkpt lat="59.1048436984" lon="30.5171559379"><ele>300.07</ele><time>2026-08-20T21:30:49Z</time></trkpt><trkpt lat="59.1048441175" lon="30.5171661638"><ele>300.07</ele><time>2026-08-20T21:30:50Z</time></trkpt><trkpt lat="59.1048447881" lon="30.5171737913"><ele>300.07</ele><time>2026-08-20T21:30:51Z</time></trkpt><trkpt lat="59.1048451234" lon="30.5171806645"><ele>300.07</ele><time>2026-08-20T21:30:52Z</time></trkpt><trkpt lat="59.1048471350" lon="30.5171904713"><ele>300.07</ele><time>2026-08-20T21:30:53Z</time></trkpt><trkpt lat="59.1048471350" lon="30.5171904713"><ele>300.07</ele><time>2026-08-20T21:30:54Z</time></trkpt><trkpt lat="59.1048453748" lon="30.5171958357"><ele>300.07</ele><time>2026-08-20T21:30:55Z</time></trkpt><trkpt lat="59.1048443690" lon="30.5172070675"><ele>300.07</ele><time>2026-08-20T21:30:56Z</time></trkpt><trkpt lat="59.1048453748" lon="30.5172174610"><ele>300.07</ele><time>2026-08-20T21:30:57Z</time></trkpt><trkpt lat="59.1048509907" lon="30.5172267649"><ele>300.07</ele><time>2026-08-20T21:30:58Z</time></trkpt><trkpt lat="59.1048541758" lon="30.5172367394"><ele>300.07</ele><time>2026-08-20T21:30:59Z</time></trkpt><trkpt lat="59.1048561875" lon="30.5172492284"><ele>300.07</ele><time>2026-08-20T21:31:00Z</time></trkpt><trkpt lat="59.1048585344" lon="30.5172651540"><ele>300.07</ele><time>2026-08-20T21:31:01Z</time></trkpt><trkpt lat="59.1048648208" lon="30.5172780622"><ele>300.07</ele><time>2026-08-20T21:31:02Z</time></trkpt><trkpt lat="59.1048684251" lon="30.5172921438"><ele>300.07</ele><time>2026-08-20T21:31:03Z</time></trkpt><trkpt lat="59.1048716940" lon="30.5173096620"><ele>300.07</ele><time>2026-08-20T21:31:04Z</time></trkpt><trkpt lat="59.1048734542" lon="30.5173275992"><ele>300.07</ele><time>2026-08-20T21:31:05Z</time></trkpt><trkpt lat="59.1048760526" lon="30.5173434410"><ele>300.07</ele><time>2026-08-20T21:31:06Z</time></trkpt><trkpt lat="59.1048752982" lon="30.5173579417"><ele>300.07</ele><time>2026-08-20T21:31:07Z</time></trkpt><trkpt lat="59.1048737895" lon="30.5173735321"><ele>300.07</ele><time>2026-08-20T21:31:08Z</time></trkpt><trkpt lat="59.1048700176" lon="30.5173937324"><ele>300.07</ele><time>2026-08-20T21:31:09Z</time></trkpt><trkpt lat="59.1048687603" lon="30.5174093228"><ele>300.07</ele><time>2026-08-20T21:31:10Z</time></trkpt><trkpt lat="59.1048698500" lon="30.5174118374"><ele>300.07</ele><time>2026-08-20T21:31:11Z</time></trkpt><trkpt lat="59.1048731189" lon="30.5174147710"><ele>300.07</ele><time>2026-08-20T21:31:12Z</time></trkpt><trkpt lat="59.1048731189" lon="30.5174147710"><ele>300.07</ele><time>2026-08-20T21:31:13Z</time></trkpt><trkpt lat="59.1048731189" lon="30.5174147710"><ele>300.07</ele><time>2026-08-20T21:31:14Z</time></trkpt><trkpt lat="59.1048731189" lon="30.5174147710"><ele>300.07</ele><time>2026-08-20T21:31:15Z</time></trkpt><trkpt lat="59.1048731189" lon="30.5174147710"><ele>300.55</ele><time>2026-08-20T21:31:16Z</time></trkpt><trkpt lat="59.1048731189" lon="30.5174147710"><ele>300.55</ele><time>2026-08-20T21:31:17Z</time></trkpt><trkpt lat="59.1048775613" lon="30.5174322892"><ele>300.55</ele><time>2026-08-20T21:31:18Z</time></trkpt><trkpt lat="59.1048777290" lon="30.5174498912"><ele>300.55</ele><time>2026-08-20T21:31:19Z</time></trkpt><trkpt lat="59.1048784833" lon="30.5174679961"><ele>300.07</ele><time>2026-08-20T21:31:20Z</time></trkpt><trkpt lat="59.1048787348" lon="30.5174852628"><ele>300.07</ele><time>2026-08-20T21:31:21Z</time></trkpt><trkpt lat="59.1048784833" lon="30.5175055470"><ele>300.07</ele><time>2026-08-20T21:31:22Z</time></trkpt><trkpt lat="59.1048745438" lon="30.5175244901"><ele>300.07</ele><time>2026-08-20T21:31:23Z</time></trkpt><trkpt lat="59.1048703529" lon="30.5175435171"><ele>300.07</ele><time>2026-08-20T21:31:24Z</time></trkpt><trkpt lat="59.1048671678" lon="30.5175616220"><ele>300.07</ele><time>2026-08-20T21:31:25Z</time></trkpt><trkpt lat="59.1048655752" lon="30.5175819900"><ele>300.07</ele><time>2026-08-20T21:31:26Z</time></trkpt><trkpt lat="59.1048658267" lon="30.5176055431"><ele>300.07</ele><time>2026-08-20T21:31:27Z</time></trkpt><trkpt lat="59.1048672516" lon="30.5176240671"><ele>300.07</ele><time>2026-08-20T21:31:28Z</time></trkpt><trkpt lat="59.1048658267" lon="30.5176425911"><ele>300.07</ele><time>2026-08-20T21:31:29Z</time></trkpt><trkpt lat="59.1048635636" lon="30.5176579300"><ele>300.07</ele><time>2026-08-20T21:31:30Z</time></trkpt><trkpt lat="59.1048591211" lon="30.5176769570"><ele>300.07</ele><time>2026-08-20T21:31:31Z</time></trkpt><trkpt lat="59.1048532538" lon="30.5176897813"><ele>300.07</ele><time>2026-08-20T21:31:32Z</time></trkpt><trkpt lat="59.1048487276" lon="30.5177004263"><ele>300.07</ele><time>2026-08-20T21:31:33Z</time></trkpt><trkpt lat="59.1048470512" lon="30.5177095626"><ele>300.07</ele><time>2026-08-20T21:31:34Z</time></trkpt><trkpt lat="59.1048424412" lon="30.5177164357"><ele>300.07</ele><time>2026-08-20T21:31:35Z</time></trkpt><trkpt lat="59.1048383340" lon="30.5177405756"><ele>300.07</ele><time>2026-08-20T21:31:36Z</time></trkpt><trkpt lat="59.1048340593" lon="30.5177560821"><ele>300.07</ele><time>2026-08-20T21:31:37Z</time></trkpt><trkpt lat="59.1048313770" lon="30.5177668948"><ele>300.07</ele><time>2026-08-20T21:31:38Z</time></trkpt><trkpt lat="59.1048282757" lon="30.5177800544"><ele>300.07</ele><time>2026-08-20T21:31:39Z</time></trkpt><trkpt lat="59.1048247553" lon="30.5177927949"><ele>300.07</ele><time>2026-08-20T21:31:40Z</time></trkpt><trkpt lat="59.1048215702" lon="30.5178053677"><ele>300.07</ele><time>2026-08-20T21:31:41Z</time></trkpt><trkpt lat="59.1048175469" lon="30.5178214610"><ele>300.07</ele><time>2026-08-20T21:31:42Z</time></trkpt><trkpt lat="59.1048145294" lon="30.5178402364"><ele>300.07</ele><time>2026-08-20T21:31:43Z</time></trkpt><trkpt lat="59.1048107576" lon="30.5178578384"><ele>300.07</ele><time>2026-08-20T21:31:44Z</time></trkpt><trkpt lat="59.1048091650" lon="30.5178757757"><ele>300.07</ele><time>2026-08-20T21:31:45Z</time></trkpt><trkpt lat="59.1048075724" lon="30.5178934615"><ele>300.07</ele><time>2026-08-20T21:31:46Z</time></trkpt><trkpt lat="59.1048042197" lon="30.5179103930"><ele>300.07</ele><time>2026-08-20T21:31:47Z</time></trkpt><trkpt lat="59.1047981847" lon="30.5179297552"><ele>300.07</ele><time>2026-08-20T21:31:48Z</time></trkpt><trkpt lat="59.1047942452" lon="30.5179445911"><ele>300.07</ele><time>2026-08-20T21:31:49Z</time></trkpt><trkpt lat="59.1047927365" lon="30.5179566611"><ele>300.07</ele><time>2026-08-20T21:31:50Z</time></trkpt><trkpt lat="59.1047903895" lon="30.5179745983"><ele>300.07</ele><time>2026-08-20T21:31:51Z</time></trkpt><trkpt lat="59.1047856957" lon="30.5179965589"><ele>300.07</ele><time>2026-08-20T21:31:52Z</time></trkpt><trkpt lat="59.1047833487" lon="30.5180147476"><ele>300.07</ele><time>2026-08-20T21:31:53Z</time></trkpt><trkpt lat="59.1047824267" lon="30.5180241354"><ele>300.07</ele><time>2026-08-20T21:31:54Z</time></trkpt><trkpt lat="59.1047823429" lon="30.5180265661"><ele>300.07</ele><time>2026-08-20T21:31:55Z</time></trkpt><trkpt lat="59.1047813371" lon="30.5180301704"><ele>300.07</ele><time>2026-08-20T21:31:56Z</time></trkpt><trkpt lat="59.1047806665" lon="30.5180349480"><ele>300.07</ele><time>2026-08-20T21:31:57Z</time></trkpt><trkpt lat="59.1047806665" lon="30.5180349480"><ele>300.07</ele><time>2026-08-20T21:31:58Z</time></trkpt><trkpt lat="59.1047806665" lon="30.5180349480"><ele>300.07</ele><time>2026-08-20T21:31:59Z</time></trkpt><trkpt lat="59.1047806665" lon="30.5180349480"><ele>300.07</ele><time>2026-08-20T21:32:00Z</time></trkpt><trkpt lat="59.1047806665" lon="30.5180349480"><ele>300.07</ele><time>2026-08-20T21:32:01Z</time></trkpt><trkpt lat="59.1047806665" lon="30.5180349480"><ele>300.07</ele><time>2026-08-20T21:32:02Z</time></trkpt><trkpt lat="59.1047806665" lon="30.5180349480"><ele>300.07</ele><time>2026-08-20T21:32:03Z</time></trkpt><trkpt lat="59.1047858633" lon="30.5180267338"><ele>300.07</ele><time>2026-08-20T21:32:04Z</time></trkpt><trkpt lat="59.1047811694" lon="30.5180256441"><ele>300.07</ele><time>2026-08-20T21:32:05Z</time></trkpt><trkpt lat="59.1047765594" lon="30.5180291645"><ele>300.07</ele><time>2026-08-20T21:32:06Z</time></trkpt><trkpt lat="59.1047716979" lon="30.5180369597"><ele>300.07</ele><time>2026-08-20T21:32:07Z</time></trkpt><trkpt lat="59.1047691833" lon="30.5180470180"><ele>300.07</ele><time>2026-08-20T21:32:08Z</time></trkpt><trkpt lat="59.1047731228" lon="30.5180504546"><ele>300.07</ele><time>2026-08-20T21:32:09Z</time></trkpt><trkpt lat="59.1047810856" lon="30.5180458445"><ele>300.07</ele><time>2026-08-20T21:32:10Z</time></trkpt><trkpt lat="59.1047864500" lon="30.5180381332"><ele>300.07</ele><time>2026-08-20T21:32:11Z</time></trkpt><trkpt lat="59.1047926527" lon="30.5180284940"><ele>300.07</ele><time>2026-08-20T21:32:12Z</time></trkpt><trkpt lat="59.1048036329" lon="30.5180109758"><ele>300.07</ele><time>2026-08-20T21:32:13Z</time></trkpt><trkpt lat="59.1048137750" lon="30.5179961398"><ele>300.07</ele><time>2026-08-20T21:32:14Z</time></trkpt><trkpt lat="59.1048212349" lon="30.5179807171"><ele>300.07</ele><time>2026-08-20T21:32:15Z</time></trkpt><trkpt lat="59.1048261803" lon="30.5179671384"><ele>300.07</ele><time>2026-08-20T21:32:16Z</time></trkpt><trkpt lat="59.1048268508" lon="30.5179544818"><ele>300.07</ele><time>2026-08-20T21:32:17Z</time></trkpt><trkpt lat="59.1048293654" lon="30.5179413222"><ele>300.07</ele><time>2026-08-20T21:32:18Z</time></trkpt><trkpt lat="59.1048333887" lon="30.5179270729"><ele>300.07</ele><time>2026-08-20T21:32:19Z</time></trkpt><trkpt lat="59.1048380826" lon="30.5179148354"><ele>300.07</ele><time>2026-08-20T21:32:20Z</time></trkpt><trkpt lat="59.1048422735" lon="30.5179090519"><ele>300.07</ele><time>2026-08-20T21:32:21Z</time></trkpt><trkpt lat="59.1048452910" lon="30.5179050285"><ele>300.07</ele><time>2026-08-20T21:32:22Z</time></trkpt><trkpt lat="59.1048470512" lon="30.5178971495"><ele>300.07</ele><time>2026-08-20T21:32:23Z</time></trkpt><trkpt lat="59.1048501525" lon="30.5178846605"><ele>300.07</ele><time>2026-08-20T21:32:24Z</time></trkpt><trkpt lat="59.1048494820" lon="30.5178617779"><ele>300.07</ele><time>2026-08-20T21:32:25Z</time></trkpt><trkpt lat="59.1048536729" lon="30.5178431701"><ele>300.07</ele><time>2026-08-20T21:32:26Z</time></trkpt><trkpt lat="59.1048576962" lon="30.5178222992"><ele>300.07</ele><time>2026-08-20T21:32:27Z</time></trkpt><trkpt lat="59.1048617195" lon="30.5178060383"><ele>300.07</ele><time>2026-08-20T21:32:28Z</time></trkpt><trkpt lat="59.1048676707" lon="30.5177959800"><ele>300.07</ele><time>2026-08-20T21:32:29Z</time></trkpt><trkpt lat="59.1048739571" lon="30.5177820660"><ele>300.07</ele><time>2026-08-20T21:32:30Z</time></trkpt><trkpt lat="59.1048806626" lon="30.5177655537"><ele>300.07</ele><time>2026-08-20T21:32:31Z</time></trkpt><trkpt lat="59.1048861947" lon="30.5177508853"><ele>300.07</ele><time>2026-08-20T21:32:32Z</time></trkpt><trkpt lat="59.1048900504" lon="30.5177356303"><ele>300.07</ele><time>2026-08-20T21:32:33Z</time></trkpt><trkpt lat="59.1048952471" lon="30.5177173577"><ele>300.07</ele><time>2026-08-20T21:32:34Z</time></trkpt><trkpt lat="59.1048992705" lon="30.5177035276"><ele>300.07</ele><time>2026-08-20T21:32:35Z</time></trkpt><trkpt lat="59.1049036290" lon="30.5176882725"><ele>300.07</ele><time>2026-08-20T21:32:36Z</time></trkpt><trkpt lat="59.1049107537" lon="30.5176753644"><ele>300.07</ele><time>2026-08-20T21:32:37Z</time></trkpt><trkpt lat="59.1049170401" lon="30.5176671501"><ele>300.07</ele><time>2026-08-20T21:32:38Z</time></trkpt><trkpt lat="59.1049210634" lon="30.5176592711"><ele>300.07</ele><time>2026-08-20T21:32:39Z</time></trkpt><trkpt lat="59.1049250867" lon="30.5176476203"><ele>300.07</ele><time>2026-08-20T21:32:40Z</time></trkpt><trkpt lat="59.1049288586" lon="30.5176396575"><ele>300.07</ele><time>2026-08-20T21:32:41Z</time></trkpt><trkpt lat="59.1049337201" lon="30.5176344607"><ele>300.07</ele><time>2026-08-20T21:32:42Z</time></trkpt><trkpt lat="59.1049415991" lon="30.5176338740"><ele>300.07</ele><time>2026-08-20T21:32:43Z</time></trkpt><trkpt lat="59.1049462929" lon="30.5176435970"><ele>300.07</ele><time>2026-08-20T21:32:44Z</time></trkpt><trkpt lat="59.1049469635" lon="30.5176612828"><ele>300.07</ele><time>2026-08-20T21:32:45Z</time></trkpt><trkpt lat="59.1049468797" lon="30.5176863447"><ele>300.07</ele><time>2026-08-20T21:32:46Z</time></trkpt><trkpt lat="59.1049496457" lon="30.5177091435"><ele>300.07</ele><time>2026-08-20T21:32:47Z</time></trkpt><trkpt lat="59.1049514897" lon="30.5177268293"><ele>300.07</ele><time>2026-08-20T21:32:48Z</time></trkpt><trkpt lat="59.1049524955" lon="30.5177426711"><ele>300.07</ele><time>2026-08-20T21:32:49Z</time></trkpt><trkpt lat="59.1049516574" lon="30.5177548248"><ele>300.07</ele><time>2026-08-20T21:32:50Z</time></trkpt><trkpt lat="59.1049540881" lon="30.5177711695"><ele>300.07</ele><time>2026-08-20T21:32:51Z</time></trkpt><trkpt lat="59.1049530823" lon="30.5177865922"><ele>300.07</ele><time>2026-08-20T21:32:52Z</time></trkpt><trkpt lat="59.1049554292" lon="30.5177993327"><ele>300.07</ele><time>2026-08-20T21:32:53Z</time></trkpt><trkpt lat="59.1049576923" lon="30.5178221315"><ele>300.07</ele><time>2026-08-20T21:32:54Z</time></trkpt><trkpt lat="59.1049548425" lon="30.5178476963"><ele>300.07</ele><time>2026-08-20T21:32:55Z</time></trkpt><trkpt lat="59.1049554292" lon="30.5178651307"><ele>300.07</ele><time>2026-08-20T21:32:56Z</time></trkpt><trkpt lat="59.1049554292" lon="30.5178792961"><ele>300.07</ele><time>2026-08-20T21:32:57Z</time></trkpt><trkpt lat="59.1049537528" lon="30.5178968981"><ele>300.07</ele><time>2026-08-20T21:32:58Z</time></trkpt><trkpt lat="59.1049545910" lon="30.5179199483"><ele>300.07</ele><time>2026-08-20T21:32:59Z</time></trkpt><trkpt lat="59.1049530823" lon="30.5179440882"><ele>300.07</ele><time>2026-08-20T21:33:00Z</time></trkpt><trkpt lat="59.1049527470" lon="30.5179635342"><ele>300.07</ele><time>2026-08-20T21:33:01Z</time></trkpt><trkpt lat="59.1049499810" lon="30.5179840699"><ele>300.07</ele><time>2026-08-20T21:33:02Z</time></trkpt><trkpt lat="59.1049494781" lon="30.5179996602"><ele>300.07</ele><time>2026-08-20T21:33:03Z</time></trkpt><trkpt lat="59.1049467959" lon="30.5180139933"><ele>300.07</ele><time>2026-08-20T21:33:04Z</time></trkpt><trkpt lat="59.1049468797" lon="30.5180294998"><ele>300.07</ele><time>2026-08-20T21:33:05Z</time></trkpt><trkpt lat="59.1049438622" lon="30.5180483591"><ele>300.07</ele><time>2026-08-20T21:33:06Z</time></trkpt><trkpt lat="59.1049382463" lon="30.5180715770"><ele>300.07</ele><time>2026-08-20T21:33:07Z</time></trkpt><trkpt lat="59.1049354803" lon="30.5180948786"><ele>300.07</ele><time>2026-08-20T21:33:08Z</time></trkpt><trkpt lat="59.1049330495" lon="30.5181133188"><ele>300.07</ele><time>2026-08-20T21:33:09Z</time></trkpt><trkpt lat="59.1049320437" lon="30.5181316752"><ele>300.07</ele><time>2026-08-20T21:33:10Z</time></trkpt><trkpt lat="59.1049323790" lon="30.5181552283"><ele>300.07</ele><time>2026-08-20T21:33:11Z</time></trkpt><trkpt lat="59.1049348935" lon="30.5181742553"><ele>300.07</ele><time>2026-08-20T21:33:12Z</time></trkpt><trkpt lat="59.1049348935" lon="30.5181906838"><ele>300.07</ele><time>2026-08-20T21:33:13Z</time></trkpt><trkpt lat="59.1049351450" lon="30.5182066932"><ele>300.07</ele><time>2026-08-20T21:33:14Z</time></trkpt><trkpt lat="59.1049354803" lon="30.5182220321"><ele>300.07</ele><time>2026-08-20T21:33:15Z</time></trkpt><trkpt lat="59.1049346421" lon="30.5182324257"><ele>300.07</ele><time>2026-08-20T21:33:16Z</time></trkpt><trkpt lat="59.1049325466" lon="30.5182419810"><ele>300.07</ele><time>2026-08-20T21:33:17Z</time></trkpt><trkpt lat="59.1049321275" lon="30.5182537995"><ele>300.07</ele><time>2026-08-20T21:33:18Z</time></trkpt><trkpt lat="59.1049317922" lon="30.5182585772"><ele>300.07</ele><time>2026-08-20T21:33:19Z</time></trkpt><trkpt lat="59.1049339715" lon="30.5182537995"><ele>300.07</ele><time>2026-08-20T21:33:20Z</time></trkpt><trkpt lat="59.1049344745" lon="30.5182563979"><ele>300.07</ele><time>2026-08-20T21:33:21Z</time></trkpt><trkpt lat="59.1049344745" lon="30.5182563979"><ele>300.07</ele><time>2026-08-20T21:33:22Z</time></trkpt><trkpt lat="59.1049382463" lon="30.5182718206"><ele>300.07</ele><time>2026-08-20T21:33:23Z</time></trkpt><trkpt lat="59.1049422696" lon="30.5182815436"><ele>300.07</ele><time>2026-08-20T21:33:24Z</time></trkpt><trkpt lat="59.1049550939" lon="30.5182938650"><ele>300.07</ele><time>2026-08-20T21:33:25Z</time></trkpt><trkpt lat="59.1049614642" lon="30.5183091201"><ele>300.07</ele><time>2026-08-20T21:33:26Z</time></trkpt><trkpt lat="59.1049645655" lon="30.5183273926"><ele>300.07</ele><time>2026-08-20T21:33:27Z</time></trkpt><trkpt lat="59.1049685888" lon="30.5183437373"><ele>300.07</ele><time>2026-08-20T21:33:28Z</time></trkpt><trkpt lat="59.1049721930" lon="30.5183625966"><ele>300.07</ele><time>2026-08-20T21:33:29Z</time></trkpt><trkpt lat="59.1049719416" lon="30.5183787737"><ele>300.07</ele><time>2026-08-20T21:33:30Z</time></trkpt><trkpt lat="59.1049743723" lon="30.5183975492"><ele>300.07</ele><time>2026-08-20T21:33:31Z</time></trkpt><trkpt lat="59.1049747914" lon="30.5184201803"><ele>300.07</ele><time>2026-08-20T21:33:32Z</time></trkpt><trkpt lat="59.1049731988" lon="30.5184434820"><ele>300.07</ele><time>2026-08-20T21:33:33Z</time></trkpt><trkpt lat="59.1049733665" lon="30.5184646882"><ele>300.07</ele><time>2026-08-20T21:33:34Z</time></trkpt><trkpt lat="59.1049802396" lon="30.5184861459"><ele>300.07</ele><time>2026-08-20T21:33:35Z</time></trkpt><trkpt lat="59.1049877834" lon="30.5185029935"><ele>300.07</ele><time>2026-08-20T21:33:36Z</time></trkpt><trkpt lat="59.1049917229" lon="30.5185239483"><ele>300.07</ele><time>2026-08-20T21:33:37Z</time></trkpt><trkpt lat="59.1049945727" lon="30.5185431428"><ele>300.07</ele><time>2026-08-20T21:33:38Z</time></trkpt><trkpt lat="59.1049978416" lon="30.5185602419"><ele>300.07</ele><time>2026-08-20T21:33:39Z</time></trkpt><trkpt lat="59.1049977578" lon="30.5185683724"><ele>300.07</ele><time>2026-08-20T21:33:40Z</time></trkpt><trkpt lat="59.1049964167" lon="30.5185761675"><ele>300.07</ele><time>2026-08-20T21:33:41Z</time></trkpt><trkpt lat="59.1049920581" lon="30.5185837951"><ele>300.07</ele><time>2026-08-20T21:33:42Z</time></trkpt><trkpt lat="59.1049920581" lon="30.5185837951"><ele>300.07</ele><time>2026-08-20T21:33:43Z</time></trkpt><trkpt lat="59.1049920581" lon="30.5185837951"><ele>300.07</ele><time>2026-08-20T21:33:44Z</time></trkpt><trkpt lat="59.1049910523" lon="30.5186144728"><ele>300.07</ele><time>2026-08-20T21:33:45Z</time></trkpt><trkpt lat="59.1049929801" lon="30.5186323263"><ele>300.07</ele><time>2026-08-20T21:33:46Z</time></trkpt><trkpt lat="59.1049925610" lon="30.5186513532"><ele>300.07</ele><time>2026-08-20T21:33:47Z</time></trkpt><trkpt lat="59.1049932316" lon="30.5186706316"><ele>300.07</ele><time>2026-08-20T21:33:48Z</time></trkpt><trkpt lat="59.1049931478" lon="30.5186898261"><ele>300.07</ele><time>2026-08-20T21:33:49Z</time></trkpt><trkpt lat="59.1049941536" lon="30.5187081825"><ele>300.07</ele><time>2026-08-20T21:33:50Z</time></trkpt><trkpt lat="59.1049938183" lon="30.5187216774"><ele>300.07</ele><time>2026-08-20T21:33:51Z</time></trkpt><trkpt lat="59.1049926449" lon="30.5187398661"><ele>300.07</ele><time>2026-08-20T21:33:52Z</time></trkpt><trkpt lat="59.1049910523" lon="30.5187680293"><ele>300.07</ele><time>2026-08-20T21:33:53Z</time></trkpt><trkpt lat="59.1049904656" lon="30.5187988747"><ele>300.07</ele><time>2026-08-20T21:33:54Z</time></trkpt><trkpt lat="59.1049897950" lon="30.5188254453"><ele>300.07</ele><time>2026-08-20T21:33:55Z</time></trkpt><trkpt lat="59.1049872804" lon="30.5188470706"><ele>300.07</ele><time>2026-08-20T21:33:56Z</time></trkpt><trkpt lat="59.1049881186" lon="30.5188699532"><ele>300.07</ele><time>2026-08-20T21:33:57Z</time></trkpt><trkpt lat="59.1049897950" lon="30.5188936740"><ele>300.07</ele><time>2026-08-20T21:33:58Z</time></trkpt><trkpt lat="59.1049950756" lon="30.5189160537"><ele>300.07</ele><time>2026-08-20T21:33:59Z</time></trkpt><trkpt lat="59.1050005239" lon="30.5189351644"><ele>300.07</ele><time>2026-08-20T21:34:00Z</time></trkpt><trkpt lat="59.1050071456" lon="30.5189581309"><ele>300.07</ele><time>2026-08-20T21:34:01Z</time></trkpt><trkpt lat="59.1050126776" lon="30.5189828575"><ele>300.07</ele><time>2026-08-20T21:34:02Z</time></trkpt><trkpt lat="59.1050196346" lon="30.5190070812"><ele>300.07</ele><time>2026-08-20T21:34:03Z</time></trkpt><trkpt lat="59.1050261725" lon="30.5190283712"><ele>300.07</ele><time>2026-08-20T21:34:04Z</time></trkpt><trkpt lat="59.1050303634" lon="30.5190487392"><ele>300.07</ele><time>2026-08-20T21:34:05Z</time></trkpt><trkpt lat="59.1050360631" lon="30.5190672632"><ele>300.07</ele><time>2026-08-20T21:34:06Z</time></trkpt><trkpt lat="59.1050405893" lon="30.5190855358"><ele>300.07</ele><time>2026-08-20T21:34:07Z</time></trkpt><trkpt lat="59.1050410923" lon="30.5191009585"><ele>300.07</ele><time>2026-08-20T21:34:08Z</time></trkpt><trkpt lat="59.1050427686" lon="30.5191134475"><ele>300.07</ele><time>2026-08-20T21:34:09Z</time></trkpt><trkpt lat="59.1050406732" lon="30.5191238411"><ele>300.07</ele><time>2026-08-20T21:34:10Z</time></trkpt><trkpt lat="59.1050406732" lon="30.5191238411"><ele>300.07</ele><time>2026-08-20T21:34:11Z</time></trkpt><trkpt lat="59.1050406732" lon="30.5191238411"><ele>300.07</ele><time>2026-08-20T21:34:12Z</time></trkpt><trkpt lat="59.1050406732" lon="30.5191238411"><ele>300.07</ele><time>2026-08-20T21:34:13Z</time></trkpt><trkpt lat="59.1050406732" lon="30.5191238411"><ele>300.07</ele><time>2026-08-20T21:34:14Z</time></trkpt><trkpt lat="59.1050423495" lon="30.5191442929"><ele>300.07</ele><time>2026-08-20T21:34:15Z</time></trkpt><trkpt lat="59.1050481331" lon="30.5191602185"><ele>300.07</ele><time>2026-08-20T21:34:16Z</time></trkpt><trkpt lat="59.1050558444" lon="30.5191764794"><ele>300.07</ele><time>2026-08-20T21:34:17Z</time></trkpt><trkpt lat="59.1050597839" lon="30.5191926565"><ele>300.07</ele><time>2026-08-20T21:34:18Z</time></trkpt><trkpt lat="59.1050639749" lon="30.5192106776"><ele>300.07</ele><time>2026-08-20T21:34:19Z</time></trkpt><trkpt lat="59.1050677467" lon="30.5192294531"><ele>300.07</ele><time>2026-08-20T21:34:20Z</time></trkpt><trkpt lat="59.1050714348" lon="30.5192428641"><ele>300.07</ele><time>2026-08-20T21:34:21Z</time></trkpt><trkpt lat="59.1050750390" lon="30.5192516651"><ele>300.07</ele><time>2026-08-20T21:34:22Z</time></trkpt><trkpt lat="59.1050757933" lon="30.5192563590"><ele>300.07</ele><time>2026-08-20T21:34:23Z</time></trkpt><trkpt lat="59.1050750390" lon="30.5192618910"><ele>300.07</ele><time>2026-08-20T21:34:24Z</time></trkpt><trkpt lat="59.1050763801" lon="30.5192689318"><ele>300.07</ele><time>2026-08-20T21:34:25Z</time></trkpt><trkpt lat="59.1050792299" lon="30.5192809179"><ele>300.07</ele><time>2026-08-20T21:34:26Z</time></trkpt><trkpt lat="59.1050790623" lon="30.5192942452"><ele>300.07</ele><time>2026-08-20T21:34:27Z</time></trkpt><trkpt lat="59.1050811578" lon="30.5193011183"><ele>299.59</ele><time>2026-08-20T21:34:28Z</time></trkpt><trkpt lat="59.1050828341" lon="30.5193071533"><ele>299.59</ele><time>2026-08-20T21:34:29Z</time></trkpt><trkpt lat="59.1050842591" lon="30.5193126854"><ele>299.59</ele><time>2026-08-20T21:34:30Z</time></trkpt><trkpt lat="59.1050842591" lon="30.5193126854"><ele>299.59</ele><time>2026-08-20T21:34:31Z</time></trkpt><trkpt lat="59.1050842591" lon="30.5193126854"><ele>299.59</ele><time>2026-08-20T21:34:32Z</time></trkpt><trkpt lat="59.1050842591" lon="30.5193126854"><ele>299.59</ele><time>2026-08-20T21:34:33Z</time></trkpt><trkpt lat="59.1050842591" lon="30.5193126854"><ele>299.59</ele><time>2026-08-20T21:34:34Z</time></trkpt><trkpt lat="59.1050842591" lon="30.5193126854"><ele>299.59</ele><time>2026-08-20T21:34:35Z</time></trkpt><trkpt lat="59.1050842591" lon="30.5193126854"><ele>299.59</ele><time>2026-08-20T21:34:36Z</time></trkpt><trkpt lat="59.1050842591" lon="30.5193126854"><ele>300.07</ele><time>2026-08-20T21:34:37Z</time></trkpt><trkpt lat="59.1050728597" lon="30.5193516612"><ele>300.07</ele><time>2026-08-20T21:34:38Z</time></trkpt><trkpt lat="59.1050775535" lon="30.5193469673"><ele>300.07</ele><time>2026-08-20T21:34:39Z</time></trkpt><trkpt lat="59.1050811578" lon="30.5193426926"><ele>300.07</ele><time>2026-08-20T21:34:40Z</time></trkpt><trkpt lat="59.1050831694" lon="30.5193384178"><ele>300.07</ele><time>2026-08-20T21:34:41Z</time></trkpt><trkpt lat="59.1050843429" lon="30.5193358194"><ele>300.07</ele><time>2026-08-20T21:34:42Z</time></trkpt><trkpt lat="59.1050849296" lon="30.5193339754"><ele>300.07</ele><time>2026-08-20T21:34:43Z</time></trkpt><trkpt lat="59.1050843429" lon="30.5193347298"><ele>300.07</ele><time>2026-08-20T21:34:44Z</time></trkpt><trkpt lat="59.1050843429" lon="30.5193347298"><ele>300.07</ele><time>2026-08-20T21:34:45Z</time></trkpt><trkpt lat="59.1050843429" lon="30.5193347298"><ele>300.07</ele><time>2026-08-20T21:34:46Z</time></trkpt><trkpt lat="59.1050843429" lon="30.5193347298"><ele>300.07</ele><time>2026-08-20T21:34:47Z</time></trkpt><trkpt lat="59.1050843429" lon="30.5193347298"><ele>300.07</ele><time>2026-08-20T21:34:48Z</time></trkpt><trkpt lat="59.1050843429" lon="30.5193347298"><ele>300.07</ele><time>2026-08-20T21:34:49Z</time></trkpt><trkpt lat="59.1050843429" lon="30.5193347298"><ele>300.07</ele><time>2026-08-20T21:34:50Z</time></trkpt><trkpt lat="59.1050843429" lon="30.5193347298"><ele>299.59</ele><time>2026-08-20T21:34:51Z</time></trkpt><trkpt lat="59.1050843429" lon="30.5193347298"><ele>299.59</ele><time>2026-08-20T21:34:52Z</time></trkpt><trkpt lat="59.1050843429" lon="30.5193347298"><ele>299.59</ele><time>2026-08-20T21:34:53Z</time></trkpt><trkpt lat="59.1050843429" lon="30.5193347298"><ele>299.59</ele><time>2026-08-20T21:34:54Z</time></trkpt><trkpt lat="59.1050843429" lon="30.5193347298"><ele>299.59</ele><time>2026-08-20T21:34:55Z</time></trkpt><trkpt lat="59.1050843429" lon="30.5193347298"><ele>299.59</ele><time>2026-08-20T21:34:56Z</time></trkpt><trkpt lat="59.1050843429" lon="30.5193347298"><ele>299.59</ele><time>2026-08-20T21:34:57Z</time></trkpt><trkpt lat="59.1050843429" lon="30.5193347298"><ele>299.59</ele><time>2026-08-20T21:34:58Z</time></trkpt><trkpt lat="59.1050843429" lon="30.5193347298"><ele>299.59</ele><time>2026-08-20T21:34:59Z</time></trkpt><trkpt lat="59.1050843429" lon="30.5193347298"><ele>299.59</ele><time>2026-08-20T21:35:00Z</time></trkpt><trkpt lat="59.1050843429" lon="30.5193347298"><ele>299.59</ele><time>2026-08-20T21:35:01Z</time></trkpt><trkpt lat="59.1050843429" lon="30.5193347298"><ele>299.59</ele><time>2026-08-20T21:35:02Z</time></trkpt><trkpt lat="59.1050843429" lon="30.5193347298"><ele>299.59</ele><time>2026-08-20T21:35:03Z</time></trkpt><trkpt lat="59.1050843429" lon="30.5193347298"><ele>299.59</ele><time>2026-08-20T21:35:04Z</time></trkpt><trkpt lat="59.1050843429" lon="30.5193347298"><ele>299.59</ele><time>2026-08-20T21:35:05Z</time></trkpt><trkpt lat="59.1050843429" lon="30.5193347298"><ele>299.59</ele><time>2026-08-20T21:35:06Z</time></trkpt><trkpt lat="59.1050843429" lon="30.5193347298"><ele>299.59</ele><time>2026-08-20T21:35:07Z</time></trkpt><trkpt lat="59.1050843429" lon="30.5193347298"><ele>299.59</ele><time>2026-08-20T21:35:08Z</time></trkpt><trkpt lat="59.1050843429" lon="30.5193347298"><ele>299.59</ele><time>2026-08-20T21:35:09Z</time></trkpt><trkpt lat="59.1050843429" lon="30.5193347298"><ele>299.59</ele><time>2026-08-20T21:35:10Z</time></trkpt><trkpt lat="59.1050843429" lon="30.5193347298"><ele>299.59</ele><time>2026-08-20T21:35:11Z</time></trkpt><trkpt lat="59.1050843429" lon="30.5193347298"><ele>299.59</ele><time>2026-08-20T21:35:12Z</time></trkpt><trkpt lat="59.1050843429" lon="30.5193347298"><ele>299.59</ele><time>2026-08-20T21:35:13Z</time></trkpt><trkpt lat="59.1050843429" lon="30.5193347298"><ele>299.59</ele><time>2026-08-20T21:35:14Z</time></trkpt><trkpt lat="59.1050843429" lon="30.5193347298"><ele>299.59</ele><time>2026-08-20T21:35:15Z</time></trkpt><trkpt lat="59.1050843429" lon="30.5193347298"><ele>299.59</ele><time>2026-08-20T21:35:16Z</time></trkpt><trkpt lat="59.1050843429" lon="30.5193347298"><ele>299.59</ele><time>2026-08-20T21:35:17Z</time></trkpt><trkpt lat="59.1050843429" lon="30.5193347298"><ele>299.59</ele><time>2026-08-20T21:35:18Z</time></trkpt><trkpt lat="59.1050843429" lon="30.5193347298"><ele>299.59</ele><time>2026-08-20T21:35:19Z</time></trkpt><trkpt lat="59.1050843429" lon="30.5193347298"><ele>299.59</ele><time>2026-08-20T21:35:20Z</time></trkpt><trkpt lat="59.1050843429" lon="30.5193347298"><ele>299.59</ele><time>2026-08-20T21:35:21Z</time></trkpt><trkpt lat="59.1050843429" lon="30.5193347298"><ele>299.59</ele><time>2026-08-20T21:35:22Z</time></trkpt><trkpt lat="59.1050843429" lon="30.5193347298"><ele>299.59</ele><time>2026-08-20T21:35:23Z</time></trkpt><trkpt lat="59.1050843429" lon="30.5193347298"><ele>299.59</ele><time>2026-08-20T21:35:24Z</time></trkpt><trkpt lat="59.1050843429" lon="30.5193347298"><ele>299.59</ele><time>2026-08-20T21:35:25Z</time></trkpt><trkpt lat="59.1050843429" lon="30.5193347298"><ele>299.59</ele><time>2026-08-20T21:35:26Z</time></trkpt><trkpt lat="59.1050843429" lon="30.5193347298"><ele>299.59</ele><time>2026-08-20T21:35:27Z</time></trkpt><trkpt lat="59.1050843429" lon="30.5193347298"><ele>299.59</ele><time>2026-08-20T21:35:28Z</time></trkpt><trkpt lat="59.1050843429" lon="30.5193347298"><ele>299.59</ele><time>2026-08-20T21:35:29Z</time></trkpt><trkpt lat="59.1050843429" lon="30.5193347298"><ele>299.59</ele><time>2026-08-20T21:35:30Z</time></trkpt><trkpt lat="59.1050843429" lon="30.5193347298"><ele>299.59</ele><time>2026-08-20T21:35:31Z</time></trkpt><trkpt lat="59.1050843429" lon="30.5193347298"><ele>299.59</ele><time>2026-08-20T21:35:32Z</time></trkpt><trkpt lat="59.1050843429" lon="30.5193347298"><ele>299.59</ele><time>2026-08-20T21:35:33Z</time></trkpt><trkpt lat="59.1050843429" lon="30.5193347298"><ele>299.59</ele><time>2026-08-20T21:35:34Z</time></trkpt><trkpt lat="59.1050843429" lon="30.5193347298"><ele>299.59</ele><time>2026-08-20T21:35:35Z</time></trkpt><trkpt lat="59.1050843429" lon="30.5193347298"><ele>299.59</ele><time>2026-08-20T21:35:36Z</time></trkpt><trkpt lat="59.1050843429" lon="30.5193347298"><ele>299.59</ele><time>2026-08-20T21:35:37Z</time></trkpt><trkpt lat="59.1050843429" lon="30.5193347298"><ele>299.59</ele><time>2026-08-20T21:35:38Z</time></trkpt><trkpt lat="59.1050843429" lon="30.5193347298"><ele>299.59</ele><time>2026-08-20T21:35:39Z</time></trkpt><trkpt lat="59.1050843429" lon="30.5193347298"><ele>299.59</ele><time>2026-08-20T21:35:40Z</time></trkpt><trkpt lat="59.1050843429" lon="30.5193347298"><ele>299.59</ele><time>2026-08-20T21:35:41Z</time></trkpt><trkpt lat="59.1050843429" lon="30.5193347298"><ele>299.59</ele><time>2026-08-20T21:35:42Z</time></trkpt><trkpt lat="59.1050843429" lon="30.5193347298"><ele>299.59</ele><time>2026-08-20T21:35:43Z</time></trkpt><trkpt lat="59.1050843429" lon="30.5193347298"><ele>299.59</ele><time>2026-08-20T21:35:44Z</time></trkpt><trkpt lat="59.1050843429" lon="30.5193347298"><ele>299.59</ele><time>2026-08-20T21:35:45Z</time></trkpt><trkpt lat="59.1050843429" lon="30.5193347298"><ele>299.59</ele><time>2026-08-20T21:35:46Z</time></trkpt><trkpt lat="59.1050843429" lon="30.5193347298"><ele>299.59</ele><time>2026-08-20T21:35:47Z</time></trkpt><trkpt lat="59.1050843429" lon="30.5193347298"><ele>299.59</ele><time>2026-08-20T21:35:48Z</time></trkpt><trkpt lat="59.1050843429" lon="30.5193347298"><ele>299.59</ele><time>2026-08-20T21:35:49Z</time></trkpt><trkpt lat="59.1050843429" lon="30.5193347298"><ele>299.59</ele><time>2026-08-20T21:35:50Z</time></trkpt><trkpt lat="59.1050843429" lon="30.5193347298"><ele>299.59</ele><time>2026-08-20T21:35:51Z</time></trkpt><trkpt lat="59.1050843429" lon="30.5193347298"><ele>299.59</ele><time>2026-08-20T21:35:52Z</time></trkpt><trkpt lat="59.1050843429" lon="30.5193347298"><ele>299.59</ele><time>2026-08-20T21:35:53Z</time></trkpt><trkpt lat="59.1050843429" lon="30.5193347298"><ele>299.59</ele><time>2026-08-20T21:35:54Z</time></trkpt><trkpt lat="59.1050598677" lon="30.5193315446"><ele>299.59</ele><time>2026-08-20T21:35:55Z</time></trkpt><trkpt lat="59.1050555930" lon="30.5193298683"><ele>299.59</ele><time>2026-08-20T21:35:56Z</time></trkpt><trkpt lat="59.1050549224" lon="30.5193296168"><ele>299.59</ele><time>2026-08-20T21:35:57Z</time></trkpt><trkpt lat="59.1050543357" lon="30.5193326343"><ele>299.59</ele><time>2026-08-20T21:35:58Z</time></trkpt><trkpt lat="59.1050542518" lon="30.5193333887"><ele>299.59</ele><time>2026-08-20T21:35:59Z</time></trkpt><trkpt lat="59.1050542518" lon="30.5193333887"><ele>299.59</ele><time>2026-08-20T21:36:00Z</time></trkpt><trkpt lat="59.1050542518" lon="30.5193333887"><ele>299.59</ele><time>2026-08-20T21:36:01Z</time></trkpt><trkpt lat="59.1050542518" lon="30.5193333887"><ele>299.59</ele><time>2026-08-20T21:36:02Z</time></trkpt><trkpt lat="59.1050542518" lon="30.5193333887"><ele>299.59</ele><time>2026-08-20T21:36:03Z</time></trkpt><trkpt lat="59.1050542518" lon="30.5193333887"><ele>299.59</ele><time>2026-08-20T21:36:04Z</time></trkpt><trkpt lat="59.1050542518" lon="30.5193333887"><ele>299.59</ele><time>2026-08-20T21:36:05Z</time></trkpt><trkpt lat="59.1050542518" lon="30.5193333887"><ele>299.59</ele><time>2026-08-20T21:36:06Z</time></trkpt><trkpt lat="59.1050542518" lon="30.5193333887"><ele>299.59</ele><time>2026-08-20T21:36:07Z</time></trkpt><trkpt lat="59.1050542518" lon="30.5193333887"><ele>299.59</ele><time>2026-08-20T21:36:08Z</time></trkpt><trkpt lat="59.1050542518" lon="30.5193333887"><ele>299.59</ele><time>2026-08-20T21:36:09Z</time></trkpt><trkpt lat="59.1050542518" lon="30.5193333887"><ele>299.59</ele><time>2026-08-20T21:36:10Z</time></trkpt><trkpt lat="59.1050542518" lon="30.5193333887"><ele>299.59</ele><time>2026-08-20T21:36:11Z</time></trkpt><trkpt lat="59.1050542518" lon="30.5193333887"><ele>299.59</ele><time>2026-08-20T21:36:12Z</time></trkpt><trkpt lat="59.1050542518" lon="30.5193333887"><ele>299.59</ele><time>2026-08-20T21:36:13Z</time></trkpt><trkpt lat="59.1050542518" lon="30.5193333887"><ele>299.59</ele><time>2026-08-20T21:36:14Z</time></trkpt><trkpt lat="59.1050542518" lon="30.5193333887"><ele>299.59</ele><time>2026-08-20T21:36:15Z</time></trkpt><trkpt lat="59.1050542518" lon="30.5193333887"><ele>299.59</ele><time>2026-08-20T21:36:16Z</time></trkpt><trkpt lat="59.1050542518" lon="30.5193333887"><ele>299.59</ele><time>2026-08-20T21:36:17Z</time></trkpt><trkpt lat="59.1050542518" lon="30.5193333887"><ele>299.59</ele><time>2026-08-20T21:36:18Z</time></trkpt><trkpt lat="59.1050542518" lon="30.5193333887"><ele>299.59</ele><time>2026-08-20T21:36:19Z</time></trkpt><trkpt lat="59.1050542518" lon="30.5193333887"><ele>299.59</ele><time>2026-08-20T21:36:20Z</time></trkpt><trkpt lat="59.1050542518" lon="30.5193333887"><ele>299.59</ele><time>2026-08-20T21:36:21Z</time></trkpt><trkpt lat="59.1050542518" lon="30.5193333887"><ele>299.59</ele><time>2026-08-20T21:36:22Z</time></trkpt><trkpt lat="59.1050542518" lon="30.5193333887"><ele>299.59</ele><time>2026-08-20T21:36:23Z</time></trkpt><trkpt lat="59.1050542518" lon="30.5193333887"><ele>299.59</ele><time>2026-08-20T21:36:24Z</time></trkpt><trkpt lat="59.1050542518" lon="30.5193333887"><ele>299.59</ele><time>2026-08-20T21:36:25Z</time></trkpt><trkpt lat="59.1050542518" lon="30.5193333887"><ele>299.59</ele><time>2026-08-20T21:36:26Z</time></trkpt><trkpt lat="59.1050542518" lon="30.5193333887"><ele>299.59</ele><time>2026-08-20T21:36:27Z</time></trkpt><trkpt lat="59.1050542518" lon="30.5193333887"><ele>299.59</ele><time>2026-08-20T21:36:28Z</time></trkpt><trkpt lat="59.1050542518" lon="30.5193333887"><ele>299.59</ele><time>2026-08-20T21:36:29Z</time></trkpt><trkpt lat="59.1050542518" lon="30.5193333887"><ele>299.59</ele><time>2026-08-20T21:36:30Z</time></trkpt><trkpt lat="59.1050542518" lon="30.5193333887"><ele>299.59</ele><time>2026-08-20T21:36:31Z</time></trkpt><trkpt lat="59.1050542518" lon="30.5193333887"><ele>299.59</ele><time>2026-08-20T21:36:32Z</time></trkpt><trkpt lat="59.1050542518" lon="30.5193333887"><ele>299.59</ele><time>2026-08-20T21:36:33Z</time></trkpt><trkpt lat="59.1050542518" lon="30.5193333887"><ele>299.59</ele><time>2026-08-20T21:36:34Z</time></trkpt><trkpt lat="59.1050542518" lon="30.5193333887"><ele>299.59</ele><time>2026-08-20T21:36:35Z</time></trkpt><trkpt lat="59.1050542518" lon="30.5193333887"><ele>299.59</ele><time>2026-08-20T21:36:36Z</time></trkpt><trkpt lat="59.1050542518" lon="30.5193333887"><ele>299.59</ele><time>2026-08-20T21:36:37Z</time></trkpt><trkpt lat="59.1050542518" lon="30.5193333887"><ele>299.59</ele><time>2026-08-20T21:36:38Z</time></trkpt><trkpt lat="59.1050542518" lon="30.5193333887"><ele>299.59</ele><time>2026-08-20T21:36:39Z</time></trkpt><trkpt lat="59.1050542518" lon="30.5193333887"><ele>299.59</ele><time>2026-08-20T21:36:40Z</time></trkpt><trkpt lat="59.1050542518" lon="30.5193333887"><ele>299.59</ele><time>2026-08-20T21:36:41Z</time></trkpt><trkpt lat="59.1050542518" lon="30.5193333887"><ele>299.59</ele><time>2026-08-20T21:36:42Z</time></trkpt><trkpt lat="59.1050542518" lon="30.5193333887"><ele>299.59</ele><time>2026-08-20T21:36:43Z</time></trkpt><trkpt lat="59.1050542518" lon="30.5193333887"><ele>299.59</ele><time>2026-08-20T21:36:44Z</time></trkpt><trkpt lat="59.1050542518" lon="30.5193333887"><ele>299.59</ele><time>2026-08-20T21:36:45Z</time></trkpt><trkpt lat="59.1050542518" lon="30.5193333887"><ele>299.59</ele><time>2026-08-20T21:36:46Z</time></trkpt><trkpt lat="59.1050542518" lon="30.5193333887"><ele>299.59</ele><time>2026-08-20T21:36:47Z</time></trkpt><trkpt lat="59.1050542518" lon="30.5193333887"><ele>299.59</ele><time>2026-08-20T21:36:48Z</time></trkpt><trkpt lat="59.1050542518" lon="30.5193333887"><ele>299.59</ele><time>2026-08-20T21:36:49Z</time></trkpt><trkpt lat="59.1050542518" lon="30.5193333887"><ele>299.59</ele><time>2026-08-20T21:36:50Z</time></trkpt><trkpt lat="59.1050542518" lon="30.5193333887"><ele>299.59</ele><time>2026-08-20T21:36:51Z</time></trkpt><trkpt lat="59.1050542518" lon="30.5193333887"><ele>299.59</ele><time>2026-08-20T21:36:52Z</time></trkpt><trkpt lat="59.1050542518" lon="30.5193333887"><ele>299.59</ele><time>2026-08-20T21:36:53Z</time></trkpt><trkpt lat="59.1050542518" lon="30.5193333887"><ele>299.59</ele><time>2026-08-20T21:36:54Z</time></trkpt><trkpt lat="59.1050542518" lon="30.5193333887"><ele>299.59</ele><time>2026-08-20T21:36:55Z</time></trkpt><trkpt lat="59.1050542518" lon="30.5193333887"><ele>299.59</ele><time>2026-08-20T21:36:56Z</time></trkpt><trkpt lat="59.1050542518" lon="30.5193333887"><ele>299.59</ele><time>2026-08-20T21:36:57Z</time></trkpt><trkpt lat="59.1050542518" lon="30.5193333887"><ele>299.59</ele><time>2026-08-20T21:36:58Z</time></trkpt><trkpt lat="59.1050542518" lon="30.5193333887"><ele>299.59</ele><time>2026-08-20T21:36:59Z</time></trkpt><trkpt lat="59.1050542518" lon="30.5193333887"><ele>299.59</ele><time>2026-08-20T21:37:00Z</time></trkpt><trkpt lat="59.1050542518" lon="30.5193333887"><ele>299.59</ele><time>2026-08-20T21:37:01Z</time></trkpt><trkpt lat="59.1050542518" lon="30.5193333887"><ele>299.59</ele><time>2026-08-20T21:37:02Z</time></trkpt><trkpt lat="59.1050542518" lon="30.5193333887"><ele>299.59</ele><time>2026-08-20T21:37:03Z</time></trkpt><trkpt lat="59.1050542518" lon="30.5193333887"><ele>299.59</ele><time>2026-08-20T21:37:04Z</time></trkpt><trkpt lat="59.1050542518" lon="30.5193333887"><ele>299.59</ele><time>2026-08-20T21:37:05Z</time></trkpt><trkpt lat="59.1050542518" lon="30.5193333887"><ele>299.59</ele><time>2026-08-20T21:37:06Z</time></trkpt><trkpt lat="59.1050542518" lon="30.5193333887"><ele>299.59</ele><time>2026-08-20T21:37:07Z</time></trkpt><trkpt lat="59.1050542518" lon="30.5193333887"><ele>299.59</ele><time>2026-08-20T21:37:08Z</time></trkpt><trkpt lat="59.1050542518" lon="30.5193333887"><ele>299.59</ele><time>2026-08-20T21:37:09Z</time></trkpt><trkpt lat="59.1050542518" lon="30.5193333887"><ele>299.59</ele><time>2026-08-20T21:37:10Z</time></trkpt><trkpt lat="59.1050542518" lon="30.5193333887"><ele>299.59</ele><time>2026-08-20T21:37:11Z</time></trkpt><trkpt lat="59.1050542518" lon="30.5193333887"><ele>299.59</ele><time>2026-08-20T21:37:12Z</time></trkpt><trkpt lat="59.1050542518" lon="30.5193333887"><ele>299.59</ele><time>2026-08-20T21:37:13Z</time></trkpt><trkpt lat="59.1050542518" lon="30.5193333887"><ele>299.59</ele><time>2026-08-20T21:37:14Z</time></trkpt><trkpt lat="59.1050542518" lon="30.5193333887"><ele>299.59</ele><time>2026-08-20T21:37:15Z</time></trkpt><trkpt lat="59.1050542518" lon="30.5193333887"><ele>299.59</ele><time>2026-08-20T21:37:16Z</time></trkpt><trkpt lat="59.1050542518" lon="30.5193333887"><ele>299.59</ele><time>2026-08-20T21:37:17Z</time></trkpt><trkpt lat="59.1050542518" lon="30.5193333887"><ele>299.59</ele><time>2026-08-20T21:37:18Z</time></trkpt><trkpt lat="59.1050542518" lon="30.5193333887"><ele>299.59</ele><time>2026-08-20T21:37:19Z</time></trkpt><trkpt lat="59.1050542518" lon="30.5193333887"><ele>299.59</ele><time>2026-08-20T21:37:20Z</time></trkpt><trkpt lat="59.1050542518" lon="30.5193333887"><ele>299.59</ele><time>2026-08-20T21:37:21Z</time></trkpt><trkpt lat="59.1050542518" lon="30.5193333887"><ele>299.59</ele><time>2026-08-20T21:37:22Z</time></trkpt><trkpt lat="59.1050542518" lon="30.5193333887"><ele>299.59</ele><time>2026-08-20T21:37:23Z</time></trkpt><trkpt lat="59.1050542518" lon="30.5193333887"><ele>299.59</ele><time>2026-08-20T21:37:24Z</time></trkpt><trkpt lat="59.1050542518" lon="30.5193333887"><ele>299.59</ele><time>2026-08-20T21:37:25Z</time></trkpt><trkpt lat="59.1050542518" lon="30.5193333887"><ele>299.59</ele><time>2026-08-20T21:37:26Z</time></trkpt><trkpt lat="59.1050542518" lon="30.5193333887"><ele>299.59</ele><time>2026-08-20T21:37:27Z</time></trkpt><trkpt lat="59.1050542518" lon="30.5193333887"><ele>299.59</ele><time>2026-08-20T21:37:28Z</time></trkpt><trkpt lat="59.1050542518" lon="30.5193333887"><ele>299.59</ele><time>2026-08-20T21:37:29Z</time></trkpt><trkpt lat="59.1050542518" lon="30.5193333887"><ele>299.59</ele><time>2026-08-20T21:37:30Z</time></trkpt><trkpt lat="59.1050542518" lon="30.5193333887"><ele>299.59</ele><time>2026-08-20T21:37:31Z</time></trkpt><trkpt lat="59.1050542518" lon="30.5193333887"><ele>299.59</ele><time>2026-08-20T21:37:32Z</time></trkpt><trkpt lat="59.1050542518" lon="30.5193333887"><ele>299.59</ele><time>2026-08-20T21:37:33Z</time></trkpt><trkpt lat="59.1050542518" lon="30.5193333887"><ele>299.59</ele><time>2026-08-20T21:37:34Z</time></trkpt><trkpt lat="59.1050542518" lon="30.5193333887"><ele>299.59</ele><time>2026-08-20T21:37:35Z</time></trkpt><trkpt lat="59.1050542518" lon="30.5193333887"><ele>299.59</ele><time>2026-08-20T21:37:36Z</time></trkpt><trkpt lat="59.1050542518" lon="30.5193333887"><ele>299.59</ele><time>2026-08-20T21:37:37Z</time></trkpt><trkpt lat="59.1050542518" lon="30.5193333887"><ele>299.59</ele><time>2026-08-20T21:37:38Z</time></trkpt><trkpt lat="59.1050542518" lon="30.5193333887"><ele>299.59</ele><time>2026-08-20T21:37:39Z</time></trkpt><trkpt lat="59.1050542518" lon="30.5193333887"><ele>299.59</ele><time>2026-08-20T21:37:40Z</time></trkpt><trkpt lat="59.1050542518" lon="30.5193333887"><ele>299.59</ele><time>2026-08-20T21:37:41Z</time></trkpt><trkpt lat="59.1050542518" lon="30.5193333887"><ele>299.59</ele><time>2026-08-20T21:37:42Z</time></trkpt><trkpt lat="59.1050542518" lon="30.5193333887"><ele>299.59</ele><time>2026-08-20T21:37:43Z</time></trkpt><trkpt lat="59.1050542518" lon="30.5193333887"><ele>299.59</ele><time>2026-08-20T21:37:44Z</time></trkpt><trkpt lat="59.1050542518" lon="30.5193333887"><ele>299.59</ele><time>2026-08-20T21:37:45Z</time></trkpt><trkpt lat="59.1050542518" lon="30.5193333887"><ele>299.59</ele><time>2026-08-20T21:37:46Z</time></trkpt><trkpt lat="59.1050542518" lon="30.5193333887"><ele>299.59</ele><time>2026-08-20T21:37:47Z</time></trkpt><trkpt lat="59.1050542518" lon="30.5193333887"><ele>299.59</ele><time>2026-08-20T21:37:48Z</time></trkpt><trkpt lat="59.1050542518" lon="30.5193333887"><ele>299.59</ele><time>2026-08-20T21:37:49Z</time></trkpt><trkpt lat="59.1050542518" lon="30.5193333887"><ele>299.59</ele><time>2026-08-20T21:37:50Z</time></trkpt><trkpt lat="59.1050542518" lon="30.5193333887"><ele>299.59</ele><time>2026-08-20T21:37:51Z</time></trkpt><trkpt lat="59.1050542518" lon="30.5193333887"><ele>299.59</ele><time>2026-08-20T21:37:52Z</time></trkpt><trkpt lat="59.1050542518" lon="30.5193333887"><ele>299.59</ele><time>2026-08-20T21:37:53Z</time></trkpt><trkpt lat="59.1050542518" lon="30.5193333887"><ele>299.59</ele><time>2026-08-20T21:37:54Z</time></trkpt><trkpt lat="59.1050542518" lon="30.5193333887"><ele>299.59</ele><time>2026-08-20T21:37:55Z</time></trkpt><trkpt lat="59.1050542518" lon="30.5193333887"><ele>299.59</ele><time>2026-08-20T21:37:56Z</time></trkpt><trkpt lat="59.1050542518" lon="30.5193333887"><ele>299.59</ele><time>2026-08-20T21:37:57Z</time></trkpt><trkpt lat="59.1050542518" lon="30.5193333887"><ele>299.59</ele><time>2026-08-20T21:37:58Z</time></trkpt><trkpt lat="59.1050542518" lon="30.5193333887"><ele>299.59</ele><time>2026-08-20T21:37:59Z</time></trkpt><trkpt lat="59.1050542518" lon="30.5193333887"><ele>299.59</ele><time>2026-08-20T21:38:00Z</time></trkpt><trkpt lat="59.1050542518" lon="30.5193333887"><ele>299.59</ele><time>2026-08-20T21:38:01Z</time></trkpt><trkpt lat="59.1050542518" lon="30.5193333887"><ele>299.59</ele><time>2026-08-20T21:38:02Z</time></trkpt><trkpt lat="59.1050542518" lon="30.5193333887"><ele>299.59</ele><time>2026-08-20T21:38:03Z</time></trkpt><trkpt lat="59.1050542518" lon="30.5193333887"><ele>299.59</ele><time>2026-08-20T21:38:04Z</time></trkpt><trkpt lat="59.1050542518" lon="30.5193333887"><ele>299.59</ele><time>2026-08-20T21:38:05Z</time></trkpt><trkpt lat="59.1050542518" lon="30.5193333887"><ele>299.59</ele><time>2026-08-20T21:38:06Z</time></trkpt><trkpt lat="59.1050542518" lon="30.5193333887"><ele>299.59</ele><time>2026-08-20T21:38:07Z</time></trkpt><trkpt lat="59.1050542518" lon="30.5193333887"><ele>299.59</ele><time>2026-08-20T21:38:08Z</time></trkpt><trkpt lat="59.1050542518" lon="30.5193333887"><ele>299.59</ele><time>2026-08-20T21:38:09Z</time></trkpt><trkpt lat="59.1050542518" lon="30.5193333887"><ele>299.59</ele><time>2026-08-20T21:38:10Z</time></trkpt><trkpt lat="59.1050542518" lon="30.5193333887"><ele>299.59</ele><time>2026-08-20T21:38:11Z</time></trkpt><trkpt lat="59.1050542518" lon="30.5193333887"><ele>299.59</ele><time>2026-08-20T21:38:12Z</time></trkpt><trkpt lat="59.1050542518" lon="30.5193333887"><ele>299.59</ele><time>2026-08-20T21:38:13Z</time></trkpt><trkpt lat="59.1050542518" lon="30.5193333887"><ele>299.59</ele><time>2026-08-20T21:38:14Z</time></trkpt><trkpt lat="59.1050542518" lon="30.5193333887"><ele>299.59</ele><time>2026-08-20T21:38:15Z</time></trkpt><trkpt lat="59.1050542518" lon="30.5193333887"><ele>299.59</ele><time>2026-08-20T21:38:16Z</time></trkpt><trkpt lat="59.1050542518" lon="30.5193333887"><ele>299.59</ele><time>2026-08-20T21:38:17Z</time></trkpt><trkpt lat="59.1050542518" lon="30.5193333887"><ele>299.59</ele><time>2026-08-20T21:38:18Z</time></trkpt><trkpt lat="59.1050542518" lon="30.5193333887"><ele>299.59</ele><time>2026-08-20T21:38:19Z</time></trkpt><trkpt lat="59.1050542518" lon="30.5193333887"><ele>299.59</ele><time>2026-08-20T21:38:20Z</time></trkpt><trkpt lat="59.1050542518" lon="30.5193333887"><ele>299.59</ele><time>2026-08-20T21:38:21Z</time></trkpt><trkpt lat="59.1050542518" lon="30.5193333887"><ele>299.59</ele><time>2026-08-20T21:38:22Z</time></trkpt><trkpt lat="59.1050542518" lon="30.5193333887"><ele>299.59</ele><time>2026-08-20T21:38:23Z</time></trkpt><trkpt lat="59.1050542518" lon="30.5193333887"><ele>299.59</ele><time>2026-08-20T21:38:24Z</time></trkpt><trkpt lat="59.1050542518" lon="30.5193333887"><ele>299.59</ele><time>2026-08-20T21:38:25Z</time></trkpt><trkpt lat="59.1050542518" lon="30.5193333887"><ele>299.59</ele><time>2026-08-20T21:38:26Z</time></trkpt><trkpt lat="59.1049881186" lon="30.5193090811"><ele>299.59</ele><time>2026-08-20T21:38:27Z</time></trkpt><trkpt lat="59.1049866937" lon="30.5193075724"><ele>299.59</ele><time>2026-08-20T21:38:28Z</time></trkpt><trkpt lat="59.1049850173" lon="30.5193043873"><ele>299.59</ele><time>2026-08-20T21:38:29Z</time></trkpt><trkpt lat="59.1049830895" lon="30.5193022918"><ele>299.59</ele><time>2026-08-20T21:38:30Z</time></trkpt><trkpt lat="59.1049830895" lon="30.5193022918"><ele>299.59</ele><time>2026-08-20T21:38:31Z</time></trkpt><trkpt lat="59.1049830895" lon="30.5193022918"><ele>299.59</ele><time>2026-08-20T21:38:32Z</time></trkpt><trkpt lat="59.1049830895" lon="30.5193022918"><ele>299.59</ele><time>2026-08-20T21:38:33Z</time></trkpt><trkpt lat="59.1049830895" lon="30.5193022918"><ele>299.59</ele><time>2026-08-20T21:38:34Z</time></trkpt><trkpt lat="59.1049830895" lon="30.5193022918"><ele>299.59</ele><time>2026-08-20T21:38:35Z</time></trkpt><trkpt lat="59.1049830895" lon="30.5193022918"><ele>299.59</ele><time>2026-08-20T21:38:36Z</time></trkpt><trkpt lat="59.1049830895" lon="30.5193022918"><ele>299.59</ele><time>2026-08-20T21:38:37Z</time></trkpt><trkpt lat="59.1049830895" lon="30.5193022918"><ele>299.59</ele><time>2026-08-20T21:38:38Z</time></trkpt><trkpt lat="59.1049830895" lon="30.5193022918"><ele>299.59</ele><time>2026-08-20T21:38:39Z</time></trkpt><trkpt lat="59.1049830895" lon="30.5193022918"><ele>299.59</ele><time>2026-08-20T21:38:40Z</time></trkpt><trkpt lat="59.1049830895" lon="30.5193022918"><ele>299.59</ele><time>2026-08-20T21:38:41Z</time></trkpt><trkpt lat="59.1049830895" lon="30.5193022918"><ele>299.59</ele><time>2026-08-20T21:38:42Z</time></trkpt><trkpt lat="59.1049830895" lon="30.5193022918"><ele>299.59</ele><time>2026-08-20T21:38:43Z</time></trkpt><trkpt lat="59.1049830895" lon="30.5193022918"><ele>299.59</ele><time>2026-08-20T21:38:44Z</time></trkpt><trkpt lat="59.1049830895" lon="30.5193022918"><ele>299.59</ele><time>2026-08-20T21:38:45Z</time></trkpt><trkpt lat="59.1049830895" lon="30.5193022918"><ele>299.59</ele><time>2026-08-20T21:38:46Z</time></trkpt><trkpt lat="59.1049830895" lon="30.5193022918"><ele>299.59</ele><time>2026-08-20T21:38:47Z</time></trkpt><trkpt lat="59.1049830895" lon="30.5193022918"><ele>299.59</ele><time>2026-08-20T21:38:48Z</time></trkpt><trkpt lat="59.1049830895" lon="30.5193022918"><ele>299.59</ele><time>2026-08-20T21:38:49Z</time></trkpt><trkpt lat="59.1049830895" lon="30.5193022918"><ele>299.59</ele><time>2026-08-20T21:38:50Z</time></trkpt><trkpt lat="59.1049830895" lon="30.5193022918"><ele>299.59</ele><time>2026-08-20T21:38:51Z</time></trkpt><trkpt lat="59.1049830895" lon="30.5193022918"><ele>299.59</ele><time>2026-08-20T21:38:52Z</time></trkpt><trkpt lat="59.1049830895" lon="30.5193022918"><ele>299.59</ele><time>2026-08-20T21:38:53Z</time></trkpt><trkpt lat="59.1049830895" lon="30.5193022918"><ele>299.59</ele><time>2026-08-20T21:38:54Z</time></trkpt><trkpt lat="59.1049830895" lon="30.5193022918"><ele>299.59</ele><time>2026-08-20T21:38:55Z</time></trkpt><trkpt lat="59.1049830895" lon="30.5193022918"><ele>299.59</ele><time>2026-08-20T21:38:56Z</time></trkpt><trkpt lat="59.1049830895" lon="30.5193022918"><ele>299.59</ele><time>2026-08-20T21:38:57Z</time></trkpt><trkpt lat="59.1049830895" lon="30.5193022918"><ele>299.59</ele><time>2026-08-20T21:38:58Z</time></trkpt><trkpt lat="59.1049830895" lon="30.5193022918"><ele>299.59</ele><time>2026-08-20T21:38:59Z</time></trkpt><trkpt lat="59.1049830895" lon="30.5193022918"><ele>299.59</ele><time>2026-08-20T21:39:00Z</time></trkpt><trkpt lat="59.1049830895" lon="30.5193022918"><ele>299.59</ele><time>2026-08-20T21:39:01Z</time></trkpt><trkpt lat="59.1049830895" lon="30.5193022918"><ele>299.59</ele><time>2026-08-20T21:39:02Z</time></trkpt><trkpt lat="59.1049830895" lon="30.5193022918"><ele>299.59</ele><time>2026-08-20T21:39:03Z</time></trkpt><trkpt lat="59.1049830895" lon="30.5193022918"><ele>299.59</ele><time>2026-08-20T21:39:04Z</time></trkpt><trkpt lat="59.1049830895" lon="30.5193022918"><ele>299.59</ele><time>2026-08-20T21:39:05Z</time></trkpt><trkpt lat="59.1049830895" lon="30.5193022918"><ele>299.59</ele><time>2026-08-20T21:39:06Z</time></trkpt><trkpt lat="59.1049830895" lon="30.5193022918"><ele>299.59</ele><time>2026-08-20T21:39:07Z</time></trkpt><trkpt lat="59.1049830895" lon="30.5193022918"><ele>299.59</ele><time>2026-08-20T21:39:08Z</time></trkpt><trkpt lat="59.1049830895" lon="30.5193022918"><ele>299.59</ele><time>2026-08-20T21:39:09Z</time></trkpt><trkpt lat="59.1049830895" lon="30.5193022918"><ele>299.59</ele><time>2026-08-20T21:39:10Z</time></trkpt><trkpt lat="59.1049830895" lon="30.5193022918"><ele>299.59</ele><time>2026-08-20T21:39:11Z</time></trkpt><trkpt lat="59.1049830895" lon="30.5193022918"><ele>299.59</ele><time>2026-08-20T21:39:12Z</time></trkpt><trkpt lat="59.1049830895" lon="30.5193022918"><ele>299.59</ele><time>2026-08-20T21:39:13Z</time></trkpt><trkpt lat="59.1049830895" lon="30.5193022918"><ele>299.59</ele><time>2026-08-20T21:39:14Z</time></trkpt><trkpt lat="59.1049830895" lon="30.5193022918"><ele>299.59</ele><time>2026-08-20T21:39:15Z</time></trkpt><trkpt lat="59.1049830895" lon="30.5193022918"><ele>299.59</ele><time>2026-08-20T21:39:16Z</time></trkpt><trkpt lat="59.1049830895" lon="30.5193022918"><ele>299.59</ele><time>2026-08-20T21:39:17Z</time></trkpt><trkpt lat="59.1049830895" lon="30.5193022918"><ele>299.59</ele><time>2026-08-20T21:39:18Z</time></trkpt><trkpt lat="59.1049830895" lon="30.5193022918"><ele>299.59</ele><time>2026-08-20T21:39:19Z</time></trkpt><trkpt lat="59.1049830895" lon="30.5193022918"><ele>299.59</ele><time>2026-08-20T21:39:20Z</time></trkpt><trkpt lat="59.1049830895" lon="30.5193022918"><ele>299.59</ele><time>2026-08-20T21:39:21Z</time></trkpt><trkpt lat="59.1049830895" lon="30.5193022918"><ele>299.59</ele><time>2026-08-20T21:39:22Z</time></trkpt><trkpt lat="59.1049830895" lon="30.5193022918"><ele>299.59</ele><time>2026-08-20T21:39:23Z</time></trkpt><trkpt lat="59.1049830895" lon="30.5193022918"><ele>299.59</ele><time>2026-08-20T21:39:24Z</time></trkpt><trkpt lat="59.1049830895" lon="30.5193022918"><ele>299.59</ele><time>2026-08-20T21:39:25Z</time></trkpt><trkpt lat="59.1049830895" lon="30.5193022918"><ele>299.59</ele><time>2026-08-20T21:39:26Z</time></trkpt><trkpt lat="59.1049830895" lon="30.5193022918"><ele>299.59</ele><time>2026-08-20T21:39:27Z</time></trkpt><trkpt lat="59.1049830895" lon="30.5193022918"><ele>299.59</ele><time>2026-08-20T21:39:28Z</time></trkpt><trkpt lat="59.1049830895" lon="30.5193022918"><ele>299.59</ele><time>2026-08-20T21:39:29Z</time></trkpt><trkpt lat="59.1049830895" lon="30.5193022918"><ele>299.59</ele><time>2026-08-20T21:39:30Z</time></trkpt><trkpt lat="59.1049830895" lon="30.5193022918"><ele>299.59</ele><time>2026-08-20T21:39:31Z</time></trkpt><trkpt lat="59.1049830895" lon="30.5193022918"><ele>299.59</ele><time>2026-08-20T21:39:32Z</time></trkpt><trkpt lat="59.1049830895" lon="30.5193022918"><ele>299.59</ele><time>2026-08-20T21:39:33Z</time></trkpt><trkpt lat="59.1049830895" lon="30.5193022918"><ele>299.59</ele><time>2026-08-20T21:39:34Z</time></trkpt><trkpt lat="59.1049830895" lon="30.5193022918"><ele>299.59</ele><time>2026-08-20T21:39:35Z</time></trkpt><trkpt lat="59.1049830895" lon="30.5193022918"><ele>299.59</ele><time>2026-08-20T21:39:36Z</time></trkpt><trkpt lat="59.1049830895" lon="30.5193022918"><ele>299.59</ele><time>2026-08-20T21:39:37Z</time></trkpt><trkpt lat="59.1049830895" lon="30.5193022918"><ele>299.59</ele><time>2026-08-20T21:39:38Z</time></trkpt><trkpt lat="59.1049830895" lon="30.5193022918"><ele>299.59</ele><time>2026-08-20T21:39:39Z</time></trkpt><trkpt lat="59.1049830895" lon="30.5193022918"><ele>299.59</ele><time>2026-08-20T21:39:40Z</time></trkpt><trkpt lat="59.1049830895" lon="30.5193022918"><ele>299.59</ele><time>2026-08-20T21:39:41Z</time></trkpt><trkpt lat="59.1049830895" lon="30.5193022918"><ele>299.59</ele><time>2026-08-20T21:39:42Z</time></trkpt><trkpt lat="59.1049830895" lon="30.5193022918"><ele>299.59</ele><time>2026-08-20T21:39:43Z</time></trkpt><trkpt lat="59.1049830895" lon="30.5193022918"><ele>299.59</ele><time>2026-08-20T21:39:44Z</time></trkpt><trkpt lat="59.1049830895" lon="30.5193022918"><ele>299.59</ele><time>2026-08-20T21:39:45Z</time></trkpt><trkpt lat="59.1049830895" lon="30.5193022918"><ele>299.59</ele><time>2026-08-20T21:39:46Z</time></trkpt><trkpt lat="59.1049830895" lon="30.5193022918"><ele>299.59</ele><time>2026-08-20T21:39:47Z</time></trkpt><trkpt lat="59.1049830895" lon="30.5193022918"><ele>299.59</ele><time>2026-08-20T21:39:48Z</time></trkpt><trkpt lat="59.1049830895" lon="30.5193022918"><ele>299.59</ele><time>2026-08-20T21:39:49Z</time></trkpt><trkpt lat="59.1049830895" lon="30.5193022918"><ele>299.59</ele><time>2026-08-20T21:39:50Z</time></trkpt><trkpt lat="59.1049830895" lon="30.5193022918"><ele>299.59</ele><time>2026-08-20T21:39:51Z</time></trkpt><trkpt lat="59.1049830895" lon="30.5193022918"><ele>299.59</ele><time>2026-08-20T21:39:52Z</time></trkpt><trkpt lat="59.1049830895" lon="30.5193022918"><ele>299.59</ele><time>2026-08-20T21:39:53Z</time></trkpt><trkpt lat="59.1049830895" lon="30.5193022918"><ele>299.59</ele><time>2026-08-20T21:39:54Z</time></trkpt><trkpt lat="59.1049830895" lon="30.5193022918"><ele>299.59</ele><time>2026-08-20T21:39:55Z</time></trkpt><trkpt lat="59.1049830895" lon="30.5193022918"><ele>299.59</ele><time>2026-08-20T21:39:56Z</time></trkpt><trkpt lat="59.1049830895" lon="30.5193022918"><ele>299.59</ele><time>2026-08-20T21:39:57Z</time></trkpt><trkpt lat="59.1049830895" lon="30.5193022918"><ele>299.59</ele><time>2026-08-20T21:39:58Z</time></trkpt><trkpt lat="59.1049830895" lon="30.5193022918"><ele>299.59</ele><time>2026-08-20T21:39:59Z</time></trkpt><trkpt lat="59.1049830895" lon="30.5193022918"><ele>299.59</ele><time>2026-08-20T21:40:00Z</time></trkpt><trkpt lat="59.1049830895" lon="30.5193022918"><ele>299.59</ele><time>2026-08-20T21:40:01Z</time></trkpt><trkpt lat="59.1049830895" lon="30.5193022918"><ele>299.59</ele><time>2026-08-20T21:40:02Z</time></trkpt><trkpt lat="59.1049493942" lon="30.5193045549"><ele>299.59</ele><time>2026-08-20T21:40:03Z</time></trkpt><trkpt lat="59.1049487237" lon="30.5192969274"><ele>299.59</ele><time>2026-08-20T21:40:04Z</time></trkpt><trkpt lat="59.1049457900" lon="30.5192874558"><ele>299.59</ele><time>2026-08-20T21:40:05Z</time></trkpt><trkpt lat="59.1049453709" lon="30.5192784872"><ele>299.59</ele><time>2026-08-20T21:40:06Z</time></trkpt><trkpt lat="59.1049432755" lon="30.5192691833"><ele>299.59</ele><time>2026-08-20T21:40:07Z</time></trkpt><trkpt lat="59.1049376596" lon="30.5192547664"><ele>299.59</ele><time>2026-08-20T21:40:08Z</time></trkpt><trkpt lat="59.1049315408" lon="30.5192400981"><ele>299.59</ele><time>2026-08-20T21:40:09Z</time></trkpt><trkpt lat="59.1049295291" lon="30.5192245916"><ele>299.59</ele><time>2026-08-20T21:40:10Z</time></trkpt><trkpt lat="59.1049265955" lon="30.5192030501"><ele>299.59</ele><time>2026-08-20T21:40:11Z</time></trkpt><trkpt lat="59.1049251705" lon="30.5191877950"><ele>299.59</ele><time>2026-08-20T21:40:12Z</time></trkpt><trkpt lat="59.1049233265" lon="30.5191655830"><ele>299.59</ele><time>2026-08-20T21:40:13Z</time></trkpt><trkpt lat="59.1049209796" lon="30.5191374198"><ele>299.59</ele><time>2026-08-20T21:40:14Z</time></trkpt><trkpt lat="59.1049185488" lon="30.5191099271"><ele>299.59</ele><time>2026-08-20T21:40:15Z</time></trkpt><trkpt lat="59.1049153637" lon="30.5190890562"><ele>299.59</ele><time>2026-08-20T21:40:16Z</time></trkpt><trkpt lat="59.1049128491" lon="30.5190729629"><ele>299.59</ele><time>2026-08-20T21:40:17Z</time></trkpt><trkpt lat="59.1049153637" lon="30.5190551933"><ele>299.59</ele><time>2026-08-20T21:40:18Z</time></trkpt><trkpt lat="59.1049129330" lon="30.5190276168"><ele>299.59</ele><time>2026-08-20T21:40:19Z</time></trkpt><trkpt lat="59.1049112566" lon="30.5189941730"><ele>299.59</ele><time>2026-08-20T21:40:20Z</time></trkpt><trkpt lat="59.1049078200" lon="30.5189655907"><ele>299.59</ele><time>2026-08-20T21:40:21Z</time></trkpt><trkpt lat="59.1049056407" lon="30.5189451389"><ele>299.59</ele><time>2026-08-20T21:40:22Z</time></trkpt><trkpt lat="59.1049043834" lon="30.5189283751"><ele>299.59</ele><time>2026-08-20T21:40:23Z</time></trkpt><trkpt lat="59.1049069818" lon="30.5189098511"><ele>299.59</ele><time>2026-08-20T21:40:24Z</time></trkpt><trkpt lat="59.1049081553" lon="30.5188891478"><ele>299.59</ele><time>2026-08-20T21:40:25Z</time></trkpt><trkpt lat="59.1049093287" lon="30.5188747309"><ele>299.59</ele><time>2026-08-20T21:40:26Z</time></trkpt><trkpt lat="59.1049115919" lon="30.5188586377"><ele>299.59</ele><time>2026-08-20T21:40:27Z</time></trkpt><trkpt lat="59.1049138550" lon="30.5188434664"><ele>299.59</ele><time>2026-08-20T21:40:28Z</time></trkpt><trkpt lat="59.1049197223" lon="30.5188200809"><ele>299.59</ele><time>2026-08-20T21:40:29Z</time></trkpt><trkpt lat="59.1049278527" lon="30.5188005511"><ele>299.59</ele><time>2026-08-20T21:40:30Z</time></trkpt><trkpt lat="59.1049303673" lon="30.5187795963"><ele>299.59</ele><time>2026-08-20T21:40:31Z</time></trkpt><trkpt lat="59.1049307864" lon="30.5187512655"><ele>299.59</ele><time>2026-08-20T21:40:32Z</time></trkpt><trkpt lat="59.1049325466" lon="30.5187299754"><ele>299.59</ele><time>2026-08-20T21:40:33Z</time></trkpt><trkpt lat="59.1049361508" lon="30.5187061708"><ele>299.59</ele><time>2026-08-20T21:40:34Z</time></trkpt><trkpt lat="59.1049368214" lon="30.5186833721"><ele>299.59</ele><time>2026-08-20T21:40:35Z</time></trkpt><trkpt lat="59.1049362347" lon="30.5186670274"><ele>300.07</ele><time>2026-08-20T21:40:36Z</time></trkpt><trkpt lat="59.1049391683" lon="30.5186489224"><ele>300.07</ele><time>2026-08-20T21:40:37Z</time></trkpt><trkpt lat="59.1049382463" lon="30.5186334997"><ele>300.07</ele><time>2026-08-20T21:40:38Z</time></trkpt><trkpt lat="59.1049406771" lon="30.5186215974"><ele>300.07</ele><time>2026-08-20T21:40:39Z</time></trkpt><trkpt lat="59.1049422696" lon="30.5186101981"><ele>299.59</ele><time>2026-08-20T21:40:40Z</time></trkpt><trkpt lat="59.1049468797" lon="30.5185993854"><ele>299.59</ele><time>2026-08-20T21:40:41Z</time></trkpt><trkpt lat="59.1049456224" lon="30.5185821187"><ele>299.59</ele><time>2026-08-20T21:40:42Z</time></trkpt><trkpt lat="59.1049441975" lon="30.5185663607"><ele>299.59</ele><time>2026-08-20T21:40:43Z</time></trkpt><trkpt lat="59.1049519926" lon="30.5185538717"><ele>299.59</ele><time>2026-08-20T21:40:44Z</time></trkpt><trkpt lat="59.1049530823" lon="30.5185393710"><ele>299.59</ele><time>2026-08-20T21:40:45Z</time></trkpt><trkpt lat="59.1049542557" lon="30.5185229424"><ele>299.59</ele><time>2026-08-20T21:40:46Z</time></trkpt><trkpt lat="59.1049559321" lon="30.5185062625"><ele>299.59</ele><time>2026-08-20T21:40:47Z</time></trkpt><trkpt lat="59.1049562674" lon="30.5184898339"><ele>299.59</ele><time>2026-08-20T21:40:48Z</time></trkpt><trkpt lat="59.1049489751" lon="30.5184806976"><ele>299.59</ele><time>2026-08-20T21:40:49Z</time></trkpt><trkpt lat="59.1049428564" lon="30.5184606649"><ele>299.59</ele><time>2026-08-20T21:40:50Z</time></trkpt><trkpt lat="59.1049402580" lon="30.5184483435"><ele>299.59</ele><time>2026-08-20T21:40:51Z</time></trkpt><trkpt lat="59.1049387492" lon="30.5184373632"><ele>299.59</ele><time>2026-08-20T21:40:52Z</time></trkpt><trkpt lat="59.1049368214" lon="30.5184220243"><ele>299.59</ele><time>2026-08-20T21:40:53Z</time></trkpt><trkpt lat="59.1049358994" lon="30.5184074398"><ele>299.59</ele><time>2026-08-20T21:40:54Z</time></trkpt><trkpt lat="59.1049361508" lon="30.5183973815"><ele>299.59</ele><time>2026-08-20T21:40:55Z</time></trkpt><trkpt lat="59.1049360670" lon="30.5183895864"><ele>299.59</ele><time>2026-08-20T21:40:56Z</time></trkpt><trkpt lat="59.1049345583" lon="30.5183841381"><ele>299.59</ele><time>2026-08-20T21:40:57Z</time></trkpt><trkpt lat="59.1049345583" lon="30.5183841381"><ele>299.59</ele><time>2026-08-20T21:40:58Z</time></trkpt><trkpt lat="59.1049345583" lon="30.5183841381"><ele>299.59</ele><time>2026-08-20T21:40:59Z</time></trkpt><trkpt lat="59.1049345583" lon="30.5183841381"><ele>299.59</ele><time>2026-08-20T21:41:00Z</time></trkpt><trkpt lat="59.1049345583" lon="30.5183841381"><ele>299.59</ele><time>2026-08-20T21:41:01Z</time></trkpt><trkpt lat="59.1049345583" lon="30.5183841381"><ele>299.59</ele><time>2026-08-20T21:41:02Z</time></trkpt><trkpt lat="59.1049345583" lon="30.5183841381"><ele>299.59</ele><time>2026-08-20T21:41:03Z</time></trkpt><trkpt lat="59.1049345583" lon="30.5183841381"><ele>299.59</ele><time>2026-08-20T21:41:04Z</time></trkpt><trkpt lat="59.1049345583" lon="30.5183841381"><ele>299.59</ele><time>2026-08-20T21:41:05Z</time></trkpt><trkpt lat="59.1049345583" lon="30.5183841381"><ele>299.59</ele><time>2026-08-20T21:41:06Z</time></trkpt><trkpt lat="59.1049345583" lon="30.5183841381"><ele>299.59</ele><time>2026-08-20T21:41:07Z</time></trkpt><trkpt lat="59.1049345583" lon="30.5183841381"><ele>299.59</ele><time>2026-08-20T21:41:08Z</time></trkpt><trkpt lat="59.1049345583" lon="30.5183841381"><ele>299.59</ele><time>2026-08-20T21:41:09Z</time></trkpt><trkpt lat="59.1049345583" lon="30.5183841381"><ele>299.59</ele><time>2026-08-20T21:41:10Z</time></trkpt><trkpt lat="59.1049345583" lon="30.5183841381"><ele>299.59</ele><time>2026-08-20T21:41:11Z</time></trkpt><trkpt lat="59.1049345583" lon="30.5183841381"><ele>299.59</ele><time>2026-08-20T21:41:12Z</time></trkpt><trkpt lat="59.1049160343" lon="30.5183450785"><ele>299.59</ele><time>2026-08-20T21:41:13Z</time></trkpt><trkpt lat="59.1049157828" lon="30.5183307454"><ele>299.59</ele><time>2026-08-20T21:41:14Z</time></trkpt><trkpt lat="59.1049154475" lon="30.5183196813"><ele>299.59</ele><time>2026-08-20T21:41:15Z</time></trkpt><trkpt lat="59.1049130168" lon="30.5183063541"><ele>299.59</ele><time>2026-08-20T21:41:16Z</time></trkpt><trkpt lat="59.1049137712" lon="30.5182932783"><ele>300.07</ele><time>2026-08-20T21:41:17Z</time></trkpt><trkpt lat="59.1049117595" lon="30.5182891712"><ele>300.07</ele><time>2026-08-20T21:41:18Z</time></trkpt><trkpt lat="59.1049129330" lon="30.5182824656"><ele>300.07</ele><time>2026-08-20T21:41:19Z</time></trkpt><trkpt lat="59.1049139388" lon="30.5182745866"><ele>300.07</ele><time>2026-08-20T21:41:20Z</time></trkpt><trkpt lat="59.1049143579" lon="30.5182710662"><ele>300.07</ele><time>2026-08-20T21:41:21Z</time></trkpt><trkpt lat="59.1049129330" lon="30.5182676297"><ele>300.07</ele><time>2026-08-20T21:41:22Z</time></trkpt><trkpt lat="59.1049160343" lon="30.5182586610"><ele>300.07</ele><time>2026-08-20T21:41:23Z</time></trkpt><trkpt lat="59.1049161181" lon="30.5182429869"><ele>300.07</ele><time>2026-08-20T21:41:24Z</time></trkpt><trkpt lat="59.1049146932" lon="30.5182223674"><ele>299.59</ele><time>2026-08-20T21:41:25Z</time></trkpt><trkpt lat="59.1049135197" lon="30.5182016641"><ele>299.59</ele><time>2026-08-20T21:41:26Z</time></trkpt><trkpt lat="59.1049149446" lon="30.5181863252"><ele>299.59</ele><time>2026-08-20T21:41:27Z</time></trkpt><trkpt lat="59.1049146932" lon="30.5181680527"><ele>299.59</ele><time>2026-08-20T21:41:28Z</time></trkpt><trkpt lat="59.1049112566" lon="30.5181502830"><ele>299.59</ele><time>2026-08-20T21:41:29Z</time></trkpt><trkpt lat="59.1049107537" lon="30.5181307532"><ele>299.59</ele><time>2026-08-20T21:41:30Z</time></trkpt><trkpt lat="59.1049151961" lon="30.5181091279"><ele>300.07</ele><time>2026-08-20T21:41:31Z</time></trkpt><trkpt lat="59.1049141902" lon="30.5180876702"><ele>300.07</ele><time>2026-08-20T21:41:32Z</time></trkpt><trkpt lat="59.1049159504" lon="30.5180668831"><ele>300.07</ele><time>2026-08-20T21:41:33Z</time></trkpt><trkpt lat="59.1049179621" lon="30.5180497840"><ele>300.07</ele><time>2026-08-20T21:41:34Z</time></trkpt><trkpt lat="59.1049193870" lon="30.5180292483"><ele>300.07</ele><time>2026-08-20T21:41:35Z</time></trkpt><trkpt lat="59.1049200576" lon="30.5180108920"><ele>300.07</ele><time>2026-08-20T21:41:36Z</time></trkpt><trkpt lat="59.1049178783" lon="30.5179964751"><ele>300.07</ele><time>2026-08-20T21:41:37Z</time></trkpt><trkpt lat="59.1049149446" lon="30.5179773644"><ele>299.59</ele><time>2026-08-20T21:41:38Z</time></trkpt><trkpt lat="59.1049138550" lon="30.5179559905"><ele>299.59</ele><time>2026-08-20T21:41:39Z</time></trkpt><trkpt lat="59.1049122624" lon="30.5179373827"><ele>299.59</ele><time>2026-08-20T21:41:40Z</time></trkpt><trkpt lat="59.1049096640" lon="30.5179159250"><ele>299.59</ele><time>2026-08-20T21:41:41Z</time></trkpt><trkpt lat="59.1049089935" lon="30.5178970657"><ele>299.59</ele><time>2026-08-20T21:41:42Z</time></trkpt><trkpt lat="59.1049094964" lon="30.5178737640"><ele>299.59</ele><time>2026-08-20T21:41:43Z</time></trkpt><trkpt lat="59.1049083229" lon="30.5178518873"><ele>299.59</ele><time>2026-08-20T21:41:44Z</time></trkpt><trkpt lat="59.1049097478" lon="30.5178353749"><ele>299.59</ele><time>2026-08-20T21:41:45Z</time></trkpt><trkpt lat="59.1049086582" lon="30.5178209580"><ele>300.07</ele><time>2026-08-20T21:41:46Z</time></trkpt><trkpt lat="59.1049091611" lon="30.5178009253"><ele>300.07</ele><time>2026-08-20T21:41:47Z</time></trkpt><trkpt lat="59.1049098317" lon="30.5177858379"><ele>300.07</ele><time>2026-08-20T21:41:48Z</time></trkpt><trkpt lat="59.1049098317" lon="30.5177707504"><ele>300.07</ele><time>2026-08-20T21:41:49Z</time></trkpt><trkpt lat="59.1049123462" lon="30.5177528970"><ele>300.07</ele><time>2026-08-20T21:41:50Z</time></trkpt><trkpt lat="59.1049128491" lon="30.5177345406"><ele>300.07</ele><time>2026-08-20T21:41:51Z</time></trkpt><trkpt lat="59.1049125977" lon="30.5177186988"><ele>300.07</ele><time>2026-08-20T21:41:52Z</time></trkpt><trkpt lat="59.1049099993" lon="30.5177042820"><ele>300.07</ele><time>2026-08-20T21:41:53Z</time></trkpt><trkpt lat="59.1049065627" lon="30.5176868476"><ele>300.07</ele><time>2026-08-20T21:41:54Z</time></trkpt><trkpt lat="59.1049012821" lon="30.5176724307"><ele>300.07</ele><time>2026-08-20T21:41:55Z</time></trkpt><trkpt lat="59.1048952471" lon="30.5176592711"><ele>300.07</ele><time>2026-08-20T21:41:56Z</time></trkpt><trkpt lat="59.1048908886" lon="30.5176466983"><ele>300.07</ele><time>2026-08-20T21:41:57Z</time></trkpt><trkpt lat="59.1048875358" lon="30.5176304374"><ele>300.07</ele><time>2026-08-20T21:41:58Z</time></trkpt><trkpt lat="59.1048880387" lon="30.5176117457"><ele>300.07</ele><time>2026-08-20T21:41:59Z</time></trkpt><trkpt lat="59.1048879549" lon="30.5175917968"><ele>300.07</ele><time>2026-08-20T21:42:00Z</time></trkpt><trkpt lat="59.1048881225" lon="30.5175767932"><ele>300.07</ele><time>2026-08-20T21:42:01Z</time></trkpt><trkpt lat="59.1048902180" lon="30.5175616220"><ele>300.07</ele><time>2026-08-20T21:42:02Z</time></trkpt><trkpt lat="59.1048906371" lon="30.5175445229"><ele>300.07</ele><time>2026-08-20T21:42:03Z</time></trkpt><trkpt lat="59.1048936546" lon="30.5175250769"><ele>300.07</ele><time>2026-08-20T21:42:04Z</time></trkpt><trkpt lat="59.1048959177" lon="30.5175082292"><ele>300.07</ele><time>2026-08-20T21:42:05Z</time></trkpt><trkpt lat="59.1048988514" lon="30.5174903758"><ele>300.07</ele><time>2026-08-20T21:42:06Z</time></trkpt><trkpt lat="59.1049002763" lon="30.5174715165"><ele>300.07</ele><time>2026-08-20T21:42:07Z</time></trkpt><trkpt lat="59.1049012821" lon="30.5174575187"><ele>300.07</ele><time>2026-08-20T21:42:08Z</time></trkpt><trkpt lat="59.1049010307" lon="30.5174482986"><ele>300.07</ele><time>2026-08-20T21:42:09Z</time></trkpt><trkpt lat="59.1049002763" lon="30.5174373183"><ele>300.07</ele><time>2026-08-20T21:42:10Z</time></trkpt><trkpt lat="59.1049043834" lon="30.5174240749"><ele>300.07</ele><time>2026-08-20T21:42:11Z</time></trkpt><trkpt lat="59.1049109213" lon="30.5174174532"><ele>300.07</ele><time>2026-08-20T21:42:12Z</time></trkpt><trkpt lat="59.1049145255" lon="30.5174118374"><ele>300.07</ele><time>2026-08-20T21:42:13Z</time></trkpt><trkpt lat="59.1049135197" lon="30.5174055509"><ele>300.07</ele><time>2026-08-20T21:42:14Z</time></trkpt><trkpt lat="59.1049159504" lon="30.5173993483"><ele>300.07</ele><time>2026-08-20T21:42:15Z</time></trkpt><trkpt lat="59.1049151961" lon="30.5173913855"><ele>300.07</ele><time>2026-08-20T21:42:16Z</time></trkpt><trkpt lat="59.1049147770" lon="30.5173746217"><ele>300.07</ele><time>2026-08-20T21:42:17Z</time></trkpt><trkpt lat="59.1049151961" lon="30.5173597857"><ele>300.07</ele><time>2026-08-20T21:42:18Z</time></trkpt><trkpt lat="59.1049058922" lon="30.5173363164"><ele>300.07</ele><time>2026-08-20T21:42:19Z</time></trkpt><trkpt lat="59.1049053892" lon="30.5173199717"><ele>300.07</ele><time>2026-08-20T21:42:20Z</time></trkpt><trkpt lat="59.1049093287" lon="30.5173032917"><ele>300.07</ele><time>2026-08-20T21:42:21Z</time></trkpt><trkpt lat="59.1049073171" lon="30.5172902998"><ele>300.07</ele><time>2026-08-20T21:42:22Z</time></trkpt><trkpt lat="59.1049069818" lon="30.5172905512"><ele>300.07</ele><time>2026-08-20T21:42:23Z</time></trkpt><trkpt lat="59.1048984323" lon="30.5172925629"><ele>300.07</ele><time>2026-08-20T21:42:24Z</time></trkpt><trkpt lat="59.1048948281" lon="30.5172985978"><ele>300.07</ele><time>2026-08-20T21:42:25Z</time></trkpt><trkpt lat="59.1048935708" lon="30.5172947422"><ele>300.07</ele><time>2026-08-20T21:42:26Z</time></trkpt><trkpt lat="59.1048903856" lon="30.5172998551"><ele>300.07</ele><time>2026-08-20T21:42:27Z</time></trkpt><trkpt lat="59.1048907209" lon="30.5173006933"><ele>300.07</ele><time>2026-08-20T21:42:28Z</time></trkpt><trkpt lat="59.1048907209" lon="30.5173006933"><ele>300.55</ele><time>2026-08-20T21:42:29Z</time></trkpt><trkpt lat="59.1048907209" lon="30.5173006933"><ele>300.55</ele><time>2026-08-20T21:42:30Z</time></trkpt><trkpt lat="59.1048907209" lon="30.5173006933"><ele>300.07</ele><time>2026-08-20T21:42:31Z</time></trkpt><trkpt lat="59.1048907209" lon="30.5173006933"><ele>300.07</ele><time>2026-08-20T21:42:32Z</time></trkpt><trkpt lat="59.1048907209" lon="30.5173006933"><ele>300.07</ele><time>2026-08-20T21:42:33Z</time></trkpt><trkpt lat="59.1048907209" lon="30.5173006933"><ele>300.07</ele><time>2026-08-20T21:42:34Z</time></trkpt><trkpt lat="59.1048907209" lon="30.5173006933"><ele>300.07</ele><time>2026-08-20T21:42:35Z</time></trkpt><trkpt lat="59.1048986837" lon="30.5173261743"><ele>300.07</ele><time>2026-08-20T21:42:36Z</time></trkpt><trkpt lat="59.1048974264" lon="30.5173142720"><ele>300.07</ele><time>2026-08-20T21:42:37Z</time></trkpt><trkpt lat="59.1048985999" lon="30.5172993522"><ele>300.07</ele><time>2026-08-20T21:42:38Z</time></trkpt><trkpt lat="59.1048955824" lon="30.5172839295"><ele>300.07</ele><time>2026-08-20T21:42:39Z</time></trkpt><trkpt lat="59.1048938222" lon="30.5172723625"><ele>300.07</ele><time>2026-08-20T21:42:40Z</time></trkpt><trkpt lat="59.1048874520" lon="30.5172540899"><ele>300.07</ele><time>2026-08-20T21:42:41Z</time></trkpt><trkpt lat="59.1048857756" lon="30.5172389187"><ele>300.07</ele><time>2026-08-20T21:42:42Z</time></trkpt><trkpt lat="59.1048886254" lon="30.5172262620"><ele>300.07</ele><time>2026-08-20T21:42:43Z</time></trkpt><trkpt lat="59.1048893798" lon="30.5172166228"><ele>300.07</ele><time>2026-08-20T21:42:44Z</time></trkpt><trkpt lat="59.1048876196" lon="30.5172034632"><ele>300.07</ele><time>2026-08-20T21:42:45Z</time></trkpt><trkpt lat="59.1048854403" lon="30.5171843525"><ele>300.07</ele><time>2026-08-20T21:42:46Z</time></trkpt><trkpt lat="59.1048821714" lon="30.5171757191"><ele>300.07</ele><time>2026-08-20T21:42:47Z</time></trkpt><trkpt lat="59.1048818361" lon="30.5171654932"><ele>300.07</ele><time>2026-08-20T21:42:48Z</time></trkpt><trkpt lat="59.1048839316" lon="30.5171548482"><ele>300.07</ele><time>2026-08-20T21:42:49Z</time></trkpt><trkpt lat="59.1048827581" lon="30.5171400961"><ele>300.07</ele><time>2026-08-20T21:42:50Z</time></trkpt><trkpt lat="59.1048903856" lon="30.5171252601"><ele>300.07</ele><time>2026-08-20T21:42:51Z</time></trkpt><trkpt lat="59.1048884578" lon="30.5171175487"><ele>300.07</ele><time>2026-08-20T21:42:52Z</time></trkpt><trkpt lat="59.1048808303" lon="30.5170991924"><ele>300.07</ele><time>2026-08-20T21:42:53Z</time></trkpt><trkpt lat="59.1048786510" lon="30.5170874577"><ele>300.07</ele><time>2026-08-20T21:42:54Z</time></trkpt><trkpt lat="59.1048774775" lon="30.5170723703"><ele>300.07</ele><time>2026-08-20T21:42:55Z</time></trkpt><trkpt lat="59.1048756335" lon="30.5170543492"><ele>300.07</ele><time>2026-08-20T21:42:56Z</time></trkpt><trkpt lat="59.1048724484" lon="30.5170329753"><ele>300.07</ele><time>2026-08-20T21:42:57Z</time></trkpt><trkpt lat="59.1048696823" lon="30.5170160439"><ele>300.07</ele><time>2026-08-20T21:42:58Z</time></trkpt><trkpt lat="59.1048636474" lon="30.5169986933"><ele>300.07</ele><time>2026-08-20T21:42:59Z</time></trkpt><trkpt lat="59.1048568580" lon="30.5169857852"><ele>300.07</ele><time>2026-08-20T21:43:00Z</time></trkpt><trkpt lat="59.1048520803" lon="30.5169795826"><ele>300.07</ele><time>2026-08-20T21:43:01Z</time></trkpt><trkpt lat="59.1048484761" lon="30.5169763975"><ele>300.07</ele><time>2026-08-20T21:43:02Z</time></trkpt><trkpt lat="59.1048471350" lon="30.5169749726"><ele>300.07</ele><time>2026-08-20T21:43:03Z</time></trkpt><trkpt lat="59.1048451234" lon="30.5169656686"><ele>300.07</ele><time>2026-08-20T21:43:04Z</time></trkpt><trkpt lat="59.1048390884" lon="30.5169576220"><ele>300.07</ele><time>2026-08-20T21:43:05Z</time></trkpt><trkpt lat="59.1048421897" lon="30.5169545207"><ele>300.07</ele><time>2026-08-20T21:43:06Z</time></trkpt><trkpt lat="59.1048435308" lon="30.5169598851"><ele>300.07</ele><time>2026-08-20T21:43:07Z</time></trkpt><trkpt lat="59.1048416868" lon="30.5169678479"><ele>300.07</ele><time>2026-08-20T21:43:08Z</time></trkpt><trkpt lat="59.1048416868" lon="30.5169678479"><ele>300.07</ele><time>2026-08-20T21:43:09Z</time></trkpt><trkpt lat="59.1048328858" lon="30.5169899762"><ele>300.07</ele><time>2026-08-20T21:43:10Z</time></trkpt><trkpt lat="59.1048290301" lon="30.5170002859"><ele>300.07</ele><time>2026-08-20T21:43:11Z</time></trkpt><trkpt lat="59.1048178822" lon="30.5170116853"><ele>300.07</ele><time>2026-08-20T21:43:12Z</time></trkpt><trkpt lat="59.1048173793" lon="30.5170196481"><ele>300.07</ele><time>2026-08-20T21:43:13Z</time></trkpt><trkpt lat="59.1048185527" lon="30.5170005374"><ele>300.07</ele><time>2026-08-20T21:43:14Z</time></trkpt><trkpt lat="59.1048264317" lon="30.5169896409"><ele>300.07</ele><time>2026-08-20T21:43:15Z</time></trkpt><trkpt lat="59.1048274375" lon="30.5169865396"><ele>300.07</ele><time>2026-08-20T21:43:16Z</time></trkpt><trkpt lat="59.1048323829" lon="30.5169687700"><ele>300.07</ele><time>2026-08-20T21:43:17Z</time></trkpt><trkpt lat="59.1048324667" lon="30.5169532634"><ele>300.07</ele><time>2026-08-20T21:43:18Z</time></trkpt><trkpt lat="59.1048361547" lon="30.5169367511"><ele>300.07</ele><time>2026-08-20T21:43:19Z</time></trkpt><trkpt lat="59.1048386693" lon="30.5169223342"><ele>300.07</ele><time>2026-08-20T21:43:20Z</time></trkpt><trkpt lat="59.1048408486" lon="30.5169088393"><ele>300.07</ele><time>2026-08-20T21:43:21Z</time></trkpt><trkpt lat="59.1048441175" lon="30.5168973561"><ele>300.07</ele><time>2026-08-20T21:43:22Z</time></trkpt><trkpt lat="59.1048396751" lon="30.5168807600"><ele>300.07</ele><time>2026-08-20T21:43:23Z</time></trkpt><trkpt lat="59.1048428603" lon="30.5168660916"><ele>300.07</ele><time>2026-08-20T21:43:24Z</time></trkpt><trkpt lat="59.1048443690" lon="30.5168502498"><ele>300.07</ele><time>2026-08-20T21:43:25Z</time></trkpt><trkpt lat="59.1048409324" lon="30.5168319773"><ele>300.07</ele><time>2026-08-20T21:43:26Z</time></trkpt><trkpt lat="59.1048381664" lon="30.5168178957"><ele>299.59</ele><time>2026-08-20T21:43:27Z</time></trkpt><trkpt lat="59.1048356518" lon="30.5168049876"><ele>300.07</ele><time>2026-08-20T21:43:28Z</time></trkpt><trkpt lat="59.1048354842" lon="30.5167900678"><ele>300.07</ele><time>2026-08-20T21:43:29Z</time></trkpt><trkpt lat="59.1048321314" lon="30.5167726334"><ele>300.07</ele><time>2026-08-20T21:43:30Z</time></trkpt><trkpt lat="59.1048297845" lon="30.5167573784"><ele>300.07</ele><time>2026-08-20T21:43:31Z</time></trkpt><trkpt lat="59.1048281919" lon="30.5167402793"><ele>300.07</ele><time>2026-08-20T21:43:32Z</time></trkpt><trkpt lat="59.1048259288" lon="30.5167284608"><ele>300.07</ele><time>2026-08-20T21:43:33Z</time></trkpt><trkpt lat="59.1048261803" lon="30.5167306401"><ele>300.07</ele><time>2026-08-20T21:43:34Z</time></trkpt><trkpt lat="59.1048275214" lon="30.5167309754"><ele>300.07</ele><time>2026-08-20T21:43:35Z</time></trkpt><trkpt lat="59.1048275214" lon="30.5167309754"><ele>300.07</ele><time>2026-08-20T21:43:36Z</time></trkpt><trkpt lat="59.1048275214" lon="30.5167309754"><ele>300.07</ele><time>2026-08-20T21:43:37Z</time></trkpt><trkpt lat="59.1048275214" lon="30.5167309754"><ele>300.07</ele><time>2026-08-20T21:43:38Z</time></trkpt><trkpt lat="59.1048275214" lon="30.5167309754"><ele>300.07</ele><time>2026-08-20T21:43:39Z</time></trkpt><trkpt lat="59.1048275214" lon="30.5167309754"><ele>300.07</ele><time>2026-08-20T21:43:40Z</time></trkpt><trkpt lat="59.1048275214" lon="30.5167309754"><ele>300.07</ele><time>2026-08-20T21:43:41Z</time></trkpt><trkpt lat="59.1048275214" lon="30.5167309754"><ele>299.59</ele><time>2026-08-20T21:43:42Z</time></trkpt><trkpt lat="59.1048275214" lon="30.5167309754"><ele>299.59</ele><time>2026-08-20T21:43:43Z</time></trkpt><trkpt lat="59.1048275214" lon="30.5167309754"><ele>299.59</ele><time>2026-08-20T21:43:44Z</time></trkpt><trkpt lat="59.1048275214" lon="30.5167309754"><ele>299.59</ele><time>2026-08-20T21:43:45Z</time></trkpt><trkpt lat="59.1048275214" lon="30.5167309754"><ele>299.59</ele><time>2026-08-20T21:43:46Z</time></trkpt><trkpt lat="59.1048275214" lon="30.5167309754"><ele>299.59</ele><time>2026-08-20T21:43:47Z</time></trkpt><trkpt lat="59.1048275214" lon="30.5167309754"><ele>299.59</ele><time>2026-08-20T21:43:48Z</time></trkpt><trkpt lat="59.1048275214" lon="30.5167309754"><ele>299.59</ele><time>2026-08-20T21:43:49Z</time></trkpt><trkpt lat="59.1048275214" lon="30.5167309754"><ele>299.59</ele><time>2026-08-20T21:43:50Z</time></trkpt><trkpt lat="59.1048275214" lon="30.5167309754"><ele>299.59</ele><time>2026-08-20T21:43:51Z</time></trkpt><trkpt lat="59.1048275214" lon="30.5167309754"><ele>299.59</ele><time>2026-08-20T21:43:52Z</time></trkpt><trkpt lat="59.1048275214" lon="30.5167309754"><ele>299.59</ele><time>2026-08-20T21:43:53Z</time></trkpt><trkpt lat="59.1048275214" lon="30.5167309754"><ele>299.59</ele><time>2026-08-20T21:43:54Z</time></trkpt><trkpt lat="59.1048275214" lon="30.5167309754"><ele>299.59</ele><time>2026-08-20T21:43:55Z</time></trkpt><trkpt lat="59.1048275214" lon="30.5167309754"><ele>299.59</ele><time>2026-08-20T21:43:56Z</time></trkpt><trkpt lat="59.1048275214" lon="30.5167309754"><ele>299.59</ele><time>2026-08-20T21:43:57Z</time></trkpt><trkpt lat="59.1048275214" lon="30.5167309754"><ele>299.59</ele><time>2026-08-20T21:43:58Z</time></trkpt><trkpt lat="59.1048275214" lon="30.5167309754"><ele>299.59</ele><time>2026-08-20T21:43:59Z</time></trkpt><trkpt lat="59.1048275214" lon="30.5167309754"><ele>299.59</ele><time>2026-08-20T21:44:00Z</time></trkpt><trkpt lat="59.1048275214" lon="30.5167309754"><ele>299.59</ele><time>2026-08-20T21:44:01Z</time></trkpt><trkpt lat="59.1048275214" lon="30.5167309754"><ele>299.59</ele><time>2026-08-20T21:44:02Z</time></trkpt><trkpt lat="59.1048275214" lon="30.5167309754"><ele>299.59</ele><time>2026-08-20T21:44:03Z</time></trkpt><trkpt lat="59.1048275214" lon="30.5167309754"><ele>299.59</ele><time>2026-08-20T21:44:04Z</time></trkpt><trkpt lat="59.1048275214" lon="30.5167309754"><ele>299.59</ele><time>2026-08-20T21:44:05Z</time></trkpt><trkpt lat="59.1048275214" lon="30.5167309754"><ele>299.59</ele><time>2026-08-20T21:44:06Z</time></trkpt><trkpt lat="59.1048275214" lon="30.5167309754"><ele>299.59</ele><time>2026-08-20T21:44:07Z</time></trkpt><trkpt lat="59.1048275214" lon="30.5167309754"><ele>299.59</ele><time>2026-08-20T21:44:08Z</time></trkpt><trkpt lat="59.1048275214" lon="30.5167309754"><ele>299.59</ele><time>2026-08-20T21:44:09Z</time></trkpt><trkpt lat="59.1048275214" lon="30.5167309754"><ele>299.59</ele><time>2026-08-20T21:44:10Z</time></trkpt><trkpt lat="59.1048275214" lon="30.5167309754"><ele>299.59</ele><time>2026-08-20T21:44:11Z</time></trkpt><trkpt lat="59.1048275214" lon="30.5167309754"><ele>299.59</ele><time>2026-08-20T21:44:12Z</time></trkpt><trkpt lat="59.1048448719" lon="30.5166954361"><ele>299.59</ele><time>2026-08-20T21:44:13Z</time></trkpt><trkpt lat="59.1048441175" lon="30.5166847911"><ele>299.59</ele><time>2026-08-20T21:44:14Z</time></trkpt><trkpt lat="59.1048430279" lon="30.5166735593"><ele>299.59</ele><time>2026-08-20T21:44:15Z</time></trkpt><trkpt lat="59.1048456263" lon="30.5166624952"><ele>299.59</ele><time>2026-08-20T21:44:16Z</time></trkpt><trkpt lat="59.1048434470" lon="30.5166528560"><ele>299.59</ele><time>2026-08-20T21:44:17Z</time></trkpt><trkpt lat="59.1048472188" lon="30.5166412890"><ele>299.59</ele><time>2026-08-20T21:44:18Z</time></trkpt><trkpt lat="59.1048480570" lon="30.5166275427"><ele>299.59</ele><time>2026-08-20T21:44:19Z</time></trkpt><trkpt lat="59.1048462968" lon="30.5166109465"><ele>299.59</ele><time>2026-08-20T21:44:20Z</time></trkpt><trkpt lat="59.1048483923" lon="30.5165852979"><ele>299.59</ele><time>2026-08-20T21:44:21Z</time></trkpt><trkpt lat="59.1048477218" lon="30.5165634211"><ele>299.59</ele><time>2026-08-20T21:44:22Z</time></trkpt><trkpt lat="59.1048466321" lon="30.5165372696"><ele>299.59</ele><time>2026-08-20T21:44:23Z</time></trkpt><trkpt lat="59.1048503201" lon="30.5165156443"><ele>299.59</ele><time>2026-08-20T21:44:24Z</time></trkpt><trkpt lat="59.1048542596" lon="30.5164913367"><ele>300.07</ele><time>2026-08-20T21:44:25Z</time></trkpt><trkpt lat="59.1048548464" lon="30.5164682865"><ele>300.07</ele><time>2026-08-20T21:44:26Z</time></trkpt><trkpt lat="59.1048538405" lon="30.5164489243"><ele>300.07</ele><time>2026-08-20T21:44:27Z</time></trkpt><trkpt lat="59.1048542596" lon="30.5164285563"><ele>300.07</ele><time>2026-08-20T21:44:28Z</time></trkpt><trkpt lat="59.1048532538" lon="30.5164086912"><ele>300.07</ele><time>2026-08-20T21:44:29Z</time></trkpt><trkpt lat="59.1048532538" lon="30.5163889937"><ele>300.07</ele><time>2026-08-20T21:44:30Z</time></trkpt><trkpt lat="59.1048543435" lon="30.5163679551"><ele>300.07</ele><time>2026-08-20T21:44:31Z</time></trkpt><trkpt lat="59.1048549302" lon="30.5163448211"><ele>300.07</ele><time>2026-08-20T21:44:32Z</time></trkpt><trkpt lat="59.1048550978" lon="30.5163230281"><ele>300.07</ele><time>2026-08-20T21:44:33Z</time></trkpt><trkpt lat="59.1048523318" lon="30.5162939429"><ele>300.07</ele><time>2026-08-20T21:44:34Z</time></trkpt><trkpt lat="59.1048432793" lon="30.5162647739"><ele>300.07</ele><time>2026-08-20T21:44:35Z</time></trkpt><trkpt lat="59.1048361547" lon="30.5162436515"><ele>300.07</ele><time>2026-08-20T21:44:36Z</time></trkpt><trkpt lat="59.1048278566" lon="30.5162192602"><ele>300.07</ele><time>2026-08-20T21:44:37Z</time></trkpt><trkpt lat="59.1048260964" lon="30.5161996465"><ele>300.07</ele><time>2026-08-20T21:44:38Z</time></trkpt><trkpt lat="59.1048242524" lon="30.5161848944"><ele>300.07</ele><time>2026-08-20T21:44:39Z</time></trkpt><trkpt lat="59.1048229951" lon="30.5161784403"><ele>300.07</ele><time>2026-08-20T21:44:40Z</time></trkpt><trkpt lat="59.1048219893" lon="30.5161712319"><ele>300.07</ele><time>2026-08-20T21:44:41Z</time></trkpt><trkpt lat="59.1048216540" lon="30.5161560606"><ele>300.07</ele><time>2026-08-20T21:44:42Z</time></trkpt><trkpt lat="59.1048209835" lon="30.5161368661"><ele>300.07</ele><time>2026-08-20T21:44:43Z</time></trkpt><trkpt lat="59.1048205644" lon="30.5161197670"><ele>300.07</ele><time>2026-08-20T21:44:44Z</time></trkpt><trkpt lat="59.1048203968" lon="30.5160984769"><ele>300.07</ele><time>2026-08-20T21:44:45Z</time></trkpt><trkpt lat="59.1048191395" lon="30.5160752591"><ele>300.07</ele><time>2026-08-20T21:44:46Z</time></trkpt><trkpt lat="59.1048196424" lon="30.5160573218"><ele>300.07</ele><time>2026-08-20T21:44:47Z</time></trkpt><trkpt lat="59.1048190556" lon="30.5160385463"><ele>300.07</ele><time>2026-08-20T21:44:48Z</time></trkpt><trkpt lat="59.1048187204" lon="30.5160178430"><ele>300.07</ele><time>2026-08-20T21:44:49Z</time></trkpt><trkpt lat="59.1048188880" lon="30.5159939546"><ele>300.07</ele><time>2026-08-20T21:44:50Z</time></trkpt><trkpt lat="59.1048208997" lon="30.5159726646"><ele>300.07</ele><time>2026-08-20T21:44:51Z</time></trkpt><trkpt lat="59.1048215702" lon="30.5159495305"><ele>300.07</ele><time>2026-08-20T21:44:52Z</time></trkpt><trkpt lat="59.1048173793" lon="30.5159248877"><ele>300.07</ele><time>2026-08-20T21:44:53Z</time></trkpt><trkpt lat="59.1048159543" lon="30.5159035977"><ele>300.07</ele><time>2026-08-20T21:44:54Z</time></trkpt><trkpt lat="59.1048173793" lon="30.5158803798"><ele>300.07</ele><time>2026-08-20T21:44:55Z</time></trkpt><trkpt lat="59.1048196424" lon="30.5158576649"><ele>300.07</ele><time>2026-08-20T21:44:56Z</time></trkpt><trkpt lat="59.1048207320" lon="30.5158350337"><ele>300.07</ele><time>2026-08-20T21:44:57Z</time></trkpt><trkpt lat="59.1048204806" lon="30.5158142466"><ele>300.07</ele><time>2026-08-20T21:44:58Z</time></trkpt><trkpt lat="59.1048193909" lon="30.5157924537"><ele>300.07</ele><time>2026-08-20T21:44:59Z</time></trkpt><trkpt lat="59.1048189718" lon="30.5157702416"><ele>300.07</ele><time>2026-08-20T21:45:00Z</time></trkpt><trkpt lat="59.1048155352" lon="30.5157474428"><ele>300.07</ele><time>2026-08-20T21:45:01Z</time></trkpt><trkpt lat="59.1048136912" lon="30.5157257337"><ele>300.07</ele><time>2026-08-20T21:45:02Z</time></trkpt><trkpt lat="59.1048147809" lon="30.5157019291"><ele>300.07</ele><time>2026-08-20T21:45:03Z</time></trkpt><trkpt lat="59.1048146971" lon="30.5156802200"><ele>300.07</ele><time>2026-08-20T21:45:04Z</time></trkpt><trkpt lat="59.1048133560" lon="30.5156616960"><ele>300.07</ele><time>2026-08-20T21:45:05Z</time></trkpt><trkpt lat="59.1048111767" lon="30.5156429205"><ele>300.07</ele><time>2026-08-20T21:45:06Z</time></trkpt><trkpt lat="59.1048128530" lon="30.5156271625"><ele>300.07</ele><time>2026-08-20T21:45:07Z</time></trkpt><trkpt lat="59.1048141941" lon="30.5156133324"><ele>300.07</ele><time>2026-08-20T21:45:08Z</time></trkpt><trkpt lat="59.1048145294" lon="30.5155962333"><ele>300.07</ele><time>2026-08-20T21:45:09Z</time></trkpt><trkpt lat="59.1048077401" lon="30.5155793857"><ele>300.07</ele><time>2026-08-20T21:45:10Z</time></trkpt><trkpt lat="59.1047974303" lon="30.5155593529"><ele>300.07</ele><time>2026-08-20T21:45:11Z</time></trkpt><trkpt lat="59.1047966760" lon="30.5155381467"><ele>300.07</ele><time>2026-08-20T21:45:12Z</time></trkpt><trkpt lat="59.1047942452" lon="30.5155161861"><ele>300.07</ele><time>2026-08-20T21:45:13Z</time></trkpt><trkpt lat="59.1047933232" lon="30.5154943932"><ele>300.07</ele><time>2026-08-20T21:45:14Z</time></trkpt><trkpt lat="59.1047928203" lon="30.5154789705"><ele>300.07</ele><time>2026-08-20T21:45:15Z</time></trkpt><trkpt lat="59.1047944967" lon="30.5154649727"><ele>300.07</ele><time>2026-08-20T21:45:16Z</time></trkpt><trkpt lat="59.1047982685" lon="30.5154437665"><ele>300.07</ele><time>2026-08-20T21:45:17Z</time></trkpt><trkpt lat="59.1047970951" lon="30.5154321995"><ele>300.07</ele><time>2026-08-20T21:45:18Z</time></trkpt><trkpt lat="59.1047967598" lon="30.5154193752"><ele>300.07</ele><time>2026-08-20T21:45:19Z</time></trkpt><trkpt lat="59.1047945805" lon="30.5154008511"><ele>300.07</ele><time>2026-08-20T21:45:20Z</time></trkpt><trkpt lat="59.1047915630" lon="30.5153816566"><ele>300.07</ele><time>2026-08-20T21:45:21Z</time></trkpt><trkpt lat="59.1047883779" lon="30.5153664853"><ele>300.07</ele><time>2026-08-20T21:45:22Z</time></trkpt><trkpt lat="59.1047849413" lon="30.5153477937"><ele>300.07</ele><time>2026-08-20T21:45:23Z</time></trkpt><trkpt lat="59.1047801636" lon="30.5153313652"><ele>300.07</ele><time>2026-08-20T21:45:24Z</time></trkpt><trkpt lat="59.1047782358" lon="30.5153164454"><ele>300.07</ele><time>2026-08-20T21:45:25Z</time></trkpt><trkpt lat="59.1047766432" lon="30.5153014418"><ele>300.07</ele><time>2026-08-20T21:45:26Z</time></trkpt><trkpt lat="59.1047768947" lon="30.5152841751"><ele>300.07</ele><time>2026-08-20T21:45:27Z</time></trkpt><trkpt lat="59.1047779843" lon="30.5152664892"><ele>300.07</ele><time>2026-08-20T21:45:28Z</time></trkpt><trkpt lat="59.1047771461" lon="30.5152501445"><ele>300.07</ele><time>2026-08-20T21:45:29Z</time></trkpt><trkpt lat="59.1047776490" lon="30.5152291898"><ele>300.07</ele><time>2026-08-20T21:45:30Z</time></trkpt><trkpt lat="59.1047783196" lon="30.5152024515"><ele>300.07</ele><time>2026-08-20T21:45:31Z</time></trkpt><trkpt lat="59.1047821753" lon="30.5151730310"><ele>300.07</ele><time>2026-08-20T21:45:32Z</time></trkpt><trkpt lat="59.1047811694" lon="30.5151463766"><ele>300.07</ele><time>2026-08-20T21:45:33Z</time></trkpt><trkpt lat="59.1047792416" lon="30.5151240807"><ele>300.07</ele><time>2026-08-20T21:45:34Z</time></trkpt><trkpt lat="59.1047797445" lon="30.5151034612"><ele>300.07</ele><time>2026-08-20T21:45:35Z</time></trkpt><trkpt lat="59.1047791578" lon="30.5150812492"><ele>300.07</ele><time>2026-08-20T21:45:36Z</time></trkpt><trkpt lat="59.1047779843" lon="30.5150663294"><ele>300.07</ele><time>2026-08-20T21:45:37Z</time></trkpt><trkpt lat="59.1047734581" lon="30.5150504876"><ele>300.07</ele><time>2026-08-20T21:45:38Z</time></trkpt><trkpt lat="59.1047673393" lon="30.5150345620"><ele>300.07</ele><time>2026-08-20T21:45:39Z</time></trkpt><trkpt lat="59.1047630645" lon="30.5150197260"><ele>300.07</ele><time>2026-08-20T21:45:40Z</time></trkpt><trkpt lat="59.1047573648" lon="30.5150028784"><ele>300.07</ele><time>2026-08-20T21:45:41Z</time></trkpt><trkpt lat="59.1047556885" lon="30.5149849411"><ele>300.07</ele><time>2026-08-20T21:45:42Z</time></trkpt><trkpt lat="59.1047584545" lon="30.5149720330"><ele>300.07</ele><time>2026-08-20T21:45:43Z</time></trkpt><trkpt lat="59.1047584545" lon="30.5149612203"><ele>300.07</ele><time>2026-08-20T21:45:44Z</time></trkpt><trkpt lat="59.1047595441" lon="30.5149434507"><ele>300.07</ele><time>2026-08-20T21:45:45Z</time></trkpt><trkpt lat="59.1047603823" lon="30.5149278603"><ele>300.07</ele><time>2026-08-20T21:45:46Z</time></trkpt><trkpt lat="59.1047571972" lon="30.5149033852"><ele>300.07</ele><time>2026-08-20T21:45:47Z</time></trkpt><trkpt lat="59.1047565266" lon="30.5148870405"><ele>300.07</ele><time>2026-08-20T21:45:48Z</time></trkpt><trkpt lat="59.1047574487" lon="30.5148664210"><ele>300.07</ele><time>2026-08-20T21:45:49Z</time></trkpt><trkpt lat="59.1047585383" lon="30.5148476455"><ele>300.07</ele><time>2026-08-20T21:45:50Z</time></trkpt><trkpt lat="59.1047570296" lon="30.5148313846"><ele>300.07</ele><time>2026-08-20T21:45:51Z</time></trkpt><trkpt lat="59.1047341470" lon="30.5147716217"><ele>300.07</ele><time>2026-08-20T21:45:52Z</time></trkpt><trkpt lat="59.1047367454" lon="30.5147503316"><ele>300.07</ele><time>2026-08-20T21:45:53Z</time></trkpt><trkpt lat="59.1047360748" lon="30.5147333164"><ele>300.07</ele><time>2026-08-20T21:45:54Z</time></trkpt><trkpt lat="59.1047361586" lon="30.5147169717"><ele>300.07</ele><time>2026-08-20T21:45:55Z</time></trkpt><trkpt lat="59.1047347337" lon="30.5146931671"><ele>300.07</ele><time>2026-08-20T21:45:56Z</time></trkpt><trkpt lat="59.1047324706" lon="30.5146708712"><ele>300.07</ele><time>2026-08-20T21:45:57Z</time></trkpt><trkpt lat="59.1047302913" lon="30.5146575440"><ele>300.07</ele><time>2026-08-20T21:45:58Z</time></trkpt><trkpt lat="59.1047286987" lon="30.5146502517"><ele>300.07</ele><time>2026-08-20T21:45:59Z</time></trkpt><trkpt lat="59.1047276929" lon="30.5146456417"><ele>300.07</ele><time>2026-08-20T21:46:00Z</time></trkpt><trkpt lat="59.1047276929" lon="30.5146456417"><ele>300.55</ele><time>2026-08-20T21:46:01Z</time></trkpt><trkpt lat="59.1047276929" lon="30.5146456417"><ele>300.55</ele><time>2026-08-20T21:46:02Z</time></trkpt><trkpt lat="59.1047276929" lon="30.5146456417"><ele>300.55</ele><time>2026-08-20T21:46:03Z</time></trkpt><trkpt lat="59.1047243401" lon="30.5146282911"><ele>300.55</ele><time>2026-08-20T21:46:04Z</time></trkpt><trkpt lat="59.1047227476" lon="30.5146129522"><ele>300.55</ele><time>2026-08-20T21:46:05Z</time></trkpt><trkpt lat="59.1047233343" lon="30.5145955179"><ele>300.55</ele><time>2026-08-20T21:46:06Z</time></trkpt><trkpt lat="59.1047244240" lon="30.5145788379"><ele>300.07</ele><time>2026-08-20T21:46:07Z</time></trkpt><trkpt lat="59.1047291178" lon="30.5145614874"><ele>300.07</ele><time>2026-08-20T21:46:08Z</time></trkpt><trkpt lat="59.1047334764" lon="30.5145475734"><ele>300.07</ele><time>2026-08-20T21:46:09Z</time></trkpt><trkpt lat="59.1047367454" lon="30.5145340785"><ele>300.07</ele><time>2026-08-20T21:46:10Z</time></trkpt><trkpt lat="59.1047370806" lon="30.5145179853"><ele>300.07</ele><time>2026-08-20T21:46:11Z</time></trkpt><trkpt lat="59.1047377512" lon="30.5145046581"><ele>300.07</ele><time>2026-08-20T21:46:12Z</time></trkpt><trkpt lat="59.1047386732" lon="30.5144894868"><ele>300.07</ele><time>2026-08-20T21:46:13Z</time></trkpt><trkpt lat="59.1047361586" lon="30.5144734774"><ele>300.07</ele><time>2026-08-20T21:46:14Z</time></trkpt><trkpt lat="59.1047360748" lon="30.5144573841"><ele>300.07</ele><time>2026-08-20T21:46:15Z</time></trkpt><trkpt lat="59.1047370806" lon="30.5144402850"><ele>300.07</ele><time>2026-08-20T21:46:16Z</time></trkpt><trkpt lat="59.1047381703" lon="30.5144236889"><ele>300.07</ele><time>2026-08-20T21:46:17Z</time></trkpt><trkpt lat="59.1047374997" lon="30.5144063383"><ele>300.07</ele><time>2026-08-20T21:46:18Z</time></trkpt><trkpt lat="59.1047354881" lon="30.5143844616"><ele>300.07</ele><time>2026-08-20T21:46:19Z</time></trkpt><trkpt lat="59.1047336441" lon="30.5143714696"><ele>300.07</ele><time>2026-08-20T21:46:20Z</time></trkpt><trkpt lat="59.1047313809" lon="30.5143580586"><ele>300.07</ele><time>2026-08-20T21:46:21Z</time></trkpt><trkpt lat="59.1047283635" lon="30.5143561307"><ele>300.07</ele><time>2026-08-20T21:46:22Z</time></trkpt><trkpt lat="59.1047258489" lon="30.5143519398"><ele>300.07</ele><time>2026-08-20T21:46:23Z</time></trkpt><trkpt lat="59.1047222447" lon="30.5143495928"><ele>300.55</ele><time>2026-08-20T21:46:24Z</time></trkpt><trkpt lat="59.1047222447" lon="30.5143495928"><ele>300.55</ele><time>2026-08-20T21:46:25Z</time></trkpt><trkpt lat="59.1047222447" lon="30.5143495928"><ele>300.55</ele><time>2026-08-20T21:46:26Z</time></trkpt><trkpt lat="59.1047222447" lon="30.5143495928"><ele>300.55</ele><time>2026-08-20T21:46:27Z</time></trkpt><trkpt lat="59.1047222447" lon="30.5143495928"><ele>300.55</ele><time>2026-08-20T21:46:28Z</time></trkpt><trkpt lat="59.1047222447" lon="30.5143279675"><ele>300.55</ele><time>2026-08-20T21:46:29Z</time></trkpt><trkpt lat="59.1047237534" lon="30.5143169872"><ele>300.55</ele><time>2026-08-20T21:46:30Z</time></trkpt><trkpt lat="59.1047253460" lon="30.5143043306"><ele>300.55</ele><time>2026-08-20T21:46:31Z</time></trkpt><trkpt lat="59.1047266871" lon="30.5142896622"><ele>300.07</ele><time>2026-08-20T21:46:32Z</time></trkpt><trkpt lat="59.1047299560" lon="30.5142769217"><ele>300.07</ele><time>2026-08-20T21:46:33Z</time></trkpt><trkpt lat="59.1047326382" lon="30.5142655224"><ele>300.07</ele><time>2026-08-20T21:46:34Z</time></trkpt><trkpt lat="59.1047331411" lon="30.5142528657"><ele>300.07</ele><time>2026-08-20T21:46:35Z</time></trkpt><trkpt lat="59.1047353204" lon="30.5142421369"><ele>300.07</ele><time>2026-08-20T21:46:36Z</time></trkpt><trkpt lat="59.1047414392" lon="30.5142262951"><ele>300.07</ele><time>2026-08-20T21:46:37Z</time></trkpt><trkpt lat="59.1047433671" lon="30.5142107885"><ele>300.07</ele><time>2026-08-20T21:46:38Z</time></trkpt><trkpt lat="59.1047414392" lon="30.5141874868"><ele>300.07</ele><time>2026-08-20T21:46:39Z</time></trkpt><trkpt lat="59.1047393437" lon="30.5141642690"><ele>300.07</ele><time>2026-08-20T21:46:40Z</time></trkpt><trkpt lat="59.1047329735" lon="30.5141372792"><ele>300.07</ele><time>2026-08-20T21:46:41Z</time></trkpt><trkpt lat="59.1047275253" lon="30.5141191743"><ele>300.07</ele><time>2026-08-20T21:46:42Z</time></trkpt><trkpt lat="59.1047227476" lon="30.5141017400"><ele>300.07</ele><time>2026-08-20T21:46:43Z</time></trkpt><trkpt lat="59.1047167964" lon="30.5140826292"><ele>300.55</ele><time>2026-08-20T21:46:44Z</time></trkpt><trkpt lat="59.1047141980" lon="30.5140633509"><ele>300.55</ele><time>2026-08-20T21:46:45Z</time></trkpt><trkpt lat="59.1047139466" lon="30.5140446592"><ele>300.55</ele><time>2026-08-20T21:46:46Z</time></trkpt><trkpt lat="59.1047126893" lon="30.5140210222"><ele>300.55</ele><time>2026-08-20T21:46:47Z</time></trkpt><trkpt lat="59.1047126893" lon="30.5140005704"><ele>300.55</ele><time>2026-08-20T21:46:48Z</time></trkpt><trkpt lat="59.1047118511" lon="30.5139764305"><ele>300.55</ele><time>2026-08-20T21:46:49Z</time></trkpt><trkpt lat="59.1047120187" lon="30.5139580742"><ele>300.55</ele><time>2026-08-20T21:46:50Z</time></trkpt><trkpt lat="59.1047115996" lon="30.5139391311"><ele>300.55</ele><time>2026-08-20T21:46:51Z</time></trkpt><trkpt lat="59.1047115996" lon="30.5139194336"><ele>300.55</ele><time>2026-08-20T21:46:52Z</time></trkpt><trkpt lat="59.1047095880" lon="30.5138941202"><ele>300.55</ele><time>2026-08-20T21:46:53Z</time></trkpt><trkpt lat="59.1047090851" lon="30.5138787813"><ele>300.55</ele><time>2026-08-20T21:46:54Z</time></trkpt><trkpt lat="59.1047082469" lon="30.5138593353"><ele>300.55</ele><time>2026-08-20T21:46:55Z</time></trkpt><trkpt lat="59.1047057323" lon="30.5138399731"><ele>300.55</ele><time>2026-08-20T21:46:56Z</time></trkpt><trkpt lat="59.1047020443" lon="30.5138201918"><ele>300.55</ele><time>2026-08-20T21:46:57Z</time></trkpt><trkpt lat="59.1046999488" lon="30.5137933698"><ele>300.55</ele><time>2026-08-20T21:46:58Z</time></trkpt><trkpt lat="59.1046967637" lon="30.5137756839"><ele>300.55</ele><time>2026-08-20T21:46:59Z</time></trkpt><trkpt lat="59.1046942491" lon="30.5137582496"><ele>300.55</ele><time>2026-08-20T21:47:00Z</time></trkpt><trkpt lat="59.1046841908" lon="30.5137293320"><ele>300.55</ele><time>2026-08-20T21:47:01Z</time></trkpt><trkpt lat="59.1046822630" lon="30.5137054436"><ele>300.07</ele><time>2026-08-20T21:47:02Z</time></trkpt><trkpt lat="59.1046805866" lon="30.5136864167"><ele>300.07</ele><time>2026-08-20T21:47:03Z</time></trkpt><trkpt lat="59.1046797484" lon="30.5136688985"><ele>300.07</ele><time>2026-08-20T21:47:04Z</time></trkpt><trkpt lat="59.1046811733" lon="30.5136464350"><ele>300.07</ele><time>2026-08-20T21:47:05Z</time></trkpt><trkpt lat="59.1046825983" lon="30.5136386398"><ele>300.07</ele><time>2026-08-20T21:47:06Z</time></trkpt><trkpt lat="59.1046815924" lon="30.5136251450"><ele>300.07</ele><time>2026-08-20T21:47:07Z</time></trkpt><trkpt lat="59.1046773177" lon="30.5136119854"><ele>300.07</ele><time>2026-08-20T21:47:08Z</time></trkpt><trkpt lat="59.1046756413" lon="30.5136000831"><ele>300.07</ele><time>2026-08-20T21:47:09Z</time></trkpt><trkpt lat="59.1046753898" lon="30.5135874264"><ele>300.07</ele><time>2026-08-20T21:47:10Z</time></trkpt><trkpt lat="59.1046748869" lon="30.5135737639"><ele>300.07</ele><time>2026-08-20T21:47:11Z</time></trkpt><trkpt lat="59.1046718694" lon="30.5135584250"><ele>300.07</ele><time>2026-08-20T21:47:12Z</time></trkpt><trkpt lat="59.1046708636" lon="30.5135457683"><ele>300.07</ele><time>2026-08-20T21:47:13Z</time></trkpt><trkpt lat="59.1046685167" lon="30.5135325249"><ele>300.07</ele><time>2026-08-20T21:47:14Z</time></trkpt><trkpt lat="59.1046662536" lon="30.5135166831"><ele>300.07</ele><time>2026-08-20T21:47:15Z</time></trkpt><trkpt lat="59.1046662536" lon="30.5135166831"><ele>300.07</ele><time>2026-08-20T21:47:16Z</time></trkpt><trkpt lat="59.1046662536" lon="30.5135166831"><ele>300.07</ele><time>2026-08-20T21:47:17Z</time></trkpt><trkpt lat="59.1046662536" lon="30.5135166831"><ele>300.07</ele><time>2026-08-20T21:47:18Z</time></trkpt><trkpt lat="59.1046662536" lon="30.5135166831"><ele>300.07</ele><time>2026-08-20T21:47:19Z</time></trkpt><trkpt lat="59.1046662536" lon="30.5135166831"><ele>300.07</ele><time>2026-08-20T21:47:20Z</time></trkpt><trkpt lat="59.1046662536" lon="30.5135166831"><ele>300.07</ele><time>2026-08-20T21:47:21Z</time></trkpt><trkpt lat="59.1046662536" lon="30.5135166831"><ele>300.07</ele><time>2026-08-20T21:47:22Z</time></trkpt><trkpt lat="59.1046662536" lon="30.5135166831"><ele>300.07</ele><time>2026-08-20T21:47:23Z</time></trkpt><trkpt lat="59.1046662536" lon="30.5135166831"><ele>300.07</ele><time>2026-08-20T21:47:24Z</time></trkpt><trkpt lat="59.1046662536" lon="30.5135166831"><ele>300.07</ele><time>2026-08-20T21:47:25Z</time></trkpt><trkpt lat="59.1046662536" lon="30.5135166831"><ele>300.07</ele><time>2026-08-20T21:47:26Z</time></trkpt><trkpt lat="59.1046662536" lon="30.5135166831"><ele>300.07</ele><time>2026-08-20T21:47:27Z</time></trkpt><trkpt lat="59.1046662536" lon="30.5135166831"><ele>300.07</ele><time>2026-08-20T21:47:28Z</time></trkpt><trkpt lat="59.1046662536" lon="30.5135166831"><ele>299.59</ele><time>2026-08-20T21:47:29Z</time></trkpt><trkpt lat="59.1046662536" lon="30.5135166831"><ele>299.59</ele><time>2026-08-20T21:47:30Z</time></trkpt><trkpt lat="59.1046662536" lon="30.5135166831"><ele>299.59</ele><time>2026-08-20T21:47:31Z</time></trkpt><trkpt lat="59.1046662536" lon="30.5135166831"><ele>299.59</ele><time>2026-08-20T21:47:32Z</time></trkpt><trkpt lat="59.1046662536" lon="30.5135166831"><ele>299.59</ele><time>2026-08-20T21:47:33Z</time></trkpt><trkpt lat="59.1046662536" lon="30.5135166831"><ele>299.59</ele><time>2026-08-20T21:47:34Z</time></trkpt><trkpt lat="59.1046662536" lon="30.5135166831"><ele>299.59</ele><time>2026-08-20T21:47:35Z</time></trkpt><trkpt lat="59.1046662536" lon="30.5135166831"><ele>300.07</ele><time>2026-08-20T21:47:36Z</time></trkpt><trkpt lat="59.1046662536" lon="30.5135166831"><ele>300.07</ele><time>2026-08-20T21:47:37Z</time></trkpt><trkpt lat="59.1046662536" lon="30.5135166831"><ele>300.07</ele><time>2026-08-20T21:47:38Z</time></trkpt><trkpt lat="59.1046662536" lon="30.5135166831"><ele>300.07</ele><time>2026-08-20T21:47:39Z</time></trkpt><trkpt lat="59.1046662536" lon="30.5135166831"><ele>300.07</ele><time>2026-08-20T21:47:40Z</time></trkpt><trkpt lat="59.1046662536" lon="30.5135166831"><ele>300.07</ele><time>2026-08-20T21:47:41Z</time></trkpt><trkpt lat="59.1046662536" lon="30.5135166831"><ele>300.07</ele><time>2026-08-20T21:47:42Z</time></trkpt><trkpt lat="59.1046662536" lon="30.5135166831"><ele>300.07</ele><time>2026-08-20T21:47:43Z</time></trkpt><trkpt lat="59.1046662536" lon="30.5135166831"><ele>300.07</ele><time>2026-08-20T21:47:44Z</time></trkpt><trkpt lat="59.1046662536" lon="30.5135166831"><ele>300.07</ele><time>2026-08-20T21:47:45Z</time></trkpt><trkpt lat="59.1046662536" lon="30.5135166831"><ele>300.07</ele><time>2026-08-20T21:47:46Z</time></trkpt><trkpt lat="59.1046662536" lon="30.5135166831"><ele>300.07</ele><time>2026-08-20T21:47:47Z</time></trkpt><trkpt lat="59.1046662536" lon="30.5135166831"><ele>300.07</ele><time>2026-08-20T21:47:48Z</time></trkpt><trkpt lat="59.1046662536" lon="30.5135166831"><ele>300.07</ele><time>2026-08-20T21:47:49Z</time></trkpt><trkpt lat="59.1046662536" lon="30.5135166831"><ele>300.07</ele><time>2026-08-20T21:47:50Z</time></trkpt><trkpt lat="59.1046662536" lon="30.5135166831"><ele>300.07</ele><time>2026-08-20T21:47:51Z</time></trkpt><trkpt lat="59.1046662536" lon="30.5135166831"><ele>300.07</ele><time>2026-08-20T21:47:52Z</time></trkpt><trkpt lat="59.1046662536" lon="30.5135166831"><ele>300.07</ele><time>2026-08-20T21:47:53Z</time></trkpt><trkpt lat="59.1046662536" lon="30.5135166831"><ele>300.07</ele><time>2026-08-20T21:47:54Z</time></trkpt><trkpt lat="59.1046662536" lon="30.5135166831"><ele>300.07</ele><time>2026-08-20T21:47:55Z</time></trkpt><trkpt lat="59.1046662536" lon="30.5135166831"><ele>300.07</ele><time>2026-08-20T21:47:56Z</time></trkpt><trkpt lat="59.1046662536" lon="30.5135166831"><ele>300.07</ele><time>2026-08-20T21:47:57Z</time></trkpt><trkpt lat="59.1046662536" lon="30.5135166831"><ele>300.07</ele><time>2026-08-20T21:47:58Z</time></trkpt><trkpt lat="59.1046662536" lon="30.5135166831"><ele>300.07</ele><time>2026-08-20T21:47:59Z</time></trkpt><trkpt lat="59.1046662536" lon="30.5135166831"><ele>300.07</ele><time>2026-08-20T21:48:00Z</time></trkpt><trkpt lat="59.1046662536" lon="30.5135166831"><ele>300.07</ele><time>2026-08-20T21:48:01Z</time></trkpt><trkpt lat="59.1046662536" lon="30.5135166831"><ele>300.07</ele><time>2026-08-20T21:48:02Z</time></trkpt><trkpt lat="59.1046662536" lon="30.5135166831"><ele>300.07</ele><time>2026-08-20T21:48:03Z</time></trkpt><trkpt lat="59.1046662536" lon="30.5135166831"><ele>300.07</ele><time>2026-08-20T21:48:04Z</time></trkpt><trkpt lat="59.1046662536" lon="30.5135166831"><ele>300.07</ele><time>2026-08-20T21:48:05Z</time></trkpt><trkpt lat="59.1046662536" lon="30.5135166831"><ele>300.07</ele><time>2026-08-20T21:48:06Z</time></trkpt><trkpt lat="59.1046662536" lon="30.5135166831"><ele>300.07</ele><time>2026-08-20T21:48:07Z</time></trkpt><trkpt lat="59.1046662536" lon="30.5135166831"><ele>300.07</ele><time>2026-08-20T21:48:08Z</time></trkpt><trkpt lat="59.1046662536" lon="30.5135166831"><ele>300.07</ele><time>2026-08-20T21:48:09Z</time></trkpt><trkpt lat="59.1046662536" lon="30.5135166831"><ele>300.07</ele><time>2026-08-20T21:48:10Z</time></trkpt><trkpt lat="59.1046662536" lon="30.5135166831"><ele>300.07</ele><time>2026-08-20T21:48:11Z</time></trkpt><trkpt lat="59.1046662536" lon="30.5135166831"><ele>300.07</ele><time>2026-08-20T21:48:12Z</time></trkpt><trkpt lat="59.1046662536" lon="30.5135166831"><ele>300.07</ele><time>2026-08-20T21:48:13Z</time></trkpt><trkpt lat="59.1046662536" lon="30.5135166831"><ele>300.07</ele><time>2026-08-20T21:48:14Z</time></trkpt><trkpt lat="59.1046662536" lon="30.5135166831"><ele>300.07</ele><time>2026-08-20T21:48:15Z</time></trkpt><trkpt lat="59.1046662536" lon="30.5135166831"><ele>300.07</ele><time>2026-08-20T21:48:16Z</time></trkpt><trkpt lat="59.1046662536" lon="30.5135166831"><ele>300.07</ele><time>2026-08-20T21:48:17Z</time></trkpt><trkpt lat="59.1046662536" lon="30.5135166831"><ele>300.07</ele><time>2026-08-20T21:48:18Z</time></trkpt><trkpt lat="59.1046662536" lon="30.5135166831"><ele>300.07</ele><time>2026-08-20T21:48:19Z</time></trkpt><trkpt lat="59.1046662536" lon="30.5135166831"><ele>300.07</ele><time>2026-08-20T21:48:20Z</time></trkpt><trkpt lat="59.1046662536" lon="30.5135166831"><ele>300.07</ele><time>2026-08-20T21:48:21Z</time></trkpt><trkpt lat="59.1046662536" lon="30.5135166831"><ele>300.07</ele><time>2026-08-20T21:48:22Z</time></trkpt><trkpt lat="59.1046662536" lon="30.5135166831"><ele>300.07</ele><time>2026-08-20T21:48:23Z</time></trkpt><trkpt lat="59.1046662536" lon="30.5135166831"><ele>300.07</ele><time>2026-08-20T21:48:24Z</time></trkpt><trkpt lat="59.1046662536" lon="30.5135166831"><ele>300.07</ele><time>2026-08-20T21:48:25Z</time></trkpt><trkpt lat="59.1046662536" lon="30.5135166831"><ele>300.07</ele><time>2026-08-20T21:48:26Z</time></trkpt><trkpt lat="59.1046662536" lon="30.5135166831"><ele>300.07</ele><time>2026-08-20T21:48:27Z</time></trkpt><trkpt lat="59.1046662536" lon="30.5135166831"><ele>300.07</ele><time>2026-08-20T21:48:28Z</time></trkpt><trkpt lat="59.1046662536" lon="30.5135166831"><ele>300.07</ele><time>2026-08-20T21:48:29Z</time></trkpt><trkpt lat="59.1046662536" lon="30.5135166831"><ele>300.07</ele><time>2026-08-20T21:48:30Z</time></trkpt><trkpt lat="59.1046662536" lon="30.5135166831"><ele>300.07</ele><time>2026-08-20T21:48:31Z</time></trkpt><trkpt lat="59.1046662536" lon="30.5135166831"><ele>300.55</ele><time>2026-08-20T21:48:32Z</time></trkpt><trkpt lat="59.1046662536" lon="30.5135166831"><ele>300.55</ele><time>2026-08-20T21:48:33Z</time></trkpt><trkpt lat="59.1046662536" lon="30.5135166831"><ele>300.55</ele><time>2026-08-20T21:48:34Z</time></trkpt><trkpt lat="59.1046662536" lon="30.5135166831"><ele>300.55</ele><time>2026-08-20T21:48:35Z</time></trkpt><trkpt lat="59.1046662536" lon="30.5135166831"><ele>300.55</ele><time>2026-08-20T21:48:36Z</time></trkpt><trkpt lat="59.1046662536" lon="30.5135166831"><ele>300.55</ele><time>2026-08-20T21:48:37Z</time></trkpt><trkpt lat="59.1046662536" lon="30.5135166831"><ele>300.55</ele><time>2026-08-20T21:48:38Z</time></trkpt><trkpt lat="59.1046662536" lon="30.5135166831"><ele>300.55</ele><time>2026-08-20T21:48:39Z</time></trkpt><trkpt lat="59.1046662536" lon="30.5135166831"><ele>300.55</ele><time>2026-08-20T21:48:40Z</time></trkpt><trkpt lat="59.1046662536" lon="30.5135166831"><ele>300.55</ele><time>2026-08-20T21:48:41Z</time></trkpt><trkpt lat="59.1046662536" lon="30.5135166831"><ele>300.55</ele><time>2026-08-20T21:48:42Z</time></trkpt><trkpt lat="59.1046662536" lon="30.5135166831"><ele>300.07</ele><time>2026-08-20T21:48:43Z</time></trkpt><trkpt lat="59.1046662536" lon="30.5135166831"><ele>300.07</ele><time>2026-08-20T21:48:44Z</time></trkpt><trkpt lat="59.1046662536" lon="30.5135166831"><ele>300.07</ele><time>2026-08-20T21:48:45Z</time></trkpt><trkpt lat="59.1046662536" lon="30.5135166831"><ele>300.07</ele><time>2026-08-20T21:48:46Z</time></trkpt><trkpt lat="59.1046662536" lon="30.5135166831"><ele>300.07</ele><time>2026-08-20T21:48:47Z</time></trkpt><trkpt lat="59.1046662536" lon="30.5135166831"><ele>300.07</ele><time>2026-08-20T21:48:48Z</time></trkpt><trkpt lat="59.1046662536" lon="30.5135166831"><ele>300.07</ele><time>2026-08-20T21:48:49Z</time></trkpt><trkpt lat="59.1046662536" lon="30.5135166831"><ele>300.07</ele><time>2026-08-20T21:48:50Z</time></trkpt><trkpt lat="59.1046662536" lon="30.5135166831"><ele>300.07</ele><time>2026-08-20T21:48:51Z</time></trkpt><trkpt lat="59.1046662536" lon="30.5135166831"><ele>300.07</ele><time>2026-08-20T21:48:52Z</time></trkpt><trkpt lat="59.1046662536" lon="30.5135166831"><ele>300.07</ele><time>2026-08-20T21:48:53Z</time></trkpt><trkpt lat="59.1046662536" lon="30.5135166831"><ele>300.07</ele><time>2026-08-20T21:48:54Z</time></trkpt><trkpt lat="59.1046662536" lon="30.5135166831"><ele>300.07</ele><time>2026-08-20T21:48:55Z</time></trkpt><trkpt lat="59.1046662536" lon="30.5135166831"><ele>300.07</ele><time>2026-08-20T21:48:56Z</time></trkpt><trkpt lat="59.1046662536" lon="30.5135166831"><ele>300.07</ele><time>2026-08-20T21:48:57Z</time></trkpt><trkpt lat="59.1046662536" lon="30.5135166831"><ele>300.07</ele><time>2026-08-20T21:48:58Z</time></trkpt><trkpt lat="59.1046662536" lon="30.5135166831"><ele>300.07</ele><time>2026-08-20T21:48:59Z</time></trkpt><trkpt lat="59.1046662536" lon="30.5135166831"><ele>300.07</ele><time>2026-08-20T21:49:00Z</time></trkpt><trkpt lat="59.1046662536" lon="30.5135166831"><ele>300.07</ele><time>2026-08-20T21:49:01Z</time></trkpt><trkpt lat="59.1046662536" lon="30.5135166831"><ele>299.59</ele><time>2026-08-20T21:49:02Z</time></trkpt><trkpt lat="59.1046662536" lon="30.5135166831"><ele>299.59</ele><time>2026-08-20T21:49:03Z</time></trkpt><trkpt lat="59.1046662536" lon="30.5135166831"><ele>299.59</ele><time>2026-08-20T21:49:04Z</time></trkpt><trkpt lat="59.1047003679" lon="30.5134301819"><ele>299.59</ele><time>2026-08-20T21:49:05Z</time></trkpt><trkpt lat="59.1047003679" lon="30.5134173576"><ele>299.59</ele><time>2026-08-20T21:49:06Z</time></trkpt><trkpt lat="59.1047010385" lon="30.5134022702"><ele>299.59</ele><time>2026-08-20T21:49:07Z</time></trkpt><trkpt lat="59.1047018766" lon="30.5133930501"><ele>299.59</ele><time>2026-08-20T21:49:08Z</time></trkpt><trkpt lat="59.1047005355" lon="30.5133851711"><ele>299.59</ele><time>2026-08-20T21:49:09Z</time></trkpt><trkpt lat="59.1046966799" lon="30.5133770406"><ele>299.59</ele><time>2026-08-20T21:49:10Z</time></trkpt><trkpt lat="59.1046954226" lon="30.5133726820"><ele>299.59</ele><time>2026-08-20T21:49:11Z</time></trkpt><trkpt lat="59.1046931595" lon="30.5133645516"><ele>299.59</ele><time>2026-08-20T21:49:12Z</time></trkpt><trkpt lat="59.1046891361" lon="30.5133614503"><ele>299.59</ele><time>2026-08-20T21:49:13Z</time></trkpt><trkpt lat="59.1046877950" lon="30.5133541580"><ele>300.07</ele><time>2026-08-20T21:49:14Z</time></trkpt><trkpt lat="59.1046872921" lon="30.5133438483"><ele>300.07</ele><time>2026-08-20T21:49:15Z</time></trkpt><trkpt lat="59.1046872921" lon="30.5133438483"><ele>300.07</ele><time>2026-08-20T21:49:16Z</time></trkpt><trkpt lat="59.1046872921" lon="30.5133438483"><ele>299.59</ele><time>2026-08-20T21:49:17Z</time></trkpt><trkpt lat="59.1046872921" lon="30.5133438483"><ele>299.59</ele><time>2026-08-20T21:49:18Z</time></trkpt><trkpt lat="59.1046872921" lon="30.5133438483"><ele>299.59</ele><time>2026-08-20T21:49:19Z</time></trkpt><trkpt lat="59.1046872921" lon="30.5133438483"><ele>299.59</ele><time>2026-08-20T21:49:20Z</time></trkpt><trkpt lat="59.1046872921" lon="30.5133438483"><ele>299.59</ele><time>2026-08-20T21:49:21Z</time></trkpt><trkpt lat="59.1046872921" lon="30.5133438483"><ele>299.59</ele><time>2026-08-20T21:49:22Z</time></trkpt><trkpt lat="59.1046702769" lon="30.5132515635"><ele>299.59</ele><time>2026-08-20T21:49:23Z</time></trkpt><trkpt lat="59.1046655830" lon="30.5132297706"><ele>299.59</ele><time>2026-08-20T21:49:24Z</time></trkpt><trkpt lat="59.1046586260" lon="30.5132080615"><ele>299.59</ele><time>2026-08-20T21:49:25Z</time></trkpt><trkpt lat="59.1046552733" lon="30.5131829996"><ele>299.59</ele><time>2026-08-20T21:49:26Z</time></trkpt><trkpt lat="59.1046521720" lon="30.5131562613"><ele>300.07</ele><time>2026-08-20T21:49:27Z</time></trkpt><trkpt lat="59.1046485677" lon="30.5131358933"><ele>300.07</ele><time>2026-08-20T21:49:28Z</time></trkpt><trkpt lat="59.1046503279" lon="30.5131198838"><ele>300.07</ele><time>2026-08-20T21:49:29Z</time></trkpt><trkpt lat="59.1046474781" lon="30.5131023657"><ele>300.07</ele><time>2026-08-20T21:49:30Z</time></trkpt><trkpt lat="59.1046447959" lon="30.5130818300"><ele>300.07</ele><time>2026-08-20T21:49:31Z</time></trkpt><trkpt lat="59.1046352405" lon="30.5130709335"><ele>300.07</ele><time>2026-08-20T21:49:32Z</time></trkpt><trkpt lat="59.1046323907" lon="30.5130479671"><ele>300.07</ele><time>2026-08-20T21:49:33Z</time></trkpt><trkpt lat="59.1046323907" lon="30.5130394176"><ele>300.07</ele><time>2026-08-20T21:49:34Z</time></trkpt><trkpt lat="59.1046361625" lon="30.5130375735"><ele>300.07</ele><time>2026-08-20T21:49:35Z</time></trkpt><trkpt lat="59.1046381742" lon="30.5130224861"><ele>300.07</ele><time>2026-08-20T21:49:36Z</time></trkpt><trkpt lat="59.1046348214" lon="30.5130119249"><ele>300.07</ele><time>2026-08-20T21:49:37Z</time></trkpt><trkpt lat="59.1046360787" lon="30.5130000226"><ele>300.07</ele><time>2026-08-20T21:49:38Z</time></trkpt><trkpt lat="59.1046376713" lon="30.5129830912"><ele>300.07</ele><time>2026-08-20T21:49:39Z</time></trkpt><trkpt lat="59.1046390962" lon="30.5129688419"><ele>300.07</ele><time>2026-08-20T21:49:40Z</time></trkpt><trkpt lat="59.1046412755" lon="30.5129545927"><ele>300.07</ele><time>2026-08-20T21:49:41Z</time></trkpt><trkpt lat="59.1046393476" lon="30.5129415169"><ele>300.07</ele><time>2026-08-20T21:49:42Z</time></trkpt><trkpt lat="59.1046327259" lon="30.5129243340"><ele>300.07</ele><time>2026-08-20T21:49:43Z</time></trkpt><trkpt lat="59.1046296246" lon="30.5129091628"><ele>300.07</ele><time>2026-08-20T21:49:44Z</time></trkpt><trkpt lat="59.1046300437" lon="30.5128950812"><ele>300.07</ele><time>2026-08-20T21:49:45Z</time></trkpt><trkpt lat="59.1046279483" lon="30.5128789879"><ele>300.07</ele><time>2026-08-20T21:49:46Z</time></trkpt><trkpt lat="59.1046305466" lon="30.5128614698"><ele>300.07</ele><time>2026-08-20T21:49:47Z</time></trkpt><trkpt lat="59.1046233382" lon="30.5128457956"><ele>300.07</ele><time>2026-08-20T21:49:48Z</time></trkpt><trkpt lat="59.1046233382" lon="30.5128272716"><ele>300.07</ele><time>2026-08-20T21:49:49Z</time></trkpt><trkpt lat="59.1046150401" lon="30.5127937440"><ele>300.07</ele><time>2026-08-20T21:49:50Z</time></trkpt><trkpt lat="59.1046136990" lon="30.5127738789"><ele>300.07</ele><time>2026-08-20T21:49:51Z</time></trkpt><trkpt lat="59.1046130285" lon="30.5127559416"><ele>300.07</ele><time>2026-08-20T21:49:52Z</time></trkpt><trkpt lat="59.1046139505" lon="30.5127392616"><ele>300.07</ele><time>2026-08-20T21:49:53Z</time></trkpt><trkpt lat="59.1046129446" lon="30.5127205700"><ele>300.07</ele><time>2026-08-20T21:49:54Z</time></trkpt><trkpt lat="59.1046145372" lon="30.5127054825"><ele>300.07</ele><time>2026-08-20T21:49:55Z</time></trkpt><trkpt lat="59.1046134476" lon="30.5126858689"><ele>300.07</ele><time>2026-08-20T21:49:56Z</time></trkpt><trkpt lat="59.1046131961" lon="30.5126691889"><ele>300.07</ele><time>2026-08-20T21:49:57Z</time></trkpt><trkpt lat="59.1046111844" lon="30.5126523413"><ele>300.07</ele><time>2026-08-20T21:49:58Z</time></trkpt><trkpt lat="59.1046091728" lon="30.5126349907"><ele>300.07</ele><time>2026-08-20T21:49:59Z</time></trkpt><trkpt lat="59.1046111844" lon="30.5126170535"><ele>300.07</ele><time>2026-08-20T21:50:00Z</time></trkpt><trkpt lat="59.1046085861" lon="30.5125961825"><ele>300.07</ele><time>2026-08-20T21:50:01Z</time></trkpt><trkpt lat="59.1046072450" lon="30.5125768203"><ele>300.07</ele><time>2026-08-20T21:50:02Z</time></trkpt><trkpt lat="59.1046050657" lon="30.5125536863"><ele>300.07</ele><time>2026-08-20T21:50:03Z</time></trkpt><trkpt lat="59.1046028864" lon="30.5125325639"><ele>300.07</ele><time>2026-08-20T21:50:04Z</time></trkpt><trkpt lat="59.1045995336" lon="30.5125142913"><ele>300.07</ele><time>2026-08-20T21:50:05Z</time></trkpt><trkpt lat="59.1045941692" lon="30.5124954320"><ele>300.07</ele><time>2026-08-20T21:50:06Z</time></trkpt><trkpt lat="59.1045912355" lon="30.5124742258"><ele>300.07</ele><time>2026-08-20T21:50:07Z</time></trkpt><trkpt lat="59.1045889724" lon="30.5124560371"><ele>300.07</ele><time>2026-08-20T21:50:08Z</time></trkpt><trkpt lat="59.1045839433" lon="30.5124363396"><ele>300.07</ele><time>2026-08-20T21:50:09Z</time></trkpt><trkpt lat="59.1045855358" lon="30.5124218389"><ele>300.07</ele><time>2026-08-20T21:50:10Z</time></trkpt><trkpt lat="59.1045826860" lon="30.5124060810"><ele>300.07</ele><time>2026-08-20T21:50:11Z</time></trkpt><trkpt lat="59.1045780759" lon="30.5123942625"><ele>300.07</ele><time>2026-08-20T21:50:12Z</time></trkpt><trkpt lat="59.1045752261" lon="30.5123817734"><ele>300.07</ele><time>2026-08-20T21:50:13Z</time></trkpt><trkpt lat="59.1045711190" lon="30.5123681948"><ele>300.07</ele><time>2026-08-20T21:50:14Z</time></trkpt><trkpt lat="59.1045692749" lon="30.5123571306"><ele>300.07</ele><time>2026-08-20T21:50:15Z</time></trkpt><trkpt lat="59.1045644972" lon="30.5123420432"><ele>300.07</ele><time>2026-08-20T21:50:16Z</time></trkpt><trkpt lat="59.1045582946" lon="30.5123263691"><ele>300.07</ele><time>2026-08-20T21:50:17Z</time></trkpt><trkpt lat="59.1045565344" lon="30.5123135448"><ele>300.07</ele><time>2026-08-20T21:50:18Z</time></trkpt><trkpt lat="59.1045570374" lon="30.5122979544"><ele>300.07</ele><time>2026-08-20T21:50:19Z</time></trkpt><trkpt lat="59.1045593843" lon="30.5122800171"><ele>300.07</ele><time>2026-08-20T21:50:20Z</time></trkpt><trkpt lat="59.1045628209" lon="30.5122621637"><ele>300.07</ele><time>2026-08-20T21:50:21Z</time></trkpt><trkpt lat="59.1045644972" lon="30.5122449808"><ele>300.07</ele><time>2026-08-20T21:50:22Z</time></trkpt><trkpt lat="59.1045669280" lon="30.5122331623"><ele>300.07</ele><time>2026-08-20T21:50:23Z</time></trkpt><trkpt lat="59.1045662574" lon="30.5122207571"><ele>300.07</ele><time>2026-08-20T21:50:24Z</time></trkpt><trkpt lat="59.1045669280" lon="30.5122058373"><ele>300.07</ele><time>2026-08-20T21:50:25Z</time></trkpt><trkpt lat="59.1045685206" lon="30.5121974554"><ele>300.07</ele><time>2026-08-20T21:50:26Z</time></trkpt><trkpt lat="59.1045714542" lon="30.5121835414"><ele>300.07</ele><time>2026-08-20T21:50:27Z</time></trkpt><trkpt lat="59.1045711190" lon="30.5121693760"><ele>300.07</ele><time>2026-08-20T21:50:28Z</time></trkpt><trkpt lat="59.1045730468" lon="30.5121513549"><ele>300.07</ele><time>2026-08-20T21:50:29Z</time></trkpt><trkpt lat="59.1045742203" lon="30.5121339206"><ele>300.07</ele><time>2026-08-20T21:50:30Z</time></trkpt><trkpt lat="59.1045729630" lon="30.5121161509"><ele>300.07</ele><time>2026-08-20T21:50:31Z</time></trkpt><trkpt lat="59.1045713704" lon="30.5120861437"><ele>300.07</ele><time>2026-08-20T21:50:32Z</time></trkpt><trkpt lat="59.1045668442" lon="30.5120664462"><ele>300.07</ele><time>2026-08-20T21:50:33Z</time></trkpt><trkpt lat="59.1045611445" lon="30.5120383669"><ele>300.07</ele><time>2026-08-20T21:50:34Z</time></trkpt><trkpt lat="59.1045596357" lon="30.5120191723"><ele>300.07</ele><time>2026-08-20T21:50:35Z</time></trkpt><trkpt lat="59.1045604739" lon="30.5119971279"><ele>300.07</ele><time>2026-08-20T21:50:36Z</time></trkpt><trkpt lat="59.1045620665" lon="30.5119797774"><ele>300.07</ele><time>2026-08-20T21:50:37Z</time></trkpt><trkpt lat="59.1045628209" lon="30.5119583197"><ele>300.07</ele><time>2026-08-20T21:50:38Z</time></trkpt><trkpt lat="59.1045622341" lon="30.5119360238"><ele>300.07</ele><time>2026-08-20T21:50:39Z</time></trkpt><trkpt lat="59.1045631561" lon="30.5119146500"><ele>300.07</ele><time>2026-08-20T21:50:40Z</time></trkpt><trkpt lat="59.1045675986" lon="30.5118966289"><ele>300.07</ele><time>2026-08-20T21:50:41Z</time></trkpt><trkpt lat="59.1045695264" lon="30.5118806195"><ele>300.07</ele><time>2026-08-20T21:50:42Z</time></trkpt><trkpt lat="59.1045691911" lon="30.5118591618"><ele>300.07</ele><time>2026-08-20T21:50:43Z</time></trkpt><trkpt lat="59.1045683529" lon="30.5118389614"><ele>300.07</ele><time>2026-08-20T21:50:44Z</time></trkpt><trkpt lat="59.1045646649" lon="30.5118153244"><ele>300.07</ele><time>2026-08-20T21:50:45Z</time></trkpt><trkpt lat="59.1045659222" lon="30.5117955431"><ele>300.07</ele><time>2026-08-20T21:50:46Z</time></trkpt><trkpt lat="59.1045679338" lon="30.5117742531"><ele>300.07</ele><time>2026-08-20T21:50:47Z</time></trkpt><trkpt lat="59.1045681853" lon="30.5117510352"><ele>300.07</ele><time>2026-08-20T21:50:48Z</time></trkpt><trkpt lat="59.1045693588" lon="30.5117282365"><ele>300.07</ele><time>2026-08-20T21:50:49Z</time></trkpt><trkpt lat="59.1045684367" lon="30.5117052700"><ele>300.07</ele><time>2026-08-20T21:50:50Z</time></trkpt><trkpt lat="59.1045683529" lon="30.5116816331"><ele>300.07</ele><time>2026-08-20T21:50:51Z</time></trkpt><trkpt lat="59.1045661736" lon="30.5116600916"><ele>300.07</ele><time>2026-08-20T21:50:52Z</time></trkpt><trkpt lat="59.1045657545" lon="30.5116378795"><ele>300.07</ele><time>2026-08-20T21:50:53Z</time></trkpt><trkpt lat="59.1045638267" lon="30.5116156675"><ele>300.07</ele><time>2026-08-20T21:50:54Z</time></trkpt><trkpt lat="59.1045636591" lon="30.5115931202"><ele>300.07</ele><time>2026-08-20T21:50:55Z</time></trkpt><trkpt lat="59.1045624856" lon="30.5115704890"><ele>299.59</ele><time>2026-08-20T21:50:56Z</time></trkpt><trkpt lat="59.1045613959" lon="30.5115464330"><ele>299.59</ele><time>2026-08-20T21:50:57Z</time></trkpt><trkpt lat="59.1045599710" lon="30.5115234666"><ele>299.59</ele><time>2026-08-20T21:50:58Z</time></trkpt><trkpt lat="59.1045546904" lon="30.5115012545"><ele>299.59</ele><time>2026-08-20T21:50:59Z</time></trkpt><trkpt lat="59.1045514215" lon="30.5114774499"><ele>299.59</ele><time>2026-08-20T21:51:00Z</time></trkpt><trkpt lat="59.1045474820" lon="30.5114557408"><ele>299.59</ele><time>2026-08-20T21:51:01Z</time></trkpt><trkpt lat="59.1045457218" lon="30.5114348698"><ele>299.59</ele><time>2026-08-20T21:51:02Z</time></trkpt><trkpt lat="59.1045427881" lon="30.5114138313"><ele>299.59</ele><time>2026-08-20T21:51:03Z</time></trkpt><trkpt lat="59.1045407765" lon="30.5113912839"><ele>299.59</ele><time>2026-08-20T21:51:04Z</time></trkpt><trkpt lat="59.1045379266" lon="30.5113709997"><ele>299.59</ele><time>2026-08-20T21:51:05Z</time></trkpt><trkpt lat="59.1045341548" lon="30.5113528948"><ele>299.59</ele><time>2026-08-20T21:51:06Z</time></trkpt><trkpt lat="59.1045300476" lon="30.5113327783"><ele>300.07</ele><time>2026-08-20T21:51:07Z</time></trkpt><trkpt lat="59.1045276169" lon="30.5113144219"><ele>300.07</ele><time>2026-08-20T21:51:08Z</time></trkpt><trkpt lat="59.1045237612" lon="30.5112942215"><ele>300.07</ele><time>2026-08-20T21:51:09Z</time></trkpt><trkpt lat="59.1045234259" lon="30.5112737697"><ele>300.07</ele><time>2026-08-20T21:51:10Z</time></trkpt><trkpt lat="59.1045227554" lon="30.5112525634"><ele>300.07</ele><time>2026-08-20T21:51:11Z</time></trkpt><trkpt lat="59.1045213304" lon="30.5112326983"><ele>300.07</ele><time>2026-08-20T21:51:12Z</time></trkpt><trkpt lat="59.1045200732" lon="30.5112118274"><ele>300.07</ele><time>2026-08-20T21:51:13Z</time></trkpt><trkpt lat="59.1045177262" lon="30.5111922976"><ele>300.07</ele><time>2026-08-20T21:51:14Z</time></trkpt><trkpt lat="59.1045165528" lon="30.5111692473"><ele>300.07</ele><time>2026-08-20T21:51:15Z</time></trkpt><trkpt lat="59.1045160498" lon="30.5111455265"><ele>300.07</ele><time>2026-08-20T21:51:16Z</time></trkpt><trkpt lat="59.1045160498" lon="30.5111257453"><ele>300.07</ele><time>2026-08-20T21:51:17Z</time></trkpt><trkpt lat="59.1045159660" lon="30.5110985879"><ele>300.07</ele><time>2026-08-20T21:51:18Z</time></trkpt><trkpt lat="59.1045164689" lon="30.5110773817"><ele>300.07</ele><time>2026-08-20T21:51:19Z</time></trkpt><trkpt lat="59.1045195702" lon="30.5110584386"><ele>300.07</ele><time>2026-08-20T21:51:20Z</time></trkpt><trkpt lat="59.1045227554" lon="30.5110423453"><ele>300.07</ele><time>2026-08-20T21:51:21Z</time></trkpt><trkpt lat="59.1045231745" lon="30.5110267550"><ele>300.07</ele><time>2026-08-20T21:51:22Z</time></trkpt><trkpt lat="59.1045221686" lon="30.5110082310"><ele>300.07</ele><time>2026-08-20T21:51:23Z</time></trkpt><trkpt lat="59.1045215819" lon="30.5109924730"><ele>300.07</ele><time>2026-08-20T21:51:24Z</time></trkpt><trkpt lat="59.1045193188" lon="30.5109736975"><ele>300.07</ele><time>2026-08-20T21:51:25Z</time></trkpt><trkpt lat="59.1045148764" lon="30.5109556764"><ele>300.07</ele><time>2026-08-20T21:51:26Z</time></trkpt><trkpt lat="59.1045085900" lon="30.5109395832"><ele>300.07</ele><time>2026-08-20T21:51:27Z</time></trkpt><trkpt lat="59.1045041475" lon="30.5109271780"><ele>300.07</ele><time>2026-08-20T21:51:28Z</time></trkpt><trkpt lat="59.1045026388" lon="30.5109141860"><ele>300.07</ele><time>2026-08-20T21:51:29Z</time></trkpt><trkpt lat="59.1045043990" lon="30.5108967517"><ele>300.07</ele><time>2026-08-20T21:51:30Z</time></trkpt><trkpt lat="59.1045022197" lon="30.5108767189"><ele>300.07</ele><time>2026-08-20T21:51:31Z</time></trkpt><trkpt lat="59.1044995375" lon="30.5108495615"><ele>300.07</ele><time>2026-08-20T21:51:32Z</time></trkpt><trkpt lat="59.1045014653" lon="30.5108306184"><ele>300.07</ele><time>2026-08-20T21:51:33Z</time></trkpt><trkpt lat="59.1045024712" lon="30.5108100828"><ele>300.07</ele><time>2026-08-20T21:51:34Z</time></trkpt><trkpt lat="59.1045011301" lon="30.5107849371"><ele>300.07</ele><time>2026-08-20T21:51:35Z</time></trkpt><trkpt lat="59.1044995375" lon="30.5107579473"><ele>300.07</ele><time>2026-08-20T21:51:36Z</time></trkpt><trkpt lat="59.1044981964" lon="30.5107414350"><ele>300.07</ele><time>2026-08-20T21:51:37Z</time></trkpt><trkpt lat="59.1044978611" lon="30.5107189715"><ele>300.07</ele><time>2026-08-20T21:51:38Z</time></trkpt><trkpt lat="59.1044994537" lon="30.5107022915"><ele>300.07</ele><time>2026-08-20T21:51:39Z</time></trkpt><trkpt lat="59.1044996213" lon="30.5106824264"><ele>300.07</ele><time>2026-08-20T21:51:40Z</time></trkpt><trkpt lat="59.1044992860" lon="30.5106620584"><ele>300.07</ele><time>2026-08-20T21:51:41Z</time></trkpt><trkpt lat="59.1044937540" lon="30.5106376670"><ele>300.07</ele><time>2026-08-20T21:51:42Z</time></trkpt><trkpt lat="59.1044922452" lon="30.5106204841"><ele>300.07</ele><time>2026-08-20T21:51:43Z</time></trkpt><trkpt lat="59.1044911556" lon="30.5106052291"><ele>300.07</ele><time>2026-08-20T21:51:44Z</time></trkpt><trkpt lat="59.1044891439" lon="30.5105919857"><ele>300.07</ele><time>2026-08-20T21:51:45Z</time></trkpt><trkpt lat="59.1044927482" lon="30.5105830170"><ele>300.07</ele><time>2026-08-20T21:51:46Z</time></trkpt><trkpt lat="59.1044914909" lon="30.5105641577"><ele>300.07</ele><time>2026-08-20T21:51:47Z</time></trkpt><trkpt lat="59.1044927482" lon="30.5105477292"><ele>300.07</ele><time>2026-08-20T21:51:48Z</time></trkpt><trkpt lat="59.1044882219" lon="30.5105268583"><ele>300.07</ele><time>2026-08-20T21:51:49Z</time></trkpt><trkpt lat="59.1044840310" lon="30.5105049815"><ele>300.07</ele><time>2026-08-20T21:51:50Z</time></trkpt><trkpt lat="59.1044819355" lon="30.5104866251"><ele>300.07</ele><time>2026-08-20T21:51:51Z</time></trkpt><trkpt lat="59.1044808459" lon="30.5104711186"><ele>300.07</ele><time>2026-08-20T21:51:52Z</time></trkpt><trkpt lat="59.1044780798" lon="30.5104546901"><ele>300.07</ele><time>2026-08-20T21:51:53Z</time></trkpt><trkpt lat="59.1044757329" lon="30.5104389321"><ele>300.07</ele><time>2026-08-20T21:51:54Z</time></trkpt><trkpt lat="59.1044710390" lon="30.5104092602"><ele>300.07</ele><time>2026-08-20T21:51:55Z</time></trkpt><trkpt lat="59.1044692788" lon="30.5103865452"><ele>300.07</ele><time>2026-08-20T21:51:56Z</time></trkpt><trkpt lat="59.1044688597" lon="30.5103667639"><ele>300.07</ele><time>2026-08-20T21:51:57Z</time></trkpt><trkpt lat="59.1044685245" lon="30.5103445519"><ele>300.07</ele><time>2026-08-20T21:51:58Z</time></trkpt><trkpt lat="59.1044684406" lon="30.5103208311"><ele>300.07</ele><time>2026-08-20T21:51:59Z</time></trkpt><trkpt lat="59.1044675186" lon="30.5103034806"><ele>300.07</ele><time>2026-08-20T21:52:00Z</time></trkpt><trkpt lat="59.1044583824" lon="30.5102753174"><ele>300.07</ele><time>2026-08-20T21:52:01Z</time></trkpt><trkpt lat="59.1044551972" lon="30.5102538597"><ele>300.07</ele><time>2026-08-20T21:52:02Z</time></trkpt><trkpt lat="59.1044518445" lon="30.5102353357"><ele>300.07</ele><time>2026-08-20T21:52:03Z</time></trkpt><trkpt lat="59.1044545267" lon="30.5102176499"><ele>300.07</ele><time>2026-08-20T21:52:04Z</time></trkpt><trkpt lat="59.1044531856" lon="30.5101966951"><ele>300.07</ele><time>2026-08-20T21:52:05Z</time></trkpt><trkpt lat="59.1044523474" lon="30.5101740640"><ele>300.07</ele><time>2026-08-20T21:52:06Z</time></trkpt><trkpt lat="59.1044521797" lon="30.5101547856"><ele>300.07</ele><time>2026-08-20T21:52:07Z</time></trkpt><trkpt lat="59.1044511739" lon="30.5101354234"><ele>300.07</ele><time>2026-08-20T21:52:08Z</time></trkpt><trkpt lat="59.1044487432" lon="30.5101157259"><ele>300.07</ele><time>2026-08-20T21:52:09Z</time></trkpt><trkpt lat="59.1044453904" lon="30.5100938492"><ele>300.07</ele><time>2026-08-20T21:52:10Z</time></trkpt><trkpt lat="59.1044419538" lon="30.5100748222"><ele>300.07</ele><time>2026-08-20T21:52:11Z</time></trkpt><trkpt lat="59.1044375952" lon="30.5100622494"><ele>300.07</ele><time>2026-08-20T21:52:12Z</time></trkpt><trkpt lat="59.1044368409" lon="30.5100545380"><ele>300.07</ele><time>2026-08-20T21:52:13Z</time></trkpt><trkpt lat="59.1044356674" lon="30.5100446474"><ele>300.07</ele><time>2026-08-20T21:52:14Z</time></trkpt><trkpt lat="59.1044341587" lon="30.5100360978"><ele>300.07</ele><time>2026-08-20T21:52:15Z</time></trkpt><trkpt lat="59.1044341587" lon="30.5100232735"><ele>300.07</ele><time>2026-08-20T21:52:16Z</time></trkpt><trkpt lat="59.1044317279" lon="30.5100115389"><ele>300.07</ele><time>2026-08-20T21:52:17Z</time></trkpt><trkpt lat="59.1044269502" lon="30.5099951942"><ele>300.07</ele><time>2026-08-20T21:52:18Z</time></trkpt><trkpt lat="59.1044207476" lon="30.5099850520"><ele>300.07</ele><time>2026-08-20T21:52:19Z</time></trkpt><trkpt lat="59.1044143774" lon="30.5099760834"><ele>300.07</ele><time>2026-08-20T21:52:20Z</time></trkpt><trkpt lat="59.1044142935" lon="30.5099612474"><ele>300.07</ele><time>2026-08-20T21:52:21Z</time></trkpt><trkpt lat="59.1044132877" lon="30.5099511892"><ele>300.07</ele><time>2026-08-20T21:52:22Z</time></trkpt><trkpt lat="59.1044129524" lon="30.5099369399"><ele>300.07</ele><time>2026-08-20T21:52:23Z</time></trkpt><trkpt lat="59.1044129524" lon="30.5099265464"><ele>300.07</ele><time>2026-08-20T21:52:24Z</time></trkpt><trkpt lat="59.1044153832" lon="30.5099128839"><ele>300.07</ele><time>2026-08-20T21:52:25Z</time></trkpt><trkpt lat="59.1044148803" lon="30.5098970421"><ele>300.07</ele><time>2026-08-20T21:52:26Z</time></trkpt><trkpt lat="59.1044154670" lon="30.5098823737"><ele>300.07</ele><time>2026-08-20T21:52:27Z</time></trkpt><trkpt lat="59.1044124495" lon="30.5098696332"><ele>300.07</ele><time>2026-08-20T21:52:28Z</time></trkpt><trkpt lat="59.1044118628" lon="30.5098650232"><ele>300.07</ele><time>2026-08-20T21:52:29Z</time></trkpt><trkpt lat="59.1044112761" lon="30.5098577309"><ele>300.07</ele><time>2026-08-20T21:52:30Z</time></trkpt><trkpt lat="59.1044122819" lon="30.5098466668"><ele>300.07</ele><time>2026-08-20T21:52:31Z</time></trkpt><trkpt lat="59.1044120304" lon="30.5098333396"><ele>300.07</ele><time>2026-08-20T21:52:32Z</time></trkpt><trkpt lat="59.1044129524" lon="30.5098241195"><ele>300.07</ele><time>2026-08-20T21:52:33Z</time></trkpt><trkpt lat="59.1044161376" lon="30.5098136421"><ele>300.07</ele><time>2026-08-20T21:52:34Z</time></trkpt><trkpt lat="59.1044125333" lon="30.5098198447"><ele>300.07</ele><time>2026-08-20T21:52:35Z</time></trkpt><trkpt lat="59.1044108570" lon="30.5098181684"><ele>300.07</ele><time>2026-08-20T21:52:36Z</time></trkpt><trkpt lat="59.1044105217" lon="30.5098166596"><ele>300.07</ele><time>2026-08-20T21:52:37Z</time></trkpt><trkpt lat="59.1044105217" lon="30.5098166596"><ele>300.07</ele><time>2026-08-20T21:52:38Z</time></trkpt><trkpt lat="59.1044105217" lon="30.5098166596"><ele>300.07</ele><time>2026-08-20T21:52:39Z</time></trkpt><trkpt lat="59.1044098511" lon="30.5098086968"><ele>300.07</ele><time>2026-08-20T21:52:40Z</time></trkpt><trkpt lat="59.1044117790" lon="30.5098008178"><ele>300.07</ele><time>2026-08-20T21:52:41Z</time></trkpt><trkpt lat="59.1044146288" lon="30.5097969621"><ele>300.07</ele><time>2026-08-20T21:52:42Z</time></trkpt><trkpt lat="59.1044167243" lon="30.5097944476"><ele>300.07</ele><time>2026-08-20T21:52:43Z</time></trkpt><trkpt lat="59.1044183169" lon="30.5097911786"><ele>300.07</ele><time>2026-08-20T21:52:44Z</time></trkpt><trkpt lat="59.1044183169" lon="30.5097911786"><ele>300.07</ele><time>2026-08-20T21:52:45Z</time></trkpt><trkpt lat="59.1044183169" lon="30.5097911786"><ele>300.07</ele><time>2026-08-20T21:52:46Z</time></trkpt><trkpt lat="59.1044183169" lon="30.5097911786"><ele>300.07</ele><time>2026-08-20T21:52:47Z</time></trkpt><trkpt lat="59.1044183169" lon="30.5097911786"><ele>300.07</ele><time>2026-08-20T21:52:48Z</time></trkpt><trkpt lat="59.1044183169" lon="30.5097911786"><ele>300.07</ele><time>2026-08-20T21:52:49Z</time></trkpt><trkpt lat="59.1044183169" lon="30.5097911786"><ele>300.07</ele><time>2026-08-20T21:52:50Z</time></trkpt><trkpt lat="59.1044183169" lon="30.5097911786"><ele>300.07</ele><time>2026-08-20T21:52:51Z</time></trkpt><trkpt lat="59.1044183169" lon="30.5097911786"><ele>300.07</ele><time>2026-08-20T21:52:52Z</time></trkpt><trkpt lat="59.1044183169" lon="30.5097911786"><ele>300.07</ele><time>2026-08-20T21:52:53Z</time></trkpt><trkpt lat="59.1044183169" lon="30.5097911786"><ele>300.07</ele><time>2026-08-20T21:52:54Z</time></trkpt><trkpt lat="59.1044183169" lon="30.5097911786"><ele>300.07</ele><time>2026-08-20T21:52:55Z</time></trkpt><trkpt lat="59.1044183169" lon="30.5097911786"><ele>300.07</ele><time>2026-08-20T21:52:56Z</time></trkpt><trkpt lat="59.1044183169" lon="30.5097911786"><ele>300.07</ele><time>2026-08-20T21:52:57Z</time></trkpt><trkpt lat="59.1044183169" lon="30.5097911786"><ele>300.07</ele><time>2026-08-20T21:52:58Z</time></trkpt><trkpt lat="59.1044183169" lon="30.5097911786"><ele>300.07</ele><time>2026-08-20T21:52:59Z</time></trkpt><trkpt lat="59.1044183169" lon="30.5097911786"><ele>300.07</ele><time>2026-08-20T21:53:00Z</time></trkpt><trkpt lat="59.1044183169" lon="30.5097911786"><ele>299.59</ele><time>2026-08-20T21:53:01Z</time></trkpt><trkpt lat="59.1044183169" lon="30.5097911786"><ele>299.59</ele><time>2026-08-20T21:53:02Z</time></trkpt><trkpt lat="59.1044183169" lon="30.5097911786"><ele>299.59</ele><time>2026-08-20T21:53:03Z</time></trkpt><trkpt lat="59.1044183169" lon="30.5097911786"><ele>299.59</ele><time>2026-08-20T21:53:04Z</time></trkpt><trkpt lat="59.1044183169" lon="30.5097911786"><ele>299.59</ele><time>2026-08-20T21:53:05Z</time></trkpt><trkpt lat="59.1044183169" lon="30.5097911786"><ele>299.59</ele><time>2026-08-20T21:53:06Z</time></trkpt><trkpt lat="59.1044183169" lon="30.5097911786"><ele>299.59</ele><time>2026-08-20T21:53:07Z</time></trkpt><trkpt lat="59.1044183169" lon="30.5097911786"><ele>299.59</ele><time>2026-08-20T21:53:08Z</time></trkpt><trkpt lat="59.1044183169" lon="30.5097911786"><ele>299.59</ele><time>2026-08-20T21:53:09Z</time></trkpt><trkpt lat="59.1044183169" lon="30.5097911786"><ele>299.59</ele><time>2026-08-20T21:53:10Z</time></trkpt><trkpt lat="59.1044183169" lon="30.5097911786"><ele>299.59</ele><time>2026-08-20T21:53:11Z</time></trkpt><trkpt lat="59.1044183169" lon="30.5097911786"><ele>299.59</ele><time>2026-08-20T21:53:12Z</time></trkpt><trkpt lat="59.1044183169" lon="30.5097911786"><ele>299.59</ele><time>2026-08-20T21:53:13Z</time></trkpt><trkpt lat="59.1044183169" lon="30.5097911786"><ele>299.59</ele><time>2026-08-20T21:53:14Z</time></trkpt><trkpt lat="59.1044183169" lon="30.5097911786"><ele>299.59</ele><time>2026-08-20T21:53:15Z</time></trkpt><trkpt lat="59.1044183169" lon="30.5097911786"><ele>299.59</ele><time>2026-08-20T21:53:16Z</time></trkpt><trkpt lat="59.1044183169" lon="30.5097911786"><ele>299.59</ele><time>2026-08-20T21:53:17Z</time></trkpt><trkpt lat="59.1044183169" lon="30.5097911786"><ele>299.59</ele><time>2026-08-20T21:53:18Z</time></trkpt><trkpt lat="59.1044183169" lon="30.5097911786"><ele>299.59</ele><time>2026-08-20T21:53:19Z</time></trkpt><trkpt lat="59.1044183169" lon="30.5097911786"><ele>299.59</ele><time>2026-08-20T21:53:20Z</time></trkpt><trkpt lat="59.1044183169" lon="30.5097911786"><ele>299.59</ele><time>2026-08-20T21:53:21Z</time></trkpt><trkpt lat="59.1044183169" lon="30.5097911786"><ele>299.59</ele><time>2026-08-20T21:53:22Z</time></trkpt><trkpt lat="59.1044183169" lon="30.5097911786"><ele>299.59</ele><time>2026-08-20T21:53:23Z</time></trkpt><trkpt lat="59.1044183169" lon="30.5097911786"><ele>299.59</ele><time>2026-08-20T21:53:24Z</time></trkpt><trkpt lat="59.1044183169" lon="30.5097911786"><ele>299.59</ele><time>2026-08-20T21:53:25Z</time></trkpt><trkpt lat="59.1044183169" lon="30.5097911786"><ele>299.59</ele><time>2026-08-20T21:53:26Z</time></trkpt><trkpt lat="59.1044183169" lon="30.5097911786"><ele>299.59</ele><time>2026-08-20T21:53:27Z</time></trkpt><trkpt lat="59.1044183169" lon="30.5097911786"><ele>299.59</ele><time>2026-08-20T21:53:28Z</time></trkpt><trkpt lat="59.1044183169" lon="30.5097911786"><ele>299.59</ele><time>2026-08-20T21:53:29Z</time></trkpt><trkpt lat="59.1044183169" lon="30.5097911786"><ele>299.59</ele><time>2026-08-20T21:53:30Z</time></trkpt><trkpt lat="59.1044183169" lon="30.5097911786"><ele>299.59</ele><time>2026-08-20T21:53:31Z</time></trkpt><trkpt lat="59.1044183169" lon="30.5097911786"><ele>299.59</ele><time>2026-08-20T21:53:32Z</time></trkpt><trkpt lat="59.1044183169" lon="30.5097911786"><ele>299.59</ele><time>2026-08-20T21:53:33Z</time></trkpt><trkpt lat="59.1044183169" lon="30.5097911786"><ele>299.59</ele><time>2026-08-20T21:53:34Z</time></trkpt><trkpt lat="59.1044183169" lon="30.5097911786"><ele>299.59</ele><time>2026-08-20T21:53:35Z</time></trkpt><trkpt lat="59.1044183169" lon="30.5097911786"><ele>299.59</ele><time>2026-08-20T21:53:36Z</time></trkpt><trkpt lat="59.1044183169" lon="30.5097911786"><ele>299.59</ele><time>2026-08-20T21:53:37Z</time></trkpt><trkpt lat="59.1044183169" lon="30.5097911786"><ele>299.59</ele><time>2026-08-20T21:53:38Z</time></trkpt><trkpt lat="59.1044183169" lon="30.5097911786"><ele>299.59</ele><time>2026-08-20T21:53:39Z</time></trkpt><trkpt lat="59.1044183169" lon="30.5097911786"><ele>299.59</ele><time>2026-08-20T21:53:40Z</time></trkpt><trkpt lat="59.1044183169" lon="30.5097911786"><ele>299.59</ele><time>2026-08-20T21:53:41Z</time></trkpt><trkpt lat="59.1044183169" lon="30.5097911786"><ele>299.59</ele><time>2026-08-20T21:53:42Z</time></trkpt><trkpt lat="59.1044183169" lon="30.5097911786"><ele>299.59</ele><time>2026-08-20T21:53:43Z</time></trkpt><trkpt lat="59.1044183169" lon="30.5097911786"><ele>299.59</ele><time>2026-08-20T21:53:44Z</time></trkpt><trkpt lat="59.1044183169" lon="30.5097911786"><ele>299.59</ele><time>2026-08-20T21:53:45Z</time></trkpt><trkpt lat="59.1044183169" lon="30.5097911786"><ele>299.59</ele><time>2026-08-20T21:53:46Z</time></trkpt><trkpt lat="59.1044183169" lon="30.5097911786"><ele>299.59</ele><time>2026-08-20T21:53:47Z</time></trkpt><trkpt lat="59.1044183169" lon="30.5097911786"><ele>299.59</ele><time>2026-08-20T21:53:48Z</time></trkpt><trkpt lat="59.1044183169" lon="30.5097911786"><ele>299.59</ele><time>2026-08-20T21:53:49Z</time></trkpt><trkpt lat="59.1044183169" lon="30.5097911786"><ele>299.59</ele><time>2026-08-20T21:53:50Z</time></trkpt><trkpt lat="59.1044183169" lon="30.5097911786"><ele>299.59</ele><time>2026-08-20T21:53:51Z</time></trkpt><trkpt lat="59.1044183169" lon="30.5097911786"><ele>299.59</ele><time>2026-08-20T21:53:52Z</time></trkpt><trkpt lat="59.1044183169" lon="30.5097911786"><ele>299.59</ele><time>2026-08-20T21:53:53Z</time></trkpt><trkpt lat="59.1044183169" lon="30.5097911786"><ele>299.59</ele><time>2026-08-20T21:53:54Z</time></trkpt><trkpt lat="59.1044183169" lon="30.5097911786"><ele>299.59</ele><time>2026-08-20T21:53:55Z</time></trkpt><trkpt lat="59.1044183169" lon="30.5097911786"><ele>299.59</ele><time>2026-08-20T21:53:56Z</time></trkpt><trkpt lat="59.1044183169" lon="30.5097911786"><ele>299.59</ele><time>2026-08-20T21:53:57Z</time></trkpt><trkpt lat="59.1044183169" lon="30.5097911786"><ele>299.59</ele><time>2026-08-20T21:53:58Z</time></trkpt><trkpt lat="59.1043876391" lon="30.5097150709"><ele>299.59</ele><time>2026-08-20T21:53:59Z</time></trkpt><trkpt lat="59.1043891478" lon="30.5097013246"><ele>299.59</ele><time>2026-08-20T21:54:00Z</time></trkpt><trkpt lat="59.1043947637" lon="30.5096897576"><ele>299.59</ele><time>2026-08-20T21:54:01Z</time></trkpt><trkpt lat="59.1043994576" lon="30.5096740834"><ele>299.59</ele><time>2026-08-20T21:54:02Z</time></trkpt><trkpt lat="59.1044026427" lon="30.5096591637"><ele>299.59</ele><time>2026-08-20T21:54:03Z</time></trkpt><trkpt lat="59.1044041514" lon="30.5096440762"><ele>299.59</ele><time>2026-08-20T21:54:04Z</time></trkpt><trkpt lat="59.1044042353" lon="30.5096294917"><ele>299.59</ele><time>2026-08-20T21:54:05Z</time></trkpt><trkpt lat="59.1044049896" lon="30.5096146557"><ele>300.07</ele><time>2026-08-20T21:54:06Z</time></trkpt><trkpt lat="59.1044069175" lon="30.5095998198"><ele>300.07</ele><time>2026-08-20T21:54:07Z</time></trkpt><trkpt lat="59.1044087615" lon="30.5095856544"><ele>300.07</ele><time>2026-08-20T21:54:08Z</time></trkpt><trkpt lat="59.1044105217" lon="30.5095751770"><ele>300.07</ele><time>2026-08-20T21:54:09Z</time></trkpt><trkpt lat="59.1044119466" lon="30.5095652863"><ele>300.07</ele><time>2026-08-20T21:54:10Z</time></trkpt><trkpt lat="59.1044142935" lon="30.5095641967"><ele>300.07</ele><time>2026-08-20T21:54:11Z</time></trkpt><trkpt lat="59.1044153832" lon="30.5095642805"><ele>300.07</ele><time>2026-08-20T21:54:12Z</time></trkpt><trkpt lat="59.1044162214" lon="30.5095586646"><ele>300.07</ele><time>2026-08-20T21:54:13Z</time></trkpt><trkpt lat="59.1044162214" lon="30.5095586646"><ele>300.07</ele><time>2026-08-20T21:54:14Z</time></trkpt><trkpt lat="59.1044162214" lon="30.5095586646"><ele>300.07</ele><time>2026-08-20T21:54:15Z</time></trkpt><trkpt lat="59.1044180654" lon="30.5095384642"><ele>300.07</ele><time>2026-08-20T21:54:16Z</time></trkpt><trkpt lat="59.1044180654" lon="30.5095241312"><ele>300.07</ele><time>2026-08-20T21:54:17Z</time></trkpt><trkpt lat="59.1044177301" lon="30.5095098820"><ele>300.07</ele><time>2026-08-20T21:54:18Z</time></trkpt><trkpt lat="59.1044188198" lon="30.5094956327"><ele>299.59</ele><time>2026-08-20T21:54:19Z</time></trkpt><trkpt lat="59.1044180654" lon="30.5094803777"><ele>299.59</ele><time>2026-08-20T21:54:20Z</time></trkpt><trkpt lat="59.1044157185" lon="30.5094655417"><ele>299.59</ele><time>2026-08-20T21:54:21Z</time></trkpt><trkpt lat="59.1044121981" lon="30.5094493646"><ele>299.59</ele><time>2026-08-20T21:54:22Z</time></trkpt><trkpt lat="59.1044082586" lon="30.5094302539"><ele>299.59</ele><time>2026-08-20T21:54:23Z</time></trkpt><trkpt lat="59.1044057440" lon="30.5094129872"><ele>299.59</ele><time>2026-08-20T21:54:24Z</time></trkpt><trkpt lat="59.1044033971" lon="30.5093974806"><ele>299.59</ele><time>2026-08-20T21:54:25Z</time></trkpt><trkpt lat="59.1044007987" lon="30.5093804654"><ele>299.59</ele><time>2026-08-20T21:54:26Z</time></trkpt><trkpt lat="59.1043989547" lon="30.5093643721"><ele>299.59</ele><time>2026-08-20T21:54:27Z</time></trkpt><trkpt lat="59.1043984517" lon="30.5093486980"><ele>299.59</ele><time>2026-08-20T21:54:28Z</time></trkpt><trkpt lat="59.1044010501" lon="30.5093290843"><ele>299.59</ele><time>2026-08-20T21:54:29Z</time></trkpt><trkpt lat="59.1044018883" lon="30.5093123205"><ele>299.59</ele><time>2026-08-20T21:54:30Z</time></trkpt><trkpt lat="59.1043964401" lon="30.5092917848"><ele>299.59</ele><time>2026-08-20T21:54:31Z</time></trkpt><trkpt lat="59.1043931711" lon="30.5092733447"><ele>299.59</ele><time>2026-08-20T21:54:32Z</time></trkpt><trkpt lat="59.1043887287" lon="30.5092471931"><ele>299.59</ele><time>2026-08-20T21:54:33Z</time></trkpt><trkpt lat="59.1043851245" lon="30.5092242267"><ele>299.59</ele><time>2026-08-20T21:54:34Z</time></trkpt><trkpt lat="59.1043802630" lon="30.5092077982"><ele>299.59</ele><time>2026-08-20T21:54:35Z</time></trkpt><trkpt lat="59.1043759882" lon="30.5091901962"><ele>299.59</ele><time>2026-08-20T21:54:36Z</time></trkpt><trkpt lat="59.1043733899" lon="30.5091734324"><ele>299.59</ele><time>2026-08-20T21:54:37Z</time></trkpt><trkpt lat="59.1043713782" lon="30.5091594346"><ele>299.59</ele><time>2026-08-20T21:54:38Z</time></trkpt><trkpt lat="59.1043698695" lon="30.5091468617"><ele>299.59</ele><time>2026-08-20T21:54:39Z</time></trkpt><trkpt lat="59.1043695342" lon="30.5091333669"><ele>299.59</ele><time>2026-08-20T21:54:40Z</time></trkpt><trkpt lat="59.1043695342" lon="30.5091333669"><ele>299.59</ele><time>2026-08-20T21:54:41Z</time></trkpt><trkpt lat="59.1043688636" lon="30.5091025215"><ele>299.59</ele><time>2026-08-20T21:54:42Z</time></trkpt><trkpt lat="59.1043686960" lon="30.5090895295"><ele>299.59</ele><time>2026-08-20T21:54:43Z</time></trkpt><trkpt lat="59.1043679416" lon="30.5090781301"><ele>299.59</ele><time>2026-08-20T21:54:44Z</time></trkpt><trkpt lat="59.1043666843" lon="30.5090709217"><ele>299.59</ele><time>2026-08-20T21:54:45Z</time></trkpt><trkpt lat="59.1043677740" lon="30.5090607796"><ele>299.59</ele><time>2026-08-20T21:54:46Z</time></trkpt><trkpt lat="59.1043692827" lon="30.5090396572"><ele>299.59</ele><time>2026-08-20T21:54:47Z</time></trkpt><trkpt lat="59.1043717973" lon="30.5090208817"><ele>299.59</ele><time>2026-08-20T21:54:48Z</time></trkpt><trkpt lat="59.1043749824" lon="30.5090060458"><ele>299.59</ele><time>2026-08-20T21:54:49Z</time></trkpt><trkpt lat="59.1043817718" lon="30.5089905392"><ele>299.59</ele><time>2026-08-20T21:54:50Z</time></trkpt><trkpt lat="59.1043863818" lon="30.5089749489"><ele>299.59</ele><time>2026-08-20T21:54:51Z</time></trkpt><trkpt lat="59.1043905728" lon="30.5089589395"><ele>299.59</ele><time>2026-08-20T21:54:52Z</time></trkpt><trkpt lat="59.1043907404" lon="30.5089415889"><ele>299.59</ele><time>2026-08-20T21:54:53Z</time></trkpt><trkpt lat="59.1043923330" lon="30.5089246575"><ele>299.59</ele><time>2026-08-20T21:54:54Z</time></trkpt><trkpt lat="59.1043947637" lon="30.5089111626"><ele>299.59</ele><time>2026-08-20T21:54:55Z</time></trkpt><trkpt lat="59.1043982841" lon="30.5088954885"><ele>299.59</ele><time>2026-08-20T21:54:56Z</time></trkpt><trkpt lat="59.1043993738" lon="30.5088777188"><ele>299.59</ele><time>2026-08-20T21:54:57Z</time></trkpt><trkpt lat="59.1043974459" lon="30.5088608712"><ele>299.59</ele><time>2026-08-20T21:54:58Z</time></trkpt><trkpt lat="59.1043954343" lon="30.5088383239"><ele>299.59</ele><time>2026-08-20T21:54:59Z</time></trkpt><trkpt lat="59.1043955181" lon="30.5088162795"><ele>299.59</ele><time>2026-08-20T21:55:00Z</time></trkpt><trkpt lat="59.1043946799" lon="30.5087923910"><ele>299.59</ele><time>2026-08-20T21:55:01Z</time></trkpt><trkpt lat="59.1043937579" lon="30.5087712687"><ele>299.59</ele><time>2026-08-20T21:55:02Z</time></trkpt><trkpt lat="59.1043914948" lon="30.5087490566"><ele>299.59</ele><time>2026-08-20T21:55:03Z</time></trkpt><trkpt lat="59.1043873876" lon="30.5087218992"><ele>299.59</ele><time>2026-08-20T21:55:04Z</time></trkpt><trkpt lat="59.1043869685" lon="30.5087015312"><ele>299.59</ele><time>2026-08-20T21:55:05Z</time></trkpt><trkpt lat="59.1043856274" lon="30.5086861923"><ele>299.59</ele><time>2026-08-20T21:55:06Z</time></trkpt><trkpt lat="59.1043830290" lon="30.5086691771"><ele>299.59</ele><time>2026-08-20T21:55:07Z</time></trkpt><trkpt lat="59.1043800954" lon="30.5086507369"><ele>299.59</ele><time>2026-08-20T21:55:08Z</time></trkpt><trkpt lat="59.1043777484" lon="30.5086315423"><ele>299.59</ele><time>2026-08-20T21:55:09Z</time></trkpt><trkpt lat="59.1043755691" lon="30.5086112581"><ele>299.59</ele><time>2026-08-20T21:55:10Z</time></trkpt><trkpt lat="59.1043718811" lon="30.5085923988"><ele>299.59</ele><time>2026-08-20T21:55:11Z</time></trkpt><trkpt lat="59.1043671872" lon="30.5085720308"><ele>299.59</ele><time>2026-08-20T21:55:12Z</time></trkpt><trkpt lat="59.1043632478" lon="30.5085541774"><ele>299.59</ele><time>2026-08-20T21:55:13Z</time></trkpt><trkpt lat="59.1043574642" lon="30.5085385870"><ele>299.59</ele><time>2026-08-20T21:55:14Z</time></trkpt><trkpt lat="59.1043514293" lon="30.5085164588"><ele>299.59</ele><time>2026-08-20T21:55:15Z</time></trkpt><trkpt lat="59.1043498367" lon="30.5085014552"><ele>299.59</ele><time>2026-08-20T21:55:16Z</time></trkpt><trkpt lat="59.1043511778" lon="30.5084893852"><ele>299.59</ele><time>2026-08-20T21:55:17Z</time></trkpt><trkpt lat="59.1043542791" lon="30.5084806681"><ele>299.59</ele><time>2026-08-20T21:55:18Z</time></trkpt><trkpt lat="59.1043530218" lon="30.5084605515"><ele>299.59</ele><time>2026-08-20T21:55:19Z</time></trkpt><trkpt lat="59.1043522675" lon="30.5084437877"><ele>299.59</ele><time>2026-08-20T21:55:20Z</time></trkpt><trkpt lat="59.1043543629" lon="30.5084232520"><ele>299.59</ele><time>2026-08-20T21:55:21Z</time></trkpt><trkpt lat="59.1043555364" lon="30.5084041413"><ele>299.59</ele><time>2026-08-20T21:55:22Z</time></trkpt><trkpt lat="59.1043558717" lon="30.5083830189"><ele>299.59</ele><time>2026-08-20T21:55:23Z</time></trkpt><trkpt lat="59.1043548658" lon="30.5083614774"><ele>299.59</ele><time>2026-08-20T21:55:24Z</time></trkpt><trkpt lat="59.1043563746" lon="30.5083425343"><ele>299.59</ele><time>2026-08-20T21:55:25Z</time></trkpt><trkpt lat="59.1043584701" lon="30.5083238427"><ele>299.59</ele><time>2026-08-20T21:55:26Z</time></trkpt><trkpt lat="59.1043549497" lon="30.5083000381"><ele>299.59</ele><time>2026-08-20T21:55:27Z</time></trkpt><trkpt lat="59.1043520998" lon="30.5082782451"><ele>299.59</ele><time>2026-08-20T21:55:28Z</time></trkpt><trkpt lat="59.1043524351" lon="30.5082598887"><ele>299.59</ele><time>2026-08-20T21:55:29Z</time></trkpt><trkpt lat="59.1043494176" lon="30.5082416162"><ele>299.59</ele><time>2026-08-20T21:55:30Z</time></trkpt><trkpt lat="59.1043461487" lon="30.5082209967"><ele>299.59</ele><time>2026-08-20T21:55:31Z</time></trkpt><trkpt lat="59.1043454781" lon="30.5081990361"><ele>299.59</ele><time>2026-08-20T21:55:32Z</time></trkpt><trkpt lat="59.1043404490" lon="30.5081874691"><ele>299.59</ele><time>2026-08-20T21:55:33Z</time></trkpt><trkpt lat="59.1043384373" lon="30.5081756506"><ele>299.59</ele><time>2026-08-20T21:55:34Z</time></trkpt><trkpt lat="59.1043334920" lon="30.5081597250"><ele>299.59</ele><time>2026-08-20T21:55:35Z</time></trkpt><trkpt lat="59.1043296363" lon="30.5081444699"><ele>299.59</ele><time>2026-08-20T21:55:36Z</time></trkpt><trkpt lat="59.1043272894" lon="30.5081261974"><ele>299.59</ele><time>2026-08-20T21:55:37Z</time></trkpt><trkpt lat="59.1043288819" lon="30.5081066675"><ele>299.59</ele><time>2026-08-20T21:55:38Z</time></trkpt><trkpt lat="59.1043263674" lon="30.5080863833"><ele>299.59</ele><time>2026-08-20T21:55:39Z</time></trkpt><trkpt lat="59.1043254454" lon="30.5080707930"><ele>299.59</ele><time>2026-08-20T21:55:40Z</time></trkpt><trkpt lat="59.1043230984" lon="30.5080571305"><ele>299.59</ele><time>2026-08-20T21:55:41Z</time></trkpt><trkpt lat="59.1043241881" lon="30.5080380198"><ele>299.59</ele><time>2026-08-20T21:55:42Z</time></trkpt><trkpt lat="59.1043235175" lon="30.5080183223"><ele>299.59</ele><time>2026-08-20T21:55:43Z</time></trkpt><trkpt lat="59.1043242719" lon="30.5079983734"><ele>299.59</ele><time>2026-08-20T21:55:44Z</time></trkpt><trkpt lat="59.1043245234" lon="30.5079815257"><ele>299.59</ele><time>2026-08-20T21:55:45Z</time></trkpt><trkpt lat="59.1043279599" lon="30.5079646781"><ele>299.59</ele><time>2026-08-20T21:55:46Z</time></trkpt><trkpt lat="59.1043312289" lon="30.5079465732"><ele>299.59</ele><time>2026-08-20T21:55:47Z</time></trkpt><trkpt lat="59.1043294687" lon="30.5079221819"><ele>299.59</ele><time>2026-08-20T21:55:48Z</time></trkpt><trkpt lat="59.1043260321" lon="30.5078978743"><ele>299.59</ele><time>2026-08-20T21:55:49Z</time></trkpt><trkpt lat="59.1043222602" lon="30.5078769196"><ele>299.59</ele><time>2026-08-20T21:55:50Z</time></trkpt><trkpt lat="59.1043201648" lon="30.5078524444"><ele>299.59</ele><time>2026-08-20T21:55:51Z</time></trkpt><trkpt lat="59.1043222602" lon="30.5078271311"><ele>299.59</ele><time>2026-08-20T21:55:52Z</time></trkpt><trkpt lat="59.1043242719" lon="30.5078047514"><ele>299.59</ele><time>2026-08-20T21:55:53Z</time></trkpt><trkpt lat="59.1043257806" lon="30.5077814497"><ele>299.59</ele><time>2026-08-20T21:55:54Z</time></trkpt><trkpt lat="59.1043263674" lon="30.5077592377"><ele>299.59</ele><time>2026-08-20T21:55:55Z</time></trkpt><trkpt lat="59.1043247748" lon="30.5077325832"><ele>299.59</ele><time>2026-08-20T21:55:56Z</time></trkpt><trkpt lat="59.1043246910" lon="30.5077155679"><ele>299.59</ele><time>2026-08-20T21:55:57Z</time></trkpt><trkpt lat="59.1043244395" lon="30.5076924339"><ele>299.59</ele><time>2026-08-20T21:55:58Z</time></trkpt><trkpt lat="59.1043235175" lon="30.5076697189"><ele>299.59</ele><time>2026-08-20T21:55:59Z</time></trkpt><trkpt lat="59.1043224279" lon="30.5076470878"><ele>299.59</ele><time>2026-08-20T21:56:00Z</time></trkpt><trkpt lat="59.1043223441" lon="30.5076235346"><ele>299.59</ele><time>2026-08-20T21:56:01Z</time></trkpt><trkpt lat="59.1043198295" lon="30.5076036695"><ele>299.59</ele><time>2026-08-20T21:56:02Z</time></trkpt><trkpt lat="59.1043181531" lon="30.5075852294"><ele>299.59</ele><time>2026-08-20T21:56:03Z</time></trkpt><trkpt lat="59.1043149680" lon="30.5075657833"><ele>299.59</ele><time>2026-08-20T21:56:04Z</time></trkpt><trkpt lat="59.1043131240" lon="30.5075451639"><ele>299.59</ele><time>2026-08-20T21:56:05Z</time></trkpt><trkpt lat="59.1043095198" lon="30.5075227842"><ele>299.59</ele><time>2026-08-20T21:56:06Z</time></trkpt><trkpt lat="59.1043058317" lon="30.5074948724"><ele>299.59</ele><time>2026-08-20T21:56:07Z</time></trkpt><trkpt lat="59.1043034848" lon="30.5074746720"><ele>299.59</ele><time>2026-08-20T21:56:08Z</time></trkpt><trkpt lat="59.1043014731" lon="30.5074554775"><ele>299.59</ele><time>2026-08-20T21:56:09Z</time></trkpt><trkpt lat="59.1043007188" lon="30.5074359477"><ele>299.59</ele><time>2026-08-20T21:56:10Z</time></trkpt><trkpt lat="59.1042988747" lon="30.5074129812"><ele>299.59</ele><time>2026-08-20T21:56:11Z</time></trkpt><trkpt lat="59.1042970307" lon="30.5073871650"><ele>299.59</ele><time>2026-08-20T21:56:12Z</time></trkpt><trkpt lat="59.1042925883" lon="30.5073629413"><ele>299.59</ele><time>2026-08-20T21:56:13Z</time></trkpt><trkpt lat="59.1042905767" lon="30.5073396396"><ele>299.59</ele><time>2026-08-20T21:56:14Z</time></trkpt><trkpt lat="59.1042887326" lon="30.5073155835"><ele>299.59</ele><time>2026-08-20T21:56:15Z</time></trkpt><trkpt lat="59.1042867210" lon="30.5072945450"><ele>299.59</ele><time>2026-08-20T21:56:16Z</time></trkpt><trkpt lat="59.1042842902" lon="30.5072700698"><ele>299.59</ele><time>2026-08-20T21:56:17Z</time></trkpt><trkpt lat="59.1042799316" lon="30.5072458461"><ele>299.59</ele><time>2026-08-20T21:56:18Z</time></trkpt><trkpt lat="59.1042773332" lon="30.5072220415"><ele>299.59</ele><time>2026-08-20T21:56:19Z</time></trkpt><trkpt lat="59.1042773332" lon="30.5072046909"><ele>299.59</ele><time>2026-08-20T21:56:20Z</time></trkpt><trkpt lat="59.1042790934" lon="30.5071879271"><ele>299.59</ele><time>2026-08-20T21:56:21Z</time></trkpt><trkpt lat="59.1042781714" lon="30.5071699899"><ele>299.59</ele><time>2026-08-20T21:56:22Z</time></trkpt><trkpt lat="59.1042754892" lon="30.5071544833"><ele>299.59</ele><time>2026-08-20T21:56:23Z</time></trkpt><trkpt lat="59.1042723879" lon="30.5071431678"><ele>299.59</ele><time>2026-08-20T21:56:24Z</time></trkpt><trkpt lat="59.1042723879" lon="30.5071431678"><ele>299.59</ele><time>2026-08-20T21:56:25Z</time></trkpt><trkpt lat="59.1042647604" lon="30.5071081314"><ele>299.59</ele><time>2026-08-20T21:56:26Z</time></trkpt><trkpt lat="59.1042677779" lon="30.5070903618"><ele>299.59</ele><time>2026-08-20T21:56:27Z</time></trkpt><trkpt lat="59.1042682808" lon="30.5070744362"><ele>299.59</ele><time>2026-08-20T21:56:28Z</time></trkpt><trkpt lat="59.1042675264" lon="30.5070584267"><ele>299.59</ele><time>2026-08-20T21:56:29Z</time></trkpt><trkpt lat="59.1042661853" lon="30.5070383940"><ele>299.59</ele><time>2026-08-20T21:56:30Z</time></trkpt><trkpt lat="59.1042661853" lon="30.5070157629"><ele>299.59</ele><time>2026-08-20T21:56:31Z</time></trkpt><trkpt lat="59.1042668559" lon="30.5069918744"><ele>299.59</ele><time>2026-08-20T21:56:32Z</time></trkpt><trkpt lat="59.1042696219" lon="30.5069607776"><ele>299.59</ele><time>2026-08-20T21:56:33Z</time></trkpt><trkpt lat="59.1042728908" lon="30.5069329496"><ele>299.59</ele><time>2026-08-20T21:56:34Z</time></trkpt><trkpt lat="59.1042719688" lon="30.5069087259"><ele>299.59</ele><time>2026-08-20T21:56:35Z</time></trkpt><trkpt lat="59.1042747349" lon="30.5068884417"><ele>299.59</ele><time>2026-08-20T21:56:36Z</time></trkpt><trkpt lat="59.1042744834" lon="30.5068682414"><ele>299.59</ele><time>2026-08-20T21:56:37Z</time></trkpt><trkpt lat="59.1042762436" lon="30.5068471190"><ele>299.59</ele><time>2026-08-20T21:56:38Z</time></trkpt><trkpt lat="59.1042752378" lon="30.5068231467"><ele>299.59</ele><time>2026-08-20T21:56:39Z</time></trkpt><trkpt lat="59.1042737290" lon="30.5068007670"><ele>299.59</ele><time>2026-08-20T21:56:40Z</time></trkpt><trkpt lat="59.1042730585" lon="30.5067777168"><ele>299.59</ele><time>2026-08-20T21:56:41Z</time></trkpt><trkpt lat="59.1042702924" lon="30.5067541637"><ele>299.59</ele><time>2026-08-20T21:56:42Z</time></trkpt><trkpt lat="59.1042647604" lon="30.5067272577"><ele>299.59</ele><time>2026-08-20T21:56:43Z</time></trkpt><trkpt lat="59.1042621620" lon="30.5067105778"><ele>299.59</ele><time>2026-08-20T21:56:44Z</time></trkpt><trkpt lat="59.1042580549" lon="30.5066865217"><ele>299.59</ele><time>2026-08-20T21:56:45Z</time></trkpt><trkpt lat="59.1042571329" lon="30.5066609569"><ele>299.59</ele><time>2026-08-20T21:56:46Z</time></trkpt><trkpt lat="59.1042559594" lon="30.5066401698"><ele>299.59</ele><time>2026-08-20T21:56:47Z</time></trkpt><trkpt lat="59.1042530257" lon="30.5066181254"><ele>299.59</ele><time>2026-08-20T21:56:48Z</time></trkpt><trkpt lat="59.1042502597" lon="30.5065898784"><ele>299.59</ele><time>2026-08-20T21:56:49Z</time></trkpt><trkpt lat="59.1042473260" lon="30.5065569375"><ele>299.59</ele><time>2026-08-20T21:56:50Z</time></trkpt><trkpt lat="59.1042418778" lon="30.5065316241"><ele>299.59</ele><time>2026-08-20T21:56:51Z</time></trkpt><trkpt lat="59.1042389441" lon="30.5065077357"><ele>299.59</ele><time>2026-08-20T21:56:52Z</time></trkpt><trkpt lat="59.1042386927" lon="30.5064897984"><ele>299.59</ele><time>2026-08-20T21:56:53Z</time></trkpt><trkpt lat="59.1042367648" lon="30.5064730346"><ele>299.59</ele><time>2026-08-20T21:56:54Z</time></trkpt><trkpt lat="59.1042353399" lon="30.5064535886"><ele>299.59</ele><time>2026-08-20T21:56:55Z</time></trkpt><trkpt lat="59.1042368487" lon="30.5064325500"><ele>299.59</ele><time>2026-08-20T21:56:56Z</time></trkpt><trkpt lat="59.1042404529" lon="30.5064139422"><ele>299.59</ele><time>2026-08-20T21:56:57Z</time></trkpt><trkpt lat="59.1042461526" lon="30.5063923169"><ele>299.59</ele><time>2026-08-20T21:56:58Z</time></trkpt><trkpt lat="59.1042412911" lon="30.5063658301"><ele>299.59</ele><time>2026-08-20T21:56:59Z</time></trkpt><trkpt lat="59.1042391956" lon="30.5063459650"><ele>299.59</ele><time>2026-08-20T21:57:00Z</time></trkpt><trkpt lat="59.1042344179" lon="30.5063219927"><ele>299.59</ele><time>2026-08-20T21:57:01Z</time></trkpt><trkpt lat="59.1042300593" lon="30.5062945839"><ele>299.59</ele><time>2026-08-20T21:57:02Z</time></trkpt><trkpt lat="59.1042273771" lon="30.5062732939"><ele>299.59</ele><time>2026-08-20T21:57:03Z</time></trkpt><trkpt lat="59.1042232700" lon="30.5062558595"><ele>299.59</ele><time>2026-08-20T21:57:04Z</time></trkpt><trkpt lat="59.1042232700" lon="30.5062446278"><ele>299.59</ele><time>2026-08-20T21:57:05Z</time></trkpt><trkpt lat="59.1042163968" lon="30.5062291212"><ele>299.59</ele><time>2026-08-20T21:57:06Z</time></trkpt><trkpt lat="59.1042102780" lon="30.5062177218"><ele>299.59</ele><time>2026-08-20T21:57:07Z</time></trkpt><trkpt lat="59.1042024828" lon="30.5062065739"><ele>299.59</ele><time>2026-08-20T21:57:08Z</time></trkpt><trkpt lat="59.1041940171" lon="30.5061940849"><ele>299.59</ele><time>2026-08-20T21:57:09Z</time></trkpt><trkpt lat="59.1041888203" lon="30.5061822664"><ele>299.59</ele><time>2026-08-20T21:57:10Z</time></trkpt><trkpt lat="59.1041852999" lon="30.5061726272"><ele>299.59</ele><time>2026-08-20T21:57:11Z</time></trkpt><trkpt lat="59.1041844618" lon="30.5061600544"><ele>299.59</ele><time>2026-08-20T21:57:12Z</time></trkpt><trkpt lat="59.1041828692" lon="30.5061498284"><ele>299.59</ele><time>2026-08-20T21:57:13Z</time></trkpt><trkpt lat="59.1041802708" lon="30.5061398540"><ele>299.59</ele><time>2026-08-20T21:57:14Z</time></trkpt><trkpt lat="59.1041786782" lon="30.5061329808"><ele>299.59</ele><time>2026-08-20T21:57:15Z</time></trkpt><trkpt lat="59.1041790973" lon="30.5061229225"><ele>299.59</ele><time>2026-08-20T21:57:16Z</time></trkpt><trkpt lat="59.1041796841" lon="30.5061154626"><ele>299.59</ele><time>2026-08-20T21:57:17Z</time></trkpt><trkpt lat="59.1041794326" lon="30.5061089247"><ele>299.59</ele><time>2026-08-20T21:57:18Z</time></trkpt><trkpt lat="59.1041794326" lon="30.5061089247"><ele>299.59</ele><time>2026-08-20T21:57:19Z</time></trkpt><trkpt lat="59.1041808575" lon="30.5060867965"><ele>299.59</ele><time>2026-08-20T21:57:20Z</time></trkpt><trkpt lat="59.1041837912" lon="30.5060760677"><ele>299.59</ele><time>2026-08-20T21:57:21Z</time></trkpt><trkpt lat="59.1041892394" lon="30.5060621537"><ele>299.59</ele><time>2026-08-20T21:57:22Z</time></trkpt><trkpt lat="59.1041923407" lon="30.5060485750"><ele>299.59</ele><time>2026-08-20T21:57:23Z</time></trkpt><trkpt lat="59.1041915864" lon="30.5060283747"><ele>299.59</ele><time>2026-08-20T21:57:24Z</time></trkpt><trkpt lat="59.1041937657" lon="30.5060132872"><ele>299.59</ele><time>2026-08-20T21:57:25Z</time></trkpt><trkpt lat="59.1041909996" lon="30.5060021393"><ele>299.59</ele><time>2026-08-20T21:57:26Z</time></trkpt><trkpt lat="59.1041882336" lon="30.5059898179"><ele>299.59</ele><time>2026-08-20T21:57:27Z</time></trkpt><trkpt lat="59.1041874792" lon="30.5059731379"><ele>299.59</ele><time>2026-08-20T21:57:28Z</time></trkpt><trkpt lat="59.1041849647" lon="30.5059580505"><ele>299.59</ele><time>2026-08-20T21:57:29Z</time></trkpt><trkpt lat="59.1041835397" lon="30.5059477407"><ele>299.59</ele><time>2026-08-20T21:57:30Z</time></trkpt><trkpt lat="59.1041806899" lon="30.5059313960"><ele>299.59</ele><time>2026-08-20T21:57:31Z</time></trkpt><trkpt lat="59.1041801870" lon="30.5059163924"><ele>299.59</ele><time>2026-08-20T21:57:32Z</time></trkpt><trkpt lat="59.1041760799" lon="30.5058942642"><ele>299.59</ele><time>2026-08-20T21:57:33Z</time></trkpt><trkpt lat="59.1041748226" lon="30.5058799312"><ele>299.59</ele><time>2026-08-20T21:57:34Z</time></trkpt><trkpt lat="59.1041739844" lon="30.5058693700"><ele>299.59</ele><time>2026-08-20T21:57:35Z</time></trkpt><trkpt lat="59.1041721404" lon="30.5058653466"><ele>299.59</ele><time>2026-08-20T21:57:36Z</time></trkpt><trkpt lat="59.1041699611" lon="30.5058617424"><ele>299.59</ele><time>2026-08-20T21:57:37Z</time></trkpt><trkpt lat="59.1041680332" lon="30.5058577191"><ele>299.59</ele><time>2026-08-20T21:57:38Z</time></trkpt><trkpt lat="59.1041680332" lon="30.5058577191"><ele>299.59</ele><time>2026-08-20T21:57:39Z</time></trkpt><trkpt lat="59.1041680332" lon="30.5058577191"><ele>299.59</ele><time>2026-08-20T21:57:40Z</time></trkpt><trkpt lat="59.1041680332" lon="30.5058577191"><ele>299.59</ele><time>2026-08-20T21:57:41Z</time></trkpt><trkpt lat="59.1041680332" lon="30.5058577191"><ele>299.59</ele><time>2026-08-20T21:57:42Z</time></trkpt><trkpt lat="59.1041680332" lon="30.5058577191"><ele>299.59</ele><time>2026-08-20T21:57:43Z</time></trkpt><trkpt lat="59.1041680332" lon="30.5058577191"><ele>299.59</ele><time>2026-08-20T21:57:44Z</time></trkpt><trkpt lat="59.1041680332" lon="30.5058577191"><ele>299.59</ele><time>2026-08-20T21:57:45Z</time></trkpt><trkpt lat="59.1041680332" lon="30.5058577191"><ele>299.59</ele><time>2026-08-20T21:57:46Z</time></trkpt><trkpt lat="59.1041680332" lon="30.5058577191"><ele>299.59</ele><time>2026-08-20T21:57:47Z</time></trkpt><trkpt lat="59.1041680332" lon="30.5058577191"><ele>299.59</ele><time>2026-08-20T21:57:48Z</time></trkpt><trkpt lat="59.1041680332" lon="30.5058577191"><ele>299.59</ele><time>2026-08-20T21:57:49Z</time></trkpt><trkpt lat="59.1041680332" lon="30.5058577191"><ele>299.59</ele><time>2026-08-20T21:57:50Z</time></trkpt><trkpt lat="59.1041680332" lon="30.5058577191"><ele>299.59</ele><time>2026-08-20T21:57:51Z</time></trkpt><trkpt lat="59.1041680332" lon="30.5058577191"><ele>299.59</ele><time>2026-08-20T21:57:52Z</time></trkpt><trkpt lat="59.1041680332" lon="30.5058577191"><ele>299.59</ele><time>2026-08-20T21:57:53Z</time></trkpt><trkpt lat="59.1041680332" lon="30.5058577191"><ele>299.59</ele><time>2026-08-20T21:57:54Z</time></trkpt><trkpt lat="59.1041680332" lon="30.5058577191"><ele>299.59</ele><time>2026-08-20T21:57:55Z</time></trkpt><trkpt lat="59.1041680332" lon="30.5058577191"><ele>299.59</ele><time>2026-08-20T21:57:56Z</time></trkpt><trkpt lat="59.1041680332" lon="30.5058577191"><ele>299.59</ele><time>2026-08-20T21:57:57Z</time></trkpt><trkpt lat="59.1041680332" lon="30.5058577191"><ele>299.59</ele><time>2026-08-20T21:57:58Z</time></trkpt><trkpt lat="59.1041680332" lon="30.5058577191"><ele>299.59</ele><time>2026-08-20T21:57:59Z</time></trkpt><trkpt lat="59.1041680332" lon="30.5058577191"><ele>299.59</ele><time>2026-08-20T21:58:00Z</time></trkpt><trkpt lat="59.1041680332" lon="30.5058577191"><ele>299.59</ele><time>2026-08-20T21:58:01Z</time></trkpt><trkpt lat="59.1041680332" lon="30.5058577191"><ele>299.59</ele><time>2026-08-20T21:58:02Z</time></trkpt><trkpt lat="59.1041680332" lon="30.5058577191"><ele>299.59</ele><time>2026-08-20T21:58:03Z</time></trkpt><trkpt lat="59.1041680332" lon="30.5058577191"><ele>299.59</ele><time>2026-08-20T21:58:04Z</time></trkpt><trkpt lat="59.1041680332" lon="30.5058577191"><ele>299.59</ele><time>2026-08-20T21:58:05Z</time></trkpt><trkpt lat="59.1041680332" lon="30.5058577191"><ele>299.59</ele><time>2026-08-20T21:58:06Z</time></trkpt><trkpt lat="59.1041680332" lon="30.5058577191"><ele>299.59</ele><time>2026-08-20T21:58:07Z</time></trkpt><trkpt lat="59.1041680332" lon="30.5058577191"><ele>299.59</ele><time>2026-08-20T21:58:08Z</time></trkpt><trkpt lat="59.1041680332" lon="30.5058577191"><ele>299.59</ele><time>2026-08-20T21:58:09Z</time></trkpt><trkpt lat="59.1041680332" lon="30.5058577191"><ele>299.59</ele><time>2026-08-20T21:58:10Z</time></trkpt><trkpt lat="59.1041680332" lon="30.5058577191"><ele>299.59</ele><time>2026-08-20T21:58:11Z</time></trkpt><trkpt lat="59.1041680332" lon="30.5058577191"><ele>299.59</ele><time>2026-08-20T21:58:12Z</time></trkpt><trkpt lat="59.1041680332" lon="30.5058577191"><ele>299.59</ele><time>2026-08-20T21:58:13Z</time></trkpt><trkpt lat="59.1041680332" lon="30.5058577191"><ele>299.59</ele><time>2026-08-20T21:58:14Z</time></trkpt><trkpt lat="59.1041680332" lon="30.5058577191"><ele>299.59</ele><time>2026-08-20T21:58:15Z</time></trkpt><trkpt lat="59.1041680332" lon="30.5058577191"><ele>299.59</ele><time>2026-08-20T21:58:16Z</time></trkpt><trkpt lat="59.1041680332" lon="30.5058577191"><ele>299.59</ele><time>2026-08-20T21:58:17Z</time></trkpt><trkpt lat="59.1041680332" lon="30.5058577191"><ele>299.59</ele><time>2026-08-20T21:58:18Z</time></trkpt><trkpt lat="59.1041680332" lon="30.5058577191"><ele>299.59</ele><time>2026-08-20T21:58:19Z</time></trkpt><trkpt lat="59.1041680332" lon="30.5058577191"><ele>299.59</ele><time>2026-08-20T21:58:20Z</time></trkpt><trkpt lat="59.1041680332" lon="30.5058577191"><ele>299.59</ele><time>2026-08-20T21:58:21Z</time></trkpt><trkpt lat="59.1041680332" lon="30.5058577191"><ele>299.59</ele><time>2026-08-20T21:58:22Z</time></trkpt><trkpt lat="59.1041680332" lon="30.5058577191"><ele>299.59</ele><time>2026-08-20T21:58:23Z</time></trkpt><trkpt lat="59.1041680332" lon="30.5058577191"><ele>299.59</ele><time>2026-08-20T21:58:24Z</time></trkpt><trkpt lat="59.1041680332" lon="30.5058577191"><ele>299.59</ele><time>2026-08-20T21:58:25Z</time></trkpt><trkpt lat="59.1041680332" lon="30.5058577191"><ele>299.59</ele><time>2026-08-20T21:58:26Z</time></trkpt><trkpt lat="59.1041680332" lon="30.5058577191"><ele>299.59</ele><time>2026-08-20T21:58:27Z</time></trkpt><trkpt lat="59.1041680332" lon="30.5058577191"><ele>299.59</ele><time>2026-08-20T21:58:28Z</time></trkpt><trkpt lat="59.1041680332" lon="30.5058577191"><ele>299.59</ele><time>2026-08-20T21:58:29Z</time></trkpt><trkpt lat="59.1041680332" lon="30.5058577191"><ele>299.59</ele><time>2026-08-20T21:58:30Z</time></trkpt><trkpt lat="59.1041680332" lon="30.5058577191"><ele>299.59</ele><time>2026-08-20T21:58:31Z</time></trkpt><trkpt lat="59.1041680332" lon="30.5058577191"><ele>299.59</ele><time>2026-08-20T21:58:32Z</time></trkpt><trkpt lat="59.1041680332" lon="30.5058577191"><ele>299.59</ele><time>2026-08-20T21:58:33Z</time></trkpt><trkpt lat="59.1041680332" lon="30.5058577191"><ele>299.59</ele><time>2026-08-20T21:58:34Z</time></trkpt><trkpt lat="59.1041680332" lon="30.5058577191"><ele>299.59</ele><time>2026-08-20T21:58:35Z</time></trkpt><trkpt lat="59.1041680332" lon="30.5058577191"><ele>299.59</ele><time>2026-08-20T21:58:36Z</time></trkpt><trkpt lat="59.1041680332" lon="30.5058577191"><ele>299.59</ele><time>2026-08-20T21:58:37Z</time></trkpt><trkpt lat="59.1041680332" lon="30.5058577191"><ele>299.59</ele><time>2026-08-20T21:58:38Z</time></trkpt><trkpt lat="59.1041680332" lon="30.5058577191"><ele>299.59</ele><time>2026-08-20T21:58:39Z</time></trkpt><trkpt lat="59.1041680332" lon="30.5058577191"><ele>299.59</ele><time>2026-08-20T21:58:40Z</time></trkpt><trkpt lat="59.1041680332" lon="30.5058577191"><ele>299.59</ele><time>2026-08-20T21:58:41Z</time></trkpt><trkpt lat="59.1041680332" lon="30.5058577191"><ele>299.59</ele><time>2026-08-20T21:58:42Z</time></trkpt><trkpt lat="59.1041680332" lon="30.5058577191"><ele>299.59</ele><time>2026-08-20T21:58:43Z</time></trkpt><trkpt lat="59.1041680332" lon="30.5058577191"><ele>299.59</ele><time>2026-08-20T21:58:44Z</time></trkpt><trkpt lat="59.1041680332" lon="30.5058577191"><ele>299.59</ele><time>2026-08-20T21:58:45Z</time></trkpt><trkpt lat="59.1041547898" lon="30.5058293883"><ele>299.59</ele><time>2026-08-20T21:58:46Z</time></trkpt><trkpt lat="59.1041550413" lon="30.5058096908"><ele>299.59</ele><time>2026-08-20T21:58:47Z</time></trkpt><trkpt lat="59.1041565500" lon="30.5057911668"><ele>299.59</ele><time>2026-08-20T21:58:48Z</time></trkpt><trkpt lat="59.1041589808" lon="30.5057692900"><ele>299.59</ele><time>2026-08-20T21:58:49Z</time></trkpt><trkpt lat="59.1041607410" lon="30.5057462398"><ele>299.59</ele><time>2026-08-20T21:58:50Z</time></trkpt><trkpt lat="59.1041590646" lon="30.5057240278"><ele>299.59</ele><time>2026-08-20T21:58:51Z</time></trkpt><trkpt lat="59.1041557956" lon="30.5057074316"><ele>299.59</ele><time>2026-08-20T21:58:52Z</time></trkpt><trkpt lat="59.1041536164" lon="30.5056928471"><ele>299.59</ele><time>2026-08-20T21:58:53Z</time></trkpt><trkpt lat="59.1041523591" lon="30.5056717247"><ele>299.59</ele><time>2026-08-20T21:58:54Z</time></trkpt><trkpt lat="59.1041524429" lon="30.5056495965"><ele>299.59</ele><time>2026-08-20T21:58:55Z</time></trkpt><trkpt lat="59.1041527782" lon="30.5056264624"><ele>299.59</ele><time>2026-08-20T21:58:56Z</time></trkpt><trkpt lat="59.1041515209" lon="30.5055997241"><ele>299.59</ele><time>2026-08-20T21:58:57Z</time></trkpt><trkpt lat="59.1041540354" lon="30.5055790208"><ele>299.59</ele><time>2026-08-20T21:58:58Z</time></trkpt><trkpt lat="59.1041560471" lon="30.5055610836"><ele>299.59</ele><time>2026-08-20T21:58:59Z</time></trkpt><trkpt lat="59.1041578911" lon="30.5055404641"><ele>299.59</ele><time>2026-08-20T21:59:00Z</time></trkpt><trkpt lat="59.1041570529" lon="30.5055227783"><ele>299.59</ele><time>2026-08-20T21:59:01Z</time></trkpt><trkpt lat="59.1041578911" lon="30.5055113789"><ele>299.59</ele><time>2026-08-20T21:59:02Z</time></trkpt><trkpt lat="59.1041575558" lon="30.5054983869"><ele>299.59</ele><time>2026-08-20T21:59:03Z</time></trkpt><trkpt lat="59.1041572206" lon="30.5054906756"><ele>299.59</ele><time>2026-08-20T21:59:04Z</time></trkpt><trkpt lat="59.1041598190" lon="30.5054846406"><ele>299.59</ele><time>2026-08-20T21:59:05Z</time></trkpt><trkpt lat="59.1041610762" lon="30.5054734927"><ele>299.59</ele><time>2026-08-20T21:59:06Z</time></trkpt><trkpt lat="59.1041589808" lon="30.5054622609"><ele>299.59</ele><time>2026-08-20T21:59:07Z</time></trkpt><trkpt lat="59.1041601542" lon="30.5054539628"><ele>299.59</ele><time>2026-08-20T21:59:08Z</time></trkpt><trkpt lat="59.1041583940" lon="30.5054485984"><ele>299.59</ele><time>2026-08-20T21:59:09Z</time></trkpt><trkpt lat="59.1041552927" lon="30.5054441560"><ele>299.59</ele><time>2026-08-20T21:59:10Z</time></trkpt><trkpt lat="59.1041552927" lon="30.5054441560"><ele>299.59</ele><time>2026-08-20T21:59:11Z</time></trkpt><trkpt lat="59.1041552927" lon="30.5054441560"><ele>299.59</ele><time>2026-08-20T21:59:12Z</time></trkpt><trkpt lat="59.1041552927" lon="30.5054441560"><ele>299.59</ele><time>2026-08-20T21:59:13Z</time></trkpt><trkpt lat="59.1041552927" lon="30.5054441560"><ele>299.59</ele><time>2026-08-20T21:59:14Z</time></trkpt><trkpt lat="59.1041552927" lon="30.5054441560"><ele>299.59</ele><time>2026-08-20T21:59:15Z</time></trkpt><trkpt lat="59.1041552927" lon="30.5054441560"><ele>299.59</ele><time>2026-08-20T21:59:16Z</time></trkpt><trkpt lat="59.1041495930" lon="30.5054021627"><ele>299.59</ele><time>2026-08-20T21:59:17Z</time></trkpt><trkpt lat="59.1041525267" lon="30.5053930264"><ele>299.59</ele><time>2026-08-20T21:59:18Z</time></trkpt><trkpt lat="59.1041544545" lon="30.5053759273"><ele>299.59</ele><time>2026-08-20T21:59:19Z</time></trkpt><trkpt lat="59.1041554604" lon="30.5053594988"><ele>299.59</ele><time>2026-08-20T21:59:20Z</time></trkpt><trkpt lat="59.1041547898" lon="30.5053429864"><ele>299.59</ele><time>2026-08-20T21:59:21Z</time></trkpt><trkpt lat="59.1041553766" lon="30.5053264741"><ele>299.59</ele><time>2026-08-20T21:59:22Z</time></trkpt><trkpt lat="59.1041561309" lon="30.5053084530"><ele>299.59</ele><time>2026-08-20T21:59:23Z</time></trkpt><trkpt lat="59.1041584779" lon="30.5052915215"><ele>299.59</ele><time>2026-08-20T21:59:24Z</time></trkpt><trkpt lat="59.1041609924" lon="30.5052745901"><ele>299.59</ele><time>2026-08-20T21:59:25Z</time></trkpt><trkpt lat="59.1041601542" lon="30.5052588321"><ele>299.59</ele><time>2026-08-20T21:59:26Z</time></trkpt><trkpt lat="59.1041591484" lon="30.5052383803"><ele>299.59</ele><time>2026-08-20T21:59:27Z</time></trkpt><trkpt lat="59.1041558795" lon="30.5052210297"><ele>299.59</ele><time>2026-08-20T21:59:28Z</time></trkpt><trkpt lat="59.1041533649" lon="30.5051998235"><ele>299.59</ele><time>2026-08-20T21:59:29Z</time></trkpt><trkpt lat="59.1041497607" lon="30.5051783659"><ele>299.59</ele><time>2026-08-20T21:59:30Z</time></trkpt><trkpt lat="59.1041462403" lon="30.5051589198"><ele>299.59</ele><time>2026-08-20T21:59:31Z</time></trkpt><trkpt lat="59.1041455697" lon="30.5051416531"><ele>299.59</ele><time>2026-08-20T21:59:32Z</time></trkpt><trkpt lat="59.1041442286" lon="30.5051261466"><ele>299.59</ele><time>2026-08-20T21:59:33Z</time></trkpt><trkpt lat="59.1041437257" lon="30.5051048566"><ele>299.59</ele><time>2026-08-20T21:59:34Z</time></trkpt><trkpt lat="59.1041432228" lon="30.5050873384"><ele>299.59</ele><time>2026-08-20T21:59:35Z</time></trkpt><trkpt lat="59.1041417979" lon="30.5050722510"><ele>300.07</ele><time>2026-08-20T21:59:36Z</time></trkpt><trkpt lat="59.1041390318" lon="30.5050579179"><ele>300.07</ele><time>2026-08-20T21:59:37Z</time></trkpt><trkpt lat="59.1041344218" lon="30.5050403997"><ele>300.07</ele><time>2026-08-20T21:59:38Z</time></trkpt><trkpt lat="59.1041325778" lon="30.5050218757"><ele>300.07</ele><time>2026-08-20T21:59:39Z</time></trkpt><trkpt lat="59.1041331645" lon="30.5050010886"><ele>300.07</ele><time>2026-08-20T21:59:40Z</time></trkpt><trkpt lat="59.1041329969" lon="30.5049807206"><ele>300.07</ele><time>2026-08-20T21:59:41Z</time></trkpt><trkpt lat="59.1041319910" lon="30.5049684830"><ele>299.59</ele><time>2026-08-20T21:59:42Z</time></trkpt><trkpt lat="59.1041343380" lon="30.5049582571"><ele>299.59</ele><time>2026-08-20T21:59:43Z</time></trkpt><trkpt lat="59.1041334998" lon="30.5049420800"><ele>299.59</ele><time>2026-08-20T21:59:44Z</time></trkpt><trkpt lat="59.1041306499" lon="30.5049119890"><ele>299.59</ele><time>2026-08-20T21:59:45Z</time></trkpt><trkpt lat="59.1041290574" lon="30.5048920400"><ele>299.59</ele><time>2026-08-20T21:59:46Z</time></trkpt><trkpt lat="59.1041277163" lon="30.5048760306"><ele>299.59</ele><time>2026-08-20T21:59:47Z</time></trkpt><trkpt lat="59.1041244473" lon="30.5048638768"><ele>299.59</ele><time>2026-08-20T21:59:48Z</time></trkpt><trkpt lat="59.1041236930" lon="30.5048469454"><ele>299.59</ele><time>2026-08-20T21:59:49Z</time></trkpt><trkpt lat="59.1041249502" lon="30.5048339535"><ele>299.59</ele><time>2026-08-20T21:59:50Z</time></trkpt><trkpt lat="59.1041247826" lon="30.5048166867"><ele>299.59</ele><time>2026-08-20T21:59:51Z</time></trkpt><trkpt lat="59.1041259561" lon="30.5048038624"><ele>299.59</ele><time>2026-08-20T21:59:52Z</time></trkpt><trkpt lat="59.1041284706" lon="30.5047912896"><ele>299.59</ele><time>2026-08-20T21:59:53Z</time></trkpt><trkpt lat="59.1041279677" lon="30.5047754478"><ele>299.59</ele><time>2026-08-20T21:59:54Z</time></trkpt><trkpt lat="59.1041287221" lon="30.5047609471"><ele>299.59</ele><time>2026-08-20T21:59:55Z</time></trkpt><trkpt lat="59.1041302308" lon="30.5047430936"><ele>299.59</ele><time>2026-08-20T21:59:56Z</time></trkpt><trkpt lat="59.1041315719" lon="30.5047298502"><ele>299.59</ele><time>2026-08-20T21:59:57Z</time></trkpt><trkpt lat="59.1041313205" lon="30.5047113262"><ele>299.59</ele><time>2026-08-20T21:59:58Z</time></trkpt><trkpt lat="59.1041312367" lon="30.5046940595"><ele>299.59</ele><time>2026-08-20T21:59:59Z</time></trkpt><trkpt lat="59.1041292250" lon="30.5046736915"><ele>299.59</ele><time>2026-08-20T22:00:00Z</time></trkpt><trkpt lat="59.1041259561" lon="30.5046534911"><ele>299.59</ele><time>2026-08-20T22:00:01Z</time></trkpt><trkpt lat="59.1041240282" lon="30.5046362244"><ele>299.59</ele><time>2026-08-20T22:00:02Z</time></trkpt><trkpt lat="59.1041183285" lon="30.5046193767"><ele>299.59</ele><time>2026-08-20T22:00:03Z</time></trkpt><trkpt lat="59.1041173227" lon="30.5046019424"><ele>299.59</ele><time>2026-08-20T22:00:04Z</time></trkpt><trkpt lat="59.1041135509" lon="30.5045910459"><ele>299.59</ele><time>2026-08-20T22:00:05Z</time></trkpt><trkpt lat="59.1041118745" lon="30.5045835860"><ele>299.59</ele><time>2026-08-20T22:00:06Z</time></trkpt><trkpt lat="59.1041101981" lon="30.5045714322"><ele>299.59</ele><time>2026-08-20T22:00:07Z</time></trkpt><trkpt lat="59.1041064262" lon="30.5045552552"><ele>299.59</ele><time>2026-08-20T22:00:08Z</time></trkpt><trkpt lat="59.1041031573" lon="30.5045420956"><ele>299.59</ele><time>2026-08-20T22:00:09Z</time></trkpt><trkpt lat="59.1040978767" lon="30.5045288522"><ele>299.59</ele><time>2026-08-20T22:00:10Z</time></trkpt><trkpt lat="59.1040941887" lon="30.5045131780"><ele>299.59</ele><time>2026-08-20T22:00:11Z</time></trkpt><trkpt lat="59.1040907521" lon="30.5044958275"><ele>299.59</ele><time>2026-08-20T22:00:12Z</time></trkpt><trkpt lat="59.1040867288" lon="30.5044840928"><ele>299.59</ele><time>2026-08-20T22:00:13Z</time></trkpt><trkpt lat="59.1040808614" lon="30.5044714361"><ele>299.59</ele><time>2026-08-20T22:00:14Z</time></trkpt><trkpt lat="59.1040761676" lon="30.5044539180"><ele>299.59</ele><time>2026-08-20T22:00:15Z</time></trkpt><trkpt lat="59.1040760837" lon="30.5044418480"><ele>299.59</ele><time>2026-08-20T22:00:16Z</time></trkpt><trkpt lat="59.1040730663" lon="30.5044219829"><ele>299.59</ele><time>2026-08-20T22:00:17Z</time></trkpt><trkpt lat="59.1040725634" lon="30.5044028722"><ele>299.59</ele><time>2026-08-20T22:00:18Z</time></trkpt><trkpt lat="59.1040707193" lon="30.5043827556"><ele>299.59</ele><time>2026-08-20T22:00:19Z</time></trkpt><trkpt lat="59.1040697973" lon="30.5043652374"><ele>299.59</ele><time>2026-08-20T22:00:20Z</time></trkpt><trkpt lat="59.1040710546" lon="30.5043536704"><ele>299.59</ele><time>2026-08-20T22:00:21Z</time></trkpt><trkpt lat="59.1040715575" lon="30.5043429416"><ele>299.59</ele><time>2026-08-20T22:00:22Z</time></trkpt><trkpt lat="59.1040755808" lon="30.5043241661"><ele>299.59</ele><time>2026-08-20T22:00:23Z</time></trkpt><trkpt lat="59.1040789336" lon="30.5043102521"><ele>299.59</ele><time>2026-08-20T22:00:24Z</time></trkpt><trkpt lat="59.1040802747" lon="30.5042981822"><ele>299.59</ele><time>2026-08-20T22:00:25Z</time></trkpt><trkpt lat="59.1040819511" lon="30.5042844359"><ele>299.59</ele><time>2026-08-20T22:00:26Z</time></trkpt><trkpt lat="59.1040822864" lon="30.5042705219"><ele>299.59</ele><time>2026-08-20T22:00:27Z</time></trkpt><trkpt lat="59.1040828731" lon="30.5042545963"><ele>299.59</ele><time>2026-08-20T22:00:28Z</time></trkpt><trkpt lat="59.1040809453" lon="30.5042369943"><ele>299.59</ele><time>2026-08-20T22:00:29Z</time></trkpt><trkpt lat="59.1040799394" lon="30.5042160396"><ele>299.59</ele><time>2026-08-20T22:00:30Z</time></trkpt><trkpt lat="59.1040765867" lon="30.5041941628"><ele>299.59</ele><time>2026-08-20T22:00:31Z</time></trkpt><trkpt lat="59.1040745750" lon="30.5041732918"><ele>299.59</ele><time>2026-08-20T22:00:32Z</time></trkpt><trkpt lat="59.1040728986" lon="30.5041529238"><ele>299.59</ele><time>2026-08-20T22:00:33Z</time></trkpt><trkpt lat="59.1040696297" lon="30.5041316338"><ele>299.59</ele><time>2026-08-20T22:00:34Z</time></trkpt><trkpt lat="59.1040655226" lon="30.5041084997"><ele>299.59</ele><time>2026-08-20T22:00:35Z</time></trkpt><trkpt lat="59.1040625889" lon="30.5040859524"><ele>299.59</ele><time>2026-08-20T22:00:36Z</time></trkpt><trkpt lat="59.1040615831" lon="30.5040663388"><ele>299.59</ele><time>2026-08-20T22:00:37Z</time></trkpt><trkpt lat="59.1040614992" lon="30.5040466413"><ele>299.59</ele><time>2026-08-20T22:00:38Z</time></trkpt><trkpt lat="59.1040628403" lon="30.5040298775"><ele>299.59</ele><time>2026-08-20T22:00:39Z</time></trkpt><trkpt lat="59.1040619183" lon="30.5040135328"><ele>299.59</ele><time>2026-08-20T22:00:40Z</time></trkpt><trkpt lat="59.1040643491" lon="30.5039994512"><ele>299.59</ele><time>2026-08-20T22:00:41Z</time></trkpt><trkpt lat="59.1040681209" lon="30.5039786641"><ele>299.59</ele><time>2026-08-20T22:00:42Z</time></trkpt><trkpt lat="59.1040682886" lon="30.5039598886"><ele>299.59</ele><time>2026-08-20T22:00:43Z</time></trkpt><trkpt lat="59.1040695459" lon="30.5039439630"><ele>299.59</ele><time>2026-08-20T22:00:44Z</time></trkpt><trkpt lat="59.1040696297" lon="30.5039286241"><ele>299.59</ele><time>2026-08-20T22:00:45Z</time></trkpt><trkpt lat="59.1040699650" lon="30.5039113574"><ele>299.59</ele><time>2026-08-20T22:00:46Z</time></trkpt><trkpt lat="59.1040713899" lon="30.5038955994"><ele>300.07</ele><time>2026-08-20T22:00:47Z</time></trkpt><trkpt lat="59.1040702164" lon="30.5038781650"><ele>300.07</ele><time>2026-08-20T22:00:48Z</time></trkpt><trkpt lat="59.1040679533" lon="30.5038607307"><ele>299.59</ele><time>2026-08-20T22:00:49Z</time></trkpt><trkpt lat="59.1040678695" lon="30.5038443860"><ele>299.59</ele><time>2026-08-20T22:00:50Z</time></trkpt><trkpt lat="59.1040695459" lon="30.5038226768"><ele>299.59</ele><time>2026-08-20T22:00:51Z</time></trkpt><trkpt lat="59.1040695459" lon="30.5038056616"><ele>299.59</ele><time>2026-08-20T22:00:52Z</time></trkpt><trkpt lat="59.1040683724" lon="30.5037887301"><ele>299.59</ele><time>2026-08-20T22:00:53Z</time></trkpt><trkpt lat="59.1040669475" lon="30.5037734751"><ele>299.59</ele><time>2026-08-20T22:00:54Z</time></trkpt><trkpt lat="59.1040653549" lon="30.5037531909"><ele>299.59</ele><time>2026-08-20T22:00:55Z</time></trkpt><trkpt lat="59.1040624212" lon="30.5037333257"><ele>299.59</ele><time>2026-08-20T22:00:56Z</time></trkpt><trkpt lat="59.1040602420" lon="30.5037147179"><ele>299.59</ele><time>2026-08-20T22:00:57Z</time></trkpt><trkpt lat="59.1040592361" lon="30.5036914162"><ele>299.59</ele><time>2026-08-20T22:00:58Z</time></trkpt><trkpt lat="59.1040592361" lon="30.5036693718"><ele>299.59</ele><time>2026-08-20T22:00:59Z</time></trkpt><trkpt lat="59.1040581465" lon="30.5036450643"><ele>299.59</ele><time>2026-08-20T22:01:00Z</time></trkpt><trkpt lat="59.1040567216" lon="30.5036208406"><ele>299.59</ele><time>2026-08-20T22:01:01Z</time></trkpt><trkpt lat="59.1040627565" lon="30.5036054179"><ele>299.59</ele><time>2026-08-20T22:01:02Z</time></trkpt><trkpt lat="59.1040606610" lon="30.5035809427"><ele>300.07</ele><time>2026-08-20T22:01:03Z</time></trkpt><trkpt lat="59.1040556319" lon="30.5035540368"><ele>300.07</ele><time>2026-08-20T22:01:04Z</time></trkpt><trkpt lat="59.1040522791" lon="30.5035351776"><ele>300.07</ele><time>2026-08-20T22:01:05Z</time></trkpt><trkpt lat="59.1040455736" lon="30.5035171565"><ele>300.07</ele><time>2026-08-20T22:01:06Z</time></trkpt><trkpt lat="59.1040401254" lon="30.5035006441"><ele>300.07</ele><time>2026-08-20T22:01:07Z</time></trkpt><trkpt lat="59.1040347610" lon="30.5034802761"><ele>300.07</ele><time>2026-08-20T22:01:08Z</time></trkpt><trkpt lat="59.1040318273" lon="30.5034600757"><ele>300.07</ele><time>2026-08-20T22:01:09Z</time></trkpt><trkpt lat="59.1040290613" lon="30.5034410488"><ele>300.07</ele><time>2026-08-20T22:01:10Z</time></trkpt><trkpt lat="59.1040235292" lon="30.5034183338"><ele>300.07</ele><time>2026-08-20T22:01:11Z</time></trkpt><trkpt lat="59.1040200926" lon="30.5033952836"><ele>300.07</ele><time>2026-08-20T22:01:12Z</time></trkpt><trkpt lat="59.1040174942" lon="30.5033732392"><ele>300.07</ele><time>2026-08-20T22:01:13Z</time></trkpt><trkpt lat="59.1040176619" lon="30.5033540446"><ele>300.07</ele><time>2026-08-20T22:01:14Z</time></trkpt><trkpt lat="59.1040191706" lon="30.5033333413"><ele>300.07</ele><time>2026-08-20T22:01:15Z</time></trkpt><trkpt lat="59.1040195897" lon="30.5033109616"><ele>300.07</ele><time>2026-08-20T22:01:16Z</time></trkpt><trkpt lat="59.1040214337" lon="30.5032904260"><ele>300.07</ele><time>2026-08-20T22:01:17Z</time></trkpt><trkpt lat="59.1040207632" lon="30.5032683816"><ele>300.07</ele><time>2026-08-20T22:01:18Z</time></trkpt><trkpt lat="59.1040205956" lon="30.5032487679"><ele>300.07</ele><time>2026-08-20T22:01:19Z</time></trkpt><trkpt lat="59.1040204279" lon="30.5032306630"><ele>300.07</ele><time>2026-08-20T22:01:20Z</time></trkpt><trkpt lat="59.1040169913" lon="30.5032123905"><ele>300.07</ele><time>2026-08-20T22:01:21Z</time></trkpt><trkpt lat="59.1040153988" lon="30.5031924415"><ele>300.07</ele><time>2026-08-20T22:01:22Z</time></trkpt><trkpt lat="59.1040170752" lon="30.5031773541"><ele>300.07</ele><time>2026-08-20T22:01:23Z</time></trkpt><trkpt lat="59.1040173266" lon="30.5031623505"><ele>300.07</ele><time>2026-08-20T22:01:24Z</time></trkpt><trkpt lat="59.1040217690" lon="30.5031479336"><ele>300.07</ele><time>2026-08-20T22:01:25Z</time></trkpt><trkpt lat="59.1040217690" lon="30.5031281523"><ele>300.07</ele><time>2026-08-20T22:01:26Z</time></trkpt><trkpt lat="59.1040244512" lon="30.5031130649"><ele>300.07</ele><time>2026-08-20T22:01:27Z</time></trkpt><trkpt lat="59.1040265467" lon="30.5030936189"><ele>300.07</ele><time>2026-08-20T22:01:28Z</time></trkpt><trkpt lat="59.1040266305" lon="30.5030739214"><ele>300.07</ele><time>2026-08-20T22:01:29Z</time></trkpt><trkpt lat="59.1040267982" lon="30.5030570738"><ele>300.07</ele><time>2026-08-20T22:01:30Z</time></trkpt><trkpt lat="59.1040253732" lon="30.5030424893"><ele>300.07</ele><time>2026-08-20T22:01:31Z</time></trkpt><trkpt lat="59.1040232778" lon="30.5030307546"><ele>300.07</ele><time>2026-08-20T22:01:32Z</time></trkpt><trkpt lat="59.1040203441" lon="30.5030179303"><ele>300.07</ele><time>2026-08-20T22:01:33Z</time></trkpt><trkpt lat="59.1040190868" lon="30.5030040164"><ele>300.07</ele><time>2026-08-20T22:01:34Z</time></trkpt><trkpt lat="59.1040201765" lon="30.5029901862"><ele>300.07</ele><time>2026-08-20T22:01:35Z</time></trkpt><trkpt lat="59.1040248703" lon="30.5029781163"><ele>300.07</ele><time>2026-08-20T22:01:36Z</time></trkpt><trkpt lat="59.1040213499" lon="30.5029598437"><ele>300.07</ele><time>2026-08-20T22:01:37Z</time></trkpt><trkpt lat="59.1040205956" lon="30.5029499531"><ele>300.07</ele><time>2026-08-20T22:01:38Z</time></trkpt><trkpt lat="59.1040185839" lon="30.5029369611"><ele>300.07</ele><time>2026-08-20T22:01:39Z</time></trkpt><trkpt lat="59.1040177457" lon="30.5029261485"><ele>300.07</ele><time>2026-08-20T22:01:40Z</time></trkpt><trkpt lat="59.1040106211" lon="30.5029112287"><ele>300.07</ele><time>2026-08-20T22:01:41Z</time></trkpt><trkpt lat="59.1040058434" lon="30.5028998293"><ele>300.07</ele><time>2026-08-20T22:01:42Z</time></trkpt><trkpt lat="59.1040015686" lon="30.5028875917"><ele>300.07</ele><time>2026-08-20T22:01:43Z</time></trkpt><trkpt lat="59.1040019877" lon="30.5028801318"><ele>300.07</ele><time>2026-08-20T22:01:44Z</time></trkpt><trkpt lat="59.1040019877" lon="30.5028801318"><ele>300.07</ele><time>2026-08-20T22:01:45Z</time></trkpt><trkpt lat="59.1040019877" lon="30.5028801318"><ele>300.07</ele><time>2026-08-20T22:01:46Z</time></trkpt><trkpt lat="59.1040019877" lon="30.5028801318"><ele>300.07</ele><time>2026-08-20T22:01:47Z</time></trkpt><trkpt lat="59.1040019877" lon="30.5028801318"><ele>300.07</ele><time>2026-08-20T22:01:48Z</time></trkpt><trkpt lat="59.1040019877" lon="30.5028801318"><ele>300.07</ele><time>2026-08-20T22:01:49Z</time></trkpt><trkpt lat="59.1040019877" lon="30.5028801318"><ele>300.07</ele><time>2026-08-20T22:01:50Z</time></trkpt><trkpt lat="59.1040019877" lon="30.5028801318"><ele>299.59</ele><time>2026-08-20T22:01:51Z</time></trkpt><trkpt lat="59.1040019877" lon="30.5028801318"><ele>299.59</ele><time>2026-08-20T22:01:52Z</time></trkpt><trkpt lat="59.1040019877" lon="30.5028801318"><ele>299.59</ele><time>2026-08-20T22:01:53Z</time></trkpt><trkpt lat="59.1040019877" lon="30.5028801318"><ele>299.59</ele><time>2026-08-20T22:01:54Z</time></trkpt><trkpt lat="59.1040019877" lon="30.5028801318"><ele>299.59</ele><time>2026-08-20T22:01:55Z</time></trkpt><trkpt lat="59.1040019877" lon="30.5028801318"><ele>299.59</ele><time>2026-08-20T22:01:56Z</time></trkpt><trkpt lat="59.1040019877" lon="30.5028801318"><ele>299.59</ele><time>2026-08-20T22:01:57Z</time></trkpt><trkpt lat="59.1040019877" lon="30.5028801318"><ele>299.59</ele><time>2026-08-20T22:01:58Z</time></trkpt><trkpt lat="59.1040019877" lon="30.5028801318"><ele>299.59</ele><time>2026-08-20T22:01:59Z</time></trkpt><trkpt lat="59.1040019877" lon="30.5028801318"><ele>299.59</ele><time>2026-08-20T22:02:00Z</time></trkpt><trkpt lat="59.1040019877" lon="30.5028801318"><ele>299.59</ele><time>2026-08-20T22:02:01Z</time></trkpt><trkpt lat="59.1040019877" lon="30.5028801318"><ele>299.59</ele><time>2026-08-20T22:02:02Z</time></trkpt><trkpt lat="59.1040019877" lon="30.5028801318"><ele>299.59</ele><time>2026-08-20T22:02:03Z</time></trkpt><trkpt lat="59.1040019877" lon="30.5028801318"><ele>299.59</ele><time>2026-08-20T22:02:04Z</time></trkpt><trkpt lat="59.1040019877" lon="30.5028801318"><ele>299.59</ele><time>2026-08-20T22:02:05Z</time></trkpt><trkpt lat="59.1040019877" lon="30.5028801318"><ele>299.59</ele><time>2026-08-20T22:02:06Z</time></trkpt><trkpt lat="59.1040019877" lon="30.5028801318"><ele>299.59</ele><time>2026-08-20T22:02:07Z</time></trkpt><trkpt lat="59.1040019877" lon="30.5028801318"><ele>299.59</ele><time>2026-08-20T22:02:08Z</time></trkpt><trkpt lat="59.1040019877" lon="30.5028801318"><ele>299.59</ele><time>2026-08-20T22:02:09Z</time></trkpt><trkpt lat="59.1040019877" lon="30.5028801318"><ele>299.59</ele><time>2026-08-20T22:02:10Z</time></trkpt><trkpt lat="59.1040019877" lon="30.5028801318"><ele>299.59</ele><time>2026-08-20T22:02:11Z</time></trkpt><trkpt lat="59.1040019877" lon="30.5028801318"><ele>299.59</ele><time>2026-08-20T22:02:12Z</time></trkpt><trkpt lat="59.1040019877" lon="30.5028801318"><ele>299.59</ele><time>2026-08-20T22:02:13Z</time></trkpt><trkpt lat="59.1040019877" lon="30.5028801318"><ele>299.59</ele><time>2026-08-20T22:02:14Z</time></trkpt><trkpt lat="59.1040019877" lon="30.5028801318"><ele>299.59</ele><time>2026-08-20T22:02:15Z</time></trkpt><trkpt lat="59.1040019877" lon="30.5028801318"><ele>299.59</ele><time>2026-08-20T22:02:16Z</time></trkpt><trkpt lat="59.1040019877" lon="30.5028801318"><ele>299.59</ele><time>2026-08-20T22:02:17Z</time></trkpt><trkpt lat="59.1040019877" lon="30.5028801318"><ele>299.59</ele><time>2026-08-20T22:02:18Z</time></trkpt><trkpt lat="59.1040019877" lon="30.5028801318"><ele>299.59</ele><time>2026-08-20T22:02:19Z</time></trkpt><trkpt lat="59.1040019877" lon="30.5028801318"><ele>299.59</ele><time>2026-08-20T22:02:20Z</time></trkpt><trkpt lat="59.1040019877" lon="30.5028801318"><ele>299.59</ele><time>2026-08-20T22:02:21Z</time></trkpt><trkpt lat="59.1040019877" lon="30.5028801318"><ele>299.59</ele><time>2026-08-20T22:02:22Z</time></trkpt><trkpt lat="59.1040019877" lon="30.5028801318"><ele>299.59</ele><time>2026-08-20T22:02:23Z</time></trkpt><trkpt lat="59.1040019877" lon="30.5028801318"><ele>299.59</ele><time>2026-08-20T22:02:24Z</time></trkpt><trkpt lat="59.1040019877" lon="30.5028801318"><ele>299.59</ele><time>2026-08-20T22:02:25Z</time></trkpt><trkpt lat="59.1040019877" lon="30.5028801318"><ele>299.59</ele><time>2026-08-20T22:02:26Z</time></trkpt><trkpt lat="59.1040019877" lon="30.5028801318"><ele>299.59</ele><time>2026-08-20T22:02:27Z</time></trkpt><trkpt lat="59.1040019877" lon="30.5028801318"><ele>299.59</ele><time>2026-08-20T22:02:28Z</time></trkpt><trkpt lat="59.1040019877" lon="30.5028801318"><ele>299.59</ele><time>2026-08-20T22:02:29Z</time></trkpt><trkpt lat="59.1040019877" lon="30.5028801318"><ele>299.59</ele><time>2026-08-20T22:02:30Z</time></trkpt><trkpt lat="59.1040019877" lon="30.5028801318"><ele>299.59</ele><time>2026-08-20T22:02:31Z</time></trkpt><trkpt lat="59.1040019877" lon="30.5028801318"><ele>299.59</ele><time>2026-08-20T22:02:32Z</time></trkpt><trkpt lat="59.1040019877" lon="30.5028801318"><ele>299.59</ele><time>2026-08-20T22:02:33Z</time></trkpt><trkpt lat="59.1040019877" lon="30.5028801318"><ele>299.59</ele><time>2026-08-20T22:02:34Z</time></trkpt><trkpt lat="59.1040019877" lon="30.5028801318"><ele>299.59</ele><time>2026-08-20T22:02:35Z</time></trkpt><trkpt lat="59.1040019877" lon="30.5028801318"><ele>299.59</ele><time>2026-08-20T22:02:36Z</time></trkpt><trkpt lat="59.1040019877" lon="30.5028801318"><ele>299.59</ele><time>2026-08-20T22:02:37Z</time></trkpt><trkpt lat="59.1040019877" lon="30.5028801318"><ele>299.59</ele><time>2026-08-20T22:02:38Z</time></trkpt><trkpt lat="59.1040019877" lon="30.5028801318"><ele>299.59</ele><time>2026-08-20T22:02:39Z</time></trkpt><trkpt lat="59.1040380299" lon="30.5028697383"><ele>299.59</ele><time>2026-08-20T22:02:40Z</time></trkpt><trkpt lat="59.1040387843" lon="30.5028563272"><ele>299.59</ele><time>2026-08-20T22:02:41Z</time></trkpt><trkpt lat="59.1040393710" lon="30.5028402340"><ele>299.59</ele><time>2026-08-20T22:02:42Z</time></trkpt><trkpt lat="59.1040399577" lon="30.5028260686"><ele>299.59</ele><time>2026-08-20T22:02:43Z</time></trkpt><trkpt lat="59.1040408798" lon="30.5028096400"><ele>299.59</ele><time>2026-08-20T22:02:44Z</time></trkpt><trkpt lat="59.1040439811" lon="30.5027962290"><ele>299.59</ele><time>2026-08-20T22:02:45Z</time></trkpt><trkpt lat="59.1040439811" lon="30.5027849972"><ele>299.59</ele><time>2026-08-20T22:02:46Z</time></trkpt><trkpt lat="59.1040439811" lon="30.5027710833"><ele>299.59</ele><time>2026-08-20T22:02:47Z</time></trkpt><trkpt lat="59.1040445678" lon="30.5027598515"><ele>299.59</ele><time>2026-08-20T22:02:48Z</time></trkpt><trkpt lat="59.1040447354" lon="30.5027511343"><ele>299.59</ele><time>2026-08-20T22:02:49Z</time></trkpt><trkpt lat="59.1040443163" lon="30.5027390644"><ele>299.59</ele><time>2026-08-20T22:02:50Z</time></trkpt><trkpt lat="59.1040454898" lon="30.5027241446"><ele>299.59</ele><time>2026-08-20T22:02:51Z</time></trkpt><trkpt lat="59.1040463280" lon="30.5027081352"><ele>299.59</ele><time>2026-08-20T22:02:52Z</time></trkpt><trkpt lat="59.1040461604" lon="30.5026893597"><ele>299.59</ele><time>2026-08-20T22:02:53Z</time></trkpt><trkpt lat="59.1040458251" lon="30.5026730988"><ele>299.59</ele><time>2026-08-20T22:02:54Z</time></trkpt><trkpt lat="59.1040450707" lon="30.5026568379"><ele>299.59</ele><time>2026-08-20T22:02:55Z</time></trkpt><trkpt lat="59.1040419694" lon="30.5026362184"><ele>299.59</ele><time>2026-08-20T22:02:56Z</time></trkpt><trkpt lat="59.1040375270" lon="30.5026121624"><ele>299.59</ele><time>2026-08-20T22:02:57Z</time></trkpt><trkpt lat="59.1040340904" lon="30.5025932193"><ele>299.59</ele><time>2026-08-20T22:02:58Z</time></trkpt><trkpt lat="59.1040332522" lon="30.5025733542"><ele>299.59</ele><time>2026-08-20T22:02:59Z</time></trkpt><trkpt lat="59.1040296480" lon="30.5025529861"><ele>299.59</ele><time>2026-08-20T22:03:00Z</time></trkpt><trkpt lat="59.1040221881" lon="30.5025345460"><ele>299.59</ele><time>2026-08-20T22:03:01Z</time></trkpt><trkpt lat="59.1040147282" lon="30.5025110766"><ele>299.59</ele><time>2026-08-20T22:03:02Z</time></trkpt><trkpt lat="59.1040080227" lon="30.5024941452"><ele>299.59</ele><time>2026-08-20T22:03:03Z</time></trkpt><trkpt lat="59.1040024906" lon="30.5024780519"><ele>299.59</ele><time>2026-08-20T22:03:04Z</time></trkpt><trkpt lat="59.1039974615" lon="30.5024624616"><ele>299.59</ele><time>2026-08-20T22:03:05Z</time></trkpt><trkpt lat="59.1039923485" lon="30.5024516489"><ele>299.59</ele><time>2026-08-20T22:03:06Z</time></trkpt><trkpt lat="59.1039870679" lon="30.5024412554"><ele>299.59</ele><time>2026-08-20T22:03:07Z</time></trkpt><trkpt lat="59.1039830446" lon="30.5024311971"><ele>299.59</ele><time>2026-08-20T22:03:08Z</time></trkpt><trkpt lat="59.1039775964" lon="30.5024149362"><ele>299.59</ele><time>2026-08-20T22:03:09Z</time></trkpt><trkpt lat="59.1039732378" lon="30.5024005193"><ele>299.59</ele><time>2026-08-20T22:03:10Z</time></trkpt><trkpt lat="59.1039706394" lon="30.5023750383"><ele>299.59</ele><time>2026-08-20T22:03:11Z</time></trkpt><trkpt lat="59.1039724834" lon="30.5023613758"><ele>299.59</ele><time>2026-08-20T22:03:12Z</time></trkpt><trkpt lat="59.1039695498" lon="30.5023462884"><ele>299.59</ele><time>2026-08-20T22:03:13Z</time></trkpt><trkpt lat="59.1039740760" lon="30.5023349728"><ele>299.59</ele><time>2026-08-20T22:03:14Z</time></trkpt><trkpt lat="59.1039760876" lon="30.5023172870"><ele>299.59</ele><time>2026-08-20T22:03:15Z</time></trkpt><trkpt lat="59.1039769258" lon="30.5022960808"><ele>299.59</ele><time>2026-08-20T22:03:16Z</time></trkpt><trkpt lat="59.1039760876" lon="30.5022838432"><ele>299.59</ele><time>2026-08-20T22:03:17Z</time></trkpt><trkpt lat="59.1039763391" lon="30.5022745393"><ele>299.59</ele><time>2026-08-20T22:03:18Z</time></trkpt><trkpt lat="59.1039763391" lon="30.5022702646"><ele>299.59</ele><time>2026-08-20T22:03:19Z</time></trkpt><trkpt lat="59.1039776802" lon="30.5022642296"><ele>299.59</ele><time>2026-08-20T22:03:20Z</time></trkpt><trkpt lat="59.1039757524" lon="30.5022548418"><ele>299.59</ele><time>2026-08-20T22:03:21Z</time></trkpt><trkpt lat="59.1039757524" lon="30.5022548418"><ele>299.59</ele><time>2026-08-20T22:03:22Z</time></trkpt><trkpt lat="59.1039757524" lon="30.5022548418"><ele>299.59</ele><time>2026-08-20T22:03:23Z</time></trkpt><trkpt lat="59.1039757524" lon="30.5022548418"><ele>299.59</ele><time>2026-08-20T22:03:24Z</time></trkpt><trkpt lat="59.1039757524" lon="30.5022548418"><ele>299.59</ele><time>2026-08-20T22:03:25Z</time></trkpt><trkpt lat="59.1039757524" lon="30.5022548418"><ele>299.59</ele><time>2026-08-20T22:03:26Z</time></trkpt><trkpt lat="59.1039757524" lon="30.5022548418"><ele>299.59</ele><time>2026-08-20T22:03:27Z</time></trkpt><trkpt lat="59.1039757524" lon="30.5022548418"><ele>299.59</ele><time>2026-08-20T22:03:28Z</time></trkpt><trkpt lat="59.1039757524" lon="30.5022548418"><ele>299.59</ele><time>2026-08-20T22:03:29Z</time></trkpt><trkpt lat="59.1039757524" lon="30.5022548418"><ele>299.59</ele><time>2026-08-20T22:03:30Z</time></trkpt><trkpt lat="59.1039757524" lon="30.5022548418"><ele>299.59</ele><time>2026-08-20T22:03:31Z</time></trkpt><trkpt lat="59.1039757524" lon="30.5022548418"><ele>299.59</ele><time>2026-08-20T22:03:32Z</time></trkpt><trkpt lat="59.1039757524" lon="30.5022548418"><ele>299.59</ele><time>2026-08-20T22:03:33Z</time></trkpt><trkpt lat="59.1039757524" lon="30.5022548418"><ele>299.59</ele><time>2026-08-20T22:03:34Z</time></trkpt><trkpt lat="59.1039757524" lon="30.5022548418"><ele>299.59</ele><time>2026-08-20T22:03:35Z</time></trkpt><trkpt lat="59.1039757524" lon="30.5022548418"><ele>299.59</ele><time>2026-08-20T22:03:36Z</time></trkpt><trkpt lat="59.1039757524" lon="30.5022548418"><ele>299.59</ele><time>2026-08-20T22:03:37Z</time></trkpt><trkpt lat="59.1039757524" lon="30.5022548418"><ele>299.59</ele><time>2026-08-20T22:03:38Z</time></trkpt><trkpt lat="59.1039757524" lon="30.5022548418"><ele>299.59</ele><time>2026-08-20T22:03:39Z</time></trkpt><trkpt lat="59.1039757524" lon="30.5022548418"><ele>299.59</ele><time>2026-08-20T22:03:40Z</time></trkpt><trkpt lat="59.1039757524" lon="30.5022548418"><ele>299.59</ele><time>2026-08-20T22:03:41Z</time></trkpt><trkpt lat="59.1039757524" lon="30.5022548418"><ele>299.59</ele><time>2026-08-20T22:03:42Z</time></trkpt><trkpt lat="59.1039757524" lon="30.5022548418"><ele>299.59</ele><time>2026-08-20T22:03:43Z</time></trkpt><trkpt lat="59.1039757524" lon="30.5022548418"><ele>299.59</ele><time>2026-08-20T22:03:44Z</time></trkpt><trkpt lat="59.1039757524" lon="30.5022548418"><ele>299.59</ele><time>2026-08-20T22:03:45Z</time></trkpt><trkpt lat="59.1039757524" lon="30.5022548418"><ele>299.59</ele><time>2026-08-20T22:03:46Z</time></trkpt><trkpt lat="59.1039757524" lon="30.5022548418"><ele>299.59</ele><time>2026-08-20T22:03:47Z</time></trkpt><trkpt lat="59.1039757524" lon="30.5022548418"><ele>299.59</ele><time>2026-08-20T22:03:48Z</time></trkpt><trkpt lat="59.1039757524" lon="30.5022548418"><ele>299.59</ele><time>2026-08-20T22:03:49Z</time></trkpt><trkpt lat="59.1039757524" lon="30.5022548418"><ele>299.59</ele><time>2026-08-20T22:03:50Z</time></trkpt><trkpt lat="59.1039757524" lon="30.5022548418"><ele>299.59</ele><time>2026-08-20T22:03:51Z</time></trkpt><trkpt lat="59.1039757524" lon="30.5022548418"><ele>299.59</ele><time>2026-08-20T22:03:52Z</time></trkpt><trkpt lat="59.1039757524" lon="30.5022548418"><ele>299.59</ele><time>2026-08-20T22:03:53Z</time></trkpt><trkpt lat="59.1039757524" lon="30.5022548418"><ele>299.59</ele><time>2026-08-20T22:03:54Z</time></trkpt><trkpt lat="59.1039757524" lon="30.5022548418"><ele>299.59</ele><time>2026-08-20T22:03:55Z</time></trkpt><trkpt lat="59.1039757524" lon="30.5022548418"><ele>299.59</ele><time>2026-08-20T22:03:56Z</time></trkpt><trkpt lat="59.1039757524" lon="30.5022548418"><ele>299.59</ele><time>2026-08-20T22:03:57Z</time></trkpt><trkpt lat="59.1039757524" lon="30.5022548418"><ele>299.59</ele><time>2026-08-20T22:03:58Z</time></trkpt><trkpt lat="59.1039757524" lon="30.5022548418"><ele>299.59</ele><time>2026-08-20T22:03:59Z</time></trkpt><trkpt lat="59.1039757524" lon="30.5022548418"><ele>299.59</ele><time>2026-08-20T22:04:00Z</time></trkpt><trkpt lat="59.1039757524" lon="30.5022548418"><ele>299.59</ele><time>2026-08-20T22:04:01Z</time></trkpt><trkpt lat="59.1039757524" lon="30.5022548418"><ele>299.59</ele><time>2026-08-20T22:04:02Z</time></trkpt><trkpt lat="59.1039757524" lon="30.5022548418"><ele>299.11</ele><time>2026-08-20T22:04:03Z</time></trkpt><trkpt lat="59.1039757524" lon="30.5022548418"><ele>299.11</ele><time>2026-08-20T22:04:04Z</time></trkpt><trkpt lat="59.1039757524" lon="30.5022548418"><ele>299.11</ele><time>2026-08-20T22:04:05Z</time></trkpt><trkpt lat="59.1039757524" lon="30.5022548418"><ele>299.11</ele><time>2026-08-20T22:04:06Z</time></trkpt><trkpt lat="59.1039757524" lon="30.5022548418"><ele>299.11</ele><time>2026-08-20T22:04:07Z</time></trkpt><trkpt lat="59.1039757524" lon="30.5022548418"><ele>299.11</ele><time>2026-08-20T22:04:08Z</time></trkpt><trkpt lat="59.1039757524" lon="30.5022548418"><ele>299.11</ele><time>2026-08-20T22:04:09Z</time></trkpt><trkpt lat="59.1039757524" lon="30.5022548418"><ele>299.59</ele><time>2026-08-20T22:04:10Z</time></trkpt><trkpt lat="59.1039757524" lon="30.5022548418"><ele>299.59</ele><time>2026-08-20T22:04:11Z</time></trkpt><trkpt lat="59.1039757524" lon="30.5022548418"><ele>299.59</ele><time>2026-08-20T22:04:12Z</time></trkpt><trkpt lat="59.1039757524" lon="30.5022548418"><ele>299.59</ele><time>2026-08-20T22:04:13Z</time></trkpt><trkpt lat="59.1039757524" lon="30.5022548418"><ele>299.59</ele><time>2026-08-20T22:04:14Z</time></trkpt><trkpt lat="59.1039757524" lon="30.5022548418"><ele>299.59</ele><time>2026-08-20T22:04:15Z</time></trkpt><trkpt lat="59.1039757524" lon="30.5022548418"><ele>299.59</ele><time>2026-08-20T22:04:16Z</time></trkpt><trkpt lat="59.1039757524" lon="30.5022548418"><ele>299.59</ele><time>2026-08-20T22:04:17Z</time></trkpt><trkpt lat="59.1039757524" lon="30.5022548418"><ele>299.59</ele><time>2026-08-20T22:04:18Z</time></trkpt><trkpt lat="59.1039757524" lon="30.5022548418"><ele>299.11</ele><time>2026-08-20T22:04:19Z</time></trkpt><trkpt lat="59.1039757524" lon="30.5022548418"><ele>299.11</ele><time>2026-08-20T22:04:20Z</time></trkpt><trkpt lat="59.1039757524" lon="30.5022548418"><ele>299.11</ele><time>2026-08-20T22:04:21Z</time></trkpt><trkpt lat="59.1039757524" lon="30.5022548418"><ele>299.11</ele><time>2026-08-20T22:04:22Z</time></trkpt><trkpt lat="59.1039757524" lon="30.5022548418"><ele>299.11</ele><time>2026-08-20T22:04:23Z</time></trkpt><trkpt lat="59.1039757524" lon="30.5022548418"><ele>299.11</ele><time>2026-08-20T22:04:24Z</time></trkpt><trkpt lat="59.1039757524" lon="30.5022548418"><ele>299.11</ele><time>2026-08-20T22:04:25Z</time></trkpt><trkpt lat="59.1039757524" lon="30.5022548418"><ele>299.11</ele><time>2026-08-20T22:04:26Z</time></trkpt><trkpt lat="59.1039757524" lon="30.5022548418"><ele>299.11</ele><time>2026-08-20T22:04:27Z</time></trkpt><trkpt lat="59.1039757524" lon="30.5022548418"><ele>299.11</ele><time>2026-08-20T22:04:28Z</time></trkpt><trkpt lat="59.1039757524" lon="30.5022548418"><ele>299.11</ele><time>2026-08-20T22:04:29Z</time></trkpt><trkpt lat="59.1039757524" lon="30.5022548418"><ele>299.11</ele><time>2026-08-20T22:04:30Z</time></trkpt><trkpt lat="59.1039757524" lon="30.5022548418"><ele>299.11</ele><time>2026-08-20T22:04:31Z</time></trkpt><trkpt lat="59.1039757524" lon="30.5022548418"><ele>299.11</ele><time>2026-08-20T22:04:32Z</time></trkpt><trkpt lat="59.1039757524" lon="30.5022548418"><ele>299.11</ele><time>2026-08-20T22:04:33Z</time></trkpt><trkpt lat="59.1039757524" lon="30.5022548418"><ele>299.11</ele><time>2026-08-20T22:04:34Z</time></trkpt><trkpt lat="59.1039757524" lon="30.5022548418"><ele>299.11</ele><time>2026-08-20T22:04:35Z</time></trkpt><trkpt lat="59.1039757524" lon="30.5022548418"><ele>299.11</ele><time>2026-08-20T22:04:36Z</time></trkpt><trkpt lat="59.1039757524" lon="30.5022548418"><ele>299.11</ele><time>2026-08-20T22:04:37Z</time></trkpt><trkpt lat="59.1039757524" lon="30.5022548418"><ele>299.11</ele><time>2026-08-20T22:04:38Z</time></trkpt><trkpt lat="59.1039757524" lon="30.5022548418"><ele>299.11</ele><time>2026-08-20T22:04:39Z</time></trkpt><trkpt lat="59.1039757524" lon="30.5022548418"><ele>299.11</ele><time>2026-08-20T22:04:40Z</time></trkpt><trkpt lat="59.1039757524" lon="30.5022548418"><ele>299.11</ele><time>2026-08-20T22:04:41Z</time></trkpt><trkpt lat="59.1039757524" lon="30.5022548418"><ele>299.11</ele><time>2026-08-20T22:04:42Z</time></trkpt><trkpt lat="59.1039757524" lon="30.5022548418"><ele>299.11</ele><time>2026-08-20T22:04:43Z</time></trkpt><trkpt lat="59.1039757524" lon="30.5022548418"><ele>299.11</ele><time>2026-08-20T22:04:44Z</time></trkpt><trkpt lat="59.1039757524" lon="30.5022548418"><ele>299.11</ele><time>2026-08-20T22:04:45Z</time></trkpt><trkpt lat="59.1039749980" lon="30.5022481363"><ele>299.11</ele><time>2026-08-20T22:04:46Z</time></trkpt><trkpt lat="59.1039758362" lon="30.5022325460"><ele>299.11</ele><time>2026-08-20T22:04:47Z</time></trkpt><trkpt lat="59.1039783508" lon="30.5022177938"><ele>299.11</ele><time>2026-08-20T22:04:48Z</time></trkpt><trkpt lat="59.1039792728" lon="30.5022039637"><ele>299.11</ele><time>2026-08-20T22:04:49Z</time></trkpt><trkpt lat="59.1039792728" lon="30.5021922290"><ele>299.11</ele><time>2026-08-20T22:04:50Z</time></trkpt><trkpt lat="59.1039786860" lon="30.5021782313"><ele>299.11</ele><time>2026-08-20T22:04:51Z</time></trkpt><trkpt lat="59.1039768420" lon="30.5021620542"><ele>299.11</ele><time>2026-08-20T22:04:52Z</time></trkpt><trkpt lat="59.1039769258" lon="30.5021477211"><ele>299.11</ele><time>2026-08-20T22:04:53Z</time></trkpt><trkpt lat="59.1039735731" lon="30.5021333881"><ele>299.11</ele><time>2026-08-20T22:04:54Z</time></trkpt><trkpt lat="59.1039732378" lon="30.5021166243"><ele>299.59</ele><time>2026-08-20T22:04:55Z</time></trkpt><trkpt lat="59.1039715614" lon="30.5020981841"><ele>299.59</ele><time>2026-08-20T22:04:56Z</time></trkpt><trkpt lat="59.1039681248" lon="30.5020799953"><ele>299.59</ele><time>2026-08-20T22:04:57Z</time></trkpt><trkpt lat="59.1039682925" lon="30.5020613875"><ele>299.59</ele><time>2026-08-20T22:04:58Z</time></trkpt><trkpt lat="59.1039629281" lon="30.5020361580"><ele>299.59</ele><time>2026-08-20T22:04:59Z</time></trkpt><trkpt lat="59.1039600782" lon="30.5020133592"><ele>299.59</ele><time>2026-08-20T22:05:00Z</time></trkpt><trkpt lat="59.1039552167" lon="30.5019957572"><ele>299.11</ele><time>2026-08-20T22:05:01Z</time></trkpt><trkpt lat="59.1039529536" lon="30.5019783229"><ele>299.11</ele><time>2026-08-20T22:05:02Z</time></trkpt><trkpt lat="59.1039527860" lon="30.5019565299"><ele>299.11</ele><time>2026-08-20T22:05:03Z</time></trkpt><trkpt lat="59.1039528698" lon="30.5019346531"><ele>299.11</ele><time>2026-08-20T22:05:04Z</time></trkpt><trkpt lat="59.1039526183" lon="30.5019141175"><ele>299.11</ele><time>2026-08-20T22:05:05Z</time></trkpt><trkpt lat="59.1039528698" lon="30.5018978566"><ele>299.11</ele><time>2026-08-20T22:05:06Z</time></trkpt><trkpt lat="59.1039534565" lon="30.5018797517"><ele>299.11</ele><time>2026-08-20T22:05:07Z</time></trkpt><trkpt lat="59.1039559711" lon="30.5018587969"><ele>299.11</ele><time>2026-08-20T22:05:08Z</time></trkpt><trkpt lat="59.1039566416" lon="30.5018391833"><ele>299.11</ele><time>2026-08-20T22:05:09Z</time></trkpt><trkpt lat="59.1039584856" lon="30.5018239282"><ele>299.11</ele><time>2026-08-20T22:05:10Z</time></trkpt><trkpt lat="59.1039608326" lon="30.5018110201"><ele>299.11</ele><time>2026-08-20T22:05:11Z</time></trkpt><trkpt lat="59.1039610840" lon="30.5017955974"><ele>299.11</ele><time>2026-08-20T22:05:12Z</time></trkpt><trkpt lat="59.1039606649" lon="30.5017773248"><ele>299.11</ele><time>2026-08-20T22:05:13Z</time></trkpt><trkpt lat="59.1039643530" lon="30.5017570406"><ele>299.11</ele><time>2026-08-20T22:05:14Z</time></trkpt><trkpt lat="59.1039681248" lon="30.5017393548"><ele>299.11</ele><time>2026-08-20T22:05:15Z</time></trkpt><trkpt lat="59.1039712261" lon="30.5017241836"><ele>299.11</ele><time>2026-08-20T22:05:16Z</time></trkpt><trkpt lat="59.1039726511" lon="30.5017075874"><ele>299.11</ele><time>2026-08-20T22:05:17Z</time></trkpt><trkpt lat="59.1039717291" lon="30.5016903207"><ele>299.11</ele><time>2026-08-20T22:05:18Z</time></trkpt><trkpt lat="59.1039707232" lon="30.5016696174"><ele>299.11</ele><time>2026-08-20T22:05:19Z</time></trkpt><trkpt lat="59.1039721482" lon="30.5016508419"><ele>299.11</ele><time>2026-08-20T22:05:20Z</time></trkpt><trkpt lat="59.1039739922" lon="30.5016230978"><ele>299.11</ele><time>2026-08-20T22:05:21Z</time></trkpt><trkpt lat="59.1039714776" lon="30.5016063340"><ele>299.11</ele><time>2026-08-20T22:05:22Z</time></trkpt><trkpt lat="59.1039676219" lon="30.5015902407"><ele>299.11</ele><time>2026-08-20T22:05:23Z</time></trkpt><trkpt lat="59.1039661970" lon="30.5015765782"><ele>299.11</ele><time>2026-08-20T22:05:24Z</time></trkpt><trkpt lat="59.1039632633" lon="30.5015593953"><ele>299.11</ele><time>2026-08-20T22:05:25Z</time></trkpt><trkpt lat="59.1039569769" lon="30.5015424639"><ele>299.11</ele><time>2026-08-20T22:05:26Z</time></trkpt><trkpt lat="59.1039513610" lon="30.5015261192"><ele>299.11</ele><time>2026-08-20T22:05:27Z</time></trkpt><trkpt lat="59.1039515287" lon="30.5015091877"><ele>299.11</ele><time>2026-08-20T22:05:28Z</time></trkpt><trkpt lat="59.1039473377" lon="30.5014876463"><ele>299.11</ele><time>2026-08-20T22:05:29Z</time></trkpt><trkpt lat="59.1039450746" lon="30.5014670268"><ele>299.59</ele><time>2026-08-20T22:05:30Z</time></trkpt><trkpt lat="59.1039434820" lon="30.5014490895"><ele>299.59</ele><time>2026-08-20T22:05:31Z</time></trkpt><trkpt lat="59.1039429791" lon="30.5014287215"><ele>299.59</ele><time>2026-08-20T22:05:32Z</time></trkpt><trkpt lat="59.1039394587" lon="30.5013972893"><ele>299.59</ele><time>2026-08-20T22:05:33Z</time></trkpt><trkpt lat="59.1039384529" lon="30.5013755802"><ele>299.59</ele><time>2026-08-20T22:05:34Z</time></trkpt><trkpt lat="59.1039359383" lon="30.5013572238"><ele>299.59</ele><time>2026-08-20T22:05:35Z</time></trkpt><trkpt lat="59.1039350163" lon="30.5013401248"><ele>299.59</ele><time>2026-08-20T22:05:36Z</time></trkpt><trkpt lat="59.1039339267" lon="30.5013239477"><ele>299.59</ele><time>2026-08-20T22:05:37Z</time></trkpt><trkpt lat="59.1039326694" lon="30.5013089441"><ele>299.59</ele><time>2026-08-20T22:05:38Z</time></trkpt><trkpt lat="59.1039325856" lon="30.5012927670"><ele>299.59</ele><time>2026-08-20T22:05:39Z</time></trkpt><trkpt lat="59.1039321665" lon="30.5012769252"><ele>299.59</ele><time>2026-08-20T22:05:40Z</time></trkpt><trkpt lat="59.1039315797" lon="30.5012628436"><ele>299.59</ele><time>2026-08-20T22:05:41Z</time></trkpt><trkpt lat="59.1039322503" lon="30.5012503546"><ele>299.59</ele><time>2026-08-20T22:05:42Z</time></trkpt><trkpt lat="59.1039317474" lon="30.5012400448"><ele>299.59</ele><time>2026-08-20T22:05:43Z</time></trkpt><trkpt lat="59.1039285623" lon="30.5012250412"><ele>299.59</ele><time>2026-08-20T22:05:44Z</time></trkpt><trkpt lat="59.1039274726" lon="30.5012111273"><ele>299.59</ele><time>2026-08-20T22:05:45Z</time></trkpt><trkpt lat="59.1039258800" lon="30.5011963751"><ele>299.59</ele><time>2026-08-20T22:05:46Z</time></trkpt><trkpt lat="59.1039282270" lon="30.5011794437"><ele>299.59</ele><time>2026-08-20T22:05:47Z</time></trkpt><trkpt lat="59.1039252933" lon="30.5011581536"><ele>299.59</ele><time>2026-08-20T22:05:48Z</time></trkpt><trkpt lat="59.1039256286" lon="30.5011442397"><ele>299.59</ele><time>2026-08-20T22:05:49Z</time></trkpt><trkpt lat="59.1039244551" lon="30.5011244584"><ele>299.59</ele><time>2026-08-20T22:05:50Z</time></trkpt><trkpt lat="59.1039249580" lon="30.5011031684"><ele>299.11</ele><time>2026-08-20T22:05:51Z</time></trkpt><trkpt lat="59.1039270535" lon="30.5010878295"><ele>299.11</ele><time>2026-08-20T22:05:52Z</time></trkpt><trkpt lat="59.1039234493" lon="30.5010649469"><ele>299.11</ele><time>2026-08-20T22:05:53Z</time></trkpt><trkpt lat="59.1039230302" lon="30.5010488536"><ele>299.11</ele><time>2026-08-20T22:05:54Z</time></trkpt><trkpt lat="59.1039179172" lon="30.5010289885"><ele>299.11</ele><time>2026-08-20T22:05:55Z</time></trkpt><trkpt lat="59.1039149836" lon="30.5010109674"><ele>299.11</ele><time>2026-08-20T22:05:56Z</time></trkpt><trkpt lat="59.1039117984" lon="30.5009927787"><ele>299.11</ele><time>2026-08-20T22:05:57Z</time></trkpt><trkpt lat="59.1039106250" lon="30.5009821337"><ele>299.11</ele><time>2026-08-20T22:05:58Z</time></trkpt><trkpt lat="59.1039094515" lon="30.5009692255"><ele>299.59</ele><time>2026-08-20T22:05:59Z</time></trkpt><trkpt lat="59.1039103735" lon="30.5009560660"><ele>299.59</ele><time>2026-08-20T22:06:00Z</time></trkpt><trkpt lat="59.1039109603" lon="30.5009425711"><ele>299.11</ele><time>2026-08-20T22:06:01Z</time></trkpt><trkpt lat="59.1039098706" lon="30.5009280704"><ele>299.11</ele><time>2026-08-20T22:06:02Z</time></trkpt><trkpt lat="59.1039097868" lon="30.5009108875"><ele>299.11</ele><time>2026-08-20T22:06:03Z</time></trkpt><trkpt lat="59.1039027460" lon="30.5008943751"><ele>299.11</ele><time>2026-08-20T22:06:04Z</time></trkpt><trkpt lat="59.1039000638" lon="30.5008747615"><ele>299.11</ele><time>2026-08-20T22:06:05Z</time></trkpt><trkpt lat="59.1039002314" lon="30.5008580815"><ele>299.11</ele><time>2026-08-20T22:06:06Z</time></trkpt><trkpt lat="59.1039002314" lon="30.5008411501"><ele>299.11</ele><time>2026-08-20T22:06:07Z</time></trkpt><trkpt lat="59.1038962919" lon="30.5008181836"><ele>299.11</ele><time>2026-08-20T22:06:08Z</time></trkpt><trkpt lat="59.1038859822" lon="30.5007871706"><ele>299.11</ele><time>2026-08-20T22:06:09Z</time></trkpt><trkpt lat="59.1038843896" lon="30.5007713288"><ele>299.11</ele><time>2026-08-20T22:06:10Z</time></trkpt><trkpt lat="59.1038858984" lon="30.5007555708"><ele>299.11</ele><time>2026-08-20T22:06:11Z</time></trkpt><trkpt lat="59.1038893349" lon="30.5007337779"><ele>299.11</ele><time>2026-08-20T22:06:12Z</time></trkpt><trkpt lat="59.1038873233" lon="30.5006998312"><ele>299.11</ele><time>2026-08-20T22:06:13Z</time></trkpt><trkpt lat="59.1038878262" lon="30.5006747693"><ele>299.11</ele><time>2026-08-20T22:06:14Z</time></trkpt><trkpt lat="59.1038881615" lon="30.5006517190"><ele>299.11</ele><time>2026-08-20T22:06:15Z</time></trkpt><trkpt lat="59.1038882453" lon="30.5006355420"><ele>299.11</ele><time>2026-08-20T22:06:16Z</time></trkpt><trkpt lat="59.1038880777" lon="30.5006118212"><ele>299.11</ele><time>2026-08-20T22:06:17Z</time></trkpt><trkpt lat="59.1038883291" lon="30.5005885195"><ele>299.11</ele><time>2026-08-20T22:06:18Z</time></trkpt><trkpt lat="59.1038918495" lon="30.5005679838"><ele>299.59</ele><time>2026-08-20T22:06:19Z</time></trkpt><trkpt lat="59.1038918495" lon="30.5005473644"><ele>299.59</ele><time>2026-08-20T22:06:20Z</time></trkpt><trkpt lat="59.1038896702" lon="30.5005292594"><ele>299.59</ele><time>2026-08-20T22:06:21Z</time></trkpt><trkpt lat="59.1038850602" lon="30.5005072989"><ele>299.59</ele><time>2026-08-20T22:06:22Z</time></trkpt><trkpt lat="59.1038845573" lon="30.5004942231"><ele>299.59</ele><time>2026-08-20T22:06:23Z</time></trkpt><trkpt lat="59.1038799472" lon="30.5004721787"><ele>299.59</ele><time>2026-08-20T22:06:24Z</time></trkpt><trkpt lat="59.1038785223" lon="30.5004560854"><ele>299.59</ele><time>2026-08-20T22:06:25Z</time></trkpt><trkpt lat="59.1038753372" lon="30.5004425906"><ele>299.11</ele><time>2026-08-20T22:06:26Z</time></trkpt><trkpt lat="59.1038735770" lon="30.5004192889"><ele>299.11</ele><time>2026-08-20T22:06:27Z</time></trkpt><trkpt lat="59.1038693860" lon="30.5003934726"><ele>299.11</ele><time>2026-08-20T22:06:28Z</time></trkpt><trkpt lat="59.1038669553" lon="30.5003654771"><ele>299.11</ele><time>2026-08-20T22:06:29Z</time></trkpt><trkpt lat="59.1038639378" lon="30.5003384873"><ele>299.11</ele><time>2026-08-20T22:06:30Z</time></trkpt><trkpt lat="59.1038657818" lon="30.5003183708"><ele>299.11</ele><time>2026-08-20T22:06:31Z</time></trkpt><trkpt lat="59.1038644407" lon="30.5002963264"><ele>299.11</ele><time>2026-08-20T22:06:32Z</time></trkpt><trkpt lat="59.1038629320" lon="30.5002759583"><ele>299.11</ele><time>2026-08-20T22:06:33Z</time></trkpt><trkpt lat="59.1038624290" lon="30.5002566800"><ele>299.11</ele><time>2026-08-20T22:06:34Z</time></trkpt><trkpt lat="59.1038611718" lon="30.5002378207"><ele>299.11</ele><time>2026-08-20T22:06:35Z</time></trkpt><trkpt lat="59.1038611718" lon="30.5002195481"><ele>299.11</ele><time>2026-08-20T22:06:36Z</time></trkpt><trkpt lat="59.1038607527" lon="30.5002039578"><ele>299.11</ele><time>2026-08-20T22:06:37Z</time></trkpt><trkpt lat="59.1038672905" lon="30.5001983419"><ele>299.11</ele><time>2026-08-20T22:06:38Z</time></trkpt><trkpt lat="59.1038679611" lon="30.5001924746"><ele>299.11</ele><time>2026-08-20T22:06:39Z</time></trkpt><trkpt lat="59.1038704757" lon="30.5001916364"><ele>299.59</ele><time>2026-08-20T22:06:40Z</time></trkpt><trkpt lat="59.1038727388" lon="30.5001874454"><ele>299.59</ele><time>2026-08-20T22:06:41Z</time></trkpt><trkpt lat="59.1038727388" lon="30.5001874454"><ele>299.59</ele><time>2026-08-20T22:06:42Z</time></trkpt><trkpt lat="59.1038727388" lon="30.5001874454"><ele>299.59</ele><time>2026-08-20T22:06:43Z</time></trkpt><trkpt lat="59.1038727388" lon="30.5001874454"><ele>299.59</ele><time>2026-08-20T22:06:44Z</time></trkpt><trkpt lat="59.1038652789" lon="30.5001545884"><ele>299.11</ele><time>2026-08-20T22:06:45Z</time></trkpt><trkpt lat="59.1038598306" lon="30.5001412611"><ele>299.11</ele><time>2026-08-20T22:06:46Z</time></trkpt><trkpt lat="59.1038563941" lon="30.5001265928"><ele>299.11</ele><time>2026-08-20T22:06:47Z</time></trkpt><trkpt lat="59.1038545500" lon="30.5001110863"><ele>299.11</ele><time>2026-08-20T22:06:48Z</time></trkpt><trkpt lat="59.1038518678" lon="30.5000929814"><ele>299.11</ele><time>2026-08-20T22:06:49Z</time></trkpt><trkpt lat="59.1038503591" lon="30.5000731163"><ele>299.11</ele><time>2026-08-20T22:06:50Z</time></trkpt><trkpt lat="59.1038482636" lon="30.5000564363"><ele>299.11</ele><time>2026-08-20T22:06:51Z</time></trkpt><trkpt lat="59.1038468387" lon="30.5000408459"><ele>299.11</ele><time>2026-08-20T22:06:52Z</time></trkpt><trkpt lat="59.1038467549" lon="30.5000194721"><ele>299.11</ele><time>2026-08-20T22:06:53Z</time></trkpt><trkpt lat="59.1038498562" lon="30.5000027921"><ele>299.11</ele><time>2026-08-20T22:06:54Z</time></trkpt><trkpt lat="59.1038527898" lon="30.4999829270"><ele>299.11</ele><time>2026-08-20T22:06:55Z</time></trkpt><trkpt lat="59.1038555559" lon="30.4999670852"><ele>299.11</ele><time>2026-08-20T22:06:56Z</time></trkpt><trkpt lat="59.1038531251" lon="30.4999482259"><ele>299.11</ele><time>2026-08-20T22:06:57Z</time></trkpt><trkpt lat="59.1038522869" lon="30.4999302886"><ele>299.11</ele><time>2026-08-20T22:06:58Z</time></trkpt><trkpt lat="59.1038493533" lon="30.4999076575"><ele>299.11</ele><time>2026-08-20T22:06:59Z</time></trkpt><trkpt lat="59.1038476769" lon="30.4998852778"><ele>299.11</ele><time>2026-08-20T22:07:00Z</time></trkpt><trkpt lat="59.1038477607" lon="30.4998618923"><ele>299.11</ele><time>2026-08-20T22:07:01Z</time></trkpt><trkpt lat="59.1038457491" lon="30.4998407699"><ele>299.11</ele><time>2026-08-20T22:07:02Z</time></trkpt><trkpt lat="59.1038462520" lon="30.4998257663"><ele>299.11</ele><time>2026-08-20T22:07:03Z</time></trkpt><trkpt lat="59.1038452461" lon="30.4998059850"><ele>299.11</ele><time>2026-08-20T22:07:04Z</time></trkpt><trkpt lat="59.1038439889" lon="30.4997902270"><ele>299.11</ele><time>2026-08-20T22:07:05Z</time></trkpt><trkpt lat="59.1038384568" lon="30.4997722898"><ele>299.11</ele><time>2026-08-20T22:07:06Z</time></trkpt><trkpt lat="59.1038362775" lon="30.4997554421"><ele>299.11</ele><time>2026-08-20T22:07:07Z</time></trkpt><trkpt lat="59.1038318351" lon="30.4997298773"><ele>299.11</ele><time>2026-08-20T22:07:08Z</time></trkpt><trkpt lat="59.1038279794" lon="30.4997047316"><ele>299.11</ele><time>2026-08-20T22:07:09Z</time></trkpt><trkpt lat="59.1038267221" lon="30.4996862914"><ele>299.11</ele><time>2026-08-20T22:07:10Z</time></trkpt><trkpt lat="59.1038258839" lon="30.4996666778"><ele>299.11</ele><time>2026-08-20T22:07:11Z</time></trkpt><trkpt lat="59.1038258839" lon="30.4996503331"><ele>299.11</ele><time>2026-08-20T22:07:12Z</time></trkpt><trkpt lat="59.1038246267" lon="30.4996354971"><ele>299.11</ele><time>2026-08-20T22:07:13Z</time></trkpt><trkpt lat="59.1038234532" lon="30.4996184818"><ele>299.11</ele><time>2026-08-20T22:07:14Z</time></trkpt><trkpt lat="59.1038212739" lon="30.4996042326"><ele>299.11</ele><time>2026-08-20T22:07:15Z</time></trkpt><trkpt lat="59.1038191784" lon="30.4995883908"><ele>299.11</ele><time>2026-08-20T22:07:16Z</time></trkpt><trkpt lat="59.1038164962" lon="30.4995713755"><ele>299.11</ele><time>2026-08-20T22:07:17Z</time></trkpt><trkpt lat="59.1038131434" lon="30.4995550308"><ele>299.11</ele><time>2026-08-20T22:07:18Z</time></trkpt><trkpt lat="59.1038109642" lon="30.4995340761"><ele>299.11</ele><time>2026-08-20T22:07:19Z</time></trkpt><trkpt lat="59.1038107965" lon="30.4995200783"><ele>299.11</ele><time>2026-08-20T22:07:20Z</time></trkpt><trkpt lat="59.1038094554" lon="30.4995005485"><ele>299.11</ele><time>2026-08-20T22:07:21Z</time></trkpt><trkpt lat="59.1038073599" lon="30.4994798452"><ele>299.11</ele><time>2026-08-20T22:07:22Z</time></trkpt><trkpt lat="59.1038096230" lon="30.4994603992"><ele>299.11</ele><time>2026-08-20T22:07:23Z</time></trkpt><trkpt lat="59.1038083658" lon="30.4994399473"><ele>299.11</ele><time>2026-08-20T22:07:24Z</time></trkpt><trkpt lat="59.1038086172" lon="30.4994228482"><ele>299.11</ele><time>2026-08-20T22:07:25Z</time></trkpt><trkpt lat="59.1038071923" lon="30.4993979540"><ele>299.11</ele><time>2026-08-20T22:07:26Z</time></trkpt><trkpt lat="59.1038073599" lon="30.4993778374"><ele>299.11</ele><time>2026-08-20T22:07:27Z</time></trkpt><trkpt lat="59.1038072761" lon="30.4993638396"><ele>299.11</ele><time>2026-08-20T22:07:28Z</time></trkpt><trkpt lat="59.1038090363" lon="30.4993466567"><ele>299.11</ele><time>2026-08-20T22:07:29Z</time></trkpt><trkpt lat="59.1038114671" lon="30.4993265402"><ele>299.11</ele><time>2026-08-20T22:07:30Z</time></trkpt><trkpt lat="59.1038131434" lon="30.4993089382"><ele>299.11</ele><time>2026-08-20T22:07:31Z</time></trkpt><trkpt lat="59.1038093716" lon="30.4992996342"><ele>299.11</ele><time>2026-08-20T22:07:32Z</time></trkpt><trkpt lat="59.1038082819" lon="30.4992897436"><ele>299.11</ele><time>2026-08-20T22:07:33Z</time></trkpt><trkpt lat="59.1038059350" lon="30.4992803559"><ele>299.11</ele><time>2026-08-20T22:07:34Z</time></trkpt><trkpt lat="59.1038056836" lon="30.4992717225"><ele>299.11</ele><time>2026-08-20T22:07:35Z</time></trkpt><trkpt lat="59.1038029175" lon="30.4992591497"><ele>299.11</ele><time>2026-08-20T22:07:36Z</time></trkpt><trkpt lat="59.1038001515" lon="30.4992468283"><ele>299.11</ele><time>2026-08-20T22:07:37Z</time></trkpt><trkpt lat="59.1037993971" lon="30.4992385302"><ele>299.11</ele><time>2026-08-20T22:07:38Z</time></trkpt><trkpt lat="59.1037972178" lon="30.4992236942"><ele>299.11</ele><time>2026-08-20T22:07:39Z</time></trkpt><trkpt lat="59.1037970502" lon="30.4992082715"><ele>299.11</ele><time>2026-08-20T22:07:40Z</time></trkpt><trkpt lat="59.1037970502" lon="30.4992082715"><ele>299.11</ele><time>2026-08-20T22:07:41Z</time></trkpt><trkpt lat="59.1037970502" lon="30.4992082715"><ele>299.11</ele><time>2026-08-20T22:07:42Z</time></trkpt><trkpt lat="59.1037970502" lon="30.4992082715"><ele>299.11</ele><time>2026-08-20T22:07:43Z</time></trkpt><trkpt lat="59.1037970502" lon="30.4992082715"><ele>299.11</ele><time>2026-08-20T22:07:44Z</time></trkpt><trkpt lat="59.1037970502" lon="30.4992082715"><ele>299.11</ele><time>2026-08-20T22:07:45Z</time></trkpt><trkpt lat="59.1037970502" lon="30.4992082715"><ele>299.11</ele><time>2026-08-20T22:07:46Z</time></trkpt><trkpt lat="59.1037970502" lon="30.4992082715"><ele>299.11</ele><time>2026-08-20T22:07:47Z</time></trkpt><trkpt lat="59.1037970502" lon="30.4992082715"><ele>299.11</ele><time>2026-08-20T22:07:48Z</time></trkpt><trkpt lat="59.1037970502" lon="30.4992082715"><ele>299.11</ele><time>2026-08-20T22:07:49Z</time></trkpt><trkpt lat="59.1037970502" lon="30.4992082715"><ele>299.11</ele><time>2026-08-20T22:07:50Z</time></trkpt><trkpt lat="59.1037970502" lon="30.4992082715"><ele>299.11</ele><time>2026-08-20T22:07:51Z</time></trkpt><trkpt lat="59.1037970502" lon="30.4992082715"><ele>299.11</ele><time>2026-08-20T22:07:52Z</time></trkpt><trkpt lat="59.1037970502" lon="30.4992082715"><ele>299.11</ele><time>2026-08-20T22:07:53Z</time></trkpt><trkpt lat="59.1037970502" lon="30.4992082715"><ele>299.11</ele><time>2026-08-20T22:07:54Z</time></trkpt><trkpt lat="59.1037970502" lon="30.4992082715"><ele>299.11</ele><time>2026-08-20T22:07:55Z</time></trkpt><trkpt lat="59.1037970502" lon="30.4992082715"><ele>299.11</ele><time>2026-08-20T22:07:56Z</time></trkpt><trkpt lat="59.1037970502" lon="30.4992082715"><ele>299.11</ele><time>2026-08-20T22:07:57Z</time></trkpt><trkpt lat="59.1037970502" lon="30.4992082715"><ele>299.11</ele><time>2026-08-20T22:07:58Z</time></trkpt><trkpt lat="59.1037970502" lon="30.4992082715"><ele>299.11</ele><time>2026-08-20T22:07:59Z</time></trkpt><trkpt lat="59.1037970502" lon="30.4992082715"><ele>299.11</ele><time>2026-08-20T22:08:00Z</time></trkpt><trkpt lat="59.1037970502" lon="30.4992082715"><ele>299.11</ele><time>2026-08-20T22:08:01Z</time></trkpt><trkpt lat="59.1037970502" lon="30.4992082715"><ele>299.11</ele><time>2026-08-20T22:08:02Z</time></trkpt><trkpt lat="59.1037970502" lon="30.4992082715"><ele>299.11</ele><time>2026-08-20T22:08:03Z</time></trkpt><trkpt lat="59.1037970502" lon="30.4992082715"><ele>299.11</ele><time>2026-08-20T22:08:04Z</time></trkpt><trkpt lat="59.1037970502" lon="30.4992082715"><ele>299.11</ele><time>2026-08-20T22:08:05Z</time></trkpt><trkpt lat="59.1037970502" lon="30.4992082715"><ele>299.11</ele><time>2026-08-20T22:08:06Z</time></trkpt><trkpt lat="59.1037970502" lon="30.4992082715"><ele>299.11</ele><time>2026-08-20T22:08:07Z</time></trkpt><trkpt lat="59.1037970502" lon="30.4992082715"><ele>299.11</ele><time>2026-08-20T22:08:08Z</time></trkpt><trkpt lat="59.1037970502" lon="30.4992082715"><ele>299.11</ele><time>2026-08-20T22:08:09Z</time></trkpt><trkpt lat="59.1037970502" lon="30.4992082715"><ele>299.11</ele><time>2026-08-20T22:08:10Z</time></trkpt><trkpt lat="59.1037970502" lon="30.4992082715"><ele>299.11</ele><time>2026-08-20T22:08:11Z</time></trkpt><trkpt lat="59.1037970502" lon="30.4992082715"><ele>299.11</ele><time>2026-08-20T22:08:12Z</time></trkpt><trkpt lat="59.1037970502" lon="30.4992082715"><ele>299.11</ele><time>2026-08-20T22:08:13Z</time></trkpt><trkpt lat="59.1037970502" lon="30.4992082715"><ele>299.11</ele><time>2026-08-20T22:08:14Z</time></trkpt><trkpt lat="59.1037970502" lon="30.4992082715"><ele>299.11</ele><time>2026-08-20T22:08:15Z</time></trkpt><trkpt lat="59.1037970502" lon="30.4992082715"><ele>299.11</ele><time>2026-08-20T22:08:16Z</time></trkpt><trkpt lat="59.1037970502" lon="30.4992082715"><ele>299.11</ele><time>2026-08-20T22:08:17Z</time></trkpt><trkpt lat="59.1037970502" lon="30.4992082715"><ele>299.11</ele><time>2026-08-20T22:08:18Z</time></trkpt><trkpt lat="59.1037970502" lon="30.4992082715"><ele>299.11</ele><time>2026-08-20T22:08:19Z</time></trkpt><trkpt lat="59.1037970502" lon="30.4992082715"><ele>299.11</ele><time>2026-08-20T22:08:20Z</time></trkpt><trkpt lat="59.1037970502" lon="30.4992082715"><ele>299.11</ele><time>2026-08-20T22:08:21Z</time></trkpt><trkpt lat="59.1037970502" lon="30.4992082715"><ele>299.11</ele><time>2026-08-20T22:08:22Z</time></trkpt><trkpt lat="59.1037970502" lon="30.4992082715"><ele>299.11</ele><time>2026-08-20T22:08:23Z</time></trkpt><trkpt lat="59.1037970502" lon="30.4992082715"><ele>299.11</ele><time>2026-08-20T22:08:24Z</time></trkpt><trkpt lat="59.1037970502" lon="30.4992082715"><ele>299.11</ele><time>2026-08-20T22:08:25Z</time></trkpt><trkpt lat="59.1037970502" lon="30.4992082715"><ele>299.11</ele><time>2026-08-20T22:08:26Z</time></trkpt><trkpt lat="59.1037970502" lon="30.4992082715"><ele>299.11</ele><time>2026-08-20T22:08:27Z</time></trkpt><trkpt lat="59.1037970502" lon="30.4992082715"><ele>299.11</ele><time>2026-08-20T22:08:28Z</time></trkpt><trkpt lat="59.1037970502" lon="30.4992082715"><ele>299.11</ele><time>2026-08-20T22:08:29Z</time></trkpt><trkpt lat="59.1037970502" lon="30.4992082715"><ele>299.11</ele><time>2026-08-20T22:08:30Z</time></trkpt><trkpt lat="59.1037970502" lon="30.4992082715"><ele>299.11</ele><time>2026-08-20T22:08:31Z</time></trkpt><trkpt lat="59.1037970502" lon="30.4992082715"><ele>299.11</ele><time>2026-08-20T22:08:32Z</time></trkpt><trkpt lat="59.1037970502" lon="30.4992082715"><ele>299.11</ele><time>2026-08-20T22:08:33Z</time></trkpt><trkpt lat="59.1037970502" lon="30.4992082715"><ele>299.11</ele><time>2026-08-20T22:08:34Z</time></trkpt><trkpt lat="59.1037970502" lon="30.4992082715"><ele>299.11</ele><time>2026-08-20T22:08:35Z</time></trkpt><trkpt lat="59.1037970502" lon="30.4992082715"><ele>299.11</ele><time>2026-08-20T22:08:36Z</time></trkpt><trkpt lat="59.1037970502" lon="30.4992082715"><ele>299.11</ele><time>2026-08-20T22:08:37Z</time></trkpt><trkpt lat="59.1037970502" lon="30.4992082715"><ele>299.11</ele><time>2026-08-20T22:08:38Z</time></trkpt><trkpt lat="59.1037970502" lon="30.4992082715"><ele>299.11</ele><time>2026-08-20T22:08:39Z</time></trkpt><trkpt lat="59.1037970502" lon="30.4992082715"><ele>299.11</ele><time>2026-08-20T22:08:40Z</time></trkpt><trkpt lat="59.1037970502" lon="30.4992082715"><ele>299.11</ele><time>2026-08-20T22:08:41Z</time></trkpt><trkpt lat="59.1037970502" lon="30.4992082715"><ele>299.11</ele><time>2026-08-20T22:08:42Z</time></trkpt><trkpt lat="59.1037970502" lon="30.4992082715"><ele>299.11</ele><time>2026-08-20T22:08:43Z</time></trkpt><trkpt lat="59.1037970502" lon="30.4992082715"><ele>299.11</ele><time>2026-08-20T22:08:44Z</time></trkpt><trkpt lat="59.1037970502" lon="30.4992082715"><ele>299.11</ele><time>2026-08-20T22:08:45Z</time></trkpt><trkpt lat="59.1037970502" lon="30.4992082715"><ele>299.11</ele><time>2026-08-20T22:08:46Z</time></trkpt><trkpt lat="59.1037970502" lon="30.4992082715"><ele>299.11</ele><time>2026-08-20T22:08:47Z</time></trkpt><trkpt lat="59.1037970502" lon="30.4992082715"><ele>299.11</ele><time>2026-08-20T22:08:48Z</time></trkpt><trkpt lat="59.1037970502" lon="30.4992082715"><ele>299.11</ele><time>2026-08-20T22:08:49Z</time></trkpt><trkpt lat="59.1037970502" lon="30.4992082715"><ele>299.11</ele><time>2026-08-20T22:08:50Z</time></trkpt><trkpt lat="59.1037970502" lon="30.4992082715"><ele>299.11</ele><time>2026-08-20T22:08:51Z</time></trkpt><trkpt lat="59.1037970502" lon="30.4992082715"><ele>299.11</ele><time>2026-08-20T22:08:52Z</time></trkpt><trkpt lat="59.1037970502" lon="30.4992082715"><ele>299.11</ele><time>2026-08-20T22:08:53Z</time></trkpt><trkpt lat="59.1037970502" lon="30.4992082715"><ele>299.11</ele><time>2026-08-20T22:08:54Z</time></trkpt><trkpt lat="59.1037970502" lon="30.4992082715"><ele>299.11</ele><time>2026-08-20T22:08:55Z</time></trkpt><trkpt lat="59.1037970502" lon="30.4992082715"><ele>299.11</ele><time>2026-08-20T22:08:56Z</time></trkpt><trkpt lat="59.1037970502" lon="30.4992082715"><ele>299.11</ele><time>2026-08-20T22:08:57Z</time></trkpt><trkpt lat="59.1037970502" lon="30.4992082715"><ele>299.11</ele><time>2026-08-20T22:08:58Z</time></trkpt><trkpt lat="59.1037970502" lon="30.4992082715"><ele>299.11</ele><time>2026-08-20T22:08:59Z</time></trkpt><trkpt lat="59.1037970502" lon="30.4992082715"><ele>299.11</ele><time>2026-08-20T22:09:00Z</time></trkpt><trkpt lat="59.1037970502" lon="30.4992082715"><ele>299.11</ele><time>2026-08-20T22:09:01Z</time></trkpt><trkpt lat="59.1037970502" lon="30.4992082715"><ele>299.11</ele><time>2026-08-20T22:09:02Z</time></trkpt><trkpt lat="59.1037970502" lon="30.4992082715"><ele>299.11</ele><time>2026-08-20T22:09:03Z</time></trkpt><trkpt lat="59.1037970502" lon="30.4992082715"><ele>299.11</ele><time>2026-08-20T22:09:04Z</time></trkpt><trkpt lat="59.1037970502" lon="30.4992082715"><ele>299.11</ele><time>2026-08-20T22:09:05Z</time></trkpt><trkpt lat="59.1037970502" lon="30.4992082715"><ele>299.11</ele><time>2026-08-20T22:09:06Z</time></trkpt><trkpt lat="59.1037970502" lon="30.4992082715"><ele>299.11</ele><time>2026-08-20T22:09:07Z</time></trkpt><trkpt lat="59.1037970502" lon="30.4992082715"><ele>299.11</ele><time>2026-08-20T22:09:08Z</time></trkpt><trkpt lat="59.1037970502" lon="30.4992082715"><ele>299.11</ele><time>2026-08-20T22:09:09Z</time></trkpt><trkpt lat="59.1037970502" lon="30.4992082715"><ele>299.11</ele><time>2026-08-20T22:09:10Z</time></trkpt><trkpt lat="59.1037970502" lon="30.4992082715"><ele>299.11</ele><time>2026-08-20T22:09:11Z</time></trkpt><trkpt lat="59.1037970502" lon="30.4992082715"><ele>299.11</ele><time>2026-08-20T22:09:12Z</time></trkpt><trkpt lat="59.1037970502" lon="30.4992082715"><ele>299.11</ele><time>2026-08-20T22:09:13Z</time></trkpt><trkpt lat="59.1037970502" lon="30.4992082715"><ele>299.11</ele><time>2026-08-20T22:09:14Z</time></trkpt><trkpt lat="59.1037970502" lon="30.4992082715"><ele>299.11</ele><time>2026-08-20T22:09:15Z</time></trkpt><trkpt lat="59.1037970502" lon="30.4992082715"><ele>299.11</ele><time>2026-08-20T22:09:16Z</time></trkpt><trkpt lat="59.1037970502" lon="30.4992082715"><ele>299.11</ele><time>2026-08-20T22:09:17Z</time></trkpt><trkpt lat="59.1037970502" lon="30.4992082715"><ele>299.11</ele><time>2026-08-20T22:09:18Z</time></trkpt><trkpt lat="59.1037970502" lon="30.4992082715"><ele>299.11</ele><time>2026-08-20T22:09:19Z</time></trkpt><trkpt lat="59.1037970502" lon="30.4992082715"><ele>299.11</ele><time>2026-08-20T22:09:20Z</time></trkpt><trkpt lat="59.1037970502" lon="30.4992082715"><ele>299.11</ele><time>2026-08-20T22:09:21Z</time></trkpt><trkpt lat="59.1037970502" lon="30.4992082715"><ele>299.11</ele><time>2026-08-20T22:09:22Z</time></trkpt><trkpt lat="59.1037970502" lon="30.4992082715"><ele>299.11</ele><time>2026-08-20T22:09:23Z</time></trkpt><trkpt lat="59.1037970502" lon="30.4992082715"><ele>299.11</ele><time>2026-08-20T22:09:24Z</time></trkpt><trkpt lat="59.1037970502" lon="30.4992082715"><ele>299.11</ele><time>2026-08-20T22:09:25Z</time></trkpt><trkpt lat="59.1037970502" lon="30.4992082715"><ele>299.11</ele><time>2026-08-20T22:09:26Z</time></trkpt><trkpt lat="59.1037970502" lon="30.4992082715"><ele>299.11</ele><time>2026-08-20T22:09:27Z</time></trkpt><trkpt lat="59.1037970502" lon="30.4992082715"><ele>299.11</ele><time>2026-08-20T22:09:28Z</time></trkpt><trkpt lat="59.1037970502" lon="30.4992082715"><ele>299.11</ele><time>2026-08-20T22:09:29Z</time></trkpt><trkpt lat="59.1037970502" lon="30.4992082715"><ele>299.11</ele><time>2026-08-20T22:09:30Z</time></trkpt><trkpt lat="59.1037970502" lon="30.4992082715"><ele>299.11</ele><time>2026-08-20T22:09:31Z</time></trkpt><trkpt lat="59.1037970502" lon="30.4992082715"><ele>299.11</ele><time>2026-08-20T22:09:32Z</time></trkpt><trkpt lat="59.1037970502" lon="30.4992082715"><ele>299.11</ele><time>2026-08-20T22:09:33Z</time></trkpt><trkpt lat="59.1037970502" lon="30.4992082715"><ele>299.11</ele><time>2026-08-20T22:09:34Z</time></trkpt><trkpt lat="59.1037970502" lon="30.4992082715"><ele>299.11</ele><time>2026-08-20T22:09:35Z</time></trkpt><trkpt lat="59.1037970502" lon="30.4992082715"><ele>299.11</ele><time>2026-08-20T22:09:36Z</time></trkpt><trkpt lat="59.1037970502" lon="30.4992082715"><ele>299.11</ele><time>2026-08-20T22:09:37Z</time></trkpt><trkpt lat="59.1037970502" lon="30.4992082715"><ele>299.11</ele><time>2026-08-20T22:09:38Z</time></trkpt><trkpt lat="59.1037970502" lon="30.4992082715"><ele>299.11</ele><time>2026-08-20T22:09:39Z</time></trkpt><trkpt lat="59.1037970502" lon="30.4992082715"><ele>299.11</ele><time>2026-08-20T22:09:40Z</time></trkpt><trkpt lat="59.1037970502" lon="30.4992082715"><ele>299.11</ele><time>2026-08-20T22:09:41Z</time></trkpt><trkpt lat="59.1037970502" lon="30.4992082715"><ele>299.11</ele><time>2026-08-20T22:09:42Z</time></trkpt><trkpt lat="59.1037970502" lon="30.4992082715"><ele>299.11</ele><time>2026-08-20T22:09:43Z</time></trkpt><trkpt lat="59.1037970502" lon="30.4992082715"><ele>299.11</ele><time>2026-08-20T22:09:44Z</time></trkpt><trkpt lat="59.1037970502" lon="30.4992082715"><ele>299.11</ele><time>2026-08-20T22:09:45Z</time></trkpt><trkpt lat="59.1037970502" lon="30.4992082715"><ele>299.11</ele><time>2026-08-20T22:09:46Z</time></trkpt><trkpt lat="59.1037970502" lon="30.4992082715"><ele>299.11</ele><time>2026-08-20T22:09:47Z</time></trkpt><trkpt lat="59.1037970502" lon="30.4992082715"><ele>299.11</ele><time>2026-08-20T22:09:48Z</time></trkpt><trkpt lat="59.1037970502" lon="30.4992082715"><ele>299.11</ele><time>2026-08-20T22:09:49Z</time></trkpt><trkpt lat="59.1037970502" lon="30.4992082715"><ele>299.11</ele><time>2026-08-20T22:09:50Z</time></trkpt><trkpt lat="59.1037970502" lon="30.4992082715"><ele>299.11</ele><time>2026-08-20T22:09:51Z</time></trkpt><trkpt lat="59.1037970502" lon="30.4992082715"><ele>299.11</ele><time>2026-08-20T22:09:52Z</time></trkpt><trkpt lat="59.1037970502" lon="30.4992082715"><ele>299.11</ele><time>2026-08-20T22:09:53Z</time></trkpt><trkpt lat="59.1037970502" lon="30.4992082715"><ele>299.11</ele><time>2026-08-20T22:09:54Z</time></trkpt><trkpt lat="59.1037970502" lon="30.4992082715"><ele>299.11</ele><time>2026-08-20T22:09:55Z</time></trkpt><trkpt lat="59.1037970502" lon="30.4992082715"><ele>299.11</ele><time>2026-08-20T22:09:56Z</time></trkpt><trkpt lat="59.1037970502" lon="30.4992082715"><ele>299.11</ele><time>2026-08-20T22:09:57Z</time></trkpt><trkpt lat="59.1037970502" lon="30.4992082715"><ele>299.11</ele><time>2026-08-20T22:09:58Z</time></trkpt><trkpt lat="59.1037970502" lon="30.4992082715"><ele>299.11</ele><time>2026-08-20T22:09:59Z</time></trkpt><trkpt lat="59.1037970502" lon="30.4992082715"><ele>299.11</ele><time>2026-08-20T22:10:00Z</time></trkpt><trkpt lat="59.1037970502" lon="30.4992082715"><ele>299.11</ele><time>2026-08-20T22:10:01Z</time></trkpt><trkpt lat="59.1037970502" lon="30.4992082715"><ele>299.11</ele><time>2026-08-20T22:10:02Z</time></trkpt><trkpt lat="59.1037970502" lon="30.4992082715"><ele>299.11</ele><time>2026-08-20T22:10:03Z</time></trkpt><trkpt lat="59.1037970502" lon="30.4992082715"><ele>299.11</ele><time>2026-08-20T22:10:04Z</time></trkpt><trkpt lat="59.1037970502" lon="30.4992082715"><ele>299.11</ele><time>2026-08-20T22:10:05Z</time></trkpt><trkpt lat="59.1037970502" lon="30.4992082715"><ele>299.11</ele><time>2026-08-20T22:10:06Z</time></trkpt><trkpt lat="59.1037970502" lon="30.4992082715"><ele>299.11</ele><time>2026-08-20T22:10:07Z</time></trkpt><trkpt lat="59.1037970502" lon="30.4992082715"><ele>299.11</ele><time>2026-08-20T22:10:08Z</time></trkpt><trkpt lat="59.1037970502" lon="30.4992082715"><ele>299.11</ele><time>2026-08-20T22:10:09Z</time></trkpt><trkpt lat="59.1037970502" lon="30.4992082715"><ele>299.11</ele><time>2026-08-20T22:10:10Z</time></trkpt><trkpt lat="59.1038673744" lon="30.4990977980"><ele>299.11</ele><time>2026-08-20T22:10:11Z</time></trkpt><trkpt lat="59.1038660333" lon="30.4990969598"><ele>299.11</ele><time>2026-08-20T22:10:12Z</time></trkpt><trkpt lat="59.1038676258" lon="30.4990987200"><ele>299.11</ele><time>2026-08-20T22:10:13Z</time></trkpt><trkpt lat="59.1038670391" lon="30.4990985524"><ele>299.11</ele><time>2026-08-20T22:10:14Z</time></trkpt><trkpt lat="59.1038670391" lon="30.4990985524"><ele>299.11</ele><time>2026-08-20T22:10:15Z</time></trkpt><trkpt lat="59.1038670391" lon="30.4990985524"><ele>299.11</ele><time>2026-08-20T22:10:16Z</time></trkpt><trkpt lat="59.1038670391" lon="30.4990985524"><ele>299.11</ele><time>2026-08-20T22:10:17Z</time></trkpt><trkpt lat="59.1038670391" lon="30.4990985524"><ele>299.11</ele><time>2026-08-20T22:10:18Z</time></trkpt><trkpt lat="59.1038670391" lon="30.4990985524"><ele>299.11</ele><time>2026-08-20T22:10:19Z</time></trkpt><trkpt lat="59.1038670391" lon="30.4990985524"><ele>299.11</ele><time>2026-08-20T22:10:20Z</time></trkpt><trkpt lat="59.1038670391" lon="30.4990985524"><ele>299.11</ele><time>2026-08-20T22:10:21Z</time></trkpt><trkpt lat="59.1038670391" lon="30.4990985524"><ele>299.11</ele><time>2026-08-20T22:10:22Z</time></trkpt><trkpt lat="59.1038670391" lon="30.4990985524"><ele>299.11</ele><time>2026-08-20T22:10:23Z</time></trkpt><trkpt lat="59.1038670391" lon="30.4990985524"><ele>299.11</ele><time>2026-08-20T22:10:24Z</time></trkpt><trkpt lat="59.1038670391" lon="30.4990985524"><ele>299.11</ele><time>2026-08-20T22:10:25Z</time></trkpt><trkpt lat="59.1038670391" lon="30.4990985524"><ele>299.11</ele><time>2026-08-20T22:10:26Z</time></trkpt><trkpt lat="59.1038670391" lon="30.4990985524"><ele>299.11</ele><time>2026-08-20T22:10:27Z</time></trkpt><trkpt lat="59.1038670391" lon="30.4990985524"><ele>299.11</ele><time>2026-08-20T22:10:28Z</time></trkpt><trkpt lat="59.1038670391" lon="30.4990985524"><ele>299.11</ele><time>2026-08-20T22:10:29Z</time></trkpt><trkpt lat="59.1038670391" lon="30.4990985524"><ele>299.11</ele><time>2026-08-20T22:10:30Z</time></trkpt><trkpt lat="59.1038670391" lon="30.4990985524"><ele>299.11</ele><time>2026-08-20T22:10:31Z</time></trkpt><trkpt lat="59.1038670391" lon="30.4990985524"><ele>299.11</ele><time>2026-08-20T22:10:32Z</time></trkpt><trkpt lat="59.1038670391" lon="30.4990985524"><ele>299.11</ele><time>2026-08-20T22:10:33Z</time></trkpt><trkpt lat="59.1038670391" lon="30.4990985524"><ele>298.63</ele><time>2026-08-20T22:10:34Z</time></trkpt><trkpt lat="59.1038670391" lon="30.4990985524"><ele>298.63</ele><time>2026-08-20T22:10:35Z</time></trkpt><trkpt lat="59.1038670391" lon="30.4990985524"><ele>298.63</ele><time>2026-08-20T22:10:36Z</time></trkpt><trkpt lat="59.1038670391" lon="30.4990985524"><ele>299.11</ele><time>2026-08-20T22:10:37Z</time></trkpt><trkpt lat="59.1038670391" lon="30.4990985524"><ele>299.11</ele><time>2026-08-20T22:10:38Z</time></trkpt><trkpt lat="59.1038670391" lon="30.4990985524"><ele>298.63</ele><time>2026-08-20T22:10:39Z</time></trkpt><trkpt lat="59.1038670391" lon="30.4990985524"><ele>299.11</ele><time>2026-08-20T22:10:40Z</time></trkpt><trkpt lat="59.1038670391" lon="30.4990985524"><ele>299.11</ele><time>2026-08-20T22:10:41Z</time></trkpt><trkpt lat="59.1038670391" lon="30.4990985524"><ele>299.11</ele><time>2026-08-20T22:10:42Z</time></trkpt><trkpt lat="59.1038670391" lon="30.4990985524"><ele>299.11</ele><time>2026-08-20T22:10:43Z</time></trkpt><trkpt lat="59.1038670391" lon="30.4990985524"><ele>299.11</ele><time>2026-08-20T22:10:44Z</time></trkpt><trkpt lat="59.1038670391" lon="30.4990985524"><ele>298.63</ele><time>2026-08-20T22:10:45Z</time></trkpt><trkpt lat="59.1038670391" lon="30.4990985524"><ele>298.63</ele><time>2026-08-20T22:10:46Z</time></trkpt><trkpt lat="59.1038670391" lon="30.4990985524"><ele>298.63</ele><time>2026-08-20T22:10:47Z</time></trkpt><trkpt lat="59.1038670391" lon="30.4990985524"><ele>298.63</ele><time>2026-08-20T22:10:48Z</time></trkpt><trkpt lat="59.1038670391" lon="30.4990985524"><ele>298.63</ele><time>2026-08-20T22:10:49Z</time></trkpt><trkpt lat="59.1038670391" lon="30.4990985524"><ele>298.63</ele><time>2026-08-20T22:10:50Z</time></trkpt><trkpt lat="59.1038670391" lon="30.4990985524"><ele>298.63</ele><time>2026-08-20T22:10:51Z</time></trkpt><trkpt lat="59.1038670391" lon="30.4990985524"><ele>298.63</ele><time>2026-08-20T22:10:52Z</time></trkpt><trkpt lat="59.1038670391" lon="30.4990985524"><ele>298.63</ele><time>2026-08-20T22:10:53Z</time></trkpt><trkpt lat="59.1038670391" lon="30.4990985524"><ele>298.63</ele><time>2026-08-20T22:10:54Z</time></trkpt><trkpt lat="59.1038670391" lon="30.4990985524"><ele>298.63</ele><time>2026-08-20T22:10:55Z</time></trkpt><trkpt lat="59.1038670391" lon="30.4990985524"><ele>298.63</ele><time>2026-08-20T22:10:56Z</time></trkpt><trkpt lat="59.1038670391" lon="30.4990985524"><ele>298.63</ele><time>2026-08-20T22:10:57Z</time></trkpt><trkpt lat="59.1038670391" lon="30.4990985524"><ele>298.63</ele><time>2026-08-20T22:10:58Z</time></trkpt><trkpt lat="59.1038670391" lon="30.4990985524"><ele>298.63</ele><time>2026-08-20T22:10:59Z</time></trkpt><trkpt lat="59.1038670391" lon="30.4990985524"><ele>298.63</ele><time>2026-08-20T22:11:00Z</time></trkpt><trkpt lat="59.1038670391" lon="30.4990985524"><ele>298.63</ele><time>2026-08-20T22:11:01Z</time></trkpt><trkpt lat="59.1038670391" lon="30.4990985524"><ele>298.63</ele><time>2026-08-20T22:11:02Z</time></trkpt><trkpt lat="59.1038670391" lon="30.4990985524"><ele>298.63</ele><time>2026-08-20T22:11:03Z</time></trkpt><trkpt lat="59.1038670391" lon="30.4990985524"><ele>298.63</ele><time>2026-08-20T22:11:04Z</time></trkpt><trkpt lat="59.1038670391" lon="30.4990985524"><ele>298.63</ele><time>2026-08-20T22:11:05Z</time></trkpt><trkpt lat="59.1038670391" lon="30.4990985524"><ele>298.63</ele><time>2026-08-20T22:11:06Z</time></trkpt><trkpt lat="59.1038670391" lon="30.4990985524"><ele>298.63</ele><time>2026-08-20T22:11:07Z</time></trkpt><trkpt lat="59.1038670391" lon="30.4990985524"><ele>298.63</ele><time>2026-08-20T22:11:08Z</time></trkpt><trkpt lat="59.1038670391" lon="30.4990985524"><ele>298.63</ele><time>2026-08-20T22:11:09Z</time></trkpt><trkpt lat="59.1038670391" lon="30.4990985524"><ele>298.63</ele><time>2026-08-20T22:11:10Z</time></trkpt><trkpt lat="59.1038670391" lon="30.4990985524"><ele>298.63</ele><time>2026-08-20T22:11:11Z</time></trkpt><trkpt lat="59.1038670391" lon="30.4990985524"><ele>298.63</ele><time>2026-08-20T22:11:12Z</time></trkpt><trkpt lat="59.1038670391" lon="30.4990985524"><ele>298.63</ele><time>2026-08-20T22:11:13Z</time></trkpt><trkpt lat="59.1038670391" lon="30.4990985524"><ele>298.63</ele><time>2026-08-20T22:11:14Z</time></trkpt><trkpt lat="59.1038670391" lon="30.4990985524"><ele>298.63</ele><time>2026-08-20T22:11:15Z</time></trkpt><trkpt lat="59.1038670391" lon="30.4990985524"><ele>298.63</ele><time>2026-08-20T22:11:16Z</time></trkpt><trkpt lat="59.1038670391" lon="30.4990985524"><ele>298.63</ele><time>2026-08-20T22:11:17Z</time></trkpt><trkpt lat="59.1038670391" lon="30.4990985524"><ele>298.63</ele><time>2026-08-20T22:11:18Z</time></trkpt><trkpt lat="59.1038670391" lon="30.4990985524"><ele>298.63</ele><time>2026-08-20T22:11:19Z</time></trkpt><trkpt lat="59.1038670391" lon="30.4990985524"><ele>298.63</ele><time>2026-08-20T22:11:20Z</time></trkpt><trkpt lat="59.1038670391" lon="30.4990985524"><ele>298.63</ele><time>2026-08-20T22:11:21Z</time></trkpt><trkpt lat="59.1038670391" lon="30.4990985524"><ele>298.63</ele><time>2026-08-20T22:11:22Z</time></trkpt><trkpt lat="59.1038670391" lon="30.4990985524"><ele>298.63</ele><time>2026-08-20T22:11:23Z</time></trkpt><trkpt lat="59.1038670391" lon="30.4990985524"><ele>298.63</ele><time>2026-08-20T22:11:24Z</time></trkpt><trkpt lat="59.1038670391" lon="30.4990985524"><ele>298.63</ele><time>2026-08-20T22:11:25Z</time></trkpt><trkpt lat="59.1038670391" lon="30.4990985524"><ele>298.63</ele><time>2026-08-20T22:11:26Z</time></trkpt><trkpt lat="59.1038670391" lon="30.4990985524"><ele>298.63</ele><time>2026-08-20T22:11:27Z</time></trkpt><trkpt lat="59.1038670391" lon="30.4990985524"><ele>298.63</ele><time>2026-08-20T22:11:28Z</time></trkpt><trkpt lat="59.1038670391" lon="30.4990985524"><ele>298.63</ele><time>2026-08-20T22:11:29Z</time></trkpt><trkpt lat="59.1038670391" lon="30.4990985524"><ele>298.63</ele><time>2026-08-20T22:11:30Z</time></trkpt><trkpt lat="59.1038670391" lon="30.4990985524"><ele>298.63</ele><time>2026-08-20T22:11:31Z</time></trkpt><trkpt lat="59.1038670391" lon="30.4990985524"><ele>298.63</ele><time>2026-08-20T22:11:32Z</time></trkpt><trkpt lat="59.1038670391" lon="30.4990985524"><ele>298.63</ele><time>2026-08-20T22:11:33Z</time></trkpt><trkpt lat="59.1038670391" lon="30.4990985524"><ele>298.63</ele><time>2026-08-20T22:11:34Z</time></trkpt><trkpt lat="59.1038670391" lon="30.4990985524"><ele>298.63</ele><time>2026-08-20T22:11:35Z</time></trkpt><trkpt lat="59.1038670391" lon="30.4990985524"><ele>298.63</ele><time>2026-08-20T22:11:36Z</time></trkpt><trkpt lat="59.1038670391" lon="30.4990985524"><ele>298.63</ele><time>2026-08-20T22:11:37Z</time></trkpt><trkpt lat="59.1038670391" lon="30.4990985524"><ele>298.63</ele><time>2026-08-20T22:11:38Z</time></trkpt><trkpt lat="59.1038670391" lon="30.4990985524"><ele>298.63</ele><time>2026-08-20T22:11:39Z</time></trkpt><trkpt lat="59.1038670391" lon="30.4990985524"><ele>299.11</ele><time>2026-08-20T22:11:40Z</time></trkpt><trkpt lat="59.1038670391" lon="30.4990985524"><ele>299.11</ele><time>2026-08-20T22:11:41Z</time></trkpt><trkpt lat="59.1038670391" lon="30.4990985524"><ele>299.11</ele><time>2026-08-20T22:11:42Z</time></trkpt><trkpt lat="59.1038670391" lon="30.4990985524"><ele>299.11</ele><time>2026-08-20T22:11:43Z</time></trkpt><trkpt lat="59.1038670391" lon="30.4990985524"><ele>299.11</ele><time>2026-08-20T22:11:44Z</time></trkpt><trkpt lat="59.1038670391" lon="30.4990985524"><ele>299.11</ele><time>2026-08-20T22:11:45Z</time></trkpt><trkpt lat="59.1038670391" lon="30.4990985524"><ele>299.11</ele><time>2026-08-20T22:11:46Z</time></trkpt><trkpt lat="59.1038670391" lon="30.4990985524"><ele>299.11</ele><time>2026-08-20T22:11:47Z</time></trkpt><trkpt lat="59.1038670391" lon="30.4990985524"><ele>299.11</ele><time>2026-08-20T22:11:48Z</time></trkpt><trkpt lat="59.1038670391" lon="30.4990985524"><ele>299.11</ele><time>2026-08-20T22:11:49Z</time></trkpt><trkpt lat="59.1038670391" lon="30.4990985524"><ele>299.11</ele><time>2026-08-20T22:11:50Z</time></trkpt><trkpt lat="59.1038670391" lon="30.4990985524"><ele>299.11</ele><time>2026-08-20T22:11:51Z</time></trkpt><trkpt lat="59.1038670391" lon="30.4990985524"><ele>299.11</ele><time>2026-08-20T22:11:52Z</time></trkpt><trkpt lat="59.1038670391" lon="30.4990985524"><ele>298.63</ele><time>2026-08-20T22:11:53Z</time></trkpt><trkpt lat="59.1038670391" lon="30.4990985524"><ele>298.63</ele><time>2026-08-20T22:11:54Z</time></trkpt><trkpt lat="59.1038670391" lon="30.4990985524"><ele>298.63</ele><time>2026-08-20T22:11:55Z</time></trkpt><trkpt lat="59.1038670391" lon="30.4990985524"><ele>298.63</ele><time>2026-08-20T22:11:56Z</time></trkpt><trkpt lat="59.1038670391" lon="30.4990985524"><ele>298.63</ele><time>2026-08-20T22:11:57Z</time></trkpt><trkpt lat="59.1038670391" lon="30.4990985524"><ele>298.63</ele><time>2026-08-20T22:11:58Z</time></trkpt><trkpt lat="59.1038670391" lon="30.4990985524"><ele>298.63</ele><time>2026-08-20T22:11:59Z</time></trkpt><trkpt lat="59.1038670391" lon="30.4990985524"><ele>298.63</ele><time>2026-08-20T22:12:00Z</time></trkpt><trkpt lat="59.1038670391" lon="30.4990985524"><ele>298.63</ele><time>2026-08-20T22:12:01Z</time></trkpt><trkpt lat="59.1038670391" lon="30.4990985524"><ele>298.63</ele><time>2026-08-20T22:12:02Z</time></trkpt><trkpt lat="59.1038670391" lon="30.4990985524"><ele>298.63</ele><time>2026-08-20T22:12:03Z</time></trkpt><trkpt lat="59.1038670391" lon="30.4990985524"><ele>298.63</ele><time>2026-08-20T22:12:04Z</time></trkpt><trkpt lat="59.1038670391" lon="30.4990985524"><ele>298.63</ele><time>2026-08-20T22:12:05Z</time></trkpt><trkpt lat="59.1038670391" lon="30.4990985524"><ele>298.63</ele><time>2026-08-20T22:12:06Z</time></trkpt><trkpt lat="59.1038670391" lon="30.4990985524"><ele>298.63</ele><time>2026-08-20T22:12:07Z</time></trkpt><trkpt lat="59.1038670391" lon="30.4990985524"><ele>298.63</ele><time>2026-08-20T22:12:08Z</time></trkpt><trkpt lat="59.1038670391" lon="30.4990985524"><ele>298.63</ele><time>2026-08-20T22:12:09Z</time></trkpt><trkpt lat="59.1038670391" lon="30.4990985524"><ele>298.63</ele><time>2026-08-20T22:12:10Z</time></trkpt><trkpt lat="59.1038670391" lon="30.4990985524"><ele>298.63</ele><time>2026-08-20T22:12:11Z</time></trkpt><trkpt lat="59.1038670391" lon="30.4990985524"><ele>298.63</ele><time>2026-08-20T22:12:12Z</time></trkpt><trkpt lat="59.1038670391" lon="30.4990985524"><ele>298.63</ele><time>2026-08-20T22:12:13Z</time></trkpt><trkpt lat="59.1038670391" lon="30.4990985524"><ele>298.63</ele><time>2026-08-20T22:12:14Z</time></trkpt><trkpt lat="59.1038670391" lon="30.4990985524"><ele>298.63</ele><time>2026-08-20T22:12:15Z</time></trkpt><trkpt lat="59.1038670391" lon="30.4990985524"><ele>298.63</ele><time>2026-08-20T22:12:16Z</time></trkpt><trkpt lat="59.1038670391" lon="30.4990985524"><ele>298.63</ele><time>2026-08-20T22:12:17Z</time></trkpt><trkpt lat="59.1038670391" lon="30.4990985524"><ele>298.63</ele><time>2026-08-20T22:12:18Z</time></trkpt><trkpt lat="59.1038670391" lon="30.4990985524"><ele>298.63</ele><time>2026-08-20T22:12:19Z</time></trkpt><trkpt lat="59.1038670391" lon="30.4990985524"><ele>298.63</ele><time>2026-08-20T22:12:20Z</time></trkpt><trkpt lat="59.1038670391" lon="30.4990985524"><ele>298.63</ele><time>2026-08-20T22:12:21Z</time></trkpt><trkpt lat="59.1038670391" lon="30.4990985524"><ele>298.63</ele><time>2026-08-20T22:12:22Z</time></trkpt><trkpt lat="59.1038670391" lon="30.4990985524"><ele>298.63</ele><time>2026-08-20T22:12:23Z</time></trkpt><trkpt lat="59.1038670391" lon="30.4990985524"><ele>298.63</ele><time>2026-08-20T22:12:24Z</time></trkpt><trkpt lat="59.1038670391" lon="30.4990985524"><ele>298.63</ele><time>2026-08-20T22:12:25Z</time></trkpt><trkpt lat="59.1038670391" lon="30.4990985524"><ele>298.63</ele><time>2026-08-20T22:12:26Z</time></trkpt><trkpt lat="59.1038670391" lon="30.4990985524"><ele>298.63</ele><time>2026-08-20T22:12:27Z</time></trkpt><trkpt lat="59.1038670391" lon="30.4990985524"><ele>298.63</ele><time>2026-08-20T22:12:28Z</time></trkpt><trkpt lat="59.1038670391" lon="30.4990985524"><ele>298.63</ele><time>2026-08-20T22:12:29Z</time></trkpt><trkpt lat="59.1038670391" lon="30.4990985524"><ele>298.63</ele><time>2026-08-20T22:12:30Z</time></trkpt><trkpt lat="59.1038670391" lon="30.4990985524"><ele>298.63</ele><time>2026-08-20T22:12:31Z</time></trkpt><trkpt lat="59.1038670391" lon="30.4990985524"><ele>299.11</ele><time>2026-08-20T22:12:32Z</time></trkpt><trkpt lat="59.1038670391" lon="30.4990985524"><ele>299.11</ele><time>2026-08-20T22:12:33Z</time></trkpt><trkpt lat="59.1038670391" lon="30.4990985524"><ele>299.11</ele><time>2026-08-20T22:12:34Z</time></trkpt><trkpt lat="59.1038670391" lon="30.4990985524"><ele>299.11</ele><time>2026-08-20T22:12:35Z</time></trkpt><trkpt lat="59.1038670391" lon="30.4990985524"><ele>299.11</ele><time>2026-08-20T22:12:36Z</time></trkpt><trkpt lat="59.1038670391" lon="30.4990985524"><ele>299.11</ele><time>2026-08-20T22:12:37Z</time></trkpt><trkpt lat="59.1038670391" lon="30.4990985524"><ele>299.11</ele><time>2026-08-20T22:12:38Z</time></trkpt><trkpt lat="59.1038670391" lon="30.4990985524"><ele>299.11</ele><time>2026-08-20T22:12:39Z</time></trkpt><trkpt lat="59.1038670391" lon="30.4990985524"><ele>299.11</ele><time>2026-08-20T22:12:40Z</time></trkpt><trkpt lat="59.1038670391" lon="30.4990985524"><ele>299.11</ele><time>2026-08-20T22:12:41Z</time></trkpt><trkpt lat="59.1038670391" lon="30.4990985524"><ele>299.11</ele><time>2026-08-20T22:12:42Z</time></trkpt><trkpt lat="59.1038670391" lon="30.4990985524"><ele>299.11</ele><time>2026-08-20T22:12:43Z</time></trkpt><trkpt lat="59.1038670391" lon="30.4990985524"><ele>299.11</ele><time>2026-08-20T22:12:44Z</time></trkpt><trkpt lat="59.1038457491" lon="30.4990917630"><ele>299.11</ele><time>2026-08-20T22:12:45Z</time></trkpt><trkpt lat="59.1038463358" lon="30.4990759213"><ele>299.11</ele><time>2026-08-20T22:12:46Z</time></trkpt><trkpt lat="59.1038462520" lon="30.4990552180"><ele>299.11</ele><time>2026-08-20T22:12:47Z</time></trkpt><trkpt lat="59.1038462520" lon="30.4990386218"><ele>299.11</ele><time>2026-08-20T22:12:48Z</time></trkpt><trkpt lat="59.1038433183" lon="30.4990267195"><ele>299.11</ele><time>2026-08-20T22:12:49Z</time></trkpt><trkpt lat="59.1038410552" lon="30.4990223609"><ele>299.11</ele><time>2026-08-20T22:12:50Z</time></trkpt><trkpt lat="59.1038410552" lon="30.4990240373"><ele>299.11</ele><time>2026-08-20T22:12:51Z</time></trkpt><trkpt lat="59.1038391273" lon="30.4990209360"><ele>299.11</ele><time>2026-08-20T22:12:52Z</time></trkpt><trkpt lat="59.1038374510" lon="30.4990174994"><ele>299.11</ele><time>2026-08-20T22:12:53Z</time></trkpt><trkpt lat="59.1038374510" lon="30.4990174994"><ele>299.11</ele><time>2026-08-20T22:12:54Z</time></trkpt><trkpt lat="59.1038374510" lon="30.4990174994"><ele>299.11</ele><time>2026-08-20T22:12:55Z</time></trkpt><trkpt lat="59.1038374510" lon="30.4990174994"><ele>299.11</ele><time>2026-08-20T22:12:56Z</time></trkpt><trkpt lat="59.1038374510" lon="30.4990174994"><ele>299.11</ele><time>2026-08-20T22:12:57Z</time></trkpt><trkpt lat="59.1038374510" lon="30.4990174994"><ele>299.11</ele><time>2026-08-20T22:12:58Z</time></trkpt><trkpt lat="59.1038374510" lon="30.4990174994"><ele>299.11</ele><time>2026-08-20T22:12:59Z</time></trkpt><trkpt lat="59.1038374510" lon="30.4990174994"><ele>299.11</ele><time>2026-08-20T22:13:00Z</time></trkpt><trkpt lat="59.1038374510" lon="30.4990174994"><ele>299.11</ele><time>2026-08-20T22:13:01Z</time></trkpt><trkpt lat="59.1038374510" lon="30.4990174994"><ele>299.11</ele><time>2026-08-20T22:13:02Z</time></trkpt><trkpt lat="59.1038374510" lon="30.4990174994"><ele>299.11</ele><time>2026-08-20T22:13:03Z</time></trkpt><trkpt lat="59.1038374510" lon="30.4990174994"><ele>299.11</ele><time>2026-08-20T22:13:04Z</time></trkpt><trkpt lat="59.1038374510" lon="30.4990174994"><ele>299.11</ele><time>2026-08-20T22:13:05Z</time></trkpt><trkpt lat="59.1038374510" lon="30.4990174994"><ele>299.11</ele><time>2026-08-20T22:13:06Z</time></trkpt><trkpt lat="59.1038374510" lon="30.4990174994"><ele>299.11</ele><time>2026-08-20T22:13:07Z</time></trkpt><trkpt lat="59.1038374510" lon="30.4990174994"><ele>299.11</ele><time>2026-08-20T22:13:08Z</time></trkpt><trkpt lat="59.1038374510" lon="30.4990174994"><ele>299.11</ele><time>2026-08-20T22:13:09Z</time></trkpt><trkpt lat="59.1038374510" lon="30.4990174994"><ele>299.11</ele><time>2026-08-20T22:13:10Z</time></trkpt><trkpt lat="59.1038374510" lon="30.4990174994"><ele>299.11</ele><time>2026-08-20T22:13:11Z</time></trkpt><trkpt lat="59.1038374510" lon="30.4990174994"><ele>299.11</ele><time>2026-08-20T22:13:12Z</time></trkpt><trkpt lat="59.1038374510" lon="30.4990174994"><ele>299.11</ele><time>2026-08-20T22:13:13Z</time></trkpt><trkpt lat="59.1038374510" lon="30.4990174994"><ele>299.11</ele><time>2026-08-20T22:13:14Z</time></trkpt><trkpt lat="59.1038374510" lon="30.4990174994"><ele>299.11</ele><time>2026-08-20T22:13:15Z</time></trkpt><trkpt lat="59.1038374510" lon="30.4990174994"><ele>299.11</ele><time>2026-08-20T22:13:16Z</time></trkpt><trkpt lat="59.1038374510" lon="30.4990174994"><ele>299.11</ele><time>2026-08-20T22:13:17Z</time></trkpt><trkpt lat="59.1038374510" lon="30.4990174994"><ele>299.11</ele><time>2026-08-20T22:13:18Z</time></trkpt><trkpt lat="59.1038374510" lon="30.4990174994"><ele>299.11</ele><time>2026-08-20T22:13:19Z</time></trkpt><trkpt lat="59.1038374510" lon="30.4990174994"><ele>299.11</ele><time>2026-08-20T22:13:20Z</time></trkpt><trkpt lat="59.1038374510" lon="30.4990174994"><ele>299.11</ele><time>2026-08-20T22:13:21Z</time></trkpt><trkpt lat="59.1038374510" lon="30.4990174994"><ele>299.11</ele><time>2026-08-20T22:13:22Z</time></trkpt><trkpt lat="59.1038374510" lon="30.4990174994"><ele>299.11</ele><time>2026-08-20T22:13:23Z</time></trkpt><trkpt lat="59.1038374510" lon="30.4990174994"><ele>299.11</ele><time>2026-08-20T22:13:24Z</time></trkpt><trkpt lat="59.1038394626" lon="30.4989888333"><ele>299.11</ele><time>2026-08-20T22:13:25Z</time></trkpt><trkpt lat="59.1038423963" lon="30.4989744164"><ele>299.11</ele><time>2026-08-20T22:13:26Z</time></trkpt><trkpt lat="59.1038431507" lon="30.4989576526"><ele>299.11</ele><time>2026-08-20T22:13:27Z</time></trkpt><trkpt lat="59.1038425639" lon="30.4989422299"><ele>299.11</ele><time>2026-08-20T22:13:28Z</time></trkpt><trkpt lat="59.1038410552" lon="30.4989259690"><ele>299.11</ele><time>2026-08-20T22:13:29Z</time></trkpt><trkpt lat="59.1038396303" lon="30.4989093728"><ele>299.11</ele><time>2026-08-20T22:13:30Z</time></trkpt><trkpt lat="59.1038356908" lon="30.4988942854"><ele>299.11</ele><time>2026-08-20T22:13:31Z</time></trkpt><trkpt lat="59.1038314998" lon="30.4988827184"><ele>299.11</ele><time>2026-08-20T22:13:32Z</time></trkpt><trkpt lat="59.1038279794" lon="30.4988684691"><ele>299.11</ele><time>2026-08-20T22:13:33Z</time></trkpt><trkpt lat="59.1038237885" lon="30.4988457542"><ele>299.11</ele><time>2026-08-20T22:13:34Z</time></trkpt><trkpt lat="59.1038184240" lon="30.4988240451"><ele>299.11</ele><time>2026-08-20T22:13:35Z</time></trkpt><trkpt lat="59.1038137302" lon="30.4988049343"><ele>299.11</ele><time>2026-08-20T22:13:36Z</time></trkpt><trkpt lat="59.1038089525" lon="30.4987847339"><ele>299.11</ele><time>2026-08-20T22:13:37Z</time></trkpt><trkpt lat="59.1038038395" lon="30.4987679701"><ele>299.11</ele><time>2026-08-20T22:13:38Z</time></trkpt><trkpt lat="59.1038014926" lon="30.4987503681"><ele>299.11</ele><time>2026-08-20T22:13:39Z</time></trkpt><trkpt lat="59.1037995648" lon="30.4987322632"><ele>299.11</ele><time>2026-08-20T22:13:40Z</time></trkpt><trkpt lat="59.1037953738" lon="30.4987164214"><ele>299.11</ele><time>2026-08-20T22:13:41Z</time></trkpt><trkpt lat="59.1037931945" lon="30.4987021722"><ele>299.11</ele><time>2026-08-20T22:13:42Z</time></trkpt><trkpt lat="59.1037913505" lon="30.4986887611"><ele>299.11</ele><time>2026-08-20T22:13:43Z</time></trkpt><trkpt lat="59.1037895903" lon="30.4986708239"><ele>299.11</ele><time>2026-08-20T22:13:44Z</time></trkpt><trkpt lat="59.1037884168" lon="30.4986549821"><ele>299.11</ele><time>2026-08-20T22:13:45Z</time></trkpt><trkpt lat="59.1037876625" lon="30.4986367933"><ele>299.11</ele><time>2026-08-20T22:13:46Z</time></trkpt><trkpt lat="59.1037857346" lon="30.4986186884"><ele>299.11</ele><time>2026-08-20T22:13:47Z</time></trkpt><trkpt lat="59.1037840582" lon="30.4986034334"><ele>299.11</ele><time>2026-08-20T22:13:48Z</time></trkpt><trkpt lat="59.1037839744" lon="30.4985987395"><ele>299.11</ele><time>2026-08-20T22:13:49Z</time></trkpt><trkpt lat="59.1037809569" lon="30.4985889327"><ele>299.11</ele><time>2026-08-20T22:13:50Z</time></trkpt><trkpt lat="59.1037809569" lon="30.4985840712"><ele>299.11</ele><time>2026-08-20T22:13:51Z</time></trkpt><trkpt lat="59.1037809569" lon="30.4985840712"><ele>299.11</ele><time>2026-08-20T22:13:52Z</time></trkpt><trkpt lat="59.1037809569" lon="30.4985840712"><ele>299.11</ele><time>2026-08-20T22:13:53Z</time></trkpt><trkpt lat="59.1037809569" lon="30.4985840712"><ele>299.11</ele><time>2026-08-20T22:13:54Z</time></trkpt><trkpt lat="59.1037809569" lon="30.4985840712"><ele>299.11</ele><time>2026-08-20T22:13:55Z</time></trkpt><trkpt lat="59.1037809569" lon="30.4985840712"><ele>299.11</ele><time>2026-08-20T22:13:56Z</time></trkpt><trkpt lat="59.1037809569" lon="30.4985840712"><ele>299.11</ele><time>2026-08-20T22:13:57Z</time></trkpt><trkpt lat="59.1037809569" lon="30.4985840712"><ele>299.11</ele><time>2026-08-20T22:13:58Z</time></trkpt><trkpt lat="59.1037809569" lon="30.4985840712"><ele>299.11</ele><time>2026-08-20T22:13:59Z</time></trkpt><trkpt lat="59.1037787776" lon="30.4985718336"><ele>299.11</ele><time>2026-08-20T22:14:00Z</time></trkpt><trkpt lat="59.1037779395" lon="30.4985533934"><ele>299.11</ele><time>2026-08-20T22:14:01Z</time></trkpt><trkpt lat="59.1037769336" lon="30.4985344503"><ele>299.11</ele><time>2026-08-20T22:14:02Z</time></trkpt><trkpt lat="59.1037761793" lon="30.4985197820"><ele>299.11</ele><time>2026-08-20T22:14:03Z</time></trkpt><trkpt lat="59.1037752572" lon="30.4985024314"><ele>299.11</ele><time>2026-08-20T22:14:04Z</time></trkpt><trkpt lat="59.1037730779" lon="30.4984824825"><ele>299.11</ele><time>2026-08-20T22:14:05Z</time></trkpt><trkpt lat="59.1037716530" lon="30.4984656349"><ele>299.11</ele><time>2026-08-20T22:14:06Z</time></trkpt><trkpt lat="59.1037702281" lon="30.4984488711"><ele>299.11</ele><time>2026-08-20T22:14:07Z</time></trkpt><trkpt lat="59.1037701443" lon="30.4984305985"><ele>299.11</ele><time>2026-08-20T22:14:08Z</time></trkpt><trkpt lat="59.1037711501" lon="30.4984139185"><ele>299.59</ele><time>2026-08-20T22:14:09Z</time></trkpt><trkpt lat="59.1037686355" lon="30.4983928800"><ele>299.59</ele><time>2026-08-20T22:14:10Z</time></trkpt><trkpt lat="59.1037640255" lon="30.4983716737"><ele>299.59</ele><time>2026-08-20T22:14:11Z</time></trkpt><trkpt lat="59.1037579905" lon="30.4983478691"><ele>299.59</ele><time>2026-08-20T22:14:12Z</time></trkpt><trkpt lat="59.1037554760" lon="30.4983319435"><ele>299.59</ele><time>2026-08-20T22:14:13Z</time></trkpt><trkpt lat="59.1037528776" lon="30.4983185325"><ele>299.59</ele><time>2026-08-20T22:14:14Z</time></trkpt><trkpt lat="59.1037514526" lon="30.4983099829"><ele>299.59</ele><time>2026-08-20T22:14:15Z</time></trkpt><trkpt lat="59.1037501954" lon="30.4982978292"><ele>299.59</ele><time>2026-08-20T22:14:16Z</time></trkpt><trkpt lat="59.1037491895" lon="30.4982876871"><ele>299.59</ele><time>2026-08-20T22:14:17Z</time></trkpt><trkpt lat="59.1037452500" lon="30.4982760362"><ele>299.59</ele><time>2026-08-20T22:14:18Z</time></trkpt><trkpt lat="59.1037427355" lon="30.4982601944"><ele>299.59</ele><time>2026-08-20T22:14:19Z</time></trkpt><trkpt lat="59.1037429869" lon="30.4982383177"><ele>299.59</ele><time>2026-08-20T22:14:20Z</time></trkpt><trkpt lat="59.1037444957" lon="30.4982167762"><ele>299.59</ele><time>2026-08-20T22:14:21Z</time></trkpt><trkpt lat="59.1037469264" lon="30.4982003476"><ele>299.11</ele><time>2026-08-20T22:14:22Z</time></trkpt><trkpt lat="59.1037480999" lon="30.4981769621"><ele>299.59</ele><time>2026-08-20T22:14:23Z</time></trkpt><trkpt lat="59.1037484352" lon="30.4981589410"><ele>299.59</ele><time>2026-08-20T22:14:24Z</time></trkpt><trkpt lat="59.1037455853" lon="30.4981428478"><ele>299.59</ele><time>2026-08-20T22:14:25Z</time></trkpt><trkpt lat="59.1037463397" lon="30.4981279280"><ele>299.59</ele><time>2026-08-20T22:14:26Z</time></trkpt><trkpt lat="59.1037496924" lon="30.4981125891"><ele>299.59</ele><time>2026-08-20T22:14:27Z</time></trkpt><trkpt lat="59.1037506983" lon="30.4980926402"><ele>299.59</ele><time>2026-08-20T22:14:28Z</time></trkpt><trkpt lat="59.1037484352" lon="30.4980767984"><ele>299.59</ele><time>2026-08-20T22:14:29Z</time></trkpt><trkpt lat="59.1037452500" lon="30.4980574362"><ele>299.59</ele><time>2026-08-20T22:14:30Z</time></trkpt><trkpt lat="59.1037430707" lon="30.4980416782"><ele>299.59</ele><time>2026-08-20T22:14:31Z</time></trkpt><trkpt lat="59.1037407238" lon="30.4980205558"><ele>299.59</ele><time>2026-08-20T22:14:32Z</time></trkpt><trkpt lat="59.1037409753" lon="30.4980041273"><ele>299.59</ele><time>2026-08-20T22:14:33Z</time></trkpt><trkpt lat="59.1037329286" lon="30.4979755450"><ele>299.59</ele><time>2026-08-20T22:14:34Z</time></trkpt><trkpt lat="59.1037312523" lon="30.4979562666"><ele>299.59</ele><time>2026-08-20T22:14:35Z</time></trkpt><trkpt lat="59.1037375387" lon="30.4979390837"><ele>299.59</ele><time>2026-08-20T22:14:36Z</time></trkpt><trkpt lat="59.1037419811" lon="30.4979253374"><ele>299.59</ele><time>2026-08-20T22:14:37Z</time></trkpt><trkpt lat="59.1037459206" lon="30.4979076516"><ele>299.59</ele><time>2026-08-20T22:14:38Z</time></trkpt><trkpt lat="59.1037498601" lon="30.4978912231"><ele>299.59</ele><time>2026-08-20T22:14:39Z</time></trkpt><trkpt lat="59.1037497763" lon="30.4978753813"><ele>299.59</ele><time>2026-08-20T22:14:40Z</time></trkpt><trkpt lat="59.1037509497" lon="30.4978614673"><ele>299.59</ele><time>2026-08-20T22:14:41Z</time></trkpt><trkpt lat="59.1037493572" lon="30.4978503194"><ele>299.59</ele><time>2026-08-20T22:14:42Z</time></trkpt><trkpt lat="59.1037530452" lon="30.4978392553"><ele>299.11</ele><time>2026-08-20T22:14:43Z</time></trkpt><trkpt lat="59.1037549730" lon="30.4978177976"><ele>299.11</ele><time>2026-08-20T22:14:44Z</time></trkpt><trkpt lat="59.1037566494" lon="30.4977970943"><ele>299.11</ele><time>2026-08-20T22:14:45Z</time></trkpt><trkpt lat="59.1037560627" lon="30.4977778997"><ele>299.11</ele><time>2026-08-20T22:14:46Z</time></trkpt><trkpt lat="59.1037504468" lon="30.4977563582"><ele>299.11</ele><time>2026-08-20T22:14:47Z</time></trkpt><trkpt lat="59.1037475970" lon="30.4977396782"><ele>299.11</ele><time>2026-08-20T22:14:48Z</time></trkpt><trkpt lat="59.1037459206" lon="30.4977201484"><ele>299.11</ele><time>2026-08-20T22:14:49Z</time></trkpt><trkpt lat="59.1037418973" lon="30.4976990260"><ele>299.11</ele><time>2026-08-20T22:14:50Z</time></trkpt><trkpt lat="59.1037405562" lon="30.4976740479"><ele>299.59</ele><time>2026-08-20T22:14:51Z</time></trkpt><trkpt lat="59.1037403885" lon="30.4976489861"><ele>299.59</ele><time>2026-08-20T22:14:52Z</time></trkpt><trkpt lat="59.1037393827" lon="30.4976268578"><ele>299.59</ele><time>2026-08-20T22:14:53Z</time></trkpt><trkpt lat="59.1037377901" lon="30.4976104293"><ele>299.59</ele><time>2026-08-20T22:14:54Z</time></trkpt><trkpt lat="59.1037360299" lon="30.4975891393"><ele>299.59</ele><time>2026-08-20T22:14:55Z</time></trkpt><trkpt lat="59.1037361976" lon="30.4975632392"><ele>299.59</ele><time>2026-08-20T22:14:56Z</time></trkpt><trkpt lat="59.1037372872" lon="30.4975407757"><ele>299.59</ele><time>2026-08-20T22:14:57Z</time></trkpt><trkpt lat="59.1037380416" lon="30.4975169711"><ele>299.59</ele><time>2026-08-20T22:14:58Z</time></trkpt><trkpt lat="59.1037393827" lon="30.4974928312"><ele>299.59</ele><time>2026-08-20T22:14:59Z</time></trkpt><trkpt lat="59.1037370358" lon="30.4974700324"><ele>299.59</ele><time>2026-08-20T22:15:00Z</time></trkpt><trkpt lat="59.1037362814" lon="30.4974350799"><ele>299.59</ele><time>2026-08-20T22:15:01Z</time></trkpt><trkpt lat="59.1037283186" lon="30.4974179808"><ele>299.59</ele><time>2026-08-20T22:15:02Z</time></trkpt><trkpt lat="59.1037260555" lon="30.4974046536"><ele>299.59</ele><time>2026-08-20T22:15:03Z</time></trkpt><trkpt lat="59.1037260555" lon="30.4974046536"><ele>299.59</ele><time>2026-08-20T22:15:04Z</time></trkpt><trkpt lat="59.1037191823" lon="30.4973630793"><ele>299.59</ele><time>2026-08-20T22:15:05Z</time></trkpt><trkpt lat="59.1037166677" lon="30.4973469861"><ele>299.59</ele><time>2026-08-20T22:15:06Z</time></trkpt><trkpt lat="59.1037152428" lon="30.4973284621"><ele>299.59</ele><time>2026-08-20T22:15:07Z</time></trkpt><trkpt lat="59.1037113871" lon="30.4973048251"><ele>299.59</ele><time>2026-08-20T22:15:08Z</time></trkpt><trkpt lat="59.1037062742" lon="30.4972828645"><ele>299.59</ele><time>2026-08-20T22:15:09Z</time></trkpt><trkpt lat="59.1037038434" lon="30.4972651787"><ele>299.59</ele><time>2026-08-20T22:15:10Z</time></trkpt><trkpt lat="59.1037025861" lon="30.4972467385"><ele>299.59</ele><time>2026-08-20T22:15:11Z</time></trkpt><trkpt lat="59.1037006583" lon="30.4972240236"><ele>299.59</ele><time>2026-08-20T22:15:12Z</time></trkpt><trkpt lat="59.1036988981" lon="30.4972034879"><ele>299.59</ele><time>2026-08-20T22:15:13Z</time></trkpt><trkpt lat="59.1036966350" lon="30.4971786775"><ele>299.59</ele><time>2026-08-20T22:15:14Z</time></trkpt><trkpt lat="59.1036965512" lon="30.4971526936"><ele>299.59</ele><time>2026-08-20T22:15:15Z</time></trkpt><trkpt lat="59.1036966350" lon="30.4971307330"><ele>299.59</ele><time>2026-08-20T22:15:16Z</time></trkpt><trkpt lat="59.1036942881" lon="30.4970787652"><ele>299.59</ele><time>2026-08-20T22:15:17Z</time></trkpt><trkpt lat="59.1036916897" lon="30.4970461596"><ele>299.59</ele><time>2026-08-20T22:15:18Z</time></trkpt><trkpt lat="59.1036899295" lon="30.4970204271"><ele>299.59</ele><time>2026-08-20T22:15:19Z</time></trkpt><trkpt lat="59.1036900971" lon="30.4970079381"><ele>299.59</ele><time>2026-08-20T22:15:20Z</time></trkpt><trkpt lat="59.1036923602" lon="30.4969936889"><ele>299.59</ele><time>2026-08-20T22:15:21Z</time></trkpt><trkpt lat="59.1036908515" lon="30.4969771765"><ele>299.59</ele><time>2026-08-20T22:15:22Z</time></trkpt><trkpt lat="59.1036879178" lon="30.4969596583"><ele>299.59</ele><time>2026-08-20T22:15:23Z</time></trkpt><trkpt lat="59.1036787815" lon="30.4969291482"><ele>299.59</ele><time>2026-08-20T22:15:24Z</time></trkpt><trkpt lat="59.1036715731" lon="30.4969011527"><ele>299.59</ele><time>2026-08-20T22:15:25Z</time></trkpt><trkpt lat="59.1036673822" lon="30.4968785215"><ele>299.59</ele><time>2026-08-20T22:15:26Z</time></trkpt><trkpt lat="59.1036661249" lon="30.4968570638"><ele>299.59</ele><time>2026-08-20T22:15:27Z</time></trkpt><trkpt lat="59.1036641970" lon="30.4968371987"><ele>299.59</ele><time>2026-08-20T22:15:28Z</time></trkpt><trkpt lat="59.1036599223" lon="30.4968135618"><ele>299.59</ele><time>2026-08-20T22:15:29Z</time></trkpt><trkpt lat="59.1036604252" lon="30.4967896733"><ele>299.59</ele><time>2026-08-20T22:15:30Z</time></trkpt><trkpt lat="59.1036599223" lon="30.4967718199"><ele>299.59</ele><time>2026-08-20T22:15:31Z</time></trkpt><trkpt lat="59.1036557313" lon="30.4967524577"><ele>299.59</ele><time>2026-08-20T22:15:32Z</time></trkpt><trkpt lat="59.1036523785" lon="30.4967316706"><ele>299.59</ele><time>2026-08-20T22:15:33Z</time></trkpt><trkpt lat="59.1036519594" lon="30.4967125598"><ele>299.59</ele><time>2026-08-20T22:15:34Z</time></trkpt><trkpt lat="59.1036504507" lon="30.4966944549"><ele>299.59</ele><time>2026-08-20T22:15:35Z</time></trkpt><trkpt lat="59.1036383808" lon="30.4966463428"><ele>299.59</ele><time>2026-08-20T22:15:36Z</time></trkpt><trkpt lat="59.1036358662" lon="30.4966222867"><ele>299.59</ele><time>2026-08-20T22:15:37Z</time></trkpt><trkpt lat="59.1036397219" lon="30.4966021702"><ele>299.59</ele><time>2026-08-20T22:15:38Z</time></trkpt><trkpt lat="59.1036405601" lon="30.4965825565"><ele>299.59</ele><time>2026-08-20T22:15:39Z</time></trkpt><trkpt lat="59.1036386322" lon="30.4965568241"><ele>299.59</ele><time>2026-08-20T22:15:40Z</time></trkpt><trkpt lat="59.1036368720" lon="30.4965333547"><ele>299.59</ele><time>2026-08-20T22:15:41Z</time></trkpt><trkpt lat="59.1036393866" lon="30.4965162557"><ele>299.59</ele><time>2026-08-20T22:15:42Z</time></trkpt><trkpt lat="59.1036425717" lon="30.4964986537"><ele>299.59</ele><time>2026-08-20T22:15:43Z</time></trkpt><trkpt lat="59.1036440805" lon="30.4964815546"><ele>299.59</ele><time>2026-08-20T22:15:44Z</time></trkpt><trkpt lat="59.1036430746" lon="30.4964604322"><ele>299.59</ele><time>2026-08-20T22:15:45Z</time></trkpt><trkpt lat="59.1036451701" lon="30.4964439198"><ele>299.59</ele><time>2026-08-20T22:15:46Z</time></trkpt><trkpt lat="59.1036461759" lon="30.4964272399"><ele>299.59</ele><time>2026-08-20T22:15:47Z</time></trkpt><trkpt lat="59.1036446672" lon="30.4964032676"><ele>299.59</ele><time>2026-08-20T22:15:48Z</time></trkpt><trkpt lat="59.1036446672" lon="30.4963836540"><ele>299.59</ele><time>2026-08-20T22:15:49Z</time></trkpt><trkpt lat="59.1036451701" lon="30.4963612743"><ele>299.59</ele><time>2026-08-20T22:15:50Z</time></trkpt><trkpt lat="59.1036436614" lon="30.4963402357"><ele>299.59</ele><time>2026-08-20T22:15:51Z</time></trkpt><trkpt lat="59.1036456730" lon="30.4963224661"><ele>299.11</ele><time>2026-08-20T22:15:52Z</time></trkpt><trkpt lat="59.1036292445" lon="30.4962753598"><ele>299.11</ele><time>2026-08-20T22:15:53Z</time></trkpt><trkpt lat="59.1036289930" lon="30.4962590989"><ele>299.11</ele><time>2026-08-20T22:15:54Z</time></trkpt><trkpt lat="59.1036279872" lon="30.4962453526"><ele>299.11</ele><time>2026-08-20T22:15:55Z</time></trkpt><trkpt lat="59.1036238801" lon="30.4962290917"><ele>299.11</ele><time>2026-08-20T22:15:56Z</time></trkpt><trkpt lat="59.1036163364" lon="30.4962083884"><ele>299.11</ele><time>2026-08-20T22:15:57Z</time></trkpt><trkpt lat="59.1036062781" lon="30.4961893614"><ele>299.11</ele><time>2026-08-20T22:15:58Z</time></trkpt><trkpt lat="59.1036033444" lon="30.4961742740"><ele>299.11</ele><time>2026-08-20T22:15:59Z</time></trkpt><trkpt lat="59.1035991535" lon="30.4961569235"><ele>299.11</ele><time>2026-08-20T22:16:00Z</time></trkpt><trkpt lat="59.1035998240" lon="30.4961378966"><ele>299.11</ele><time>2026-08-20T22:16:01Z</time></trkpt><trkpt lat="59.1035987344" lon="30.4961176962"><ele>299.11</ele><time>2026-08-20T22:16:02Z</time></trkpt><trkpt lat="59.1035983991" lon="30.4960980825"><ele>299.11</ele><time>2026-08-20T22:16:03Z</time></trkpt><trkpt lat="59.1035974771" lon="30.4960772954"><ele>299.11</ele><time>2026-08-20T22:16:04Z</time></trkpt><trkpt lat="59.1035941243" lon="30.4960556701"><ele>299.11</ele><time>2026-08-20T22:16:05Z</time></trkpt><trkpt lat="59.1035879217" lon="30.4960332904"><ele>299.11</ele><time>2026-08-20T22:16:06Z</time></trkpt><trkpt lat="59.1035813838" lon="30.4960053787"><ele>299.11</ele><time>2026-08-20T22:16:07Z</time></trkpt><trkpt lat="59.1035766900" lon="30.4959733598"><ele>299.11</ele><time>2026-08-20T22:16:08Z</time></trkpt><trkpt lat="59.1035720799" lon="30.4959476274"><ele>299.11</ele><time>2026-08-20T22:16:09Z</time></trkpt><trkpt lat="59.1035697330" lon="30.4959293548"><ele>299.11</ele><time>2026-08-20T22:16:10Z</time></trkpt><trkpt lat="59.1035675537" lon="30.4959151894"><ele>299.11</ele><time>2026-08-20T22:16:11Z</time></trkpt><trkpt lat="59.1035623569" lon="30.4959001858"><ele>299.11</ele><time>2026-08-20T22:16:12Z</time></trkpt><trkpt lat="59.1035563219" lon="30.4958822485"><ele>299.11</ele><time>2026-08-20T22:16:13Z</time></trkpt><trkpt lat="59.1035435814" lon="30.4958623834"><ele>299.11</ele><time>2026-08-20T22:16:14Z</time></trkpt><trkpt lat="59.1035432462" lon="30.4958430212"><ele>299.11</ele><time>2026-08-20T22:16:15Z</time></trkpt><trkpt lat="59.1035464313" lon="30.4958286881"><ele>299.11</ele><time>2026-08-20T22:16:16Z</time></trkpt><trkpt lat="59.1035478562" lon="30.4958173726"><ele>299.11</ele><time>2026-08-20T22:16:17Z</time></trkpt><trkpt lat="59.1035447549" lon="30.4958011955"><ele>299.11</ele><time>2026-08-20T22:16:18Z</time></trkpt><trkpt lat="59.1035423242" lon="30.4957902990"><ele>299.11</ele><time>2026-08-20T22:16:19Z</time></trkpt><trkpt lat="59.1035407316" lon="30.4957724456"><ele>299.11</ele><time>2026-08-20T22:16:20Z</time></trkpt><trkpt lat="59.1035391390" lon="30.4957530834"><ele>299.11</ele><time>2026-08-20T22:16:21Z</time></trkpt><trkpt lat="59.1035424918" lon="30.4957394209"><ele>299.11</ele><time>2026-08-20T22:16:22Z</time></trkpt><trkpt lat="59.1035441682" lon="30.4957307875"><ele>299.11</ele><time>2026-08-20T22:16:23Z</time></trkpt><trkpt lat="59.1035439167" lon="30.4957203940"><ele>299.11</ele><time>2026-08-20T22:16:24Z</time></trkpt><trkpt lat="59.1035382170" lon="30.4957116768"><ele>299.11</ele><time>2026-08-20T22:16:25Z</time></trkpt><trkpt lat="59.1035382170" lon="30.4957116768"><ele>299.11</ele><time>2026-08-20T22:16:26Z</time></trkpt><trkpt lat="59.1035382170" lon="30.4957116768"><ele>299.11</ele><time>2026-08-20T22:16:27Z</time></trkpt><trkpt lat="59.1035382170" lon="30.4957116768"><ele>299.11</ele><time>2026-08-20T22:16:28Z</time></trkpt><trkpt lat="59.1035382170" lon="30.4957116768"><ele>299.11</ele><time>2026-08-20T22:16:29Z</time></trkpt><trkpt lat="59.1035382170" lon="30.4957116768"><ele>299.11</ele><time>2026-08-20T22:16:30Z</time></trkpt><trkpt lat="59.1035382170" lon="30.4957116768"><ele>299.11</ele><time>2026-08-20T22:16:31Z</time></trkpt><trkpt lat="59.1035382170" lon="30.4957116768"><ele>299.11</ele><time>2026-08-20T22:16:32Z</time></trkpt><trkpt lat="59.1035382170" lon="30.4957116768"><ele>299.11</ele><time>2026-08-20T22:16:33Z</time></trkpt><trkpt lat="59.1035476886" lon="30.4956037179"><ele>299.11</ele><time>2026-08-20T22:16:34Z</time></trkpt><trkpt lat="59.1035490297" lon="30.4955883790"><ele>299.11</ele><time>2026-08-20T22:16:35Z</time></trkpt><trkpt lat="59.1035498679" lon="30.4955654964"><ele>299.11</ele><time>2026-08-20T22:16:36Z</time></trkpt><trkpt lat="59.1035534721" lon="30.4955476429"><ele>299.11</ele><time>2026-08-20T22:16:37Z</time></trkpt><trkpt lat="59.1035584174" lon="30.4955302924"><ele>299.11</ele><time>2026-08-20T22:16:38Z</time></trkpt><trkpt lat="59.1035596747" lon="30.4955110978"><ele>299.11</ele><time>2026-08-20T22:16:39Z</time></trkpt><trkpt lat="59.1035592556" lon="30.4954899754"><ele>299.11</ele><time>2026-08-20T22:16:40Z</time></trkpt><trkpt lat="59.1035612673" lon="30.4954699427"><ele>299.11</ele><time>2026-08-20T22:16:41Z</time></trkpt><trkpt lat="59.1035617702" lon="30.4954451323"><ele>299.11</ele><time>2026-08-20T22:16:42Z</time></trkpt><trkpt lat="59.1035647877" lon="30.4954272788"><ele>299.11</ele><time>2026-08-20T22:16:43Z</time></trkpt><trkpt lat="59.1035651229" lon="30.4954072461"><ele>299.11</ele><time>2026-08-20T22:16:44Z</time></trkpt><trkpt lat="59.1035659611" lon="30.4953887220"><ele>299.11</ele><time>2026-08-20T22:16:45Z</time></trkpt><trkpt lat="59.1035687272" lon="30.4953676835"><ele>299.11</ele><time>2026-08-20T22:16:46Z</time></trkpt><trkpt lat="59.1035702359" lon="30.4953477345"><ele>299.11</ele><time>2026-08-20T22:16:47Z</time></trkpt><trkpt lat="59.1035688948" lon="30.4953263607"><ele>299.11</ele><time>2026-08-20T22:16:48Z</time></trkpt><trkpt lat="59.1035681404" lon="30.4953051545"><ele>299.11</ele><time>2026-08-20T22:16:49Z</time></trkpt><trkpt lat="59.1035694815" lon="30.4952848703"><ele>299.11</ele><time>2026-08-20T22:16:50Z</time></trkpt><trkpt lat="59.1035710741" lon="30.4952625744"><ele>299.11</ele><time>2026-08-20T22:16:51Z</time></trkpt><trkpt lat="59.1035698168" lon="30.4952389374"><ele>299.11</ele><time>2026-08-20T22:16:52Z</time></trkpt><trkpt lat="59.1035682242" lon="30.4952178989"><ele>299.11</ele><time>2026-08-20T22:16:53Z</time></trkpt><trkpt lat="59.1035669670" lon="30.4951922502"><ele>299.11</ele><time>2026-08-20T22:16:54Z</time></trkpt><trkpt lat="59.1035659611" lon="30.4951744806"><ele>299.11</ele><time>2026-08-20T22:16:55Z</time></trkpt><trkpt lat="59.1035692301" lon="30.4951609857"><ele>299.11</ele><time>2026-08-20T22:16:56Z</time></trkpt><trkpt lat="59.1035707388" lon="30.4951400310"><ele>299.11</ele><time>2026-08-20T22:16:57Z</time></trkpt><trkpt lat="59.1035708226" lon="30.4951261170"><ele>299.11</ele><time>2026-08-20T22:16:58Z</time></trkpt><trkpt lat="59.1035695653" lon="30.4951094370"><ele>299.11</ele><time>2026-08-20T22:16:59Z</time></trkpt><trkpt lat="59.1035637818" lon="30.4950963613"><ele>299.11</ele><time>2026-08-20T22:17:00Z</time></trkpt><trkpt lat="59.1035605967" lon="30.4950841237"><ele>299.11</ele><time>2026-08-20T22:17:01Z</time></trkpt><trkpt lat="59.1035586689" lon="30.4950696230"><ele>299.11</ele><time>2026-08-20T22:17:02Z</time></trkpt><trkpt lat="59.1035546456" lon="30.4950462375"><ele>299.11</ele><time>2026-08-20T22:17:03Z</time></trkpt><trkpt lat="59.1035497840" lon="30.4950130451"><ele>299.11</ele><time>2026-08-20T22:17:04Z</time></trkpt><trkpt lat="59.1035440844" lon="30.4949832894"><ele>299.11</ele><time>2026-08-20T22:17:05Z</time></trkpt><trkpt lat="59.1035407316" lon="30.4949678667"><ele>299.11</ele><time>2026-08-20T22:17:06Z</time></trkpt><trkpt lat="59.1035386361" lon="30.4949510191"><ele>299.11</ele><time>2026-08-20T22:17:07Z</time></trkpt><trkpt lat="59.1035368759" lon="30.4949358478"><ele>299.11</ele><time>2026-08-20T22:17:08Z</time></trkpt><trkpt lat="59.1035355348" lon="30.4949173238"><ele>299.11</ele><time>2026-08-20T22:17:09Z</time></trkpt><trkpt lat="59.1035348643" lon="30.4948954470"><ele>299.11</ele><time>2026-08-20T22:17:10Z</time></trkpt><trkpt lat="59.1035353672" lon="30.4948735703"><ele>299.11</ele><time>2026-08-20T22:17:11Z</time></trkpt><trkpt lat="59.1035345290" lon="30.4948514421"><ele>299.11</ele><time>2026-08-20T22:17:12Z</time></trkpt><trkpt lat="59.1035344452" lon="30.4948346782"><ele>299.11</ele><time>2026-08-20T22:17:13Z</time></trkpt><trkpt lat="59.1035343613" lon="30.4948203452"><ele>299.11</ele><time>2026-08-20T22:17:14Z</time></trkpt><trkpt lat="59.1035321821" lon="30.4948035814"><ele>299.11</ele><time>2026-08-20T22:17:15Z</time></trkpt><trkpt lat="59.1035283264" lon="30.4947814532"><ele>299.11</ele><time>2026-08-20T22:17:16Z</time></trkpt><trkpt lat="59.1035245545" lon="30.4947553854"><ele>299.11</ele><time>2026-08-20T22:17:17Z</time></trkpt><trkpt lat="59.1035215370" lon="30.4947294854"><ele>299.11</ele><time>2026-08-20T22:17:18Z</time></trkpt><trkpt lat="59.1035205312" lon="30.4947084468"><ele>299.11</ele><time>2026-08-20T22:17:19Z</time></trkpt><trkpt lat="59.1035197768" lon="30.4946733266"><ele>299.11</ele><time>2026-08-20T22:17:20Z</time></trkpt><trkpt lat="59.1035221238" lon="30.4946450796"><ele>299.11</ele><time>2026-08-20T22:17:21Z</time></trkpt><trkpt lat="59.1035274882" lon="30.4946228676"><ele>299.11</ele><time>2026-08-20T22:17:22Z</time></trkpt><trkpt lat="59.1035336908" lon="30.4946073610"><ele>299.11</ele><time>2026-08-20T22:17:23Z</time></trkpt><trkpt lat="59.1035382170" lon="30.4946001526"><ele>299.11</ele><time>2026-08-20T22:17:24Z</time></trkpt><trkpt lat="59.1035417374" lon="30.4945947882"><ele>299.11</ele><time>2026-08-20T22:17:25Z</time></trkpt><trkpt lat="59.1035438329" lon="30.4945939500"><ele>299.11</ele><time>2026-08-20T22:17:26Z</time></trkpt><trkpt lat="59.1035456769" lon="30.4945944529"><ele>299.11</ele><time>2026-08-20T22:17:27Z</time></trkpt><trkpt lat="59.1035460960" lon="30.4945888370"><ele>299.11</ele><time>2026-08-20T22:17:28Z</time></trkpt><trkpt lat="59.1035460960" lon="30.4945888370"><ele>299.11</ele><time>2026-08-20T22:17:29Z</time></trkpt><trkpt lat="59.1035449225" lon="30.4945577402"><ele>298.63</ele><time>2026-08-20T22:17:30Z</time></trkpt><trkpt lat="59.1035451740" lon="30.4945410602"><ele>298.63</ele><time>2026-08-20T22:17:31Z</time></trkpt><trkpt lat="59.1035439167" lon="30.4945260566"><ele>298.63</ele><time>2026-08-20T22:17:32Z</time></trkpt><trkpt lat="59.1035433300" lon="30.4945094604"><ele>298.63</ele><time>2026-08-20T22:17:33Z</time></trkpt><trkpt lat="59.1035411507" lon="30.4944947921"><ele>298.63</ele><time>2026-08-20T22:17:34Z</time></trkpt><trkpt lat="59.1035432462" lon="30.4944746755"><ele>298.63</ele><time>2026-08-20T22:17:35Z</time></trkpt><trkpt lat="59.1035439167" lon="30.4944561515"><ele>298.63</ele><time>2026-08-20T22:17:36Z</time></trkpt><trkpt lat="59.1035412345" lon="30.4944370408"><ele>299.11</ele><time>2026-08-20T22:17:37Z</time></trkpt><trkpt lat="59.1035386361" lon="30.4944232944"><ele>299.11</ele><time>2026-08-20T22:17:38Z</time></trkpt><trkpt lat="59.1035361215" lon="30.4944123980"><ele>299.11</ele><time>2026-08-20T22:17:39Z</time></trkpt><trkpt lat="59.1035324335" lon="30.4943992384"><ele>299.11</ele><time>2026-08-20T22:17:40Z</time></trkpt><trkpt lat="59.1035277396" lon="30.4943875875"><ele>299.11</ele><time>2026-08-20T22:17:41Z</time></trkpt><trkpt lat="59.1035210341" lon="30.4943749309"><ele>299.11</ele><time>2026-08-20T22:17:42Z</time></trkpt><trkpt lat="59.1035134904" lon="30.4943590891"><ele>299.11</ele><time>2026-08-20T22:17:43Z</time></trkpt><trkpt lat="59.1035041865" lon="30.4943443369"><ele>299.11</ele><time>2026-08-20T22:17:44Z</time></trkpt><trkpt lat="59.1034978162" lon="30.4943310935"><ele>299.11</ele><time>2026-08-20T22:17:45Z</time></trkpt><trkpt lat="59.1034965590" lon="30.4943168443"><ele>299.11</ele><time>2026-08-20T22:17:46Z</time></trkpt><trkpt lat="59.1034949664" lon="30.4943016730"><ele>299.11</ele><time>2026-08-20T22:17:47Z</time></trkpt><trkpt lat="59.1034931224" lon="30.4942849930"><ele>299.11</ele><time>2026-08-20T22:17:48Z</time></trkpt><trkpt lat="59.1034916975" lon="30.4942738451"><ele>299.11</ele><time>2026-08-20T22:17:49Z</time></trkpt><trkpt lat="59.1034853272" lon="30.4942602664"><ele>299.11</ele><time>2026-08-20T22:17:50Z</time></trkpt><trkpt lat="59.1034842376" lon="30.4942424968"><ele>299.11</ele><time>2026-08-20T22:17:51Z</time></trkpt><trkpt lat="59.1034808848" lon="30.4942296725"><ele>299.11</ele><time>2026-08-20T22:17:52Z</time></trkpt><trkpt lat="59.1034825612" lon="30.4942146689"><ele>299.11</ele><time>2026-08-20T22:17:53Z</time></trkpt><trkpt lat="59.1034841537" lon="30.4942040239"><ele>299.11</ele><time>2026-08-20T22:17:54Z</time></trkpt><trkpt lat="59.1034826450" lon="30.4941868410"><ele>299.11</ele><time>2026-08-20T22:17:55Z</time></trkpt><trkpt lat="59.1034803819" lon="30.4941718373"><ele>299.11</ele><time>2026-08-20T22:17:56Z</time></trkpt><trkpt lat="59.1034811363" lon="30.4941540677"><ele>299.11</ele><time>2026-08-20T22:17:57Z</time></trkpt><trkpt lat="59.1034803819" lon="30.4941427521"><ele>299.11</ele><time>2026-08-20T22:17:58Z</time></trkpt><trkpt lat="59.1034803819" lon="30.4941427521"><ele>299.11</ele><time>2026-08-20T22:17:59Z</time></trkpt><trkpt lat="59.1034803819" lon="30.4941427521"><ele>299.11</ele><time>2026-08-20T22:18:00Z</time></trkpt><trkpt lat="59.1034803819" lon="30.4941427521"><ele>299.11</ele><time>2026-08-20T22:18:01Z</time></trkpt><trkpt lat="59.1034803819" lon="30.4941427521"><ele>299.11</ele><time>2026-08-20T22:18:02Z</time></trkpt><trkpt lat="59.1034803819" lon="30.4941427521"><ele>299.11</ele><time>2026-08-20T22:18:03Z</time></trkpt><trkpt lat="59.1034803819" lon="30.4941427521"><ele>299.11</ele><time>2026-08-20T22:18:04Z</time></trkpt><trkpt lat="59.1034803819" lon="30.4941427521"><ele>299.11</ele><time>2026-08-20T22:18:05Z</time></trkpt><trkpt lat="59.1034803819" lon="30.4941427521"><ele>299.11</ele><time>2026-08-20T22:18:06Z</time></trkpt><trkpt lat="59.1034803819" lon="30.4941427521"><ele>299.11</ele><time>2026-08-20T22:18:07Z</time></trkpt><trkpt lat="59.1034803819" lon="30.4941427521"><ele>299.11</ele><time>2026-08-20T22:18:08Z</time></trkpt><trkpt lat="59.1034803819" lon="30.4941427521"><ele>299.11</ele><time>2026-08-20T22:18:09Z</time></trkpt><trkpt lat="59.1034803819" lon="30.4941427521"><ele>298.63</ele><time>2026-08-20T22:18:10Z</time></trkpt><trkpt lat="59.1034803819" lon="30.4941427521"><ele>298.63</ele><time>2026-08-20T22:18:11Z</time></trkpt><trkpt lat="59.1034803819" lon="30.4941427521"><ele>298.63</ele><time>2026-08-20T22:18:12Z</time></trkpt><trkpt lat="59.1034803819" lon="30.4941427521"><ele>298.63</ele><time>2026-08-20T22:18:13Z</time></trkpt><trkpt lat="59.1034803819" lon="30.4941427521"><ele>298.63</ele><time>2026-08-20T22:18:14Z</time></trkpt><trkpt lat="59.1034803819" lon="30.4941427521"><ele>298.63</ele><time>2026-08-20T22:18:15Z</time></trkpt><trkpt lat="59.1034803819" lon="30.4941427521"><ele>298.63</ele><time>2026-08-20T22:18:16Z</time></trkpt><trkpt lat="59.1034803819" lon="30.4941427521"><ele>298.63</ele><time>2026-08-20T22:18:17Z</time></trkpt><trkpt lat="59.1034803819" lon="30.4941427521"><ele>299.11</ele><time>2026-08-20T22:18:18Z</time></trkpt><trkpt lat="59.1034803819" lon="30.4941427521"><ele>299.11</ele><time>2026-08-20T22:18:19Z</time></trkpt><trkpt lat="59.1034803819" lon="30.4941427521"><ele>299.11</ele><time>2026-08-20T22:18:20Z</time></trkpt><trkpt lat="59.1034803819" lon="30.4941427521"><ele>299.11</ele><time>2026-08-20T22:18:21Z</time></trkpt><trkpt lat="59.1034803819" lon="30.4941427521"><ele>299.11</ele><time>2026-08-20T22:18:22Z</time></trkpt><trkpt lat="59.1034803819" lon="30.4941427521"><ele>299.11</ele><time>2026-08-20T22:18:23Z</time></trkpt><trkpt lat="59.1034803819" lon="30.4941427521"><ele>299.11</ele><time>2026-08-20T22:18:24Z</time></trkpt><trkpt lat="59.1034803819" lon="30.4941427521"><ele>299.11</ele><time>2026-08-20T22:18:25Z</time></trkpt><trkpt lat="59.1034803819" lon="30.4941427521"><ele>299.11</ele><time>2026-08-20T22:18:26Z</time></trkpt><trkpt lat="59.1034803819" lon="30.4941427521"><ele>299.11</ele><time>2026-08-20T22:18:27Z</time></trkpt><trkpt lat="59.1034803819" lon="30.4941427521"><ele>299.11</ele><time>2026-08-20T22:18:28Z</time></trkpt><trkpt lat="59.1034803819" lon="30.4941427521"><ele>299.11</ele><time>2026-08-20T22:18:29Z</time></trkpt><trkpt lat="59.1034803819" lon="30.4941427521"><ele>299.11</ele><time>2026-08-20T22:18:30Z</time></trkpt><trkpt lat="59.1034803819" lon="30.4941427521"><ele>299.11</ele><time>2026-08-20T22:18:31Z</time></trkpt><trkpt lat="59.1034803819" lon="30.4941427521"><ele>299.11</ele><time>2026-08-20T22:18:32Z</time></trkpt><trkpt lat="59.1034803819" lon="30.4941427521"><ele>299.11</ele><time>2026-08-20T22:18:33Z</time></trkpt><trkpt lat="59.1034803819" lon="30.4941427521"><ele>299.11</ele><time>2026-08-20T22:18:34Z</time></trkpt><trkpt lat="59.1034803819" lon="30.4941427521"><ele>299.11</ele><time>2026-08-20T22:18:35Z</time></trkpt><trkpt lat="59.1034803819" lon="30.4941427521"><ele>299.11</ele><time>2026-08-20T22:18:36Z</time></trkpt><trkpt lat="59.1034803819" lon="30.4941427521"><ele>299.11</ele><time>2026-08-20T22:18:37Z</time></trkpt><trkpt lat="59.1034803819" lon="30.4941427521"><ele>299.11</ele><time>2026-08-20T22:18:38Z</time></trkpt><trkpt lat="59.1034803819" lon="30.4941427521"><ele>299.11</ele><time>2026-08-20T22:18:39Z</time></trkpt><trkpt lat="59.1034803819" lon="30.4941427521"><ele>299.11</ele><time>2026-08-20T22:18:40Z</time></trkpt><trkpt lat="59.1034803819" lon="30.4941427521"><ele>299.11</ele><time>2026-08-20T22:18:41Z</time></trkpt><trkpt lat="59.1034803819" lon="30.4941427521"><ele>299.11</ele><time>2026-08-20T22:18:42Z</time></trkpt><trkpt lat="59.1034803819" lon="30.4941427521"><ele>299.11</ele><time>2026-08-20T22:18:43Z</time></trkpt><trkpt lat="59.1034803819" lon="30.4941427521"><ele>299.11</ele><time>2026-08-20T22:18:44Z</time></trkpt><trkpt lat="59.1034803819" lon="30.4941427521"><ele>299.11</ele><time>2026-08-20T22:18:45Z</time></trkpt><trkpt lat="59.1034803819" lon="30.4941427521"><ele>299.11</ele><time>2026-08-20T22:18:46Z</time></trkpt><trkpt lat="59.1034803819" lon="30.4941427521"><ele>299.11</ele><time>2026-08-20T22:18:47Z</time></trkpt><trkpt lat="59.1034803819" lon="30.4941427521"><ele>299.11</ele><time>2026-08-20T22:18:48Z</time></trkpt><trkpt lat="59.1034803819" lon="30.4941427521"><ele>299.11</ele><time>2026-08-20T22:18:49Z</time></trkpt><trkpt lat="59.1034803819" lon="30.4941427521"><ele>299.11</ele><time>2026-08-20T22:18:50Z</time></trkpt><trkpt lat="59.1034803819" lon="30.4941427521"><ele>299.11</ele><time>2026-08-20T22:18:51Z</time></trkpt><trkpt lat="59.1034803819" lon="30.4941427521"><ele>299.11</ele><time>2026-08-20T22:18:52Z</time></trkpt><trkpt lat="59.1034803819" lon="30.4941427521"><ele>299.11</ele><time>2026-08-20T22:18:53Z</time></trkpt><trkpt lat="59.1034803819" lon="30.4941427521"><ele>299.11</ele><time>2026-08-20T22:18:54Z</time></trkpt><trkpt lat="59.1034803819" lon="30.4941427521"><ele>299.11</ele><time>2026-08-20T22:18:55Z</time></trkpt><trkpt lat="59.1034803819" lon="30.4941427521"><ele>299.11</ele><time>2026-08-20T22:18:56Z</time></trkpt><trkpt lat="59.1034803819" lon="30.4941427521"><ele>299.11</ele><time>2026-08-20T22:18:57Z</time></trkpt><trkpt lat="59.1034803819" lon="30.4941427521"><ele>299.11</ele><time>2026-08-20T22:18:58Z</time></trkpt><trkpt lat="59.1034803819" lon="30.4941427521"><ele>299.11</ele><time>2026-08-20T22:18:59Z</time></trkpt><trkpt lat="59.1034803819" lon="30.4941427521"><ele>299.11</ele><time>2026-08-20T22:19:00Z</time></trkpt><trkpt lat="59.1034803819" lon="30.4941427521"><ele>299.11</ele><time>2026-08-20T22:19:01Z</time></trkpt><trkpt lat="59.1034803819" lon="30.4941427521"><ele>299.11</ele><time>2026-08-20T22:19:02Z</time></trkpt><trkpt lat="59.1034803819" lon="30.4941427521"><ele>299.11</ele><time>2026-08-20T22:19:03Z</time></trkpt><trkpt lat="59.1034803819" lon="30.4941427521"><ele>299.11</ele><time>2026-08-20T22:19:04Z</time></trkpt><trkpt lat="59.1034803819" lon="30.4941427521"><ele>299.11</ele><time>2026-08-20T22:19:05Z</time></trkpt><trkpt lat="59.1034803819" lon="30.4941427521"><ele>299.11</ele><time>2026-08-20T22:19:06Z</time></trkpt><trkpt lat="59.1034803819" lon="30.4941427521"><ele>299.11</ele><time>2026-08-20T22:19:07Z</time></trkpt><trkpt lat="59.1034803819" lon="30.4941427521"><ele>299.11</ele><time>2026-08-20T22:19:08Z</time></trkpt><trkpt lat="59.1034803819" lon="30.4941427521"><ele>299.11</ele><time>2026-08-20T22:19:09Z</time></trkpt><trkpt lat="59.1034803819" lon="30.4941427521"><ele>299.11</ele><time>2026-08-20T22:19:10Z</time></trkpt><trkpt lat="59.1034803819" lon="30.4941427521"><ele>299.11</ele><time>2026-08-20T22:19:11Z</time></trkpt><trkpt lat="59.1034803819" lon="30.4941427521"><ele>299.11</ele><time>2026-08-20T22:19:12Z</time></trkpt><trkpt lat="59.1034803819" lon="30.4941427521"><ele>299.11</ele><time>2026-08-20T22:19:13Z</time></trkpt><trkpt lat="59.1034803819" lon="30.4941427521"><ele>299.11</ele><time>2026-08-20T22:19:14Z</time></trkpt><trkpt lat="59.1034803819" lon="30.4941427521"><ele>299.11</ele><time>2026-08-20T22:19:15Z</time></trkpt><trkpt lat="59.1034803819" lon="30.4941427521"><ele>299.11</ele><time>2026-08-20T22:19:16Z</time></trkpt><trkpt lat="59.1034803819" lon="30.4941427521"><ele>299.11</ele><time>2026-08-20T22:19:17Z</time></trkpt><trkpt lat="59.1034600977" lon="30.4940119945"><ele>299.11</ele><time>2026-08-20T22:19:18Z</time></trkpt><trkpt lat="59.1034574993" lon="30.4940004274"><ele>299.11</ele><time>2026-08-20T22:19:19Z</time></trkpt><trkpt lat="59.1034553200" lon="30.4939887766"><ele>299.11</ele><time>2026-08-20T22:19:20Z</time></trkpt><trkpt lat="59.1034552362" lon="30.4939729348"><ele>298.63</ele><time>2026-08-20T22:19:21Z</time></trkpt><trkpt lat="59.1034554876" lon="30.4939538240"><ele>298.63</ele><time>2026-08-20T22:19:22Z</time></trkpt><trkpt lat="59.1034553200" lon="30.4939336237"><ele>298.63</ele><time>2026-08-20T22:19:23Z</time></trkpt><trkpt lat="59.1034537274" lon="30.4939124174"><ele>298.63</ele><time>2026-08-20T22:19:24Z</time></trkpt><trkpt lat="59.1034539789" lon="30.4939009342"><ele>298.63</ele><time>2026-08-20T22:19:25Z</time></trkpt><trkpt lat="59.1034535598" lon="30.4938937258"><ele>298.63</ele><time>2026-08-20T22:19:26Z</time></trkpt><trkpt lat="59.1034542304" lon="30.4938923847"><ele>299.11</ele><time>2026-08-20T22:19:27Z</time></trkpt><trkpt lat="59.1034549847" lon="30.4938897863"><ele>299.11</ele><time>2026-08-20T22:19:28Z</time></trkpt><trkpt lat="59.1034549847" lon="30.4938897863"><ele>299.11</ele><time>2026-08-20T22:19:29Z</time></trkpt><trkpt lat="59.1034549847" lon="30.4938897863"><ele>299.11</ele><time>2026-08-20T22:19:30Z</time></trkpt><trkpt lat="59.1034549847" lon="30.4938897863"><ele>299.11</ele><time>2026-08-20T22:19:31Z</time></trkpt><trkpt lat="59.1034549847" lon="30.4938897863"><ele>299.11</ele><time>2026-08-20T22:19:32Z</time></trkpt><trkpt lat="59.1034549847" lon="30.4938897863"><ele>299.11</ele><time>2026-08-20T22:19:33Z</time></trkpt><trkpt lat="59.1034574993" lon="30.4938466195"><ele>299.11</ele><time>2026-08-20T22:19:34Z</time></trkpt><trkpt lat="59.1034591757" lon="30.4938271735"><ele>299.11</ele><time>2026-08-20T22:19:35Z</time></trkpt><trkpt lat="59.1034570802" lon="30.4938048776"><ele>299.11</ele><time>2026-08-20T22:19:36Z</time></trkpt><trkpt lat="59.1034541465" lon="30.4937844258"><ele>299.11</ele><time>2026-08-20T22:19:37Z</time></trkpt><trkpt lat="59.1034522187" lon="30.4937690869"><ele>299.11</ele><time>2026-08-20T22:19:38Z</time></trkpt><trkpt lat="59.1034520511" lon="30.4937507305"><ele>299.11</ele><time>2026-08-20T22:19:39Z</time></trkpt><trkpt lat="59.1034517996" lon="30.4937300272"><ele>299.11</ele><time>2026-08-20T22:19:40Z</time></trkpt><trkpt lat="59.1034511290" lon="30.4937119223"><ele>299.11</ele><time>2026-08-20T22:19:41Z</time></trkpt><trkpt lat="59.1034481954" lon="30.4936900456"><ele>299.11</ele><time>2026-08-20T22:19:42Z</time></trkpt><trkpt lat="59.1034440883" lon="30.4936709348"><ele>299.11</ele><time>2026-08-20T22:19:43Z</time></trkpt><trkpt lat="59.1034423281" lon="30.4936545901"><ele>299.11</ele><time>2026-08-20T22:19:44Z</time></trkpt><trkpt lat="59.1034406517" lon="30.4936381616"><ele>299.11</ele><time>2026-08-20T22:19:45Z</time></trkpt><trkpt lat="59.1034355387" lon="30.4936156981"><ele>299.11</ele><time>2026-08-20T22:19:46Z</time></trkpt><trkpt lat="59.1034326889" lon="30.4935994372"><ele>299.11</ele><time>2026-08-20T22:19:47Z</time></trkpt><trkpt lat="59.1034282465" lon="30.4935763869"><ele>299.11</ele><time>2026-08-20T22:19:48Z</time></trkpt><trkpt lat="59.1034252290" lon="30.4935522471"><ele>299.11</ele><time>2026-08-20T22:19:49Z</time></trkpt><trkpt lat="59.1034242231" lon="30.4935317952"><ele>299.11</ele><time>2026-08-20T22:19:50Z</time></trkpt><trkpt lat="59.1034245584" lon="30.4935086612"><ele>299.11</ele><time>2026-08-20T22:19:51Z</time></trkpt><trkpt lat="59.1034245584" lon="30.4934881255"><ele>298.63</ele><time>2026-08-20T22:19:52Z</time></trkpt><trkpt lat="59.1034237202" lon="30.4934681766"><ele>298.63</ele><time>2026-08-20T22:19:53Z</time></trkpt><trkpt lat="59.1034217924" lon="30.4934432823"><ele>298.63</ele><time>2026-08-20T22:19:54Z</time></trkpt><trkpt lat="59.1034220438" lon="30.4934202321"><ele>298.63</ele><time>2026-08-20T22:19:55Z</time></trkpt><trkpt lat="59.1034241393" lon="30.4934019595"><ele>298.63</ele><time>2026-08-20T22:19:56Z</time></trkpt><trkpt lat="59.1034261510" lon="30.4933831841"><ele>298.63</ele><time>2026-08-20T22:19:57Z</time></trkpt><trkpt lat="59.1034302581" lon="30.4933649953"><ele>298.63</ele><time>2026-08-20T22:19:58Z</time></trkpt><trkpt lat="59.1034326889" lon="30.4933467228"><ele>298.63</ele><time>2026-08-20T22:19:59Z</time></trkpt><trkpt lat="59.1034341976" lon="30.4933278635"><ele>298.63</ele><time>2026-08-20T22:20:00Z</time></trkpt><trkpt lat="59.1034388915" lon="30.4933133628"><ele>298.63</ele><time>2026-08-20T22:20:01Z</time></trkpt><trkpt lat="59.1034413222" lon="30.4932991974"><ele>298.63</ele><time>2026-08-20T22:20:02Z</time></trkpt><trkpt lat="59.1034458485" lon="30.4932816792"><ele>298.63</ele><time>2026-08-20T22:20:03Z</time></trkpt><trkpt lat="59.1034486983" lon="30.4932652507"><ele>298.63</ele><time>2026-08-20T22:20:04Z</time></trkpt><trkpt lat="59.1034502909" lon="30.4932539351"><ele>298.63</ele><time>2026-08-20T22:20:05Z</time></trkpt><trkpt lat="59.1034501232" lon="30.4932422843"><ele>298.63</ele><time>2026-08-20T22:20:06Z</time></trkpt><trkpt lat="59.1034477763" lon="30.4932309687"><ele>298.63</ele><time>2026-08-20T22:20:07Z</time></trkpt><trkpt lat="59.1034464352" lon="30.4932200722"><ele>298.63</ele><time>2026-08-20T22:20:08Z</time></trkpt><trkpt lat="59.1034432501" lon="30.4932069965"><ele>298.63</ele><time>2026-08-20T22:20:09Z</time></trkpt><trkpt lat="59.1034417413" lon="30.4931916576"><ele>298.63</ele><time>2026-08-20T22:20:10Z</time></trkpt><trkpt lat="59.1034413222" lon="30.4931756482"><ele>298.63</ele><time>2026-08-20T22:20:11Z</time></trkpt><trkpt lat="59.1034421604" lon="30.4931562860"><ele>298.63</ele><time>2026-08-20T22:20:12Z</time></trkpt><trkpt lat="59.1034419928" lon="30.4931356665"><ele>298.63</ele><time>2026-08-20T22:20:13Z</time></trkpt><trkpt lat="59.1034419928" lon="30.4931190703"><ele>298.63</ele><time>2026-08-20T22:20:14Z</time></trkpt><trkpt lat="59.1034404840" lon="30.4931037314"><ele>298.63</ele><time>2026-08-20T22:20:15Z</time></trkpt><trkpt lat="59.1034393944" lon="30.4930932540"><ele>298.63</ele><time>2026-08-20T22:20:16Z</time></trkpt><trkpt lat="59.1034398973" lon="30.4930721316"><ele>298.63</ele><time>2026-08-20T22:20:17Z</time></trkpt><trkpt lat="59.1034373827" lon="30.4930647556"><ele>298.63</ele><time>2026-08-20T22:20:18Z</time></trkpt><trkpt lat="59.1034361254" lon="30.4930490814"><ele>298.63</ele><time>2026-08-20T22:20:19Z</time></trkpt><trkpt lat="59.1034332756" lon="30.4930412862"><ele>299.11</ele><time>2026-08-20T22:20:20Z</time></trkpt><trkpt lat="59.1034291685" lon="30.4930410348"><ele>298.63</ele><time>2026-08-20T22:20:21Z</time></trkpt><trkpt lat="59.1034285817" lon="30.4930368438"><ele>298.63</ele><time>2026-08-20T22:20:22Z</time></trkpt><trkpt lat="59.1034254804" lon="30.4930337425"><ele>298.63</ele><time>2026-08-20T22:20:23Z</time></trkpt><trkpt lat="59.1034202836" lon="30.4930450581"><ele>298.63</ele><time>2026-08-20T22:20:24Z</time></trkpt><trkpt lat="59.1034202836" lon="30.4930450581"><ele>298.63</ele><time>2026-08-20T22:20:25Z</time></trkpt><trkpt lat="59.1034202836" lon="30.4930450581"><ele>298.63</ele><time>2026-08-20T22:20:26Z</time></trkpt><trkpt lat="59.1034202836" lon="30.4930450581"><ele>298.63</ele><time>2026-08-20T22:20:27Z</time></trkpt><trkpt lat="59.1034202836" lon="30.4930450581"><ele>298.63</ele><time>2026-08-20T22:20:28Z</time></trkpt><trkpt lat="59.1034159251" lon="30.4929978680"><ele>298.63</ele><time>2026-08-20T22:20:29Z</time></trkpt><trkpt lat="59.1034152545" lon="30.4929782543"><ele>299.11</ele><time>2026-08-20T22:20:30Z</time></trkpt><trkpt lat="59.1034148354" lon="30.4929558747"><ele>299.11</ele><time>2026-08-20T22:20:31Z</time></trkpt><trkpt lat="59.1034155898" lon="30.4929344170"><ele>299.11</ele><time>2026-08-20T22:20:32Z</time></trkpt><trkpt lat="59.1034170985" lon="30.4929143842"><ele>299.11</ele><time>2026-08-20T22:20:33Z</time></trkpt><trkpt lat="59.1034177691" lon="30.4928918369"><ele>299.11</ele><time>2026-08-20T22:20:34Z</time></trkpt><trkpt lat="59.1034170985" lon="30.4928691220"><ele>299.11</ele><time>2026-08-20T22:20:35Z</time></trkpt><trkpt lat="59.1034161765" lon="30.4928499274"><ele>299.11</ele><time>2026-08-20T22:20:36Z</time></trkpt><trkpt lat="59.1034157574" lon="30.4928313196"><ele>299.11</ele><time>2026-08-20T22:20:37Z</time></trkpt><trkpt lat="59.1034148354" lon="30.4928159807"><ele>299.11</ele><time>2026-08-20T22:20:38Z</time></trkpt><trkpt lat="59.1034139972" lon="30.4928087723"><ele>299.11</ele><time>2026-08-20T22:20:39Z</time></trkpt><trkpt lat="59.1034130752" lon="30.4928020667"><ele>299.11</ele><time>2026-08-20T22:20:40Z</time></trkpt><trkpt lat="59.1034101415" lon="30.4927881528"><ele>299.11</ele><time>2026-08-20T22:20:41Z</time></trkpt><trkpt lat="59.1034070402" lon="30.4927694611"><ele>299.11</ele><time>2026-08-20T22:20:42Z</time></trkpt><trkpt lat="59.1034074593" lon="30.4927501827"><ele>299.11</ele><time>2026-08-20T22:20:43Z</time></trkpt><trkpt lat="59.1034023464" lon="30.4927259590"><ele>299.11</ele><time>2026-08-20T22:20:44Z</time></trkpt><trkpt lat="59.1033984907" lon="30.4927024897"><ele>299.11</ele><time>2026-08-20T22:20:45Z</time></trkpt><trkpt lat="59.1033972334" lon="30.4926832952"><ele>299.11</ele><time>2026-08-20T22:20:46Z</time></trkpt><trkpt lat="59.1033956409" lon="30.4926601611"><ele>299.11</ele><time>2026-08-20T22:20:47Z</time></trkpt><trkpt lat="59.1033940483" lon="30.4926390387"><ele>299.11</ele><time>2026-08-20T22:20:48Z</time></trkpt><trkpt lat="59.1033923719" lon="30.4926199280"><ele>299.11</ele><time>2026-08-20T22:20:49Z</time></trkpt><trkpt lat="59.1033897735" lon="30.4926010687"><ele>299.11</ele><time>2026-08-20T22:20:50Z</time></trkpt><trkpt lat="59.1033878457" lon="30.4925825447"><ele>299.11</ele><time>2026-08-20T22:20:51Z</time></trkpt><trkpt lat="59.1033862531" lon="30.4925630987"><ele>299.11</ele><time>2026-08-20T22:20:52Z</time></trkpt><trkpt lat="59.1033840738" lon="30.4925445747"><ele>299.11</ele><time>2026-08-20T22:20:53Z</time></trkpt><trkpt lat="59.1033859178" lon="30.4925256316"><ele>299.11</ele><time>2026-08-20T22:20:54Z</time></trkpt><trkpt lat="59.1033879295" lon="30.4925083648"><ele>299.11</ele><time>2026-08-20T22:20:55Z</time></trkpt><trkpt lat="59.1033877619" lon="30.4924901761"><ele>299.11</ele><time>2026-08-20T22:20:56Z</time></trkpt><trkpt lat="59.1033866722" lon="30.4924679641"><ele>299.11</ele><time>2026-08-20T22:20:57Z</time></trkpt><trkpt lat="59.1033864208" lon="30.4924466740"><ele>299.11</ele><time>2026-08-20T22:20:58Z</time></trkpt><trkpt lat="59.1033853311" lon="30.4924258869"><ele>299.11</ele><time>2026-08-20T22:20:59Z</time></trkpt><trkpt lat="59.1033836547" lon="30.4924068600"><ele>299.11</ele><time>2026-08-20T22:21:00Z</time></trkpt><trkpt lat="59.1033818945" lon="30.4923908506"><ele>299.11</ele><time>2026-08-20T22:21:01Z</time></trkpt><trkpt lat="59.1033855826" lon="30.4923741706"><ele>299.11</ele><time>2026-08-20T22:21:02Z</time></trkpt><trkpt lat="59.1033853311" lon="30.4923562333"><ele>298.63</ele><time>2026-08-20T22:21:03Z</time></trkpt><trkpt lat="59.1033822298" lon="30.4923398886"><ele>298.63</ele><time>2026-08-20T22:21:04Z</time></trkpt><trkpt lat="59.1033787932" lon="30.4923195206"><ele>298.63</ele><time>2026-08-20T22:21:05Z</time></trkpt><trkpt lat="59.1033788770" lon="30.4923031759"><ele>298.63</ele><time>2026-08-20T22:21:06Z</time></trkpt><trkpt lat="59.1033748537" lon="30.4922841489"><ele>298.63</ele><time>2026-08-20T22:21:07Z</time></trkpt><trkpt lat="59.1033728421" lon="30.4922645353"><ele>298.63</ele><time>2026-08-20T22:21:08Z</time></trkpt><trkpt lat="59.1033712495" lon="30.4922491964"><ele>298.63</ele><time>2026-08-20T22:21:09Z</time></trkpt><trkpt lat="59.1033709981" lon="30.4922332708"><ele>298.63</ele><time>2026-08-20T22:21:10Z</time></trkpt><trkpt lat="59.1033703275" lon="30.4922170937"><ele>298.63</ele><time>2026-08-20T22:21:11Z</time></trkpt><trkpt lat="59.1033696570" lon="30.4921985697"><ele>298.63</ele><time>2026-08-20T22:21:12Z</time></trkpt><trkpt lat="59.1033711657" lon="30.4921781179"><ele>298.63</ele><time>2026-08-20T22:21:13Z</time></trkpt><trkpt lat="59.1033709981" lon="30.4921571631"><ele>298.63</ele><time>2026-08-20T22:21:14Z</time></trkpt><trkpt lat="59.1033704951" lon="30.4921400640"><ele>299.11</ele><time>2026-08-20T22:21:15Z</time></trkpt><trkpt lat="59.1033674777" lon="30.4921196960"><ele>299.11</ele><time>2026-08-20T22:21:16Z</time></trkpt><trkpt lat="59.1033650469" lon="30.4920958914"><ele>299.11</ele><time>2026-08-20T22:21:17Z</time></trkpt><trkpt lat="59.1033624485" lon="30.4920720868"><ele>299.11</ele><time>2026-08-20T22:21:18Z</time></trkpt><trkpt lat="59.1033606883" lon="30.4920514673"><ele>299.11</ele><time>2026-08-20T22:21:19Z</time></trkpt><trkpt lat="59.1033605207" lon="30.4920332786"><ele>299.11</ele><time>2026-08-20T22:21:20Z</time></trkpt><trkpt lat="59.1033620294" lon="30.4920154251"><ele>299.11</ele><time>2026-08-20T22:21:21Z</time></trkpt><trkpt lat="59.1033619456" lon="30.4919944704"><ele>299.11</ele><time>2026-08-20T22:21:22Z</time></trkpt><trkpt lat="59.1033589281" lon="30.4919726774"><ele>299.11</ele><time>2026-08-20T22:21:23Z</time></trkpt><trkpt lat="59.1033583414" lon="30.4919522256"><ele>299.11</ele><time>2026-08-20T22:21:24Z</time></trkpt><trkpt lat="59.1033546533" lon="30.4919312708"><ele>299.11</ele><time>2026-08-20T22:21:25Z</time></trkpt><trkpt lat="59.1033537313" lon="30.4919078853"><ele>299.11</ele><time>2026-08-20T22:21:26Z</time></trkpt><trkpt lat="59.1033549886" lon="30.4918876849"><ele>299.11</ele><time>2026-08-20T22:21:27Z</time></trkpt><trkpt lat="59.1033505462" lon="30.4918679874"><ele>299.11</ele><time>2026-08-20T22:21:28Z</time></trkpt><trkpt lat="59.1033461876" lon="30.4918448534"><ele>299.11</ele><time>2026-08-20T22:21:29Z</time></trkpt><trkpt lat="59.1033432540" lon="30.4918239824"><ele>299.11</ele><time>2026-08-20T22:21:30Z</time></trkpt><trkpt lat="59.1033410747" lon="30.4918030277"><ele>299.11</ele><time>2026-08-20T22:21:31Z</time></trkpt><trkpt lat="59.1033401527" lon="30.4917820729"><ele>299.11</ele><time>2026-08-20T22:21:32Z</time></trkpt><trkpt lat="59.1033377219" lon="30.4917603638"><ele>299.11</ele><time>2026-08-20T22:21:33Z</time></trkpt><trkpt lat="59.1033377219" lon="30.4917421751"><ele>299.11</ele><time>2026-08-20T22:21:34Z</time></trkpt><trkpt lat="59.1033402365" lon="30.4917218909"><ele>299.11</ele><time>2026-08-20T22:21:35Z</time></trkpt><trkpt lat="59.1033444274" lon="30.4916985892"><ele>299.11</ele><time>2026-08-20T22:21:36Z</time></trkpt><trkpt lat="59.1033401527" lon="30.4916683305"><ele>299.11</ele><time>2026-08-20T22:21:37Z</time></trkpt><trkpt lat="59.1033384763" lon="30.4916430172"><ele>299.11</ele><time>2026-08-20T22:21:38Z</time></trkpt><trkpt lat="59.1033385601" lon="30.4916253313"><ele>299.11</ele><time>2026-08-20T22:21:39Z</time></trkpt><trkpt lat="59.1033400688" lon="30.4916088190"><ele>299.11</ele><time>2026-08-20T22:21:40Z</time></trkpt><trkpt lat="59.1033419967" lon="30.4915901273"><ele>299.11</ele><time>2026-08-20T22:21:41Z</time></trkpt><trkpt lat="59.1033424996" lon="30.4915747885"><ele>299.11</ele><time>2026-08-20T22:21:42Z</time></trkpt><trkpt lat="59.1033412423" lon="30.4915616289"><ele>299.11</ele><time>2026-08-20T22:21:43Z</time></trkpt><trkpt lat="59.1033388954" lon="30.4915479664"><ele>299.11</ele><time>2026-08-20T22:21:44Z</time></trkpt><trkpt lat="59.1033347882" lon="30.4915341362"><ele>299.11</ele><time>2026-08-20T22:21:45Z</time></trkpt><trkpt lat="59.1033343691" lon="30.4915179592"><ele>299.11</ele><time>2026-08-20T22:21:46Z</time></trkpt><trkpt lat="59.1033327766" lon="30.4915077332"><ele>299.11</ele><time>2026-08-20T22:21:47Z</time></trkpt><trkpt lat="59.1033304296" lon="30.4914904665"><ele>299.11</ele><time>2026-08-20T22:21:48Z</time></trkpt><trkpt lat="59.1033298429" lon="30.4914742894"><ele>299.11</ele><time>2026-08-20T22:21:49Z</time></trkpt><trkpt lat="59.1033314355" lon="30.4914559331"><ele>299.11</ele><time>2026-08-20T22:21:50Z</time></trkpt><trkpt lat="59.1033314355" lon="30.4914383311"><ele>299.11</ele><time>2026-08-20T22:21:51Z</time></trkpt><trkpt lat="59.1033320222" lon="30.4914211482"><ele>299.11</ele><time>2026-08-20T22:21:52Z</time></trkpt><trkpt lat="59.1033330280" lon="30.4914075695"><ele>299.11</ele><time>2026-08-20T22:21:53Z</time></trkpt><trkpt lat="59.1033339500" lon="30.4913875367"><ele>298.63</ele><time>2026-08-20T22:21:54Z</time></trkpt><trkpt lat="59.1033356264" lon="30.4913685936"><ele>298.63</ele><time>2026-08-20T22:21:55Z</time></trkpt><trkpt lat="59.1033361293" lon="30.4913532548"><ele>298.63</ele><time>2026-08-20T22:21:56Z</time></trkpt><trkpt lat="59.1033346206" lon="30.4913378321"><ele>298.63</ele><time>2026-08-20T22:21:57Z</time></trkpt><trkpt lat="59.1033338662" lon="30.4913254268"><ele>298.63</ele><time>2026-08-20T22:21:58Z</time></trkpt><trkpt lat="59.1033293400" lon="30.4913026281"><ele>298.63</ele><time>2026-08-20T22:21:59Z</time></trkpt><trkpt lat="59.1033254843" lon="30.4912918992"><ele>298.63</ele><time>2026-08-20T22:22:00Z</time></trkpt><trkpt lat="59.1033233888" lon="30.4912828468"><ele>298.63</ele><time>2026-08-20T22:22:01Z</time></trkpt><trkpt lat="59.1033202875" lon="30.4912716988"><ele>298.63</ele><time>2026-08-20T22:22:02Z</time></trkpt><trkpt lat="59.1033142526" lon="30.4912633169"><ele>298.63</ele><time>2026-08-20T22:22:03Z</time></trkpt><trkpt lat="59.1033134982" lon="30.4912557732"><ele>298.63</ele><time>2026-08-20T22:22:04Z</time></trkpt><trkpt lat="59.1033126600" lon="30.4912470561"><ele>298.63</ele><time>2026-08-20T22:22:05Z</time></trkpt><trkpt lat="59.1033129953" lon="30.4912379198"><ele>298.63</ele><time>2026-08-20T22:22:06Z</time></trkpt><trkpt lat="59.1033129953" lon="30.4912379198"><ele>298.63</ele><time>2026-08-20T22:22:07Z</time></trkpt><trkpt lat="59.1033102293" lon="30.4912046436"><ele>298.63</ele><time>2026-08-20T22:22:08Z</time></trkpt><trkpt lat="59.1033157613" lon="30.4911902267"><ele>298.63</ele><time>2026-08-20T22:22:09Z</time></trkpt><trkpt lat="59.1033211257" lon="30.4911763966"><ele>298.63</ele><time>2026-08-20T22:22:10Z</time></trkpt><trkpt lat="59.1033228859" lon="30.4911565315"><ele>298.63</ele><time>2026-08-20T22:22:11Z</time></trkpt><trkpt lat="59.1033247299" lon="30.4911376722"><ele>298.63</ele><time>2026-08-20T22:22:12Z</time></trkpt><trkpt lat="59.1033244785" lon="30.4911164660"><ele>298.63</ele><time>2026-08-20T22:22:13Z</time></trkpt><trkpt lat="59.1033229697" lon="30.4910943378"><ele>298.63</ele><time>2026-08-20T22:22:14Z</time></trkpt><trkpt lat="59.1033226345" lon="30.4910744727"><ele>298.63</ele><time>2026-08-20T22:22:15Z</time></trkpt><trkpt lat="59.1033238918" lon="30.4910560325"><ele>298.63</ele><time>2026-08-20T22:22:16Z</time></trkpt><trkpt lat="59.1033267416" lon="30.4910370894"><ele>298.63</ele><time>2026-08-20T22:22:17Z</time></trkpt><trkpt lat="59.1033304296" lon="30.4910145421"><ele>298.63</ele><time>2026-08-20T22:22:18Z</time></trkpt><trkpt lat="59.1033310164" lon="30.4909967724"><ele>298.63</ele><time>2026-08-20T22:22:19Z</time></trkpt><trkpt lat="59.1033296753" lon="30.4909776617"><ele>298.63</ele><time>2026-08-20T22:22:20Z</time></trkpt><trkpt lat="59.1033256520" lon="30.4909530189"><ele>298.63</ele><time>2026-08-20T22:22:21Z</time></trkpt><trkpt lat="59.1033244785" lon="30.4909292981"><ele>298.63</ele><time>2026-08-20T22:22:22Z</time></trkpt><trkpt lat="59.1033246461" lon="30.4909121990"><ele>298.63</ele><time>2026-08-20T22:22:23Z</time></trkpt><trkpt lat="59.1033241432" lon="30.4908949323"><ele>298.63</ele><time>2026-08-20T22:22:24Z</time></trkpt><trkpt lat="59.1033224668" lon="30.4908775818"><ele>298.63</ele><time>2026-08-20T22:22:25Z</time></trkpt><trkpt lat="59.1033194494" lon="30.4908626620"><ele>298.63</ele><time>2026-08-20T22:22:26Z</time></trkpt><trkpt lat="59.1033206228" lon="30.4908527713"><ele>298.63</ele><time>2026-08-20T22:22:27Z</time></trkpt><trkpt lat="59.1033232212" lon="30.4908444732"><ele>298.63</ele><time>2026-08-20T22:22:28Z</time></trkpt><trkpt lat="59.1033244785" lon="30.4908322357"><ele>298.63</ele><time>2026-08-20T22:22:29Z</time></trkpt><trkpt lat="59.1033211257" lon="30.4908169806"><ele>298.63</ele><time>2026-08-20T22:22:30Z</time></trkpt><trkpt lat="59.1033228859" lon="30.4908088502"><ele>298.63</ele><time>2026-08-20T22:22:31Z</time></trkpt><trkpt lat="59.1033253167" lon="30.4908036534"><ele>298.63</ele><time>2026-08-20T22:22:32Z</time></trkpt><trkpt lat="59.1033257358" lon="30.4908009712"><ele>299.11</ele><time>2026-08-20T22:22:33Z</time></trkpt><trkpt lat="59.1033256520" lon="30.4907995462"><ele>299.11</ele><time>2026-08-20T22:22:34Z</time></trkpt><trkpt lat="59.1033256520" lon="30.4907995462"><ele>299.11</ele><time>2026-08-20T22:22:35Z</time></trkpt><trkpt lat="59.1033256520" lon="30.4907995462"><ele>299.11</ele><time>2026-08-20T22:22:36Z</time></trkpt><trkpt lat="59.1033256520" lon="30.4907995462"><ele>299.11</ele><time>2026-08-20T22:22:37Z</time></trkpt><trkpt lat="59.1033256520" lon="30.4907995462"><ele>299.11</ele><time>2026-08-20T22:22:38Z</time></trkpt><trkpt lat="59.1033256520" lon="30.4907995462"><ele>299.11</ele><time>2026-08-20T22:22:39Z</time></trkpt><trkpt lat="59.1033256520" lon="30.4907995462"><ele>299.11</ele><time>2026-08-20T22:22:40Z</time></trkpt><trkpt lat="59.1033256520" lon="30.4907995462"><ele>298.63</ele><time>2026-08-20T22:22:41Z</time></trkpt><trkpt lat="59.1033256520" lon="30.4907995462"><ele>298.63</ele><time>2026-08-20T22:22:42Z</time></trkpt><trkpt lat="59.1033256520" lon="30.4907995462"><ele>298.63</ele><time>2026-08-20T22:22:43Z</time></trkpt><trkpt lat="59.1033256520" lon="30.4907995462"><ele>298.63</ele><time>2026-08-20T22:22:44Z</time></trkpt><trkpt lat="59.1033256520" lon="30.4907995462"><ele>298.63</ele><time>2026-08-20T22:22:45Z</time></trkpt><trkpt lat="59.1033256520" lon="30.4907995462"><ele>298.63</ele><time>2026-08-20T22:22:46Z</time></trkpt><trkpt lat="59.1033256520" lon="30.4907995462"><ele>298.63</ele><time>2026-08-20T22:22:47Z</time></trkpt><trkpt lat="59.1033256520" lon="30.4907995462"><ele>298.63</ele><time>2026-08-20T22:22:48Z</time></trkpt><trkpt lat="59.1033256520" lon="30.4907995462"><ele>298.63</ele><time>2026-08-20T22:22:49Z</time></trkpt><trkpt lat="59.1033256520" lon="30.4907995462"><ele>298.63</ele><time>2026-08-20T22:22:50Z</time></trkpt><trkpt lat="59.1033256520" lon="30.4907995462"><ele>298.63</ele><time>2026-08-20T22:22:51Z</time></trkpt><trkpt lat="59.1033256520" lon="30.4907995462"><ele>298.63</ele><time>2026-08-20T22:22:52Z</time></trkpt><trkpt lat="59.1033256520" lon="30.4907995462"><ele>298.63</ele><time>2026-08-20T22:22:53Z</time></trkpt><trkpt lat="59.1033256520" lon="30.4907995462"><ele>298.63</ele><time>2026-08-20T22:22:54Z</time></trkpt><trkpt lat="59.1033256520" lon="30.4907995462"><ele>298.63</ele><time>2026-08-20T22:22:55Z</time></trkpt><trkpt lat="59.1033256520" lon="30.4907995462"><ele>298.63</ele><time>2026-08-20T22:22:56Z</time></trkpt><trkpt lat="59.1033256520" lon="30.4907995462"><ele>298.63</ele><time>2026-08-20T22:22:57Z</time></trkpt><trkpt lat="59.1033256520" lon="30.4907995462"><ele>298.63</ele><time>2026-08-20T22:22:58Z</time></trkpt><trkpt lat="59.1033256520" lon="30.4907995462"><ele>298.63</ele><time>2026-08-20T22:22:59Z</time></trkpt><trkpt lat="59.1033256520" lon="30.4907995462"><ele>298.63</ele><time>2026-08-20T22:23:00Z</time></trkpt><trkpt lat="59.1033256520" lon="30.4907995462"><ele>298.63</ele><time>2026-08-20T22:23:01Z</time></trkpt><trkpt lat="59.1033256520" lon="30.4907995462"><ele>298.63</ele><time>2026-08-20T22:23:02Z</time></trkpt><trkpt lat="59.1033256520" lon="30.4907995462"><ele>298.63</ele><time>2026-08-20T22:23:03Z</time></trkpt><trkpt lat="59.1033256520" lon="30.4907995462"><ele>298.63</ele><time>2026-08-20T22:23:04Z</time></trkpt><trkpt lat="59.1033256520" lon="30.4907995462"><ele>298.63</ele><time>2026-08-20T22:23:05Z</time></trkpt><trkpt lat="59.1033256520" lon="30.4907995462"><ele>298.63</ele><time>2026-08-20T22:23:06Z</time></trkpt><trkpt lat="59.1033256520" lon="30.4907995462"><ele>298.63</ele><time>2026-08-20T22:23:07Z</time></trkpt><trkpt lat="59.1033256520" lon="30.4907995462"><ele>298.63</ele><time>2026-08-20T22:23:08Z</time></trkpt><trkpt lat="59.1033256520" lon="30.4907995462"><ele>298.63</ele><time>2026-08-20T22:23:09Z</time></trkpt><trkpt lat="59.1033256520" lon="30.4907995462"><ele>298.63</ele><time>2026-08-20T22:23:10Z</time></trkpt><trkpt lat="59.1033256520" lon="30.4907995462"><ele>298.63</ele><time>2026-08-20T22:23:11Z</time></trkpt><trkpt lat="59.1033256520" lon="30.4907995462"><ele>298.63</ele><time>2026-08-20T22:23:12Z</time></trkpt><trkpt lat="59.1033256520" lon="30.4907995462"><ele>298.63</ele><time>2026-08-20T22:23:13Z</time></trkpt><trkpt lat="59.1033256520" lon="30.4907995462"><ele>298.63</ele><time>2026-08-20T22:23:14Z</time></trkpt><trkpt lat="59.1033256520" lon="30.4907995462"><ele>298.63</ele><time>2026-08-20T22:23:15Z</time></trkpt><trkpt lat="59.1033256520" lon="30.4907995462"><ele>298.63</ele><time>2026-08-20T22:23:16Z</time></trkpt><trkpt lat="59.1033256520" lon="30.4907995462"><ele>298.63</ele><time>2026-08-20T22:23:17Z</time></trkpt><trkpt lat="59.1033256520" lon="30.4907995462"><ele>298.63</ele><time>2026-08-20T22:23:18Z</time></trkpt><trkpt lat="59.1033256520" lon="30.4907995462"><ele>298.63</ele><time>2026-08-20T22:23:19Z</time></trkpt><trkpt lat="59.1033256520" lon="30.4907995462"><ele>298.63</ele><time>2026-08-20T22:23:20Z</time></trkpt><trkpt lat="59.1033256520" lon="30.4907995462"><ele>298.63</ele><time>2026-08-20T22:23:21Z</time></trkpt><trkpt lat="59.1033256520" lon="30.4907995462"><ele>298.63</ele><time>2026-08-20T22:23:22Z</time></trkpt><trkpt lat="59.1033256520" lon="30.4907995462"><ele>298.63</ele><time>2026-08-20T22:23:23Z</time></trkpt><trkpt lat="59.1033256520" lon="30.4907995462"><ele>298.63</ele><time>2026-08-20T22:23:24Z</time></trkpt><trkpt lat="59.1033256520" lon="30.4907995462"><ele>298.63</ele><time>2026-08-20T22:23:25Z</time></trkpt><trkpt lat="59.1033256520" lon="30.4907995462"><ele>298.63</ele><time>2026-08-20T22:23:26Z</time></trkpt><trkpt lat="59.1033256520" lon="30.4907995462"><ele>298.63</ele><time>2026-08-20T22:23:27Z</time></trkpt><trkpt lat="59.1033256520" lon="30.4907995462"><ele>298.63</ele><time>2026-08-20T22:23:28Z</time></trkpt><trkpt lat="59.1033256520" lon="30.4907995462"><ele>298.63</ele><time>2026-08-20T22:23:29Z</time></trkpt><trkpt lat="59.1033256520" lon="30.4907995462"><ele>298.63</ele><time>2026-08-20T22:23:30Z</time></trkpt><trkpt lat="59.1033256520" lon="30.4907995462"><ele>298.63</ele><time>2026-08-20T22:23:31Z</time></trkpt><trkpt lat="59.1033256520" lon="30.4907995462"><ele>298.63</ele><time>2026-08-20T22:23:32Z</time></trkpt><trkpt lat="59.1033256520" lon="30.4907995462"><ele>298.63</ele><time>2026-08-20T22:23:33Z</time></trkpt><trkpt lat="59.1033256520" lon="30.4907995462"><ele>298.63</ele><time>2026-08-20T22:23:34Z</time></trkpt><trkpt lat="59.1033256520" lon="30.4907995462"><ele>298.63</ele><time>2026-08-20T22:23:35Z</time></trkpt><trkpt lat="59.1033256520" lon="30.4907995462"><ele>298.63</ele><time>2026-08-20T22:23:36Z</time></trkpt><trkpt lat="59.1033256520" lon="30.4907995462"><ele>298.63</ele><time>2026-08-20T22:23:37Z</time></trkpt><trkpt lat="59.1033256520" lon="30.4907995462"><ele>298.63</ele><time>2026-08-20T22:23:38Z</time></trkpt><trkpt lat="59.1033256520" lon="30.4907995462"><ele>298.63</ele><time>2026-08-20T22:23:39Z</time></trkpt><trkpt lat="59.1033256520" lon="30.4907995462"><ele>298.63</ele><time>2026-08-20T22:23:40Z</time></trkpt><trkpt lat="59.1033256520" lon="30.4907995462"><ele>298.63</ele><time>2026-08-20T22:23:41Z</time></trkpt><trkpt lat="59.1033256520" lon="30.4907995462"><ele>298.63</ele><time>2026-08-20T22:23:42Z</time></trkpt><trkpt lat="59.1033256520" lon="30.4907995462"><ele>298.63</ele><time>2026-08-20T22:23:43Z</time></trkpt><trkpt lat="59.1033256520" lon="30.4907995462"><ele>298.63</ele><time>2026-08-20T22:23:44Z</time></trkpt><trkpt lat="59.1033256520" lon="30.4907995462"><ele>298.63</ele><time>2026-08-20T22:23:45Z</time></trkpt><trkpt lat="59.1033256520" lon="30.4907995462"><ele>298.63</ele><time>2026-08-20T22:23:46Z</time></trkpt><trkpt lat="59.1033256520" lon="30.4907995462"><ele>298.63</ele><time>2026-08-20T22:23:47Z</time></trkpt><trkpt lat="59.1033256520" lon="30.4907995462"><ele>298.63</ele><time>2026-08-20T22:23:48Z</time></trkpt><trkpt lat="59.1033256520" lon="30.4907995462"><ele>298.63</ele><time>2026-08-20T22:23:49Z</time></trkpt><trkpt lat="59.1033256520" lon="30.4907995462"><ele>298.63</ele><time>2026-08-20T22:23:50Z</time></trkpt><trkpt lat="59.1033256520" lon="30.4907995462"><ele>298.63</ele><time>2026-08-20T22:23:51Z</time></trkpt><trkpt lat="59.1033256520" lon="30.4907995462"><ele>298.63</ele><time>2026-08-20T22:23:52Z</time></trkpt><trkpt lat="59.1033256520" lon="30.4907995462"><ele>298.63</ele><time>2026-08-20T22:23:53Z</time></trkpt><trkpt lat="59.1033256520" lon="30.4907995462"><ele>298.63</ele><time>2026-08-20T22:23:54Z</time></trkpt><trkpt lat="59.1033256520" lon="30.4907995462"><ele>298.63</ele><time>2026-08-20T22:23:55Z</time></trkpt><trkpt lat="59.1033256520" lon="30.4907995462"><ele>298.63</ele><time>2026-08-20T22:23:56Z</time></trkpt><trkpt lat="59.1033256520" lon="30.4907995462"><ele>298.63</ele><time>2026-08-20T22:23:57Z</time></trkpt><trkpt lat="59.1033256520" lon="30.4907995462"><ele>298.63</ele><time>2026-08-20T22:23:58Z</time></trkpt><trkpt lat="59.1033256520" lon="30.4907995462"><ele>298.63</ele><time>2026-08-20T22:23:59Z</time></trkpt><trkpt lat="59.1033256520" lon="30.4907995462"><ele>298.63</ele><time>2026-08-20T22:24:00Z</time></trkpt><trkpt lat="59.1033256520" lon="30.4907995462"><ele>298.63</ele><time>2026-08-20T22:24:01Z</time></trkpt><trkpt lat="59.1033256520" lon="30.4907995462"><ele>298.63</ele><time>2026-08-20T22:24:02Z</time></trkpt><trkpt lat="59.1033256520" lon="30.4907995462"><ele>298.63</ele><time>2026-08-20T22:24:03Z</time></trkpt><trkpt lat="59.1033256520" lon="30.4907995462"><ele>298.63</ele><time>2026-08-20T22:24:04Z</time></trkpt><trkpt lat="59.1033256520" lon="30.4907995462"><ele>298.63</ele><time>2026-08-20T22:24:05Z</time></trkpt><trkpt lat="59.1033256520" lon="30.4907995462"><ele>298.63</ele><time>2026-08-20T22:24:06Z</time></trkpt><trkpt lat="59.1033256520" lon="30.4907995462"><ele>298.63</ele><time>2026-08-20T22:24:07Z</time></trkpt><trkpt lat="59.1033256520" lon="30.4907995462"><ele>298.63</ele><time>2026-08-20T22:24:08Z</time></trkpt><trkpt lat="59.1033256520" lon="30.4907995462"><ele>298.63</ele><time>2026-08-20T22:24:09Z</time></trkpt><trkpt lat="59.1033256520" lon="30.4907995462"><ele>298.63</ele><time>2026-08-20T22:24:10Z</time></trkpt><trkpt lat="59.1033256520" lon="30.4907995462"><ele>298.63</ele><time>2026-08-20T22:24:11Z</time></trkpt><trkpt lat="59.1033256520" lon="30.4907995462"><ele>298.63</ele><time>2026-08-20T22:24:12Z</time></trkpt><trkpt lat="59.1033256520" lon="30.4907995462"><ele>298.63</ele><time>2026-08-20T22:24:13Z</time></trkpt><trkpt lat="59.1033256520" lon="30.4907995462"><ele>298.63</ele><time>2026-08-20T22:24:14Z</time></trkpt><trkpt lat="59.1033256520" lon="30.4907995462"><ele>298.63</ele><time>2026-08-20T22:24:15Z</time></trkpt><trkpt lat="59.1033256520" lon="30.4907995462"><ele>298.63</ele><time>2026-08-20T22:24:16Z</time></trkpt><trkpt lat="59.1033256520" lon="30.4907995462"><ele>298.63</ele><time>2026-08-20T22:24:17Z</time></trkpt><trkpt lat="59.1033256520" lon="30.4907995462"><ele>298.63</ele><time>2026-08-20T22:24:18Z</time></trkpt><trkpt lat="59.1033256520" lon="30.4907995462"><ele>298.63</ele><time>2026-08-20T22:24:19Z</time></trkpt><trkpt lat="59.1033256520" lon="30.4907995462"><ele>298.63</ele><time>2026-08-20T22:24:20Z</time></trkpt><trkpt lat="59.1033256520" lon="30.4907995462"><ele>298.63</ele><time>2026-08-20T22:24:21Z</time></trkpt><trkpt lat="59.1033256520" lon="30.4907995462"><ele>298.63</ele><time>2026-08-20T22:24:22Z</time></trkpt><trkpt lat="59.1033256520" lon="30.4907995462"><ele>298.63</ele><time>2026-08-20T22:24:23Z</time></trkpt><trkpt lat="59.1033256520" lon="30.4907995462"><ele>298.63</ele><time>2026-08-20T22:24:24Z</time></trkpt><trkpt lat="59.1033256520" lon="30.4907995462"><ele>298.63</ele><time>2026-08-20T22:24:25Z</time></trkpt><trkpt lat="59.1033256520" lon="30.4907995462"><ele>298.63</ele><time>2026-08-20T22:24:26Z</time></trkpt><trkpt lat="59.1033256520" lon="30.4907995462"><ele>298.63</ele><time>2026-08-20T22:24:27Z</time></trkpt><trkpt lat="59.1033256520" lon="30.4907995462"><ele>298.63</ele><time>2026-08-20T22:24:28Z</time></trkpt><trkpt lat="59.1033256520" lon="30.4907995462"><ele>298.63</ele><time>2026-08-20T22:24:29Z</time></trkpt><trkpt lat="59.1033256520" lon="30.4907995462"><ele>298.63</ele><time>2026-08-20T22:24:30Z</time></trkpt><trkpt lat="59.1033256520" lon="30.4907995462"><ele>298.63</ele><time>2026-08-20T22:24:31Z</time></trkpt><trkpt lat="59.1033256520" lon="30.4907995462"><ele>298.63</ele><time>2026-08-20T22:24:32Z</time></trkpt><trkpt lat="59.1033256520" lon="30.4907995462"><ele>298.63</ele><time>2026-08-20T22:24:33Z</time></trkpt><trkpt lat="59.1033256520" lon="30.4907995462"><ele>298.63</ele><time>2026-08-20T22:24:34Z</time></trkpt><trkpt lat="59.1033256520" lon="30.4907995462"><ele>298.63</ele><time>2026-08-20T22:24:35Z</time></trkpt><trkpt lat="59.1033256520" lon="30.4907995462"><ele>298.63</ele><time>2026-08-20T22:24:36Z</time></trkpt><trkpt lat="59.1033256520" lon="30.4907995462"><ele>298.63</ele><time>2026-08-20T22:24:37Z</time></trkpt><trkpt lat="59.1033256520" lon="30.4907995462"><ele>298.63</ele><time>2026-08-20T22:24:38Z</time></trkpt><trkpt lat="59.1033256520" lon="30.4907995462"><ele>298.63</ele><time>2026-08-20T22:24:39Z</time></trkpt><trkpt lat="59.1033256520" lon="30.4907995462"><ele>298.63</ele><time>2026-08-20T22:24:40Z</time></trkpt><trkpt lat="59.1033256520" lon="30.4907995462"><ele>298.63</ele><time>2026-08-20T22:24:41Z</time></trkpt><trkpt lat="59.1033256520" lon="30.4907995462"><ele>298.63</ele><time>2026-08-20T22:24:42Z</time></trkpt><trkpt lat="59.1033256520" lon="30.4907995462"><ele>298.63</ele><time>2026-08-20T22:24:43Z</time></trkpt><trkpt lat="59.1033256520" lon="30.4907995462"><ele>298.63</ele><time>2026-08-20T22:24:44Z</time></trkpt><trkpt lat="59.1033256520" lon="30.4907995462"><ele>298.63</ele><time>2026-08-20T22:24:45Z</time></trkpt><trkpt lat="59.1033496242" lon="30.4907875601"><ele>298.63</ele><time>2026-08-20T22:24:46Z</time></trkpt><trkpt lat="59.1033499595" lon="30.4907823633"><ele>298.63</ele><time>2026-08-20T22:24:47Z</time></trkpt><trkpt lat="59.1033529770" lon="30.4907781724"><ele>298.63</ele><time>2026-08-20T22:24:48Z</time></trkpt><trkpt lat="59.1033536475" lon="30.4907741491"><ele>298.63</ele><time>2026-08-20T22:24:49Z</time></trkpt><trkpt lat="59.1033536475" lon="30.4907741491"><ele>298.63</ele><time>2026-08-20T22:24:50Z</time></trkpt><trkpt lat="59.1033536475" lon="30.4907741491"><ele>298.63</ele><time>2026-08-20T22:24:51Z</time></trkpt><trkpt lat="59.1033536475" lon="30.4907741491"><ele>298.63</ele><time>2026-08-20T22:24:52Z</time></trkpt><trkpt lat="59.1033536475" lon="30.4907741491"><ele>298.63</ele><time>2026-08-20T22:24:53Z</time></trkpt><trkpt lat="59.1033536475" lon="30.4907741491"><ele>298.63</ele><time>2026-08-20T22:24:54Z</time></trkpt><trkpt lat="59.1033536475" lon="30.4907741491"><ele>298.63</ele><time>2026-08-20T22:24:55Z</time></trkpt><trkpt lat="59.1033536475" lon="30.4907741491"><ele>298.63</ele><time>2026-08-20T22:24:56Z</time></trkpt><trkpt lat="59.1033536475" lon="30.4907741491"><ele>298.63</ele><time>2026-08-20T22:24:57Z</time></trkpt><trkpt lat="59.1033536475" lon="30.4907741491"><ele>298.63</ele><time>2026-08-20T22:24:58Z</time></trkpt><trkpt lat="59.1033536475" lon="30.4907741491"><ele>298.63</ele><time>2026-08-20T22:24:59Z</time></trkpt><trkpt lat="59.1033242270" lon="30.4907268751"><ele>298.63</ele><time>2026-08-20T22:25:00Z</time></trkpt><trkpt lat="59.1033219639" lon="30.4907130450"><ele>298.63</ele><time>2026-08-20T22:25:01Z</time></trkpt><trkpt lat="59.1033193655" lon="30.4906933475"><ele>298.63</ele><time>2026-08-20T22:25:02Z</time></trkpt><trkpt lat="59.1033181921" lon="30.4906787630"><ele>298.63</ele><time>2026-08-20T22:25:03Z</time></trkpt><trkpt lat="59.1033158451" lon="30.4906677827"><ele>298.63</ele><time>2026-08-20T22:25:04Z</time></trkpt><trkpt lat="59.1033125762" lon="30.4906466603"><ele>298.63</ele><time>2026-08-20T22:25:05Z</time></trkpt><trkpt lat="59.1033103969" lon="30.4906123783"><ele>298.63</ele><time>2026-08-20T22:25:06Z</time></trkpt><trkpt lat="59.1033044457" lon="30.4905862268"><ele>298.63</ele><time>2026-08-20T22:25:07Z</time></trkpt><trkpt lat="59.1033017635" lon="30.4905622546"><ele>298.63</ele><time>2026-08-20T22:25:08Z</time></trkpt><trkpt lat="59.1033011768" lon="30.4905452393"><ele>298.63</ele><time>2026-08-20T22:25:09Z</time></trkpt><trkpt lat="59.1033014283" lon="30.4905303195"><ele>298.63</ele><time>2026-08-20T22:25:10Z</time></trkpt><trkpt lat="59.1032998357" lon="30.4905145615"><ele>298.63</ele><time>2026-08-20T22:25:11Z</time></trkpt><trkpt lat="59.1032955609" lon="30.4904933553"><ele>298.63</ele><time>2026-08-20T22:25:12Z</time></trkpt><trkpt lat="59.1032927949" lon="30.4904708918"><ele>298.63</ele><time>2026-08-20T22:25:13Z</time></trkpt><trkpt lat="59.1032944713" lon="30.4904562235"><ele>298.63</ele><time>2026-08-20T22:25:14Z</time></trkpt><trkpt lat="59.1032956447" lon="30.4904393759"><ele>298.63</ele><time>2026-08-20T22:25:15Z</time></trkpt><trkpt lat="59.1032955609" lon="30.4904232826"><ele>298.63</ele><time>2026-08-20T22:25:16Z</time></trkpt><trkpt lat="59.1032905318" lon="30.4904098716"><ele>298.63</ele><time>2026-08-20T22:25:17Z</time></trkpt><trkpt lat="59.1032857541" lon="30.4903952871"><ele>298.63</ele><time>2026-08-20T22:25:18Z</time></trkpt><trkpt lat="59.1032838263" lon="30.4903848935"><ele>298.63</ele><time>2026-08-20T22:25:19Z</time></trkpt><trkpt lat="59.1032859217" lon="30.4903698899"><ele>298.63</ele><time>2026-08-20T22:25:20Z</time></trkpt><trkpt lat="59.1032902803" lon="30.4903523717"><ele>298.63</ele><time>2026-08-20T22:25:21Z</time></trkpt><trkpt lat="59.1032860894" lon="30.4903095402"><ele>298.63</ele><time>2026-08-20T22:25:22Z</time></trkpt><trkpt lat="59.1032869276" lon="30.4902887531"><ele>298.63</ele><time>2026-08-20T22:25:23Z</time></trkpt><trkpt lat="59.1032918729" lon="30.4902634397"><ele>298.63</ele><time>2026-08-20T22:25:24Z</time></trkpt><trkpt lat="59.1032920405" lon="30.4902339354"><ele>298.63</ele><time>2026-08-20T22:25:25Z</time></trkpt><trkpt lat="59.1032856703" lon="30.4901999887"><ele>298.63</ele><time>2026-08-20T22:25:26Z</time></trkpt><trkpt lat="59.1032798868" lon="30.4901678860"><ele>298.63</ele><time>2026-08-20T22:25:27Z</time></trkpt><trkpt lat="59.1032739356" lon="30.4901380464"><ele>298.63</ele><time>2026-08-20T22:25:28Z</time></trkpt><trkpt lat="59.1032724269" lon="30.4901165888"><ele>298.63</ele><time>2026-08-20T22:25:29Z</time></trkpt><trkpt lat="59.1032735165" lon="30.4900935385"><ele>298.63</ele><time>2026-08-20T22:25:30Z</time></trkpt><trkpt lat="59.1032785457" lon="30.4900679737"><ele>298.63</ele><time>2026-08-20T22:25:31Z</time></trkpt><trkpt lat="59.1032818984" lon="30.4900450911"><ele>298.63</ele><time>2026-08-20T22:25:32Z</time></trkpt><trkpt lat="59.1032821499" lon="30.4900250584"><ele>298.63</ele><time>2026-08-20T22:25:33Z</time></trkpt><trkpt lat="59.1032803897" lon="30.4900034331"><ele>298.63</ele><time>2026-08-20T22:25:34Z</time></trkpt><trkpt lat="59.1032768693" lon="30.4899859987"><ele>298.63</ele><time>2026-08-20T22:25:35Z</time></trkpt><trkpt lat="59.1032691579" lon="30.4899611883"><ele>298.63</ele><time>2026-08-20T22:25:36Z</time></trkpt><trkpt lat="59.1032690741" lon="30.4899363779"><ele>298.63</ele><time>2026-08-20T22:25:37Z</time></trkpt><trkpt lat="59.1032721754" lon="30.4899153393"><ele>298.63</ele><time>2026-08-20T22:25:38Z</time></trkpt><trkpt lat="59.1032721754" lon="30.4898924567"><ele>298.63</ele><time>2026-08-20T22:25:39Z</time></trkpt><trkpt lat="59.1032726783" lon="30.4898694903"><ele>298.63</ele><time>2026-08-20T22:25:40Z</time></trkpt><trkpt lat="59.1032704990" lon="30.4898448475"><ele>298.63</ele><time>2026-08-20T22:25:41Z</time></trkpt><trkpt lat="59.1032679845" lon="30.4898217972"><ele>298.63</ele><time>2026-08-20T22:25:42Z</time></trkpt><trkpt lat="59.1032672301" lon="30.4898068774"><ele>298.63</ele><time>2026-08-20T22:25:43Z</time></trkpt><trkpt lat="59.1032660566" lon="30.4897902813"><ele>298.63</ele><time>2026-08-20T22:25:44Z</time></trkpt><trkpt lat="59.1032628715" lon="30.4897731822"><ele>298.63</ele><time>2026-08-20T22:25:45Z</time></trkpt><trkpt lat="59.1032620333" lon="30.4897555802"><ele>298.63</ele><time>2026-08-20T22:25:46Z</time></trkpt><trkpt lat="59.1032597702" lon="30.4897386488"><ele>298.63</ele><time>2026-08-20T22:25:47Z</time></trkpt><trkpt lat="59.1032567527" lon="30.4897217173"><ele>298.63</ele><time>2026-08-20T22:25:48Z</time></trkpt><trkpt lat="59.1032501310" lon="30.4896972422"><ele>298.63</ele><time>2026-08-20T22:25:49Z</time></trkpt><trkpt lat="59.1032466944" lon="30.4896737728"><ele>298.63</ele><time>2026-08-20T22:25:50Z</time></trkpt><trkpt lat="59.1032466944" lon="30.4896549974"><ele>298.63</ele><time>2026-08-20T22:25:51Z</time></trkpt><trkpt lat="59.1032480355" lon="30.4896387365"><ele>298.63</ele><time>2026-08-20T22:25:52Z</time></trkpt><trkpt lat="59.1032517236" lon="30.4896172788"><ele>298.63</ele><time>2026-08-20T22:25:53Z</time></trkpt><trkpt lat="59.1032542381" lon="30.4895984195"><ele>298.63</ele><time>2026-08-20T22:25:54Z</time></trkpt><trkpt lat="59.1032550763" lon="30.4895780515"><ele>298.63</ele><time>2026-08-20T22:25:55Z</time></trkpt><trkpt lat="59.1032559983" lon="30.4895554204"><ele>298.63</ele><time>2026-08-20T22:25:56Z</time></trkpt><trkpt lat="59.1032571718" lon="30.4895420931"><ele>298.63</ele><time>2026-08-20T22:25:57Z</time></trkpt><trkpt lat="59.1032585967" lon="30.4895212222"><ele>298.63</ele><time>2026-08-20T22:25:58Z</time></trkpt><trkpt lat="59.1032605246" lon="30.4894970823"><ele>298.63</ele><time>2026-08-20T22:25:59Z</time></trkpt><trkpt lat="59.1032620333" lon="30.4894688353"><ele>298.63</ele><time>2026-08-20T22:26:00Z</time></trkpt><trkpt lat="59.1032630391" lon="30.4894432705"><ele>298.63</ele><time>2026-08-20T22:26:01Z</time></trkpt><trkpt lat="59.1032644641" lon="30.4894273449"><ele>298.63</ele><time>2026-08-20T22:26:02Z</time></trkpt><trkpt lat="59.1032658890" lon="30.4894164484"><ele>298.63</ele><time>2026-08-20T22:26:03Z</time></trkpt><trkpt lat="59.1032662243" lon="30.4893995170"><ele>298.63</ele><time>2026-08-20T22:26:04Z</time></trkpt><trkpt lat="59.1032675654" lon="30.4893877823"><ele>298.63</ele><time>2026-08-20T22:26:05Z</time></trkpt><trkpt lat="59.1032678168" lon="30.4893770535"><ele>298.63</ele><time>2026-08-20T22:26:06Z</time></trkpt><trkpt lat="59.1032715887" lon="30.4893605411"><ele>298.63</ele><time>2026-08-20T22:26:07Z</time></trkpt><trkpt lat="59.1032726783" lon="30.4893438611"><ele>298.63</ele><time>2026-08-20T22:26:08Z</time></trkpt><trkpt lat="59.1032729298" lon="30.4893291928"><ele>298.63</ele><time>2026-08-20T22:26:09Z</time></trkpt><trkpt lat="59.1032714210" lon="30.4893190507"><ele>298.63</ele><time>2026-08-20T22:26:10Z</time></trkpt><trkpt lat="59.1032691579" lon="30.4892951623"><ele>298.63</ele><time>2026-08-20T22:26:11Z</time></trkpt><trkpt lat="59.1032690741" lon="30.4892784823"><ele>298.63</ele><time>2026-08-20T22:26:12Z</time></trkpt><trkpt lat="59.1032706667" lon="30.4892644845"><ele>298.63</ele><time>2026-08-20T22:26:13Z</time></trkpt><trkpt lat="59.1032720916" lon="30.4892490618"><ele>298.63</ele><time>2026-08-20T22:26:14Z</time></trkpt><trkpt lat="59.1032726783" lon="30.4892297834"><ele>298.63</ele><time>2026-08-20T22:26:15Z</time></trkpt><trkpt lat="59.1032746900" lon="30.4892126843"><ele>298.63</ele><time>2026-08-20T22:26:16Z</time></trkpt><trkpt lat="59.1032738518" lon="30.4891923163"><ele>298.63</ele><time>2026-08-20T22:26:17Z</time></trkpt><trkpt lat="59.1032729298" lon="30.4891734570"><ele>298.63</ele><time>2026-08-20T22:26:18Z</time></trkpt><trkpt lat="59.1032735165" lon="30.4891537596"><ele>298.63</ele><time>2026-08-20T22:26:19Z</time></trkpt><trkpt lat="59.1032730974" lon="30.4891362414"><ele>298.63</ele><time>2026-08-20T22:26:20Z</time></trkpt><trkpt lat="59.1032718401" lon="30.4891168792"><ele>298.63</ele><time>2026-08-20T22:26:21Z</time></trkpt><trkpt lat="59.1032716725" lon="30.4890977684"><ele>298.63</ele><time>2026-08-20T22:26:22Z</time></trkpt><trkpt lat="59.1032720916" lon="30.4890820943"><ele>298.63</ele><time>2026-08-20T22:26:23Z</time></trkpt><trkpt lat="59.1032694932" lon="30.4890654981"><ele>298.63</ele><time>2026-08-20T22:26:24Z</time></trkpt><trkpt lat="59.1032679845" lon="30.4890506621"><ele>298.63</ele><time>2026-08-20T22:26:25Z</time></trkpt><trkpt lat="59.1032679845" lon="30.4890354909"><ele>298.63</ele><time>2026-08-20T22:26:26Z</time></trkpt><trkpt lat="59.1032677330" lon="30.4890210740"><ele>298.63</ele><time>2026-08-20T22:26:27Z</time></trkpt><trkpt lat="59.1032690741" lon="30.4890070762"><ele>298.63</ele><time>2026-08-20T22:26:28Z</time></trkpt><trkpt lat="59.1032700799" lon="30.4889906477"><ele>298.63</ele><time>2026-08-20T22:26:29Z</time></trkpt><trkpt lat="59.1032705829" lon="30.4889716208"><ele>298.63</ele><time>2026-08-20T22:26:30Z</time></trkpt><trkpt lat="59.1032699961" lon="30.4889478162"><ele>298.63</ele><time>2026-08-20T22:26:31Z</time></trkpt><trkpt lat="59.1032727621" lon="30.4889259394"><ele>298.63</ele><time>2026-08-20T22:26:32Z</time></trkpt><trkpt lat="59.1032697447" lon="30.4889013804"><ele>298.63</ele><time>2026-08-20T22:26:33Z</time></trkpt><trkpt lat="59.1032656375" lon="30.4888772406"><ele>298.63</ele><time>2026-08-20T22:26:34Z</time></trkpt><trkpt lat="59.1032660566" lon="30.4888565373"><ele>298.63</ele><time>2026-08-20T22:26:35Z</time></trkpt><trkpt lat="59.1032653861" lon="30.4888366722"><ele>298.63</ele><time>2026-08-20T22:26:36Z</time></trkpt><trkpt lat="59.1032647993" lon="30.4888177291"><ele>298.63</ele><time>2026-08-20T22:26:37Z</time></trkpt><trkpt lat="59.1032633744" lon="30.4887985345"><ele>298.63</ele><time>2026-08-20T22:26:38Z</time></trkpt><trkpt lat="59.1032619495" lon="30.4887801781"><ele>298.63</ele><time>2026-08-20T22:26:39Z</time></trkpt><trkpt lat="59.1032618657" lon="30.4887622409"><ele>298.63</ele><time>2026-08-20T22:26:40Z</time></trkpt><trkpt lat="59.1032635421" lon="30.4887455609"><ele>298.63</ele><time>2026-08-20T22:26:41Z</time></trkpt><trkpt lat="59.1032633744" lon="30.4887284618"><ele>298.63</ele><time>2026-08-20T22:26:42Z</time></trkpt><trkpt lat="59.1032605246" lon="30.4887114465"><ele>298.63</ele><time>2026-08-20T22:26:43Z</time></trkpt><trkpt lat="59.1032525618" lon="30.4886893183"><ele>298.63</ele><time>2026-08-20T22:26:44Z</time></trkpt><trkpt lat="59.1032458562" lon="30.4886683635"><ele>298.63</ele><time>2026-08-20T22:26:45Z</time></trkpt><trkpt lat="59.1032415815" lon="30.4886535276"><ele>298.63</ele><time>2026-08-20T22:26:46Z</time></trkpt><trkpt lat="59.1032404918" lon="30.4886364285"><ele>298.63</ele><time>2026-08-20T22:26:47Z</time></trkpt><trkpt lat="59.1032380611" lon="30.4886074271"><ele>298.63</ele><time>2026-08-20T22:26:48Z</time></trkpt><trkpt lat="59.1032357980" lon="30.4885849636"><ele>298.63</ele><time>2026-08-20T22:26:49Z</time></trkpt><trkpt lat="59.1032332834" lon="30.4885674454"><ele>298.63</ele><time>2026-08-20T22:26:50Z</time></trkpt><trkpt lat="59.1032301821" lon="30.4885489214"><ele>298.63</ele><time>2026-08-20T22:26:51Z</time></trkpt><trkpt lat="59.1032281704" lon="30.4885268770"><ele>298.63</ele><time>2026-08-20T22:26:52Z</time></trkpt><trkpt lat="59.1032257397" lon="30.4885073472"><ele>298.63</ele><time>2026-08-20T22:26:53Z</time></trkpt><trkpt lat="59.1032260749" lon="30.4884885717"><ele>298.63</ele><time>2026-08-20T22:26:54Z</time></trkpt><trkpt lat="59.1032284219" lon="30.4884680361"><ele>298.63</ele><time>2026-08-20T22:26:55Z</time></trkpt><trkpt lat="59.1032307688" lon="30.4884468298"><ele>298.63</ele><time>2026-08-20T22:26:56Z</time></trkpt><trkpt lat="59.1032296792" lon="30.4884237796"><ele>298.63</ele><time>2026-08-20T22:26:57Z</time></trkpt><trkpt lat="59.1032304335" lon="30.4883990530"><ele>298.63</ele><time>2026-08-20T22:26:58Z</time></trkpt><trkpt lat="59.1032297630" lon="30.4883745778"><ele>298.63</ele><time>2026-08-20T22:26:59Z</time></trkpt><trkpt lat="59.1032270808" lon="30.4883509409"><ele>298.63</ele><time>2026-08-20T22:27:00Z</time></trkpt><trkpt lat="59.1032264940" lon="30.4883267172"><ele>298.63</ele><time>2026-08-20T22:27:01Z</time></trkpt><trkpt lat="59.1032242309" lon="30.4883044213"><ele>298.15</ele><time>2026-08-20T22:27:02Z</time></trkpt><trkpt lat="59.1032195371" lon="30.4882775992"><ele>298.15</ele><time>2026-08-20T22:27:03Z</time></trkpt><trkpt lat="59.1032153461" lon="30.4882492684"><ele>298.15</ele><time>2026-08-20T22:27:04Z</time></trkpt><trkpt lat="59.1032139212" lon="30.4882315826"><ele>298.15</ele><time>2026-08-20T22:27:05Z</time></trkpt><trkpt lat="59.1032108199" lon="30.4882164951"><ele>298.15</ele><time>2026-08-20T22:27:06Z</time></trkpt><trkpt lat="59.1032078862" lon="30.4882011563"><ele>298.15</ele><time>2026-08-20T22:27:07Z</time></trkpt><trkpt lat="59.1032003425" lon="30.4881758429"><ele>298.15</ele><time>2026-08-20T22:27:08Z</time></trkpt><trkpt lat="59.1031947266" lon="30.4881537985"><ele>298.15</ele><time>2026-08-20T22:27:09Z</time></trkpt><trkpt lat="59.1031935532" lon="30.4881332628"><ele>298.15</ele><time>2026-08-20T22:27:10Z</time></trkpt><trkpt lat="59.1031907871" lon="30.4881151579"><ele>298.15</ele><time>2026-08-20T22:27:11Z</time></trkpt><trkpt lat="59.1031921282" lon="30.4880961310"><ele>298.15</ele><time>2026-08-20T22:27:12Z</time></trkpt><trkpt lat="59.1031934693" lon="30.4880741704"><ele>298.15</ele><time>2026-08-20T22:27:13Z</time></trkpt><trkpt lat="59.1031944752" lon="30.4880509526"><ele>298.15</ele><time>2026-08-20T22:27:14Z</time></trkpt><trkpt lat="59.1031931341" lon="30.4880276509"><ele>298.15</ele><time>2026-08-20T22:27:15Z</time></trkpt><trkpt lat="59.1031935532" lon="30.4880073667"><ele>298.15</ele><time>2026-08-20T22:27:16Z</time></trkpt><trkpt lat="59.1031917930" lon="30.4879879206"><ele>298.15</ele><time>2026-08-20T22:27:17Z</time></trkpt><trkpt lat="59.1031939723" lon="30.4879670497"><ele>298.15</ele><time>2026-08-20T22:27:18Z</time></trkpt><trkpt lat="59.1031964868" lon="30.4879454244"><ele>298.15</ele><time>2026-08-20T22:27:19Z</time></trkpt><trkpt lat="59.1032018512" lon="30.4879243858"><ele>298.15</ele><time>2026-08-20T22:27:20Z</time></trkpt><trkpt lat="59.1032039467" lon="30.4879022576"><ele>298.15</ele><time>2026-08-20T22:27:21Z</time></trkpt><trkpt lat="59.1032020189" lon="30.4878792912"><ele>298.15</ele><time>2026-08-20T22:27:22Z</time></trkpt><trkpt lat="59.1031962354" lon="30.4878586717"><ele>298.15</ele><time>2026-08-20T22:27:23Z</time></trkpt><trkpt lat="59.1031906195" lon="30.4878405668"><ele>298.15</ele><time>2026-08-20T22:27:24Z</time></trkpt><trkpt lat="59.1031846683" lon="30.4878201988"><ele>298.15</ele><time>2026-08-20T22:27:25Z</time></trkpt><trkpt lat="59.1031810641" lon="30.4877975676"><ele>298.15</ele><time>2026-08-20T22:27:26Z</time></trkpt><trkpt lat="59.1031725984" lon="30.4877752718"><ele>298.15</ele><time>2026-08-20T22:27:27Z</time></trkpt><trkpt lat="59.1031623725" lon="30.4877545685"><ele>298.15</ele><time>2026-08-20T22:27:28Z</time></trkpt><trkpt lat="59.1031586844" lon="30.4877373856"><ele>298.15</ele><time>2026-08-20T22:27:29Z</time></trkpt><trkpt lat="59.1031538229" lon="30.4877215438"><ele>298.15</ele><time>2026-08-20T22:27:30Z</time></trkpt><trkpt lat="59.1031521466" lon="30.4877049476"><ele>298.15</ele><time>2026-08-20T22:27:31Z</time></trkpt><trkpt lat="59.1031512246" lon="30.4876894411"><ele>298.15</ele><time>2026-08-20T22:27:32Z</time></trkpt><trkpt lat="59.1031499673" lon="30.4876731802"><ele>298.15</ele><time>2026-08-20T22:27:33Z</time></trkpt><trkpt lat="59.1031464469" lon="30.4876597691"><ele>298.15</ele><time>2026-08-20T22:27:34Z</time></trkpt><trkpt lat="59.1031417530" lon="30.4876444302"><ele>298.15</ele><time>2026-08-20T22:27:35Z</time></trkpt><trkpt lat="59.1031409986" lon="30.4876285885"><ele>298.15</ele><time>2026-08-20T22:27:36Z</time></trkpt><trkpt lat="59.1031394899" lon="30.4876159318"><ele>298.15</ele><time>2026-08-20T22:27:37Z</time></trkpt><trkpt lat="59.1031393223" lon="30.4876041971"><ele>298.15</ele><time>2026-08-20T22:27:38Z</time></trkpt><trkpt lat="59.1031397413" lon="30.4875946417"><ele>298.15</ele><time>2026-08-20T22:27:39Z</time></trkpt><trkpt lat="59.1031406634" lon="30.4875856731"><ele>298.15</ele><time>2026-08-20T22:27:40Z</time></trkpt><trkpt lat="59.1031406634" lon="30.4875728488"><ele>298.15</ele><time>2026-08-20T22:27:41Z</time></trkpt><trkpt lat="59.1031396575" lon="30.4875629582"><ele>298.15</ele><time>2026-08-20T22:27:42Z</time></trkpt><trkpt lat="59.1031391546" lon="30.4875582643"><ele>298.15</ele><time>2026-08-20T22:27:43Z</time></trkpt><trkpt lat="59.1031381488" lon="30.4875536542"><ele>298.15</ele><time>2026-08-20T22:27:44Z</time></trkpt><trkpt lat="59.1031374782" lon="30.4875507206"><ele>298.15</ele><time>2026-08-20T22:27:45Z</time></trkpt><trkpt lat="59.1031374782" lon="30.4875507206"><ele>298.15</ele><time>2026-08-20T22:27:46Z</time></trkpt><trkpt lat="59.1031374782" lon="30.4875507206"><ele>298.15</ele><time>2026-08-20T22:27:47Z</time></trkpt><trkpt lat="59.1031396575" lon="30.4875403270"><ele>298.15</ele><time>2026-08-20T22:27:48Z</time></trkpt><trkpt lat="59.1031395737" lon="30.4875233956"><ele>298.15</ele><time>2026-08-20T22:27:49Z</time></trkpt><trkpt lat="59.1031363886" lon="30.4875000939"><ele>298.15</ele><time>2026-08-20T22:27:50Z</time></trkpt><trkpt lat="59.1031316947" lon="30.4874793906"><ele>298.15</ele><time>2026-08-20T22:27:51Z</time></trkpt><trkpt lat="59.1031308565" lon="30.4874683265"><ele>298.15</ele><time>2026-08-20T22:27:52Z</time></trkpt><trkpt lat="59.1031324491" lon="30.4874548316"><ele>298.15</ele><time>2026-08-20T22:27:53Z</time></trkpt><trkpt lat="59.1031363886" lon="30.4874405824"><ele>298.15</ele><time>2026-08-20T22:27:54Z</time></trkpt><trkpt lat="59.1031394899" lon="30.4874262493"><ele>298.15</ele><time>2026-08-20T22:27:55Z</time></trkpt><trkpt lat="59.1031411663" lon="30.4874150176"><ele>298.15</ele><time>2026-08-20T22:27:56Z</time></trkpt><trkpt lat="59.1031417530" lon="30.4874020256"><ele>298.15</ele><time>2026-08-20T22:27:57Z</time></trkpt><trkpt lat="59.1031419206" lon="30.4873846751"><ele>298.15</ele><time>2026-08-20T22:27:58Z</time></trkpt><trkpt lat="59.1031432617" lon="30.4873677436"><ele>298.15</ele><time>2026-08-20T22:27:59Z</time></trkpt><trkpt lat="59.1031456925" lon="30.4873472918"><ele>298.15</ele><time>2026-08-20T22:28:00Z</time></trkpt><trkpt lat="59.1031432617" lon="30.4873120878"><ele>298.15</ele><time>2026-08-20T22:28:01Z</time></trkpt><trkpt lat="59.1031415854" lon="30.4872910492"><ele>298.15</ele><time>2026-08-20T22:28:02Z</time></trkpt><trkpt lat="59.1031355504" lon="30.4872733634"><ele>298.15</ele><time>2026-08-20T22:28:03Z</time></trkpt><trkpt lat="59.1031317785" lon="30.4872534983"><ele>298.15</ele><time>2026-08-20T22:28:04Z</time></trkpt><trkpt lat="59.1031286772" lon="30.4872306995"><ele>298.15</ele><time>2026-08-20T22:28:05Z</time></trkpt><trkpt lat="59.1031271685" lon="30.4872078169"><ele>298.15</ele><time>2026-08-20T22:28:06Z</time></trkpt><trkpt lat="59.1031270847" lon="30.4871843476"><ele>298.15</ele><time>2026-08-20T22:28:07Z</time></trkpt><trkpt lat="59.1031268332" lon="30.4871609621"><ele>298.15</ele><time>2026-08-20T22:28:08Z</time></trkpt><trkpt lat="59.1031260788" lon="30.4871362355"><ele>298.15</ele><time>2026-08-20T22:28:09Z</time></trkpt><trkpt lat="59.1031222232" lon="30.4871079884"><ele>298.15</ele><time>2026-08-20T22:28:10Z</time></trkpt><trkpt lat="59.1031214688" lon="30.4870851897"><ele>298.15</ele><time>2026-08-20T22:28:11Z</time></trkpt><trkpt lat="59.1031233966" lon="30.4870681744"><ele>298.15</ele><time>2026-08-20T22:28:12Z</time></trkpt><trkpt lat="59.1031242348" lon="30.4870511591"><ele>297.67</ele><time>2026-08-20T22:28:13Z</time></trkpt><trkpt lat="59.1031246539" lon="30.4870223254"><ele>297.67</ele><time>2026-08-20T22:28:14Z</time></trkpt><trkpt lat="59.1031255759" lon="30.4869982693"><ele>297.67</ele><time>2026-08-20T22:28:15Z</time></trkpt><trkpt lat="59.1031269170" lon="30.4869753867"><ele>297.67</ele><time>2026-08-20T22:28:16Z</time></trkpt><trkpt lat="59.1031253245" lon="30.4869519174"><ele>297.67</ele><time>2026-08-20T22:28:17Z</time></trkpt><trkpt lat="59.1031263303" lon="30.4869327229"><ele>297.67</ele><time>2026-08-20T22:28:18Z</time></trkpt><trkpt lat="59.1031276714" lon="30.4869154561"><ele>297.67</ele><time>2026-08-20T22:28:19Z</time></trkpt><trkpt lat="59.1031271685" lon="30.4869014584"><ele>297.67</ele><time>2026-08-20T22:28:20Z</time></trkpt><trkpt lat="59.1031280905" lon="30.4868840240"><ele>297.67</ele><time>2026-08-20T22:28:21Z</time></trkpt><trkpt lat="59.1031285934" lon="30.4868672602"><ele>297.67</ele><time>2026-08-20T22:28:22Z</time></trkpt><trkpt lat="59.1031279229" lon="30.4868413601"><ele>297.67</ele><time>2026-08-20T22:28:23Z</time></trkpt><trkpt lat="59.1031262465" lon="30.4868188966"><ele>297.67</ele><time>2026-08-20T22:28:24Z</time></trkpt><trkpt lat="59.1031274199" lon="30.4868061561"><ele>297.67</ele><time>2026-08-20T22:28:25Z</time></trkpt><trkpt lat="59.1031242348" lon="30.4867929965"><ele>297.67</ele><time>2026-08-20T22:28:26Z</time></trkpt><trkpt lat="59.1031225584" lon="30.4867748916"><ele>297.67</ele><time>2026-08-20T22:28:27Z</time></trkpt><trkpt lat="59.1031199601" lon="30.4867580440"><ele>297.67</ele><time>2026-08-20T22:28:28Z</time></trkpt><trkpt lat="59.1031157691" lon="30.4867405258"><ele>297.67</ele><time>2026-08-20T22:28:29Z</time></trkpt><trkpt lat="59.1031115782" lon="30.4867218342"><ele>297.67</ele><time>2026-08-20T22:28:30Z</time></trkpt><trkpt lat="59.1031083930" lon="30.4867047351"><ele>297.67</ele><time>2026-08-20T22:28:31Z</time></trkpt><trkpt lat="59.1031020228" lon="30.4866897315"><ele>297.67</ele><time>2026-08-20T22:28:32Z</time></trkpt><trkpt lat="59.1030968260" lon="30.4866691958"><ele>297.67</ele><time>2026-08-20T22:28:33Z</time></trkpt><trkpt lat="59.1030929703" lon="30.4866492469"><ele>297.67</ele><time>2026-08-20T22:28:34Z</time></trkpt><trkpt lat="59.1030876897" lon="30.4866257776"><ele>297.67</ele><time>2026-08-20T22:28:35Z</time></trkpt><trkpt lat="59.1030827444" lon="30.4866015539"><ele>297.67</ele><time>2026-08-20T22:28:36Z</time></trkpt><trkpt lat="59.1030767933" lon="30.4865756538"><ele>297.67</ele><time>2026-08-20T22:28:37Z</time></trkpt><trkpt lat="59.1030677408" lon="30.4865543637"><ele>297.67</ele><time>2026-08-20T22:28:38Z</time></trkpt><trkpt lat="59.1030634660" lon="30.4865349177"><ele>297.67</ele><time>2026-08-20T22:28:39Z</time></trkpt><trkpt lat="59.1030587722" lon="30.4865064193"><ele>297.67</ele><time>2026-08-20T22:28:40Z</time></trkpt><trkpt lat="59.1030574311" lon="30.4864785913"><ele>297.67</ele><time>2026-08-20T22:28:41Z</time></trkpt><trkpt lat="59.1030575987" lon="30.4864532780"><ele>297.67</ele><time>2026-08-20T22:28:42Z</time></trkpt><trkpt lat="59.1030569281" lon="30.4864293896"><ele>297.67</ele><time>2026-08-20T22:28:43Z</time></trkpt><trkpt lat="59.1030588560" lon="30.4864125419"><ele>297.67</ele><time>2026-08-20T22:28:44Z</time></trkpt><trkpt lat="59.1030585207" lon="30.4863935988"><ele>297.67</ele><time>2026-08-20T22:28:45Z</time></trkpt><trkpt lat="59.1030593589" lon="30.4863757454"><ele>297.67</ele><time>2026-08-20T22:28:46Z</time></trkpt><trkpt lat="59.1030622926" lon="30.4863589816"><ele>297.67</ele><time>2026-08-20T22:28:47Z</time></trkpt><trkpt lat="59.1030664835" lon="30.4863405414"><ele>297.67</ele><time>2026-08-20T22:28:48Z</time></trkpt><trkpt lat="59.1030684952" lon="30.4863133840"><ele>297.67</ele><time>2026-08-20T22:28:49Z</time></trkpt><trkpt lat="59.1030707583" lon="30.4862863943"><ele>297.67</ele><time>2026-08-20T22:28:50Z</time></trkpt><trkpt lat="59.1030709259" lon="30.4862571415"><ele>297.67</ele><time>2026-08-20T22:28:51Z</time></trkpt><trkpt lat="59.1030704230" lon="30.4862300679"><ele>297.67</ele><time>2026-08-20T22:28:52Z</time></trkpt><trkpt lat="59.1030694172" lon="30.4862046707"><ele>297.67</ele><time>2026-08-20T22:28:53Z</time></trkpt><trkpt lat="59.1030691657" lon="30.4861824587"><ele>297.67</ele><time>2026-08-20T22:28:54Z</time></trkpt><trkpt lat="59.1030690819" lon="30.4861638509"><ele>297.67</ele><time>2026-08-20T22:28:55Z</time></trkpt><trkpt lat="59.1030693334" lon="30.4861455783"><ele>297.67</ele><time>2026-08-20T22:28:56Z</time></trkpt><trkpt lat="59.1030703392" lon="30.4861221928"><ele>297.67</ele><time>2026-08-20T22:28:57Z</time></trkpt><trkpt lat="59.1030709259" lon="30.4861051776"><ele>297.67</ele><time>2026-08-20T22:28:58Z</time></trkpt><trkpt lat="59.1030698363" lon="30.4860906769"><ele>297.67</ele><time>2026-08-20T22:28:59Z</time></trkpt><trkpt lat="59.1030723508" lon="30.4860756733"><ele>297.67</ele><time>2026-08-20T22:29:00Z</time></trkpt><trkpt lat="59.1030732729" lon="30.4860569816"><ele>297.67</ele><time>2026-08-20T22:29:01Z</time></trkpt><trkpt lat="59.1030760389" lon="30.4860402178"><ele>297.67</ele><time>2026-08-20T22:29:02Z</time></trkpt><trkpt lat="59.1030768771" lon="30.4860215262"><ele>297.67</ele><time>2026-08-20T22:29:03Z</time></trkpt><trkpt lat="59.1030783858" lon="30.4860049300"><ele>297.67</ele><time>2026-08-20T22:29:04Z</time></trkpt><trkpt lat="59.1030759551" lon="30.4859728273"><ele>297.67</ele><time>2026-08-20T22:29:05Z</time></trkpt><trkpt lat="59.1030735243" lon="30.4859439936"><ele>297.67</ele><time>2026-08-20T22:29:06Z</time></trkpt><trkpt lat="59.1030717641" lon="30.4859210271"><ele>297.67</ele><time>2026-08-20T22:29:07Z</time></trkpt><trkpt lat="59.1030725185" lon="30.4859066941"><ele>297.67</ele><time>2026-08-20T22:29:08Z</time></trkpt><trkpt lat="59.1030736919" lon="30.4858919419"><ele>297.67</ele><time>2026-08-20T22:29:09Z</time></trkpt><trkpt lat="59.1030725185" lon="30.4858660419"><ele>297.67</ele><time>2026-08-20T22:29:10Z</time></trkpt><trkpt lat="59.1030704230" lon="30.4858409800"><ele>297.67</ele><time>2026-08-20T22:29:11Z</time></trkpt><trkpt lat="59.1030690819" lon="30.4858182650"><ele>297.67</ele><time>2026-08-20T22:29:12Z</time></trkpt><trkpt lat="59.1030696686" lon="30.4858019203"><ele>297.67</ele><time>2026-08-20T22:29:13Z</time></trkpt><trkpt lat="59.1030644719" lon="30.4857803788"><ele>297.67</ele><time>2026-08-20T22:29:14Z</time></trkpt><trkpt lat="59.1030602809" lon="30.4857649561"><ele>297.67</ele><time>2026-08-20T22:29:15Z</time></trkpt><trkpt lat="59.1030571796" lon="30.4857492819"><ele>297.67</ele><time>2026-08-20T22:29:16Z</time></trkpt><trkpt lat="59.1030541621" lon="30.4857310932"><ele>297.67</ele><time>2026-08-20T22:29:17Z</time></trkpt><trkpt lat="59.1030551679" lon="30.4857189395"><ele>297.67</ele><time>2026-08-20T22:29:18Z</time></trkpt><trkpt lat="59.1030558385" lon="30.4857029300"><ele>297.67</ele><time>2026-08-20T22:29:19Z</time></trkpt><trkpt lat="59.1030579340" lon="30.4856890999"><ele>297.67</ele><time>2026-08-20T22:29:20Z</time></trkpt><trkpt lat="59.1030615382" lon="30.4856747668"><ele>297.67</ele><time>2026-08-20T22:29:21Z</time></trkpt><trkpt lat="59.1030653939" lon="30.4856607690"><ele>297.67</ele><time>2026-08-20T22:29:22Z</time></trkpt><trkpt lat="59.1030673217" lon="30.4856448434"><ele>297.67</ele><time>2026-08-20T22:29:23Z</time></trkpt><trkpt lat="59.1030677408" lon="30.4856320191"><ele>297.67</ele><time>2026-08-20T22:29:24Z</time></trkpt><trkpt lat="59.1030678246" lon="30.4856197815"><ele>297.67</ele><time>2026-08-20T22:29:25Z</time></trkpt><trkpt lat="59.1030662321" lon="30.4856039397"><ele>297.67</ele><time>2026-08-20T22:29:26Z</time></trkpt><trkpt lat="59.1030630469" lon="30.4855895229"><ele>297.67</ele><time>2026-08-20T22:29:27Z</time></trkpt><trkpt lat="59.1030601971" lon="30.4855742678"><ele>297.67</ele><time>2026-08-20T22:29:28Z</time></trkpt><trkpt lat="59.1030594427" lon="30.4855558276"><ele>297.67</ele><time>2026-08-20T22:29:29Z</time></trkpt><trkpt lat="59.1030628793" lon="30.4855432548"><ele>297.67</ele><time>2026-08-20T22:29:30Z</time></trkpt><trkpt lat="59.1030643880" lon="30.4855289217"><ele>297.67</ele><time>2026-08-20T22:29:31Z</time></trkpt><trkpt lat="59.1030676570" lon="30.4855201207"><ele>297.67</ele><time>2026-08-20T22:29:32Z</time></trkpt><trkpt lat="59.1030694172" lon="30.4855119903"><ele>297.67</ele><time>2026-08-20T22:29:33Z</time></trkpt><trkpt lat="59.1030707583" lon="30.4855022673"><ele>297.67</ele><time>2026-08-20T22:29:34Z</time></trkpt><trkpt lat="59.1030710936" lon="30.4854940530"><ele>297.67</ele><time>2026-08-20T22:29:35Z</time></trkpt><trkpt lat="59.1030705906" lon="30.4854776245"><ele>297.67</ele><time>2026-08-20T22:29:36Z</time></trkpt><trkpt lat="59.1030718479" lon="30.4854629561"><ele>297.67</ele><time>2026-08-20T22:29:37Z</time></trkpt><trkpt lat="59.1030704230" lon="30.4854503833"><ele>297.67</ele><time>2026-08-20T22:29:38Z</time></trkpt><trkpt lat="59.1030695848" lon="30.4854410794"><ele>297.67</ele><time>2026-08-20T22:29:39Z</time></trkpt><trkpt lat="59.1030697525" lon="30.4854341224"><ele>297.67</ele><time>2026-08-20T22:29:40Z</time></trkpt><trkpt lat="59.1030690819" lon="30.4854293447"><ele>297.67</ele><time>2026-08-20T22:29:41Z</time></trkpt><trkpt lat="59.1030672379" lon="30.4854248185"><ele>297.67</ele><time>2026-08-20T22:29:42Z</time></trkpt><trkpt lat="59.1030664835" lon="30.4854216333"><ele>297.67</ele><time>2026-08-20T22:29:43Z</time></trkpt><trkpt lat="59.1030664835" lon="30.4854216333"><ele>297.67</ele><time>2026-08-20T22:29:44Z</time></trkpt><trkpt lat="59.1030664835" lon="30.4854216333"><ele>297.18</ele><time>2026-08-20T22:29:45Z</time></trkpt><trkpt lat="59.1030664835" lon="30.4854216333"><ele>297.18</ele><time>2026-08-20T22:29:46Z</time></trkpt><trkpt lat="59.1030664835" lon="30.4854216333"><ele>297.18</ele><time>2026-08-20T22:29:47Z</time></trkpt><trkpt lat="59.1030664835" lon="30.4854216333"><ele>297.18</ele><time>2026-08-20T22:29:48Z</time></trkpt><trkpt lat="59.1030664835" lon="30.4854216333"><ele>297.18</ele><time>2026-08-20T22:29:49Z</time></trkpt><trkpt lat="59.1030664835" lon="30.4854216333"><ele>297.18</ele><time>2026-08-20T22:29:50Z</time></trkpt><trkpt lat="59.1030664835" lon="30.4854216333"><ele>297.18</ele><time>2026-08-20T22:29:51Z</time></trkpt><trkpt lat="59.1030664835" lon="30.4854216333"><ele>297.18</ele><time>2026-08-20T22:29:52Z</time></trkpt><trkpt lat="59.1030664835" lon="30.4854216333"><ele>297.18</ele><time>2026-08-20T22:29:53Z</time></trkpt><trkpt lat="59.1030664835" lon="30.4854216333"><ele>297.18</ele><time>2026-08-20T22:29:54Z</time></trkpt><trkpt lat="59.1030664835" lon="30.4854216333"><ele>297.18</ele><time>2026-08-20T22:29:55Z</time></trkpt><trkpt lat="59.1030664835" lon="30.4854216333"><ele>297.18</ele><time>2026-08-20T22:29:56Z</time></trkpt><trkpt lat="59.1030664835" lon="30.4854216333"><ele>297.18</ele><time>2026-08-20T22:29:57Z</time></trkpt><trkpt lat="59.1030664835" lon="30.4854216333"><ele>297.18</ele><time>2026-08-20T22:29:58Z</time></trkpt><trkpt lat="59.1030664835" lon="30.4854216333"><ele>297.18</ele><time>2026-08-20T22:29:59Z</time></trkpt><trkpt lat="59.1030594427" lon="30.4853852559"><ele>297.18</ele><time>2026-08-20T22:30:00Z</time></trkpt><trkpt lat="59.1030563414" lon="30.4853729345"><ele>297.18</ele><time>2026-08-20T22:30:01Z</time></trkpt><trkpt lat="59.1030528210" lon="30.4853557516"><ele>297.18</ele><time>2026-08-20T22:30:02Z</time></trkpt><trkpt lat="59.1030504741" lon="30.4853394907"><ele>297.18</ele><time>2026-08-20T22:30:03Z</time></trkpt><trkpt lat="59.1030471213" lon="30.4853198770"><ele>297.18</ele><time>2026-08-20T22:30:04Z</time></trkpt><trkpt lat="59.1030424275" lon="30.4852984194"><ele>297.67</ele><time>2026-08-20T22:30:05Z</time></trkpt><trkpt lat="59.1030385718" lon="30.4852823261"><ele>297.67</ele><time>2026-08-20T22:30:06Z</time></trkpt><trkpt lat="59.1030361410" lon="30.4852670711"><ele>297.67</ele><time>2026-08-20T22:30:07Z</time></trkpt><trkpt lat="59.1030347999" lon="30.4852555878"><ele>297.67</ele><time>2026-08-20T22:30:08Z</time></trkpt><trkpt lat="59.1030337941" lon="30.4852472898"><ele>297.67</ele><time>2026-08-20T22:30:09Z</time></trkpt><trkpt lat="59.1030325368" lon="30.4852393270"><ele>297.67</ele><time>2026-08-20T22:30:10Z</time></trkpt><trkpt lat="59.1030341294" lon="30.4852339625"><ele>297.67</ele><time>2026-08-20T22:30:11Z</time></trkpt><trkpt lat="59.1030356381" lon="30.4852322862"><ele>297.67</ele><time>2026-08-20T22:30:12Z</time></trkpt><trkpt lat="59.1030385718" lon="30.4852311965"><ele>297.18</ele><time>2026-08-20T22:30:13Z</time></trkpt><trkpt lat="59.1030385718" lon="30.4852311965"><ele>297.18</ele><time>2026-08-20T22:30:14Z</time></trkpt><trkpt lat="59.1030385718" lon="30.4852311965"><ele>297.18</ele><time>2026-08-20T22:30:15Z</time></trkpt><trkpt lat="59.1030385718" lon="30.4852311965"><ele>297.18</ele><time>2026-08-20T22:30:16Z</time></trkpt><trkpt lat="59.1030385718" lon="30.4852311965"><ele>297.18</ele><time>2026-08-20T22:30:17Z</time></trkpt><trkpt lat="59.1030385718" lon="30.4852311965"><ele>297.18</ele><time>2026-08-20T22:30:18Z</time></trkpt><trkpt lat="59.1030385718" lon="30.4852311965"><ele>297.18</ele><time>2026-08-20T22:30:19Z</time></trkpt><trkpt lat="59.1030385718" lon="30.4852311965"><ele>297.18</ele><time>2026-08-20T22:30:20Z</time></trkpt><trkpt lat="59.1030385718" lon="30.4852311965"><ele>297.18</ele><time>2026-08-20T22:30:21Z</time></trkpt><trkpt lat="59.1030385718" lon="30.4852311965"><ele>297.18</ele><time>2026-08-20T22:30:22Z</time></trkpt><trkpt lat="59.1030385718" lon="30.4852311965"><ele>297.18</ele><time>2026-08-20T22:30:23Z</time></trkpt><trkpt lat="59.1030385718" lon="30.4852311965"><ele>297.18</ele><time>2026-08-20T22:30:24Z</time></trkpt><trkpt lat="59.1030385718" lon="30.4852311965"><ele>297.18</ele><time>2026-08-20T22:30:25Z</time></trkpt><trkpt lat="59.1030385718" lon="30.4852311965"><ele>297.18</ele><time>2026-08-20T22:30:26Z</time></trkpt><trkpt lat="59.1030385718" lon="30.4852311965"><ele>297.18</ele><time>2026-08-20T22:30:27Z</time></trkpt><trkpt lat="59.1030385718" lon="30.4852311965"><ele>297.18</ele><time>2026-08-20T22:30:28Z</time></trkpt><trkpt lat="59.1030385718" lon="30.4852311965"><ele>297.18</ele><time>2026-08-20T22:30:29Z</time></trkpt><trkpt lat="59.1030385718" lon="30.4852311965"><ele>297.18</ele><time>2026-08-20T22:30:30Z</time></trkpt><trkpt lat="59.1030385718" lon="30.4852311965"><ele>297.18</ele><time>2026-08-20T22:30:31Z</time></trkpt><trkpt lat="59.1030385718" lon="30.4852311965"><ele>297.18</ele><time>2026-08-20T22:30:32Z</time></trkpt><trkpt lat="59.1030385718" lon="30.4852311965"><ele>297.18</ele><time>2026-08-20T22:30:33Z</time></trkpt><trkpt lat="59.1030385718" lon="30.4852311965"><ele>297.18</ele><time>2026-08-20T22:30:34Z</time></trkpt><trkpt lat="59.1030385718" lon="30.4852311965"><ele>297.18</ele><time>2026-08-20T22:30:35Z</time></trkpt><trkpt lat="59.1030385718" lon="30.4852311965"><ele>297.18</ele><time>2026-08-20T22:30:36Z</time></trkpt><trkpt lat="59.1030385718" lon="30.4852311965"><ele>297.18</ele><time>2026-08-20T22:30:37Z</time></trkpt><trkpt lat="59.1030385718" lon="30.4852311965"><ele>297.18</ele><time>2026-08-20T22:30:38Z</time></trkpt><trkpt lat="59.1030385718" lon="30.4852311965"><ele>297.18</ele><time>2026-08-20T22:30:39Z</time></trkpt><trkpt lat="59.1030385718" lon="30.4852311965"><ele>297.18</ele><time>2026-08-20T22:30:40Z</time></trkpt><trkpt lat="59.1030385718" lon="30.4852311965"><ele>297.18</ele><time>2026-08-20T22:30:41Z</time></trkpt><trkpt lat="59.1030385718" lon="30.4852311965"><ele>297.18</ele><time>2026-08-20T22:30:42Z</time></trkpt><trkpt lat="59.1030385718" lon="30.4852311965"><ele>297.18</ele><time>2026-08-20T22:30:43Z</time></trkpt><trkpt lat="59.1030385718" lon="30.4852311965"><ele>297.18</ele><time>2026-08-20T22:30:44Z</time></trkpt><trkpt lat="59.1030385718" lon="30.4852311965"><ele>297.18</ele><time>2026-08-20T22:30:45Z</time></trkpt><trkpt lat="59.1030385718" lon="30.4852311965"><ele>297.18</ele><time>2026-08-20T22:30:46Z</time></trkpt><trkpt lat="59.1030385718" lon="30.4852311965"><ele>297.18</ele><time>2026-08-20T22:30:47Z</time></trkpt><trkpt lat="59.1030385718" lon="30.4852311965"><ele>297.18</ele><time>2026-08-20T22:30:48Z</time></trkpt><trkpt lat="59.1030385718" lon="30.4852311965"><ele>297.18</ele><time>2026-08-20T22:30:49Z</time></trkpt><trkpt lat="59.1030385718" lon="30.4852311965"><ele>297.18</ele><time>2026-08-20T22:30:50Z</time></trkpt><trkpt lat="59.1030385718" lon="30.4852311965"><ele>297.18</ele><time>2026-08-20T22:30:51Z</time></trkpt><trkpt lat="59.1030385718" lon="30.4852311965"><ele>297.18</ele><time>2026-08-20T22:30:52Z</time></trkpt><trkpt lat="59.1030385718" lon="30.4852311965"><ele>297.18</ele><time>2026-08-20T22:30:53Z</time></trkpt><trkpt lat="59.1030385718" lon="30.4852311965"><ele>297.18</ele><time>2026-08-20T22:30:54Z</time></trkpt><trkpt lat="59.1030385718" lon="30.4852311965"><ele>297.18</ele><time>2026-08-20T22:30:55Z</time></trkpt><trkpt lat="59.1030385718" lon="30.4852311965"><ele>297.18</ele><time>2026-08-20T22:30:56Z</time></trkpt><trkpt lat="59.1030385718" lon="30.4852311965"><ele>297.18</ele><time>2026-08-20T22:30:57Z</time></trkpt><trkpt lat="59.1030385718" lon="30.4852311965"><ele>297.18</ele><time>2026-08-20T22:30:58Z</time></trkpt><trkpt lat="59.1030385718" lon="30.4852311965"><ele>297.18</ele><time>2026-08-20T22:30:59Z</time></trkpt><trkpt lat="59.1030385718" lon="30.4852311965"><ele>297.18</ele><time>2026-08-20T22:31:00Z</time></trkpt><trkpt lat="59.1030385718" lon="30.4852311965"><ele>297.18</ele><time>2026-08-20T22:31:01Z</time></trkpt><trkpt lat="59.1030385718" lon="30.4852311965"><ele>297.18</ele><time>2026-08-20T22:31:02Z</time></trkpt><trkpt lat="59.1030634660" lon="30.4851696733"><ele>297.18</ele><time>2026-08-20T22:31:03Z</time></trkpt><trkpt lat="59.1030597780" lon="30.4851618782"><ele>297.18</ele><time>2026-08-20T22:31:04Z</time></trkpt><trkpt lat="59.1030547488" lon="30.4851485509"><ele>297.18</ele><time>2026-08-20T22:31:05Z</time></trkpt><trkpt lat="59.1030509770" lon="30.4851336312"><ele>297.18</ele><time>2026-08-20T22:31:06Z</time></trkpt><trkpt lat="59.1030479595" lon="30.4851178732"><ele>297.18</ele><time>2026-08-20T22:31:07Z</time></trkpt><trkpt lat="59.1030472890" lon="30.4851033725"><ele>297.18</ele><time>2026-08-20T22:31:08Z</time></trkpt><trkpt lat="59.1030424275" lon="30.4850856867"><ele>297.18</ele><time>2026-08-20T22:31:09Z</time></trkpt><trkpt lat="59.1030399967" lon="30.4850661568"><ele>297.18</ele><time>2026-08-20T22:31:10Z</time></trkpt><trkpt lat="59.1030390747" lon="30.4850475490"><ele>297.18</ele><time>2026-08-20T22:31:11Z</time></trkpt><trkpt lat="59.1030343808" lon="30.4850298632"><ele>297.18</ele><time>2026-08-20T22:31:12Z</time></trkpt><trkpt lat="59.1030327883" lon="30.4850139376"><ele>297.18</ele><time>2026-08-20T22:31:13Z</time></trkpt><trkpt lat="59.1030322853" lon="30.4849964194"><ele>297.18</ele><time>2026-08-20T22:31:14Z</time></trkpt><trkpt lat="59.1030368954" lon="30.4849793203"><ele>297.18</ele><time>2026-08-20T22:31:15Z</time></trkpt><trkpt lat="59.1030399967" lon="30.4849597905"><ele>297.18</ele><time>2026-08-20T22:31:16Z</time></trkpt><trkpt lat="59.1030388232" lon="30.4849454574"><ele>297.18</ele><time>2026-08-20T22:31:17Z</time></trkpt><trkpt lat="59.1030384880" lon="30.4849312920"><ele>297.18</ele><time>2026-08-20T22:31:18Z</time></trkpt><trkpt lat="59.1030340455" lon="30.4849170428"><ele>297.18</ele><time>2026-08-20T22:31:19Z</time></trkpt><trkpt lat="59.1030256636" lon="30.4848876223"><ele>297.18</ele><time>2026-08-20T22:31:20Z</time></trkpt><trkpt lat="59.1030246578" lon="30.4848690983"><ele>297.18</ele><time>2026-08-20T22:31:21Z</time></trkpt><trkpt lat="59.1030261666" lon="30.4848542623"><ele>297.18</ele><time>2026-08-20T22:31:22Z</time></trkpt><trkpt lat="59.1030294355" lon="30.4848399293"><ele>297.18</ele><time>2026-08-20T22:31:23Z</time></trkpt><trkpt lat="59.1030276753" lon="30.4848106764"><ele>297.18</ele><time>2026-08-20T22:31:24Z</time></trkpt><trkpt lat="59.1030282620" lon="30.4848015402"><ele>297.18</ele><time>2026-08-20T22:31:25Z</time></trkpt><trkpt lat="59.1030247416" lon="30.4847981874"><ele>297.67</ele><time>2026-08-20T22:31:26Z</time></trkpt><trkpt lat="59.1030207183" lon="30.4847963434"><ele>297.67</ele><time>2026-08-20T22:31:27Z</time></trkpt><trkpt lat="59.1030207183" lon="30.4847963434"><ele>297.67</ele><time>2026-08-20T22:31:28Z</time></trkpt><trkpt lat="59.1030207183" lon="30.4847963434"><ele>297.67</ele><time>2026-08-20T22:31:29Z</time></trkpt><trkpt lat="59.1030207183" lon="30.4847963434"><ele>297.67</ele><time>2026-08-20T22:31:30Z</time></trkpt><trkpt lat="59.1030207183" lon="30.4847963434"><ele>297.67</ele><time>2026-08-20T22:31:31Z</time></trkpt><trkpt lat="59.1030207183" lon="30.4847963434"><ele>297.67</ele><time>2026-08-20T22:31:32Z</time></trkpt><trkpt lat="59.1030207183" lon="30.4847963434"><ele>297.67</ele><time>2026-08-20T22:31:33Z</time></trkpt><trkpt lat="59.1030207183" lon="30.4847963434"><ele>297.67</ele><time>2026-08-20T22:31:34Z</time></trkpt><trkpt lat="59.1030207183" lon="30.4847963434"><ele>297.67</ele><time>2026-08-20T22:31:35Z</time></trkpt><trkpt lat="59.1030207183" lon="30.4847963434"><ele>297.67</ele><time>2026-08-20T22:31:36Z</time></trkpt><trkpt lat="59.1030207183" lon="30.4847963434"><ele>297.67</ele><time>2026-08-20T22:31:37Z</time></trkpt><trkpt lat="59.1030207183" lon="30.4847963434"><ele>297.67</ele><time>2026-08-20T22:31:38Z</time></trkpt><trkpt lat="59.1030207183" lon="30.4847963434"><ele>297.67</ele><time>2026-08-20T22:31:39Z</time></trkpt><trkpt lat="59.1030207183" lon="30.4847963434"><ele>297.67</ele><time>2026-08-20T22:31:40Z</time></trkpt><trkpt lat="59.1030230653" lon="30.4847728740"><ele>297.67</ele><time>2026-08-20T22:31:41Z</time></trkpt><trkpt lat="59.1030227300" lon="30.4847630672"><ele>297.18</ele><time>2026-08-20T22:31:42Z</time></trkpt><trkpt lat="59.1030230653" lon="30.4847533442"><ele>297.18</ele><time>2026-08-20T22:31:43Z</time></trkpt><trkpt lat="59.1030207183" lon="30.4847422801"><ele>297.18</ele><time>2026-08-20T22:31:44Z</time></trkpt><trkpt lat="59.1030212212" lon="30.4847309645"><ele>297.18</ele><time>2026-08-20T22:31:45Z</time></trkpt><trkpt lat="59.1030224785" lon="30.4847209901"><ele>297.18</ele><time>2026-08-20T22:31:46Z</time></trkpt><trkpt lat="59.1030221432" lon="30.4847125243"><ele>297.18</ele><time>2026-08-20T22:31:47Z</time></trkpt><trkpt lat="59.1030180361" lon="30.4846995324"><ele>297.18</ele><time>2026-08-20T22:31:48Z</time></trkpt><trkpt lat="59.1030167788" lon="30.4846960958"><ele>297.18</ele><time>2026-08-20T22:31:49Z</time></trkpt><trkpt lat="59.1030151863" lon="30.4846903961"><ele>297.18</ele><time>2026-08-20T22:31:50Z</time></trkpt><trkpt lat="59.1030110791" lon="30.4846816789"><ele>297.18</ele><time>2026-08-20T22:31:51Z</time></trkpt><trkpt lat="59.1030062176" lon="30.4846711177"><ele>297.18</ele><time>2026-08-20T22:31:52Z</time></trkpt><trkpt lat="59.1030019429" lon="30.4846628197"><ele>297.18</ele><time>2026-08-20T22:31:53Z</time></trkpt><trkpt lat="59.1030004341" lon="30.4846489895"><ele>297.18</ele><time>2026-08-20T22:31:54Z</time></trkpt><trkpt lat="59.1030023620" lon="30.4846405238"><ele>297.18</ele><time>2026-08-20T22:31:55Z</time></trkpt><trkpt lat="59.1030027810" lon="30.4846339859"><ele>297.18</ele><time>2026-08-20T22:31:56Z</time></trkpt><trkpt lat="59.1030031163" lon="30.4846253525"><ele>297.18</ele><time>2026-08-20T22:31:57Z</time></trkpt><trkpt lat="59.1030047927" lon="30.4846131988"><ele>297.18</ele><time>2026-08-20T22:31:58Z</time></trkpt><trkpt lat="59.1030023620" lon="30.4846069962"><ele>297.18</ele><time>2026-08-20T22:31:59Z</time></trkpt><trkpt lat="59.1030010208" lon="30.4845963512"><ele>297.18</ele><time>2026-08-20T22:32:00Z</time></trkpt><trkpt lat="59.1029925551" lon="30.4845756479"><ele>297.18</ele><time>2026-08-20T22:32:01Z</time></trkpt><trkpt lat="59.1029837541" lon="30.4845604766"><ele>297.18</ele><time>2026-08-20T22:32:02Z</time></trkpt><trkpt lat="59.1029777192" lon="30.4845481552"><ele>297.18</ele><time>2026-08-20T22:32:03Z</time></trkpt><trkpt lat="59.1029751208" lon="30.4845318943"><ele>297.18</ele><time>2026-08-20T22:32:04Z</time></trkpt><trkpt lat="59.1029707622" lon="30.4845187347"><ele>297.18</ele><time>2026-08-20T22:32:05Z</time></trkpt><trkpt lat="59.1029671580" lon="30.4845056590"><ele>297.18</ele><time>2026-08-20T22:32:06Z</time></trkpt><trkpt lat="59.1029634699" lon="30.4844858777"><ele>297.18</ele><time>2026-08-20T22:32:07Z</time></trkpt><trkpt lat="59.1029618774" lon="30.4844691977"><ele>297.18</ele><time>2026-08-20T22:32:08Z</time></trkpt><trkpt lat="59.1029641405" lon="30.4844529368"><ele>297.18</ele><time>2026-08-20T22:32:09Z</time></trkpt><trkpt lat="59.1029655654" lon="30.4844405316"><ele>297.18</ele><time>2026-08-20T22:32:10Z</time></trkpt><trkpt lat="59.1029661521" lon="30.4844278749"><ele>297.18</ele><time>2026-08-20T22:32:11Z</time></trkpt><trkpt lat="59.1029644758" lon="30.4844113626"><ele>297.18</ele><time>2026-08-20T22:32:12Z</time></trkpt><trkpt lat="59.1029628832" lon="30.4843997955"><ele>297.18</ele><time>2026-08-20T22:32:13Z</time></trkpt><trkpt lat="59.1029614583" lon="30.4843844566"><ele>297.18</ele><time>2026-08-20T22:32:14Z</time></trkpt><trkpt lat="59.1029604524" lon="30.4843687825"><ele>297.18</ele><time>2026-08-20T22:32:15Z</time></trkpt><trkpt lat="59.1029557586" lon="30.4843513481"><ele>297.18</ele><time>2026-08-20T22:32:16Z</time></trkpt><trkpt lat="59.1029546689" lon="30.4843362607"><ele>297.18</ele><time>2026-08-20T22:32:17Z</time></trkpt><trkpt lat="59.1029579379" lon="30.4843305610"><ele>297.18</ele><time>2026-08-20T22:32:18Z</time></trkpt><trkpt lat="59.1029559262" lon="30.4843227658"><ele>297.18</ele><time>2026-08-20T22:32:19Z</time></trkpt><trkpt lat="59.1029584408" lon="30.4843106959"><ele>297.18</ele><time>2026-08-20T22:32:20Z</time></trkpt><trkpt lat="59.1029706784" lon="30.4842963628"><ele>297.18</ele><time>2026-08-20T22:32:21Z</time></trkpt><trkpt lat="59.1029754560" lon="30.4842826165"><ele>297.18</ele><time>2026-08-20T22:32:22Z</time></trkpt><trkpt lat="59.1029764619" lon="30.4842637572"><ele>297.18</ele><time>2026-08-20T22:32:23Z</time></trkpt><trkpt lat="59.1029774677" lon="30.4842445627"><ele>297.18</ele><time>2026-08-20T22:32:24Z</time></trkpt><trkpt lat="59.1029762942" lon="30.4842271283"><ele>297.18</ele><time>2026-08-20T22:32:25Z</time></trkpt><trkpt lat="59.1029742826" lon="30.4842032399"><ele>297.18</ele><time>2026-08-20T22:32:26Z</time></trkpt><trkpt lat="59.1029696725" lon="30.4841756634"><ele>297.18</ele><time>2026-08-20T22:32:27Z</time></trkpt><trkpt lat="59.1029708460" lon="30.4841554631"><ele>297.67</ele><time>2026-08-20T22:32:28Z</time></trkpt><trkpt lat="59.1029708460" lon="30.4841322452"><ele>297.67</ele><time>2026-08-20T22:32:29Z</time></trkpt><trkpt lat="59.1029776353" lon="30.4841175769"><ele>297.67</ele><time>2026-08-20T22:32:30Z</time></trkpt><trkpt lat="59.1029825807" lon="30.4841005616"><ele>297.67</ele><time>2026-08-20T22:32:31Z</time></trkpt><trkpt lat="59.1029859334" lon="30.4840853903"><ele>297.67</ele><time>2026-08-20T22:32:32Z</time></trkpt><trkpt lat="59.1029848438" lon="30.4840625916"><ele>297.67</ele><time>2026-08-20T22:32:33Z</time></trkpt><trkpt lat="59.1029839218" lon="30.4840398766"><ele>297.67</ele><time>2026-08-20T22:32:34Z</time></trkpt><trkpt lat="59.1029809881" lon="30.4840148985"><ele>297.67</ele><time>2026-08-20T22:32:35Z</time></trkpt><trkpt lat="59.1029782221" lon="30.4839912616"><ele>297.67</ele><time>2026-08-20T22:32:36Z</time></trkpt><trkpt lat="59.1029752884" lon="30.4839698877"><ele>297.67</ele><time>2026-08-20T22:32:37Z</time></trkpt><trkpt lat="59.1029718518" lon="30.4839482624"><ele>297.67</ele><time>2026-08-20T22:32:38Z</time></trkpt><trkpt lat="59.1029704269" lon="30.4839293193"><ele>297.67</ele><time>2026-08-20T22:32:39Z</time></trkpt><trkpt lat="59.1029689182" lon="30.4839102924"><ele>297.67</ele><time>2026-08-20T22:32:40Z</time></trkpt><trkpt lat="59.1029600333" lon="30.4839009885"><ele>297.67</ele><time>2026-08-20T22:32:41Z</time></trkpt><trkpt lat="59.1029540822" lon="30.4839018267"><ele>297.67</ele><time>2026-08-20T22:32:42Z</time></trkpt><trkpt lat="59.1029500589" lon="30.4839047603"><ele>297.67</ele><time>2026-08-20T22:32:43Z</time></trkpt><trkpt lat="59.1029500589" lon="30.4839047603"><ele>297.67</ele><time>2026-08-20T22:32:44Z</time></trkpt><trkpt lat="59.1029500589" lon="30.4839047603"><ele>297.67</ele><time>2026-08-20T22:32:45Z</time></trkpt><trkpt lat="59.1029497236" lon="30.4838867392"><ele>297.67</ele><time>2026-08-20T22:32:46Z</time></trkpt><trkpt lat="59.1029489692" lon="30.4838687181"><ele>297.67</ele><time>2026-08-20T22:32:47Z</time></trkpt><trkpt lat="59.1029420961" lon="30.4838461708"><ele>297.67</ele><time>2026-08-20T22:32:48Z</time></trkpt><trkpt lat="59.1029414255" lon="30.4838303290"><ele>297.67</ele><time>2026-08-20T22:32:49Z</time></trkpt><trkpt lat="59.1029402521" lon="30.4838101286"><ele>297.67</ele><time>2026-08-20T22:32:50Z</time></trkpt><trkpt lat="59.1029372346" lon="30.4837893415"><ele>297.67</ele><time>2026-08-20T22:32:51Z</time></trkpt><trkpt lat="59.1029402521" lon="30.4837738350"><ele>297.67</ele><time>2026-08-20T22:32:52Z</time></trkpt><trkpt lat="59.1029428504" lon="30.4837572388"><ele>297.67</ele><time>2026-08-20T22:32:53Z</time></trkpt><trkpt lat="59.1029411741" lon="30.4837406427"><ele>297.67</ele><time>2026-08-20T22:32:54Z</time></trkpt><trkpt lat="59.1029393300" lon="30.4837249685"><ele>297.18</ele><time>2026-08-20T22:32:55Z</time></trkpt><trkpt lat="59.1029364802" lon="30.4837093782"><ele>297.67</ele><time>2026-08-20T22:32:56Z</time></trkpt><trkpt lat="59.1029336303" lon="30.4836948775"><ele>297.18</ele><time>2026-08-20T22:32:57Z</time></trkpt><trkpt lat="59.1029285174" lon="30.4836868308"><ele>297.18</ele><time>2026-08-20T22:32:58Z</time></trkpt><trkpt lat="59.1029243264" lon="30.4836727493"><ele>297.18</ele><time>2026-08-20T22:32:59Z</time></trkpt><trkpt lat="59.1029208899" lon="30.4836570751"><ele>297.18</ele><time>2026-08-20T22:33:00Z</time></trkpt><trkpt lat="59.1029156931" lon="30.4836471844"><ele>297.18</ele><time>2026-08-20T22:33:01Z</time></trkpt><trkpt lat="59.1029139329" lon="30.4836320970"><ele>297.18</ele><time>2026-08-20T22:33:02Z</time></trkpt><trkpt lat="59.1029155254" lon="30.4836134892"><ele>297.18</ele><time>2026-08-20T22:33:03Z</time></trkpt><trkpt lat="59.1029154416" lon="30.4835905228"><ele>297.18</ele><time>2026-08-20T22:33:04Z</time></trkpt><trkpt lat="59.1029169504" lon="30.4835715797"><ele>297.18</ele><time>2026-08-20T22:33:05Z</time></trkpt><trkpt lat="59.1029191297" lon="30.4835526366"><ele>297.67</ele><time>2026-08-20T22:33:06Z</time></trkpt><trkpt lat="59.1029194649" lon="30.4835309274"><ele>297.67</ele><time>2026-08-20T22:33:07Z</time></trkpt><trkpt lat="59.1029195487" lon="30.4835131578"><ele>297.67</ele><time>2026-08-20T22:33:08Z</time></trkpt><trkpt lat="59.1029219795" lon="30.4834979866"><ele>297.67</ele><time>2026-08-20T22:33:09Z</time></trkpt><trkpt lat="59.1029240750" lon="30.4834787920"><ele>297.67</ele><time>2026-08-20T22:33:10Z</time></trkpt><trkpt lat="59.1029257514" lon="30.4834545683"><ele>297.67</ele><time>2026-08-20T22:33:11Z</time></trkpt><trkpt lat="59.1029280983" lon="30.4834330268"><ele>297.67</ele><time>2026-08-20T22:33:12Z</time></trkpt><trkpt lat="59.1029287688" lon="30.4834082164"><ele>297.67</ele><time>2026-08-20T22:33:13Z</time></trkpt><trkpt lat="59.1029304452" lon="30.4833861720"><ele>297.67</ele><time>2026-08-20T22:33:14Z</time></trkpt><trkpt lat="59.1029290203" lon="30.4833623674"><ele>297.67</ele><time>2026-08-20T22:33:15Z</time></trkpt><trkpt lat="59.1029282659" lon="30.4833370540"><ele>297.67</ele><time>2026-08-20T22:33:16Z</time></trkpt><trkpt lat="59.1029266734" lon="30.4833141714"><ele>297.67</ele><time>2026-08-20T22:33:17Z</time></trkpt><trkpt lat="59.1029279307" lon="30.4832924623"><ele>297.67</ele><time>2026-08-20T22:33:18Z</time></trkpt><trkpt lat="59.1029287688" lon="30.4832676519"><ele>297.18</ele><time>2026-08-20T22:33:19Z</time></trkpt><trkpt lat="59.1029274277" lon="30.4832433444"><ele>297.18</ele><time>2026-08-20T22:33:20Z</time></trkpt><trkpt lat="59.1029270925" lon="30.4832209647"><ele>297.18</ele><time>2026-08-20T22:33:21Z</time></trkpt><trkpt lat="59.1029198840" lon="30.4831959866"><ele>297.67</ele><time>2026-08-20T22:33:22Z</time></trkpt><trkpt lat="59.1029168665" lon="30.4831732716"><ele>297.67</ele><time>2026-08-20T22:33:23Z</time></trkpt><trkpt lat="59.1029151902" lon="30.4831552505"><ele>297.67</ele><time>2026-08-20T22:33:24Z</time></trkpt><trkpt lat="59.1029104963" lon="30.4831359722"><ele>297.67</ele><time>2026-08-20T22:33:25Z</time></trkpt><trkpt lat="59.1029064730" lon="30.4831239861"><ele>297.67</ele><time>2026-08-20T22:33:26Z</time></trkpt><trkpt lat="59.1029030364" lon="30.4831200466"><ele>297.67</ele><time>2026-08-20T22:33:27Z</time></trkpt><trkpt lat="59.1028990969" lon="30.4831145983"><ele>297.67</ele><time>2026-08-20T22:33:28Z</time></trkpt><trkpt lat="59.1028990969" lon="30.4831145983"><ele>297.67</ele><time>2026-08-20T22:33:29Z</time></trkpt><trkpt lat="59.1028990969" lon="30.4831145983"><ele>297.67</ele><time>2026-08-20T22:33:30Z</time></trkpt><trkpt lat="59.1028990969" lon="30.4831145983"><ele>297.67</ele><time>2026-08-20T22:33:31Z</time></trkpt><trkpt lat="59.1028975882" lon="30.4831038695"><ele>297.67</ele><time>2026-08-20T22:33:32Z</time></trkpt><trkpt lat="59.1028998513" lon="30.4830954876"><ele>297.67</ele><time>2026-08-20T22:33:33Z</time></trkpt><trkpt lat="59.1028994322" lon="30.4830841720"><ele>297.67</ele><time>2026-08-20T22:33:34Z</time></trkpt><trkpt lat="59.1028988454" lon="30.4830662347"><ele>297.67</ele><time>2026-08-20T22:33:35Z</time></trkpt><trkpt lat="59.1028992645" lon="30.4830484651"><ele>297.67</ele><time>2026-08-20T22:33:36Z</time></trkpt><trkpt lat="59.1028984264" lon="30.4830329586"><ele>297.67</ele><time>2026-08-20T22:33:37Z</time></trkpt><trkpt lat="59.1028981749" lon="30.4830144346"><ele>297.67</ele><time>2026-08-20T22:33:38Z</time></trkpt><trkpt lat="59.1028968338" lon="30.4829974193"><ele>297.67</ele><time>2026-08-20T22:33:39Z</time></trkpt><trkpt lat="59.1028952412" lon="30.4829858523"><ele>297.67</ele><time>2026-08-20T22:33:40Z</time></trkpt><trkpt lat="59.1028955765" lon="30.4829624668"><ele>297.67</ele><time>2026-08-20T22:33:41Z</time></trkpt><trkpt lat="59.1028964985" lon="30.4829445295"><ele>297.67</ele><time>2026-08-20T22:33:42Z</time></trkpt><trkpt lat="59.1029060539" lon="30.4829238262"><ele>297.67</ele><time>2026-08-20T22:33:43Z</time></trkpt><trkpt lat="59.1029081494" lon="30.4829010274"><ele>297.67</ele><time>2026-08-20T22:33:44Z</time></trkpt><trkpt lat="59.1029078979" lon="30.4828794859"><ele>297.67</ele><time>2026-08-20T22:33:45Z</time></trkpt><trkpt lat="59.1029040422" lon="30.4828588665"><ele>297.18</ele><time>2026-08-20T22:33:46Z</time></trkpt><trkpt lat="59.1028995998" lon="30.4828429408"><ele>297.18</ele><time>2026-08-20T22:33:47Z</time></trkpt><trkpt lat="59.1029004380" lon="30.4828311224"><ele>297.18</ele><time>2026-08-20T22:33:48Z</time></trkpt><trkpt lat="59.1028990969" lon="30.4828144424"><ele>297.18</ele><time>2026-08-20T22:33:49Z</time></trkpt><trkpt lat="59.1028980911" lon="30.4827991873"><ele>297.18</ele><time>2026-08-20T22:33:50Z</time></trkpt><trkpt lat="59.1028969176" lon="30.4827834293"><ele>297.18</ele><time>2026-08-20T22:33:51Z</time></trkpt><trkpt lat="59.1028960794" lon="30.4827576969"><ele>297.18</ele><time>2026-08-20T22:33:52Z</time></trkpt><trkpt lat="59.1028926428" lon="30.4827356525"><ele>297.18</ele><time>2026-08-20T22:33:53Z</time></trkpt><trkpt lat="59.1028896254" lon="30.4827170447"><ele>297.18</ele><time>2026-08-20T22:33:54Z</time></trkpt><trkpt lat="59.1028868593" lon="30.4826967604"><ele>297.18</ele><time>2026-08-20T22:33:55Z</time></trkpt><trkpt lat="59.1028835904" lon="30.4826811701"><ele>297.18</ele><time>2026-08-20T22:33:56Z</time></trkpt><trkpt lat="59.1028805729" lon="30.4826685973"><ele>297.18</ele><time>2026-08-20T22:33:57Z</time></trkpt><trkpt lat="59.1028777231" lon="30.4826494865"><ele>297.18</ele><time>2026-08-20T22:33:58Z</time></trkpt><trkpt lat="59.1028757952" lon="30.4826327227"><ele>297.18</ele><time>2026-08-20T22:33:59Z</time></trkpt><trkpt lat="59.1028752923" lon="30.4826209880"><ele>297.18</ele><time>2026-08-20T22:34:00Z</time></trkpt><trkpt lat="59.1028740350" lon="30.4826086666"><ele>297.18</ele><time>2026-08-20T22:34:01Z</time></trkpt><trkpt lat="59.1028745379" lon="30.4825934954"><ele>297.18</ele><time>2026-08-20T22:34:02Z</time></trkpt><trkpt lat="59.1028782260" lon="30.4825819284"><ele>297.18</ele><time>2026-08-20T22:34:03Z</time></trkpt><trkpt lat="59.1028775554" lon="30.4825723730"><ele>297.18</ele><time>2026-08-20T22:34:04Z</time></trkpt><trkpt lat="59.1028768849" lon="30.4825574532"><ele>297.18</ele><time>2026-08-20T22:34:05Z</time></trkpt><trkpt lat="59.1028757952" lon="30.4825511668"><ele>297.18</ele><time>2026-08-20T22:34:06Z</time></trkpt><trkpt lat="59.1028734483" lon="30.4825423658"><ele>297.67</ele><time>2026-08-20T22:34:07Z</time></trkpt><trkpt lat="59.1028697602" lon="30.4825226683"><ele>297.67</ele><time>2026-08-20T22:34:08Z</time></trkpt><trkpt lat="59.1028589476" lon="30.4824910685"><ele>297.67</ele><time>2026-08-20T22:34:09Z</time></trkpt><trkpt lat="59.1028565168" lon="30.4824722931"><ele>297.67</ele><time>2026-08-20T22:34:10Z</time></trkpt><trkpt lat="59.1028605402" lon="30.4824540205"><ele>297.67</ele><time>2026-08-20T22:34:11Z</time></trkpt><trkpt lat="59.1028634738" lon="30.4824360833"><ele>297.18</ele><time>2026-08-20T22:34:12Z</time></trkpt><trkpt lat="59.1028651502" lon="30.4824171402"><ele>297.18</ele><time>2026-08-20T22:34:13Z</time></trkpt><trkpt lat="59.1028639767" lon="30.4823946767"><ele>297.18</ele><time>2026-08-20T22:34:14Z</time></trkpt><trkpt lat="59.1028612945" lon="30.4823736381"><ele>297.18</ele><time>2026-08-20T22:34:15Z</time></trkpt><trkpt lat="59.1028609592" lon="30.4823534377"><ele>297.18</ele><time>2026-08-20T22:34:16Z</time></trkpt><trkpt lat="59.1028602887" lon="30.4823321477"><ele>297.18</ele><time>2026-08-20T22:34:17Z</time></trkpt><trkpt lat="59.1028556786" lon="30.4823062476"><ele>297.18</ele><time>2026-08-20T22:34:18Z</time></trkpt><trkpt lat="59.1028539184" lon="30.4822856281"><ele>297.18</ele><time>2026-08-20T22:34:19Z</time></trkpt><trkpt lat="59.1028522421" lon="30.4822656792"><ele>297.18</ele><time>2026-08-20T22:34:20Z</time></trkpt><trkpt lat="59.1028497275" lon="30.4822451435"><ele>297.67</ele><time>2026-08-20T22:34:21Z</time></trkpt><trkpt lat="59.1028465424" lon="30.4822229315"><ele>297.67</ele><time>2026-08-20T22:34:22Z</time></trkpt><trkpt lat="59.1028470453" lon="30.4822059162"><ele>297.67</ele><time>2026-08-20T22:34:23Z</time></trkpt><trkpt lat="59.1028485540" lon="30.4821911640"><ele>297.67</ele><time>2026-08-20T22:34:24Z</time></trkpt><trkpt lat="59.1028470453" lon="30.4821733944"><ele>297.67</ele><time>2026-08-20T22:34:25Z</time></trkpt><trkpt lat="59.1028427705" lon="30.4821554571"><ele>297.67</ele><time>2026-08-20T22:34:26Z</time></trkpt><trkpt lat="59.1028389987" lon="30.4821408726"><ele>297.67</ele><time>2026-08-20T22:34:27Z</time></trkpt><trkpt lat="59.1028347239" lon="30.4821155593"><ele>297.67</ele><time>2026-08-20T22:34:28Z</time></trkpt><trkpt lat="59.1028331313" lon="30.4820916709"><ele>297.67</ele><time>2026-08-20T22:34:29Z</time></trkpt><trkpt lat="59.1028327961" lon="30.4820708837"><ele>297.67</ele><time>2026-08-20T22:34:30Z</time></trkpt><trkpt lat="59.1028342210" lon="30.4820489231"><ele>297.67</ele><time>2026-08-20T22:34:31Z</time></trkpt><trkpt lat="59.1028371546" lon="30.4820292257"><ele>297.67</ele><time>2026-08-20T22:34:32Z</time></trkpt><trkpt lat="59.1028396692" lon="30.4820121266"><ele>297.67</ele><time>2026-08-20T22:34:33Z</time></trkpt><trkpt lat="59.1028389987" lon="30.4819882382"><ele>297.67</ele><time>2026-08-20T22:34:34Z</time></trkpt><trkpt lat="59.1028386634" lon="30.4819685407"><ele>297.67</ele><time>2026-08-20T22:34:35Z</time></trkpt><trkpt lat="59.1028366517" lon="30.4819477536"><ele>297.67</ele><time>2026-08-20T22:34:36Z</time></trkpt><trkpt lat="59.1028353944" lon="30.4819257930"><ele>297.67</ele><time>2026-08-20T22:34:37Z</time></trkpt><trkpt lat="59.1028357297" lon="30.4819057602"><ele>297.67</ele><time>2026-08-20T22:34:38Z</time></trkpt><trkpt lat="59.1028347239" lon="30.4818884935"><ele>297.67</ele><time>2026-08-20T22:34:39Z</time></trkpt><trkpt lat="59.1028317902" lon="30.4818704724"><ele>297.67</ele><time>2026-08-20T22:34:40Z</time></trkpt><trkpt lat="59.1028288566" lon="30.4818492662"><ele>297.67</ele><time>2026-08-20T22:34:41Z</time></trkpt><trkpt lat="59.1028258391" lon="30.4818283953"><ele>297.67</ele><time>2026-08-20T22:34:42Z</time></trkpt><trkpt lat="59.1028245818" lon="30.4818083625"><ele>297.67</ele><time>2026-08-20T22:34:43Z</time></trkpt><trkpt lat="59.1028234921" lon="30.4817882460"><ele>297.67</ele><time>2026-08-20T22:34:44Z</time></trkpt><trkpt lat="59.1028216481" lon="30.4817727394"><ele>297.67</ele><time>2026-08-20T22:34:45Z</time></trkpt><trkpt lat="59.1028220672" lon="30.4817641899"><ele>297.67</ele><time>2026-08-20T22:34:46Z</time></trkpt><trkpt lat="59.1028202232" lon="30.4817571491"><ele>297.67</ele><time>2026-08-20T22:34:47Z</time></trkpt><trkpt lat="59.1028216481" lon="30.4817423970"><ele>297.67</ele><time>2026-08-20T22:34:48Z</time></trkpt><trkpt lat="59.1028176248" lon="30.4817243759"><ele>297.67</ele><time>2026-08-20T22:34:49Z</time></trkpt><trkpt lat="59.1028118413" lon="30.4817058519"><ele>297.67</ele><time>2026-08-20T22:34:50Z</time></trkpt><trkpt lat="59.1028070636" lon="30.4816969670"><ele>297.67</ele><time>2026-08-20T22:34:51Z</time></trkpt><trkpt lat="59.1028010286" lon="30.4816894233"><ele>297.67</ele><time>2026-08-20T22:34:52Z</time></trkpt><trkpt lat="59.1027943231" lon="30.4816799518"><ele>297.67</ele><time>2026-08-20T22:34:53Z</time></trkpt><trkpt lat="59.1027882881" lon="30.4816690553"><ele>297.67</ele><time>2026-08-20T22:34:54Z</time></trkpt><trkpt lat="59.1027746256" lon="30.4816483520"><ele>297.67</ele><time>2026-08-20T22:34:55Z</time></trkpt><trkpt lat="59.1027677525" lon="30.4816365335"><ele>297.67</ele><time>2026-08-20T22:34:56Z</time></trkpt><trkpt lat="59.1027638968" lon="30.4816217814"><ele>297.18</ele><time>2026-08-20T22:34:57Z</time></trkpt><trkpt lat="59.1027611308" lon="30.4816055205"><ele>297.18</ele><time>2026-08-20T22:34:58Z</time></trkpt><trkpt lat="59.1027602926" lon="30.4815893434"><ele>297.18</ele><time>2026-08-20T22:34:59Z</time></trkpt><trkpt lat="59.1027636454" lon="30.4815648682"><ele>297.18</ele><time>2026-08-20T22:35:00Z</time></trkpt><trkpt lat="59.1027634777" lon="30.4815417342"><ele>297.18</ele><time>2026-08-20T22:35:01Z</time></trkpt><trkpt lat="59.1027629748" lon="30.4815198574"><ele>297.18</ele><time>2026-08-20T22:35:02Z</time></trkpt><trkpt lat="59.1027607955" lon="30.4814944603"><ele>297.18</ele><time>2026-08-20T22:35:03Z</time></trkpt><trkpt lat="59.1027583648" lon="30.4814699851"><ele>297.18</ele><time>2026-08-20T22:35:04Z</time></trkpt><trkpt lat="59.1027574427" lon="30.4814474378"><ele>297.18</ele><time>2026-08-20T22:35:05Z</time></trkpt><trkpt lat="59.1027554311" lon="30.4814245552"><ele>297.18</ele><time>2026-08-20T22:35:06Z</time></trkpt><trkpt lat="59.1027568560" lon="30.4814041872"><ele>297.18</ele><time>2026-08-20T22:35:07Z</time></trkpt><trkpt lat="59.1027589515" lon="30.4813826457"><ele>297.18</ele><time>2026-08-20T22:35:08Z</time></trkpt><trkpt lat="59.1027589515" lon="30.4813617747"><ele>297.18</ele><time>2026-08-20T22:35:09Z</time></trkpt><trkpt lat="59.1027601250" lon="30.4813414905"><ele>297.18</ele><time>2026-08-20T22:35:10Z</time></trkpt><trkpt lat="59.1027599573" lon="30.4813182727"><ele>297.18</ele><time>2026-08-20T22:35:11Z</time></trkpt><trkpt lat="59.1027585324" lon="30.4812950548"><ele>297.18</ele><time>2026-08-20T22:35:12Z</time></trkpt><trkpt lat="59.1027558502" lon="30.4812729266"><ele>297.18</ele><time>2026-08-20T22:35:13Z</time></trkpt><trkpt lat="59.1027524974" lon="30.4812526423"><ele>297.18</ele><time>2026-08-20T22:35:14Z</time></trkpt><trkpt lat="59.1027506534" lon="30.4812409915"><ele>297.18</ele><time>2026-08-20T22:35:15Z</time></trkpt><trkpt lat="59.1027492285" lon="30.4812266584"><ele>297.18</ele><time>2026-08-20T22:35:16Z</time></trkpt><trkpt lat="59.1027482226" lon="30.4812128283"><ele>297.18</ele><time>2026-08-20T22:35:17Z</time></trkpt><trkpt lat="59.1027462948" lon="30.4811916221"><ele>297.18</ele><time>2026-08-20T22:35:18Z</time></trkpt><trkpt lat="59.1027465463" lon="30.4811699968"><ele>297.18</ele><time>2026-08-20T22:35:19Z</time></trkpt><trkpt lat="59.1027490608" lon="30.4811497964"><ele>297.18</ele><time>2026-08-20T22:35:20Z</time></trkpt><trkpt lat="59.1027508210" lon="30.4811315238"><ele>297.18</ele><time>2026-08-20T22:35:21Z</time></trkpt><trkpt lat="59.1027536709" lon="30.4811152630"><ele>297.18</ele><time>2026-08-20T22:35:22Z</time></trkpt><trkpt lat="59.1027561855" lon="30.4810952302"><ele>297.18</ele><time>2026-08-20T22:35:23Z</time></trkpt><trkpt lat="59.1027539223" lon="30.4810690787"><ele>297.18</ele><time>2026-08-20T22:35:24Z</time></trkpt><trkpt lat="59.1027520783" lon="30.4810450226"><ele>297.18</ele><time>2026-08-20T22:35:25Z</time></trkpt><trkpt lat="59.1027533356" lon="30.4810233973"><ele>297.18</ele><time>2026-08-20T22:35:26Z</time></trkpt><trkpt lat="59.1027550958" lon="30.4810023587"><ele>297.18</ele><time>2026-08-20T22:35:27Z</time></trkpt><trkpt lat="59.1027542576" lon="30.4809780512"><ele>297.18</ele><time>2026-08-20T22:35:28Z</time></trkpt><trkpt lat="59.1027520783" lon="30.4809521511"><ele>297.18</ele><time>2026-08-20T22:35:29Z</time></trkpt><trkpt lat="59.1027497314" lon="30.4809315316"><ele>297.18</ele><time>2026-08-20T22:35:30Z</time></trkpt><trkpt lat="59.1027492285" lon="30.4809120856"><ele>297.18</ele><time>2026-08-20T22:35:31Z</time></trkpt><trkpt lat="59.1027512401" lon="30.4808926396"><ele>297.18</ele><time>2026-08-20T22:35:32Z</time></trkpt><trkpt lat="59.1027515754" lon="30.4808730260"><ele>297.18</ele><time>2026-08-20T22:35:33Z</time></trkpt><trkpt lat="59.1027502343" lon="30.4808535799"><ele>297.18</ele><time>2026-08-20T22:35:34Z</time></trkpt><trkpt lat="59.1027492285" lon="30.4808370676"><ele>297.18</ele><time>2026-08-20T22:35:35Z</time></trkpt><trkpt lat="59.1027494799" lon="30.4808199685"><ele>297.18</ele><time>2026-08-20T22:35:36Z</time></trkpt><trkpt lat="59.1027493961" lon="30.4808011930"><ele>297.18</ele><time>2026-08-20T22:35:37Z</time></trkpt><trkpt lat="59.1027495638" lon="30.4807851836"><ele>297.18</ele><time>2026-08-20T22:35:38Z</time></trkpt><trkpt lat="59.1027457919" lon="30.4807626363"><ele>297.18</ele><time>2026-08-20T22:35:39Z</time></trkpt><trkpt lat="59.1027438641" lon="30.4807458725"><ele>297.18</ele><time>2026-08-20T22:35:40Z</time></trkpt><trkpt lat="59.1027404275" lon="30.4807268456"><ele>297.18</ele><time>2026-08-20T22:35:41Z</time></trkpt><trkpt lat="59.1027339734" lon="30.4807132669"><ele>297.18</ele><time>2026-08-20T22:35:42Z</time></trkpt><trkpt lat="59.1027326323" lon="30.4806979280"><ele>297.18</ele><time>2026-08-20T22:35:43Z</time></trkpt><trkpt lat="59.1027323809" lon="30.4806791525"><ele>297.18</ele><time>2026-08-20T22:35:44Z</time></trkpt><trkpt lat="59.1027335543" lon="30.4806612991"><ele>297.18</ele><time>2026-08-20T22:35:45Z</time></trkpt><trkpt lat="59.1027332190" lon="30.4806448705"><ele>297.18</ele><time>2026-08-20T22:35:46Z</time></trkpt><trkpt lat="59.1027338896" lon="30.4806293640"><ele>297.18</ele><time>2026-08-20T22:35:47Z</time></trkpt><trkpt lat="59.1027359851" lon="30.4806162883"><ele>297.18</ele><time>2026-08-20T22:35:48Z</time></trkpt><trkpt lat="59.1027372424" lon="30.4806034639"><ele>297.18</ele><time>2026-08-20T22:35:49Z</time></trkpt><trkpt lat="59.1027326323" lon="30.4805854429"><ele>297.18</ele><time>2026-08-20T22:35:50Z</time></trkpt><trkpt lat="59.1027320456" lon="30.4805635661"><ele>297.18</ele><time>2026-08-20T22:35:51Z</time></trkpt><trkpt lat="59.1027244180" lon="30.4805381689"><ele>297.18</ele><time>2026-08-20T22:35:52Z</time></trkpt><trkpt lat="59.1027233284" lon="30.4805222433"><ele>297.18</ele><time>2026-08-20T22:35:53Z</time></trkpt><trkpt lat="59.1027235799" lon="30.4805043899"><ele>297.18</ele><time>2026-08-20T22:35:54Z</time></trkpt><trkpt lat="59.1027244180" lon="30.4804883804"><ele>297.18</ele><time>2026-08-20T22:35:55Z</time></trkpt><trkpt lat="59.1027237475" lon="30.4804693535"><ele>297.18</ele><time>2026-08-20T22:35:56Z</time></trkpt><trkpt lat="59.1027231608" lon="30.4804492369"><ele>297.18</ele><time>2026-08-20T22:35:57Z</time></trkpt><trkpt lat="59.1027242504" lon="30.4804329760"><ele>297.18</ele><time>2026-08-20T22:35:58Z</time></trkpt><trkpt lat="59.1027259268" lon="30.4804164637"><ele>297.18</ele><time>2026-08-20T22:35:59Z</time></trkpt><trkpt lat="59.1027239989" lon="30.4804123566"><ele>297.18</ele><time>2026-08-20T22:36:00Z</time></trkpt><trkpt lat="59.1027243342" lon="30.4804014601"><ele>297.18</ele><time>2026-08-20T22:36:01Z</time></trkpt><trkpt lat="59.1027263459" lon="30.4803860374"><ele>297.18</ele><time>2026-08-20T22:36:02Z</time></trkpt><trkpt lat="59.1027308721" lon="30.4803728778"><ele>297.18</ele><time>2026-08-20T22:36:03Z</time></trkpt><trkpt lat="59.1027330514" lon="30.4803590477"><ele>297.18</ele><time>2026-08-20T22:36:04Z</time></trkpt><trkpt lat="59.1027333867" lon="30.4803363327"><ele>297.18</ele><time>2026-08-20T22:36:05Z</time></trkpt><trkpt lat="59.1027282737" lon="30.4803218320"><ele>297.18</ele><time>2026-08-20T22:36:06Z</time></trkpt><trkpt lat="59.1027266812" lon="30.4803065769"><ele>297.18</ele><time>2026-08-20T22:36:07Z</time></trkpt><trkpt lat="59.1027267650" lon="30.4802912381"><ele>297.18</ele><time>2026-08-20T22:36:08Z</time></trkpt><trkpt lat="59.1027257591" lon="30.4802784976"><ele>297.18</ele><time>2026-08-20T22:36:09Z</time></trkpt><trkpt lat="59.1027250886" lon="30.4802636616"><ele>297.18</ele><time>2026-08-20T22:36:10Z</time></trkpt><trkpt lat="59.1027258430" lon="30.4802417848"><ele>297.18</ele><time>2026-08-20T22:36:11Z</time></trkpt><trkpt lat="59.1027286928" lon="30.4802266974"><ele>297.18</ele><time>2026-08-20T22:36:12Z</time></trkpt><trkpt lat="59.1027252562" lon="30.4802120291"><ele>297.18</ele><time>2026-08-20T22:36:13Z</time></trkpt><trkpt lat="59.1027202271" lon="30.4801956844"><ele>297.18</ele><time>2026-08-20T22:36:14Z</time></trkpt><trkpt lat="59.1027184669" lon="30.4801749811"><ele>297.18</ele><time>2026-08-20T22:36:15Z</time></trkpt><trkpt lat="59.1027186345" lon="30.4801572952"><ele>297.18</ele><time>2026-08-20T22:36:16Z</time></trkpt><trkpt lat="59.1027130187" lon="30.4801423755"><ele>297.18</ele><time>2026-08-20T22:36:17Z</time></trkpt><trkpt lat="59.1027099174" lon="30.4801237676"><ele>297.18</ele><time>2026-08-20T22:36:18Z</time></trkpt><trkpt lat="59.1027079895" lon="30.4801017232"><ele>297.18</ele><time>2026-08-20T22:36:19Z</time></trkpt><trkpt lat="59.1027073190" lon="30.4800825287"><ele>297.18</ele><time>2026-08-20T22:36:20Z</time></trkpt><trkpt lat="59.1027055588" lon="30.4800587241"><ele>297.18</ele><time>2026-08-20T22:36:21Z</time></trkpt><trkpt lat="59.1027047206" lon="30.4800382722"><ele>297.18</ele><time>2026-08-20T22:36:22Z</time></trkpt><trkpt lat="59.1027039662" lon="30.4800223466"><ele>297.18</ele><time>2026-08-20T22:36:23Z</time></trkpt><trkpt lat="59.1027079895" lon="30.4800114501"><ele>297.18</ele><time>2026-08-20T22:36:24Z</time></trkpt><trkpt lat="59.1027119290" lon="30.4799959436"><ele>297.18</ele><time>2026-08-20T22:36:25Z</time></trkpt><trkpt lat="59.1027148627" lon="30.4799790960"><ele>297.18</ele><time>2026-08-20T22:36:26Z</time></trkpt><trkpt lat="59.1027152818" lon="30.4799576383"><ele>297.18</ele><time>2026-08-20T22:36:27Z</time></trkpt><trkpt lat="59.1027178802" lon="30.4799390305"><ele>297.18</ele><time>2026-08-20T22:36:28Z</time></trkpt><trkpt lat="59.1027204785" lon="30.4799186625"><ele>297.18</ele><time>2026-08-20T22:36:29Z</time></trkpt><trkpt lat="59.1027230769" lon="30.4799033236"><ele>297.18</ele><time>2026-08-20T22:36:30Z</time></trkpt><trkpt lat="59.1027223226" lon="30.4798918404"><ele>297.18</ele><time>2026-08-20T22:36:31Z</time></trkpt><trkpt lat="59.1027209815" lon="30.4798821174"><ele>297.18</ele><time>2026-08-20T22:36:32Z</time></trkpt><trkpt lat="59.1027191374" lon="30.4798718914"><ele>297.18</ele><time>2026-08-20T22:36:33Z</time></trkpt><trkpt lat="59.1027185507" lon="30.4798591509"><ele>297.18</ele><time>2026-08-20T22:36:34Z</time></trkpt><trkpt lat="59.1027163714" lon="30.4798472486"><ele>297.18</ele><time>2026-08-20T22:36:35Z</time></trkpt><trkpt lat="59.1027152818" lon="30.4798334185"><ele>297.18</ele><time>2026-08-20T22:36:36Z</time></trkpt><trkpt lat="59.1027151980" lon="30.4798222706"><ele>297.18</ele><time>2026-08-20T22:36:37Z</time></trkpt><trkpt lat="59.1027156170" lon="30.4798109550"><ele>297.18</ele><time>2026-08-20T22:36:38Z</time></trkpt><trkpt lat="59.1027152818" lon="30.4798015673"><ele>297.18</ele><time>2026-08-20T22:36:39Z</time></trkpt><trkpt lat="59.1027152818" lon="30.4798015673"><ele>297.18</ele><time>2026-08-20T22:36:40Z</time></trkpt><trkpt lat="59.1027152818" lon="30.4798015673"><ele>297.18</ele><time>2026-08-20T22:36:41Z</time></trkpt><trkpt lat="59.1027152818" lon="30.4798015673"><ele>297.18</ele><time>2026-08-20T22:36:42Z</time></trkpt><trkpt lat="59.1027152818" lon="30.4798015673"><ele>297.18</ele><time>2026-08-20T22:36:43Z</time></trkpt><trkpt lat="59.1027152818" lon="30.4798015673"><ele>297.18</ele><time>2026-08-20T22:36:44Z</time></trkpt><trkpt lat="59.1027152818" lon="30.4798015673"><ele>297.18</ele><time>2026-08-20T22:36:45Z</time></trkpt><trkpt lat="59.1027152818" lon="30.4798015673"><ele>297.18</ele><time>2026-08-20T22:36:46Z</time></trkpt><trkpt lat="59.1027152818" lon="30.4798015673"><ele>297.18</ele><time>2026-08-20T22:36:47Z</time></trkpt><trkpt lat="59.1027152818" lon="30.4798015673"><ele>297.18</ele><time>2026-08-20T22:36:48Z</time></trkpt><trkpt lat="59.1027152818" lon="30.4798015673"><ele>297.18</ele><time>2026-08-20T22:36:49Z</time></trkpt><trkpt lat="59.1027155332" lon="30.4797437321"><ele>297.18</ele><time>2026-08-20T22:36:50Z</time></trkpt><trkpt lat="59.1027172934" lon="30.4797242861"><ele>297.18</ele><time>2026-08-20T22:36:51Z</time></trkpt><trkpt lat="59.1027176287" lon="30.4797044210"><ele>297.18</ele><time>2026-08-20T22:36:52Z</time></trkpt><trkpt lat="59.1027165391" lon="30.4796802811"><ele>297.18</ele><time>2026-08-20T22:36:53Z</time></trkpt><trkpt lat="59.1027174611" lon="30.4796630982"><ele>297.18</ele><time>2026-08-20T22:36:54Z</time></trkpt><trkpt lat="59.1027152818" lon="30.4796416406"><ele>297.18</ele><time>2026-08-20T22:36:55Z</time></trkpt><trkpt lat="59.1027144436" lon="30.4796211887"><ele>297.18</ele><time>2026-08-20T22:36:56Z</time></trkpt><trkpt lat="59.1027128510" lon="30.4796048440"><ele>297.18</ele><time>2026-08-20T22:36:57Z</time></trkpt><trkpt lat="59.1027091630" lon="30.4795888346"><ele>297.18</ele><time>2026-08-20T22:36:58Z</time></trkpt><trkpt lat="59.1027052235" lon="30.4795764294"><ele>297.18</ele><time>2026-08-20T22:36:59Z</time></trkpt><trkpt lat="59.1027003620" lon="30.4795632698"><ele>297.18</ele><time>2026-08-20T22:37:00Z</time></trkpt><trkpt lat="59.1026949976" lon="30.4795519542"><ele>297.18</ele><time>2026-08-20T22:37:01Z</time></trkpt><trkpt lat="59.1026882920" lon="30.4795412254"><ele>297.18</ele><time>2026-08-20T22:37:02Z</time></trkpt><trkpt lat="59.1026835982" lon="30.4795313347"><ele>297.18</ele><time>2026-08-20T22:37:03Z</time></trkpt><trkpt lat="59.1026806645" lon="30.4795240425"><ele>297.18</ele><time>2026-08-20T22:37:04Z</time></trkpt><trkpt lat="59.1026758868" lon="30.4795020819"><ele>297.18</ele><time>2026-08-20T22:37:05Z</time></trkpt><trkpt lat="59.1026730370" lon="30.4794836417"><ele>297.18</ele><time>2026-08-20T22:37:06Z</time></trkpt><trkpt lat="59.1026728693" lon="30.4794729967"><ele>297.18</ele><time>2026-08-20T22:37:07Z</time></trkpt><trkpt lat="59.1026713606" lon="30.4794585798"><ele>297.18</ele><time>2026-08-20T22:37:08Z</time></trkpt><trkpt lat="59.1026704386" lon="30.4794455878"><ele>297.18</ele><time>2026-08-20T22:37:09Z</time></trkpt><trkpt lat="59.1026691813" lon="30.4794313386"><ele>297.18</ele><time>2026-08-20T22:37:10Z</time></trkpt><trkpt lat="59.1026730370" lon="30.4794221185"><ele>297.18</ele><time>2026-08-20T22:37:11Z</time></trkpt><trkpt lat="59.1026766412" lon="30.4794013314"><ele>297.18</ele><time>2026-08-20T22:37:12Z</time></trkpt><trkpt lat="59.1026791558" lon="30.4793879203"><ele>297.18</ele><time>2026-08-20T22:37:13Z</time></trkpt><trkpt lat="59.1026798263" lon="30.4793708213"><ele>297.18</ele><time>2026-08-20T22:37:14Z</time></trkpt><trkpt lat="59.1026777308" lon="30.4793451726"><ele>297.18</ele><time>2026-08-20T22:37:15Z</time></trkpt><trkpt lat="59.1026775632" lon="30.4793209489"><ele>297.18</ele><time>2026-08-20T22:37:16Z</time></trkpt><trkpt lat="59.1026759706" lon="30.4792989884"><ele>297.18</ele><time>2026-08-20T22:37:17Z</time></trkpt><trkpt lat="59.1026770603" lon="30.4792904388"><ele>297.18</ele><time>2026-08-20T22:37:18Z</time></trkpt><trkpt lat="59.1026637331" lon="30.4792637844"><ele>297.18</ele><time>2026-08-20T22:37:19Z</time></trkpt><trkpt lat="59.1026541777" lon="30.4792495351"><ele>297.67</ele><time>2026-08-20T22:37:20Z</time></trkpt><trkpt lat="59.1026541777" lon="30.4792495351"><ele>297.67</ele><time>2026-08-20T22:37:21Z</time></trkpt><trkpt lat="59.1026541777" lon="30.4792495351"><ele>297.67</ele><time>2026-08-20T22:37:22Z</time></trkpt><trkpt lat="59.1026541777" lon="30.4792495351"><ele>297.67</ele><time>2026-08-20T22:37:23Z</time></trkpt><trkpt lat="59.1026541777" lon="30.4792495351"><ele>297.67</ele><time>2026-08-20T22:37:24Z</time></trkpt><trkpt lat="59.1026541777" lon="30.4792495351"><ele>297.67</ele><time>2026-08-20T22:37:25Z</time></trkpt><trkpt lat="59.1026541777" lon="30.4792495351"><ele>297.67</ele><time>2026-08-20T22:37:26Z</time></trkpt><trkpt lat="59.1026541777" lon="30.4792495351"><ele>297.67</ele><time>2026-08-20T22:37:27Z</time></trkpt><trkpt lat="59.1026541777" lon="30.4792495351"><ele>297.67</ele><time>2026-08-20T22:37:28Z</time></trkpt><trkpt lat="59.1026541777" lon="30.4792495351"><ele>297.67</ele><time>2026-08-20T22:37:29Z</time></trkpt><trkpt lat="59.1026541777" lon="30.4792495351"><ele>297.67</ele><time>2026-08-20T22:37:30Z</time></trkpt><trkpt lat="59.1026541777" lon="30.4792495351"><ele>297.67</ele><time>2026-08-20T22:37:31Z</time></trkpt><trkpt lat="59.1026541777" lon="30.4792495351"><ele>297.67</ele><time>2026-08-20T22:37:32Z</time></trkpt><trkpt lat="59.1026541777" lon="30.4792495351"><ele>297.67</ele><time>2026-08-20T22:37:33Z</time></trkpt><trkpt lat="59.1026541777" lon="30.4792495351"><ele>297.67</ele><time>2026-08-20T22:37:34Z</time></trkpt><trkpt lat="59.1026527528" lon="30.4792331904"><ele>297.67</ele><time>2026-08-20T22:37:35Z</time></trkpt><trkpt lat="59.1026552673" lon="30.4792189412"><ele>297.67</ele><time>2026-08-20T22:37:36Z</time></trkpt><trkpt lat="59.1026568599" lon="30.4792023450"><ele>297.67</ele><time>2026-08-20T22:37:37Z</time></trkpt><trkpt lat="59.1026556864" lon="30.4791828990"><ele>297.67</ele><time>2026-08-20T22:37:38Z</time></trkpt><trkpt lat="59.1026531719" lon="30.4791679792"><ele>297.18</ele><time>2026-08-20T22:37:39Z</time></trkpt><trkpt lat="59.1026489809" lon="30.4791545682"><ele>297.18</ele><time>2026-08-20T22:37:40Z</time></trkpt><trkpt lat="59.1026446223" lon="30.4791357927"><ele>297.18</ele><time>2026-08-20T22:37:41Z</time></trkpt><trkpt lat="59.1026410181" lon="30.4791161790"><ele>297.18</ele><time>2026-08-20T22:37:42Z</time></trkpt><trkpt lat="59.1026424430" lon="30.4790998343"><ele>297.18</ele><time>2026-08-20T22:37:43Z</time></trkpt><trkpt lat="59.1026425269" lon="30.4790838249"><ele>297.18</ele><time>2026-08-20T22:37:44Z</time></trkpt><trkpt lat="59.1026420239" lon="30.4790662229"><ele>297.18</ele><time>2026-08-20T22:37:45Z</time></trkpt><trkpt lat="59.1026407667" lon="30.4790446814"><ele>297.67</ele><time>2026-08-20T22:37:46Z</time></trkpt><trkpt lat="59.1026404314" lon="30.4790272471"><ele>297.67</ele><time>2026-08-20T22:37:47Z</time></trkpt><trkpt lat="59.1026377492" lon="30.4790095612"><ele>297.67</ele><time>2026-08-20T22:37:48Z</time></trkpt><trkpt lat="59.1026359890" lon="30.4789922945"><ele>297.67</ele><time>2026-08-20T22:37:49Z</time></trkpt><trkpt lat="59.1026352346" lon="30.4789738543"><ele>297.67</ele><time>2026-08-20T22:37:50Z</time></trkpt><trkpt lat="59.1026342288" lon="30.4789540730"><ele>297.67</ele><time>2026-08-20T22:37:51Z</time></trkpt><trkpt lat="59.1026321333" lon="30.4789322801"><ele>297.67</ele><time>2026-08-20T22:37:52Z</time></trkpt><trkpt lat="59.1026319657" lon="30.4789146781"><ele>297.67</ele><time>2026-08-20T22:37:53Z</time></trkpt><trkpt lat="59.1026324686" lon="30.4788971599"><ele>297.67</ele><time>2026-08-20T22:37:54Z</time></trkpt><trkpt lat="59.1026322171" lon="30.4788784683"><ele>297.67</ele><time>2026-08-20T22:37:55Z</time></trkpt><trkpt lat="59.1026328877" lon="30.4788597766"><ele>297.67</ele><time>2026-08-20T22:37:56Z</time></trkpt><trkpt lat="59.1026326362" lon="30.4788389895"><ele>297.67</ele><time>2026-08-20T22:37:57Z</time></trkpt><trkpt lat="59.1026345640" lon="30.4788198788"><ele>297.67</ele><time>2026-08-20T22:37:58Z</time></trkpt><trkpt lat="59.1026365757" lon="30.4788015224"><ele>297.67</ele><time>2026-08-20T22:37:59Z</time></trkpt><trkpt lat="59.1026366595" lon="30.4787865188"><ele>297.67</ele><time>2026-08-20T22:38:00Z</time></trkpt><trkpt lat="59.1026412696" lon="30.4787709285"><ele>297.67</ele><time>2026-08-20T22:38:01Z</time></trkpt><trkpt lat="59.1026445385" lon="30.4787541647"><ele>297.67</ele><time>2026-08-20T22:38:02Z</time></trkpt><trkpt lat="59.1026467178" lon="30.4787340481"><ele>297.67</ele><time>2026-08-20T22:38:03Z</time></trkpt><trkpt lat="59.1026510764" lon="30.4787145182"><ele>297.67</ele><time>2026-08-20T22:38:04Z</time></trkpt><trkpt lat="59.1026544292" lon="30.4786956590"><ele>297.67</ele><time>2026-08-20T22:38:05Z</time></trkpt><trkpt lat="59.1026591230" lon="30.4786775541"><ele>297.67</ele><time>2026-08-20T22:38:06Z</time></trkpt><trkpt lat="59.1026623920" lon="30.4786562640"><ele>297.67</ele><time>2026-08-20T22:38:07Z</time></trkpt><trkpt lat="59.1026628949" lon="30.4786327947"><ele>297.67</ele><time>2026-08-20T22:38:08Z</time></trkpt><trkpt lat="59.1026614700" lon="30.4786064755"><ele>297.67</ele><time>2026-08-20T22:38:09Z</time></trkpt><trkpt lat="59.1026595421" lon="30.4785814974"><ele>297.67</ele><time>2026-08-20T22:38:10Z</time></trkpt><trkpt lat="59.1026549321" lon="30.4785573576"><ele>297.67</ele><time>2026-08-20T22:38:11Z</time></trkpt><trkpt lat="59.1026544292" lon="30.4785421863"><ele>297.67</ele><time>2026-08-20T22:38:12Z</time></trkpt><trkpt lat="59.1026556864" lon="30.4785310384"><ele>297.67</ele><time>2026-08-20T22:38:13Z</time></trkpt><trkpt lat="59.1026553512" lon="30.4785177950"><ele>297.67</ele><time>2026-08-20T22:38:14Z</time></trkpt><trkpt lat="59.1026572790" lon="30.4784918949"><ele>297.67</ele><time>2026-08-20T22:38:15Z</time></trkpt><trkpt lat="59.1026597936" lon="30.4784700181"><ele>297.67</ele><time>2026-08-20T22:38:16Z</time></trkpt><trkpt lat="59.1026611347" lon="30.4784502368"><ele>297.67</ele><time>2026-08-20T22:38:17Z</time></trkpt><trkpt lat="59.1026575305" lon="30.4784298688"><ele>297.67</ele><time>2026-08-20T22:38:18Z</time></trkpt><trkpt lat="59.1026544292" lon="30.4784115963"><ele>297.67</ele><time>2026-08-20T22:38:19Z</time></trkpt><trkpt lat="59.1026517469" lon="30.4783956707"><ele>297.67</ele><time>2026-08-20T22:38:20Z</time></trkpt><trkpt lat="59.1026487295" lon="30.4783775657"><ele>297.67</ele><time>2026-08-20T22:38:21Z</time></trkpt><trkpt lat="59.1026466340" lon="30.4783583712"><ele>297.67</ele><time>2026-08-20T22:38:22Z</time></trkpt><trkpt lat="59.1026446223" lon="30.4783426970"><ele>297.67</ele><time>2026-08-20T22:38:23Z</time></trkpt><trkpt lat="59.1026442870" lon="30.4783246759"><ele>297.67</ele><time>2026-08-20T22:38:24Z</time></trkpt><trkpt lat="59.1026443709" lon="30.4783100914"><ele>297.67</ele><time>2026-08-20T22:38:25Z</time></trkpt><trkpt lat="59.1026430298" lon="30.4782923218"><ele>297.67</ele><time>2026-08-20T22:38:26Z</time></trkpt><trkpt lat="59.1026422754" lon="30.4782784916"><ele>297.67</ele><time>2026-08-20T22:38:27Z</time></trkpt><trkpt lat="59.1026401799" lon="30.4782667570"><ele>297.67</ele><time>2026-08-20T22:38:28Z</time></trkpt><trkpt lat="59.1026352346" lon="30.4782392643"><ele>297.67</ele><time>2026-08-20T22:38:29Z</time></trkpt><trkpt lat="59.1026329715" lon="30.4782259371"><ele>297.67</ele><time>2026-08-20T22:38:30Z</time></trkpt><trkpt lat="59.1026352346" lon="30.4782111850"><ele>297.67</ele><time>2026-08-20T22:38:31Z</time></trkpt><trkpt lat="59.1026300378" lon="30.4781958461"><ele>297.67</ele><time>2026-08-20T22:38:32Z</time></trkpt><trkpt lat="59.1026254278" lon="30.4781787470"><ele>297.67</ele><time>2026-08-20T22:38:33Z</time></trkpt><trkpt lat="59.1026208177" lon="30.4781581275"><ele>297.67</ele><time>2026-08-20T22:38:34Z</time></trkpt><trkpt lat="59.1026200633" lon="30.4781349935"><ele>297.67</ele><time>2026-08-20T22:38:35Z</time></trkpt><trkpt lat="59.1026192252" lon="30.4781133682"><ele>297.67</ele><time>2026-08-20T22:38:36Z</time></trkpt><trkpt lat="59.1026170459" lon="30.4780964367"><ele>297.67</ele><time>2026-08-20T22:38:37Z</time></trkpt><trkpt lat="59.1026158724" lon="30.4780777451"><ele>297.67</ele><time>2026-08-20T22:38:38Z</time></trkpt><trkpt lat="59.1026134416" lon="30.4780634958"><ele>297.67</ele><time>2026-08-20T22:38:39Z</time></trkpt><trkpt lat="59.1026091669" lon="30.4780445527"><ele>297.67</ele><time>2026-08-20T22:38:40Z</time></trkpt><trkpt lat="59.1026042216" lon="30.4780237656"><ele>297.67</ele><time>2026-08-20T22:38:41Z</time></trkpt><trkpt lat="59.1025996953" lon="30.4779982846"><ele>297.67</ele><time>2026-08-20T22:38:42Z</time></trkpt><trkpt lat="59.1025933251" lon="30.4779787548"><ele>297.67</ele><time>2026-08-20T22:38:43Z</time></trkpt><trkpt lat="59.1025908943" lon="30.4779672716"><ele>297.67</ele><time>2026-08-20T22:38:44Z</time></trkpt><trkpt lat="59.1025866196" lon="30.4779552855"><ele>297.67</ele><time>2026-08-20T22:38:45Z</time></trkpt><trkpt lat="59.1025838535" lon="30.4779388569"><ele>297.67</ele><time>2026-08-20T22:38:46Z</time></trkpt><trkpt lat="59.1025847755" lon="30.4779294692"><ele>297.67</ele><time>2026-08-20T22:38:47Z</time></trkpt><trkpt lat="59.1025818419" lon="30.4779126216"><ele>297.67</ele><time>2026-08-20T22:38:48Z</time></trkpt><trkpt lat="59.1025789920" lon="30.4778961930"><ele>297.67</ele><time>2026-08-20T22:38:49Z</time></trkpt><trkpt lat="59.1025760584" lon="30.4778802674"><ele>297.67</ele><time>2026-08-20T22:38:50Z</time></trkpt><trkpt lat="59.1025742982" lon="30.4778672755"><ele>297.67</ele><time>2026-08-20T22:38:51Z</time></trkpt><trkpt lat="59.1025732923" lon="30.4778492544"><ele>297.67</ele><time>2026-08-20T22:38:52Z</time></trkpt><trkpt lat="59.1025728732" lon="30.4778314847"><ele>297.67</ele><time>2026-08-20T22:38:53Z</time></trkpt><trkpt lat="59.1025725380" lon="30.4778153915"><ele>297.67</ele><time>2026-08-20T22:38:54Z</time></trkpt><trkpt lat="59.1025718674" lon="30.4777992982"><ele>297.67</ele><time>2026-08-20T22:38:55Z</time></trkpt><trkpt lat="59.1025720350" lon="30.4777834564"><ele>297.18</ele><time>2026-08-20T22:38:56Z</time></trkpt><trkpt lat="59.1025723703" lon="30.4777677823"><ele>297.67</ele><time>2026-08-20T22:38:57Z</time></trkpt><trkpt lat="59.1025709454" lon="30.4777522758"><ele>297.67</ele><time>2026-08-20T22:38:58Z</time></trkpt><trkpt lat="59.1025719512" lon="30.4777336679"><ele>297.67</ele><time>2026-08-20T22:38:59Z</time></trkpt><trkpt lat="59.1025722865" lon="30.4777123779"><ele>297.67</ele><time>2026-08-20T22:39:00Z</time></trkpt><trkpt lat="59.1025713645" lon="30.4776881542"><ele>297.67</ele><time>2026-08-20T22:39:01Z</time></trkpt><trkpt lat="59.1025699396" lon="30.4776642658"><ele>297.67</ele><time>2026-08-20T22:39:02Z</time></trkpt><trkpt lat="59.1025667544" lon="30.4776403774"><ele>297.67</ele><time>2026-08-20T22:39:03Z</time></trkpt><trkpt lat="59.1025636531" lon="30.4776153993"><ele>297.67</ele><time>2026-08-20T22:39:04Z</time></trkpt><trkpt lat="59.1025606357" lon="30.4775931872"><ele>297.67</ele><time>2026-08-20T22:39:05Z</time></trkpt><trkpt lat="59.1025619768" lon="30.4775732383"><ele>297.67</ele><time>2026-08-20T22:39:06Z</time></trkpt><trkpt lat="59.1025627311" lon="30.4775545467"><ele>297.67</ele><time>2026-08-20T22:39:07Z</time></trkpt><trkpt lat="59.1025624797" lon="30.4775405489"><ele>297.67</ele><time>2026-08-20T22:39:08Z</time></trkpt><trkpt lat="59.1025643237" lon="30.4775272217"><ele>297.67</ele><time>2026-08-20T22:39:09Z</time></trkpt><trkpt lat="59.1025636531" lon="30.4775145650"><ele>297.67</ele><time>2026-08-20T22:39:10Z</time></trkpt><trkpt lat="59.1025643237" lon="30.4774999805"><ele>297.67</ele><time>2026-08-20T22:39:11Z</time></trkpt><trkpt lat="59.1025630664" lon="30.4774860665"><ele>297.67</ele><time>2026-08-20T22:39:12Z</time></trkpt><trkpt lat="59.1025614738" lon="30.4774726555"><ele>297.67</ele><time>2026-08-20T22:39:13Z</time></trkpt><trkpt lat="59.1025614738" lon="30.4774574842"><ele>297.67</ele><time>2026-08-20T22:39:14Z</time></trkpt><trkpt lat="59.1025581211" lon="30.4774363618"><ele>297.67</ele><time>2026-08-20T22:39:15Z</time></trkpt><trkpt lat="59.1025590431" lon="30.4774151556"><ele>297.67</ele><time>2026-08-20T22:39:16Z</time></trkpt><trkpt lat="59.1025582887" lon="30.4773938656"><ele>297.67</ele><time>2026-08-20T22:39:17Z</time></trkpt><trkpt lat="59.1025580373" lon="30.4773709830"><ele>297.67</ele><time>2026-08-20T22:39:18Z</time></trkpt><trkpt lat="59.1025596298" lon="30.4773492739"><ele>297.67</ele><time>2026-08-20T22:39:19Z</time></trkpt><trkpt lat="59.1025599651" lon="30.4773315880"><ele>297.67</ele><time>2026-08-20T22:39:20Z</time></trkpt><trkpt lat="59.1025590431" lon="30.4773129802"><ele>297.67</ele><time>2026-08-20T22:39:21Z</time></trkpt><trkpt lat="59.1025572829" lon="30.4772903491"><ele>297.67</ele><time>2026-08-20T22:39:22Z</time></trkpt><trkpt lat="59.1025554389" lon="30.4772675503"><ele>297.67</ele><time>2026-08-20T22:39:23Z</time></trkpt><trkpt lat="59.1025560256" lon="30.4772463441"><ele>297.67</ele><time>2026-08-20T22:39:24Z</time></trkpt><trkpt lat="59.1025545169" lon="30.4772241320"><ele>297.67</ele><time>2026-08-20T22:39:25Z</time></trkpt><trkpt lat="59.1025506612" lon="30.4772034287"><ele>297.67</ele><time>2026-08-20T22:39:26Z</time></trkpt><trkpt lat="59.1025450453" lon="30.4771841504"><ele>297.67</ele><time>2026-08-20T22:39:27Z</time></trkpt><trkpt lat="59.1025414411" lon="30.4771609325"><ele>297.67</ele><time>2026-08-20T22:39:28Z</time></trkpt><trkpt lat="59.1025425307" lon="30.4771372955"><ele>297.67</ele><time>2026-08-20T22:39:29Z</time></trkpt><trkpt lat="59.1025401838" lon="30.4771130718"><ele>297.67</ele><time>2026-08-20T22:39:30Z</time></trkpt><trkpt lat="59.1025372501" lon="30.4770889319"><ele>297.67</ele><time>2026-08-20T22:39:31Z</time></trkpt><trkpt lat="59.1025346518" lon="30.4770625290"><ele>297.67</ele><time>2026-08-20T22:39:32Z</time></trkpt><trkpt lat="59.1025329754" lon="30.4770382214"><ele>297.67</ele><time>2026-08-20T22:39:33Z</time></trkpt><trkpt lat="59.1025321372" lon="30.4770164285"><ele>297.67</ele><time>2026-08-20T22:39:34Z</time></trkpt><trkpt lat="59.1025310475" lon="30.4769947194"><ele>297.67</ele><time>2026-08-20T22:39:35Z</time></trkpt><trkpt lat="59.1025299579" lon="30.4769718368"><ele>297.67</ele><time>2026-08-20T22:39:36Z</time></trkpt><trkpt lat="59.1025302932" lon="30.4769491218"><ele>297.67</ele><time>2026-08-20T22:39:37Z</time></trkpt><trkpt lat="59.1025290359" lon="30.4769263230"><ele>297.67</ele><time>2026-08-20T22:39:38Z</time></trkpt><trkpt lat="59.1025264375" lon="30.4769005906"><ele>297.67</ele><time>2026-08-20T22:39:39Z</time></trkpt><trkpt lat="59.1025260184" lon="30.4768767860"><ele>297.67</ele><time>2026-08-20T22:39:40Z</time></trkpt><trkpt lat="59.1025261860" lon="30.4768551607"><ele>297.67</ele><time>2026-08-20T22:39:41Z</time></trkpt><trkpt lat="59.1025273595" lon="30.4768330324"><ele>297.67</ele><time>2026-08-20T22:39:42Z</time></trkpt><trkpt lat="59.1025256831" lon="30.4768064618"><ele>297.67</ele><time>2026-08-20T22:39:43Z</time></trkpt><trkpt lat="59.1025241744" lon="30.4767810646"><ele>297.67</ele><time>2026-08-20T22:39:44Z</time></trkpt><trkpt lat="59.1025226656" lon="30.4767573439"><ele>297.67</ele><time>2026-08-20T22:39:45Z</time></trkpt><trkpt lat="59.1025234200" lon="30.4767354671"><ele>297.67</ele><time>2026-08-20T22:39:46Z</time></trkpt><trkpt lat="59.1025253478" lon="30.4767145962"><ele>297.67</ele><time>2026-08-20T22:39:47Z</time></trkpt><trkpt lat="59.1025265213" lon="30.4766938929"><ele>297.67</ele><time>2026-08-20T22:39:48Z</time></trkpt><trkpt lat="59.1025251802" lon="30.4766714294"><ele>297.67</ele><time>2026-08-20T22:39:49Z</time></trkpt><trkpt lat="59.1025232524" lon="30.4766472895"><ele>297.67</ele><time>2026-08-20T22:39:50Z</time></trkpt><trkpt lat="59.1025245935" lon="30.4766257480"><ele>297.67</ele><time>2026-08-20T22:39:51Z</time></trkpt><trkpt lat="59.1025229171" lon="30.4766055476"><ele>297.67</ele><time>2026-08-20T22:39:52Z</time></trkpt><trkpt lat="59.1025213245" lon="30.4765876941"><ele>297.67</ele><time>2026-08-20T22:39:53Z</time></trkpt><trkpt lat="59.1025191452" lon="30.4765701760"><ele>297.67</ele><time>2026-08-20T22:39:54Z</time></trkpt><trkpt lat="59.1025135294" lon="30.4765524901"><ele>297.67</ele><time>2026-08-20T22:39:55Z</time></trkpt><trkpt lat="59.1025102604" lon="30.4765373189"><ele>297.67</ele><time>2026-08-20T22:39:56Z</time></trkpt><trkpt lat="59.1025079973" lon="30.4765208904"><ele>297.67</ele><time>2026-08-20T22:39:57Z</time></trkpt><trkpt lat="59.1025064886" lon="30.4765057191"><ele>297.67</ele><time>2026-08-20T22:39:58Z</time></trkpt><trkpt lat="59.1025056504" lon="30.4764948227"><ele>297.67</ele><time>2026-08-20T22:39:59Z</time></trkpt><trkpt lat="59.1025020462" lon="30.4764781427"><ele>297.67</ele><time>2026-08-20T22:40:00Z</time></trkpt><trkpt lat="59.1024976876" lon="30.4764653184"><ele>297.67</ele><time>2026-08-20T22:40:01Z</time></trkpt><trkpt lat="59.1024956759" lon="30.4764486384"><ele>297.67</ele><time>2026-08-20T22:40:02Z</time></trkpt><trkpt lat="59.1024942510" lon="30.4764271807"><ele>297.67</ele><time>2026-08-20T22:40:03Z</time></trkpt><trkpt lat="59.1024908982" lon="30.4764030408"><ele>297.67</ele><time>2026-08-20T22:40:04Z</time></trkpt><trkpt lat="59.1024868749" lon="30.4763792362"><ele>297.67</ele><time>2026-08-20T22:40:05Z</time></trkpt><trkpt lat="59.1024860367" lon="30.4763584491"><ele>297.67</ele><time>2026-08-20T22:40:06Z</time></trkpt><trkpt lat="59.1024854500" lon="30.4763390869"><ele>297.67</ele><time>2026-08-20T22:40:07Z</time></trkpt><trkpt lat="59.1024835221" lon="30.4763182998"><ele>297.67</ele><time>2026-08-20T22:40:08Z</time></trkpt><trkpt lat="59.1024820972" lon="30.4762982670"><ele>297.67</ele><time>2026-08-20T22:40:09Z</time></trkpt><trkpt lat="59.1024822649" lon="30.4762836825"><ele>297.67</ele><time>2026-08-20T22:40:10Z</time></trkpt><trkpt lat="59.1024811752" lon="30.4762571957"><ele>297.67</ele><time>2026-08-20T22:40:11Z</time></trkpt><trkpt lat="59.1024816781" lon="30.4762374982"><ele>297.67</ele><time>2026-08-20T22:40:12Z</time></trkpt><trkpt lat="59.1024819296" lon="30.4762162920"><ele>297.67</ele><time>2026-08-20T22:40:13Z</time></trkpt><trkpt lat="59.1024810914" lon="30.4761918169"><ele>297.67</ele><time>2026-08-20T22:40:14Z</time></trkpt><trkpt lat="59.1024818458" lon="30.4761709459"><ele>297.67</ele><time>2026-08-20T22:40:15Z</time></trkpt><trkpt lat="59.1024807561" lon="30.4761494882"><ele>297.67</ele><time>2026-08-20T22:40:16Z</time></trkpt><trkpt lat="59.1024801694" lon="30.4761298746"><ele>297.67</ele><time>2026-08-20T22:40:17Z</time></trkpt><trkpt lat="59.1024786606" lon="30.4761107638"><ele>297.67</ele><time>2026-08-20T22:40:18Z</time></trkpt><trkpt lat="59.1024770681" lon="30.4760952573"><ele>297.67</ele><time>2026-08-20T22:40:19Z</time></trkpt><trkpt lat="59.1024738830" lon="30.4760788288"><ele>297.67</ele><time>2026-08-20T22:40:20Z</time></trkpt><trkpt lat="59.1024743859" lon="30.4760640766"><ele>297.67</ele><time>2026-08-20T22:40:21Z</time></trkpt><trkpt lat="59.1024747211" lon="30.4760490730"><ele>297.67</ele><time>2026-08-20T22:40:22Z</time></trkpt><trkpt lat="59.1024763975" lon="30.4760295432"><ele>297.67</ele><time>2026-08-20T22:40:23Z</time></trkpt><trkpt lat="59.1024766490" lon="30.4760107677"><ele>297.67</ele><time>2026-08-20T22:40:24Z</time></trkpt><trkpt lat="59.1024722904" lon="30.4759876337"><ele>297.67</ele><time>2026-08-20T22:40:25Z</time></trkpt><trkpt lat="59.1024681833" lon="30.4759662598"><ele>297.67</ele><time>2026-08-20T22:40:26Z</time></trkpt><trkpt lat="59.1024643276" lon="30.4759467300"><ele>297.67</ele><time>2026-08-20T22:40:27Z</time></trkpt><trkpt lat="59.1024627350" lon="30.4759286251"><ele>297.67</ele><time>2026-08-20T22:40:28Z</time></trkpt><trkpt lat="59.1024625674" lon="30.4759124480"><ele>297.67</ele><time>2026-08-20T22:40:29Z</time></trkpt><trkpt lat="59.1024634894" lon="30.4758983664"><ele>297.67</ele><time>2026-08-20T22:40:30Z</time></trkpt><trkpt lat="59.1024645790" lon="30.4758836981"><ele>297.18</ele><time>2026-08-20T22:40:31Z</time></trkpt><trkpt lat="59.1024638247" lon="30.4758645874"><ele>297.18</ele><time>2026-08-20T22:40:32Z</time></trkpt><trkpt lat="59.1024641600" lon="30.4758443870"><ele>297.18</ele><time>2026-08-20T22:40:33Z</time></trkpt><trkpt lat="59.1024621483" lon="30.4758241866"><ele>297.18</ele><time>2026-08-20T22:40:34Z</time></trkpt><trkpt lat="59.1024603881" lon="30.4758031480"><ele>297.18</ele><time>2026-08-20T22:40:35Z</time></trkpt><trkpt lat="59.1024608910" lon="30.4757860489"><ele>297.18</ele><time>2026-08-20T22:40:36Z</time></trkpt><trkpt lat="59.1024632379" lon="30.4757703748"><ele>297.18</ele><time>2026-08-20T22:40:37Z</time></trkpt><trkpt lat="59.1024651658" lon="30.4757561255"><ele>297.18</ele><time>2026-08-20T22:40:38Z</time></trkpt><trkpt lat="59.1024663392" lon="30.4757410381"><ele>297.18</ele><time>2026-08-20T22:40:39Z</time></trkpt><trkpt lat="59.1024680994" lon="30.4757245257"><ele>297.18</ele><time>2026-08-20T22:40:40Z</time></trkpt><trkpt lat="59.1024688538" lon="30.4757097736"><ele>297.18</ele><time>2026-08-20T22:40:41Z</time></trkpt><trkpt lat="59.1024682671" lon="30.4757009726"><ele>297.18</ele><time>2026-08-20T22:40:42Z</time></trkpt><trkpt lat="59.1024691891" lon="30.4756962787"><ele>297.18</ele><time>2026-08-20T22:40:43Z</time></trkpt><trkpt lat="59.1024693567" lon="30.4756908305"><ele>297.67</ele><time>2026-08-20T22:40:44Z</time></trkpt><trkpt lat="59.1024693567" lon="30.4756908305"><ele>297.67</ele><time>2026-08-20T22:40:45Z</time></trkpt><trkpt lat="59.1024693567" lon="30.4756908305"><ele>297.67</ele><time>2026-08-20T22:40:46Z</time></trkpt><trkpt lat="59.1024726257" lon="30.4756622482"><ele>297.67</ele><time>2026-08-20T22:40:47Z</time></trkpt><trkpt lat="59.1024746373" lon="30.4756590631"><ele>297.18</ele><time>2026-08-20T22:40:48Z</time></trkpt><trkpt lat="59.1024758946" lon="30.4756529443"><ele>297.18</ele><time>2026-08-20T22:40:49Z</time></trkpt><trkpt lat="59.1024752241" lon="30.4756475799"><ele>297.18</ele><time>2026-08-20T22:40:50Z</time></trkpt><trkpt lat="59.1024752241" lon="30.4756475799"><ele>297.18</ele><time>2026-08-20T22:40:51Z</time></trkpt><trkpt lat="59.1024752241" lon="30.4756475799"><ele>297.18</ele><time>2026-08-20T22:40:52Z</time></trkpt><trkpt lat="59.1024752241" lon="30.4756475799"><ele>297.18</ele><time>2026-08-20T22:40:53Z</time></trkpt><trkpt lat="59.1024752241" lon="30.4756475799"><ele>297.18</ele><time>2026-08-20T22:40:54Z</time></trkpt><trkpt lat="59.1024752241" lon="30.4756475799"><ele>297.18</ele><time>2026-08-20T22:40:55Z</time></trkpt><trkpt lat="59.1024752241" lon="30.4756475799"><ele>297.18</ele><time>2026-08-20T22:40:56Z</time></trkpt><trkpt lat="59.1024752241" lon="30.4756475799"><ele>297.18</ele><time>2026-08-20T22:40:57Z</time></trkpt><trkpt lat="59.1024752241" lon="30.4756475799"><ele>297.18</ele><time>2026-08-20T22:40:58Z</time></trkpt><trkpt lat="59.1024752241" lon="30.4756475799"><ele>297.18</ele><time>2026-08-20T22:40:59Z</time></trkpt><trkpt lat="59.1024752241" lon="30.4756475799"><ele>297.18</ele><time>2026-08-20T22:41:00Z</time></trkpt><trkpt lat="59.1024752241" lon="30.4756475799"><ele>297.18</ele><time>2026-08-20T22:41:01Z</time></trkpt><trkpt lat="59.1024752241" lon="30.4756475799"><ele>297.18</ele><time>2026-08-20T22:41:02Z</time></trkpt><trkpt lat="59.1024752241" lon="30.4756475799"><ele>297.18</ele><time>2026-08-20T22:41:03Z</time></trkpt><trkpt lat="59.1024507489" lon="30.4756207578"><ele>297.18</ele><time>2026-08-20T22:41:04Z</time></trkpt><trkpt lat="59.1024427861" lon="30.4756156448"><ele>297.18</ele><time>2026-08-20T22:41:05Z</time></trkpt><trkpt lat="59.1024339851" lon="30.4756086878"><ele>297.18</ele><time>2026-08-20T22:41:06Z</time></trkpt><trkpt lat="59.1024279501" lon="30.4756056704"><ele>297.18</ele><time>2026-08-20T22:41:07Z</time></trkpt><trkpt lat="59.1024231724" lon="30.4756024852"><ele>297.18</ele><time>2026-08-20T22:41:08Z</time></trkpt><trkpt lat="59.1024113540" lon="30.4755967855"><ele>297.18</ele><time>2026-08-20T22:41:09Z</time></trkpt><trkpt lat="59.1024031397" lon="30.4755902477"><ele>297.18</ele><time>2026-08-20T22:41:10Z</time></trkpt><trkpt lat="59.1023919918" lon="30.4755763337"><ele>297.18</ele><time>2026-08-20T22:41:11Z</time></trkpt><trkpt lat="59.1023889743" lon="30.4755652696"><ele>297.18</ele><time>2026-08-20T22:41:12Z</time></trkpt><trkpt lat="59.1023870464" lon="30.4755564686"><ele>297.18</ele><time>2026-08-20T22:41:13Z</time></trkpt><trkpt lat="59.1023854539" lon="30.4755514394"><ele>297.18</ele><time>2026-08-20T22:41:14Z</time></trkpt><trkpt lat="59.1023862921" lon="30.4755532835"><ele>297.18</ele><time>2026-08-20T22:41:15Z</time></trkpt><trkpt lat="59.1023838613" lon="30.4755486734"><ele>297.18</ele><time>2026-08-20T22:41:16Z</time></trkpt><trkpt lat="59.1023838613" lon="30.4755486734"><ele>297.18</ele><time>2026-08-20T22:41:17Z</time></trkpt><trkpt lat="59.1023838613" lon="30.4755486734"><ele>297.18</ele><time>2026-08-20T22:41:18Z</time></trkpt><trkpt lat="59.1023838613" lon="30.4755486734"><ele>297.18</ele><time>2026-08-20T22:41:19Z</time></trkpt><trkpt lat="59.1023796704" lon="30.4755417164"><ele>297.18</ele><time>2026-08-20T22:41:20Z</time></trkpt><trkpt lat="59.1023734678" lon="30.4755385313"><ele>297.18</ele><time>2026-08-20T22:41:21Z</time></trkpt><trkpt lat="59.1023663431" lon="30.4755365197"><ele>297.18</ele><time>2026-08-20T22:41:22Z</time></trkpt><trkpt lat="59.1023587994" lon="30.4755357653"><ele>297.18</ele><time>2026-08-20T22:41:23Z</time></trkpt><trkpt lat="59.1023528483" lon="30.4755340889"><ele>297.18</ele><time>2026-08-20T22:41:24Z</time></trkpt><trkpt lat="59.1023479868" lon="30.4755295627"><ele>297.18</ele><time>2026-08-20T22:41:25Z</time></trkpt><trkpt lat="59.1023435444" lon="30.4755262937"><ele>297.18</ele><time>2026-08-20T22:41:26Z</time></trkpt><trkpt lat="59.1023383476" lon="30.4755220190"><ele>297.18</ele><time>2026-08-20T22:41:27Z</time></trkpt><trkpt lat="59.1023358330" lon="30.4755169898"><ele>297.18</ele><time>2026-08-20T22:41:28Z</time></trkpt><trkpt lat="59.1023318935" lon="30.4755094461"><ele>297.18</ele><time>2026-08-20T22:41:29Z</time></trkpt><trkpt lat="59.1023284569" lon="30.4755041655"><ele>297.18</ele><time>2026-08-20T22:41:30Z</time></trkpt><trkpt lat="59.1023218352" lon="30.4754989687"><ele>297.18</ele><time>2026-08-20T22:41:31Z</time></trkpt><trkpt lat="59.1023161355" lon="30.4754940234"><ele>297.18</ele><time>2026-08-20T22:41:32Z</time></trkpt><trkpt lat="59.1023097653" lon="30.4754867312"><ele>297.18</ele><time>2026-08-20T22:41:33Z</time></trkpt><trkpt lat="59.1023024730" lon="30.4754785169"><ele>297.18</ele><time>2026-08-20T22:41:34Z</time></trkpt><trkpt lat="59.1022920795" lon="30.4754633456"><ele>297.18</ele><time>2026-08-20T22:41:35Z</time></trkpt><trkpt lat="59.1022861283" lon="30.4754595738"><ele>297.18</ele><time>2026-08-20T22:41:36Z</time></trkpt><trkpt lat="59.1022820212" lon="30.4754583165"><ele>297.18</ele><time>2026-08-20T22:41:37Z</time></trkpt><trkpt lat="59.1022776626" lon="30.4754521977"><ele>297.18</ele><time>2026-08-20T22:41:38Z</time></trkpt><trkpt lat="59.1022716276" lon="30.4754417203"><ele>297.18</ele><time>2026-08-20T22:41:39Z</time></trkpt><trkpt lat="59.1022668499" lon="30.4754376970"><ele>297.18</ele><time>2026-08-20T22:41:40Z</time></trkpt><trkpt lat="59.1022641677" lon="30.4754337575"><ele>297.18</ele><time>2026-08-20T22:41:41Z</time></trkpt><trkpt lat="59.1022632457" lon="30.4754279740"><ele>297.18</ele><time>2026-08-20T22:41:42Z</time></trkpt><trkpt lat="59.1022620723" lon="30.4754238669"><ele>297.18</ele><time>2026-08-20T22:41:43Z</time></trkpt><trkpt lat="59.1022587195" lon="30.4754215200"><ele>297.18</ele><time>2026-08-20T22:41:44Z</time></trkpt><trkpt lat="59.1022526845" lon="30.4754142277"><ele>297.18</ele><time>2026-08-20T22:41:45Z</time></trkpt><trkpt lat="59.1022526845" lon="30.4754142277"><ele>297.18</ele><time>2026-08-20T22:41:46Z</time></trkpt><trkpt lat="59.1022471525" lon="30.4753937759"><ele>297.18</ele><time>2026-08-20T22:41:47Z</time></trkpt><trkpt lat="59.1022448894" lon="30.4753848910"><ele>297.18</ele><time>2026-08-20T22:41:48Z</time></trkpt><trkpt lat="59.1022432968" lon="30.4753734916"><ele>297.18</ele><time>2026-08-20T22:41:49Z</time></trkpt><trkpt lat="59.1022432968" lon="30.4753642716"><ele>297.18</ele><time>2026-08-20T22:41:50Z</time></trkpt><trkpt lat="59.1022436321" lon="30.4753563926"><ele>297.18</ele><time>2026-08-20T22:41:51Z</time></trkpt><trkpt lat="59.1022437997" lon="30.4753483459"><ele>297.18</ele><time>2026-08-20T22:41:52Z</time></trkpt><trkpt lat="59.1022436321" lon="30.4753408860"><ele>297.18</ele><time>2026-08-20T22:41:53Z</time></trkpt><trkpt lat="59.1022407822" lon="30.4753305763"><ele>297.18</ele><time>2026-08-20T22:41:54Z</time></trkpt><trkpt lat="59.1022420395" lon="30.4753228649"><ele>297.18</ele><time>2026-08-20T22:41:55Z</time></trkpt><trkpt lat="59.1022448894" lon="30.4753047600"><ele>297.18</ele><time>2026-08-20T22:41:56Z</time></trkpt><trkpt lat="59.1022449732" lon="30.4752936959"><ele>297.18</ele><time>2026-08-20T22:41:57Z</time></trkpt><trkpt lat="59.1022443864" lon="30.4752822965"><ele>297.18</ele><time>2026-08-20T22:41:58Z</time></trkpt><trkpt lat="59.1022447217" lon="30.4752704781"><ele>297.18</ele><time>2026-08-20T22:41:59Z</time></trkpt><trkpt lat="59.1022445541" lon="30.4752607550"><ele>297.18</ele><time>2026-08-20T22:42:00Z</time></trkpt><trkpt lat="59.1022450570" lon="30.4752508644"><ele>297.18</ele><time>2026-08-20T22:42:01Z</time></trkpt><trkpt lat="59.1022449732" lon="30.4752433207"><ele>297.18</ele><time>2026-08-20T22:42:02Z</time></trkpt><trkpt lat="59.1022478230" lon="30.4752345197"><ele>297.18</ele><time>2026-08-20T22:42:03Z</time></trkpt><trkpt lat="59.1022530198" lon="30.4752265569"><ele>297.18</ele><time>2026-08-20T22:42:04Z</time></trkpt><trkpt lat="59.1022535227" lon="30.4752128944"><ele>297.18</ele><time>2026-08-20T22:42:05Z</time></trkpt><trkpt lat="59.1022573784" lon="30.4751977231"><ele>297.18</ele><time>2026-08-20T22:42:06Z</time></trkpt><trkpt lat="59.1022600606" lon="30.4751837254"><ele>297.18</ele><time>2026-08-20T22:42:07Z</time></trkpt><trkpt lat="59.1022630781" lon="30.4751703981"><ele>297.18</ele><time>2026-08-20T22:42:08Z</time></trkpt><trkpt lat="59.1022658441" lon="30.4751521256"><ele>297.18</ele><time>2026-08-20T22:42:09Z</time></trkpt><trkpt lat="59.1022684425" lon="30.4751398880"><ele>297.18</ele><time>2026-08-20T22:42:10Z</time></trkpt><trkpt lat="59.1022698674" lon="30.4751332663"><ele>297.18</ele><time>2026-08-20T22:42:11Z</time></trkpt><trkpt lat="59.1022744775" lon="30.4751229566"><ele>297.18</ele><time>2026-08-20T22:42:12Z</time></trkpt><trkpt lat="59.1022804286" lon="30.4751078691"><ele>297.18</ele><time>2026-08-20T22:42:13Z</time></trkpt><trkpt lat="59.1022821888" lon="30.4750948772"><ele>297.18</ele><time>2026-08-20T22:42:14Z</time></trkpt><trkpt lat="59.1022818536" lon="30.4750809632"><ele>297.18</ele><time>2026-08-20T22:42:15Z</time></trkpt><trkpt lat="59.1022794228" lon="30.4750683904"><ele>297.18</ele><time>2026-08-20T22:42:16Z</time></trkpt><trkpt lat="59.1022697836" lon="30.4750514589"><ele>297.18</ele><time>2026-08-20T22:42:17Z</time></trkpt><trkpt lat="59.1022637486" lon="30.4750466812"><ele>297.18</ele><time>2026-08-20T22:42:18Z</time></trkpt><trkpt lat="59.1022584680" lon="30.4750387184"><ele>297.18</ele><time>2026-08-20T22:42:19Z</time></trkpt><trkpt lat="59.1022530198" lon="30.4750318453"><ele>297.18</ele><time>2026-08-20T22:42:20Z</time></trkpt><trkpt lat="59.1022501700" lon="30.4750235472"><ele>297.18</ele><time>2026-08-20T22:42:21Z</time></trkpt><trkpt lat="59.1022495832" lon="30.4750108905"><ele>297.18</ele><time>2026-08-20T22:42:22Z</time></trkpt><trkpt lat="59.1022484936" lon="30.4749989882"><ele>297.18</ele><time>2026-08-20T22:42:23Z</time></trkpt><trkpt lat="59.1022467334" lon="30.4749840684"><ele>297.18</ele><time>2026-08-20T22:42:24Z</time></trkpt><trkpt lat="59.1022468172" lon="30.4749668855"><ele>297.18</ele><time>2026-08-20T22:42:25Z</time></trkpt><trkpt lat="59.1022495832" lon="30.4749492835"><ele>297.18</ele><time>2026-08-20T22:42:26Z</time></trkpt><trkpt lat="59.1022569593" lon="30.4749386385"><ele>297.18</ele><time>2026-08-20T22:42:27Z</time></trkpt><trkpt lat="59.1022653412" lon="30.4749289993"><ele>297.18</ele><time>2026-08-20T22:42:28Z</time></trkpt><trkpt lat="59.1022656765" lon="30.4749197792"><ele>297.18</ele><time>2026-08-20T22:42:29Z</time></trkpt><trkpt lat="59.1022656765" lon="30.4749197792"><ele>297.18</ele><time>2026-08-20T22:42:30Z</time></trkpt><trkpt lat="59.1022656765" lon="30.4749197792"><ele>297.18</ele><time>2026-08-20T22:42:31Z</time></trkpt><trkpt lat="59.1022656765" lon="30.4749197792"><ele>297.18</ele><time>2026-08-20T22:42:32Z</time></trkpt><trkpt lat="59.1022656765" lon="30.4749197792"><ele>297.18</ele><time>2026-08-20T22:42:33Z</time></trkpt><trkpt lat="59.1022656765" lon="30.4749197792"><ele>297.18</ele><time>2026-08-20T22:42:34Z</time></trkpt><trkpt lat="59.1022656765" lon="30.4749197792"><ele>297.18</ele><time>2026-08-20T22:42:35Z</time></trkpt><trkpt lat="59.1022656765" lon="30.4749197792"><ele>297.18</ele><time>2026-08-20T22:42:36Z</time></trkpt><trkpt lat="59.1022656765" lon="30.4749197792"><ele>297.18</ele><time>2026-08-20T22:42:37Z</time></trkpt><trkpt lat="59.1022656765" lon="30.4749197792"><ele>297.18</ele><time>2026-08-20T22:42:38Z</time></trkpt><trkpt lat="59.1022656765" lon="30.4749197792"><ele>297.18</ele><time>2026-08-20T22:42:39Z</time></trkpt><trkpt lat="59.1022656765" lon="30.4749197792"><ele>297.18</ele><time>2026-08-20T22:42:40Z</time></trkpt><trkpt lat="59.1022656765" lon="30.4749197792"><ele>297.18</ele><time>2026-08-20T22:42:41Z</time></trkpt><trkpt lat="59.1022656765" lon="30.4749197792"><ele>297.18</ele><time>2026-08-20T22:42:42Z</time></trkpt><trkpt lat="59.1022656765" lon="30.4749197792"><ele>297.18</ele><time>2026-08-20T22:42:43Z</time></trkpt><trkpt lat="59.1022656765" lon="30.4749197792"><ele>297.18</ele><time>2026-08-20T22:42:44Z</time></trkpt><trkpt lat="59.1022656765" lon="30.4749197792"><ele>297.18</ele><time>2026-08-20T22:42:45Z</time></trkpt><trkpt lat="59.1022656765" lon="30.4749197792"><ele>297.18</ele><time>2026-08-20T22:42:46Z</time></trkpt><trkpt lat="59.1022656765" lon="30.4749197792"><ele>297.18</ele><time>2026-08-20T22:42:47Z</time></trkpt><trkpt lat="59.1022656765" lon="30.4749197792"><ele>297.18</ele><time>2026-08-20T22:42:48Z</time></trkpt><trkpt lat="59.1022656765" lon="30.4749197792"><ele>297.18</ele><time>2026-08-20T22:42:49Z</time></trkpt><trkpt lat="59.1022656765" lon="30.4749197792"><ele>297.18</ele><time>2026-08-20T22:42:50Z</time></trkpt><trkpt lat="59.1022656765" lon="30.4749197792"><ele>297.18</ele><time>2026-08-20T22:42:51Z</time></trkpt><trkpt lat="59.1022656765" lon="30.4749197792"><ele>297.18</ele><time>2026-08-20T22:42:52Z</time></trkpt><trkpt lat="59.1022656765" lon="30.4749197792"><ele>297.18</ele><time>2026-08-20T22:42:53Z</time></trkpt><trkpt lat="59.1022656765" lon="30.4749197792"><ele>297.18</ele><time>2026-08-20T22:42:54Z</time></trkpt><trkpt lat="59.1022656765" lon="30.4749197792"><ele>297.18</ele><time>2026-08-20T22:42:55Z</time></trkpt><trkpt lat="59.1022911575" lon="30.4748246446"><ele>297.18</ele><time>2026-08-20T22:42:56Z</time></trkpt><trkpt lat="59.1022916604" lon="30.4748175200"><ele>297.18</ele><time>2026-08-20T22:42:57Z</time></trkpt><trkpt lat="59.1022933368" lon="30.4748072941"><ele>296.70</ele><time>2026-08-20T22:42:58Z</time></trkpt><trkpt lat="59.1022950970" lon="30.4747997504"><ele>296.70</ele><time>2026-08-20T22:42:59Z</time></trkpt><trkpt lat="59.1022962704" lon="30.4747898597"><ele>296.70</ele><time>2026-08-20T22:43:00Z</time></trkpt><trkpt lat="59.1022938397" lon="30.4747797176"><ele>296.70</ele><time>2026-08-20T22:43:01Z</time></trkpt><trkpt lat="59.1022961866" lon="30.4747699946"><ele>296.70</ele><time>2026-08-20T22:43:02Z</time></trkpt><trkpt lat="59.1022965219" lon="30.4747620318"><ele>296.70</ele><time>2026-08-20T22:43:03Z</time></trkpt><trkpt lat="59.1022970248" lon="30.4747534823"><ele>296.70</ele><time>2026-08-20T22:43:04Z</time></trkpt><trkpt lat="59.1022970248" lon="30.4747534823"><ele>296.70</ele><time>2026-08-20T22:43:05Z</time></trkpt><trkpt lat="59.1022970248" lon="30.4747534823"><ele>296.70</ele><time>2026-08-20T22:43:06Z</time></trkpt><trkpt lat="59.1022947617" lon="30.4747159313"><ele>296.70</ele><time>2026-08-20T22:43:07Z</time></trkpt><trkpt lat="59.1022952646" lon="30.4746963177"><ele>296.70</ele><time>2026-08-20T22:43:08Z</time></trkpt><trkpt lat="59.1022968572" lon="30.4746783804"><ele>296.70</ele><time>2026-08-20T22:43:09Z</time></trkpt><trkpt lat="59.1022964381" lon="30.4746636283"><ele>296.70</ele><time>2026-08-20T22:43:10Z</time></trkpt><trkpt lat="59.1022971924" lon="30.4746467806"><ele>296.70</ele><time>2026-08-20T22:43:11Z</time></trkpt><trkpt lat="59.1022954322" lon="30.4746320285"><ele>296.70</ele><time>2026-08-20T22:43:12Z</time></trkpt><trkpt lat="59.1022982821" lon="30.4746206291"><ele>296.70</ele><time>2026-08-20T22:43:13Z</time></trkpt><trkpt lat="59.1022972763" lon="30.4746048711"><ele>296.70</ele><time>2026-08-20T22:43:14Z</time></trkpt><trkpt lat="59.1022964381" lon="30.4745925497"><ele>296.70</ele><time>2026-08-20T22:43:15Z</time></trkpt><trkpt lat="59.1022964381" lon="30.4745925497"><ele>296.70</ele><time>2026-08-20T22:43:16Z</time></trkpt><trkpt lat="59.1022964381" lon="30.4745925497"><ele>296.70</ele><time>2026-08-20T22:43:17Z</time></trkpt><trkpt lat="59.1022964381" lon="30.4745925497"><ele>297.18</ele><time>2026-08-20T22:43:18Z</time></trkpt><trkpt lat="59.1022936720" lon="30.4745343793"><ele>297.18</ele><time>2026-08-20T22:43:19Z</time></trkpt><trkpt lat="59.1022963542" lon="30.4745259974"><ele>297.18</ele><time>2026-08-20T22:43:20Z</time></trkpt><trkpt lat="59.1022988688" lon="30.4745196272"><ele>297.18</ele><time>2026-08-20T22:43:21Z</time></trkpt><trkpt lat="59.1022954322" lon="30.4745098203"><ele>297.18</ele><time>2026-08-20T22:43:22Z</time></trkpt><trkpt lat="59.1022954322" lon="30.4745098203"><ele>297.18</ele><time>2026-08-20T22:43:23Z</time></trkpt><trkpt lat="59.1022954322" lon="30.4745098203"><ele>297.18</ele><time>2026-08-20T22:43:24Z</time></trkpt><trkpt lat="59.1022954322" lon="30.4745098203"><ele>297.18</ele><time>2026-08-20T22:43:25Z</time></trkpt><trkpt lat="59.1022954322" lon="30.4745098203"><ele>297.18</ele><time>2026-08-20T22:43:26Z</time></trkpt><trkpt lat="59.1022954322" lon="30.4745098203"><ele>297.18</ele><time>2026-08-20T22:43:27Z</time></trkpt><trkpt lat="59.1022954322" lon="30.4745098203"><ele>297.18</ele><time>2026-08-20T22:43:28Z</time></trkpt><trkpt lat="59.1022954322" lon="30.4745098203"><ele>297.18</ele><time>2026-08-20T22:43:29Z</time></trkpt><trkpt lat="59.1022954322" lon="30.4745098203"><ele>297.18</ele><time>2026-08-20T22:43:30Z</time></trkpt><trkpt lat="59.1022954322" lon="30.4745098203"><ele>297.18</ele><time>2026-08-20T22:43:31Z</time></trkpt><trkpt lat="59.1022954322" lon="30.4745098203"><ele>297.18</ele><time>2026-08-20T22:43:32Z</time></trkpt><trkpt lat="59.1022954322" lon="30.4745098203"><ele>297.18</ele><time>2026-08-20T22:43:33Z</time></trkpt><trkpt lat="59.1022954322" lon="30.4745098203"><ele>297.18</ele><time>2026-08-20T22:43:34Z</time></trkpt><trkpt lat="59.1022954322" lon="30.4745098203"><ele>297.18</ele><time>2026-08-20T22:43:35Z</time></trkpt><trkpt lat="59.1022954322" lon="30.4745098203"><ele>297.18</ele><time>2026-08-20T22:43:36Z</time></trkpt><trkpt lat="59.1022954322" lon="30.4745098203"><ele>297.18</ele><time>2026-08-20T22:43:37Z</time></trkpt><trkpt lat="59.1022954322" lon="30.4745098203"><ele>297.18</ele><time>2026-08-20T22:43:38Z</time></trkpt><trkpt lat="59.1022954322" lon="30.4745098203"><ele>297.18</ele><time>2026-08-20T22:43:39Z</time></trkpt><trkpt lat="59.1022954322" lon="30.4745098203"><ele>297.18</ele><time>2026-08-20T22:43:40Z</time></trkpt><trkpt lat="59.1022954322" lon="30.4745098203"><ele>296.70</ele><time>2026-08-20T22:43:41Z</time></trkpt><trkpt lat="59.1022540256" lon="30.4744282644"><ele>296.70</ele><time>2026-08-20T22:43:42Z</time></trkpt><trkpt lat="59.1022531874" lon="30.4744142666"><ele>296.70</ele><time>2026-08-20T22:43:43Z</time></trkpt><trkpt lat="59.1022537742" lon="30.4743998498"><ele>296.70</ele><time>2026-08-20T22:43:44Z</time></trkpt><trkpt lat="59.1022517625" lon="30.4743896239"><ele>296.70</ele><time>2026-08-20T22:43:45Z</time></trkpt><trkpt lat="59.1022516787" lon="30.4743817449"><ele>296.70</ele><time>2026-08-20T22:43:46Z</time></trkpt><trkpt lat="59.1022509243" lon="30.4743745364"><ele>296.70</ele><time>2026-08-20T22:43:47Z</time></trkpt><trkpt lat="59.1022479907" lon="30.4743696749"><ele>296.70</ele><time>2026-08-20T22:43:48Z</time></trkpt><trkpt lat="59.1022479907" lon="30.4743696749"><ele>296.70</ele><time>2026-08-20T22:43:49Z</time></trkpt><trkpt lat="59.1022479907" lon="30.4743696749"><ele>297.18</ele><time>2026-08-20T22:43:50Z</time></trkpt><trkpt lat="59.1022479907" lon="30.4743696749"><ele>297.18</ele><time>2026-08-20T22:43:51Z</time></trkpt><trkpt lat="59.1022449732" lon="30.4743838403"><ele>297.18</ele><time>2026-08-20T22:43:52Z</time></trkpt><trkpt lat="59.1022482421" lon="30.4743946530"><ele>297.18</ele><time>2026-08-20T22:43:53Z</time></trkpt><trkpt lat="59.1022497509" lon="30.4744038731"><ele>297.18</ele><time>2026-08-20T22:43:54Z</time></trkpt><trkpt lat="59.1022547800" lon="30.4744106624"><ele>297.18</ele><time>2026-08-20T22:43:55Z</time></trkpt><trkpt lat="59.1022582166" lon="30.4744180385"><ele>297.18</ele><time>2026-08-20T22:43:56Z</time></trkpt><trkpt lat="59.1022629943" lon="30.4744333774"><ele>296.70</ele><time>2026-08-20T22:43:57Z</time></trkpt><trkpt lat="59.1022685263" lon="30.4744479619"><ele>296.70</ele><time>2026-08-20T22:43:58Z</time></trkpt><trkpt lat="59.1022731364" lon="30.4744603671"><ele>296.70</ele><time>2026-08-20T22:43:59Z</time></trkpt><trkpt lat="59.1022745613" lon="30.4744725209"><ele>297.18</ele><time>2026-08-20T22:44:00Z</time></trkpt><trkpt lat="59.1022799257" lon="30.4744907934"><ele>297.18</ele><time>2026-08-20T22:44:01Z</time></trkpt><trkpt lat="59.1022811830" lon="30.4745034501"><ele>297.18</ele><time>2026-08-20T22:44:02Z</time></trkpt><trkpt lat="59.1022816859" lon="30.4745165259"><ele>297.18</ele><time>2026-08-20T22:44:03Z</time></trkpt><trkpt lat="59.1022833623" lon="30.4745246563"><ele>297.18</ele><time>2026-08-20T22:44:04Z</time></trkpt><trkpt lat="59.1022822727" lon="30.4745284282"><ele>297.18</ele><time>2026-08-20T22:44:05Z</time></trkpt><trkpt lat="59.1022846196" lon="30.4745334573"><ele>297.18</ele><time>2026-08-20T22:44:06Z</time></trkpt><trkpt lat="59.1022837814" lon="30.4745338764"><ele>297.18</ele><time>2026-08-20T22:44:07Z</time></trkpt><trkpt lat="59.1022837814" lon="30.4745338764"><ele>297.18</ele><time>2026-08-20T22:44:08Z</time></trkpt><trkpt lat="59.1022837814" lon="30.4745338764"><ele>297.18</ele><time>2026-08-20T22:44:09Z</time></trkpt><trkpt lat="59.1022837814" lon="30.4745338764"><ele>297.18</ele><time>2026-08-20T22:44:10Z</time></trkpt><trkpt lat="59.1022837814" lon="30.4745338764"><ele>297.18</ele><time>2026-08-20T22:44:11Z</time></trkpt><trkpt lat="59.1022837814" lon="30.4745338764"><ele>297.18</ele><time>2026-08-20T22:44:12Z</time></trkpt><trkpt lat="59.1022837814" lon="30.4745338764"><ele>297.18</ele><time>2026-08-20T22:44:13Z</time></trkpt><trkpt lat="59.1022837814" lon="30.4745338764"><ele>297.18</ele><time>2026-08-20T22:44:14Z</time></trkpt><trkpt lat="59.1022837814" lon="30.4745338764"><ele>297.18</ele><time>2026-08-20T22:44:15Z</time></trkpt><trkpt lat="59.1022837814" lon="30.4745338764"><ele>297.18</ele><time>2026-08-20T22:44:16Z</time></trkpt><trkpt lat="59.1022837814" lon="30.4745338764"><ele>297.18</ele><time>2026-08-20T22:44:17Z</time></trkpt><trkpt lat="59.1022837814" lon="30.4745338764"><ele>297.18</ele><time>2026-08-20T22:44:18Z</time></trkpt><trkpt lat="59.1022837814" lon="30.4745338764"><ele>297.18</ele><time>2026-08-20T22:44:19Z</time></trkpt><trkpt lat="59.1022837814" lon="30.4745338764"><ele>297.18</ele><time>2026-08-20T22:44:20Z</time></trkpt><trkpt lat="59.1022837814" lon="30.4745338764"><ele>297.18</ele><time>2026-08-20T22:44:21Z</time></trkpt><trkpt lat="59.1022837814" lon="30.4745338764"><ele>297.18</ele><time>2026-08-20T22:44:22Z</time></trkpt><trkpt lat="59.1022837814" lon="30.4745338764"><ele>297.18</ele><time>2026-08-20T22:44:23Z</time></trkpt><trkpt lat="59.1022837814" lon="30.4745338764"><ele>297.18</ele><time>2026-08-20T22:44:24Z</time></trkpt><trkpt lat="59.1022837814" lon="30.4745338764"><ele>297.18</ele><time>2026-08-20T22:44:25Z</time></trkpt><trkpt lat="59.1022837814" lon="30.4745338764"><ele>297.18</ele><time>2026-08-20T22:44:26Z</time></trkpt><trkpt lat="59.1022837814" lon="30.4745338764"><ele>297.18</ele><time>2026-08-20T22:44:27Z</time></trkpt><trkpt lat="59.1022837814" lon="30.4745338764"><ele>297.18</ele><time>2026-08-20T22:44:28Z</time></trkpt><trkpt lat="59.1022837814" lon="30.4745338764"><ele>297.18</ele><time>2026-08-20T22:44:29Z</time></trkpt><trkpt lat="59.1022837814" lon="30.4745338764"><ele>297.18</ele><time>2026-08-20T22:44:30Z</time></trkpt><trkpt lat="59.1022837814" lon="30.4745338764"><ele>297.18</ele><time>2026-08-20T22:44:31Z</time></trkpt><trkpt lat="59.1022837814" lon="30.4745338764"><ele>297.18</ele><time>2026-08-20T22:44:32Z</time></trkpt><trkpt lat="59.1022837814" lon="30.4745338764"><ele>297.18</ele><time>2026-08-20T22:44:33Z</time></trkpt><trkpt lat="59.1022837814" lon="30.4745338764"><ele>297.18</ele><time>2026-08-20T22:44:34Z</time></trkpt><trkpt lat="59.1022837814" lon="30.4745338764"><ele>297.18</ele><time>2026-08-20T22:44:35Z</time></trkpt><trkpt lat="59.1022837814" lon="30.4745338764"><ele>297.18</ele><time>2026-08-20T22:44:36Z</time></trkpt><trkpt lat="59.1022837814" lon="30.4745338764"><ele>297.18</ele><time>2026-08-20T22:44:37Z</time></trkpt><trkpt lat="59.1022837814" lon="30.4745338764"><ele>297.18</ele><time>2026-08-20T22:44:38Z</time></trkpt><trkpt lat="59.1022837814" lon="30.4745338764"><ele>297.18</ele><time>2026-08-20T22:44:39Z</time></trkpt><trkpt lat="59.1022837814" lon="30.4745338764"><ele>297.18</ele><time>2026-08-20T22:44:40Z</time></trkpt><trkpt lat="59.1022837814" lon="30.4745338764"><ele>297.18</ele><time>2026-08-20T22:44:41Z</time></trkpt><trkpt lat="59.1022837814" lon="30.4745338764"><ele>297.18</ele><time>2026-08-20T22:44:42Z</time></trkpt><trkpt lat="59.1022837814" lon="30.4745338764"><ele>297.18</ele><time>2026-08-20T22:44:43Z</time></trkpt><trkpt lat="59.1022837814" lon="30.4745338764"><ele>297.18</ele><time>2026-08-20T22:44:44Z</time></trkpt><trkpt lat="59.1022837814" lon="30.4745338764"><ele>297.18</ele><time>2026-08-20T22:44:45Z</time></trkpt><trkpt lat="59.1022837814" lon="30.4745338764"><ele>297.18</ele><time>2026-08-20T22:44:46Z</time></trkpt><trkpt lat="59.1022837814" lon="30.4745338764"><ele>297.18</ele><time>2026-08-20T22:44:47Z</time></trkpt><trkpt lat="59.1022837814" lon="30.4745338764"><ele>297.18</ele><time>2026-08-20T22:44:48Z</time></trkpt><trkpt lat="59.1022837814" lon="30.4745338764"><ele>297.18</ele><time>2026-08-20T22:44:49Z</time></trkpt><trkpt lat="59.1022837814" lon="30.4745338764"><ele>297.18</ele><time>2026-08-20T22:44:50Z</time></trkpt><trkpt lat="59.1022837814" lon="30.4745338764"><ele>297.18</ele><time>2026-08-20T22:44:51Z</time></trkpt><trkpt lat="59.1022837814" lon="30.4745338764"><ele>297.18</ele><time>2026-08-20T22:44:52Z</time></trkpt><trkpt lat="59.1022837814" lon="30.4745338764"><ele>297.18</ele><time>2026-08-20T22:44:53Z</time></trkpt><trkpt lat="59.1022837814" lon="30.4745338764"><ele>297.18</ele><time>2026-08-20T22:44:54Z</time></trkpt><trkpt lat="59.1022837814" lon="30.4745338764"><ele>297.18</ele><time>2026-08-20T22:44:55Z</time></trkpt><trkpt lat="59.1022837814" lon="30.4745338764"><ele>297.18</ele><time>2026-08-20T22:44:56Z</time></trkpt><trkpt lat="59.1022837814" lon="30.4745338764"><ele>297.18</ele><time>2026-08-20T22:44:57Z</time></trkpt><trkpt lat="59.1022837814" lon="30.4745338764"><ele>297.18</ele><time>2026-08-20T22:44:58Z</time></trkpt><trkpt lat="59.1022837814" lon="30.4745338764"><ele>297.18</ele><time>2026-08-20T22:44:59Z</time></trkpt><trkpt lat="59.1022837814" lon="30.4745338764"><ele>297.18</ele><time>2026-08-20T22:45:00Z</time></trkpt><trkpt lat="59.1022837814" lon="30.4745338764"><ele>297.18</ele><time>2026-08-20T22:45:01Z</time></trkpt><trkpt lat="59.1022837814" lon="30.4745338764"><ele>297.18</ele><time>2026-08-20T22:45:02Z</time></trkpt><trkpt lat="59.1022837814" lon="30.4745338764"><ele>297.18</ele><time>2026-08-20T22:45:03Z</time></trkpt><trkpt lat="59.1022837814" lon="30.4745338764"><ele>297.18</ele><time>2026-08-20T22:45:04Z</time></trkpt><trkpt lat="59.1022837814" lon="30.4745338764"><ele>297.18</ele><time>2026-08-20T22:45:05Z</time></trkpt><trkpt lat="59.1022837814" lon="30.4745338764"><ele>297.18</ele><time>2026-08-20T22:45:06Z</time></trkpt><trkpt lat="59.1022837814" lon="30.4745338764"><ele>297.18</ele><time>2026-08-20T22:45:07Z</time></trkpt><trkpt lat="59.1022837814" lon="30.4745338764"><ele>297.18</ele><time>2026-08-20T22:45:08Z</time></trkpt><trkpt lat="59.1022837814" lon="30.4745338764"><ele>297.18</ele><time>2026-08-20T22:45:09Z</time></trkpt><trkpt lat="59.1022837814" lon="30.4745338764"><ele>297.18</ele><time>2026-08-20T22:45:10Z</time></trkpt><trkpt lat="59.1022837814" lon="30.4745338764"><ele>297.18</ele><time>2026-08-20T22:45:11Z</time></trkpt><trkpt lat="59.1022837814" lon="30.4745338764"><ele>297.18</ele><time>2026-08-20T22:45:12Z</time></trkpt><trkpt lat="59.1022837814" lon="30.4745338764"><ele>297.18</ele><time>2026-08-20T22:45:13Z</time></trkpt><trkpt lat="59.1022837814" lon="30.4745338764"><ele>297.18</ele><time>2026-08-20T22:45:14Z</time></trkpt><trkpt lat="59.1022837814" lon="30.4745338764"><ele>297.18</ele><time>2026-08-20T22:45:15Z</time></trkpt><trkpt lat="59.1022837814" lon="30.4745338764"><ele>297.18</ele><time>2026-08-20T22:45:16Z</time></trkpt><trkpt lat="59.1022837814" lon="30.4745338764"><ele>297.18</ele><time>2026-08-20T22:45:17Z</time></trkpt><trkpt lat="59.1022837814" lon="30.4745338764"><ele>297.18</ele><time>2026-08-20T22:45:18Z</time></trkpt><trkpt lat="59.1022837814" lon="30.4745338764"><ele>297.18</ele><time>2026-08-20T22:45:19Z</time></trkpt><trkpt lat="59.1022837814" lon="30.4745338764"><ele>297.18</ele><time>2026-08-20T22:45:20Z</time></trkpt><trkpt lat="59.1022837814" lon="30.4745338764"><ele>297.18</ele><time>2026-08-20T22:45:21Z</time></trkpt><trkpt lat="59.1022837814" lon="30.4745338764"><ele>297.18</ele><time>2026-08-20T22:45:22Z</time></trkpt><trkpt lat="59.1022837814" lon="30.4745338764"><ele>297.18</ele><time>2026-08-20T22:45:23Z</time></trkpt><trkpt lat="59.1022837814" lon="30.4745338764"><ele>297.18</ele><time>2026-08-20T22:45:24Z</time></trkpt><trkpt lat="59.1022837814" lon="30.4745338764"><ele>297.18</ele><time>2026-08-20T22:45:25Z</time></trkpt><trkpt lat="59.1022837814" lon="30.4745338764"><ele>297.18</ele><time>2026-08-20T22:45:26Z</time></trkpt><trkpt lat="59.1022837814" lon="30.4745338764"><ele>297.18</ele><time>2026-08-20T22:45:27Z</time></trkpt><trkpt lat="59.1022837814" lon="30.4745338764"><ele>297.18</ele><time>2026-08-20T22:45:28Z</time></trkpt><trkpt lat="59.1022837814" lon="30.4745338764"><ele>297.18</ele><time>2026-08-20T22:45:29Z</time></trkpt><trkpt lat="59.1022837814" lon="30.4745338764"><ele>297.18</ele><time>2026-08-20T22:45:30Z</time></trkpt><trkpt lat="59.1022837814" lon="30.4745338764"><ele>297.18</ele><time>2026-08-20T22:45:31Z</time></trkpt><trkpt lat="59.1022837814" lon="30.4745338764"><ele>297.18</ele><time>2026-08-20T22:45:32Z</time></trkpt><trkpt lat="59.1022837814" lon="30.4745338764"><ele>297.18</ele><time>2026-08-20T22:45:33Z</time></trkpt><trkpt lat="59.1022837814" lon="30.4745338764"><ele>297.18</ele><time>2026-08-20T22:45:34Z</time></trkpt><trkpt lat="59.1022837814" lon="30.4745338764"><ele>297.18</ele><time>2026-08-20T22:45:35Z</time></trkpt><trkpt lat="59.1022837814" lon="30.4745338764"><ele>297.18</ele><time>2026-08-20T22:45:36Z</time></trkpt><trkpt lat="59.1022837814" lon="30.4745338764"><ele>297.18</ele><time>2026-08-20T22:45:37Z</time></trkpt><trkpt lat="59.1022837814" lon="30.4745338764"><ele>297.18</ele><time>2026-08-20T22:45:38Z</time></trkpt><trkpt lat="59.1022837814" lon="30.4745338764"><ele>297.18</ele><time>2026-08-20T22:45:39Z</time></trkpt><trkpt lat="59.1022837814" lon="30.4745338764"><ele>297.18</ele><time>2026-08-20T22:45:40Z</time></trkpt><trkpt lat="59.1022837814" lon="30.4745338764"><ele>297.18</ele><time>2026-08-20T22:45:41Z</time></trkpt><trkpt lat="59.1022837814" lon="30.4745338764"><ele>297.18</ele><time>2026-08-20T22:45:42Z</time></trkpt><trkpt lat="59.1022837814" lon="30.4745338764"><ele>297.18</ele><time>2026-08-20T22:45:43Z</time></trkpt><trkpt lat="59.1022837814" lon="30.4745338764"><ele>297.18</ele><time>2026-08-20T22:45:44Z</time></trkpt><trkpt lat="59.1022837814" lon="30.4745338764"><ele>297.18</ele><time>2026-08-20T22:45:45Z</time></trkpt><trkpt lat="59.1022837814" lon="30.4745338764"><ele>297.18</ele><time>2026-08-20T22:45:46Z</time></trkpt><trkpt lat="59.1022837814" lon="30.4745338764"><ele>297.18</ele><time>2026-08-20T22:45:47Z</time></trkpt><trkpt lat="59.1022837814" lon="30.4745338764"><ele>297.18</ele><time>2026-08-20T22:45:48Z</time></trkpt><trkpt lat="59.1022837814" lon="30.4745338764"><ele>297.18</ele><time>2026-08-20T22:45:49Z</time></trkpt><trkpt lat="59.1022837814" lon="30.4745338764"><ele>297.18</ele><time>2026-08-20T22:45:50Z</time></trkpt><trkpt lat="59.1022837814" lon="30.4745338764"><ele>297.18</ele><time>2026-08-20T22:45:51Z</time></trkpt><trkpt lat="59.1022837814" lon="30.4745338764"><ele>297.18</ele><time>2026-08-20T22:45:52Z</time></trkpt><trkpt lat="59.1022837814" lon="30.4745338764"><ele>297.18</ele><time>2026-08-20T22:45:53Z</time></trkpt><trkpt lat="59.1022837814" lon="30.4745338764"><ele>297.18</ele><time>2026-08-20T22:45:54Z</time></trkpt><trkpt lat="59.1022837814" lon="30.4745338764"><ele>297.18</ele><time>2026-08-20T22:45:55Z</time></trkpt><trkpt lat="59.1022837814" lon="30.4745338764"><ele>297.18</ele><time>2026-08-20T22:45:56Z</time></trkpt><trkpt lat="59.1022837814" lon="30.4745338764"><ele>297.18</ele><time>2026-08-20T22:45:57Z</time></trkpt><trkpt lat="59.1022837814" lon="30.4745338764"><ele>297.18</ele><time>2026-08-20T22:45:58Z</time></trkpt><trkpt lat="59.1022837814" lon="30.4745338764"><ele>297.18</ele><time>2026-08-20T22:45:59Z</time></trkpt><trkpt lat="59.1022837814" lon="30.4745338764"><ele>297.18</ele><time>2026-08-20T22:46:00Z</time></trkpt><trkpt lat="59.1022837814" lon="30.4745338764"><ele>297.18</ele><time>2026-08-20T22:46:01Z</time></trkpt><trkpt lat="59.1022837814" lon="30.4745338764"><ele>297.18</ele><time>2026-08-20T22:46:02Z</time></trkpt><trkpt lat="59.1022837814" lon="30.4745338764"><ele>297.18</ele><time>2026-08-20T22:46:03Z</time></trkpt><trkpt lat="59.1022837814" lon="30.4745338764"><ele>297.18</ele><time>2026-08-20T22:46:04Z</time></trkpt><trkpt lat="59.1022837814" lon="30.4745338764"><ele>297.18</ele><time>2026-08-20T22:46:05Z</time></trkpt><trkpt lat="59.1022837814" lon="30.4745338764"><ele>297.18</ele><time>2026-08-20T22:46:06Z</time></trkpt><trkpt lat="59.1022837814" lon="30.4745338764"><ele>297.18</ele><time>2026-08-20T22:46:07Z</time></trkpt><trkpt lat="59.1022837814" lon="30.4745338764"><ele>297.18</ele><time>2026-08-20T22:46:08Z</time></trkpt><trkpt lat="59.1022837814" lon="30.4745338764"><ele>297.18</ele><time>2026-08-20T22:46:09Z</time></trkpt><trkpt lat="59.1022837814" lon="30.4745338764"><ele>297.18</ele><time>2026-08-20T22:46:10Z</time></trkpt><trkpt lat="59.1022837814" lon="30.4745338764"><ele>297.18</ele><time>2026-08-20T22:46:11Z</time></trkpt><trkpt lat="59.1022837814" lon="30.4745338764"><ele>297.18</ele><time>2026-08-20T22:46:12Z</time></trkpt><trkpt lat="59.1022837814" lon="30.4745338764"><ele>297.18</ele><time>2026-08-20T22:46:13Z</time></trkpt><trkpt lat="59.1022837814" lon="30.4745338764"><ele>297.18</ele><time>2026-08-20T22:46:14Z</time></trkpt><trkpt lat="59.1022837814" lon="30.4745338764"><ele>297.18</ele><time>2026-08-20T22:46:15Z</time></trkpt><trkpt lat="59.1022837814" lon="30.4745338764"><ele>297.18</ele><time>2026-08-20T22:46:16Z</time></trkpt><trkpt lat="59.1022837814" lon="30.4745338764"><ele>297.18</ele><time>2026-08-20T22:46:17Z</time></trkpt><trkpt lat="59.1022837814" lon="30.4745338764"><ele>297.18</ele><time>2026-08-20T22:46:18Z</time></trkpt><trkpt lat="59.1022837814" lon="30.4745338764"><ele>297.18</ele><time>2026-08-20T22:46:19Z</time></trkpt><trkpt lat="59.1022837814" lon="30.4745338764"><ele>297.18</ele><time>2026-08-20T22:46:20Z</time></trkpt><trkpt lat="59.1022837814" lon="30.4745338764"><ele>297.18</ele><time>2026-08-20T22:46:21Z</time></trkpt><trkpt lat="59.1022837814" lon="30.4745338764"><ele>297.18</ele><time>2026-08-20T22:46:22Z</time></trkpt><trkpt lat="59.1022837814" lon="30.4745338764"><ele>297.18</ele><time>2026-08-20T22:46:23Z</time></trkpt><trkpt lat="59.1022837814" lon="30.4745338764"><ele>297.18</ele><time>2026-08-20T22:46:24Z</time></trkpt><trkpt lat="59.1022837814" lon="30.4745338764"><ele>297.18</ele><time>2026-08-20T22:46:25Z</time></trkpt><trkpt lat="59.1022837814" lon="30.4745338764"><ele>297.18</ele><time>2026-08-20T22:46:26Z</time></trkpt><trkpt lat="59.1022837814" lon="30.4745338764"><ele>297.18</ele><time>2026-08-20T22:46:27Z</time></trkpt><trkpt lat="59.1022837814" lon="30.4745338764"><ele>297.18</ele><time>2026-08-20T22:46:28Z</time></trkpt><trkpt lat="59.1022837814" lon="30.4745338764"><ele>297.18</ele><time>2026-08-20T22:46:29Z</time></trkpt><trkpt lat="59.1022837814" lon="30.4745338764"><ele>297.18</ele><time>2026-08-20T22:46:30Z</time></trkpt><trkpt lat="59.1022837814" lon="30.4745338764"><ele>297.18</ele><time>2026-08-20T22:46:31Z</time></trkpt><trkpt lat="59.1022837814" lon="30.4745338764"><ele>297.18</ele><time>2026-08-20T22:46:32Z</time></trkpt><trkpt lat="59.1022837814" lon="30.4745338764"><ele>297.18</ele><time>2026-08-20T22:46:33Z</time></trkpt><trkpt lat="59.1022837814" lon="30.4745338764"><ele>297.18</ele><time>2026-08-20T22:46:34Z</time></trkpt><trkpt lat="59.1022837814" lon="30.4745338764"><ele>297.18</ele><time>2026-08-20T22:46:35Z</time></trkpt><trkpt lat="59.1022837814" lon="30.4745338764"><ele>297.18</ele><time>2026-08-20T22:46:36Z</time></trkpt><trkpt lat="59.1022837814" lon="30.4745338764"><ele>297.18</ele><time>2026-08-20T22:46:37Z</time></trkpt><trkpt lat="59.1022837814" lon="30.4745338764"><ele>297.18</ele><time>2026-08-20T22:46:38Z</time></trkpt><trkpt lat="59.1022837814" lon="30.4745338764"><ele>297.18</ele><time>2026-08-20T22:46:39Z</time></trkpt><trkpt lat="59.1022837814" lon="30.4745338764"><ele>297.18</ele><time>2026-08-20T22:46:40Z</time></trkpt><trkpt lat="59.1022837814" lon="30.4745338764"><ele>297.18</ele><time>2026-08-20T22:46:41Z</time></trkpt><trkpt lat="59.1022837814" lon="30.4745338764"><ele>297.18</ele><time>2026-08-20T22:46:42Z</time></trkpt><trkpt lat="59.1022837814" lon="30.4745338764"><ele>297.18</ele><time>2026-08-20T22:46:43Z</time></trkpt><trkpt lat="59.1022837814" lon="30.4745338764"><ele>297.18</ele><time>2026-08-20T22:46:44Z</time></trkpt><trkpt lat="59.1022837814" lon="30.4745338764"><ele>297.18</ele><time>2026-08-20T22:46:45Z</time></trkpt><trkpt lat="59.1022837814" lon="30.4745338764"><ele>297.18</ele><time>2026-08-20T22:46:46Z</time></trkpt><trkpt lat="59.1022837814" lon="30.4745338764"><ele>297.18</ele><time>2026-08-20T22:46:47Z</time></trkpt><trkpt lat="59.1022837814" lon="30.4745338764"><ele>297.18</ele><time>2026-08-20T22:46:48Z</time></trkpt><trkpt lat="59.1022837814" lon="30.4745338764"><ele>297.18</ele><time>2026-08-20T22:46:49Z</time></trkpt><trkpt lat="59.1022837814" lon="30.4745338764"><ele>297.18</ele><time>2026-08-20T22:46:50Z</time></trkpt><trkpt lat="59.1022837814" lon="30.4745338764"><ele>297.18</ele><time>2026-08-20T22:46:51Z</time></trkpt><trkpt lat="59.1022837814" lon="30.4745338764"><ele>297.18</ele><time>2026-08-20T22:46:52Z</time></trkpt><trkpt lat="59.1022837814" lon="30.4745338764"><ele>297.18</ele><time>2026-08-20T22:46:53Z</time></trkpt><trkpt lat="59.1022837814" lon="30.4745338764"><ele>297.18</ele><time>2026-08-20T22:46:54Z</time></trkpt><trkpt lat="59.1022837814" lon="30.4745338764"><ele>297.18</ele><time>2026-08-20T22:46:55Z</time></trkpt><trkpt lat="59.1022837814" lon="30.4745338764"><ele>297.18</ele><time>2026-08-20T22:46:56Z</time></trkpt><trkpt lat="59.1022837814" lon="30.4745338764"><ele>297.18</ele><time>2026-08-20T22:46:57Z</time></trkpt><trkpt lat="59.1022837814" lon="30.4745338764"><ele>297.18</ele><time>2026-08-20T22:46:58Z</time></trkpt><trkpt lat="59.1022837814" lon="30.4745338764"><ele>297.18</ele><time>2026-08-20T22:46:59Z</time></trkpt><trkpt lat="59.1022837814" lon="30.4745338764"><ele>297.18</ele><time>2026-08-20T22:47:00Z</time></trkpt><trkpt lat="59.1022837814" lon="30.4745338764"><ele>297.18</ele><time>2026-08-20T22:47:01Z</time></trkpt><trkpt lat="59.1022837814" lon="30.4745338764"><ele>297.18</ele><time>2026-08-20T22:47:02Z</time></trkpt><trkpt lat="59.1022837814" lon="30.4745338764"><ele>297.18</ele><time>2026-08-20T22:47:03Z</time></trkpt><trkpt lat="59.1022837814" lon="30.4745338764"><ele>297.18</ele><time>2026-08-20T22:47:04Z</time></trkpt><trkpt lat="59.1022837814" lon="30.4745338764"><ele>297.18</ele><time>2026-08-20T22:47:05Z</time></trkpt><trkpt lat="59.1022837814" lon="30.4745338764"><ele>297.18</ele><time>2026-08-20T22:47:06Z</time></trkpt><trkpt lat="59.1022837814" lon="30.4745338764"><ele>297.18</ele><time>2026-08-20T22:47:07Z</time></trkpt><trkpt lat="59.1022837814" lon="30.4745338764"><ele>297.18</ele><time>2026-08-20T22:47:08Z</time></trkpt><trkpt lat="59.1022837814" lon="30.4745338764"><ele>297.18</ele><time>2026-08-20T22:47:09Z</time></trkpt><trkpt lat="59.1022837814" lon="30.4745338764"><ele>297.18</ele><time>2026-08-20T22:47:10Z</time></trkpt><trkpt lat="59.1022837814" lon="30.4745338764"><ele>297.18</ele><time>2026-08-20T22:47:11Z</time></trkpt><trkpt lat="59.1022837814" lon="30.4745338764"><ele>297.18</ele><time>2026-08-20T22:47:12Z</time></trkpt><trkpt lat="59.1022837814" lon="30.4745338764"><ele>297.18</ele><time>2026-08-20T22:47:13Z</time></trkpt><trkpt lat="59.1022837814" lon="30.4745338764"><ele>297.18</ele><time>2026-08-20T22:47:14Z</time></trkpt><trkpt lat="59.1022837814" lon="30.4745338764"><ele>297.18</ele><time>2026-08-20T22:47:15Z</time></trkpt><trkpt lat="59.1022837814" lon="30.4745338764"><ele>297.18</ele><time>2026-08-20T22:47:16Z</time></trkpt><trkpt lat="59.1022837814" lon="30.4745338764"><ele>297.18</ele><time>2026-08-20T22:47:17Z</time></trkpt><trkpt lat="59.1022837814" lon="30.4745338764"><ele>297.18</ele><time>2026-08-20T22:47:18Z</time></trkpt><trkpt lat="59.1022837814" lon="30.4745338764"><ele>297.18</ele><time>2026-08-20T22:47:19Z</time></trkpt><trkpt lat="59.1022837814" lon="30.4745338764"><ele>297.18</ele><time>2026-08-20T22:47:20Z</time></trkpt><trkpt lat="59.1022837814" lon="30.4745338764"><ele>297.18</ele><time>2026-08-20T22:47:21Z</time></trkpt><trkpt lat="59.1022837814" lon="30.4745338764"><ele>297.18</ele><time>2026-08-20T22:47:22Z</time></trkpt><trkpt lat="59.1022837814" lon="30.4745338764"><ele>297.18</ele><time>2026-08-20T22:47:23Z</time></trkpt><trkpt lat="59.1022837814" lon="30.4745338764"><ele>297.18</ele><time>2026-08-20T22:47:24Z</time></trkpt><trkpt lat="59.1022837814" lon="30.4745338764"><ele>297.18</ele><time>2026-08-20T22:47:25Z</time></trkpt><trkpt lat="59.1022837814" lon="30.4745338764"><ele>297.18</ele><time>2026-08-20T22:47:26Z</time></trkpt><trkpt lat="59.1022837814" lon="30.4745338764"><ele>297.18</ele><time>2026-08-20T22:47:27Z</time></trkpt><trkpt lat="59.1022837814" lon="30.4745338764"><ele>297.18</ele><time>2026-08-20T22:47:28Z</time></trkpt><trkpt lat="59.1022837814" lon="30.4745338764"><ele>297.18</ele><time>2026-08-20T22:47:29Z</time></trkpt><trkpt lat="59.1022837814" lon="30.4745338764"><ele>297.18</ele><time>2026-08-20T22:47:30Z</time></trkpt><trkpt lat="59.1022837814" lon="30.4745338764"><ele>297.18</ele><time>2026-08-20T22:47:31Z</time></trkpt><trkpt lat="59.1022837814" lon="30.4745338764"><ele>297.18</ele><time>2026-08-20T22:47:32Z</time></trkpt><trkpt lat="59.1022837814" lon="30.4745338764"><ele>297.18</ele><time>2026-08-20T22:47:33Z</time></trkpt><trkpt lat="59.1022837814" lon="30.4745338764"><ele>297.18</ele><time>2026-08-20T22:47:34Z</time></trkpt><trkpt lat="59.1022837814" lon="30.4745338764"><ele>297.18</ele><time>2026-08-20T22:47:35Z</time></trkpt><trkpt lat="59.1022837814" lon="30.4745338764"><ele>297.18</ele><time>2026-08-20T22:47:36Z</time></trkpt><trkpt lat="59.1022837814" lon="30.4745338764"><ele>297.18</ele><time>2026-08-20T22:47:37Z</time></trkpt><trkpt lat="59.1022837814" lon="30.4745338764"><ele>297.18</ele><time>2026-08-20T22:47:38Z</time></trkpt><trkpt lat="59.1022837814" lon="30.4745338764"><ele>297.18</ele><time>2026-08-20T22:47:39Z</time></trkpt><trkpt lat="59.1022837814" lon="30.4745338764"><ele>297.18</ele><time>2026-08-20T22:47:40Z</time></trkpt><trkpt lat="59.1022837814" lon="30.4745338764"><ele>297.18</ele><time>2026-08-20T22:47:41Z</time></trkpt><trkpt lat="59.1022837814" lon="30.4745338764"><ele>296.70</ele><time>2026-08-20T22:47:42Z</time></trkpt><trkpt lat="59.1022837814" lon="30.4745338764"><ele>296.70</ele><time>2026-08-20T22:47:43Z</time></trkpt><trkpt lat="59.1022837814" lon="30.4745338764"><ele>296.70</ele><time>2026-08-20T22:47:44Z</time></trkpt><trkpt lat="59.1022837814" lon="30.4745338764"><ele>296.70</ele><time>2026-08-20T22:47:45Z</time></trkpt><trkpt lat="59.1022837814" lon="30.4745338764"><ele>296.70</ele><time>2026-08-20T22:47:46Z</time></trkpt><trkpt lat="59.1022837814" lon="30.4745338764"><ele>296.70</ele><time>2026-08-20T22:47:47Z</time></trkpt><trkpt lat="59.1022837814" lon="30.4745338764"><ele>296.70</ele><time>2026-08-20T22:47:48Z</time></trkpt><trkpt lat="59.1022837814" lon="30.4745338764"><ele>296.70</ele><time>2026-08-20T22:47:49Z</time></trkpt><trkpt lat="59.1022837814" lon="30.4745338764"><ele>296.70</ele><time>2026-08-20T22:47:50Z</time></trkpt><trkpt lat="59.1022837814" lon="30.4745338764"><ele>296.70</ele><time>2026-08-20T22:47:51Z</time></trkpt><trkpt lat="59.1022837814" lon="30.4745338764"><ele>296.70</ele><time>2026-08-20T22:47:52Z</time></trkpt><trkpt lat="59.1022837814" lon="30.4745338764"><ele>296.70</ele><time>2026-08-20T22:47:53Z</time></trkpt><trkpt lat="59.1022837814" lon="30.4745338764"><ele>296.70</ele><time>2026-08-20T22:47:54Z</time></trkpt><trkpt lat="59.1022837814" lon="30.4745338764"><ele>297.18</ele><time>2026-08-20T22:47:55Z</time></trkpt><trkpt lat="59.1022837814" lon="30.4745338764"><ele>297.18</ele><time>2026-08-20T22:47:56Z</time></trkpt><trkpt lat="59.1022837814" lon="30.4745338764"><ele>297.18</ele><time>2026-08-20T22:47:57Z</time></trkpt><trkpt lat="59.1022837814" lon="30.4745338764"><ele>297.18</ele><time>2026-08-20T22:47:58Z</time></trkpt><trkpt lat="59.1022837814" lon="30.4745338764"><ele>297.18</ele><time>2026-08-20T22:47:59Z</time></trkpt><trkpt lat="59.1022837814" lon="30.4745338764"><ele>297.18</ele><time>2026-08-20T22:48:00Z</time></trkpt><trkpt lat="59.1022837814" lon="30.4745338764"><ele>297.18</ele><time>2026-08-20T22:48:01Z</time></trkpt><trkpt lat="59.1022837814" lon="30.4745338764"><ele>297.18</ele><time>2026-08-20T22:48:02Z</time></trkpt><trkpt lat="59.1022837814" lon="30.4745338764"><ele>297.18</ele><time>2026-08-20T22:48:03Z</time></trkpt><trkpt lat="59.1022837814" lon="30.4745338764"><ele>297.18</ele><time>2026-08-20T22:48:04Z</time></trkpt><trkpt lat="59.1022837814" lon="30.4745338764"><ele>297.18</ele><time>2026-08-20T22:48:05Z</time></trkpt><trkpt lat="59.1022837814" lon="30.4745338764"><ele>297.18</ele><time>2026-08-20T22:48:06Z</time></trkpt><trkpt lat="59.1022837814" lon="30.4745338764"><ele>297.18</ele><time>2026-08-20T22:48:07Z</time></trkpt><trkpt lat="59.1022837814" lon="30.4745338764"><ele>297.18</ele><time>2026-08-20T22:48:08Z</time></trkpt><trkpt lat="59.1022837814" lon="30.4745338764"><ele>297.18</ele><time>2026-08-20T22:48:09Z</time></trkpt><trkpt lat="59.1022837814" lon="30.4745338764"><ele>297.18</ele><time>2026-08-20T22:48:10Z</time></trkpt><trkpt lat="59.1022837814" lon="30.4745338764"><ele>297.18</ele><time>2026-08-20T22:48:11Z</time></trkpt><trkpt lat="59.1022837814" lon="30.4745338764"><ele>297.18</ele><time>2026-08-20T22:48:12Z</time></trkpt><trkpt lat="59.1022837814" lon="30.4745338764"><ele>297.18</ele><time>2026-08-20T22:48:13Z</time></trkpt><trkpt lat="59.1022837814" lon="30.4745338764"><ele>297.18</ele><time>2026-08-20T22:48:14Z</time></trkpt><trkpt lat="59.1022837814" lon="30.4745338764"><ele>297.18</ele><time>2026-08-20T22:48:15Z</time></trkpt><trkpt lat="59.1022837814" lon="30.4745338764"><ele>297.18</ele><time>2026-08-20T22:48:16Z</time></trkpt><trkpt lat="59.1022837814" lon="30.4745338764"><ele>297.18</ele><time>2026-08-20T22:48:17Z</time></trkpt><trkpt lat="59.1022837814" lon="30.4745338764"><ele>297.18</ele><time>2026-08-20T22:48:18Z</time></trkpt><trkpt lat="59.1022837814" lon="30.4745338764"><ele>297.18</ele><time>2026-08-20T22:48:19Z</time></trkpt><trkpt lat="59.1022837814" lon="30.4745338764"><ele>297.18</ele><time>2026-08-20T22:48:20Z</time></trkpt><trkpt lat="59.1022837814" lon="30.4745338764"><ele>297.18</ele><time>2026-08-20T22:48:21Z</time></trkpt><trkpt lat="59.1022837814" lon="30.4745338764"><ele>297.18</ele><time>2026-08-20T22:48:22Z</time></trkpt><trkpt lat="59.1022837814" lon="30.4745338764"><ele>297.18</ele><time>2026-08-20T22:48:23Z</time></trkpt><trkpt lat="59.1022837814" lon="30.4745338764"><ele>297.18</ele><time>2026-08-20T22:48:24Z</time></trkpt><trkpt lat="59.1022837814" lon="30.4745338764"><ele>297.18</ele><time>2026-08-20T22:48:25Z</time></trkpt><trkpt lat="59.1022837814" lon="30.4745338764"><ele>297.18</ele><time>2026-08-20T22:48:26Z</time></trkpt><trkpt lat="59.1022837814" lon="30.4745338764"><ele>297.18</ele><time>2026-08-20T22:48:27Z</time></trkpt><trkpt lat="59.1022837814" lon="30.4745338764"><ele>297.18</ele><time>2026-08-20T22:48:28Z</time></trkpt><trkpt lat="59.1022837814" lon="30.4745338764"><ele>297.18</ele><time>2026-08-20T22:48:29Z</time></trkpt><trkpt lat="59.1022837814" lon="30.4745338764"><ele>296.70</ele><time>2026-08-20T22:48:30Z</time></trkpt><trkpt lat="59.1022837814" lon="30.4745338764"><ele>296.70</ele><time>2026-08-20T22:48:31Z</time></trkpt><trkpt lat="59.1022837814" lon="30.4745338764"><ele>296.70</ele><time>2026-08-20T22:48:32Z</time></trkpt><trkpt lat="59.1022837814" lon="30.4745338764"><ele>296.70</ele><time>2026-08-20T22:48:33Z</time></trkpt><trkpt lat="59.1022837814" lon="30.4745338764"><ele>296.70</ele><time>2026-08-20T22:48:34Z</time></trkpt><trkpt lat="59.1022837814" lon="30.4745338764"><ele>296.22</ele><time>2026-08-20T22:48:35Z</time></trkpt><trkpt lat="59.1022837814" lon="30.4745338764"><ele>296.22</ele><time>2026-08-20T22:48:36Z</time></trkpt><trkpt lat="59.1022837814" lon="30.4745338764"><ele>296.22</ele><time>2026-08-20T22:48:37Z</time></trkpt><trkpt lat="59.1022837814" lon="30.4745338764"><ele>296.22</ele><time>2026-08-20T22:48:38Z</time></trkpt><trkpt lat="59.1022837814" lon="30.4745338764"><ele>296.22</ele><time>2026-08-20T22:48:39Z</time></trkpt><trkpt lat="59.1022837814" lon="30.4745338764"><ele>296.22</ele><time>2026-08-20T22:48:40Z</time></trkpt><trkpt lat="59.1022837814" lon="30.4745338764"><ele>296.22</ele><time>2026-08-20T22:48:41Z</time></trkpt><trkpt lat="59.1022837814" lon="30.4745338764"><ele>296.22</ele><time>2026-08-20T22:48:42Z</time></trkpt><trkpt lat="59.1022837814" lon="30.4745338764"><ele>296.22</ele><time>2026-08-20T22:48:43Z</time></trkpt><trkpt lat="59.1022837814" lon="30.4745338764"><ele>296.22</ele><time>2026-08-20T22:48:44Z</time></trkpt><trkpt lat="59.1022837814" lon="30.4745338764"><ele>296.22</ele><time>2026-08-20T22:48:45Z</time></trkpt><trkpt lat="59.1022837814" lon="30.4745338764"><ele>296.22</ele><time>2026-08-20T22:48:46Z</time></trkpt><trkpt lat="59.1022837814" lon="30.4745338764"><ele>296.22</ele><time>2026-08-20T22:48:47Z</time></trkpt><trkpt lat="59.1022837814" lon="30.4745338764"><ele>296.22</ele><time>2026-08-20T22:48:48Z</time></trkpt><trkpt lat="59.1022837814" lon="30.4745338764"><ele>296.22</ele><time>2026-08-20T22:48:49Z</time></trkpt><trkpt lat="59.1022837814" lon="30.4745338764"><ele>296.22</ele><time>2026-08-20T22:48:50Z</time></trkpt><trkpt lat="59.1022837814" lon="30.4745338764"><ele>296.22</ele><time>2026-08-20T22:48:51Z</time></trkpt><trkpt lat="59.1022837814" lon="30.4745338764"><ele>296.22</ele><time>2026-08-20T22:48:52Z</time></trkpt><trkpt lat="59.1022837814" lon="30.4745338764"><ele>296.22</ele><time>2026-08-20T22:48:53Z</time></trkpt><trkpt lat="59.1022837814" lon="30.4745338764"><ele>296.22</ele><time>2026-08-20T22:48:54Z</time></trkpt><trkpt lat="59.1022837814" lon="30.4745338764"><ele>296.22</ele><time>2026-08-20T22:48:55Z</time></trkpt><trkpt lat="59.1022837814" lon="30.4745338764"><ele>296.22</ele><time>2026-08-20T22:48:56Z</time></trkpt><trkpt lat="59.1022837814" lon="30.4745338764"><ele>296.22</ele><time>2026-08-20T22:48:57Z</time></trkpt><trkpt lat="59.1022837814" lon="30.4745338764"><ele>296.22</ele><time>2026-08-20T22:48:58Z</time></trkpt><trkpt lat="59.1022837814" lon="30.4745338764"><ele>296.22</ele><time>2026-08-20T22:48:59Z</time></trkpt><trkpt lat="59.1022837814" lon="30.4745338764"><ele>296.22</ele><time>2026-08-20T22:49:00Z</time></trkpt><trkpt lat="59.1022837814" lon="30.4745338764"><ele>296.22</ele><time>2026-08-20T22:49:01Z</time></trkpt><trkpt lat="59.1022837814" lon="30.4745338764"><ele>296.22</ele><time>2026-08-20T22:49:02Z</time></trkpt><trkpt lat="59.1022837814" lon="30.4745338764"><ele>296.22</ele><time>2026-08-20T22:49:03Z</time></trkpt><trkpt lat="59.1022837814" lon="30.4745338764"><ele>296.22</ele><time>2026-08-20T22:49:04Z</time></trkpt><trkpt lat="59.1022837814" lon="30.4745338764"><ele>296.22</ele><time>2026-08-20T22:49:05Z</time></trkpt><trkpt lat="59.1022837814" lon="30.4745338764"><ele>296.22</ele><time>2026-08-20T22:49:06Z</time></trkpt><trkpt lat="59.1022837814" lon="30.4745338764"><ele>296.22</ele><time>2026-08-20T22:49:07Z</time></trkpt><trkpt lat="59.1022837814" lon="30.4745338764"><ele>296.22</ele><time>2026-08-20T22:49:08Z</time></trkpt><trkpt lat="59.1022837814" lon="30.4745338764"><ele>296.22</ele><time>2026-08-20T22:49:09Z</time></trkpt><trkpt lat="59.1022837814" lon="30.4745338764"><ele>296.22</ele><time>2026-08-20T22:49:10Z</time></trkpt><trkpt lat="59.1022837814" lon="30.4745338764"><ele>296.22</ele><time>2026-08-20T22:49:11Z</time></trkpt><trkpt lat="59.1022837814" lon="30.4745338764"><ele>296.22</ele><time>2026-08-20T22:49:12Z</time></trkpt><trkpt lat="59.1022837814" lon="30.4745338764"><ele>296.22</ele><time>2026-08-20T22:49:13Z</time></trkpt><trkpt lat="59.1022837814" lon="30.4745338764"><ele>296.22</ele><time>2026-08-20T22:49:14Z</time></trkpt><trkpt lat="59.1022837814" lon="30.4745338764"><ele>296.22</ele><time>2026-08-20T22:49:15Z</time></trkpt><trkpt lat="59.1022837814" lon="30.4745338764"><ele>296.22</ele><time>2026-08-20T22:49:16Z</time></trkpt><trkpt lat="59.1022837814" lon="30.4745338764"><ele>296.22</ele><time>2026-08-20T22:49:17Z</time></trkpt><trkpt lat="59.1022837814" lon="30.4745338764"><ele>296.22</ele><time>2026-08-20T22:49:18Z</time></trkpt><trkpt lat="59.1022837814" lon="30.4745338764"><ele>296.22</ele><time>2026-08-20T22:49:19Z</time></trkpt><trkpt lat="59.1022837814" lon="30.4745338764"><ele>296.22</ele><time>2026-08-20T22:49:20Z</time></trkpt><trkpt lat="59.1022837814" lon="30.4745338764"><ele>296.22</ele><time>2026-08-20T22:49:21Z</time></trkpt><trkpt lat="59.1022837814" lon="30.4745338764"><ele>296.22</ele><time>2026-08-20T22:49:22Z</time></trkpt><trkpt lat="59.1022837814" lon="30.4745338764"><ele>296.22</ele><time>2026-08-20T22:49:23Z</time></trkpt><trkpt lat="59.1022837814" lon="30.4745338764"><ele>296.22</ele><time>2026-08-20T22:49:24Z</time></trkpt><trkpt lat="59.1022837814" lon="30.4745338764"><ele>296.22</ele><time>2026-08-20T22:49:25Z</time></trkpt><trkpt lat="59.1022837814" lon="30.4745338764"><ele>296.22</ele><time>2026-08-20T22:49:26Z</time></trkpt><trkpt lat="59.1022837814" lon="30.4745338764"><ele>296.22</ele><time>2026-08-20T22:49:27Z</time></trkpt><trkpt lat="59.1022837814" lon="30.4745338764"><ele>296.22</ele><time>2026-08-20T22:49:28Z</time></trkpt><trkpt lat="59.1022837814" lon="30.4745338764"><ele>296.22</ele><time>2026-08-20T22:49:29Z</time></trkpt><trkpt lat="59.1022837814" lon="30.4745338764"><ele>296.22</ele><time>2026-08-20T22:49:30Z</time></trkpt><trkpt lat="59.1022837814" lon="30.4745338764"><ele>296.22</ele><time>2026-08-20T22:49:31Z</time></trkpt><trkpt lat="59.1022837814" lon="30.4745338764"><ele>296.22</ele><time>2026-08-20T22:49:32Z</time></trkpt><trkpt lat="59.1022837814" lon="30.4745338764"><ele>296.22</ele><time>2026-08-20T22:49:33Z</time></trkpt><trkpt lat="59.1022837814" lon="30.4745338764"><ele>296.22</ele><time>2026-08-20T22:49:34Z</time></trkpt><trkpt lat="59.1022837814" lon="30.4745338764"><ele>296.22</ele><time>2026-08-20T22:49:35Z</time></trkpt><trkpt lat="59.1022837814" lon="30.4745338764"><ele>296.22</ele><time>2026-08-20T22:49:36Z</time></trkpt><trkpt lat="59.1022837814" lon="30.4745338764"><ele>296.22</ele><time>2026-08-20T22:49:37Z</time></trkpt><trkpt lat="59.1022837814" lon="30.4745338764"><ele>296.22</ele><time>2026-08-20T22:49:38Z</time></trkpt><trkpt lat="59.1022837814" lon="30.4745338764"><ele>296.22</ele><time>2026-08-20T22:49:39Z</time></trkpt><trkpt lat="59.1022837814" lon="30.4745338764"><ele>296.22</ele><time>2026-08-20T22:49:40Z</time></trkpt><trkpt lat="59.1022837814" lon="30.4745338764"><ele>296.22</ele><time>2026-08-20T22:49:41Z</time></trkpt><trkpt lat="59.1022837814" lon="30.4745338764"><ele>296.22</ele><time>2026-08-20T22:49:42Z</time></trkpt><trkpt lat="59.1022837814" lon="30.4745338764"><ele>296.22</ele><time>2026-08-20T22:49:43Z</time></trkpt><trkpt lat="59.1022837814" lon="30.4745338764"><ele>296.22</ele><time>2026-08-20T22:49:44Z</time></trkpt><trkpt lat="59.1022837814" lon="30.4745338764"><ele>296.22</ele><time>2026-08-20T22:49:45Z</time></trkpt><trkpt lat="59.1022837814" lon="30.4745338764"><ele>296.22</ele><time>2026-08-20T22:49:46Z</time></trkpt><trkpt lat="59.1022837814" lon="30.4745338764"><ele>296.22</ele><time>2026-08-20T22:49:47Z</time></trkpt><trkpt lat="59.1022837814" lon="30.4745338764"><ele>296.22</ele><time>2026-08-20T22:49:48Z</time></trkpt><trkpt lat="59.1022837814" lon="30.4745338764"><ele>296.22</ele><time>2026-08-20T22:49:49Z</time></trkpt><trkpt lat="59.1022837814" lon="30.4745338764"><ele>296.22</ele><time>2026-08-20T22:49:50Z</time></trkpt><trkpt lat="59.1022837814" lon="30.4745338764"><ele>296.22</ele><time>2026-08-20T22:49:51Z</time></trkpt><trkpt lat="59.1022837814" lon="30.4745338764"><ele>296.22</ele><time>2026-08-20T22:49:52Z</time></trkpt><trkpt lat="59.1022837814" lon="30.4745338764"><ele>296.22</ele><time>2026-08-20T22:49:53Z</time></trkpt><trkpt lat="59.1022837814" lon="30.4745338764"><ele>296.22</ele><time>2026-08-20T22:49:54Z</time></trkpt><trkpt lat="59.1022837814" lon="30.4745338764"><ele>296.22</ele><time>2026-08-20T22:49:55Z</time></trkpt><trkpt lat="59.1022837814" lon="30.4745338764"><ele>296.22</ele><time>2026-08-20T22:49:56Z</time></trkpt><trkpt lat="59.1022837814" lon="30.4745338764"><ele>296.22</ele><time>2026-08-20T22:49:57Z</time></trkpt><trkpt lat="59.1022837814" lon="30.4745338764"><ele>296.22</ele><time>2026-08-20T22:49:58Z</time></trkpt><trkpt lat="59.1022837814" lon="30.4745338764"><ele>296.22</ele><time>2026-08-20T22:49:59Z</time></trkpt><trkpt lat="59.1023019701" lon="30.4745513946"><ele>296.22</ele><time>2026-08-20T22:50:00Z</time></trkpt><trkpt lat="59.1023057420" lon="30.4745570943"><ele>296.22</ele><time>2026-08-20T22:50:01Z</time></trkpt><trkpt lat="59.1023065802" lon="30.4745644704"><ele>296.22</ele><time>2026-08-20T22:50:02Z</time></trkpt><trkpt lat="59.1023087595" lon="30.4745702539"><ele>296.22</ele><time>2026-08-20T22:50:03Z</time></trkpt><trkpt lat="59.1023121960" lon="30.4745709244"><ele>296.22</ele><time>2026-08-20T22:50:04Z</time></trkpt><trkpt lat="59.1023171414" lon="30.4745761212"><ele>296.22</ele><time>2026-08-20T22:50:05Z</time></trkpt><trkpt lat="59.1023171414" lon="30.4745761212"><ele>296.22</ele><time>2026-08-20T22:50:06Z</time></trkpt><trkpt lat="59.1023171414" lon="30.4745761212"><ele>296.22</ele><time>2026-08-20T22:50:07Z</time></trkpt><trkpt lat="59.1023171414" lon="30.4745761212"><ele>296.22</ele><time>2026-08-20T22:50:08Z</time></trkpt><trkpt lat="59.1023171414" lon="30.4745761212"><ele>296.22</ele><time>2026-08-20T22:50:09Z</time></trkpt><trkpt lat="59.1023171414" lon="30.4745761212"><ele>296.22</ele><time>2026-08-20T22:50:10Z</time></trkpt><trkpt lat="59.1023111902" lon="30.4746548273"><ele>296.22</ele><time>2026-08-20T22:50:11Z</time></trkpt><trkpt lat="59.1023068316" lon="30.4746685736"><ele>296.22</ele><time>2026-08-20T22:50:12Z</time></trkpt><trkpt lat="59.1023074184" lon="30.4746909533"><ele>296.22</ele><time>2026-08-20T22:50:13Z</time></trkpt><trkpt lat="59.1023097653" lon="30.4747075494"><ele>296.22</ele><time>2026-08-20T22:50:14Z</time></trkpt><trkpt lat="59.1023102682" lon="30.4747159313"><ele>296.22</ele><time>2026-08-20T22:50:15Z</time></trkpt><trkpt lat="59.1023065802" lon="30.4747428373"><ele>296.22</ele><time>2026-08-20T22:50:16Z</time></trkpt><trkpt lat="59.1023034789" lon="30.4747609422"><ele>296.22</ele><time>2026-08-20T22:50:17Z</time></trkpt><trkpt lat="59.1023034789" lon="30.4747609422"><ele>296.22</ele><time>2026-08-20T22:50:18Z</time></trkpt><trkpt lat="59.1023034789" lon="30.4747609422"><ele>296.22</ele><time>2026-08-20T22:50:19Z</time></trkpt><trkpt lat="59.1023034789" lon="30.4747609422"><ele>296.22</ele><time>2026-08-20T22:50:20Z</time></trkpt><trkpt lat="59.1023034789" lon="30.4747609422"><ele>296.22</ele><time>2026-08-20T22:50:21Z</time></trkpt><trkpt lat="59.1023034789" lon="30.4747609422"><ele>296.22</ele><time>2026-08-20T22:50:22Z</time></trkpt><trkpt lat="59.1023034789" lon="30.4747609422"><ele>296.22</ele><time>2026-08-20T22:50:23Z</time></trkpt><trkpt lat="59.1023034789" lon="30.4747609422"><ele>296.22</ele><time>2026-08-20T22:50:24Z</time></trkpt><trkpt lat="59.1023034789" lon="30.4747609422"><ele>296.22</ele><time>2026-08-20T22:50:25Z</time></trkpt><trkpt lat="59.1023034789" lon="30.4747609422"><ele>296.22</ele><time>2026-08-20T22:50:26Z</time></trkpt><trkpt lat="59.1023034789" lon="30.4747609422"><ele>296.22</ele><time>2026-08-20T22:50:27Z</time></trkpt><trkpt lat="59.1023034789" lon="30.4747609422"><ele>296.22</ele><time>2026-08-20T22:50:28Z</time></trkpt><trkpt lat="59.1023034789" lon="30.4747609422"><ele>296.22</ele><time>2026-08-20T22:50:29Z</time></trkpt><trkpt lat="59.1023034789" lon="30.4747609422"><ele>296.22</ele><time>2026-08-20T22:50:30Z</time></trkpt><trkpt lat="59.1023034789" lon="30.4747609422"><ele>296.22</ele><time>2026-08-20T22:50:31Z</time></trkpt><trkpt lat="59.1023034789" lon="30.4747609422"><ele>296.22</ele><time>2026-08-20T22:50:32Z</time></trkpt><trkpt lat="59.1023034789" lon="30.4747609422"><ele>296.22</ele><time>2026-08-20T22:50:33Z</time></trkpt><trkpt lat="59.1023034789" lon="30.4747609422"><ele>296.22</ele><time>2026-08-20T22:50:34Z</time></trkpt><trkpt lat="59.1023034789" lon="30.4747609422"><ele>296.22</ele><time>2026-08-20T22:50:35Z</time></trkpt><trkpt lat="59.1023034789" lon="30.4747609422"><ele>296.22</ele><time>2026-08-20T22:50:36Z</time></trkpt><trkpt lat="59.1023034789" lon="30.4747609422"><ele>296.22</ele><time>2026-08-20T22:50:37Z</time></trkpt><trkpt lat="59.1023034789" lon="30.4747609422"><ele>296.22</ele><time>2026-08-20T22:50:38Z</time></trkpt><trkpt lat="59.1023034789" lon="30.4747609422"><ele>296.22</ele><time>2026-08-20T22:50:39Z</time></trkpt><trkpt lat="59.1023034789" lon="30.4747609422"><ele>296.22</ele><time>2026-08-20T22:50:40Z</time></trkpt><trkpt lat="59.1023034789" lon="30.4747609422"><ele>296.22</ele><time>2026-08-20T22:50:41Z</time></trkpt><trkpt lat="59.1023034789" lon="30.4747609422"><ele>296.22</ele><time>2026-08-20T22:50:42Z</time></trkpt><trkpt lat="59.1023034789" lon="30.4747609422"><ele>296.22</ele><time>2026-08-20T22:50:43Z</time></trkpt><trkpt lat="59.1023034789" lon="30.4747609422"><ele>296.22</ele><time>2026-08-20T22:50:44Z</time></trkpt><trkpt lat="59.1023034789" lon="30.4747609422"><ele>296.22</ele><time>2026-08-20T22:50:45Z</time></trkpt><trkpt lat="59.1023034789" lon="30.4747609422"><ele>296.22</ele><time>2026-08-20T22:50:46Z</time></trkpt><trkpt lat="59.1023034789" lon="30.4747609422"><ele>296.22</ele><time>2026-08-20T22:50:47Z</time></trkpt><trkpt lat="59.1023034789" lon="30.4747609422"><ele>296.22</ele><time>2026-08-20T22:50:48Z</time></trkpt><trkpt lat="59.1023034789" lon="30.4747609422"><ele>296.22</ele><time>2026-08-20T22:50:49Z</time></trkpt><trkpt lat="59.1023034789" lon="30.4747609422"><ele>296.22</ele><time>2026-08-20T22:50:50Z</time></trkpt><trkpt lat="59.1023034789" lon="30.4747609422"><ele>296.22</ele><time>2026-08-20T22:50:51Z</time></trkpt><trkpt lat="59.1023034789" lon="30.4747609422"><ele>296.22</ele><time>2026-08-20T22:50:52Z</time></trkpt><trkpt lat="59.1023034789" lon="30.4747609422"><ele>295.74</ele><time>2026-08-20T22:50:53Z</time></trkpt><trkpt lat="59.1023034789" lon="30.4747609422"><ele>295.74</ele><time>2026-08-20T22:50:54Z</time></trkpt><trkpt lat="59.1023034789" lon="30.4747609422"><ele>295.74</ele><time>2026-08-20T22:50:55Z</time></trkpt><trkpt lat="59.1023034789" lon="30.4747609422"><ele>295.74</ele><time>2026-08-20T22:50:56Z</time></trkpt><trkpt lat="59.1023034789" lon="30.4747609422"><ele>295.74</ele><time>2026-08-20T22:50:57Z</time></trkpt><trkpt lat="59.1023034789" lon="30.4747609422"><ele>295.74</ele><time>2026-08-20T22:50:58Z</time></trkpt><trkpt lat="59.1023034789" lon="30.4747609422"><ele>295.74</ele><time>2026-08-20T22:50:59Z</time></trkpt><trkpt lat="59.1023034789" lon="30.4747609422"><ele>295.74</ele><time>2026-08-20T22:51:00Z</time></trkpt><trkpt lat="59.1023034789" lon="30.4747609422"><ele>295.74</ele><time>2026-08-20T22:51:01Z</time></trkpt><trkpt lat="59.1023034789" lon="30.4747609422"><ele>295.74</ele><time>2026-08-20T22:51:02Z</time></trkpt><trkpt lat="59.1023034789" lon="30.4747609422"><ele>295.74</ele><time>2026-08-20T22:51:03Z</time></trkpt><trkpt lat="59.1023034789" lon="30.4747609422"><ele>295.74</ele><time>2026-08-20T22:51:04Z</time></trkpt><trkpt lat="59.1023034789" lon="30.4747609422"><ele>295.74</ele><time>2026-08-20T22:51:05Z</time></trkpt><trkpt lat="59.1023034789" lon="30.4747609422"><ele>295.74</ele><time>2026-08-20T22:51:06Z</time></trkpt><trkpt lat="59.1023034789" lon="30.4747609422"><ele>295.74</ele><time>2026-08-20T22:51:07Z</time></trkpt><trkpt lat="59.1023034789" lon="30.4747609422"><ele>295.74</ele><time>2026-08-20T22:51:08Z</time></trkpt><trkpt lat="59.1023034789" lon="30.4747609422"><ele>295.74</ele><time>2026-08-20T22:51:09Z</time></trkpt><trkpt lat="59.1023034789" lon="30.4747609422"><ele>295.74</ele><time>2026-08-20T22:51:10Z</time></trkpt><trkpt lat="59.1023034789" lon="30.4747609422"><ele>295.74</ele><time>2026-08-20T22:51:11Z</time></trkpt><trkpt lat="59.1023034789" lon="30.4747609422"><ele>295.74</ele><time>2026-08-20T22:51:12Z</time></trkpt><trkpt lat="59.1023034789" lon="30.4747609422"><ele>295.74</ele><time>2026-08-20T22:51:13Z</time></trkpt><trkpt lat="59.1023034789" lon="30.4747609422"><ele>295.74</ele><time>2026-08-20T22:51:14Z</time></trkpt><trkpt lat="59.1023034789" lon="30.4747609422"><ele>295.74</ele><time>2026-08-20T22:51:15Z</time></trkpt><trkpt lat="59.1023034789" lon="30.4747609422"><ele>295.74</ele><time>2026-08-20T22:51:16Z</time></trkpt><trkpt lat="59.1023034789" lon="30.4747609422"><ele>295.74</ele><time>2026-08-20T22:51:17Z</time></trkpt><trkpt lat="59.1023034789" lon="30.4747609422"><ele>295.74</ele><time>2026-08-20T22:51:18Z</time></trkpt><trkpt lat="59.1023034789" lon="30.4747609422"><ele>295.74</ele><time>2026-08-20T22:51:19Z</time></trkpt><trkpt lat="59.1023034789" lon="30.4747609422"><ele>295.74</ele><time>2026-08-20T22:51:20Z</time></trkpt><trkpt lat="59.1023034789" lon="30.4747609422"><ele>295.74</ele><time>2026-08-20T22:51:21Z</time></trkpt><trkpt lat="59.1023034789" lon="30.4747609422"><ele>295.74</ele><time>2026-08-20T22:51:22Z</time></trkpt><trkpt lat="59.1023034789" lon="30.4747609422"><ele>295.74</ele><time>2026-08-20T22:51:23Z</time></trkpt><trkpt lat="59.1023034789" lon="30.4747609422"><ele>295.74</ele><time>2026-08-20T22:51:24Z</time></trkpt><trkpt lat="59.1023034789" lon="30.4747609422"><ele>295.74</ele><time>2026-08-20T22:51:25Z</time></trkpt><trkpt lat="59.1023034789" lon="30.4747609422"><ele>295.74</ele><time>2026-08-20T22:51:26Z</time></trkpt><trkpt lat="59.1023034789" lon="30.4747609422"><ele>295.74</ele><time>2026-08-20T22:51:27Z</time></trkpt><trkpt lat="59.1023034789" lon="30.4747609422"><ele>295.74</ele><time>2026-08-20T22:51:28Z</time></trkpt><trkpt lat="59.1023034789" lon="30.4747609422"><ele>295.74</ele><time>2026-08-20T22:51:29Z</time></trkpt><trkpt lat="59.1023034789" lon="30.4747609422"><ele>295.74</ele><time>2026-08-20T22:51:30Z</time></trkpt><trkpt lat="59.1023034789" lon="30.4747609422"><ele>295.74</ele><time>2026-08-20T22:51:31Z</time></trkpt><trkpt lat="59.1023034789" lon="30.4747609422"><ele>295.74</ele><time>2026-08-20T22:51:32Z</time></trkpt><trkpt lat="59.1023034789" lon="30.4747609422"><ele>295.74</ele><time>2026-08-20T22:51:33Z</time></trkpt><trkpt lat="59.1023034789" lon="30.4747609422"><ele>295.74</ele><time>2026-08-20T22:51:34Z</time></trkpt><trkpt lat="59.1023034789" lon="30.4747609422"><ele>295.74</ele><time>2026-08-20T22:51:35Z</time></trkpt><trkpt lat="59.1023034789" lon="30.4747609422"><ele>295.74</ele><time>2026-08-20T22:51:36Z</time></trkpt><trkpt lat="59.1023034789" lon="30.4747609422"><ele>295.74</ele><time>2026-08-20T22:51:37Z</time></trkpt><trkpt lat="59.1023034789" lon="30.4747609422"><ele>295.74</ele><time>2026-08-20T22:51:38Z</time></trkpt><trkpt lat="59.1023034789" lon="30.4747609422"><ele>295.74</ele><time>2026-08-20T22:51:39Z</time></trkpt><trkpt lat="59.1023034789" lon="30.4747609422"><ele>295.74</ele><time>2026-08-20T22:51:40Z</time></trkpt><trkpt lat="59.1023034789" lon="30.4747609422"><ele>295.74</ele><time>2026-08-20T22:51:41Z</time></trkpt><trkpt lat="59.1023034789" lon="30.4747609422"><ele>295.74</ele><time>2026-08-20T22:51:42Z</time></trkpt><trkpt lat="59.1023034789" lon="30.4747609422"><ele>295.74</ele><time>2026-08-20T22:51:43Z</time></trkpt><trkpt lat="59.1023034789" lon="30.4747609422"><ele>295.74</ele><time>2026-08-20T22:51:44Z</time></trkpt><trkpt lat="59.1023034789" lon="30.4747609422"><ele>295.74</ele><time>2026-08-20T22:51:45Z</time></trkpt><trkpt lat="59.1023034789" lon="30.4747609422"><ele>295.74</ele><time>2026-08-20T22:51:46Z</time></trkpt><trkpt lat="59.1023034789" lon="30.4747609422"><ele>295.74</ele><time>2026-08-20T22:51:47Z</time></trkpt><trkpt lat="59.1023034789" lon="30.4747609422"><ele>295.74</ele><time>2026-08-20T22:51:48Z</time></trkpt><trkpt lat="59.1023034789" lon="30.4747609422"><ele>295.74</ele><time>2026-08-20T22:51:49Z</time></trkpt><trkpt lat="59.1023034789" lon="30.4747609422"><ele>295.74</ele><time>2026-08-20T22:51:50Z</time></trkpt><trkpt lat="59.1023034789" lon="30.4747609422"><ele>295.74</ele><time>2026-08-20T22:51:51Z</time></trkpt><trkpt lat="59.1023034789" lon="30.4747609422"><ele>295.74</ele><time>2026-08-20T22:51:52Z</time></trkpt><trkpt lat="59.1023034789" lon="30.4747609422"><ele>295.74</ele><time>2026-08-20T22:51:53Z</time></trkpt><trkpt lat="59.1023034789" lon="30.4747609422"><ele>295.74</ele><time>2026-08-20T22:51:54Z</time></trkpt><trkpt lat="59.1023034789" lon="30.4747609422"><ele>295.74</ele><time>2026-08-20T22:51:55Z</time></trkpt><trkpt lat="59.1023034789" lon="30.4747609422"><ele>295.74</ele><time>2026-08-20T22:51:56Z</time></trkpt><trkpt lat="59.1023034789" lon="30.4747609422"><ele>295.74</ele><time>2026-08-20T22:51:57Z</time></trkpt><trkpt lat="59.1023034789" lon="30.4747609422"><ele>295.74</ele><time>2026-08-20T22:51:58Z</time></trkpt><trkpt lat="59.1023034789" lon="30.4747609422"><ele>295.74</ele><time>2026-08-20T22:51:59Z</time></trkpt><trkpt lat="59.1023034789" lon="30.4747609422"><ele>295.74</ele><time>2026-08-20T22:52:00Z</time></trkpt><trkpt lat="59.1023034789" lon="30.4747609422"><ele>295.74</ele><time>2026-08-20T22:52:01Z</time></trkpt><trkpt lat="59.1023034789" lon="30.4747609422"><ele>295.74</ele><time>2026-08-20T22:52:02Z</time></trkpt><trkpt lat="59.1023034789" lon="30.4747609422"><ele>295.74</ele><time>2026-08-20T22:52:03Z</time></trkpt><trkpt lat="59.1023034789" lon="30.4747609422"><ele>295.74</ele><time>2026-08-20T22:52:04Z</time></trkpt><trkpt lat="59.1023034789" lon="30.4747609422"><ele>295.74</ele><time>2026-08-20T22:52:05Z</time></trkpt><trkpt lat="59.1023034789" lon="30.4747609422"><ele>295.74</ele><time>2026-08-20T22:52:06Z</time></trkpt><trkpt lat="59.1023034789" lon="30.4747609422"><ele>295.74</ele><time>2026-08-20T22:52:07Z</time></trkpt><trkpt lat="59.1023034789" lon="30.4747609422"><ele>295.74</ele><time>2026-08-20T22:52:08Z</time></trkpt><trkpt lat="59.1023034789" lon="30.4747609422"><ele>295.74</ele><time>2026-08-20T22:52:09Z</time></trkpt><trkpt lat="59.1023034789" lon="30.4747609422"><ele>295.74</ele><time>2026-08-20T22:52:10Z</time></trkpt><trkpt lat="59.1023034789" lon="30.4747609422"><ele>295.74</ele><time>2026-08-20T22:52:11Z</time></trkpt><trkpt lat="59.1023034789" lon="30.4747609422"><ele>295.74</ele><time>2026-08-20T22:52:12Z</time></trkpt><trkpt lat="59.1023034789" lon="30.4747609422"><ele>295.74</ele><time>2026-08-20T22:52:13Z</time></trkpt><trkpt lat="59.1023034789" lon="30.4747609422"><ele>295.74</ele><time>2026-08-20T22:52:14Z</time></trkpt><trkpt lat="59.1023034789" lon="30.4747609422"><ele>295.74</ele><time>2026-08-20T22:52:15Z</time></trkpt><trkpt lat="59.1023034789" lon="30.4747609422"><ele>295.74</ele><time>2026-08-20T22:52:16Z</time></trkpt><trkpt lat="59.1023034789" lon="30.4747609422"><ele>295.74</ele><time>2026-08-20T22:52:17Z</time></trkpt><trkpt lat="59.1023034789" lon="30.4747609422"><ele>295.74</ele><time>2026-08-20T22:52:18Z</time></trkpt><trkpt lat="59.1023034789" lon="30.4747609422"><ele>295.74</ele><time>2026-08-20T22:52:19Z</time></trkpt><trkpt lat="59.1023034789" lon="30.4747609422"><ele>295.74</ele><time>2026-08-20T22:52:20Z</time></trkpt><trkpt lat="59.1023034789" lon="30.4747609422"><ele>295.74</ele><time>2026-08-20T22:52:21Z</time></trkpt><trkpt lat="59.1023034789" lon="30.4747609422"><ele>295.74</ele><time>2026-08-20T22:52:22Z</time></trkpt><trkpt lat="59.1023034789" lon="30.4747609422"><ele>295.74</ele><time>2026-08-20T22:52:23Z</time></trkpt><trkpt lat="59.1023034789" lon="30.4747609422"><ele>295.74</ele><time>2026-08-20T22:52:24Z</time></trkpt><trkpt lat="59.1023034789" lon="30.4747609422"><ele>295.74</ele><time>2026-08-20T22:52:25Z</time></trkpt><trkpt lat="59.1023034789" lon="30.4747609422"><ele>295.74</ele><time>2026-08-20T22:52:26Z</time></trkpt><trkpt lat="59.1023034789" lon="30.4747609422"><ele>295.74</ele><time>2026-08-20T22:52:27Z</time></trkpt><trkpt lat="59.1023034789" lon="30.4747609422"><ele>295.74</ele><time>2026-08-20T22:52:28Z</time></trkpt><trkpt lat="59.1023034789" lon="30.4747609422"><ele>295.74</ele><time>2026-08-20T22:52:29Z</time></trkpt><trkpt lat="59.1023034789" lon="30.4747609422"><ele>295.74</ele><time>2026-08-20T22:52:30Z</time></trkpt><trkpt lat="59.1023034789" lon="30.4747609422"><ele>295.74</ele><time>2026-08-20T22:52:31Z</time></trkpt><trkpt lat="59.1023034789" lon="30.4747609422"><ele>295.74</ele><time>2026-08-20T22:52:32Z</time></trkpt><trkpt lat="59.1023034789" lon="30.4747609422"><ele>295.74</ele><time>2026-08-20T22:52:33Z</time></trkpt><trkpt lat="59.1023034789" lon="30.4747609422"><ele>295.74</ele><time>2026-08-20T22:52:34Z</time></trkpt><trkpt lat="59.1023034789" lon="30.4747609422"><ele>295.74</ele><time>2026-08-20T22:52:35Z</time></trkpt><trkpt lat="59.1023034789" lon="30.4747609422"><ele>295.74</ele><time>2026-08-20T22:52:36Z</time></trkpt><trkpt lat="59.1023034789" lon="30.4747609422"><ele>295.74</ele><time>2026-08-20T22:52:37Z</time></trkpt><trkpt lat="59.1023034789" lon="30.4747609422"><ele>295.74</ele><time>2026-08-20T22:52:38Z</time></trkpt><trkpt lat="59.1023034789" lon="30.4747609422"><ele>295.74</ele><time>2026-08-20T22:52:39Z</time></trkpt><trkpt lat="59.1023034789" lon="30.4747609422"><ele>295.74</ele><time>2026-08-20T22:52:40Z</time></trkpt><trkpt lat="59.1023034789" lon="30.4747609422"><ele>295.74</ele><time>2026-08-20T22:52:41Z</time></trkpt><trkpt lat="59.1023034789" lon="30.4747609422"><ele>295.74</ele><time>2026-08-20T22:52:42Z</time></trkpt><trkpt lat="59.1023034789" lon="30.4747609422"><ele>295.74</ele><time>2026-08-20T22:52:43Z</time></trkpt><trkpt lat="59.1023034789" lon="30.4747609422"><ele>295.74</ele><time>2026-08-20T22:52:44Z</time></trkpt><trkpt lat="59.1023034789" lon="30.4747609422"><ele>295.74</ele><time>2026-08-20T22:52:45Z</time></trkpt><trkpt lat="59.1023034789" lon="30.4747609422"><ele>295.74</ele><time>2026-08-20T22:52:46Z</time></trkpt><trkpt lat="59.1023034789" lon="30.4747609422"><ele>295.74</ele><time>2026-08-20T22:52:47Z</time></trkpt><trkpt lat="59.1023034789" lon="30.4747609422"><ele>295.74</ele><time>2026-08-20T22:52:48Z</time></trkpt><trkpt lat="59.1023034789" lon="30.4747609422"><ele>295.74</ele><time>2026-08-20T22:52:49Z</time></trkpt><trkpt lat="59.1023034789" lon="30.4747609422"><ele>295.74</ele><time>2026-08-20T22:52:50Z</time></trkpt><trkpt lat="59.1023034789" lon="30.4747609422"><ele>295.74</ele><time>2026-08-20T22:52:51Z</time></trkpt><trkpt lat="59.1023034789" lon="30.4747609422"><ele>295.74</ele><time>2026-08-20T22:52:52Z</time></trkpt><trkpt lat="59.1023034789" lon="30.4747609422"><ele>295.74</ele><time>2026-08-20T22:52:53Z</time></trkpt><trkpt lat="59.1023034789" lon="30.4747609422"><ele>295.74</ele><time>2026-08-20T22:52:54Z</time></trkpt><trkpt lat="59.1023034789" lon="30.4747609422"><ele>295.74</ele><time>2026-08-20T22:52:55Z</time></trkpt><trkpt lat="59.1023034789" lon="30.4747609422"><ele>295.74</ele><time>2026-08-20T22:52:56Z</time></trkpt><trkpt lat="59.1023037303" lon="30.4748013429"><ele>295.74</ele><time>2026-08-20T22:52:57Z</time></trkpt><trkpt lat="59.1023036465" lon="30.4747967329"><ele>295.74</ele><time>2026-08-20T22:52:58Z</time></trkpt><trkpt lat="59.1023026407" lon="30.4747941345"><ele>295.74</ele><time>2026-08-20T22:52:59Z</time></trkpt><trkpt lat="59.1023027245" lon="30.4747886863"><ele>295.74</ele><time>2026-08-20T22:53:00Z</time></trkpt><trkpt lat="59.1023027245" lon="30.4747886863"><ele>295.74</ele><time>2026-08-20T22:53:01Z</time></trkpt><trkpt lat="59.1023027245" lon="30.4747886863"><ele>295.74</ele><time>2026-08-20T22:53:02Z</time></trkpt><trkpt lat="59.1023027245" lon="30.4747886863"><ele>295.74</ele><time>2026-08-20T22:53:03Z</time></trkpt><trkpt lat="59.1023027245" lon="30.4747886863"><ele>295.74</ele><time>2026-08-20T22:53:04Z</time></trkpt><trkpt lat="59.1023027245" lon="30.4747886863"><ele>295.74</ele><time>2026-08-20T22:53:05Z</time></trkpt><trkpt lat="59.1023027245" lon="30.4747886863"><ele>295.74</ele><time>2026-08-20T22:53:06Z</time></trkpt><trkpt lat="59.1023027245" lon="30.4747886863"><ele>295.74</ele><time>2026-08-20T22:53:07Z</time></trkpt><trkpt lat="59.1023027245" lon="30.4747886863"><ele>295.74</ele><time>2026-08-20T22:53:08Z</time></trkpt><trkpt lat="59.1023027245" lon="30.4747886863"><ele>295.74</ele><time>2026-08-20T22:53:09Z</time></trkpt><trkpt lat="59.1023027245" lon="30.4747886863"><ele>295.74</ele><time>2026-08-20T22:53:10Z</time></trkpt><trkpt lat="59.1023027245" lon="30.4747886863"><ele>295.74</ele><time>2026-08-20T22:53:11Z</time></trkpt><trkpt lat="59.1023027245" lon="30.4747886863"><ele>295.74</ele><time>2026-08-20T22:53:12Z</time></trkpt><trkpt lat="59.1023027245" lon="30.4747886863"><ele>295.74</ele><time>2026-08-20T22:53:13Z</time></trkpt><trkpt lat="59.1023027245" lon="30.4747886863"><ele>296.22</ele><time>2026-08-20T22:53:14Z</time></trkpt><trkpt lat="59.1023027245" lon="30.4747886863"><ele>296.22</ele><time>2026-08-20T22:53:15Z</time></trkpt><trkpt lat="59.1023027245" lon="30.4747886863"><ele>296.22</ele><time>2026-08-20T22:53:16Z</time></trkpt><trkpt lat="59.1023027245" lon="30.4747886863"><ele>296.22</ele><time>2026-08-20T22:53:17Z</time></trkpt><trkpt lat="59.1023027245" lon="30.4747886863"><ele>296.22</ele><time>2026-08-20T22:53:18Z</time></trkpt><trkpt lat="59.1023027245" lon="30.4747886863"><ele>296.22</ele><time>2026-08-20T22:53:19Z</time></trkpt><trkpt lat="59.1023027245" lon="30.4747886863"><ele>296.22</ele><time>2026-08-20T22:53:20Z</time></trkpt><trkpt lat="59.1023027245" lon="30.4747886863"><ele>296.22</ele><time>2026-08-20T22:53:21Z</time></trkpt><trkpt lat="59.1023027245" lon="30.4747886863"><ele>296.22</ele><time>2026-08-20T22:53:22Z</time></trkpt><trkpt lat="59.1023027245" lon="30.4747886863"><ele>296.22</ele><time>2026-08-20T22:53:23Z</time></trkpt><trkpt lat="59.1023027245" lon="30.4747886863"><ele>296.22</ele><time>2026-08-20T22:53:24Z</time></trkpt><trkpt lat="59.1023027245" lon="30.4747886863"><ele>296.22</ele><time>2026-08-20T22:53:25Z</time></trkpt><trkpt lat="59.1023027245" lon="30.4747886863"><ele>296.22</ele><time>2026-08-20T22:53:26Z</time></trkpt><trkpt lat="59.1023027245" lon="30.4747886863"><ele>296.22</ele><time>2026-08-20T22:53:27Z</time></trkpt><trkpt lat="59.1023027245" lon="30.4747886863"><ele>296.22</ele><time>2026-08-20T22:53:28Z</time></trkpt><trkpt lat="59.1023027245" lon="30.4747886863"><ele>296.22</ele><time>2026-08-20T22:53:29Z</time></trkpt><trkpt lat="59.1023027245" lon="30.4747886863"><ele>296.22</ele><time>2026-08-20T22:53:30Z</time></trkpt><trkpt lat="59.1023027245" lon="30.4747886863"><ele>296.22</ele><time>2026-08-20T22:53:31Z</time></trkpt><trkpt lat="59.1023027245" lon="30.4747886863"><ele>296.22</ele><time>2026-08-20T22:53:32Z</time></trkpt><trkpt lat="59.1023027245" lon="30.4747886863"><ele>296.22</ele><time>2026-08-20T22:53:33Z</time></trkpt><trkpt lat="59.1023027245" lon="30.4747886863"><ele>296.22</ele><time>2026-08-20T22:53:34Z</time></trkpt><trkpt lat="59.1023027245" lon="30.4747886863"><ele>296.22</ele><time>2026-08-20T22:53:35Z</time></trkpt><trkpt lat="59.1023027245" lon="30.4747886863"><ele>296.22</ele><time>2026-08-20T22:53:36Z</time></trkpt><trkpt lat="59.1023027245" lon="30.4747886863"><ele>296.22</ele><time>2026-08-20T22:53:37Z</time></trkpt><trkpt lat="59.1023027245" lon="30.4747886863"><ele>296.22</ele><time>2026-08-20T22:53:38Z</time></trkpt><trkpt lat="59.1023027245" lon="30.4747886863"><ele>296.22</ele><time>2026-08-20T22:53:39Z</time></trkpt><trkpt lat="59.1023027245" lon="30.4747886863"><ele>296.22</ele><time>2026-08-20T22:53:40Z</time></trkpt><trkpt lat="59.1023027245" lon="30.4747886863"><ele>296.22</ele><time>2026-08-20T22:53:41Z</time></trkpt><trkpt lat="59.1023027245" lon="30.4747886863"><ele>296.22</ele><time>2026-08-20T22:53:42Z</time></trkpt><trkpt lat="59.1023027245" lon="30.4747886863"><ele>296.22</ele><time>2026-08-20T22:53:43Z</time></trkpt><trkpt lat="59.1023027245" lon="30.4747886863"><ele>296.22</ele><time>2026-08-20T22:53:44Z</time></trkpt><trkpt lat="59.1023027245" lon="30.4747886863"><ele>296.22</ele><time>2026-08-20T22:53:45Z</time></trkpt><trkpt lat="59.1023027245" lon="30.4747886863"><ele>296.22</ele><time>2026-08-20T22:53:46Z</time></trkpt><trkpt lat="59.1023027245" lon="30.4747886863"><ele>296.22</ele><time>2026-08-20T22:53:47Z</time></trkpt><trkpt lat="59.1023027245" lon="30.4747886863"><ele>296.22</ele><time>2026-08-20T22:53:48Z</time></trkpt><trkpt lat="59.1023027245" lon="30.4747886863"><ele>296.22</ele><time>2026-08-20T22:53:49Z</time></trkpt><trkpt lat="59.1023027245" lon="30.4747886863"><ele>296.22</ele><time>2026-08-20T22:53:50Z</time></trkpt><trkpt lat="59.1023027245" lon="30.4747886863"><ele>296.22</ele><time>2026-08-20T22:53:51Z</time></trkpt><trkpt lat="59.1023027245" lon="30.4747886863"><ele>296.22</ele><time>2026-08-20T22:53:52Z</time></trkpt><trkpt lat="59.1023027245" lon="30.4747886863"><ele>296.22</ele><time>2026-08-20T22:53:53Z</time></trkpt><trkpt lat="59.1023027245" lon="30.4747886863"><ele>296.22</ele><time>2026-08-20T22:53:54Z</time></trkpt><trkpt lat="59.1023027245" lon="30.4747886863"><ele>296.22</ele><time>2026-08-20T22:53:55Z</time></trkpt><trkpt lat="59.1023027245" lon="30.4747886863"><ele>296.22</ele><time>2026-08-20T22:53:56Z</time></trkpt><trkpt lat="59.1023027245" lon="30.4747886863"><ele>296.22</ele><time>2026-08-20T22:53:57Z</time></trkpt><trkpt lat="59.1023027245" lon="30.4747886863"><ele>296.22</ele><time>2026-08-20T22:53:58Z</time></trkpt><trkpt lat="59.1023027245" lon="30.4747886863"><ele>296.22</ele><time>2026-08-20T22:53:59Z</time></trkpt><trkpt lat="59.1023027245" lon="30.4747886863"><ele>296.22</ele><time>2026-08-20T22:54:00Z</time></trkpt><trkpt lat="59.1023027245" lon="30.4747886863"><ele>296.22</ele><time>2026-08-20T22:54:01Z</time></trkpt><trkpt lat="59.1023027245" lon="30.4747886863"><ele>296.22</ele><time>2026-08-20T22:54:02Z</time></trkpt><trkpt lat="59.1023027245" lon="30.4747886863"><ele>296.22</ele><time>2026-08-20T22:54:03Z</time></trkpt><trkpt lat="59.1023027245" lon="30.4747886863"><ele>296.22</ele><time>2026-08-20T22:54:04Z</time></trkpt><trkpt lat="59.1023027245" lon="30.4747886863"><ele>296.22</ele><time>2026-08-20T22:54:05Z</time></trkpt><trkpt lat="59.1023027245" lon="30.4747886863"><ele>296.22</ele><time>2026-08-20T22:54:06Z</time></trkpt><trkpt lat="59.1023027245" lon="30.4747886863"><ele>296.22</ele><time>2026-08-20T22:54:07Z</time></trkpt><trkpt lat="59.1023027245" lon="30.4747886863"><ele>296.22</ele><time>2026-08-20T22:54:08Z</time></trkpt><trkpt lat="59.1023027245" lon="30.4747886863"><ele>296.22</ele><time>2026-08-20T22:54:09Z</time></trkpt><trkpt lat="59.1023027245" lon="30.4747886863"><ele>296.22</ele><time>2026-08-20T22:54:10Z</time></trkpt><trkpt lat="59.1023027245" lon="30.4747886863"><ele>296.22</ele><time>2026-08-20T22:54:11Z</time></trkpt><trkpt lat="59.1023027245" lon="30.4747886863"><ele>296.22</ele><time>2026-08-20T22:54:12Z</time></trkpt><trkpt lat="59.1023027245" lon="30.4747886863"><ele>296.22</ele><time>2026-08-20T22:54:13Z</time></trkpt><trkpt lat="59.1023027245" lon="30.4747886863"><ele>296.22</ele><time>2026-08-20T22:54:14Z</time></trkpt><trkpt lat="59.1023027245" lon="30.4747886863"><ele>296.22</ele><time>2026-08-20T22:54:15Z</time></trkpt><trkpt lat="59.1023027245" lon="30.4747886863"><ele>296.22</ele><time>2026-08-20T22:54:16Z</time></trkpt><trkpt lat="59.1023027245" lon="30.4747886863"><ele>296.22</ele><time>2026-08-20T22:54:17Z</time></trkpt><trkpt lat="59.1023027245" lon="30.4747886863"><ele>296.22</ele><time>2026-08-20T22:54:18Z</time></trkpt><trkpt lat="59.1023027245" lon="30.4747886863"><ele>296.22</ele><time>2026-08-20T22:54:19Z</time></trkpt><trkpt lat="59.1023027245" lon="30.4747886863"><ele>296.22</ele><time>2026-08-20T22:54:20Z</time></trkpt><trkpt lat="59.1023027245" lon="30.4747886863"><ele>296.22</ele><time>2026-08-20T22:54:21Z</time></trkpt><trkpt lat="59.1023027245" lon="30.4747886863"><ele>296.22</ele><time>2026-08-20T22:54:22Z</time></trkpt><trkpt lat="59.1023027245" lon="30.4747886863"><ele>296.22</ele><time>2026-08-20T22:54:23Z</time></trkpt><trkpt lat="59.1023027245" lon="30.4747886863"><ele>296.22</ele><time>2026-08-20T22:54:24Z</time></trkpt><trkpt lat="59.1023027245" lon="30.4747886863"><ele>296.22</ele><time>2026-08-20T22:54:25Z</time></trkpt><trkpt lat="59.1023027245" lon="30.4747886863"><ele>296.22</ele><time>2026-08-20T22:54:26Z</time></trkpt><trkpt lat="59.1023027245" lon="30.4747886863"><ele>296.22</ele><time>2026-08-20T22:54:27Z</time></trkpt><trkpt lat="59.1023027245" lon="30.4747886863"><ele>296.22</ele><time>2026-08-20T22:54:28Z</time></trkpt><trkpt lat="59.1023027245" lon="30.4747886863"><ele>296.22</ele><time>2026-08-20T22:54:29Z</time></trkpt><trkpt lat="59.1023027245" lon="30.4747886863"><ele>296.22</ele><time>2026-08-20T22:54:30Z</time></trkpt><trkpt lat="59.1023027245" lon="30.4747886863"><ele>296.22</ele><time>2026-08-20T22:54:31Z</time></trkpt><trkpt lat="59.1023027245" lon="30.4747886863"><ele>296.22</ele><time>2026-08-20T22:54:32Z</time></trkpt><trkpt lat="59.1023027245" lon="30.4747886863"><ele>296.22</ele><time>2026-08-20T22:54:33Z</time></trkpt><trkpt lat="59.1023027245" lon="30.4747886863"><ele>296.22</ele><time>2026-08-20T22:54:34Z</time></trkpt><trkpt lat="59.1023027245" lon="30.4747886863"><ele>296.22</ele><time>2026-08-20T22:54:35Z</time></trkpt><trkpt lat="59.1023027245" lon="30.4747886863"><ele>296.22</ele><time>2026-08-20T22:54:36Z</time></trkpt><trkpt lat="59.1023027245" lon="30.4747886863"><ele>296.22</ele><time>2026-08-20T22:54:37Z</time></trkpt><trkpt lat="59.1023027245" lon="30.4747886863"><ele>296.22</ele><time>2026-08-20T22:54:38Z</time></trkpt><trkpt lat="59.1023027245" lon="30.4747886863"><ele>296.22</ele><time>2026-08-20T22:54:39Z</time></trkpt><trkpt lat="59.1023027245" lon="30.4747886863"><ele>296.22</ele><time>2026-08-20T22:54:40Z</time></trkpt><trkpt lat="59.1023027245" lon="30.4747886863"><ele>296.22</ele><time>2026-08-20T22:54:41Z</time></trkpt><trkpt lat="59.1023027245" lon="30.4747886863"><ele>296.22</ele><time>2026-08-20T22:54:42Z</time></trkpt><trkpt lat="59.1023027245" lon="30.4747886863"><ele>296.22</ele><time>2026-08-20T22:54:43Z</time></trkpt><trkpt lat="59.1023027245" lon="30.4747886863"><ele>296.22</ele><time>2026-08-20T22:54:44Z</time></trkpt><trkpt lat="59.1023027245" lon="30.4747886863"><ele>296.22</ele><time>2026-08-20T22:54:45Z</time></trkpt><trkpt lat="59.1023027245" lon="30.4747886863"><ele>296.22</ele><time>2026-08-20T22:54:46Z</time></trkpt><trkpt lat="59.1023027245" lon="30.4747886863"><ele>296.22</ele><time>2026-08-20T22:54:47Z</time></trkpt><trkpt lat="59.1023027245" lon="30.4747886863"><ele>296.22</ele><time>2026-08-20T22:54:48Z</time></trkpt><trkpt lat="59.1023027245" lon="30.4747886863"><ele>296.22</ele><time>2026-08-20T22:54:49Z</time></trkpt><trkpt lat="59.1023027245" lon="30.4747886863"><ele>296.22</ele><time>2026-08-20T22:54:50Z</time></trkpt><trkpt lat="59.1023027245" lon="30.4747886863"><ele>296.22</ele><time>2026-08-20T22:54:51Z</time></trkpt><trkpt lat="59.1023027245" lon="30.4747886863"><ele>296.22</ele><time>2026-08-20T22:54:52Z</time></trkpt><trkpt lat="59.1023027245" lon="30.4747886863"><ele>296.22</ele><time>2026-08-20T22:54:53Z</time></trkpt><trkpt lat="59.1023027245" lon="30.4747886863"><ele>296.22</ele><time>2026-08-20T22:54:54Z</time></trkpt><trkpt lat="59.1023027245" lon="30.4747886863"><ele>296.22</ele><time>2026-08-20T22:54:55Z</time></trkpt><trkpt lat="59.1023027245" lon="30.4747886863"><ele>296.22</ele><time>2026-08-20T22:54:56Z</time></trkpt><trkpt lat="59.1023027245" lon="30.4747886863"><ele>296.22</ele><time>2026-08-20T22:54:57Z</time></trkpt><trkpt lat="59.1023027245" lon="30.4747886863"><ele>296.22</ele><time>2026-08-20T22:54:58Z</time></trkpt><trkpt lat="59.1023027245" lon="30.4747886863"><ele>296.22</ele><time>2026-08-20T22:54:59Z</time></trkpt><trkpt lat="59.1023027245" lon="30.4747886863"><ele>296.22</ele><time>2026-08-20T22:55:00Z</time></trkpt><trkpt lat="59.1023027245" lon="30.4747886863"><ele>296.22</ele><time>2026-08-20T22:55:01Z</time></trkpt><trkpt lat="59.1023027245" lon="30.4747886863"><ele>296.22</ele><time>2026-08-20T22:55:02Z</time></trkpt><trkpt lat="59.1023027245" lon="30.4747886863"><ele>296.22</ele><time>2026-08-20T22:55:03Z</time></trkpt><trkpt lat="59.1023027245" lon="30.4747886863"><ele>296.22</ele><time>2026-08-20T22:55:04Z</time></trkpt><trkpt lat="59.1023027245" lon="30.4747886863"><ele>296.22</ele><time>2026-08-20T22:55:05Z</time></trkpt><trkpt lat="59.1023027245" lon="30.4747886863"><ele>296.22</ele><time>2026-08-20T22:55:06Z</time></trkpt><trkpt lat="59.1023027245" lon="30.4747886863"><ele>296.22</ele><time>2026-08-20T22:55:07Z</time></trkpt><trkpt lat="59.1023027245" lon="30.4747886863"><ele>296.22</ele><time>2026-08-20T22:55:08Z</time></trkpt><trkpt lat="59.1023027245" lon="30.4747886863"><ele>296.22</ele><time>2026-08-20T22:55:09Z</time></trkpt><trkpt lat="59.1023027245" lon="30.4747886863"><ele>296.22</ele><time>2026-08-20T22:55:10Z</time></trkpt><trkpt lat="59.1023027245" lon="30.4747886863"><ele>296.22</ele><time>2026-08-20T22:55:11Z</time></trkpt><trkpt lat="59.1023027245" lon="30.4747886863"><ele>296.22</ele><time>2026-08-20T22:55:12Z</time></trkpt><trkpt lat="59.1023027245" lon="30.4747886863"><ele>296.22</ele><time>2026-08-20T22:55:13Z</time></trkpt><trkpt lat="59.1023027245" lon="30.4747886863"><ele>296.22</ele><time>2026-08-20T22:55:14Z</time></trkpt><trkpt lat="59.1023027245" lon="30.4747886863"><ele>296.22</ele><time>2026-08-20T22:55:15Z</time></trkpt><trkpt lat="59.1023027245" lon="30.4747886863"><ele>296.22</ele><time>2026-08-20T22:55:16Z</time></trkpt><trkpt lat="59.1023027245" lon="30.4747886863"><ele>296.22</ele><time>2026-08-20T22:55:17Z</time></trkpt><trkpt lat="59.1023027245" lon="30.4747886863"><ele>296.22</ele><time>2026-08-20T22:55:18Z</time></trkpt><trkpt lat="59.1023027245" lon="30.4747886863"><ele>296.22</ele><time>2026-08-20T22:55:19Z</time></trkpt><trkpt lat="59.1023027245" lon="30.4747886863"><ele>296.22</ele><time>2026-08-20T22:55:20Z</time></trkpt><trkpt lat="59.1023027245" lon="30.4747886863"><ele>296.22</ele><time>2026-08-20T22:55:21Z</time></trkpt><trkpt lat="59.1023027245" lon="30.4747886863"><ele>296.22</ele><time>2026-08-20T22:55:22Z</time></trkpt><trkpt lat="59.1023027245" lon="30.4747886863"><ele>296.22</ele><time>2026-08-20T22:55:23Z</time></trkpt><trkpt lat="59.1023027245" lon="30.4747886863"><ele>296.22</ele><time>2026-08-20T22:55:24Z</time></trkpt><trkpt lat="59.1023027245" lon="30.4747886863"><ele>296.22</ele><time>2026-08-20T22:55:25Z</time></trkpt><trkpt lat="59.1023027245" lon="30.4747886863"><ele>296.22</ele><time>2026-08-20T22:55:26Z</time></trkpt><trkpt lat="59.1023027245" lon="30.4747886863"><ele>296.22</ele><time>2026-08-20T22:55:27Z</time></trkpt><trkpt lat="59.1023027245" lon="30.4747886863"><ele>296.22</ele><time>2026-08-20T22:55:28Z</time></trkpt><trkpt lat="59.1023027245" lon="30.4747886863"><ele>296.22</ele><time>2026-08-20T22:55:29Z</time></trkpt><trkpt lat="59.1023027245" lon="30.4747886863"><ele>296.22</ele><time>2026-08-20T22:55:30Z</time></trkpt><trkpt lat="59.1023027245" lon="30.4747886863"><ele>296.22</ele><time>2026-08-20T22:55:31Z</time></trkpt><trkpt lat="59.1023027245" lon="30.4747886863"><ele>296.22</ele><time>2026-08-20T22:55:32Z</time></trkpt><trkpt lat="59.1023027245" lon="30.4747886863"><ele>296.22</ele><time>2026-08-20T22:55:33Z</time></trkpt><trkpt lat="59.1023027245" lon="30.4747886863"><ele>296.22</ele><time>2026-08-20T22:55:34Z</time></trkpt><trkpt lat="59.1023027245" lon="30.4747886863"><ele>296.22</ele><time>2026-08-20T22:55:35Z</time></trkpt><trkpt lat="59.1023099329" lon="30.4748531431"><ele>296.22</ele><time>2026-08-20T22:55:36Z</time></trkpt><trkpt lat="59.1023121960" lon="30.4748407379"><ele>296.22</ele><time>2026-08-20T22:55:37Z</time></trkpt><trkpt lat="59.1023124475" lon="30.4748298414"><ele>296.22</ele><time>2026-08-20T22:55:38Z</time></trkpt><trkpt lat="59.1023116931" lon="30.4748196993"><ele>296.22</ele><time>2026-08-20T22:55:39Z</time></trkpt><trkpt lat="59.1023086756" lon="30.4748060368"><ele>296.22</ele><time>2026-08-20T22:55:40Z</time></trkpt><trkpt lat="59.1023062449" lon="30.4747911170"><ele>296.22</ele><time>2026-08-20T22:55:41Z</time></trkpt><trkpt lat="59.1023067478" lon="30.4747777898"><ele>296.22</ele><time>2026-08-20T22:55:42Z</time></trkpt><trkpt lat="59.1023063287" lon="30.4747632891"><ele>296.22</ele><time>2026-08-20T22:55:43Z</time></trkpt><trkpt lat="59.1023032274" lon="30.4747468606"><ele>296.22</ele><time>2026-08-20T22:55:44Z</time></trkpt><trkpt lat="59.1023004614" lon="30.4747337848"><ele>296.22</ele><time>2026-08-20T22:55:45Z</time></trkpt><trkpt lat="59.1022992879" lon="30.4747192841"><ele>296.22</ele><time>2026-08-20T22:55:46Z</time></trkpt><trkpt lat="59.1022962704" lon="30.4747031908"><ele>296.22</ele><time>2026-08-20T22:55:47Z</time></trkpt><trkpt lat="59.1022977792" lon="30.4746864270"><ele>296.22</ele><time>2026-08-20T22:55:48Z</time></trkpt><trkpt lat="59.1022955999" lon="30.4746713396"><ele>296.22</ele><time>2026-08-20T22:55:49Z</time></trkpt><trkpt lat="59.1022912413" lon="30.4746572580"><ele>296.22</ele><time>2026-08-20T22:55:50Z</time></trkpt><trkpt lat="59.1022857931" lon="30.4746471997"><ele>296.22</ele><time>2026-08-20T22:55:51Z</time></trkpt><trkpt lat="59.1022800934" lon="30.4746362194"><ele>296.22</ele><time>2026-08-20T22:55:52Z</time></trkpt><trkpt lat="59.1022789199" lon="30.4746114928"><ele>296.22</ele><time>2026-08-20T22:55:53Z</time></trkpt><trkpt lat="59.1022813506" lon="30.4745974950"><ele>296.22</ele><time>2026-08-20T22:55:54Z</time></trkpt><trkpt lat="59.1022792552" lon="30.4745835811"><ele>296.22</ele><time>2026-08-20T22:55:55Z</time></trkpt><trkpt lat="59.1022791713" lon="30.4745732713"><ele>296.22</ele><time>2026-08-20T22:55:56Z</time></trkpt><trkpt lat="59.1022780817" lon="30.4745667335"><ele>296.22</ele><time>2026-08-20T22:55:57Z</time></trkpt><trkpt lat="59.1022739746" lon="30.4745601956"><ele>296.22</ele><time>2026-08-20T22:55:58Z</time></trkpt><trkpt lat="59.1022739746" lon="30.4745601956"><ele>296.22</ele><time>2026-08-20T22:55:59Z</time></trkpt><trkpt lat="59.1022739746" lon="30.4745601956"><ele>296.22</ele><time>2026-08-20T22:56:00Z</time></trkpt><trkpt lat="59.1022739746" lon="30.4745601956"><ele>296.22</ele><time>2026-08-20T22:56:01Z</time></trkpt><trkpt lat="59.1022693645" lon="30.4745433480"><ele>296.22</ele><time>2026-08-20T22:56:02Z</time></trkpt><trkpt lat="59.1022668499" lon="30.4745361395"><ele>296.22</ele><time>2026-08-20T22:56:03Z</time></trkpt><trkpt lat="59.1022667661" lon="30.4745255783"><ele>296.22</ele><time>2026-08-20T22:56:04Z</time></trkpt><trkpt lat="59.1022642516" lon="30.4745145980"><ele>296.22</ele><time>2026-08-20T22:56:05Z</time></trkpt><trkpt lat="59.1022621561" lon="30.4745014384"><ele>296.22</ele><time>2026-08-20T22:56:06Z</time></trkpt><trkpt lat="59.1022599768" lon="30.4744980857"><ele>296.22</ele><time>2026-08-20T22:56:07Z</time></trkpt><trkpt lat="59.1022578813" lon="30.4744935594"><ele>296.22</ele><time>2026-08-20T22:56:08Z</time></trkpt><trkpt lat="59.1022545286" lon="30.4744889494"><ele>296.22</ele><time>2026-08-20T22:56:09Z</time></trkpt><trkpt lat="59.1022545286" lon="30.4744889494"><ele>296.22</ele><time>2026-08-20T22:56:10Z</time></trkpt><trkpt lat="59.1022545286" lon="30.4744889494"><ele>296.22</ele><time>2026-08-20T22:56:11Z</time></trkpt><trkpt lat="59.1022545286" lon="30.4744889494"><ele>296.22</ele><time>2026-08-20T22:56:12Z</time></trkpt><trkpt lat="59.1022545286" lon="30.4744889494"><ele>296.22</ele><time>2026-08-20T22:56:13Z</time></trkpt><trkpt lat="59.1022545286" lon="30.4744889494"><ele>296.22</ele><time>2026-08-20T22:56:14Z</time></trkpt><trkpt lat="59.1022545286" lon="30.4744889494"><ele>296.22</ele><time>2026-08-20T22:56:15Z</time></trkpt><trkpt lat="59.1022545286" lon="30.4744889494"><ele>296.22</ele><time>2026-08-20T22:56:16Z</time></trkpt><trkpt lat="59.1022617370" lon="30.4744535778"><ele>296.22</ele><time>2026-08-20T22:56:17Z</time></trkpt><trkpt lat="59.1022628266" lon="30.4744435195"><ele>296.22</ele><time>2026-08-20T22:56:18Z</time></trkpt><trkpt lat="59.1022610664" lon="30.4744352214"><ele>296.22</ele><time>2026-08-20T22:56:19Z</time></trkpt><trkpt lat="59.1022540256" lon="30.4744311981"><ele>296.22</ele><time>2026-08-20T22:56:20Z</time></trkpt><trkpt lat="59.1022504214" lon="30.4744218942"><ele>296.22</ele><time>2026-08-20T22:56:21Z</time></trkpt><trkpt lat="59.1022485774" lon="30.4744145181"><ele>296.22</ele><time>2026-08-20T22:56:22Z</time></trkpt><trkpt lat="59.1022449732" lon="30.4744043760"><ele>296.22</ele><time>2026-08-20T22:56:23Z</time></trkpt><trkpt lat="59.1022424586" lon="30.4743926413"><ele>296.22</ele><time>2026-08-20T22:56:24Z</time></trkpt><trkpt lat="59.1022404470" lon="30.4743798170"><ele>296.22</ele><time>2026-08-20T22:56:25Z</time></trkpt><trkpt lat="59.1022372618" lon="30.4743653163"><ele>296.22</ele><time>2026-08-20T22:56:26Z</time></trkpt><trkpt lat="59.1022350825" lon="30.4743507318"><ele>296.22</ele><time>2026-08-20T22:56:27Z</time></trkpt><trkpt lat="59.1022298858" lon="30.4743230715"><ele>296.22</ele><time>2026-08-20T22:56:28Z</time></trkpt><trkpt lat="59.1022273712" lon="30.4742957465"><ele>296.22</ele><time>2026-08-20T22:56:29Z</time></trkpt><trkpt lat="59.1022265330" lon="30.4742747918"><ele>296.22</ele><time>2026-08-20T22:56:30Z</time></trkpt><trkpt lat="59.1022279579" lon="30.4742558487"><ele>296.22</ele><time>2026-08-20T22:56:31Z</time></trkpt><trkpt lat="59.1022286285" lon="30.4742357321"><ele>296.22</ele><time>2026-08-20T22:56:32Z</time></trkpt><trkpt lat="59.1022277903" lon="30.4742153641"><ele>296.22</ele><time>2026-08-20T22:56:33Z</time></trkpt><trkpt lat="59.1022321489" lon="30.4741898831"><ele>296.22</ele><time>2026-08-20T22:56:34Z</time></trkpt><trkpt lat="59.1022329871" lon="30.4741729517"><ele>296.22</ele><time>2026-08-20T22:56:35Z</time></trkpt><trkpt lat="59.1022355855" lon="30.4741525836"><ele>296.22</ele><time>2026-08-20T22:56:36Z</time></trkpt><trkpt lat="59.1022312269" lon="30.4741374962"><ele>296.22</ele><time>2026-08-20T22:56:37Z</time></trkpt><trkpt lat="59.1022171453" lon="30.4741313774"><ele>296.22</ele><time>2026-08-20T22:56:38Z</time></trkpt><trkpt lat="59.1022078414" lon="30.4741121829"><ele>296.22</ele><time>2026-08-20T22:56:39Z</time></trkpt><trkpt lat="59.1021992918" lon="30.4740900546"><ele>296.22</ele><time>2026-08-20T22:56:40Z</time></trkpt><trkpt lat="59.1021919996" lon="30.4740700219"><ele>296.22</ele><time>2026-08-20T22:56:41Z</time></trkpt><trkpt lat="59.1021838691" lon="30.4740481451"><ele>296.22</ele><time>2026-08-20T22:56:42Z</time></trkpt><trkpt lat="59.1021766607" lon="30.4740355723"><ele>296.22</ele><time>2026-08-20T22:56:43Z</time></trkpt><trkpt lat="59.1021724697" lon="30.4740188923"><ele>296.22</ele><time>2026-08-20T22:56:44Z</time></trkpt><trkpt lat="59.1021683626" lon="30.4739980213"><ele>296.22</ele><time>2026-08-20T22:56:45Z</time></trkpt><trkpt lat="59.1021581367" lon="30.4739683494"><ele>296.22</ele><time>2026-08-20T22:56:46Z</time></trkpt><trkpt lat="59.1021500900" lon="30.4739441257"><ele>296.22</ele><time>2026-08-20T22:56:47Z</time></trkpt><trkpt lat="59.1021434683" lon="30.4739286192"><ele>296.22</ele><time>2026-08-20T22:56:48Z</time></trkpt><trkpt lat="59.1021375172" lon="30.4739129450"><ele>296.22</ele><time>2026-08-20T22:56:49Z</time></trkpt><trkpt lat="59.1021383554" lon="30.4738996178"><ele>296.22</ele><time>2026-08-20T22:56:50Z</time></trkpt><trkpt lat="59.1021377686" lon="30.4738752265"><ele>295.74</ele><time>2026-08-20T22:56:51Z</time></trkpt><trkpt lat="59.1021396965" lon="30.4738573730"><ele>295.74</ele><time>2026-08-20T22:56:52Z</time></trkpt><trkpt lat="59.1021371819" lon="30.4738340713"><ele>295.74</ele><time>2026-08-20T22:56:53Z</time></trkpt><trkpt lat="59.1021363437" lon="30.4738181457"><ele>295.74</ele><time>2026-08-20T22:56:54Z</time></trkpt><trkpt lat="59.1021356732" lon="30.4737943411"><ele>295.74</ele><time>2026-08-20T22:56:55Z</time></trkpt><trkpt lat="59.1021342482" lon="30.4737797566"><ele>295.74</ele><time>2026-08-20T22:56:56Z</time></trkpt><trkpt lat="59.1021307278" lon="30.4737638310"><ele>295.74</ele><time>2026-08-20T22:56:57Z</time></trkpt><trkpt lat="59.1021280456" lon="30.4737462290"><ele>295.74</ele><time>2026-08-20T22:56:58Z</time></trkpt><trkpt lat="59.1021242738" lon="30.4737307224"><ele>295.74</ele><time>2026-08-20T22:56:59Z</time></trkpt><trkpt lat="59.1021208372" lon="30.4737124499"><ele>295.74</ele><time>2026-08-20T22:57:00Z</time></trkpt><trkpt lat="59.1021183226" lon="30.4736945964"><ele>295.74</ele><time>2026-08-20T22:57:01Z</time></trkpt><trkpt lat="59.1021182388" lon="30.4736767430"><ele>295.74</ele><time>2026-08-20T22:57:02Z</time></trkpt><trkpt lat="59.1021200828" lon="30.4736583866"><ele>295.74</ele><time>2026-08-20T22:57:03Z</time></trkpt><trkpt lat="59.1021191608" lon="30.4736434668"><ele>295.74</ele><time>2026-08-20T22:57:04Z</time></trkpt><trkpt lat="59.1021166462" lon="30.4736262839"><ele>295.74</ele><time>2026-08-20T22:57:05Z</time></trkpt><trkpt lat="59.1021151375" lon="30.4736124538"><ele>295.74</ele><time>2026-08-20T22:57:06Z</time></trkpt><trkpt lat="59.1021110304" lon="30.4735981207"><ele>295.74</ele><time>2026-08-20T22:57:07Z</time></trkpt><trkpt lat="59.1021046601" lon="30.4735791776"><ele>295.74</ele><time>2026-08-20T22:57:08Z</time></trkpt><trkpt lat="59.1020987928" lon="30.4735611565"><ele>295.74</ele><time>2026-08-20T22:57:09Z</time></trkpt><trkpt lat="59.1020900756" lon="30.4735415429"><ele>295.74</ele><time>2026-08-20T22:57:10Z</time></trkpt><trkpt lat="59.1020845436" lon="30.4735249467"><ele>295.74</ele><time>2026-08-20T22:57:11Z</time></trkpt><trkpt lat="59.1020795982" lon="30.4735080991"><ele>295.74</ele><time>2026-08-20T22:57:12Z</time></trkpt><trkpt lat="59.1020743176" lon="30.4734892398"><ele>295.74</ele><time>2026-08-20T22:57:13Z</time></trkpt><trkpt lat="59.1020709649" lon="30.4734704643"><ele>295.74</ele><time>2026-08-20T22:57:14Z</time></trkpt><trkpt lat="59.1020685341" lon="30.4734562989"><ele>295.74</ele><time>2026-08-20T22:57:15Z</time></trkpt><trkpt lat="59.1020620801" lon="30.4734391998"><ele>295.74</ele><time>2026-08-20T22:57:16Z</time></trkpt><trkpt lat="59.1020556260" lon="30.4734229390"><ele>295.74</ele><time>2026-08-20T22:57:17Z</time></trkpt><trkpt lat="59.1020481661" lon="30.4733990505"><ele>295.74</ele><time>2026-08-20T22:57:18Z</time></trkpt><trkpt lat="59.1020428855" lon="30.4733803589"><ele>295.74</ele><time>2026-08-20T22:57:19Z</time></trkpt><trkpt lat="59.1020379402" lon="30.4733653553"><ele>295.74</ele><time>2026-08-20T22:57:20Z</time></trkpt><trkpt lat="59.1020381916" lon="30.4733505193"><ele>295.74</ele><time>2026-08-20T22:57:21Z</time></trkpt><trkpt lat="59.1020341683" lon="30.4733345937"><ele>295.74</ele><time>2026-08-20T22:57:22Z</time></trkpt><trkpt lat="59.1020297259" lon="30.4733207636"><ele>295.74</ele><time>2026-08-20T22:57:23Z</time></trkpt><trkpt lat="59.1020243615" lon="30.4733033292"><ele>295.74</ele><time>2026-08-20T22:57:24Z</time></trkpt><trkpt lat="59.1020127945" lon="30.4732760880"><ele>295.74</ele><time>2026-08-20T22:57:25Z</time></trkpt><trkpt lat="59.1020097770" lon="30.4732605815"><ele>295.74</ele><time>2026-08-20T22:57:26Z</time></trkpt><trkpt lat="59.1020133812" lon="30.4732473381"><ele>295.74</ele><time>2026-08-20T22:57:27Z</time></trkpt><trkpt lat="59.1020112857" lon="30.4732336756"><ele>295.74</ele><time>2026-08-20T22:57:28Z</time></trkpt><trkpt lat="59.1020063404" lon="30.4732155707"><ele>295.74</ele><time>2026-08-20T22:57:29Z</time></trkpt><trkpt lat="59.1020042449" lon="30.4732050933"><ele>295.74</ele><time>2026-08-20T22:57:30Z</time></trkpt><trkpt lat="59.1019981261" lon="30.4731953703"><ele>295.74</ele><time>2026-08-20T22:57:31Z</time></trkpt><trkpt lat="59.1019954439" lon="30.4731861502"><ele>295.74</ele><time>2026-08-20T22:57:32Z</time></trkpt><trkpt lat="59.1019943543" lon="30.4731777683"><ele>295.74</ele><time>2026-08-20T22:57:33Z</time></trkpt><trkpt lat="59.1019918397" lon="30.4731641896"><ele>295.74</ele><time>2026-08-20T22:57:34Z</time></trkpt><trkpt lat="59.1019898281" lon="30.4731499404"><ele>295.74</ele><time>2026-08-20T22:57:35Z</time></trkpt><trkpt lat="59.1019821167" lon="30.4731332604"><ele>295.74</ele><time>2026-08-20T22:57:36Z</time></trkpt><trkpt lat="59.1019816976" lon="30.4731178377"><ele>295.74</ele><time>2026-08-20T22:57:37Z</time></trkpt><trkpt lat="59.1019785963" lon="30.4731002357"><ele>295.74</ele><time>2026-08-20T22:57:38Z</time></trkpt><trkpt lat="59.1019768361" lon="30.4730892554"><ele>295.74</ele><time>2026-08-20T22:57:39Z</time></trkpt><trkpt lat="59.1019754950" lon="30.4730729945"><ele>295.74</ele><time>2026-08-20T22:57:40Z</time></trkpt><trkpt lat="59.1019751597" lon="30.4730596673"><ele>295.74</ele><time>2026-08-20T22:57:41Z</time></trkpt><trkpt lat="59.1019733995" lon="30.4730427358"><ele>295.74</ele><time>2026-08-20T22:57:42Z</time></trkpt><trkpt lat="59.1019752435" lon="30.4730244633"><ele>295.74</ele><time>2026-08-20T22:57:43Z</time></trkpt><trkpt lat="59.1019738186" lon="30.4730067775"><ele>295.74</ele><time>2026-08-20T22:57:44Z</time></trkpt><trkpt lat="59.1019723937" lon="30.4729856551"><ele>295.74</ele><time>2026-08-20T22:57:45Z</time></trkpt><trkpt lat="59.1019702982" lon="30.4729718249"><ele>295.74</ele><time>2026-08-20T22:57:46Z</time></trkpt><trkpt lat="59.1019683704" lon="30.4729677178"><ele>295.74</ele><time>2026-08-20T22:57:47Z</time></trkpt><trkpt lat="59.1019663587" lon="30.4729573242"><ele>295.74</ele><time>2026-08-20T22:57:48Z</time></trkpt><trkpt lat="59.1019663587" lon="30.4729573242"><ele>295.74</ele><time>2026-08-20T22:57:49Z</time></trkpt><trkpt lat="59.1019663587" lon="30.4729573242"><ele>295.74</ele><time>2026-08-20T22:57:50Z</time></trkpt><trkpt lat="59.1019666940" lon="30.4729420692"><ele>295.74</ele><time>2026-08-20T22:57:51Z</time></trkpt><trkpt lat="59.1019680351" lon="30.4729304183"><ele>295.74</ele><time>2026-08-20T22:57:52Z</time></trkpt><trkpt lat="59.1019700468" lon="30.4729203600"><ele>295.74</ele><time>2026-08-20T22:57:53Z</time></trkpt><trkpt lat="59.1019716393" lon="30.4729083739"><ele>295.74</ele><time>2026-08-20T22:57:54Z</time></trkpt><trkpt lat="59.1019723937" lon="30.4728991538"><ele>295.74</ele><time>2026-08-20T22:57:55Z</time></trkpt><trkpt lat="59.1019721422" lon="30.4728890955"><ele>295.74</ele><time>2026-08-20T22:57:56Z</time></trkpt><trkpt lat="59.1019714717" lon="30.4728780314"><ele>295.74</ele><time>2026-08-20T22:57:57Z</time></trkpt><trkpt lat="59.1019729804" lon="30.4728678893"><ele>295.74</ele><time>2026-08-20T22:57:58Z</time></trkpt><trkpt lat="59.1019742377" lon="30.4728523828"><ele>295.74</ele><time>2026-08-20T22:57:59Z</time></trkpt><trkpt lat="59.1019764170" lon="30.4728382174"><ele>295.74</ele><time>2026-08-20T22:58:00Z</time></trkpt><trkpt lat="59.1019782610" lon="30.4728257284"><ele>295.26</ele><time>2026-08-20T22:58:01Z</time></trkpt><trkpt lat="59.1019812785" lon="30.4728123173"><ele>295.74</ele><time>2026-08-20T22:58:02Z</time></trkpt><trkpt lat="59.1019842960" lon="30.4727926198"><ele>295.74</ele><time>2026-08-20T22:58:03Z</time></trkpt><trkpt lat="59.1019863915" lon="30.4727727547"><ele>295.74</ele><time>2026-08-20T22:58:04Z</time></trkpt><trkpt lat="59.1019863915" lon="30.4727521352"><ele>295.74</ele><time>2026-08-20T22:58:05Z</time></trkpt><trkpt lat="59.1019856371" lon="30.4727324378"><ele>295.74</ele><time>2026-08-20T22:58:06Z</time></trkpt><trkpt lat="59.1019860562" lon="30.4727137461"><ele>295.74</ele><time>2026-08-20T22:58:07Z</time></trkpt><trkpt lat="59.1019841284" lon="30.4726972338"><ele>295.74</ele><time>2026-08-20T22:58:08Z</time></trkpt><trkpt lat="59.1019826196" lon="30.4726781230"><ele>295.74</ele><time>2026-08-20T22:58:09Z</time></trkpt><trkpt lat="59.1019820329" lon="30.4726596829"><ele>295.74</ele><time>2026-08-20T22:58:10Z</time></trkpt><trkpt lat="59.1019779257" lon="30.4726371355"><ele>295.74</ele><time>2026-08-20T22:58:11Z</time></trkpt><trkpt lat="59.1019793507" lon="30.4726126604"><ele>295.74</ele><time>2026-08-20T22:58:12Z</time></trkpt><trkpt lat="59.1019803565" lon="30.4725893587"><ele>295.74</ele><time>2026-08-20T22:58:13Z</time></trkpt><trkpt lat="59.1019785963" lon="30.4725721758"><ele>295.74</ele><time>2026-08-20T22:58:14Z</time></trkpt><trkpt lat="59.1019762494" lon="30.4725581780"><ele>295.74</ele><time>2026-08-20T22:58:15Z</time></trkpt><trkpt lat="59.1019753274" lon="30.4725482874"><ele>295.74</ele><time>2026-08-20T22:58:16Z</time></trkpt><trkpt lat="59.1019699629" lon="30.4725326970"><ele>296.22</ele><time>2026-08-20T22:58:17Z</time></trkpt><trkpt lat="59.1019738186" lon="30.4725400731"><ele>296.22</ele><time>2026-08-20T22:58:18Z</time></trkpt><trkpt lat="59.1019738186" lon="30.4725400731"><ele>296.22</ele><time>2026-08-20T22:58:19Z</time></trkpt><trkpt lat="59.1019738186" lon="30.4725400731"><ele>296.22</ele><time>2026-08-20T22:58:20Z</time></trkpt><trkpt lat="59.1019738186" lon="30.4725400731"><ele>296.22</ele><time>2026-08-20T22:58:21Z</time></trkpt><trkpt lat="59.1019738186" lon="30.4725400731"><ele>296.22</ele><time>2026-08-20T22:58:22Z</time></trkpt><trkpt lat="59.1019738186" lon="30.4725400731"><ele>296.22</ele><time>2026-08-20T22:58:23Z</time></trkpt><trkpt lat="59.1019738186" lon="30.4725400731"><ele>296.22</ele><time>2026-08-20T22:58:24Z</time></trkpt><trkpt lat="59.1019738186" lon="30.4725400731"><ele>296.22</ele><time>2026-08-20T22:58:25Z</time></trkpt><trkpt lat="59.1019738186" lon="30.4725400731"><ele>296.22</ele><time>2026-08-20T22:58:26Z</time></trkpt><trkpt lat="59.1019738186" lon="30.4725400731"><ele>296.22</ele><time>2026-08-20T22:58:27Z</time></trkpt><trkpt lat="59.1019738186" lon="30.4725400731"><ele>296.22</ele><time>2026-08-20T22:58:28Z</time></trkpt><trkpt lat="59.1019584797" lon="30.4724895302"><ele>295.74</ele><time>2026-08-20T22:58:29Z</time></trkpt><trkpt lat="59.1019559652" lon="30.4724725988"><ele>295.74</ele><time>2026-08-20T22:58:30Z</time></trkpt><trkpt lat="59.1019514389" lon="30.4724532366"><ele>295.74</ele><time>2026-08-20T22:58:31Z</time></trkpt><trkpt lat="59.1019458231" lon="30.4724322818"><ele>295.74</ele><time>2026-08-20T22:58:32Z</time></trkpt><trkpt lat="59.1019402910" lon="30.4724084772"><ele>295.74</ele><time>2026-08-20T22:58:33Z</time></trkpt><trkpt lat="59.1019354295" lon="30.4723855946"><ele>295.74</ele><time>2026-08-20T22:58:34Z</time></trkpt><trkpt lat="59.1019300651" lon="30.4723631311"><ele>296.22</ele><time>2026-08-20T22:58:35Z</time></trkpt><trkpt lat="59.1019265447" lon="30.4723391589"><ele>296.22</ele><time>2026-08-20T22:58:36Z</time></trkpt><trkpt lat="59.1019226890" lon="30.4723192938"><ele>296.22</ele><time>2026-08-20T22:58:37Z</time></trkpt><trkpt lat="59.1019177437" lon="30.4722971655"><ele>296.22</ele><time>2026-08-20T22:58:38Z</time></trkpt><trkpt lat="59.1019105352" lon="30.4722771328"><ele>296.22</ele><time>2026-08-20T22:58:39Z</time></trkpt><trkpt lat="59.1019038297" lon="30.4722600337"><ele>296.22</ele><time>2026-08-20T22:58:40Z</time></trkpt><trkpt lat="59.1018950287" lon="30.4722422641"><ele>296.22</ele><time>2026-08-20T22:58:41Z</time></trkpt><trkpt lat="59.1018881556" lon="30.4722236563"><ele>296.22</ele><time>2026-08-20T22:58:42Z</time></trkpt><trkpt lat="59.1018860601" lon="30.4722063895"><ele>296.22</ele><time>2026-08-20T22:58:43Z</time></trkpt><trkpt lat="59.1018835455" lon="30.4721894581"><ele>296.22</ele><time>2026-08-20T22:58:44Z</time></trkpt><trkpt lat="59.1018823721" lon="30.4721710179"><ele>296.22</ele><time>2026-08-20T22:58:45Z</time></trkpt><trkpt lat="59.1018807795" lon="30.4721564334"><ele>296.22</ele><time>2026-08-20T22:58:46Z</time></trkpt><trkpt lat="59.1018798575" lon="30.4721620493"><ele>296.22</ele><time>2026-08-20T22:58:47Z</time></trkpt><trkpt lat="59.1018806957" lon="30.4721524939"><ele>295.74</ele><time>2026-08-20T22:58:48Z</time></trkpt><trkpt lat="59.1018806957" lon="30.4721423518"><ele>295.74</ele><time>2026-08-20T22:58:49Z</time></trkpt><trkpt lat="59.1018787678" lon="30.4721278511"><ele>295.74</ele><time>2026-08-20T22:58:50Z</time></trkpt><trkpt lat="59.1018790193" lon="30.4721145239"><ele>295.74</ele><time>2026-08-20T22:58:51Z</time></trkpt><trkpt lat="59.1018778458" lon="30.4720959999"><ele>295.74</ele><time>2026-08-20T22:58:52Z</time></trkpt><trkpt lat="59.1018796898" lon="30.4720758833"><ele>295.74</ele><time>2026-08-20T22:58:53Z</time></trkpt><trkpt lat="59.1018793546" lon="30.4720571917"><ele>295.74</ele><time>2026-08-20T22:58:54Z</time></trkpt><trkpt lat="59.1018775944" lon="30.4720374942"><ele>295.74</ele><time>2026-08-20T22:58:55Z</time></trkpt><trkpt lat="59.1018745769" lon="30.4720137734"><ele>295.74</ele><time>2026-08-20T22:58:56Z</time></trkpt><trkpt lat="59.1018718947" lon="30.4719945788"><ele>295.74</ele><time>2026-08-20T22:58:57Z</time></trkpt><trkpt lat="59.1018693801" lon="30.4719785694"><ele>295.74</ele><time>2026-08-20T22:58:58Z</time></trkpt><trkpt lat="59.1018683743" lon="30.4719604645"><ele>295.74</ele><time>2026-08-20T22:58:59Z</time></trkpt><trkpt lat="59.1018642671" lon="30.4719461314"><ele>295.74</ele><time>2026-08-20T22:59:00Z</time></trkpt><trkpt lat="59.1018596571" lon="30.4719339777"><ele>295.74</ele><time>2026-08-20T22:59:01Z</time></trkpt><trkpt lat="59.1018512752" lon="30.4719121847"><ele>295.74</ele><time>2026-08-20T22:59:02Z</time></trkpt><trkpt lat="59.1018410493" lon="30.4718913976"><ele>295.74</ele><time>2026-08-20T22:59:03Z</time></trkpt><trkpt lat="59.1018341761" lon="30.4718797468"><ele>296.22</ele><time>2026-08-20T22:59:04Z</time></trkpt><trkpt lat="59.1018297337" lon="30.4718720354"><ele>296.22</ele><time>2026-08-20T22:59:05Z</time></trkpt><trkpt lat="59.1018239502" lon="30.4718615580"><ele>296.22</ele><time>2026-08-20T22:59:06Z</time></trkpt><trkpt lat="59.1018164903" lon="30.4718553554"><ele>296.22</ele><time>2026-08-20T22:59:07Z</time></trkpt><trkpt lat="59.1018097848" lon="30.4718531761"><ele>296.22</ele><time>2026-08-20T22:59:08Z</time></trkpt><trkpt lat="59.1018009000" lon="30.4718525894"><ele>296.22</ele><time>2026-08-20T22:59:09Z</time></trkpt><trkpt lat="59.1017977986" lon="30.4718496557"><ele>296.22</ele><time>2026-08-20T22:59:10Z</time></trkpt><trkpt lat="59.1017918475" lon="30.4718431178"><ele>296.22</ele><time>2026-08-20T22:59:11Z</time></trkpt><trkpt lat="59.1017858963" lon="30.4718400165"><ele>296.22</ele><time>2026-08-20T22:59:12Z</time></trkpt><trkpt lat="59.1017858963" lon="30.4718400165"><ele>296.22</ele><time>2026-08-20T22:59:13Z</time></trkpt><trkpt lat="59.1017858963" lon="30.4718400165"><ele>296.22</ele><time>2026-08-20T22:59:14Z</time></trkpt><trkpt lat="59.1017881595" lon="30.4718195647"><ele>296.22</ele><time>2026-08-20T22:59:15Z</time></trkpt><trkpt lat="59.1017895844" lon="30.4718181398"><ele>296.22</ele><time>2026-08-20T22:59:16Z</time></trkpt><trkpt lat="59.1017951164" lon="30.4718195647"><ele>296.22</ele><time>2026-08-20T22:59:17Z</time></trkpt><trkpt lat="59.1017988883" lon="30.4718166310"><ele>296.22</ele><time>2026-08-20T22:59:18Z</time></trkpt><trkpt lat="59.1017988883" lon="30.4718166310"><ele>296.22</ele><time>2026-08-20T22:59:19Z</time></trkpt><trkpt lat="59.1018001456" lon="30.4718115181"><ele>295.74</ele><time>2026-08-20T22:59:20Z</time></trkpt><trkpt lat="59.1018014867" lon="30.4718067404"><ele>295.74</ele><time>2026-08-20T22:59:21Z</time></trkpt><trkpt lat="59.1018028278" lon="30.4718053993"><ele>295.74</ele><time>2026-08-20T22:59:22Z</time></trkpt><trkpt lat="59.1018024925" lon="30.4717967659"><ele>296.22</ele><time>2026-08-20T22:59:23Z</time></trkpt><trkpt lat="59.1018024925" lon="30.4717967659"><ele>296.22</ele><time>2026-08-20T22:59:24Z</time></trkpt><trkpt lat="59.1018024925" lon="30.4717967659"><ele>296.22</ele><time>2026-08-20T22:59:25Z</time></trkpt><trkpt lat="59.1018024925" lon="30.4717967659"><ele>296.22</ele><time>2026-08-20T22:59:26Z</time></trkpt><trkpt lat="59.1018024925" lon="30.4717967659"><ele>296.22</ele><time>2026-08-20T22:59:27Z</time></trkpt><trkpt lat="59.1018024925" lon="30.4717967659"><ele>296.22</ele><time>2026-08-20T22:59:28Z</time></trkpt><trkpt lat="59.1018024925" lon="30.4717967659"><ele>296.22</ele><time>2026-08-20T22:59:29Z</time></trkpt><trkpt lat="59.1018024925" lon="30.4717967659"><ele>296.22</ele><time>2026-08-20T22:59:30Z</time></trkpt><trkpt lat="59.1018024925" lon="30.4717967659"><ele>296.22</ele><time>2026-08-20T22:59:31Z</time></trkpt><trkpt lat="59.1018024925" lon="30.4717967659"><ele>296.22</ele><time>2026-08-20T22:59:32Z</time></trkpt><trkpt lat="59.1018024925" lon="30.4717967659"><ele>296.22</ele><time>2026-08-20T22:59:33Z</time></trkpt><trkpt lat="59.1018024925" lon="30.4717967659"><ele>296.22</ele><time>2026-08-20T22:59:34Z</time></trkpt><trkpt lat="59.1018024925" lon="30.4717967659"><ele>296.22</ele><time>2026-08-20T22:59:35Z</time></trkpt><trkpt lat="59.1018461622" lon="30.4718208220"><ele>296.22</ele><time>2026-08-20T22:59:36Z</time></trkpt><trkpt lat="59.1018520296" lon="30.4718225822"><ele>296.22</ele><time>2026-08-20T22:59:37Z</time></trkpt><trkpt lat="59.1018574778" lon="30.4718255997"><ele>296.22</ele><time>2026-08-20T22:59:38Z</time></trkpt><trkpt lat="59.1018643510" lon="30.4718341492"><ele>296.22</ele><time>2026-08-20T22:59:39Z</time></trkpt><trkpt lat="59.1018733196" lon="30.4718408547"><ele>296.22</ele><time>2026-08-20T22:59:40Z</time></trkpt><trkpt lat="59.1018826235" lon="30.4718412738"><ele>296.22</ele><time>2026-08-20T22:59:41Z</time></trkpt><trkpt lat="59.1018889938" lon="30.4718459677"><ele>296.22</ele><time>2026-08-20T22:59:42Z</time></trkpt><trkpt lat="59.1018978786" lon="30.4718532600"><ele>296.22</ele><time>2026-08-20T22:59:43Z</time></trkpt><trkpt lat="59.1019055899" lon="30.4718583729"><ele>296.22</ele><time>2026-08-20T22:59:44Z</time></trkpt><trkpt lat="59.1019106191" lon="30.4718628991"><ele>296.22</ele><time>2026-08-20T22:59:45Z</time></trkpt><trkpt lat="59.1019147262" lon="30.4718612228"><ele>296.22</ele><time>2026-08-20T22:59:46Z</time></trkpt><trkpt lat="59.1019187495" lon="30.4718593787"><ele>296.22</ele><time>2026-08-20T22:59:47Z</time></trkpt><trkpt lat="59.1019264609" lon="30.4718662519"><ele>296.22</ele><time>2026-08-20T22:59:48Z</time></trkpt><trkpt lat="59.1019302327" lon="30.4718665872"><ele>296.22</ele><time>2026-08-20T22:59:49Z</time></trkpt><trkpt lat="59.1019386984" lon="30.4718646593"><ele>296.22</ele><time>2026-08-20T22:59:50Z</time></trkpt><trkpt lat="59.1019415483" lon="30.4718640726"><ele>296.22</ele><time>2026-08-20T22:59:51Z</time></trkpt><trkpt lat="59.1019440629" lon="30.4718620609"><ele>296.22</ele><time>2026-08-20T22:59:52Z</time></trkpt><trkpt lat="59.1019467451" lon="30.4718594626"><ele>296.22</ele><time>2026-08-20T22:59:53Z</time></trkpt><trkpt lat="59.1019467451" lon="30.4718594626"><ele>296.22</ele><time>2026-08-20T22:59:54Z</time></trkpt><trkpt lat="59.1019467451" lon="30.4718594626"><ele>296.22</ele><time>2026-08-20T22:59:55Z</time></trkpt><trkpt lat="59.1019467451" lon="30.4718594626"><ele>296.22</ele><time>2026-08-20T22:59:56Z</time></trkpt><trkpt lat="59.1019467451" lon="30.4718594626"><ele>296.22</ele><time>2026-08-20T22:59:57Z</time></trkpt><trkpt lat="59.1019467451" lon="30.4718594626"><ele>296.22</ele><time>2026-08-20T22:59:58Z</time></trkpt><trkpt lat="59.1019467451" lon="30.4718594626"><ele>296.22</ele><time>2026-08-20T22:59:59Z</time></trkpt><trkpt lat="59.1019467451" lon="30.4718594626"><ele>296.22</ele><time>2026-08-20T23:00:00Z</time></trkpt><trkpt lat="59.1019467451" lon="30.4718594626"><ele>296.22</ele><time>2026-08-20T23:00:01Z</time></trkpt><trkpt lat="59.1019467451" lon="30.4718594626"><ele>296.22</ele><time>2026-08-20T23:00:02Z</time></trkpt><trkpt lat="59.1019654367" lon="30.4718250968"><ele>295.74</ele><time>2026-08-20T23:00:03Z</time></trkpt><trkpt lat="59.1019665264" lon="30.4718216602"><ele>295.74</ele><time>2026-08-20T23:00:04Z</time></trkpt><trkpt lat="59.1019680351" lon="30.4718168825"><ele>295.74</ele><time>2026-08-20T23:00:05Z</time></trkpt><trkpt lat="59.1019721422" lon="30.4718093388"><ele>295.74</ele><time>2026-08-20T23:00:06Z</time></trkpt><trkpt lat="59.1019740701" lon="30.4718050640"><ele>295.74</ele><time>2026-08-20T23:00:07Z</time></trkpt><trkpt lat="59.1019740701" lon="30.4718050640"><ele>295.74</ele><time>2026-08-20T23:00:08Z</time></trkpt><trkpt lat="59.1019740701" lon="30.4718050640"><ele>295.74</ele><time>2026-08-20T23:00:09Z</time></trkpt><trkpt lat="59.1019833740" lon="30.4717739671"><ele>295.74</ele><time>2026-08-20T23:00:10Z</time></trkpt><trkpt lat="59.1019859724" lon="30.4717642441"><ele>295.74</ele><time>2026-08-20T23:00:11Z</time></trkpt><trkpt lat="59.1019854695" lon="30.4717535991"><ele>295.74</ele><time>2026-08-20T23:00:12Z</time></trkpt><trkpt lat="59.1019881517" lon="30.4717446305"><ele>295.74</ele><time>2026-08-20T23:00:13Z</time></trkpt><trkpt lat="59.1019844636" lon="30.4717410263"><ele>295.74</ele><time>2026-08-20T23:00:14Z</time></trkpt><trkpt lat="59.1019809432" lon="30.4717371706"><ele>295.74</ele><time>2026-08-20T23:00:15Z</time></trkpt><trkpt lat="59.1019809432" lon="30.4717371706"><ele>295.74</ele><time>2026-08-20T23:00:16Z</time></trkpt><trkpt lat="59.1019809432" lon="30.4717371706"><ele>295.74</ele><time>2026-08-20T23:00:17Z</time></trkpt><trkpt lat="59.1019625869" lon="30.4717318900"><ele>295.74</ele><time>2026-08-20T23:00:18Z</time></trkpt><trkpt lat="59.1019548755" lon="30.4717241786"><ele>295.74</ele><time>2026-08-20T23:00:19Z</time></trkpt><trkpt lat="59.1019495949" lon="30.4717220832"><ele>295.74</ele><time>2026-08-20T23:00:20Z</time></trkpt><trkpt lat="59.1019392852" lon="30.4717265256"><ele>295.74</ele><time>2026-08-20T23:00:21Z</time></trkpt><trkpt lat="59.1019321606" lon="30.4717268609"><ele>295.74</ele><time>2026-08-20T23:00:22Z</time></trkpt><trkpt lat="59.1019259579" lon="30.4717276990"><ele>295.74</ele><time>2026-08-20T23:00:23Z</time></trkpt><trkpt lat="59.1019195877" lon="30.4717318900"><ele>295.74</ele><time>2026-08-20T23:00:24Z</time></trkpt><trkpt lat="59.1019113734" lon="30.4717351589"><ele>295.74</ele><time>2026-08-20T23:00:25Z</time></trkpt><trkpt lat="59.1019044165" lon="30.4717396852"><ele>295.74</ele><time>2026-08-20T23:00:26Z</time></trkpt><trkpt lat="59.1018964536" lon="30.4717477318"><ele>295.74</ele><time>2026-08-20T23:00:27Z</time></trkpt><trkpt lat="59.1018896643" lon="30.4717558622"><ele>295.74</ele><time>2026-08-20T23:00:28Z</time></trkpt><trkpt lat="59.1018833779" lon="30.4717608914"><ele>295.74</ele><time>2026-08-20T23:00:29Z</time></trkpt><trkpt lat="59.1018764209" lon="30.4717671778"><ele>295.74</ele><time>2026-08-20T23:00:30Z</time></trkpt><trkpt lat="59.1018698830" lon="30.4717700277"><ele>295.74</ele><time>2026-08-20T23:00:31Z</time></trkpt><trkpt lat="59.1018607467" lon="30.4717744701"><ele>295.74</ele><time>2026-08-20T23:00:32Z</time></trkpt><trkpt lat="59.1018565558" lon="30.4717706982"><ele>296.22</ele><time>2026-08-20T23:00:33Z</time></trkpt><trkpt lat="59.1018500179" lon="30.4717652500"><ele>296.22</ele><time>2026-08-20T23:00:34Z</time></trkpt><trkpt lat="59.1018448211" lon="30.4717603885"><ele>296.22</ele><time>2026-08-20T23:00:35Z</time></trkpt><trkpt lat="59.1018396243" lon="30.4717550240"><ele>296.22</ele><time>2026-08-20T23:00:36Z</time></trkpt><trkpt lat="59.1018353496" lon="30.4717500787"><ele>296.22</ele><time>2026-08-20T23:00:37Z</time></trkpt><trkpt lat="59.1018301528" lon="30.4717448819"><ele>296.22</ele><time>2026-08-20T23:00:38Z</time></trkpt><trkpt lat="59.1018274706" lon="30.4717370868"><ele>296.22</ele><time>2026-08-20T23:00:39Z</time></trkpt><trkpt lat="59.1018218547" lon="30.4717304651"><ele>295.74</ele><time>2026-08-20T23:00:40Z</time></trkpt><trkpt lat="59.1018179990" lon="30.4717184789"><ele>295.74</ele><time>2026-08-20T23:00:41Z</time></trkpt><trkpt lat="59.1018155683" lon="30.4717082530"><ele>295.74</ele><time>2026-08-20T23:00:42Z</time></trkpt><trkpt lat="59.1018087789" lon="30.4716903996"><ele>295.74</ele><time>2026-08-20T23:00:43Z</time></trkpt><trkpt lat="59.1018097848" lon="30.4716738872"><ele>295.74</ele><time>2026-08-20T23:00:44Z</time></trkpt><trkpt lat="59.1018080246" lon="30.4716600571"><ele>295.74</ele><time>2026-08-20T23:00:45Z</time></trkpt><trkpt lat="59.1018046718" lon="30.4716455564"><ele>295.74</ele><time>2026-08-20T23:00:46Z</time></trkpt><trkpt lat="59.1018012352" lon="30.4716285411"><ele>295.74</ele><time>2026-08-20T23:00:47Z</time></trkpt><trkpt lat="59.1017946973" lon="30.4716077540"><ele>295.74</ele><time>2026-08-20T23:00:48Z</time></trkpt><trkpt lat="59.1017875727" lon="30.4715833627"><ele>295.74</ele><time>2026-08-20T23:00:49Z</time></trkpt><trkpt lat="59.1017824598" lon="30.4715570435"><ele>295.74</ele><time>2026-08-20T23:00:50Z</time></trkpt><trkpt lat="59.1017804481" lon="30.4715361726"><ele>295.74</ele><time>2026-08-20T23:00:51Z</time></trkpt><trkpt lat="59.1017762572" lon="30.4715199955"><ele>295.74</ele><time>2026-08-20T23:00:52Z</time></trkpt><trkpt lat="59.1017722338" lon="30.4715024773"><ele>295.74</ele><time>2026-08-20T23:00:53Z</time></trkpt><trkpt lat="59.1017669532" lon="30.4714776669"><ele>295.74</ele><time>2026-08-20T23:00:54Z</time></trkpt><trkpt lat="59.1017609183" lon="30.4714561254"><ele>295.74</ele><time>2026-08-20T23:00:55Z</time></trkpt><trkpt lat="59.1017550509" lon="30.4714366794"><ele>295.74</ele><time>2026-08-20T23:00:56Z</time></trkpt><trkpt lat="59.1017495189" lon="30.4714237712"><ele>295.74</ele><time>2026-08-20T23:00:57Z</time></trkpt><trkpt lat="59.1017418914" lon="30.4714075942"><ele>295.74</ele><time>2026-08-20T23:00:58Z</time></trkpt><trkpt lat="59.1017387901" lon="30.4713832866"><ele>295.74</ele><time>2026-08-20T23:00:59Z</time></trkpt><trkpt lat="59.1017323360" lon="30.4713586438"><ele>295.74</ele><time>2026-08-20T23:01:00Z</time></trkpt><trkpt lat="59.1017253790" lon="30.4713376891"><ele>295.74</ele><time>2026-08-20T23:01:01Z</time></trkpt><trkpt lat="59.1017201822" lon="30.4713180754"><ele>295.74</ele><time>2026-08-20T23:01:02Z</time></trkpt><trkpt lat="59.1017145663" lon="30.4712968692"><ele>295.74</ele><time>2026-08-20T23:01:03Z</time></trkpt><trkpt lat="59.1017099563" lon="30.4712791834"><ele>295.74</ele><time>2026-08-20T23:01:04Z</time></trkpt><trkpt lat="59.1017060168" lon="30.4712621681"><ele>296.22</ele><time>2026-08-20T23:01:05Z</time></trkpt><trkpt lat="59.1017012391" lon="30.4712454882"><ele>296.22</ele><time>2026-08-20T23:01:06Z</time></trkpt><trkpt lat="59.1016984731" lon="30.4712304845"><ele>296.22</ele><time>2026-08-20T23:01:07Z</time></trkpt><trkpt lat="59.1016957909" lon="30.4712173250"><ele>296.22</ele><time>2026-08-20T23:01:08Z</time></trkpt><trkpt lat="59.1016922705" lon="30.4712033272"><ele>296.22</ele><time>2026-08-20T23:01:09Z</time></trkpt><trkpt lat="59.1016883310" lon="30.4711911734"><ele>296.22</ele><time>2026-08-20T23:01:10Z</time></trkpt><trkpt lat="59.1016846430" lon="30.4711779300"><ele>296.22</ele><time>2026-08-20T23:01:11Z</time></trkpt><trkpt lat="59.1016841400" lon="30.4711720627"><ele>296.22</ele><time>2026-08-20T23:01:12Z</time></trkpt><trkpt lat="59.1016813740" lon="30.4711592384"><ele>296.22</ele><time>2026-08-20T23:01:13Z</time></trkpt><trkpt lat="59.1016795300" lon="30.4711479228"><ele>296.22</ele><time>2026-08-20T23:01:14Z</time></trkpt><trkpt lat="59.1016777698" lon="30.4711353499"><ele>295.74</ele><time>2026-08-20T23:01:15Z</time></trkpt><trkpt lat="59.1016755905" lon="30.4711280577"><ele>295.74</ele><time>2026-08-20T23:01:16Z</time></trkpt><trkpt lat="59.1016711481" lon="30.4711209331"><ele>295.74</ele><time>2026-08-20T23:01:17Z</time></trkpt><trkpt lat="59.1016702261" lon="30.4711148981"><ele>295.74</ele><time>2026-08-20T23:01:18Z</time></trkpt><trkpt lat="59.1016677953" lon="30.4711091984"><ele>295.74</ele><time>2026-08-20T23:01:19Z</time></trkpt><trkpt lat="59.1016677953" lon="30.4711091984"><ele>295.74</ele><time>2026-08-20T23:01:20Z</time></trkpt><trkpt lat="59.1016677953" lon="30.4711091984"><ele>295.74</ele><time>2026-08-20T23:01:21Z</time></trkpt><trkpt lat="59.1016677953" lon="30.4711091984"><ele>295.74</ele><time>2026-08-20T23:01:22Z</time></trkpt><trkpt lat="59.1016660351" lon="30.4711038340"><ele>295.74</ele><time>2026-08-20T23:01:23Z</time></trkpt><trkpt lat="59.1016669571" lon="30.4710920993"><ele>295.74</ele><time>2026-08-20T23:01:24Z</time></trkpt><trkpt lat="59.1016657837" lon="30.4710759223"><ele>295.74</ele><time>2026-08-20T23:01:25Z</time></trkpt><trkpt lat="59.1016616765" lon="30.4710591584"><ele>295.74</ele><time>2026-08-20T23:01:26Z</time></trkpt><trkpt lat="59.1016586591" lon="30.4710472561"><ele>295.74</ele><time>2026-08-20T23:01:27Z</time></trkpt><trkpt lat="59.1016547196" lon="30.4710433166"><ele>296.22</ele><time>2026-08-20T23:01:28Z</time></trkpt><trkpt lat="59.1016486846" lon="30.4710392933"><ele>296.22</ele><time>2026-08-20T23:01:29Z</time></trkpt><trkpt lat="59.1016486846" lon="30.4710392933"><ele>296.22</ele><time>2026-08-20T23:01:30Z</time></trkpt><trkpt lat="59.1016486846" lon="30.4710392933"><ele>296.22</ele><time>2026-08-20T23:01:31Z</time></trkpt><trkpt lat="59.1016403865" lon="30.4710295703"><ele>296.22</ele><time>2026-08-20T23:01:32Z</time></trkpt><trkpt lat="59.1016338486" lon="30.4710177518"><ele>296.22</ele><time>2026-08-20T23:01:33Z</time></trkpt><trkpt lat="59.1016256344" lon="30.4710093699"><ele>296.22</ele><time>2026-08-20T23:01:34Z</time></trkpt><trkpt lat="59.1016184259" lon="30.4709990602"><ele>296.22</ele><time>2026-08-20T23:01:35Z</time></trkpt><trkpt lat="59.1016132291" lon="30.4709848948"><ele>296.22</ele><time>2026-08-20T23:01:36Z</time></trkpt><trkpt lat="59.1016096249" lon="30.4709647782"><ele>296.22</ele><time>2026-08-20T23:01:37Z</time></trkpt><trkpt lat="59.1016000696" lon="30.4709364474"><ele>296.22</ele><time>2026-08-20T23:01:38Z</time></trkpt><trkpt lat="59.1015944537" lon="30.4709128942"><ele>296.22</ele><time>2026-08-20T23:01:39Z</time></trkpt><trkpt lat="59.1015895922" lon="30.4708964657"><ele>296.22</ele><time>2026-08-20T23:01:40Z</time></trkpt><trkpt lat="59.1015861556" lon="30.4708896764"><ele>296.22</ele><time>2026-08-20T23:01:41Z</time></trkpt><trkpt lat="59.1015856527" lon="30.4708858207"><ele>296.22</ele><time>2026-08-20T23:01:42Z</time></trkpt><trkpt lat="59.1015844792" lon="30.4708823841"><ele>296.22</ele><time>2026-08-20T23:01:43Z</time></trkpt><trkpt lat="59.1015844792" lon="30.4708823841"><ele>296.22</ele><time>2026-08-20T23:01:44Z</time></trkpt><trkpt lat="59.1015844792" lon="30.4708823841"><ele>296.22</ele><time>2026-08-20T23:01:45Z</time></trkpt><trkpt lat="59.1015836410" lon="30.4708719905"><ele>296.22</ele><time>2026-08-20T23:01:46Z</time></trkpt><trkpt lat="59.1015882511" lon="30.4708578251"><ele>296.22</ele><time>2026-08-20T23:01:47Z</time></trkpt><trkpt lat="59.1015905980" lon="30.4708469287"><ele>296.22</ele><time>2026-08-20T23:01:48Z</time></trkpt><trkpt lat="59.1015903465" lon="30.4708304163"><ele>296.22</ele><time>2026-08-20T23:01:49Z</time></trkpt><trkpt lat="59.1015880834" lon="30.4708205257"><ele>296.22</ele><time>2026-08-20T23:01:50Z</time></trkpt><trkpt lat="59.1015876643" lon="30.4708057735"><ele>296.22</ele><time>2026-08-20T23:01:51Z</time></trkpt><trkpt lat="59.1015848983" lon="30.4707909375"><ele>296.22</ele><time>2026-08-20T23:01:52Z</time></trkpt><trkpt lat="59.1015820485" lon="30.4707793705"><ele>296.22</ele><time>2026-08-20T23:01:53Z</time></trkpt><trkpt lat="59.1015787795" lon="30.4707664624"><ele>295.74</ele><time>2026-08-20T23:01:54Z</time></trkpt><trkpt lat="59.1015758459" lon="30.4707540572"><ele>295.74</ele><time>2026-08-20T23:01:55Z</time></trkpt><trkpt lat="59.1015706491" lon="30.4707428254"><ele>295.74</ele><time>2026-08-20T23:01:56Z</time></trkpt><trkpt lat="59.1015638597" lon="30.4707344435"><ele>295.74</ele><time>2026-08-20T23:01:57Z</time></trkpt><trkpt lat="59.1015572380" lon="30.4707232956"><ele>295.74</ele><time>2026-08-20T23:01:58Z</time></trkpt><trkpt lat="59.1015486885" lon="30.4707075376"><ele>295.74</ele><time>2026-08-20T23:01:59Z</time></trkpt><trkpt lat="59.1015413962" lon="30.4706909414"><ele>295.74</ele><time>2026-08-20T23:02:00Z</time></trkpt><trkpt lat="59.1015341878" lon="30.4706786200"><ele>295.74</ele><time>2026-08-20T23:02:01Z</time></trkpt><trkpt lat="59.1015272308" lon="30.4706681427"><ele>295.74</ele><time>2026-08-20T23:02:02Z</time></trkpt><trkpt lat="59.1015216988" lon="30.4706616886"><ele>295.74</ele><time>2026-08-20T23:02:03Z</time></trkpt><trkpt lat="59.1015155800" lon="30.4706500378"><ele>295.74</ele><time>2026-08-20T23:02:04Z</time></trkpt><trkpt lat="59.1015095450" lon="30.4706371296"><ele>295.74</ele><time>2026-08-20T23:02:05Z</time></trkpt><trkpt lat="59.1014985647" lon="30.4706255626"><ele>295.74</ele><time>2026-08-20T23:02:06Z</time></trkpt><trkpt lat="59.1014903504" lon="30.4706190247"><ele>295.74</ele><time>2026-08-20T23:02:07Z</time></trkpt><trkpt lat="59.1014818847" lon="30.4706099723"><ele>295.74</ele><time>2026-08-20T23:02:08Z</time></trkpt><trkpt lat="59.1014716588" lon="30.4706009198"><ele>295.74</ele><time>2026-08-20T23:02:09Z</time></trkpt><trkpt lat="59.1014643665" lon="30.4705952201"><ele>295.74</ele><time>2026-08-20T23:02:10Z</time></trkpt><trkpt lat="59.1014555655" lon="30.4705926217"><ele>295.74</ele><time>2026-08-20T23:02:11Z</time></trkpt><trkpt lat="59.1014474351" lon="30.4705891851"><ele>295.74</ele><time>2026-08-20T23:02:12Z</time></trkpt><trkpt lat="59.1014413163" lon="30.4705802165"><ele>295.74</ele><time>2026-08-20T23:02:13Z</time></trkpt><trkpt lat="59.1014337726" lon="30.4705692362"><ele>295.74</ele><time>2026-08-20T23:02:14Z</time></trkpt><trkpt lat="59.1014256421" lon="30.4705589265"><ele>295.74</ele><time>2026-08-20T23:02:15Z</time></trkpt><trkpt lat="59.1014206968" lon="30.4705502931"><ele>295.74</ele><time>2026-08-20T23:02:16Z</time></trkpt><trkpt lat="59.1014123987" lon="30.4705399834"><ele>295.74</ele><time>2026-08-20T23:02:17Z</time></trkpt><trkpt lat="59.1014067829" lon="30.4705275781"><ele>295.74</ele><time>2026-08-20T23:02:18Z</time></trkpt><trkpt lat="59.1014011670" lon="30.4705136642"><ele>295.74</ele><time>2026-08-20T23:02:19Z</time></trkpt><trkpt lat="59.1013978980" lon="30.4704972357"><ele>295.74</ele><time>2026-08-20T23:02:20Z</time></trkpt><trkpt lat="59.1013950482" lon="30.4704820644"><ele>295.74</ele><time>2026-08-20T23:02:21Z</time></trkpt><trkpt lat="59.1013962217" lon="30.4704742692"><ele>295.74</ele><time>2026-08-20T23:02:22Z</time></trkpt><trkpt lat="59.1013919469" lon="30.4704624508"><ele>295.74</ele><time>2026-08-20T23:02:23Z</time></trkpt><trkpt lat="59.1013903543" lon="30.4704507999"><ele>295.74</ele><time>2026-08-20T23:02:24Z</time></trkpt><trkpt lat="59.1013883427" lon="30.4704398196"><ele>295.74</ele><time>2026-08-20T23:02:25Z</time></trkpt><trkpt lat="59.1013875883" lon="30.4704236425"><ele>295.74</ele><time>2026-08-20T23:02:26Z</time></trkpt><trkpt lat="59.1013829783" lon="30.4704090580"><ele>295.74</ele><time>2026-08-20T23:02:27Z</time></trkpt><trkpt lat="59.1013790388" lon="30.4703917913"><ele>295.74</ele><time>2026-08-20T23:02:28Z</time></trkpt><trkpt lat="59.1013740934" lon="30.4703792185"><ele>295.74</ele><time>2026-08-20T23:02:29Z</time></trkpt><trkpt lat="59.1013666335" lon="30.4703674838"><ele>295.74</ele><time>2026-08-20T23:02:30Z</time></trkpt><trkpt lat="59.1013634484" lon="30.4703515582"><ele>295.74</ele><time>2026-08-20T23:02:31Z</time></trkpt><trkpt lat="59.1013568267" lon="30.4703364708"><ele>295.74</ele><time>2026-08-20T23:02:32Z</time></trkpt><trkpt lat="59.1013514623" lon="30.4703205451"><ele>295.74</ele><time>2026-08-20T23:02:33Z</time></trkpt><trkpt lat="59.1013455950" lon="30.4703129176"><ele>295.74</ele><time>2026-08-20T23:02:34Z</time></trkpt><trkpt lat="59.1013384704" lon="30.4702969920"><ele>295.74</ele><time>2026-08-20T23:02:35Z</time></trkpt><trkpt lat="59.1013305914" lon="30.4702881910"><ele>295.74</ele><time>2026-08-20T23:02:36Z</time></trkpt><trkpt lat="59.1013253946" lon="30.4702801444"><ele>296.22</ele><time>2026-08-20T23:02:37Z</time></trkpt><trkpt lat="59.1013231315" lon="30.4702705890"><ele>296.22</ele><time>2026-08-20T23:02:38Z</time></trkpt><trkpt lat="59.1013194434" lon="30.4702653922"><ele>296.22</ele><time>2026-08-20T23:02:39Z</time></trkpt><trkpt lat="59.1013199463" lon="30.4702622909"><ele>296.22</ele><time>2026-08-20T23:02:40Z</time></trkpt><trkpt lat="59.1013199463" lon="30.4702590220"><ele>296.22</ele><time>2026-08-20T23:02:41Z</time></trkpt><trkpt lat="59.1013202816" lon="30.4702569265"><ele>296.22</ele><time>2026-08-20T23:02:42Z</time></trkpt><trkpt lat="59.1013202816" lon="30.4702569265"><ele>296.22</ele><time>2026-08-20T23:02:43Z</time></trkpt><trkpt lat="59.1013202816" lon="30.4702569265"><ele>296.22</ele><time>2026-08-20T23:02:44Z</time></trkpt><trkpt lat="59.1013153363" lon="30.4702469520"><ele>296.22</ele><time>2026-08-20T23:02:45Z</time></trkpt><trkpt lat="59.1013122350" lon="30.4702412523"><ele>296.22</ele><time>2026-08-20T23:02:46Z</time></trkpt><trkpt lat="59.1013058648" lon="30.4702266678"><ele>296.22</ele><time>2026-08-20T23:02:47Z</time></trkpt><trkpt lat="59.1013005842" lon="30.4702135921"><ele>296.22</ele><time>2026-08-20T23:02:48Z</time></trkpt><trkpt lat="59.1012965608" lon="30.4702073894"><ele>296.22</ele><time>2026-08-20T23:02:49Z</time></trkpt><trkpt lat="59.1012975667" lon="30.4702066351"><ele>295.74</ele><time>2026-08-20T23:02:50Z</time></trkpt><trkpt lat="59.1012901906" lon="30.4701990914"><ele>295.74</ele><time>2026-08-20T23:02:51Z</time></trkpt><trkpt lat="59.1012867540" lon="30.4701923858"><ele>295.74</ele><time>2026-08-20T23:02:52Z</time></trkpt><trkpt lat="59.1012832336" lon="30.4701869376"><ele>295.74</ele><time>2026-08-20T23:02:53Z</time></trkpt><trkpt lat="59.1012808867" lon="30.4701831657"><ele>295.74</ele><time>2026-08-20T23:02:54Z</time></trkpt><trkpt lat="59.1012783721" lon="30.4701776337"><ele>295.74</ele><time>2026-08-20T23:02:55Z</time></trkpt><trkpt lat="59.1012744326" lon="30.4701733589"><ele>295.74</ele><time>2026-08-20T23:02:56Z</time></trkpt><trkpt lat="59.1012744326" lon="30.4701733589"><ele>295.74</ele><time>2026-08-20T23:02:57Z</time></trkpt><trkpt lat="59.1012744326" lon="30.4701733589"><ele>295.74</ele><time>2026-08-20T23:02:58Z</time></trkpt><trkpt lat="59.1012744326" lon="30.4701733589"><ele>295.74</ele><time>2026-08-20T23:02:59Z</time></trkpt><trkpt lat="59.1012744326" lon="30.4701733589"><ele>295.74</ele><time>2026-08-20T23:03:00Z</time></trkpt><trkpt lat="59.1012744326" lon="30.4701733589"><ele>295.74</ele><time>2026-08-20T23:03:01Z</time></trkpt><trkpt lat="59.1012744326" lon="30.4701733589"><ele>295.74</ele><time>2026-08-20T23:03:02Z</time></trkpt><trkpt lat="59.1012744326" lon="30.4701733589"><ele>295.74</ele><time>2026-08-20T23:03:03Z</time></trkpt><trkpt lat="59.1012744326" lon="30.4701733589"><ele>295.74</ele><time>2026-08-20T23:03:04Z</time></trkpt><trkpt lat="59.1012744326" lon="30.4701733589"><ele>295.74</ele><time>2026-08-20T23:03:05Z</time></trkpt><trkpt lat="59.1012744326" lon="30.4701733589"><ele>295.74</ele><time>2026-08-20T23:03:06Z</time></trkpt><trkpt lat="59.1012744326" lon="30.4701733589"><ele>295.74</ele><time>2026-08-20T23:03:07Z</time></trkpt><trkpt lat="59.1012744326" lon="30.4701733589"><ele>295.74</ele><time>2026-08-20T23:03:08Z</time></trkpt><trkpt lat="59.1012744326" lon="30.4701733589"><ele>295.26</ele><time>2026-08-20T23:03:09Z</time></trkpt><trkpt lat="59.1012744326" lon="30.4701733589"><ele>295.26</ele><time>2026-08-20T23:03:10Z</time></trkpt><trkpt lat="59.1012744326" lon="30.4701733589"><ele>295.26</ele><time>2026-08-20T23:03:11Z</time></trkpt><trkpt lat="59.1012744326" lon="30.4701733589"><ele>295.26</ele><time>2026-08-20T23:03:12Z</time></trkpt><trkpt lat="59.1012744326" lon="30.4701733589"><ele>295.26</ele><time>2026-08-20T23:03:13Z</time></trkpt><trkpt lat="59.1012744326" lon="30.4701733589"><ele>295.26</ele><time>2026-08-20T23:03:14Z</time></trkpt><trkpt lat="59.1012744326" lon="30.4701733589"><ele>294.78</ele><time>2026-08-20T23:03:15Z</time></trkpt><trkpt lat="59.1012744326" lon="30.4701733589"><ele>294.78</ele><time>2026-08-20T23:03:16Z</time></trkpt><trkpt lat="59.1012744326" lon="30.4701733589"><ele>294.78</ele><time>2026-08-20T23:03:17Z</time></trkpt><trkpt lat="59.1012744326" lon="30.4701733589"><ele>294.78</ele><time>2026-08-20T23:03:18Z</time></trkpt><trkpt lat="59.1012744326" lon="30.4701733589"><ele>294.78</ele><time>2026-08-20T23:03:19Z</time></trkpt><trkpt lat="59.1012744326" lon="30.4701733589"><ele>294.78</ele><time>2026-08-20T23:03:20Z</time></trkpt><trkpt lat="59.1012744326" lon="30.4701733589"><ele>294.78</ele><time>2026-08-20T23:03:21Z</time></trkpt><trkpt lat="59.1012744326" lon="30.4701733589"><ele>294.78</ele><time>2026-08-20T23:03:22Z</time></trkpt><trkpt lat="59.1012744326" lon="30.4701733589"><ele>295.26</ele><time>2026-08-20T23:03:23Z</time></trkpt><trkpt lat="59.1012744326" lon="30.4701733589"><ele>295.26</ele><time>2026-08-20T23:03:24Z</time></trkpt><trkpt lat="59.1012744326" lon="30.4701733589"><ele>295.74</ele><time>2026-08-20T23:03:25Z</time></trkpt><trkpt lat="59.1012744326" lon="30.4701733589"><ele>295.74</ele><time>2026-08-20T23:03:26Z</time></trkpt><trkpt lat="59.1012744326" lon="30.4701733589"><ele>295.74</ele><time>2026-08-20T23:03:27Z</time></trkpt><trkpt lat="59.1012744326" lon="30.4701733589"><ele>295.74</ele><time>2026-08-20T23:03:28Z</time></trkpt><trkpt lat="59.1012751870" lon="30.4700546712"><ele>295.74</ele><time>2026-08-20T23:03:29Z</time></trkpt><trkpt lat="59.1012712475" lon="30.4700489715"><ele>295.74</ele><time>2026-08-20T23:03:30Z</time></trkpt><trkpt lat="59.1012720857" lon="30.4700461216"><ele>295.74</ele><time>2026-08-20T23:03:31Z</time></trkpt><trkpt lat="59.1012713313" lon="30.4700457864"><ele>295.74</ele><time>2026-08-20T23:03:32Z</time></trkpt><trkpt lat="59.1012665536" lon="30.4700449482"><ele>295.74</ele><time>2026-08-20T23:03:33Z</time></trkpt><trkpt lat="59.1012665536" lon="30.4700449482"><ele>295.74</ele><time>2026-08-20T23:03:34Z</time></trkpt><trkpt lat="59.1012665536" lon="30.4700449482"><ele>295.74</ele><time>2026-08-20T23:03:35Z</time></trkpt><trkpt lat="59.1012606863" lon="30.4700405896"><ele>295.74</ele><time>2026-08-20T23:03:36Z</time></trkpt><trkpt lat="59.1012579203" lon="30.4700245801"><ele>295.74</ele><time>2026-08-20T23:03:37Z</time></trkpt><trkpt lat="59.1012545675" lon="30.4700110853"><ele>295.74</ele><time>2026-08-20T23:03:38Z</time></trkpt><trkpt lat="59.1012532264" lon="30.4700025357"><ele>295.74</ele><time>2026-08-20T23:03:39Z</time></trkpt><trkpt lat="59.1012486164" lon="30.4699923936"><ele>295.74</ele><time>2026-08-20T23:03:40Z</time></trkpt><trkpt lat="59.1012435872" lon="30.4699818324"><ele>295.74</ele><time>2026-08-20T23:03:41Z</time></trkpt><trkpt lat="59.1012354568" lon="30.4699715227"><ele>295.74</ele><time>2026-08-20T23:03:42Z</time></trkpt><trkpt lat="59.1012309305" lon="30.4699650686"><ele>295.74</ele><time>2026-08-20T23:03:43Z</time></trkpt><trkpt lat="59.1012244765" lon="30.4699521605"><ele>295.74</ele><time>2026-08-20T23:03:44Z</time></trkpt><trkpt lat="59.1012183577" lon="30.4699372407"><ele>295.74</ele><time>2026-08-20T23:03:45Z</time></trkpt><trkpt lat="59.1012110654" lon="30.4699225724"><ele>295.74</ele><time>2026-08-20T23:03:46Z</time></trkpt><trkpt lat="59.1012053657" lon="30.4699097481"><ele>295.74</ele><time>2026-08-20T23:03:47Z</time></trkpt><trkpt lat="59.1012005880" lon="30.4698972590"><ele>295.74</ele><time>2026-08-20T23:03:48Z</time></trkpt><trkpt lat="59.1011971515" lon="30.4698881228"><ele>295.74</ele><time>2026-08-20T23:03:49Z</time></trkpt><trkpt lat="59.1011937987" lon="30.4698786512"><ele>295.74</ele><time>2026-08-20T23:03:50Z</time></trkpt><trkpt lat="59.1011921223" lon="30.4698693473"><ele>295.74</ele><time>2026-08-20T23:03:51Z</time></trkpt><trkpt lat="59.1011880990" lon="30.4698591214"><ele>295.74</ele><time>2026-08-20T23:03:52Z</time></trkpt><trkpt lat="59.1011848301" lon="30.4698446207"><ele>295.74</ele><time>2026-08-20T23:03:53Z</time></trkpt><trkpt lat="59.1011827346" lon="30.4698336404"><ele>295.74</ele><time>2026-08-20T23:03:54Z</time></trkpt><trkpt lat="59.1011806391" lon="30.4698205646"><ele>295.74</ele><time>2026-08-20T23:03:55Z</time></trkpt><trkpt lat="59.1011765320" lon="30.4698094167"><ele>295.74</ele><time>2026-08-20T23:03:56Z</time></trkpt><trkpt lat="59.1011732630" lon="30.4698021244"><ele>295.74</ele><time>2026-08-20T23:03:57Z</time></trkpt><trkpt lat="59.1011697426" lon="30.4697908927"><ele>295.74</ele><time>2026-08-20T23:03:58Z</time></trkpt><trkpt lat="59.1011662222" lon="30.4697788227"><ele>295.74</ele><time>2026-08-20T23:03:59Z</time></trkpt><trkpt lat="59.1011606902" lon="30.4697664175"><ele>295.74</ele><time>2026-08-20T23:04:00Z</time></trkpt><trkpt lat="59.1011550743" lon="30.4697548505"><ele>295.74</ele><time>2026-08-20T23:04:01Z</time></trkpt><trkpt lat="59.1011512186" lon="30.4697496537"><ele>295.74</ele><time>2026-08-20T23:04:02Z</time></trkpt><trkpt lat="59.1011497937" lon="30.4697474744"><ele>295.74</ele><time>2026-08-20T23:04:03Z</time></trkpt><trkpt lat="59.1011506319" lon="30.4697472230"><ele>295.74</ele><time>2026-08-20T23:04:04Z</time></trkpt><trkpt lat="59.1011506319" lon="30.4697472230"><ele>295.74</ele><time>2026-08-20T23:04:05Z</time></trkpt><trkpt lat="59.1011506319" lon="30.4697472230"><ele>295.74</ele><time>2026-08-20T23:04:06Z</time></trkpt><trkpt lat="59.1011506319" lon="30.4697472230"><ele>295.74</ele><time>2026-08-20T23:04:07Z</time></trkpt><trkpt lat="59.1011506319" lon="30.4697472230"><ele>295.74</ele><time>2026-08-20T23:04:08Z</time></trkpt><trkpt lat="59.1011506319" lon="30.4697472230"><ele>295.74</ele><time>2026-08-20T23:04:09Z</time></trkpt><trkpt lat="59.1011398192" lon="30.4697564431"><ele>295.74</ele><time>2026-08-20T23:04:10Z</time></trkpt><trkpt lat="59.1011386458" lon="30.4697520845"><ele>295.74</ele><time>2026-08-20T23:04:11Z</time></trkpt><trkpt lat="59.1011350416" lon="30.4697492346"><ele>295.74</ele><time>2026-08-20T23:04:12Z</time></trkpt><trkpt lat="59.1011328623" lon="30.4697420262"><ele>295.74</ele><time>2026-08-20T23:04:13Z</time></trkpt><trkpt lat="59.1011328623" lon="30.4697420262"><ele>295.74</ele><time>2026-08-20T23:04:14Z</time></trkpt><trkpt lat="59.1011328623" lon="30.4697420262"><ele>295.74</ele><time>2026-08-20T23:04:15Z</time></trkpt><trkpt lat="59.1011328623" lon="30.4697420262"><ele>295.74</ele><time>2026-08-20T23:04:16Z</time></trkpt><trkpt lat="59.1011328623" lon="30.4697420262"><ele>296.22</ele><time>2026-08-20T23:04:17Z</time></trkpt><trkpt lat="59.1011132486" lon="30.4697267711"><ele>296.22</ele><time>2026-08-20T23:04:18Z</time></trkpt><trkpt lat="59.1011083871" lon="30.4697191436"><ele>296.22</ele><time>2026-08-20T23:04:19Z</time></trkpt><trkpt lat="59.1011058725" lon="30.4697089177"><ele>296.22</ele><time>2026-08-20T23:04:20Z</time></trkpt><trkpt lat="59.1011012625" lon="30.4696974345"><ele>296.22</ele><time>2026-08-20T23:04:21Z</time></trkpt><trkpt lat="59.1010936350" lon="30.4697005358"><ele>295.74</ele><time>2026-08-20T23:04:22Z</time></trkpt><trkpt lat="59.1010894440" lon="30.4697013739"><ele>295.74</ele><time>2026-08-20T23:04:23Z</time></trkpt><trkpt lat="59.1010868456" lon="30.4696995299"><ele>295.74</ele><time>2026-08-20T23:04:24Z</time></trkpt><trkpt lat="59.1010835767" lon="30.4696917348"><ele>295.74</ele><time>2026-08-20T23:04:25Z</time></trkpt><trkpt lat="59.1010774579" lon="30.4696847778"><ele>295.74</ele><time>2026-08-20T23:04:26Z</time></trkpt><trkpt lat="59.1010747757" lon="30.4696762282"><ele>295.74</ele><time>2026-08-20T23:04:27Z</time></trkpt><trkpt lat="59.1010715906" lon="30.4696661700"><ele>295.74</ele><time>2026-08-20T23:04:28Z</time></trkpt><trkpt lat="59.1010699980" lon="30.4696567822"><ele>295.74</ele><time>2026-08-20T23:04:29Z</time></trkpt><trkpt lat="59.1010691598" lon="30.4696473945"><ele>295.74</ele><time>2026-08-20T23:04:30Z</time></trkpt><trkpt lat="59.1010690760" lon="30.4696342349"><ele>295.74</ele><time>2026-08-20T23:04:31Z</time></trkpt><trkpt lat="59.1010703333" lon="30.4696194828"><ele>295.74</ele><time>2026-08-20T23:04:32Z</time></trkpt><trkpt lat="59.1010719258" lon="30.4696050659"><ele>295.74</ele><time>2026-08-20T23:04:33Z</time></trkpt><trkpt lat="59.1010720935" lon="30.4695859551"><ele>295.74</ele><time>2026-08-20T23:04:34Z</time></trkpt><trkpt lat="59.1010716744" lon="30.4695692752"><ele>295.74</ele><time>2026-08-20T23:04:35Z</time></trkpt><trkpt lat="59.1010699980" lon="30.4695525952"><ele>295.74</ele><time>2026-08-20T23:04:36Z</time></trkpt><trkpt lat="59.1010657232" lon="30.4695337359"><ele>295.74</ele><time>2026-08-20T23:04:37Z</time></trkpt><trkpt lat="59.1010624543" lon="30.4695157986"><ele>295.74</ele><time>2026-08-20T23:04:38Z</time></trkpt><trkpt lat="59.1010582633" lon="30.4694984481"><ele>295.74</ele><time>2026-08-20T23:04:39Z</time></trkpt><trkpt lat="59.1010511387" lon="30.4694755655"><ele>295.74</ele><time>2026-08-20T23:04:40Z</time></trkpt><trkpt lat="59.1010444332" lon="30.4694521800"><ele>295.74</ele><time>2026-08-20T23:04:41Z</time></trkpt><trkpt lat="59.1010338720" lon="30.4694263637"><ele>295.74</ele><time>2026-08-20T23:04:42Z</time></trkpt><trkpt lat="59.1010260768" lon="30.4694039840"><ele>295.74</ele><time>2026-08-20T23:04:43Z</time></trkpt><trkpt lat="59.1010181978" lon="30.4693845380"><ele>295.74</ele><time>2026-08-20T23:04:44Z</time></trkpt><trkpt lat="59.1010115761" lon="30.4693653435"><ele>295.74</ele><time>2026-08-20T23:04:45Z</time></trkpt><trkpt lat="59.1010068823" lon="30.4693451431"><ele>295.74</ele><time>2026-08-20T23:04:46Z</time></trkpt><trkpt lat="59.1010029428" lon="30.4693260323"><ele>295.74</ele><time>2026-08-20T23:04:47Z</time></trkpt><trkpt lat="59.1010004282" lon="30.4693029821"><ele>295.74</ele><time>2026-08-20T23:04:48Z</time></trkpt><trkpt lat="59.1009931359" lon="30.4692790937"><ele>295.74</ele><time>2026-08-20T23:04:49Z</time></trkpt><trkpt lat="59.1009874362" lon="30.4692578875"><ele>295.74</ele><time>2026-08-20T23:04:50Z</time></trkpt><trkpt lat="59.1009804793" lon="30.4692438897"><ele>295.74</ele><time>2026-08-20T23:04:51Z</time></trkpt><trkpt lat="59.1009757854" lon="30.4692288861"><ele>295.74</ele><time>2026-08-20T23:04:52Z</time></trkpt><trkpt lat="59.1009688284" lon="30.4692093562"><ele>295.74</ele><time>2026-08-20T23:04:53Z</time></trkpt><trkpt lat="59.1009616200" lon="30.4691918381"><ele>295.74</ele><time>2026-08-20T23:04:54Z</time></trkpt><trkpt lat="59.1009558365" lon="30.4691784270"><ele>295.74</ele><time>2026-08-20T23:04:55Z</time></trkpt><trkpt lat="59.1009484604" lon="30.4691664409"><ele>295.74</ele><time>2026-08-20T23:04:56Z</time></trkpt><trkpt lat="59.1009398270" lon="30.4691535328"><ele>295.74</ele><time>2026-08-20T23:04:57Z</time></trkpt><trkpt lat="59.1009322833" lon="30.4691407923"><ele>295.74</ele><time>2026-08-20T23:04:58Z</time></trkpt><trkpt lat="59.1009248234" lon="30.4691322427"><ele>295.74</ele><time>2026-08-20T23:04:59Z</time></trkpt><trkpt lat="59.1009185370" lon="30.4691254534"><ele>295.74</ele><time>2026-08-20T23:05:00Z</time></trkpt><trkpt lat="59.1009127535" lon="30.4691186640"><ele>295.74</ele><time>2026-08-20T23:05:01Z</time></trkpt><trkpt lat="59.1009076405" lon="30.4691106174"><ele>295.74</ele><time>2026-08-20T23:05:02Z</time></trkpt><trkpt lat="59.1009005997" lon="30.4691001400"><ele>295.74</ele><time>2026-08-20T23:05:03Z</time></trkpt><trkpt lat="59.1008956544" lon="30.4690895788"><ele>295.74</ele><time>2026-08-20T23:05:04Z</time></trkpt><trkpt lat="59.1008901224" lon="30.4690773413"><ele>295.74</ele><time>2026-08-20T23:05:05Z</time></trkpt><trkpt lat="59.1008848418" lon="30.4690654390"><ele>295.74</ele><time>2026-08-20T23:05:06Z</time></trkpt><trkpt lat="59.1008816566" lon="30.4690494295"><ele>295.74</ele><time>2026-08-20T23:05:07Z</time></trkpt><trkpt lat="59.1008743644" lon="30.4690336715"><ele>295.74</ele><time>2026-08-20T23:05:08Z</time></trkpt><trkpt lat="59.1008683294" lon="30.4690179974"><ele>295.74</ele><time>2026-08-20T23:05:09Z</time></trkpt><trkpt lat="59.1008594446" lon="30.4690045863"><ele>295.74</ele><time>2026-08-20T23:05:10Z</time></trkpt><trkpt lat="59.1008534934" lon="30.4689908400"><ele>295.74</ele><time>2026-08-20T23:05:11Z</time></trkpt><trkpt lat="59.1008483805" lon="30.4689770937"><ele>295.74</ele><time>2026-08-20T23:05:12Z</time></trkpt><trkpt lat="59.1008417588" lon="30.4689614195"><ele>295.74</ele><time>2026-08-20T23:05:13Z</time></trkpt><trkpt lat="59.1008333769" lon="30.4689443205"><ele>295.74</ele><time>2026-08-20T23:05:14Z</time></trkpt><trkpt lat="59.1008229833" lon="30.4689326696"><ele>295.74</ele><time>2026-08-20T23:05:15Z</time></trkpt><trkpt lat="59.1008136794" lon="30.4689249583"><ele>295.74</ele><time>2026-08-20T23:05:16Z</time></trkpt><trkpt lat="59.1008032858" lon="30.4689144809"><ele>295.74</ele><time>2026-08-20T23:05:17Z</time></trkpt><trkpt lat="59.1007937305" lon="30.4689071886"><ele>295.74</ele><time>2026-08-20T23:05:18Z</time></trkpt><trkpt lat="59.1007848457" lon="30.4689021595"><ele>295.74</ele><time>2026-08-20T23:05:19Z</time></trkpt><trkpt lat="59.1007786430" lon="30.4688982200"><ele>295.74</ele><time>2026-08-20T23:05:20Z</time></trkpt><trkpt lat="59.1007705964" lon="30.4688869882"><ele>295.74</ele><time>2026-08-20T23:05:21Z</time></trkpt><trkpt lat="59.1007666569" lon="30.4688734934"><ele>295.74</ele><time>2026-08-20T23:05:22Z</time></trkpt><trkpt lat="59.1007617954" lon="30.4688571487"><ele>295.74</ele><time>2026-08-20T23:05:23Z</time></trkpt><trkpt lat="59.1007589456" lon="30.4688437376"><ele>295.74</ele><time>2026-08-20T23:05:24Z</time></trkpt><trkpt lat="59.1007582750" lon="30.4688314162"><ele>295.74</ele><time>2026-08-20T23:05:25Z</time></trkpt><trkpt lat="59.1007586941" lon="30.4688146524"><ele>295.74</ele><time>2026-08-20T23:05:26Z</time></trkpt><trkpt lat="59.1007623821" lon="30.4688006546"><ele>295.74</ele><time>2026-08-20T23:05:27Z</time></trkpt><trkpt lat="59.1007662378" lon="30.4687870760"><ele>295.74</ele><time>2026-08-20T23:05:28Z</time></trkpt><trkpt lat="59.1007684171" lon="30.4687655345"><ele>295.74</ele><time>2026-08-20T23:05:29Z</time></trkpt><trkpt lat="59.1007713508" lon="30.4687472619"><ele>295.74</ele><time>2026-08-20T23:05:30Z</time></trkpt><trkpt lat="59.1007703450" lon="30.4687256366"><ele>295.74</ele><time>2026-08-20T23:05:31Z</time></trkpt><trkpt lat="59.1007676627" lon="30.4687068611"><ele>295.74</ele><time>2026-08-20T23:05:32Z</time></trkpt><trkpt lat="59.1007640585" lon="30.4686931986"><ele>295.26</ele><time>2026-08-20T23:05:33Z</time></trkpt><trkpt lat="59.1007599514" lon="30.4686790332"><ele>295.26</ele><time>2026-08-20T23:05:34Z</time></trkpt><trkpt lat="59.1007547546" lon="30.4686610959"><ele>295.26</ele><time>2026-08-20T23:05:35Z</time></trkpt><trkpt lat="59.1007523239" lon="30.4686450865"><ele>295.26</ele><time>2026-08-20T23:05:36Z</time></trkpt><trkpt lat="59.1007515695" lon="30.4686315916"><ele>295.26</ele><time>2026-08-20T23:05:37Z</time></trkpt><trkpt lat="59.1007534973" lon="30.4686142411"><ele>295.26</ele><time>2026-08-20T23:05:38Z</time></trkpt><trkpt lat="59.1007530782" lon="30.4685995728"><ele>295.26</ele><time>2026-08-20T23:05:39Z</time></trkpt><trkpt lat="59.1007537488" lon="30.4685888439"><ele>295.26</ele><time>2026-08-20T23:05:40Z</time></trkpt><trkpt lat="59.1007557604" lon="30.4685741756"><ele>295.26</ele><time>2026-08-20T23:05:41Z</time></trkpt><trkpt lat="59.1007517371" lon="30.4685593396"><ele>295.26</ele><time>2026-08-20T23:05:42Z</time></trkpt><trkpt lat="59.1007504798" lon="30.4685480241"><ele>295.26</ele><time>2026-08-20T23:05:43Z</time></trkpt><trkpt lat="59.1007510666" lon="30.4685378820"><ele>295.26</ele><time>2026-08-20T23:05:44Z</time></trkpt><trkpt lat="59.1007513180" lon="30.4685268179"><ele>295.26</ele><time>2026-08-20T23:05:45Z</time></trkpt><trkpt lat="59.1007526591" lon="30.4685144965"><ele>295.26</ele><time>2026-08-20T23:05:46Z</time></trkpt><trkpt lat="59.1007548384" lon="30.4684969783"><ele>295.26</ele><time>2026-08-20T23:05:47Z</time></trkpt><trkpt lat="59.1007578559" lon="30.4684844892"><ele>295.26</ele><time>2026-08-20T23:05:48Z</time></trkpt><trkpt lat="59.1007624660" lon="30.4684740957"><ele>295.26</ele><time>2026-08-20T23:05:49Z</time></trkpt><trkpt lat="59.1007658187" lon="30.4684628639"><ele>295.26</ele><time>2026-08-20T23:05:50Z</time></trkpt><trkpt lat="59.1007643938" lon="30.4684446752"><ele>295.26</ele><time>2026-08-20T23:05:51Z</time></trkpt><trkpt lat="59.1007658187" lon="30.4684324376"><ele>295.26</ele><time>2026-08-20T23:05:52Z</time></trkpt><trkpt lat="59.1007648967" lon="30.4684139974"><ele>295.26</ele><time>2026-08-20T23:05:53Z</time></trkpt><trkpt lat="59.1007607896" lon="30.4683924560"><ele>295.26</ele><time>2026-08-20T23:05:54Z</time></trkpt><trkpt lat="59.1007621307" lon="30.4683743510"><ele>295.26</ele><time>2026-08-20T23:05:55Z</time></trkpt><trkpt lat="59.1007637233" lon="30.4683555756"><ele>295.26</ele><time>2026-08-20T23:05:56Z</time></trkpt><trkpt lat="59.1007635556" lon="30.4683388956"><ele>295.26</ele><time>2026-08-20T23:05:57Z</time></trkpt><trkpt lat="59.1007624660" lon="30.4683264904"><ele>295.26</ele><time>2026-08-20T23:05:58Z</time></trkpt><trkpt lat="59.1007615440" lon="30.4683109839"><ele>295.26</ele><time>2026-08-20T23:05:59Z</time></trkpt><trkpt lat="59.1007633880" lon="30.4682970699"><ele>295.26</ele><time>2026-08-20T23:06:00Z</time></trkpt><trkpt lat="59.1007646453" lon="30.4682820663"><ele>295.26</ele><time>2026-08-20T23:06:01Z</time></trkpt><trkpt lat="59.1007669922" lon="30.4682671465"><ele>295.26</ele><time>2026-08-20T23:06:02Z</time></trkpt><trkpt lat="59.1007697582" lon="30.4682537355"><ele>295.26</ele><time>2026-08-20T23:06:03Z</time></trkpt><trkpt lat="59.1007729433" lon="30.4682409950"><ele>295.26</ele><time>2026-08-20T23:06:04Z</time></trkpt><trkpt lat="59.1007777210" lon="30.4682272486"><ele>295.26</ele><time>2026-08-20T23:06:05Z</time></trkpt><trkpt lat="59.1007819958" lon="30.4682153463"><ele>295.26</ele><time>2026-08-20T23:06:06Z</time></trkpt><trkpt lat="59.1007830855" lon="30.4682021867"><ele>295.26</ele><time>2026-08-20T23:06:07Z</time></trkpt><trkpt lat="59.1007822473" lon="30.4681905359"><ele>295.26</ele><time>2026-08-20T23:06:08Z</time></trkpt><trkpt lat="59.1007803194" lon="30.4681717604"><ele>295.26</ele><time>2026-08-20T23:06:09Z</time></trkpt><trkpt lat="59.1007829178" lon="30.4681568407"><ele>295.26</ele><time>2026-08-20T23:06:10Z</time></trkpt><trkpt lat="59.1007857677" lon="30.4681438487"><ele>295.26</ele><time>2026-08-20T23:06:11Z</time></trkpt><trkpt lat="59.1007867735" lon="30.4681311920"><ele>295.26</ele><time>2026-08-20T23:06:12Z</time></trkpt><trkpt lat="59.1007868573" lon="30.4681198765"><ele>295.26</ele><time>2026-08-20T23:06:13Z</time></trkpt><trkpt lat="59.1007849295" lon="30.4681092314"><ele>295.26</ele><time>2026-08-20T23:06:14Z</time></trkpt><trkpt lat="59.1007766314" lon="30.4681033641"><ele>295.26</ele><time>2026-08-20T23:06:15Z</time></trkpt><trkpt lat="59.1007701773" lon="30.4680900369"><ele>295.26</ele><time>2026-08-20T23:06:16Z</time></trkpt><trkpt lat="59.1007677466" lon="30.4680838343"><ele>295.26</ele><time>2026-08-20T23:06:17Z</time></trkpt><trkpt lat="59.1007639747" lon="30.4680641368"><ele>295.26</ele><time>2026-08-20T23:06:18Z</time></trkpt><trkpt lat="59.1007625498" lon="30.4680606164"><ele>295.26</ele><time>2026-08-20T23:06:19Z</time></trkpt><trkpt lat="59.1007621307" lon="30.4680595268"><ele>295.26</ele><time>2026-08-20T23:06:20Z</time></trkpt><trkpt lat="59.1007614601" lon="30.4680538271"><ele>295.26</ele><time>2026-08-20T23:06:21Z</time></trkpt><trkpt lat="59.1007623821" lon="30.4680465348"><ele>295.26</ele><time>2026-08-20T23:06:22Z</time></trkpt><trkpt lat="59.1007624660" lon="30.4680412542"><ele>295.26</ele><time>2026-08-20T23:06:23Z</time></trkpt><trkpt lat="59.1007593647" lon="30.4680342972"><ele>295.26</ele><time>2026-08-20T23:06:24Z</time></trkpt><trkpt lat="59.1007582750" lon="30.4680276755"><ele>295.26</ele><time>2026-08-20T23:06:25Z</time></trkpt><trkpt lat="59.1007577721" lon="30.4680177849"><ele>295.26</ele><time>2026-08-20T23:06:26Z</time></trkpt><trkpt lat="59.1007577721" lon="30.4680177849"><ele>295.26</ele><time>2026-08-20T23:06:27Z</time></trkpt><trkpt lat="59.1007611249" lon="30.4679943994"><ele>295.26</ele><time>2026-08-20T23:06:28Z</time></trkpt><trkpt lat="59.1007619631" lon="30.4679870233"><ele>295.26</ele><time>2026-08-20T23:06:29Z</time></trkpt><trkpt lat="59.1007604543" lon="30.4679807369"><ele>295.26</ele><time>2026-08-20T23:06:30Z</time></trkpt><trkpt lat="59.1007609572" lon="30.4679715168"><ele>295.26</ele><time>2026-08-20T23:06:31Z</time></trkpt><trkpt lat="59.1007625498" lon="30.4679599497"><ele>295.26</ele><time>2026-08-20T23:06:32Z</time></trkpt><trkpt lat="59.1007648967" lon="30.4679455329"><ele>295.26</ele><time>2026-08-20T23:06:33Z</time></trkpt><trkpt lat="59.1007673275" lon="30.4679351393"><ele>295.26</ele><time>2026-08-20T23:06:34Z</time></trkpt><trkpt lat="59.1007673275" lon="30.4679254163"><ele>295.26</ele><time>2026-08-20T23:06:35Z</time></trkpt><trkpt lat="59.1007647291" lon="30.4679159448"><ele>295.26</ele><time>2026-08-20T23:06:36Z</time></trkpt><trkpt lat="59.1007620469" lon="30.4679112509"><ele>295.26</ele><time>2026-08-20T23:06:37Z</time></trkpt><trkpt lat="59.1007532459" lon="30.4679011926"><ele>295.26</ele><time>2026-08-20T23:06:38Z</time></trkpt><trkpt lat="59.1007478815" lon="30.4678978398"><ele>295.26</ele><time>2026-08-20T23:06:39Z</time></trkpt><trkpt lat="59.1007478815" lon="30.4678978398"><ele>295.26</ele><time>2026-08-20T23:06:40Z</time></trkpt><trkpt lat="59.1007478815" lon="30.4678978398"><ele>295.26</ele><time>2026-08-20T23:06:41Z</time></trkpt><trkpt lat="59.1007478815" lon="30.4678978398"><ele>295.26</ele><time>2026-08-20T23:06:42Z</time></trkpt><trkpt lat="59.1007478815" lon="30.4678978398"><ele>295.26</ele><time>2026-08-20T23:06:43Z</time></trkpt><trkpt lat="59.1007478815" lon="30.4678978398"><ele>295.26</ele><time>2026-08-20T23:06:44Z</time></trkpt><trkpt lat="59.1007478815" lon="30.4678978398"><ele>295.26</ele><time>2026-08-20T23:06:45Z</time></trkpt><trkpt lat="59.1007478815" lon="30.4678978398"><ele>295.26</ele><time>2026-08-20T23:06:46Z</time></trkpt><trkpt lat="59.1007478815" lon="30.4678978398"><ele>295.26</ele><time>2026-08-20T23:06:47Z</time></trkpt><trkpt lat="59.1007478815" lon="30.4678978398"><ele>295.26</ele><time>2026-08-20T23:06:48Z</time></trkpt><trkpt lat="59.1007478815" lon="30.4678978398"><ele>295.26</ele><time>2026-08-20T23:06:49Z</time></trkpt><trkpt lat="59.1007478815" lon="30.4678978398"><ele>295.26</ele><time>2026-08-20T23:06:50Z</time></trkpt><trkpt lat="59.1007478815" lon="30.4678978398"><ele>295.26</ele><time>2026-08-20T23:06:51Z</time></trkpt><trkpt lat="59.1007478815" lon="30.4678978398"><ele>295.26</ele><time>2026-08-20T23:06:52Z</time></trkpt><trkpt lat="59.1007478815" lon="30.4678978398"><ele>295.26</ele><time>2026-08-20T23:06:53Z</time></trkpt><trkpt lat="59.1007478815" lon="30.4678978398"><ele>295.26</ele><time>2026-08-20T23:06:54Z</time></trkpt><trkpt lat="59.1007276811" lon="30.4678402562"><ele>295.26</ele><time>2026-08-20T23:06:55Z</time></trkpt><trkpt lat="59.1007261723" lon="30.4678325448"><ele>295.26</ele><time>2026-08-20T23:06:56Z</time></trkpt><trkpt lat="59.1007259209" lon="30.4678256717"><ele>295.26</ele><time>2026-08-20T23:06:57Z</time></trkpt><trkpt lat="59.1007258371" lon="30.4678171221"><ele>295.26</ele><time>2026-08-20T23:06:58Z</time></trkpt><trkpt lat="59.1007277649" lon="30.4678067286"><ele>295.26</ele><time>2026-08-20T23:06:59Z</time></trkpt><trkpt lat="59.1007300280" lon="30.4677978437"><ele>295.26</ele><time>2026-08-20T23:07:00Z</time></trkpt><trkpt lat="59.1007405892" lon="30.4677784815"><ele>295.26</ele><time>2026-08-20T23:07:01Z</time></trkpt><trkpt lat="59.1007458698" lon="30.4677688424"><ele>295.26</ele><time>2026-08-20T23:07:02Z</time></trkpt><trkpt lat="59.1007495578" lon="30.4677581973"><ele>295.26</ele><time>2026-08-20T23:07:03Z</time></trkpt><trkpt lat="59.1007528268" lon="30.4677453730"><ele>295.26</ele><time>2026-08-20T23:07:04Z</time></trkpt><trkpt lat="59.1007545870" lon="30.4677329678"><ele>295.26</ele><time>2026-08-20T23:07:05Z</time></trkpt><trkpt lat="59.1007589456" lon="30.4677178804"><ele>295.26</ele><time>2026-08-20T23:07:06Z</time></trkpt><trkpt lat="59.1007608734" lon="30.4677010328"><ele>295.26</ele><time>2026-08-20T23:07:07Z</time></trkpt><trkpt lat="59.1007619631" lon="30.4676870350"><ele>295.26</ele><time>2026-08-20T23:07:08Z</time></trkpt><trkpt lat="59.1007621307" lon="30.4676720314"><ele>295.26</ele><time>2026-08-20T23:07:09Z</time></trkpt><trkpt lat="59.1007623821" lon="30.4676570278"><ele>295.26</ele><time>2026-08-20T23:07:10Z</time></trkpt><trkpt lat="59.1007599514" lon="30.4676426947"><ele>295.26</ele><time>2026-08-20T23:07:11Z</time></trkpt><trkpt lat="59.1007620469" lon="30.4676311277"><ele>295.26</ele><time>2026-08-20T23:07:12Z</time></trkpt><trkpt lat="59.1007628851" lon="30.4676150344"><ele>295.26</ele><time>2026-08-20T23:07:13Z</time></trkpt><trkpt lat="59.1007653996" lon="30.4675991926"><ele>295.26</ele><time>2026-08-20T23:07:14Z</time></trkpt><trkpt lat="59.1007650644" lon="30.4675779864"><ele>295.26</ele><time>2026-08-20T23:07:15Z</time></trkpt><trkpt lat="59.1007644776" lon="30.4675618932"><ele>295.26</ele><time>2026-08-20T23:07:16Z</time></trkpt><trkpt lat="59.1007642262" lon="30.4675640725"><ele>295.26</ele><time>2026-08-20T23:07:17Z</time></trkpt><trkpt lat="59.1007612925" lon="30.4675588757"><ele>295.26</ele><time>2026-08-20T23:07:18Z</time></trkpt><trkpt lat="59.1007556766" lon="30.4675556906"><ele>295.26</ele><time>2026-08-20T23:07:19Z</time></trkpt><trkpt lat="59.1007556766" lon="30.4675556906"><ele>295.26</ele><time>2026-08-20T23:07:20Z</time></trkpt><trkpt lat="59.1007453669" lon="30.4675490689"><ele>295.26</ele><time>2026-08-20T23:07:21Z</time></trkpt><trkpt lat="59.1007380746" lon="30.4675377533"><ele>295.26</ele><time>2026-08-20T23:07:22Z</time></trkpt><trkpt lat="59.1007319558" lon="30.4675188940"><ele>295.26</ele><time>2026-08-20T23:07:23Z</time></trkpt><trkpt lat="59.1007275973" lon="30.4675067402"><ele>295.26</ele><time>2026-08-20T23:07:24Z</time></trkpt><trkpt lat="59.1007239930" lon="30.4674948379"><ele>295.26</ele><time>2026-08-20T23:07:25Z</time></trkpt><trkpt lat="59.1007188801" lon="30.4674855340"><ele>295.26</ele><time>2026-08-20T23:07:26Z</time></trkpt><trkpt lat="59.1007131804" lon="30.4674729612"><ele>295.26</ele><time>2026-08-20T23:07:27Z</time></trkpt><trkpt lat="59.1007098276" lon="30.4674635734"><ele>295.26</ele><time>2026-08-20T23:07:28Z</time></trkpt><trkpt lat="59.1007032897" lon="30.4674474802"><ele>295.26</ele><time>2026-08-20T23:07:29Z</time></trkpt><trkpt lat="59.1007006913" lon="30.4674319737"><ele>295.26</ele><time>2026-08-20T23:07:30Z</time></trkpt><trkpt lat="59.1006995179" lon="30.4674163833"><ele>295.26</ele><time>2026-08-20T23:07:31Z</time></trkpt><trkpt lat="59.1006983444" lon="30.4673986975"><ele>295.26</ele><time>2026-08-20T23:07:32Z</time></trkpt><trkpt lat="59.1006939858" lon="30.4673841968"><ele>295.26</ele><time>2026-08-20T23:07:33Z</time></trkpt><trkpt lat="59.1006880347" lon="30.4673693608"><ele>295.26</ele><time>2026-08-20T23:07:34Z</time></trkpt><trkpt lat="59.1006813291" lon="30.4673558660"><ele>295.26</ele><time>2026-08-20T23:07:35Z</time></trkpt><trkpt lat="59.1006718576" lon="30.4673404433"><ele>295.26</ele><time>2026-08-20T23:07:36Z</time></trkpt><trkpt lat="59.1006644815" lon="30.4673255235"><ele>295.26</ele><time>2026-08-20T23:07:37Z</time></trkpt><trkpt lat="59.1006579436" lon="30.4673118610"><ele>295.26</ele><time>2026-08-20T23:07:38Z</time></trkpt><trkpt lat="59.1006498970" lon="30.4672961868"><ele>295.26</ele><time>2026-08-20T23:07:39Z</time></trkpt><trkpt lat="59.1006429400" lon="30.4672814347"><ele>295.26</ele><time>2026-08-20T23:07:40Z</time></trkpt><trkpt lat="59.1006352287" lon="30.4672688618"><ele>295.26</ele><time>2026-08-20T23:07:41Z</time></trkpt><trkpt lat="59.1006271821" lon="30.4672514275"><ele>295.26</ele><time>2026-08-20T23:07:42Z</time></trkpt><trkpt lat="59.1006209794" lon="30.4672307242"><ele>295.26</ele><time>2026-08-20T23:07:43Z</time></trkpt><trkpt lat="59.1006136872" lon="30.4672109429"><ele>295.26</ele><time>2026-08-20T23:07:44Z</time></trkpt><trkpt lat="59.1006101668" lon="30.4671867192"><ele>295.26</ele><time>2026-08-20T23:07:45Z</time></trkpt><trkpt lat="59.1006078199" lon="30.4671682790"><ele>295.26</ele><time>2026-08-20T23:07:46Z</time></trkpt><trkpt lat="59.1006031260" lon="30.4671517666"><ele>295.26</ele><time>2026-08-20T23:07:47Z</time></trkpt><trkpt lat="59.1005978454" lon="30.4671354219"><ele>295.26</ele><time>2026-08-20T23:07:48Z</time></trkpt><trkpt lat="59.1005937383" lon="30.4671234358"><ele>295.26</ele><time>2026-08-20T23:07:49Z</time></trkpt><trkpt lat="59.1005899664" lon="30.4671111982"><ele>295.26</ele><time>2026-08-20T23:07:50Z</time></trkpt><trkpt lat="59.1005857754" lon="30.4670957755"><ele>295.26</ele><time>2026-08-20T23:07:51Z</time></trkpt><trkpt lat="59.1005814169" lon="30.4670835380"><ele>295.26</ele><time>2026-08-20T23:07:52Z</time></trkpt><trkpt lat="59.1005777288" lon="30.4670672771"><ele>295.26</ele><time>2026-08-20T23:07:53Z</time></trkpt><trkpt lat="59.1005726997" lon="30.4670483340"><ele>295.26</ele><time>2026-08-20T23:07:54Z</time></trkpt><trkpt lat="59.1005697660" lon="30.4670313187"><ele>295.26</ele><time>2026-08-20T23:07:55Z</time></trkpt><trkpt lat="59.1005600430" lon="30.4670089390"><ele>294.78</ele><time>2026-08-20T23:07:56Z</time></trkpt><trkpt lat="59.1005552653" lon="30.4669914208"><ele>294.78</ele><time>2026-08-20T23:07:57Z</time></trkpt><trkpt lat="59.1005519964" lon="30.4669706337"><ele>294.78</ele><time>2026-08-20T23:07:58Z</time></trkpt><trkpt lat="59.1005478892" lon="30.4669526964"><ele>294.78</ele><time>2026-08-20T23:07:59Z</time></trkpt><trkpt lat="59.1005449556" lon="30.4669403750"><ele>294.78</ele><time>2026-08-20T23:08:00Z</time></trkpt><trkpt lat="59.1005427763" lon="30.4669252876"><ele>294.78</ele><time>2026-08-20T23:08:01Z</time></trkpt><trkpt lat="59.1005369928" lon="30.4669122957"><ele>294.78</ele><time>2026-08-20T23:08:02Z</time></trkpt><trkpt lat="59.1005365737" lon="30.4668941908"><ele>294.78</ele><time>2026-08-20T23:08:03Z</time></trkpt><trkpt lat="59.1005352326" lon="30.4668768402"><ele>294.78</ele><time>2026-08-20T23:08:04Z</time></trkpt><trkpt lat="59.1005348973" lon="30.4668594897"><ele>294.78</ele><time>2026-08-20T23:08:05Z</time></trkpt><trkpt lat="59.1005313769" lon="30.4668390378"><ele>294.78</ele><time>2026-08-20T23:08:06Z</time></trkpt><trkpt lat="59.1005289461" lon="30.4668210167"><ele>294.78</ele><time>2026-08-20T23:08:07Z</time></trkpt><trkpt lat="59.1005241685" lon="30.4668009840"><ele>294.78</ele><time>2026-08-20T23:08:08Z</time></trkpt><trkpt lat="59.1005199775" lon="30.4667845555"><ele>294.78</ele><time>2026-08-20T23:08:09Z</time></trkpt><trkpt lat="59.1005170438" lon="30.4667695519"><ele>294.78</ele><time>2026-08-20T23:08:10Z</time></trkpt><trkpt lat="59.1005162895" lon="30.4667500220"><ele>294.78</ele><time>2026-08-20T23:08:11Z</time></trkpt><trkpt lat="59.1005145293" lon="30.4667318333"><ele>294.78</ele><time>2026-08-20T23:08:12Z</time></trkpt><trkpt lat="59.1005090810" lon="30.4667127226"><ele>294.78</ele><time>2026-08-20T23:08:13Z</time></trkpt><trkpt lat="59.1005022917" lon="30.4666952882"><ele>294.78</ele><time>2026-08-20T23:08:14Z</time></trkpt><trkpt lat="59.1004964244" lon="30.4666886665"><ele>294.78</ele><time>2026-08-20T23:08:15Z</time></trkpt><trkpt lat="59.1004883777" lon="30.4666860681"><ele>294.78</ele><time>2026-08-20T23:08:16Z</time></trkpt><trkpt lat="59.1004815884" lon="30.4666735791"><ele>294.78</ele><time>2026-08-20T23:08:17Z</time></trkpt><trkpt lat="59.1004779842" lon="30.4666572344"><ele>294.78</ele><time>2026-08-20T23:08:18Z</time></trkpt><trkpt lat="59.1004741285" lon="30.4666433204"><ele>294.78</ele><time>2026-08-20T23:08:19Z</time></trkpt><trkpt lat="59.1004710272" lon="30.4666294903"><ele>294.78</ele><time>2026-08-20T23:08:20Z</time></trkpt><trkpt lat="59.1004673392" lon="30.4666150734"><ele>294.78</ele><time>2026-08-20T23:08:21Z</time></trkpt><trkpt lat="59.1004637349" lon="30.4665981419"><ele>294.78</ele><time>2026-08-20T23:08:22Z</time></trkpt><trkpt lat="59.1004566941" lon="30.4665774386"><ele>294.78</ele><time>2026-08-20T23:08:23Z</time></trkpt><trkpt lat="59.1004531737" lon="30.4665643629"><ele>294.78</ele><time>2026-08-20T23:08:24Z</time></trkpt><trkpt lat="59.1004470550" lon="30.4665487725"><ele>294.78</ele><time>2026-08-20T23:08:25Z</time></trkpt><trkpt lat="59.1004433669" lon="30.4665379599"><ele>294.78</ele><time>2026-08-20T23:08:26Z</time></trkpt><trkpt lat="59.1004372481" lon="30.4665250517"><ele>294.78</ele><time>2026-08-20T23:08:27Z</time></trkpt><trkpt lat="59.1004287824" lon="30.4665121436"><ele>294.78</ele><time>2026-08-20T23:08:28Z</time></trkpt><trkpt lat="59.1004223283" lon="30.4665041808"><ele>294.78</ele><time>2026-08-20T23:08:29Z</time></trkpt><trkpt lat="59.1004173830" lon="30.4664997384"><ele>294.78</ele><time>2026-08-20T23:08:30Z</time></trkpt><trkpt lat="59.1004121862" lon="30.4664901830"><ele>294.78</ele><time>2026-08-20T23:08:31Z</time></trkpt><trkpt lat="59.1004122701" lon="30.4664688930"><ele>294.78</ele><time>2026-08-20T23:08:32Z</time></trkpt><trkpt lat="59.1004090849" lon="30.4664534703"><ele>294.78</ele><time>2026-08-20T23:08:33Z</time></trkpt><trkpt lat="59.1004070733" lon="30.4664371256"><ele>294.78</ele><time>2026-08-20T23:08:34Z</time></trkpt><trkpt lat="59.1004055645" lon="30.4664251395"><ele>294.78</ele><time>2026-08-20T23:08:35Z</time></trkpt><trkpt lat="59.1004010383" lon="30.4664118960"><ele>294.78</ele><time>2026-08-20T23:08:36Z</time></trkpt><trkpt lat="59.1003926564" lon="30.4663983174"><ele>294.78</ele><time>2026-08-20T23:08:37Z</time></trkpt><trkpt lat="59.1003870405" lon="30.4663896840"><ele>294.78</ele><time>2026-08-20T23:08:38Z</time></trkpt><trkpt lat="59.1003840230" lon="30.4663878400"><ele>294.78</ele><time>2026-08-20T23:08:39Z</time></trkpt><trkpt lat="59.1003822628" lon="30.4663874209"><ele>294.78</ele><time>2026-08-20T23:08:40Z</time></trkpt><trkpt lat="59.1003822628" lon="30.4663874209"><ele>294.78</ele><time>2026-08-20T23:08:41Z</time></trkpt><trkpt lat="59.1003822628" lon="30.4663874209"><ele>294.78</ele><time>2026-08-20T23:08:42Z</time></trkpt><trkpt lat="59.1003822628" lon="30.4663874209"><ele>294.78</ele><time>2026-08-20T23:08:43Z</time></trkpt><trkpt lat="59.1003822628" lon="30.4663874209"><ele>294.78</ele><time>2026-08-20T23:08:44Z</time></trkpt><trkpt lat="59.1003822628" lon="30.4663874209"><ele>294.78</ele><time>2026-08-20T23:08:45Z</time></trkpt><trkpt lat="59.1003822628" lon="30.4663874209"><ele>294.78</ele><time>2026-08-20T23:08:46Z</time></trkpt><trkpt lat="59.1003822628" lon="30.4663874209"><ele>294.78</ele><time>2026-08-20T23:08:47Z</time></trkpt><trkpt lat="59.1003822628" lon="30.4663874209"><ele>294.78</ele><time>2026-08-20T23:08:48Z</time></trkpt><trkpt lat="59.1003822628" lon="30.4663874209"><ele>294.78</ele><time>2026-08-20T23:08:49Z</time></trkpt><trkpt lat="59.1003822628" lon="30.4663874209"><ele>294.78</ele><time>2026-08-20T23:08:50Z</time></trkpt><trkpt lat="59.1003822628" lon="30.4663874209"><ele>294.78</ele><time>2026-08-20T23:08:51Z</time></trkpt><trkpt lat="59.1003782395" lon="30.4663451761"><ele>294.78</ele><time>2026-08-20T23:08:52Z</time></trkpt><trkpt lat="59.1003819276" lon="30.4663363751"><ele>294.78</ele><time>2026-08-20T23:08:53Z</time></trkpt><trkpt lat="59.1003825981" lon="30.4663259815"><ele>294.78</ele><time>2026-08-20T23:08:54Z</time></trkpt><trkpt lat="59.1003828496" lon="30.4663185216"><ele>294.78</ele><time>2026-08-20T23:08:55Z</time></trkpt><trkpt lat="59.1003826819" lon="30.4663111456"><ele>294.30</ele><time>2026-08-20T23:08:56Z</time></trkpt><trkpt lat="59.1003808379" lon="30.4662890173"><ele>294.30</ele><time>2026-08-20T23:08:57Z</time></trkpt><trkpt lat="59.1003824305" lon="30.4662724212"><ele>294.30</ele><time>2026-08-20T23:08:58Z</time></trkpt><trkpt lat="59.1003835201" lon="30.4662600998"><ele>294.30</ele><time>2026-08-20T23:08:59Z</time></trkpt><trkpt lat="59.1003836878" lon="30.4662563279"><ele>294.30</ele><time>2026-08-20T23:09:00Z</time></trkpt><trkpt lat="59.1003846936" lon="30.4662506282"><ele>294.30</ele><time>2026-08-20T23:09:01Z</time></trkpt><trkpt lat="59.1003832687" lon="30.4662414920"><ele>294.78</ele><time>2026-08-20T23:09:02Z</time></trkpt><trkpt lat="59.1003832687" lon="30.4662414920"><ele>294.78</ele><time>2026-08-20T23:09:03Z</time></trkpt><trkpt lat="59.1003832687" lon="30.4662414920"><ele>294.78</ele><time>2026-08-20T23:09:04Z</time></trkpt><trkpt lat="59.1003832687" lon="30.4662414920"><ele>294.78</ele><time>2026-08-20T23:09:05Z</time></trkpt><trkpt lat="59.1003578715" lon="30.4662192799"><ele>294.78</ele><time>2026-08-20T23:09:06Z</time></trkpt><trkpt lat="59.1003549378" lon="30.4662179388"><ele>294.78</ele><time>2026-08-20T23:09:07Z</time></trkpt><trkpt lat="59.1003508307" lon="30.4662119877"><ele>294.78</ele><time>2026-08-20T23:09:08Z</time></trkpt><trkpt lat="59.1003485676" lon="30.4662050307"><ele>294.78</ele><time>2026-08-20T23:09:09Z</time></trkpt><trkpt lat="59.1003468912" lon="30.4661963973"><ele>294.78</ele><time>2026-08-20T23:09:10Z</time></trkpt><trkpt lat="59.1003452986" lon="30.4661842436"><ele>294.78</ele><time>2026-08-20T23:09:11Z</time></trkpt><trkpt lat="59.1003422812" lon="30.4661746882"><ele>294.78</ele><time>2026-08-20T23:09:12Z</time></trkpt><trkpt lat="59.1003404371" lon="30.4661648814"><ele>294.78</ele><time>2026-08-20T23:09:13Z</time></trkpt><trkpt lat="59.1003385931" lon="30.4661540687"><ele>294.78</ele><time>2026-08-20T23:09:14Z</time></trkpt><trkpt lat="59.1003386769" lon="30.4661403224"><ele>294.78</ele><time>2026-08-20T23:09:15Z</time></trkpt><trkpt lat="59.1003356595" lon="30.4661265761"><ele>294.78</ele><time>2026-08-20T23:09:16Z</time></trkpt><trkpt lat="59.1003298759" lon="30.4661104828"><ele>294.78</ele><time>2026-08-20T23:09:17Z</time></trkpt><trkpt lat="59.1003281996" lon="30.4660980776"><ele>294.78</ele><time>2026-08-20T23:09:18Z</time></trkpt><trkpt lat="59.1003265232" lon="30.4660846666"><ele>294.78</ele><time>2026-08-20T23:09:19Z</time></trkpt><trkpt lat="59.1003258526" lon="30.4660765361"><ele>294.78</ele><time>2026-08-20T23:09:20Z</time></trkpt><trkpt lat="59.1003237572" lon="30.4660694953"><ele>294.78</ele><time>2026-08-20T23:09:21Z</time></trkpt><trkpt lat="59.1003232542" lon="30.4660738539"><ele>294.78</ele><time>2026-08-20T23:09:22Z</time></trkpt><trkpt lat="59.1003224999" lon="30.4660747759"><ele>294.78</ele><time>2026-08-20T23:09:23Z</time></trkpt><trkpt lat="59.1003224999" lon="30.4660747759"><ele>294.78</ele><time>2026-08-20T23:09:24Z</time></trkpt><trkpt lat="59.1003224999" lon="30.4660747759"><ele>294.78</ele><time>2026-08-20T23:09:25Z</time></trkpt><trkpt lat="59.1003224999" lon="30.4660747759"><ele>294.78</ele><time>2026-08-20T23:09:26Z</time></trkpt><trkpt lat="59.1003224999" lon="30.4660747759"><ele>294.78</ele><time>2026-08-20T23:09:27Z</time></trkpt><trkpt lat="59.1003224999" lon="30.4660747759"><ele>294.78</ele><time>2026-08-20T23:09:28Z</time></trkpt><trkpt lat="59.1003277805" lon="30.4660435952"><ele>294.78</ele><time>2026-08-20T23:09:29Z</time></trkpt><trkpt lat="59.1003245953" lon="30.4660318606"><ele>294.78</ele><time>2026-08-20T23:09:30Z</time></trkpt><trkpt lat="59.1003197338" lon="30.4660226405"><ele>294.78</ele><time>2026-08-20T23:09:31Z</time></trkpt><trkpt lat="59.1003147885" lon="30.4660167731"><ele>294.78</ele><time>2026-08-20T23:09:32Z</time></trkpt><trkpt lat="59.1003086697" lon="30.4660125822"><ele>294.78</ele><time>2026-08-20T23:09:33Z</time></trkpt><trkpt lat="59.1003014613" lon="30.4660035297"><ele>294.78</ele><time>2026-08-20T23:09:34Z</time></trkpt><trkpt lat="59.1002938338" lon="30.4660006799"><ele>294.78</ele><time>2026-08-20T23:09:35Z</time></trkpt><trkpt lat="59.1002846975" lon="30.4659984168"><ele>294.78</ele><time>2026-08-20T23:09:36Z</time></trkpt><trkpt lat="59.1002783272" lon="30.4659888614"><ele>294.78</ele><time>2026-08-20T23:09:37Z</time></trkpt><trkpt lat="59.1002724599" lon="30.4659825750"><ele>294.78</ele><time>2026-08-20T23:09:38Z</time></trkpt><trkpt lat="59.1002668440" lon="30.4659743607"><ele>294.78</ele><time>2026-08-20T23:09:39Z</time></trkpt><trkpt lat="59.1002629884" lon="30.4659646377"><ele>294.78</ele><time>2026-08-20T23:09:40Z</time></trkpt><trkpt lat="59.1002636589" lon="30.4659420904"><ele>294.78</ele><time>2026-08-20T23:09:41Z</time></trkpt><trkpt lat="59.1002612282" lon="30.4659328703"><ele>294.30</ele><time>2026-08-20T23:09:42Z</time></trkpt><trkpt lat="59.1002560314" lon="30.4659173638"><ele>294.30</ele><time>2026-08-20T23:09:43Z</time></trkpt><trkpt lat="59.1002515890" lon="30.4659024440"><ele>294.30</ele><time>2026-08-20T23:09:44Z</time></trkpt><trkpt lat="59.1002485715" lon="30.4658834171"><ele>294.30</ele><time>2026-08-20T23:09:45Z</time></trkpt><trkpt lat="59.1002472304" lon="30.4658640549"><ele>294.30</ele><time>2026-08-20T23:09:46Z</time></trkpt><trkpt lat="59.1002488229" lon="30.4658415914"><ele>294.30</ele><time>2026-08-20T23:09:47Z</time></trkpt><trkpt lat="59.1002487391" lon="30.4658200499"><ele>294.30</ele><time>2026-08-20T23:09:48Z</time></trkpt><trkpt lat="59.1002483200" lon="30.4658054654"><ele>294.30</ele><time>2026-08-20T23:09:49Z</time></trkpt><trkpt lat="59.1002496611" lon="30.4657978378"><ele>294.30</ele><time>2026-08-20T23:09:50Z</time></trkpt><trkpt lat="59.1002477333" lon="30.4657828342"><ele>294.30</ele><time>2026-08-20T23:09:51Z</time></trkpt><trkpt lat="59.1002467275" lon="30.4657689203"><ele>294.30</ele><time>2026-08-20T23:09:52Z</time></trkpt><trkpt lat="59.1002452187" lon="30.4657566827"><ele>294.30</ele><time>2026-08-20T23:09:53Z</time></trkpt><trkpt lat="59.1002425365" lon="30.4657427687"><ele>294.30</ele><time>2026-08-20T23:09:54Z</time></trkpt><trkpt lat="59.1002378426" lon="30.4657302797"><ele>294.30</ele><time>2026-08-20T23:09:55Z</time></trkpt><trkpt lat="59.1002336517" lon="30.4657206405"><ele>294.30</ele><time>2026-08-20T23:09:56Z</time></trkpt><trkpt lat="59.1002300475" lon="30.4657095764"><ele>294.30</ele><time>2026-08-20T23:09:57Z</time></trkpt><trkpt lat="59.1002292931" lon="30.4656982608"><ele>294.30</ele><time>2026-08-20T23:09:58Z</time></trkpt><trkpt lat="59.1002272815" lon="30.4656863585"><ele>294.30</ele><time>2026-08-20T23:09:59Z</time></trkpt><trkpt lat="59.1002262756" lon="30.4656681698"><ele>294.30</ele><time>2026-08-20T23:10:00Z</time></trkpt><trkpt lat="59.1002298798" lon="30.4656496458"><ele>294.30</ele><time>2026-08-20T23:10:01Z</time></trkpt><trkpt lat="59.1002304666" lon="30.4656333849"><ele>294.30</ele><time>2026-08-20T23:10:02Z</time></trkpt><trkpt lat="59.1002353281" lon="30.4656171240"><ele>294.30</ele><time>2026-08-20T23:10:03Z</time></trkpt><trkpt lat="59.1002378426" lon="30.4656068981"><ele>294.30</ele><time>2026-08-20T23:10:04Z</time></trkpt><trkpt lat="59.1002388485" lon="30.4655935708"><ele>294.30</ele><time>2026-08-20T23:10:05Z</time></trkpt><trkpt lat="59.1002408601" lon="30.4655837640"><ele>294.30</ele><time>2026-08-20T23:10:06Z</time></trkpt><trkpt lat="59.1002436262" lon="30.4655686766"><ele>294.30</ele><time>2026-08-20T23:10:07Z</time></trkpt><trkpt lat="59.1002452187" lon="30.4655511584"><ele>294.30</ele><time>2026-08-20T23:10:08Z</time></trkpt><trkpt lat="59.1002439614" lon="30.4655354843"><ele>294.30</ele><time>2026-08-20T23:10:09Z</time></trkpt><trkpt lat="59.1002456378" lon="30.4655236658"><ele>294.30</ele><time>2026-08-20T23:10:10Z</time></trkpt><trkpt lat="59.1002455540" lon="30.4655077402"><ele>294.30</ele><time>2026-08-20T23:10:11Z</time></trkpt><trkpt lat="59.1002448834" lon="30.4654949997"><ele>294.30</ele><time>2026-08-20T23:10:12Z</time></trkpt><trkpt lat="59.1002459731" lon="30.4654816724"><ele>294.30</ele><time>2026-08-20T23:10:13Z</time></trkpt><trkpt lat="59.1002482362" lon="30.4654632322"><ele>294.30</ele><time>2026-08-20T23:10:14Z</time></trkpt><trkpt lat="59.1002530977" lon="30.4654467199"><ele>294.30</ele><time>2026-08-20T23:10:15Z</time></trkpt><trkpt lat="59.1002555285" lon="30.4654328898"><ele>294.30</ele><time>2026-08-20T23:10:16Z</time></trkpt><trkpt lat="59.1002482362" lon="30.4654212389"><ele>294.30</ele><time>2026-08-20T23:10:17Z</time></trkpt><trkpt lat="59.1002437938" lon="30.4654098395"><ele>294.30</ele><time>2026-08-20T23:10:18Z</time></trkpt><trkpt lat="59.1002384294" lon="30.4653954227"><ele>294.30</ele><time>2026-08-20T23:10:19Z</time></trkpt><trkpt lat="59.1002371721" lon="30.4653841909"><ele>294.30</ele><time>2026-08-20T23:10:20Z</time></trkpt><trkpt lat="59.1002350766" lon="30.4653713666"><ele>294.30</ele><time>2026-08-20T23:10:21Z</time></trkpt><trkpt lat="59.1002313886" lon="30.4653543513"><ele>294.30</ele><time>2026-08-20T23:10:22Z</time></trkpt><trkpt lat="59.1002293769" lon="30.4653418623"><ele>294.30</ele><time>2026-08-20T23:10:23Z</time></trkpt><trkpt lat="59.1002270300" lon="30.4653269425"><ele>294.30</ele><time>2026-08-20T23:10:24Z</time></trkpt><trkpt lat="59.1002269462" lon="30.4653101787"><ele>294.30</ele><time>2026-08-20T23:10:25Z</time></trkpt><trkpt lat="59.1002255213" lon="30.4653002881"><ele>294.30</ele><time>2026-08-20T23:10:26Z</time></trkpt><trkpt lat="59.1002252698" lon="30.4652967677"><ele>294.30</ele><time>2026-08-20T23:10:27Z</time></trkpt><trkpt lat="59.1002224199" lon="30.4652923252"><ele>294.30</ele><time>2026-08-20T23:10:28Z</time></trkpt><trkpt lat="59.1002224199" lon="30.4652923252"><ele>294.30</ele><time>2026-08-20T23:10:29Z</time></trkpt><trkpt lat="59.1002224199" lon="30.4652923252"><ele>294.30</ele><time>2026-08-20T23:10:30Z</time></trkpt><trkpt lat="59.1002200730" lon="30.4652806744"><ele>294.30</ele><time>2026-08-20T23:10:31Z</time></trkpt><trkpt lat="59.1002185643" lon="30.4652679339"><ele>294.30</ele><time>2026-08-20T23:10:32Z</time></trkpt><trkpt lat="59.1002151277" lon="30.4652563669"><ele>294.30</ele><time>2026-08-20T23:10:33Z</time></trkpt><trkpt lat="59.1002132837" lon="30.4652465601"><ele>294.30</ele><time>2026-08-20T23:10:34Z</time></trkpt><trkpt lat="59.1002089251" lon="30.4652274493"><ele>294.30</ele><time>2026-08-20T23:10:35Z</time></trkpt><trkpt lat="59.1002070811" lon="30.4652157985"><ele>294.30</ele><time>2026-08-20T23:10:36Z</time></trkpt><trkpt lat="59.1002026387" lon="30.4652023874"><ele>294.30</ele><time>2026-08-20T23:10:37Z</time></trkpt><trkpt lat="59.1001993697" lon="30.4651807621"><ele>294.30</ele><time>2026-08-20T23:10:38Z</time></trkpt><trkpt lat="59.1001978610" lon="30.4651587177"><ele>294.30</ele><time>2026-08-20T23:10:39Z</time></trkpt><trkpt lat="59.1001967713" lon="30.4651404452"><ele>294.30</ele><time>2026-08-20T23:10:40Z</time></trkpt><trkpt lat="59.1001947597" lon="30.4651186522"><ele>294.30</ele><time>2026-08-20T23:10:41Z</time></trkpt><trkpt lat="59.1001933347" lon="30.4650913272"><ele>294.30</ele><time>2026-08-20T23:10:42Z</time></trkpt><trkpt lat="59.1001916584" lon="30.4650655948"><ele>294.30</ele><time>2026-08-20T23:10:43Z</time></trkpt><trkpt lat="59.1001900658" lon="30.4650411196"><ele>294.30</ele><time>2026-08-20T23:10:44Z</time></trkpt><trkpt lat="59.1001876350" lon="30.4650188237"><ele>294.30</ele><time>2026-08-20T23:10:45Z</time></trkpt><trkpt lat="59.1001854558" lon="30.4649973661"><ele>294.30</ele><time>2026-08-20T23:10:46Z</time></trkpt><trkpt lat="59.1001827735" lon="30.4649774171"><ele>294.30</ele><time>2026-08-20T23:10:47Z</time></trkpt><trkpt lat="59.1001784988" lon="30.4649562947"><ele>294.30</ele><time>2026-08-20T23:10:48Z</time></trkpt><trkpt lat="59.1001743916" lon="30.4649334960"><ele>293.82</ele><time>2026-08-20T23:10:49Z</time></trkpt><trkpt lat="59.1001717933" lon="30.4649106972"><ele>293.82</ele><time>2026-08-20T23:10:50Z</time></trkpt><trkpt lat="59.1001687758" lon="30.4648882337"><ele>293.82</ele><time>2026-08-20T23:10:51Z</time></trkpt><trkpt lat="59.1001640819" lon="30.4648697935"><ele>293.82</ele><time>2026-08-20T23:10:52Z</time></trkpt><trkpt lat="59.1001595557" lon="30.4648520239"><ele>293.82</ele><time>2026-08-20T23:10:53Z</time></trkpt><trkpt lat="59.1001553647" lon="30.4648319911"><ele>293.82</ele><time>2026-08-20T23:10:54Z</time></trkpt><trkpt lat="59.1001485754" lon="30.4648124613"><ele>293.82</ele><time>2026-08-20T23:10:55Z</time></trkpt><trkpt lat="59.1001442168" lon="30.4647970386"><ele>293.82</ele><time>2026-08-20T23:10:56Z</time></trkpt><trkpt lat="59.1001381818" lon="30.4647789337"><ele>293.82</ele><time>2026-08-20T23:10:57Z</time></trkpt><trkpt lat="59.1001323983" lon="30.4647617508"><ele>293.82</ele><time>2026-08-20T23:10:58Z</time></trkpt><trkpt lat="59.1001262795" lon="30.4647403769"><ele>293.82</ele><time>2026-08-20T23:10:59Z</time></trkpt><trkpt lat="59.1001223400" lon="30.4647233617"><ele>293.82</ele><time>2026-08-20T23:11:00Z</time></trkpt><trkpt lat="59.1001166403" lon="30.4647086933"><ele>293.82</ele><time>2026-08-20T23:11:01Z</time></trkpt><trkpt lat="59.1001068335" lon="30.4646992218"><ele>293.82</ele><time>2026-08-20T23:11:02Z</time></trkpt><trkpt lat="59.1001000442" lon="30.4646878224"><ele>293.82</ele><time>2026-08-20T23:11:03Z</time></trkpt><trkpt lat="59.1000945959" lon="30.4646754172"><ele>293.82</ele><time>2026-08-20T23:11:04Z</time></trkpt><trkpt lat="59.1000891477" lon="30.4646596592"><ele>293.82</ele><time>2026-08-20T23:11:05Z</time></trkpt><trkpt lat="59.1000850406" lon="30.4646435659"><ele>293.82</ele><time>2026-08-20T23:11:06Z</time></trkpt><trkpt lat="59.1000798438" lon="30.4646303225"><ele>293.82</ele><time>2026-08-20T23:11:07Z</time></trkpt><trkpt lat="59.1000733897" lon="30.4646201804"><ele>293.82</ele><time>2026-08-20T23:11:08Z</time></trkpt><trkpt lat="59.1000673547" lon="30.4646086972"><ele>293.82</ele><time>2026-08-20T23:11:09Z</time></trkpt><trkpt lat="59.1000596434" lon="30.4645998962"><ele>293.82</ele><time>2026-08-20T23:11:10Z</time></trkpt><trkpt lat="59.1000509262" lon="30.4645901732"><ele>293.82</ele><time>2026-08-20T23:11:11Z</time></trkpt><trkpt lat="59.1000425443" lon="30.4645819589"><ele>293.82</ele><time>2026-08-20T23:11:12Z</time></trkpt><trkpt lat="59.1000354197" lon="30.4645740800"><ele>293.82</ele><time>2026-08-20T23:11:13Z</time></trkpt><trkpt lat="59.1000275407" lon="30.4645641893"><ele>293.82</ele><time>2026-08-20T23:11:14Z</time></trkpt><trkpt lat="59.1000216734" lon="30.4645517841"><ele>293.82</ele><time>2026-08-20T23:11:15Z</time></trkpt><trkpt lat="59.1000157222" lon="30.4645409714"><ele>293.82</ele><time>2026-08-20T23:11:16Z</time></trkpt><trkpt lat="59.1000104416" lon="30.4645271413"><ele>293.82</ele><time>2026-08-20T23:11:17Z</time></trkpt><trkpt lat="59.1000038199" lon="30.4645170830"><ele>293.82</ele><time>2026-08-20T23:11:18Z</time></trkpt><trkpt lat="59.0999975335" lon="30.4645033367"><ele>293.82</ele><time>2026-08-20T23:11:19Z</time></trkpt><trkpt lat="59.0999934264" lon="30.4644884169"><ele>293.82</ele><time>2026-08-20T23:11:20Z</time></trkpt><trkpt lat="59.0999879781" lon="30.4644756764"><ele>293.82</ele><time>2026-08-20T23:11:21Z</time></trkpt><trkpt lat="59.0999835357" lon="30.4644631874"><ele>293.82</ele><time>2026-08-20T23:11:22Z</time></trkpt><trkpt lat="59.0999793448" lon="30.4644508660"><ele>293.34</ele><time>2026-08-20T23:11:23Z</time></trkpt><trkpt lat="59.0999753214" lon="30.4644359462"><ele>293.34</ele><time>2026-08-20T23:11:24Z</time></trkpt><trkpt lat="59.0999730583" lon="30.4644196853"><ele>293.34</ele><time>2026-08-20T23:11:25Z</time></trkpt><trkpt lat="59.0999711305" lon="30.4644029215"><ele>293.34</ele><time>2026-08-20T23:11:26Z</time></trkpt><trkpt lat="59.0999674425" lon="30.4643875826"><ele>293.34</ele><time>2026-08-20T23:11:27Z</time></trkpt><trkpt lat="59.0999658499" lon="30.4643789493"><ele>293.34</ele><time>2026-08-20T23:11:28Z</time></trkpt><trkpt lat="59.0999611560" lon="30.4643677175"><ele>293.34</ele><time>2026-08-20T23:11:29Z</time></trkpt><trkpt lat="59.0999598987" lon="30.4643542226"><ele>293.34</ele><time>2026-08-20T23:11:30Z</time></trkpt><trkpt lat="59.0999578871" lon="30.4643410631"><ele>293.34</ele><time>2026-08-20T23:11:31Z</time></trkpt><trkpt lat="59.0999564622" lon="30.4643286578"><ele>293.34</ele><time>2026-08-20T23:11:32Z</time></trkpt><trkpt lat="59.0999540314" lon="30.4643153306"><ele>293.34</ele><time>2026-08-20T23:11:33Z</time></trkpt><trkpt lat="59.0999506786" lon="30.4643062782"><ele>293.34</ele><time>2026-08-20T23:11:34Z</time></trkpt><trkpt lat="59.0999462362" lon="30.4643038474"><ele>293.34</ele><time>2026-08-20T23:11:35Z</time></trkpt><trkpt lat="59.0999462362" lon="30.4643038474"><ele>293.34</ele><time>2026-08-20T23:11:36Z</time></trkpt><trkpt lat="59.0999462362" lon="30.4643038474"><ele>293.34</ele><time>2026-08-20T23:11:37Z</time></trkpt><trkpt lat="59.0999319870" lon="30.4642863292"><ele>293.34</ele><time>2026-08-20T23:11:38Z</time></trkpt><trkpt lat="59.0999284666" lon="30.4642788693"><ele>293.34</ele><time>2026-08-20T23:11:39Z</time></trkpt><trkpt lat="59.0999243595" lon="30.4642709903"><ele>293.34</ele><time>2026-08-20T23:11:40Z</time></trkpt><trkpt lat="59.0999220964" lon="30.4642537236"><ele>293.34</ele><time>2026-08-20T23:11:41Z</time></trkpt><trkpt lat="59.0999226831" lon="30.4642360378"><ele>293.34</ele><time>2026-08-20T23:11:42Z</time></trkpt><trkpt lat="59.0999223478" lon="30.4642203636"><ele>293.34</ele><time>2026-08-20T23:11:43Z</time></trkpt><trkpt lat="59.0999248624" lon="30.4642032646"><ele>293.34</ele><time>2026-08-20T23:11:44Z</time></trkpt><trkpt lat="59.0999238566" lon="30.4641845729"><ele>293.34</ele><time>2026-08-20T23:11:45Z</time></trkpt><trkpt lat="59.0999265388" lon="30.4641712457"><ele>293.34</ele><time>2026-08-20T23:11:46Z</time></trkpt><trkpt lat="59.0999287181" lon="30.4641592596"><ele>293.34</ele><time>2026-08-20T23:11:47Z</time></trkpt><trkpt lat="59.0999288857" lon="30.4641506262"><ele>293.34</ele><time>2026-08-20T23:11:48Z</time></trkpt><trkpt lat="59.0999299753" lon="30.4641424958"><ele>293.34</ele><time>2026-08-20T23:11:49Z</time></trkpt><trkpt lat="59.0999314841" lon="30.4641335271"><ele>293.34</ele><time>2026-08-20T23:11:50Z</time></trkpt><trkpt lat="59.0999311488" lon="30.4641343653"><ele>293.34</ele><time>2026-08-20T23:11:51Z</time></trkpt><trkpt lat="59.0999276284" lon="30.4641254805"><ele>293.34</ele><time>2026-08-20T23:11:52Z</time></trkpt><trkpt lat="59.0999245271" lon="30.4641182721"><ele>293.34</ele><time>2026-08-20T23:11:53Z</time></trkpt><trkpt lat="59.0999249462" lon="30.4641135782"><ele>293.34</ele><time>2026-08-20T23:11:54Z</time></trkpt><trkpt lat="59.0999255329" lon="30.4641081300"><ele>293.34</ele><time>2026-08-20T23:11:55Z</time></trkpt><trkpt lat="59.0999248624" lon="30.4641028494"><ele>293.34</ele><time>2026-08-20T23:11:56Z</time></trkpt><trkpt lat="59.0999248624" lon="30.4641028494"><ele>293.34</ele><time>2026-08-20T23:11:57Z</time></trkpt><trkpt lat="59.0999248624" lon="30.4641028494"><ele>293.34</ele><time>2026-08-20T23:11:58Z</time></trkpt><trkpt lat="59.0999248624" lon="30.4641028494"><ele>293.34</ele><time>2026-08-20T23:11:59Z</time></trkpt><trkpt lat="59.0999248624" lon="30.4641028494"><ele>293.34</ele><time>2026-08-20T23:12:00Z</time></trkpt><trkpt lat="59.0999248624" lon="30.4641028494"><ele>293.34</ele><time>2026-08-20T23:12:01Z</time></trkpt><trkpt lat="59.0999248624" lon="30.4641028494"><ele>293.34</ele><time>2026-08-20T23:12:02Z</time></trkpt><trkpt lat="59.0999199171" lon="30.4640481994"><ele>293.34</ele><time>2026-08-20T23:12:03Z</time></trkpt><trkpt lat="59.0999136306" lon="30.4640341178"><ele>293.34</ele><time>2026-08-20T23:12:04Z</time></trkpt><trkpt lat="59.0999103617" lon="30.4640231375"><ele>292.86</ele><time>2026-08-20T23:12:05Z</time></trkpt><trkpt lat="59.0999080986" lon="30.4640139174"><ele>292.86</ele><time>2026-08-20T23:12:06Z</time></trkpt><trkpt lat="59.0999048296" lon="30.4640029371"><ele>293.34</ele><time>2026-08-20T23:12:07Z</time></trkpt><trkpt lat="59.0999022312" lon="30.4639943875"><ele>293.34</ele><time>2026-08-20T23:12:08Z</time></trkpt><trkpt lat="59.0998970345" lon="30.4639872629"><ele>293.34</ele><time>2026-08-20T23:12:09Z</time></trkpt><trkpt lat="59.0998914186" lon="30.4639808927"><ele>293.34</ele><time>2026-08-20T23:12:10Z</time></trkpt><trkpt lat="59.0998869762" lon="30.4639755283"><ele>293.34</ele><time>2026-08-20T23:12:11Z</time></trkpt><trkpt lat="59.0998794325" lon="30.4639576748"><ele>293.34</ele><time>2026-08-20T23:12:12Z</time></trkpt><trkpt lat="59.0998735651" lon="30.4639473651"><ele>293.34</ele><time>2026-08-20T23:12:13Z</time></trkpt><trkpt lat="59.0998673625" lon="30.4639375582"><ele>293.34</ele><time>2026-08-20T23:12:14Z</time></trkpt><trkpt lat="59.0998626687" lon="30.4639293440"><ele>293.34</ele><time>2026-08-20T23:12:15Z</time></trkpt><trkpt lat="59.0998598188" lon="30.4639179446"><ele>293.34</ele><time>2026-08-20T23:12:16Z</time></trkpt><trkpt lat="59.0998548735" lon="30.4639053717"><ele>293.34</ele><time>2026-08-20T23:12:17Z</time></trkpt><trkpt lat="59.0998503473" lon="30.4638943914"><ele>293.34</ele><time>2026-08-20T23:12:18Z</time></trkpt><trkpt lat="59.0998476651" lon="30.4638811480"><ele>293.34</ele><time>2026-08-20T23:12:19Z</time></trkpt><trkpt lat="59.0998443961" lon="30.4638687428"><ele>293.34</ele><time>2026-08-20T23:12:20Z</time></trkpt><trkpt lat="59.0998418815" lon="30.4638550803"><ele>293.34</ele><time>2026-08-20T23:12:21Z</time></trkpt><trkpt lat="59.0998393670" lon="30.4638398252"><ele>293.34</ele><time>2026-08-20T23:12:22Z</time></trkpt><trkpt lat="59.0998393670" lon="30.4638226423"><ele>293.34</ele><time>2026-08-20T23:12:23Z</time></trkpt><trkpt lat="59.0998388641" lon="30.4638045374"><ele>293.34</ele><time>2026-08-20T23:12:24Z</time></trkpt><trkpt lat="59.0998358466" lon="30.4637903720"><ele>293.34</ele><time>2026-08-20T23:12:25Z</time></trkpt><trkpt lat="59.0998338349" lon="30.4637696687"><ele>293.34</ele><time>2026-08-20T23:12:26Z</time></trkpt><trkpt lat="59.0998307336" lon="30.4637487978"><ele>293.34</ele><time>2026-08-20T23:12:27Z</time></trkpt><trkpt lat="59.0998293925" lon="30.4637333751"><ele>293.34</ele><time>2026-08-20T23:12:28Z</time></trkpt><trkpt lat="59.0998297278" lon="30.4637163598"><ele>293.34</ele><time>2026-08-20T23:12:29Z</time></trkpt><trkpt lat="59.0998309851" lon="30.4636981711"><ele>293.34</ele><time>2026-08-20T23:12:30Z</time></trkpt><trkpt lat="59.0998310689" lon="30.4636779707"><ele>293.34</ele><time>2026-08-20T23:12:31Z</time></trkpt><trkpt lat="59.0998327453" lon="30.4636588600"><ele>293.34</ele><time>2026-08-20T23:12:32Z</time></trkpt><trkpt lat="59.0998369362" lon="30.4636432696"><ele>293.34</ele><time>2026-08-20T23:12:33Z</time></trkpt><trkpt lat="59.0998384450" lon="30.4636326246"><ele>293.34</ele><time>2026-08-20T23:12:34Z</time></trkpt><trkpt lat="59.0998426359" lon="30.4636146873"><ele>293.34</ele><time>2026-08-20T23:12:35Z</time></trkpt><trkpt lat="59.0998481680" lon="30.4635984264"><ele>293.34</ele><time>2026-08-20T23:12:36Z</time></trkpt><trkpt lat="59.0998508502" lon="30.4635780584"><ele>293.34</ele><time>2026-08-20T23:12:37Z</time></trkpt><trkpt lat="59.0998567175" lon="30.4635583609"><ele>293.34</ele><time>2026-08-20T23:12:38Z</time></trkpt><trkpt lat="59.0998637583" lon="30.4635376576"><ele>293.34</ele><time>2026-08-20T23:12:39Z</time></trkpt><trkpt lat="59.0998701286" lon="30.4635188822"><ele>293.34</ele><time>2026-08-20T23:12:40Z</time></trkpt><trkpt lat="59.0998757444" lon="30.4635034595"><ele>293.34</ele><time>2026-08-20T23:12:41Z</time></trkpt><trkpt lat="59.0998824500" lon="30.4634876177"><ele>293.34</ele><time>2026-08-20T23:12:42Z</time></trkpt><trkpt lat="59.0998875629" lon="30.4634724464"><ele>293.34</ele><time>2026-08-20T23:12:43Z</time></trkpt><trkpt lat="59.0998897422" lon="30.4634565208"><ele>293.34</ele><time>2026-08-20T23:12:44Z</time></trkpt><trkpt lat="59.0998942684" lon="30.4634432774"><ele>293.34</ele><time>2026-08-20T23:12:45Z</time></trkpt><trkpt lat="59.0998998843" lon="30.4634282738"><ele>293.34</ele><time>2026-08-20T23:12:46Z</time></trkpt><trkpt lat="59.0999033209" lon="30.4634125996"><ele>293.34</ele><time>2026-08-20T23:12:47Z</time></trkpt><trkpt lat="59.0999094397" lon="30.4633943271"><ele>293.34</ele><time>2026-08-20T23:12:48Z</time></trkpt><trkpt lat="59.0999184921" lon="30.4633720312"><ele>293.34</ele><time>2026-08-20T23:12:49Z</time></trkpt><trkpt lat="59.0999241918" lon="30.4633470532"><ele>293.34</ele><time>2026-08-20T23:12:50Z</time></trkpt><trkpt lat="59.0999289695" lon="30.4633170459"><ele>293.34</ele><time>2026-08-20T23:12:51Z</time></trkpt><trkpt lat="59.0999343339" lon="30.4632966779"><ele>293.34</ele><time>2026-08-20T23:12:52Z</time></trkpt><trkpt lat="59.0999378543" lon="30.4632737953"><ele>293.34</ele><time>2026-08-20T23:12:53Z</time></trkpt><trkpt lat="59.0999431349" lon="30.4632562771"><ele>293.34</ele><time>2026-08-20T23:12:54Z</time></trkpt><trkpt lat="59.0999477450" lon="30.4632387590"><ele>293.34</ele><time>2026-08-20T23:12:55Z</time></trkpt><trkpt lat="59.0999521874" lon="30.4632222466"><ele>293.34</ele><time>2026-08-20T23:12:56Z</time></trkpt><trkpt lat="59.0999548696" lon="30.4632059857"><ele>293.34</ele><time>2026-08-20T23:12:57Z</time></trkpt><trkpt lat="59.0999592282" lon="30.4631956760"><ele>293.34</ele><time>2026-08-20T23:12:58Z</time></trkpt><trkpt lat="59.0999633353" lon="30.4631790798"><ele>293.34</ele><time>2026-08-20T23:12:59Z</time></trkpt><trkpt lat="59.0999653470" lon="30.4631571192"><ele>293.34</ele><time>2026-08-20T23:13:00Z</time></trkpt><trkpt lat="59.0999671910" lon="30.4631393496"><ele>293.34</ele><time>2026-08-20T23:13:01Z</time></trkpt><trkpt lat="59.0999673586" lon="30.4631218314"><ele>293.34</ele><time>2026-08-20T23:13:02Z</time></trkpt><trkpt lat="59.0999654308" lon="30.4631032236"><ele>293.34</ele><time>2026-08-20T23:13:03Z</time></trkpt><trkpt lat="59.0999669395" lon="30.4630866274"><ele>293.34</ele><time>2026-08-20T23:13:04Z</time></trkpt><trkpt lat="59.0999675263" lon="30.4630665947"><ele>293.34</ele><time>2026-08-20T23:13:05Z</time></trkpt><trkpt lat="59.0999692865" lon="30.4630447179"><ele>293.34</ele><time>2026-08-20T23:13:06Z</time></trkpt><trkpt lat="59.0999710467" lon="30.4630231764"><ele>293.34</ele><time>2026-08-20T23:13:07Z</time></trkpt><trkpt lat="59.0999712981" lon="30.4630009644"><ele>293.34</ele><time>2026-08-20T23:13:08Z</time></trkpt><trkpt lat="59.0999739803" lon="30.4629818536"><ele>293.34</ele><time>2026-08-20T23:13:09Z</time></trkpt><trkpt lat="59.0999757405" lon="30.4629599769"><ele>293.34</ele><time>2026-08-20T23:13:10Z</time></trkpt><trkpt lat="59.0999765787" lon="30.4629429616"><ele>293.34</ele><time>2026-08-20T23:13:11Z</time></trkpt><trkpt lat="59.0999754891" lon="30.4629261978"><ele>293.34</ele><time>2026-08-20T23:13:12Z</time></trkpt><trkpt lat="59.0999757405" lon="30.4629136249"><ele>293.34</ele><time>2026-08-20T23:13:13Z</time></trkpt><trkpt lat="59.0999765787" lon="30.4628995433"><ele>293.34</ele><time>2026-08-20T23:13:14Z</time></trkpt><trkpt lat="59.0999752376" lon="30.4628834501"><ele>293.34</ele><time>2026-08-20T23:13:15Z</time></trkpt><trkpt lat="59.0999761596" lon="30.4628664348"><ele>293.34</ele><time>2026-08-20T23:13:16Z</time></trkpt><trkpt lat="59.0999771655" lon="30.4628512636"><ele>293.34</ele><time>2026-08-20T23:13:17Z</time></trkpt><trkpt lat="59.0999761596" lon="30.4628355894"><ele>293.34</ele><time>2026-08-20T23:13:18Z</time></trkpt><trkpt lat="59.0999739803" lon="30.4628181551"><ele>293.34</ele><time>2026-08-20T23:13:19Z</time></trkpt><trkpt lat="59.0999695379" lon="30.4628010560"><ele>293.34</ele><time>2026-08-20T23:13:20Z</time></trkpt><trkpt lat="59.0999668557" lon="30.4627928417"><ele>293.34</ele><time>2026-08-20T23:13:21Z</time></trkpt><trkpt lat="59.0999669395" lon="30.4627841245"><ele>293.34</ele><time>2026-08-20T23:13:22Z</time></trkpt><trkpt lat="59.0999669395" lon="30.4627841245"><ele>293.34</ele><time>2026-08-20T23:13:23Z</time></trkpt><trkpt lat="59.0999669395" lon="30.4627841245"><ele>293.34</ele><time>2026-08-20T23:13:24Z</time></trkpt><trkpt lat="59.0999669395" lon="30.4627841245"><ele>293.34</ele><time>2026-08-20T23:13:25Z</time></trkpt><trkpt lat="59.0999669395" lon="30.4627841245"><ele>293.34</ele><time>2026-08-20T23:13:26Z</time></trkpt><trkpt lat="59.0999669395" lon="30.4627841245"><ele>293.34</ele><time>2026-08-20T23:13:27Z</time></trkpt><trkpt lat="59.0999669395" lon="30.4627841245"><ele>293.34</ele><time>2026-08-20T23:13:28Z</time></trkpt><trkpt lat="59.0999669395" lon="30.4627841245"><ele>293.34</ele><time>2026-08-20T23:13:29Z</time></trkpt><trkpt lat="59.0999669395" lon="30.4627841245"><ele>293.34</ele><time>2026-08-20T23:13:30Z</time></trkpt><trkpt lat="59.0999669395" lon="30.4627841245"><ele>293.34</ele><time>2026-08-20T23:13:31Z</time></trkpt><trkpt lat="59.0999669395" lon="30.4627841245"><ele>293.34</ele><time>2026-08-20T23:13:32Z</time></trkpt><trkpt lat="59.0999669395" lon="30.4627841245"><ele>293.34</ele><time>2026-08-20T23:13:33Z</time></trkpt><trkpt lat="59.0999669395" lon="30.4627841245"><ele>293.34</ele><time>2026-08-20T23:13:34Z</time></trkpt><trkpt lat="59.0999669395" lon="30.4627841245"><ele>293.34</ele><time>2026-08-20T23:13:35Z</time></trkpt><trkpt lat="59.0999669395" lon="30.4627841245"><ele>293.34</ele><time>2026-08-20T23:13:36Z</time></trkpt><trkpt lat="59.0999669395" lon="30.4627841245"><ele>293.34</ele><time>2026-08-20T23:13:37Z</time></trkpt><trkpt lat="59.0999669395" lon="30.4627841245"><ele>293.34</ele><time>2026-08-20T23:13:38Z</time></trkpt><trkpt lat="59.0999669395" lon="30.4627841245"><ele>293.34</ele><time>2026-08-20T23:13:39Z</time></trkpt><trkpt lat="59.0999669395" lon="30.4627841245"><ele>293.34</ele><time>2026-08-20T23:13:40Z</time></trkpt><trkpt lat="59.0999669395" lon="30.4627841245"><ele>293.34</ele><time>2026-08-20T23:13:41Z</time></trkpt><trkpt lat="59.0999669395" lon="30.4627841245"><ele>293.34</ele><time>2026-08-20T23:13:42Z</time></trkpt><trkpt lat="59.0999669395" lon="30.4627841245"><ele>293.34</ele><time>2026-08-20T23:13:43Z</time></trkpt><trkpt lat="59.0999669395" lon="30.4627841245"><ele>293.34</ele><time>2026-08-20T23:13:44Z</time></trkpt><trkpt lat="59.0999669395" lon="30.4627841245"><ele>293.34</ele><time>2026-08-20T23:13:45Z</time></trkpt><trkpt lat="59.0999669395" lon="30.4627841245"><ele>293.34</ele><time>2026-08-20T23:13:46Z</time></trkpt><trkpt lat="59.0999669395" lon="30.4627841245"><ele>293.34</ele><time>2026-08-20T23:13:47Z</time></trkpt><trkpt lat="59.0999669395" lon="30.4627841245"><ele>293.34</ele><time>2026-08-20T23:13:48Z</time></trkpt><trkpt lat="59.0999669395" lon="30.4627841245"><ele>293.34</ele><time>2026-08-20T23:13:49Z</time></trkpt><trkpt lat="59.0999669395" lon="30.4627841245"><ele>293.34</ele><time>2026-08-20T23:13:50Z</time></trkpt><trkpt lat="59.0999669395" lon="30.4627841245"><ele>293.34</ele><time>2026-08-20T23:13:51Z</time></trkpt><trkpt lat="59.0999669395" lon="30.4627841245"><ele>293.34</ele><time>2026-08-20T23:13:52Z</time></trkpt><trkpt lat="59.0999669395" lon="30.4627841245"><ele>293.34</ele><time>2026-08-20T23:13:53Z</time></trkpt><trkpt lat="59.0999669395" lon="30.4627841245"><ele>293.34</ele><time>2026-08-20T23:13:54Z</time></trkpt><trkpt lat="59.0999669395" lon="30.4627841245"><ele>293.34</ele><time>2026-08-20T23:13:55Z</time></trkpt><trkpt lat="59.0999669395" lon="30.4627841245"><ele>293.34</ele><time>2026-08-20T23:13:56Z</time></trkpt><trkpt lat="59.0999669395" lon="30.4627841245"><ele>293.34</ele><time>2026-08-20T23:13:57Z</time></trkpt><trkpt lat="59.0999669395" lon="30.4627841245"><ele>293.34</ele><time>2026-08-20T23:13:58Z</time></trkpt><trkpt lat="59.0999669395" lon="30.4627841245"><ele>293.34</ele><time>2026-08-20T23:13:59Z</time></trkpt><trkpt lat="59.0999669395" lon="30.4627841245"><ele>293.34</ele><time>2026-08-20T23:14:00Z</time></trkpt><trkpt lat="59.0999669395" lon="30.4627841245"><ele>293.34</ele><time>2026-08-20T23:14:01Z</time></trkpt><trkpt lat="59.0999669395" lon="30.4627841245"><ele>293.34</ele><time>2026-08-20T23:14:02Z</time></trkpt><trkpt lat="59.0999669395" lon="30.4627841245"><ele>293.34</ele><time>2026-08-20T23:14:03Z</time></trkpt><trkpt lat="59.0999669395" lon="30.4627841245"><ele>293.34</ele><time>2026-08-20T23:14:04Z</time></trkpt><trkpt lat="59.0999669395" lon="30.4627841245"><ele>293.34</ele><time>2026-08-20T23:14:05Z</time></trkpt><trkpt lat="59.0999669395" lon="30.4627841245"><ele>293.34</ele><time>2026-08-20T23:14:06Z</time></trkpt><trkpt lat="59.0999669395" lon="30.4627841245"><ele>293.34</ele><time>2026-08-20T23:14:07Z</time></trkpt><trkpt lat="59.0999669395" lon="30.4627841245"><ele>293.34</ele><time>2026-08-20T23:14:08Z</time></trkpt><trkpt lat="59.0999669395" lon="30.4627841245"><ele>293.34</ele><time>2026-08-20T23:14:09Z</time></trkpt><trkpt lat="59.0999669395" lon="30.4627841245"><ele>293.34</ele><time>2026-08-20T23:14:10Z</time></trkpt><trkpt lat="59.0999669395" lon="30.4627841245"><ele>293.34</ele><time>2026-08-20T23:14:11Z</time></trkpt><trkpt lat="59.0999669395" lon="30.4627841245"><ele>293.34</ele><time>2026-08-20T23:14:12Z</time></trkpt><trkpt lat="59.0999669395" lon="30.4627841245"><ele>293.34</ele><time>2026-08-20T23:14:13Z</time></trkpt><trkpt lat="59.0999669395" lon="30.4627841245"><ele>293.34</ele><time>2026-08-20T23:14:14Z</time></trkpt><trkpt lat="59.0999669395" lon="30.4627841245"><ele>293.34</ele><time>2026-08-20T23:14:15Z</time></trkpt><trkpt lat="59.0999669395" lon="30.4627841245"><ele>293.34</ele><time>2026-08-20T23:14:16Z</time></trkpt><trkpt lat="59.0999669395" lon="30.4627841245"><ele>293.34</ele><time>2026-08-20T23:14:17Z</time></trkpt><trkpt lat="59.0999669395" lon="30.4627841245"><ele>293.34</ele><time>2026-08-20T23:14:18Z</time></trkpt><trkpt lat="59.0999669395" lon="30.4627841245"><ele>293.34</ele><time>2026-08-20T23:14:19Z</time></trkpt><trkpt lat="59.0999669395" lon="30.4627841245"><ele>293.34</ele><time>2026-08-20T23:14:20Z</time></trkpt><trkpt lat="59.0999669395" lon="30.4627841245"><ele>293.34</ele><time>2026-08-20T23:14:21Z</time></trkpt><trkpt lat="59.0999669395" lon="30.4627841245"><ele>293.34</ele><time>2026-08-20T23:14:22Z</time></trkpt><trkpt lat="59.0999669395" lon="30.4627841245"><ele>293.34</ele><time>2026-08-20T23:14:23Z</time></trkpt><trkpt lat="59.0999669395" lon="30.4627841245"><ele>293.34</ele><time>2026-08-20T23:14:24Z</time></trkpt><trkpt lat="59.0999669395" lon="30.4627841245"><ele>293.34</ele><time>2026-08-20T23:14:25Z</time></trkpt><trkpt lat="59.0999669395" lon="30.4627841245"><ele>293.34</ele><time>2026-08-20T23:14:26Z</time></trkpt><trkpt lat="59.0999669395" lon="30.4627841245"><ele>293.34</ele><time>2026-08-20T23:14:27Z</time></trkpt><trkpt lat="59.0999669395" lon="30.4627841245"><ele>293.34</ele><time>2026-08-20T23:14:28Z</time></trkpt><trkpt lat="59.0999669395" lon="30.4627841245"><ele>293.34</ele><time>2026-08-20T23:14:29Z</time></trkpt><trkpt lat="59.0999669395" lon="30.4627841245"><ele>293.34</ele><time>2026-08-20T23:14:30Z</time></trkpt><trkpt lat="59.0999669395" lon="30.4627841245"><ele>293.34</ele><time>2026-08-20T23:14:31Z</time></trkpt><trkpt lat="59.0999669395" lon="30.4627841245"><ele>293.34</ele><time>2026-08-20T23:14:32Z</time></trkpt><trkpt lat="59.0999669395" lon="30.4627841245"><ele>293.34</ele><time>2026-08-20T23:14:33Z</time></trkpt><trkpt lat="59.0999669395" lon="30.4627841245"><ele>293.34</ele><time>2026-08-20T23:14:34Z</time></trkpt><trkpt lat="59.0999669395" lon="30.4627841245"><ele>293.34</ele><time>2026-08-20T23:14:35Z</time></trkpt><trkpt lat="59.0999669395" lon="30.4627841245"><ele>293.34</ele><time>2026-08-20T23:14:36Z</time></trkpt><trkpt lat="59.0999669395" lon="30.4627841245"><ele>293.34</ele><time>2026-08-20T23:14:37Z</time></trkpt><trkpt lat="59.0999669395" lon="30.4627841245"><ele>293.34</ele><time>2026-08-20T23:14:38Z</time></trkpt><trkpt lat="59.0999669395" lon="30.4627841245"><ele>293.34</ele><time>2026-08-20T23:14:39Z</time></trkpt><trkpt lat="59.0999669395" lon="30.4627841245"><ele>293.34</ele><time>2026-08-20T23:14:40Z</time></trkpt><trkpt lat="59.0999669395" lon="30.4627841245"><ele>293.34</ele><time>2026-08-20T23:14:41Z</time></trkpt><trkpt lat="59.0999669395" lon="30.4627841245"><ele>293.34</ele><time>2026-08-20T23:14:42Z</time></trkpt><trkpt lat="59.0999669395" lon="30.4627841245"><ele>293.34</ele><time>2026-08-20T23:14:43Z</time></trkpt><trkpt lat="59.0999669395" lon="30.4627841245"><ele>293.34</ele><time>2026-08-20T23:14:44Z</time></trkpt><trkpt lat="59.0999669395" lon="30.4627841245"><ele>293.34</ele><time>2026-08-20T23:14:45Z</time></trkpt><trkpt lat="59.0999669395" lon="30.4627841245"><ele>293.34</ele><time>2026-08-20T23:14:46Z</time></trkpt><trkpt lat="59.0999669395" lon="30.4627841245"><ele>293.34</ele><time>2026-08-20T23:14:47Z</time></trkpt><trkpt lat="59.0999669395" lon="30.4627841245"><ele>293.34</ele><time>2026-08-20T23:14:48Z</time></trkpt><trkpt lat="59.0999669395" lon="30.4627841245"><ele>293.34</ele><time>2026-08-20T23:14:49Z</time></trkpt><trkpt lat="59.0999669395" lon="30.4627841245"><ele>293.34</ele><time>2026-08-20T23:14:50Z</time></trkpt><trkpt lat="59.0999669395" lon="30.4627841245"><ele>293.34</ele><time>2026-08-20T23:14:51Z</time></trkpt><trkpt lat="59.0999669395" lon="30.4627841245"><ele>293.34</ele><time>2026-08-20T23:14:52Z</time></trkpt><trkpt lat="59.0999669395" lon="30.4627841245"><ele>293.34</ele><time>2026-08-20T23:14:53Z</time></trkpt><trkpt lat="59.0999669395" lon="30.4627841245"><ele>293.34</ele><time>2026-08-20T23:14:54Z</time></trkpt><trkpt lat="59.0999669395" lon="30.4627841245"><ele>293.34</ele><time>2026-08-20T23:14:55Z</time></trkpt><trkpt lat="59.0999669395" lon="30.4627841245"><ele>293.34</ele><time>2026-08-20T23:14:56Z</time></trkpt><trkpt lat="59.0999669395" lon="30.4627841245"><ele>293.34</ele><time>2026-08-20T23:14:57Z</time></trkpt><trkpt lat="59.0999669395" lon="30.4627841245"><ele>293.34</ele><time>2026-08-20T23:14:58Z</time></trkpt><trkpt lat="59.0999669395" lon="30.4627841245"><ele>293.34</ele><time>2026-08-20T23:14:59Z</time></trkpt><trkpt lat="59.0999669395" lon="30.4627841245"><ele>293.34</ele><time>2026-08-20T23:15:00Z</time></trkpt><trkpt lat="59.0999669395" lon="30.4627841245"><ele>293.34</ele><time>2026-08-20T23:15:01Z</time></trkpt><trkpt lat="59.0999669395" lon="30.4627841245"><ele>293.34</ele><time>2026-08-20T23:15:02Z</time></trkpt><trkpt lat="59.0999669395" lon="30.4627841245"><ele>293.34</ele><time>2026-08-20T23:15:03Z</time></trkpt><trkpt lat="59.0999669395" lon="30.4627841245"><ele>293.34</ele><time>2026-08-20T23:15:04Z</time></trkpt><trkpt lat="59.0999669395" lon="30.4627841245"><ele>293.34</ele><time>2026-08-20T23:15:05Z</time></trkpt><trkpt lat="59.0999669395" lon="30.4627841245"><ele>293.34</ele><time>2026-08-20T23:15:06Z</time></trkpt><trkpt lat="59.0999669395" lon="30.4627841245"><ele>293.34</ele><time>2026-08-20T23:15:07Z</time></trkpt><trkpt lat="59.0999902412" lon="30.4627144709"><ele>293.34</ele><time>2026-08-20T23:15:08Z</time></trkpt><trkpt lat="59.0999941807" lon="30.4627137166"><ele>293.34</ele><time>2026-08-20T23:15:09Z</time></trkpt><trkpt lat="59.0999902412" lon="30.4627007246"><ele>293.34</ele><time>2026-08-20T23:15:10Z</time></trkpt><trkpt lat="59.0999890678" lon="30.4626929294"><ele>293.34</ele><time>2026-08-20T23:15:11Z</time></trkpt><trkpt lat="59.0999883972" lon="30.4626822844"><ele>293.34</ele><time>2026-08-20T23:15:12Z</time></trkpt><trkpt lat="59.0999882296" lon="30.4626702983"><ele>293.34</ele><time>2026-08-20T23:15:13Z</time></trkpt><trkpt lat="59.0999886487" lon="30.4626541212"><ele>293.34</ele><time>2026-08-20T23:15:14Z</time></trkpt><trkpt lat="59.0999878943" lon="30.4626372736"><ele>293.34</ele><time>2026-08-20T23:15:15Z</time></trkpt><trkpt lat="59.0999877267" lon="30.4626236949"><ele>293.34</ele><time>2026-08-20T23:15:16Z</time></trkpt><trkpt lat="59.0999861341" lon="30.4626044165"><ele>292.86</ele><time>2026-08-20T23:15:17Z</time></trkpt><trkpt lat="59.0999824461" lon="30.4625838809"><ele>292.86</ele><time>2026-08-20T23:15:18Z</time></trkpt><trkpt lat="59.0999797639" lon="30.4625627585"><ele>292.86</ele><time>2026-08-20T23:15:19Z</time></trkpt><trkpt lat="59.0999777522" lon="30.4625422228"><ele>292.86</ele><time>2026-08-20T23:15:20Z</time></trkpt><trkpt lat="59.0999767464" lon="30.4625193402"><ele>292.86</ele><time>2026-08-20T23:15:21Z</time></trkpt><trkpt lat="59.0999758244" lon="30.4624949489"><ele>292.86</ele><time>2026-08-20T23:15:22Z</time></trkpt><trkpt lat="59.0999710467" lon="30.4624673724"><ele>292.38</ele><time>2026-08-20T23:15:23Z</time></trkpt><trkpt lat="59.0999649279" lon="30.4624429811"><ele>292.38</ele><time>2026-08-20T23:15:24Z</time></trkpt><trkpt lat="59.0999596473" lon="30.4624221940"><ele>292.38</ele><time>2026-08-20T23:15:25Z</time></trkpt><trkpt lat="59.0999531932" lon="30.4624026641"><ele>292.38</ele><time>2026-08-20T23:15:26Z</time></trkpt><trkpt lat="59.0999475773" lon="30.4623847269"><ele>292.38</ele><time>2026-08-20T23:15:27Z</time></trkpt><trkpt lat="59.0999429673" lon="30.4623665381"><ele>292.38</ele><time>2026-08-20T23:15:28Z</time></trkpt><trkpt lat="59.0999372676" lon="30.4623480979"><ele>292.38</ele><time>2026-08-20T23:15:29Z</time></trkpt><trkpt lat="59.0999326576" lon="30.4623299930"><ele>292.38</ele><time>2026-08-20T23:15:30Z</time></trkpt><trkpt lat="59.0999276284" lon="30.4623135645"><ele>292.38</ele><time>2026-08-20T23:15:31Z</time></trkpt><trkpt lat="59.0999230184" lon="30.4622982256"><ele>292.38</ele><time>2026-08-20T23:15:32Z</time></trkpt><trkpt lat="59.0999175701" lon="30.4622813780"><ele>292.38</ele><time>2026-08-20T23:15:33Z</time></trkpt><trkpt lat="59.0999110322" lon="30.4622599203"><ele>291.90</ele><time>2026-08-20T23:15:34Z</time></trkpt><trkpt lat="59.0999043267" lon="30.4622368701"><ele>291.90</ele><time>2026-08-20T23:15:35Z</time></trkpt><trkpt lat="59.0998992976" lon="30.4622191843"><ele>291.90</ele><time>2026-08-20T23:15:36Z</time></trkpt><trkpt lat="59.0998947714" lon="30.4621998221"><ele>291.90</ele><time>2026-08-20T23:15:37Z</time></trkpt><trkpt lat="59.0998910833" lon="30.4621781968"><ele>291.90</ele><time>2026-08-20T23:15:38Z</time></trkpt><trkpt lat="59.0998865571" lon="30.4621530510"><ele>291.90</ele><time>2026-08-20T23:15:39Z</time></trkpt><trkpt lat="59.0998821985" lon="30.4621297494"><ele>291.90</ele><time>2026-08-20T23:15:40Z</time></trkpt><trkpt lat="59.0998782590" lon="30.4621080402"><ele>291.90</ele><time>2026-08-20T23:15:41Z</time></trkpt><trkpt lat="59.0998757444" lon="30.4620917793"><ele>291.90</ele><time>2026-08-20T23:15:42Z</time></trkpt><trkpt lat="59.0998722240" lon="30.4620720819"><ele>291.90</ele><time>2026-08-20T23:15:43Z</time></trkpt><trkpt lat="59.0998682845" lon="30.4620559886"><ele>291.90</ele><time>2026-08-20T23:15:44Z</time></trkpt><trkpt lat="59.0998647641" lon="30.4620414879"><ele>291.90</ele><time>2026-08-20T23:15:45Z</time></trkpt><trkpt lat="59.0998632554" lon="30.4620262329"><ele>291.42</ele><time>2026-08-20T23:15:46Z</time></trkpt><trkpt lat="59.0998631716" lon="30.4620126542"><ele>291.42</ele><time>2026-08-20T23:15:47Z</time></trkpt><trkpt lat="59.0998638421" lon="30.4620037694"><ele>291.42</ele><time>2026-08-20T23:15:48Z</time></trkpt><trkpt lat="59.0998670273" lon="30.4620016739"><ele>291.42</ele><time>2026-08-20T23:15:49Z</time></trkpt><trkpt lat="59.0998692904" lon="30.4619908612"><ele>291.42</ele><time>2026-08-20T23:15:50Z</time></trkpt><trkpt lat="59.0998742357" lon="30.4619881790"><ele>291.42</ele><time>2026-08-20T23:15:51Z</time></trkpt><trkpt lat="59.0998785943" lon="30.4619840719"><ele>291.42</ele><time>2026-08-20T23:15:52Z</time></trkpt><trkpt lat="59.0998794325" lon="30.4619794618"><ele>291.42</ele><time>2026-08-20T23:15:53Z</time></trkpt><trkpt lat="59.0998828690" lon="30.4619750194"><ele>291.42</ele><time>2026-08-20T23:15:54Z</time></trkpt><trkpt lat="59.0998857189" lon="30.4619703256"><ele>291.42</ele><time>2026-08-20T23:15:55Z</time></trkpt><trkpt lat="59.0998880658" lon="30.4619680624"><ele>291.42</ele><time>2026-08-20T23:15:56Z</time></trkpt><trkpt lat="59.0998880658" lon="30.4619680624"><ele>291.42</ele><time>2026-08-20T23:15:57Z</time></trkpt><trkpt lat="59.0998880658" lon="30.4619680624"><ele>291.42</ele><time>2026-08-20T23:15:58Z</time></trkpt><trkpt lat="59.0998880658" lon="30.4619680624"><ele>291.42</ele><time>2026-08-20T23:15:59Z</time></trkpt><trkpt lat="59.0998880658" lon="30.4619680624"><ele>291.42</ele><time>2026-08-20T23:16:00Z</time></trkpt><trkpt lat="59.0998880658" lon="30.4619680624"><ele>291.42</ele><time>2026-08-20T23:16:01Z</time></trkpt><trkpt lat="59.0998880658" lon="30.4619680624"><ele>291.42</ele><time>2026-08-20T23:16:02Z</time></trkpt><trkpt lat="59.0998880658" lon="30.4619680624"><ele>291.42</ele><time>2026-08-20T23:16:03Z</time></trkpt><trkpt lat="59.0998880658" lon="30.4619680624"><ele>291.42</ele><time>2026-08-20T23:16:04Z</time></trkpt><trkpt lat="59.0998880658" lon="30.4619680624"><ele>291.42</ele><time>2026-08-20T23:16:05Z</time></trkpt><trkpt lat="59.0998880658" lon="30.4619680624"><ele>291.42</ele><time>2026-08-20T23:16:06Z</time></trkpt><trkpt lat="59.0998880658" lon="30.4619680624"><ele>291.42</ele><time>2026-08-20T23:16:07Z</time></trkpt><trkpt lat="59.0998880658" lon="30.4619680624"><ele>291.42</ele><time>2026-08-20T23:16:08Z</time></trkpt><trkpt lat="59.0998880658" lon="30.4619680624"><ele>291.42</ele><time>2026-08-20T23:16:09Z</time></trkpt><trkpt lat="59.0998880658" lon="30.4619680624"><ele>291.42</ele><time>2026-08-20T23:16:10Z</time></trkpt><trkpt lat="59.0999104455" lon="30.4619019292"><ele>291.42</ele><time>2026-08-20T23:16:11Z</time></trkpt><trkpt lat="59.0999139659" lon="30.4618941341"><ele>291.42</ele><time>2026-08-20T23:16:12Z</time></trkpt><trkpt lat="59.0999164805" lon="30.4618889373"><ele>291.42</ele><time>2026-08-20T23:16:13Z</time></trkpt><trkpt lat="59.0999240242" lon="30.4618767835"><ele>291.42</ele><time>2026-08-20T23:16:14Z</time></trkpt><trkpt lat="59.0999246947" lon="30.4618726764"><ele>291.42</ele><time>2026-08-20T23:16:15Z</time></trkpt><trkpt lat="59.0999242757" lon="30.4618758615"><ele>291.42</ele><time>2026-08-20T23:16:16Z</time></trkpt><trkpt lat="59.0999262873" lon="30.4618740175"><ele>291.42</ele><time>2026-08-20T23:16:17Z</time></trkpt><trkpt lat="59.0999262873" lon="30.4618740175"><ele>291.42</ele><time>2026-08-20T23:16:18Z</time></trkpt><trkpt lat="59.0999262873" lon="30.4618740175"><ele>291.42</ele><time>2026-08-20T23:16:19Z</time></trkpt><trkpt lat="59.0999262873" lon="30.4618740175"><ele>291.42</ele><time>2026-08-20T23:16:20Z</time></trkpt><trkpt lat="59.0999262873" lon="30.4618740175"><ele>291.42</ele><time>2026-08-20T23:16:21Z</time></trkpt><trkpt lat="59.0999262873" lon="30.4618740175"><ele>291.42</ele><time>2026-08-20T23:16:22Z</time></trkpt><trkpt lat="59.0999262873" lon="30.4618740175"><ele>291.42</ele><time>2026-08-20T23:16:23Z</time></trkpt><trkpt lat="59.0999262873" lon="30.4618740175"><ele>291.42</ele><time>2026-08-20T23:16:24Z</time></trkpt><trkpt lat="59.0999262873" lon="30.4618740175"><ele>291.42</ele><time>2026-08-20T23:16:25Z</time></trkpt><trkpt lat="59.0999262873" lon="30.4618740175"><ele>291.42</ele><time>2026-08-20T23:16:26Z</time></trkpt><trkpt lat="59.0999262873" lon="30.4618740175"><ele>291.42</ele><time>2026-08-20T23:16:27Z</time></trkpt><trkpt lat="59.0999262873" lon="30.4618740175"><ele>291.42</ele><time>2026-08-20T23:16:28Z</time></trkpt><trkpt lat="59.0999262873" lon="30.4618740175"><ele>291.42</ele><time>2026-08-20T23:16:29Z</time></trkpt><trkpt lat="59.0999262873" lon="30.4618740175"><ele>291.42</ele><time>2026-08-20T23:16:30Z</time></trkpt><trkpt lat="59.0999262873" lon="30.4618740175"><ele>291.42</ele><time>2026-08-20T23:16:31Z</time></trkpt><trkpt lat="59.0999262873" lon="30.4618740175"><ele>291.42</ele><time>2026-08-20T23:16:32Z</time></trkpt><trkpt lat="59.0999431349" lon="30.4618498776"><ele>291.42</ele><time>2026-08-20T23:16:33Z</time></trkpt><trkpt lat="59.0999472421" lon="30.4618353769"><ele>291.42</ele><time>2026-08-20T23:16:34Z</time></trkpt><trkpt lat="59.0999514330" lon="30.4618197866"><ele>291.42</ele><time>2026-08-20T23:16:35Z</time></trkpt><trkpt lat="59.0999540314" lon="30.4618062917"><ele>291.42</ele><time>2026-08-20T23:16:36Z</time></trkpt><trkpt lat="59.0999566298" lon="30.4617970716"><ele>291.42</ele><time>2026-08-20T23:16:37Z</time></trkpt><trkpt lat="59.0999590605" lon="30.4617923778"><ele>291.42</ele><time>2026-08-20T23:16:38Z</time></trkpt><trkpt lat="59.0999608207" lon="30.4617886897"><ele>291.42</ele><time>2026-08-20T23:16:39Z</time></trkpt><trkpt lat="59.0999617428" lon="30.4617850855"><ele>291.90</ele><time>2026-08-20T23:16:40Z</time></trkpt><trkpt lat="59.0999656823" lon="30.4617755301"><ele>291.90</ele><time>2026-08-20T23:16:41Z</time></trkpt><trkpt lat="59.0999643411" lon="30.4617795534"><ele>291.90</ele><time>2026-08-20T23:16:42Z</time></trkpt><trkpt lat="59.0999679454" lon="30.4617673997"><ele>291.90</ele><time>2026-08-20T23:16:43Z</time></trkpt><trkpt lat="59.0999731421" lon="30.4617546592"><ele>291.90</ele><time>2026-08-20T23:16:44Z</time></trkpt><trkpt lat="59.0999770816" lon="30.4617402423"><ele>291.90</ele><time>2026-08-20T23:16:45Z</time></trkpt><trkpt lat="59.0999810211" lon="30.4617233947"><ele>291.90</ele><time>2026-08-20T23:16:46Z</time></trkpt><trkpt lat="59.0999864694" lon="30.4617116600"><ele>291.90</ele><time>2026-08-20T23:16:47Z</time></trkpt><trkpt lat="59.0999927558" lon="30.4616963211"><ele>291.90</ele><time>2026-08-20T23:16:48Z</time></trkpt><trkpt lat="59.0999966953" lon="30.4616806470"><ele>291.90</ele><time>2026-08-20T23:16:49Z</time></trkpt><trkpt lat="59.1000022274" lon="30.4616650566"><ele>292.38</ele><time>2026-08-20T23:16:50Z</time></trkpt><trkpt lat="59.1000059992" lon="30.4616479576"><ele>292.38</ele><time>2026-08-20T23:16:51Z</time></trkpt><trkpt lat="59.1000095196" lon="30.4616308585"><ele>292.38</ele><time>2026-08-20T23:16:52Z</time></trkpt><trkpt lat="59.1000102740" lon="30.4616141785"><ele>292.38</ele><time>2026-08-20T23:16:53Z</time></trkpt><trkpt lat="59.1000141297" lon="30.4616004322"><ele>292.38</ele><time>2026-08-20T23:16:54Z</time></trkpt><trkpt lat="59.1000154708" lon="30.4615850933"><ele>292.38</ele><time>2026-08-20T23:16:55Z</time></trkpt><trkpt lat="59.1000174824" lon="30.4615717661"><ele>292.38</ele><time>2026-08-20T23:16:56Z</time></trkpt><trkpt lat="59.1000172310" lon="30.4615568463"><ele>292.38</ele><time>2026-08-20T23:16:57Z</time></trkpt><trkpt lat="59.1000168957" lon="30.4615423456"><ele>292.38</ele><time>2026-08-20T23:16:58Z</time></trkpt><trkpt lat="59.1000176501" lon="30.4615241569"><ele>292.38</ele><time>2026-08-20T23:16:59Z</time></trkpt><trkpt lat="59.1000156384" lon="30.4615085665"><ele>292.38</ele><time>2026-08-20T23:17:00Z</time></trkpt><trkpt lat="59.1000146326" lon="30.4614966642"><ele>292.38</ele><time>2026-08-20T23:17:01Z</time></trkpt><trkpt lat="59.1000138782" lon="30.4614814930"><ele>292.38</ele><time>2026-08-20T23:17:02Z</time></trkpt><trkpt lat="59.1000139620" lon="30.4614641424"><ele>292.38</ele><time>2026-08-20T23:17:03Z</time></trkpt><trkpt lat="59.1000123695" lon="30.4614510667"><ele>292.38</ele><time>2026-08-20T23:17:04Z</time></trkpt><trkpt lat="59.1000131238" lon="30.4614487197"><ele>292.38</ele><time>2026-08-20T23:17:05Z</time></trkpt><trkpt lat="59.1000120342" lon="30.4614439420"><ele>292.38</ele><time>2026-08-20T23:17:06Z</time></trkpt><trkpt lat="59.1000113636" lon="30.4614364821"><ele>292.38</ele><time>2026-08-20T23:17:07Z</time></trkpt><trkpt lat="59.1000113636" lon="30.4614364821"><ele>292.38</ele><time>2026-08-20T23:17:08Z</time></trkpt><trkpt lat="59.1000113636" lon="30.4614364821"><ele>292.38</ele><time>2026-08-20T23:17:09Z</time></trkpt><trkpt lat="59.1000112798" lon="30.4614173714"><ele>292.38</ele><time>2026-08-20T23:17:10Z</time></trkpt><trkpt lat="59.1000116989" lon="30.4614032898"><ele>292.38</ele><time>2026-08-20T23:17:11Z</time></trkpt><trkpt lat="59.1000123695" lon="30.4613975901"><ele>292.38</ele><time>2026-08-20T23:17:12Z</time></trkpt><trkpt lat="59.1000141297" lon="30.4613962490"><ele>292.38</ele><time>2026-08-20T23:17:13Z</time></trkpt><trkpt lat="59.1000143811" lon="30.4613939859"><ele>292.38</ele><time>2026-08-20T23:17:14Z</time></trkpt><trkpt lat="59.1000151355" lon="30.4613917228"><ele>292.38</ele><time>2026-08-20T23:17:15Z</time></trkpt><trkpt lat="59.1000151355" lon="30.4613917228"><ele>292.38</ele><time>2026-08-20T23:17:16Z</time></trkpt><trkpt lat="59.1000151355" lon="30.4613917228"><ele>292.38</ele><time>2026-08-20T23:17:17Z</time></trkpt><trkpt lat="59.1000151355" lon="30.4613917228"><ele>292.38</ele><time>2026-08-20T23:17:18Z</time></trkpt><trkpt lat="59.1000151355" lon="30.4613917228"><ele>292.38</ele><time>2026-08-20T23:17:19Z</time></trkpt><trkpt lat="59.1000151355" lon="30.4613917228"><ele>292.38</ele><time>2026-08-20T23:17:20Z</time></trkpt><trkpt lat="59.1000151355" lon="30.4613917228"><ele>292.38</ele><time>2026-08-20T23:17:21Z</time></trkpt><trkpt lat="59.1000151355" lon="30.4613917228"><ele>292.38</ele><time>2026-08-20T23:17:22Z</time></trkpt><trkpt lat="59.1000151355" lon="30.4613917228"><ele>292.38</ele><time>2026-08-20T23:17:23Z</time></trkpt><trkpt lat="59.1000151355" lon="30.4613917228"><ele>292.38</ele><time>2026-08-20T23:17:24Z</time></trkpt><trkpt lat="59.1000151355" lon="30.4613917228"><ele>292.38</ele><time>2026-08-20T23:17:25Z</time></trkpt><trkpt lat="59.1000151355" lon="30.4613917228"><ele>292.38</ele><time>2026-08-20T23:17:26Z</time></trkpt><trkpt lat="59.1000151355" lon="30.4613917228"><ele>292.38</ele><time>2026-08-20T23:17:27Z</time></trkpt><trkpt lat="59.1000151355" lon="30.4613917228"><ele>292.38</ele><time>2026-08-20T23:17:28Z</time></trkpt><trkpt lat="59.1000151355" lon="30.4613917228"><ele>292.38</ele><time>2026-08-20T23:17:29Z</time></trkpt><trkpt lat="59.1000151355" lon="30.4613917228"><ele>292.38</ele><time>2026-08-20T23:17:30Z</time></trkpt><trkpt lat="59.1000197455" lon="30.4613290261"><ele>292.38</ele><time>2026-08-20T23:17:31Z</time></trkpt><trkpt lat="59.1000218410" lon="30.4613160342"><ele>292.38</ele><time>2026-08-20T23:17:32Z</time></trkpt><trkpt lat="59.1000227630" lon="30.4612986837"><ele>292.38</ele><time>2026-08-20T23:17:33Z</time></trkpt><trkpt lat="59.1000216734" lon="30.4612830933"><ele>292.38</ele><time>2026-08-20T23:17:34Z</time></trkpt><trkpt lat="59.1000221763" lon="30.4612712748"><ele>292.38</ele><time>2026-08-20T23:17:35Z</time></trkpt><trkpt lat="59.1000211705" lon="30.4612565227"><ele>292.38</ele><time>2026-08-20T23:17:36Z</time></trkpt><trkpt lat="59.1000257805" lon="30.4612439498"><ele>292.38</ele><time>2026-08-20T23:17:37Z</time></trkpt><trkpt lat="59.1000271216" lon="30.4612297844"><ele>292.38</ele><time>2026-08-20T23:17:38Z</time></trkpt><trkpt lat="59.1000301391" lon="30.4612085782"><ele>292.38</ele><time>2026-08-20T23:17:39Z</time></trkpt><trkpt lat="59.1000285465" lon="30.4611898866"><ele>292.38</ele><time>2026-08-20T23:17:40Z</time></trkpt><trkpt lat="59.1000246909" lon="30.4611697700"><ele>292.38</ele><time>2026-08-20T23:17:41Z</time></trkpt><trkpt lat="59.1000186559" lon="30.4611465521"><ele>292.38</ele><time>2026-08-20T23:17:42Z</time></trkpt><trkpt lat="59.1000158899" lon="30.4611203168"><ele>292.38</ele><time>2026-08-20T23:17:43Z</time></trkpt><trkpt lat="59.1000103578" lon="30.4611002840"><ele>292.38</ele><time>2026-08-20T23:17:44Z</time></trkpt><trkpt lat="59.1000068374" lon="30.4610825982"><ele>292.38</ele><time>2026-08-20T23:17:45Z</time></trkpt><trkpt lat="59.1000026464" lon="30.4610666726"><ele>292.38</ele><time>2026-08-20T23:17:46Z</time></trkpt><trkpt lat="59.0999984555" lon="30.4610468913"><ele>292.38</ele><time>2026-08-20T23:17:47Z</time></trkpt><trkpt lat="59.0999917500" lon="30.4610267747"><ele>292.38</ele><time>2026-08-20T23:17:48Z</time></trkpt><trkpt lat="59.0999891516" lon="30.4610207397"><ele>292.38</ele><time>2026-08-20T23:17:49Z</time></trkpt><trkpt lat="59.0999788418" lon="30.4609908164"><ele>292.38</ele><time>2026-08-20T23:17:50Z</time></trkpt><trkpt lat="59.0999747347" lon="30.4609730467"><ele>292.38</ele><time>2026-08-20T23:17:51Z</time></trkpt><trkpt lat="59.0999751538" lon="30.4609650839"><ele>292.38</ele><time>2026-08-20T23:17:52Z</time></trkpt><trkpt lat="59.0999751538" lon="30.4609650839"><ele>292.38</ele><time>2026-08-20T23:17:53Z</time></trkpt><trkpt lat="59.0999723878" lon="30.4609441292"><ele>292.38</ele><time>2026-08-20T23:17:54Z</time></trkpt><trkpt lat="59.0999744833" lon="30.4609254375"><ele>292.38</ele><time>2026-08-20T23:17:55Z</time></trkpt><trkpt lat="59.0999765787" lon="30.4609031416"><ele>292.38</ele><time>2026-08-20T23:17:56Z</time></trkpt><trkpt lat="59.0999754891" lon="30.4608791694"><ele>292.38</ele><time>2026-08-20T23:17:57Z</time></trkpt><trkpt lat="59.0999726392" lon="30.4608579632"><ele>292.38</ele><time>2026-08-20T23:17:58Z</time></trkpt><trkpt lat="59.0999711305" lon="30.4608420376"><ele>292.38</ele><time>2026-08-20T23:17:59Z</time></trkpt><trkpt lat="59.0999697894" lon="30.4608239327"><ele>292.38</ele><time>2026-08-20T23:18:00Z</time></trkpt><trkpt lat="59.0999664366" lon="30.4608061630"><ele>292.38</ele><time>2026-08-20T23:18:01Z</time></trkpt><trkpt lat="59.0999622457" lon="30.4607911594"><ele>292.38</ele><time>2026-08-20T23:18:02Z</time></trkpt><trkpt lat="59.0999574680" lon="30.4607783351"><ele>292.38</ele><time>2026-08-20T23:18:03Z</time></trkpt><trkpt lat="59.0999537800" lon="30.4607637506"><ele>292.38</ele><time>2026-08-20T23:18:04Z</time></trkpt><trkpt lat="59.0999489184" lon="30.4607451428"><ele>292.38</ele><time>2026-08-20T23:18:05Z</time></trkpt><trkpt lat="59.0999461524" lon="30.4607302230"><ele>292.38</ele><time>2026-08-20T23:18:06Z</time></trkpt><trkpt lat="59.0999446437" lon="30.4607175663"><ele>292.38</ele><time>2026-08-20T23:18:07Z</time></trkpt><trkpt lat="59.0999418776" lon="30.4607000481"><ele>292.38</ele><time>2026-08-20T23:18:08Z</time></trkpt><trkpt lat="59.0999389440" lon="30.4606837872"><ele>292.38</ele><time>2026-08-20T23:18:09Z</time></trkpt><trkpt lat="59.0999351721" lon="30.4606666882"><ele>292.38</ele><time>2026-08-20T23:18:10Z</time></trkpt><trkpt lat="59.0999300592" lon="30.4606446438"><ele>292.38</ele><time>2026-08-20T23:18:11Z</time></trkpt><trkpt lat="59.0999256168" lon="30.4606290534"><ele>292.38</ele><time>2026-08-20T23:18:12Z</time></trkpt><trkpt lat="59.0999222640" lon="30.4606104456"><ele>292.38</ele><time>2026-08-20T23:18:13Z</time></trkpt><trkpt lat="59.0999183245" lon="30.4605920892"><ele>292.38</ele><time>2026-08-20T23:18:14Z</time></trkpt><trkpt lat="59.0999193303" lon="30.4605870601"><ele>292.38</ele><time>2026-08-20T23:18:15Z</time></trkpt><trkpt lat="59.0999206714" lon="30.4605849646"><ele>292.38</ele><time>2026-08-20T23:18:16Z</time></trkpt><trkpt lat="59.0999206714" lon="30.4605849646"><ele>292.38</ele><time>2026-08-20T23:18:17Z</time></trkpt><trkpt lat="59.0999206714" lon="30.4605849646"><ele>292.38</ele><time>2026-08-20T23:18:18Z</time></trkpt><trkpt lat="59.0999206714" lon="30.4605849646"><ele>292.38</ele><time>2026-08-20T23:18:19Z</time></trkpt><trkpt lat="59.0999206714" lon="30.4605849646"><ele>292.38</ele><time>2026-08-20T23:18:20Z</time></trkpt><trkpt lat="59.0999206714" lon="30.4605849646"><ele>292.38</ele><time>2026-08-20T23:18:21Z</time></trkpt><trkpt lat="59.0999147203" lon="30.4605589807"><ele>292.38</ele><time>2026-08-20T23:18:22Z</time></trkpt><trkpt lat="59.0999189951" lon="30.4605464917"><ele>292.38</ele><time>2026-08-20T23:18:23Z</time></trkpt><trkpt lat="59.0999160614" lon="30.4605372716"><ele>292.38</ele><time>2026-08-20T23:18:24Z</time></trkpt><trkpt lat="59.0999130439" lon="30.4605236929"><ele>292.38</ele><time>2026-08-20T23:18:25Z</time></trkpt><trkpt lat="59.0999067575" lon="30.4605041631"><ele>292.38</ele><time>2026-08-20T23:18:26Z</time></trkpt><trkpt lat="59.0999002196" lon="30.4604867287"><ele>292.38</ele><time>2026-08-20T23:18:27Z</time></trkpt><trkpt lat="59.0998936817" lon="30.4604709707"><ele>292.38</ele><time>2026-08-20T23:18:28Z</time></trkpt><trkpt lat="59.0998887364" lon="30.4604562186"><ele>292.38</ele><time>2026-08-20T23:18:29Z</time></trkpt><trkpt lat="59.0998825338" lon="30.4604414664"><ele>292.38</ele><time>2026-08-20T23:18:30Z</time></trkpt><trkpt lat="59.0998759959" lon="30.4604218528"><ele>292.38</ele><time>2026-08-20T23:18:31Z</time></trkpt><trkpt lat="59.0998721402" lon="30.4604027420"><ele>292.38</ele><time>2026-08-20T23:18:32Z</time></trkpt><trkpt lat="59.0998662729" lon="30.4603865650"><ele>292.38</ele><time>2026-08-20T23:18:33Z</time></trkpt><trkpt lat="59.0998579748" lon="30.4603668675"><ele>292.38</ele><time>2026-08-20T23:18:34Z</time></trkpt><trkpt lat="59.0998496767" lon="30.4603488464"><ele>292.38</ele><time>2026-08-20T23:18:35Z</time></trkpt><trkpt lat="59.0998443961" lon="30.4603338428"><ele>292.38</ele><time>2026-08-20T23:18:36Z</time></trkpt><trkpt lat="59.0998363495" lon="30.4603232816"><ele>292.38</ele><time>2026-08-20T23:18:37Z</time></trkpt><trkpt lat="59.0998301469" lon="30.4603121337"><ele>292.38</ele><time>2026-08-20T23:18:38Z</time></trkpt><trkpt lat="59.0998226870" lon="30.4602986388"><ele>292.38</ele><time>2026-08-20T23:18:39Z</time></trkpt><trkpt lat="59.0998161491" lon="30.4602817912"><ele>292.38</ele><time>2026-08-20T23:18:40Z</time></trkpt><trkpt lat="59.0998099465" lon="30.4602661170"><ele>292.38</ele><time>2026-08-20T23:18:41Z</time></trkpt><trkpt lat="59.0998032410" lon="30.4602491856"><ele>292.38</ele><time>2026-08-20T23:18:42Z</time></trkpt><trkpt lat="59.0997953620" lon="30.4602339305"><ele>292.38</ele><time>2026-08-20T23:18:43Z</time></trkpt><trkpt lat="59.0997874830" lon="30.4602199327"><ele>292.38</ele><time>2026-08-20T23:18:44Z</time></trkpt><trkpt lat="59.0997847170" lon="30.4602055997"><ele>292.38</ele><time>2026-08-20T23:18:45Z</time></trkpt><trkpt lat="59.0997811966" lon="30.4601863213"><ele>292.38</ele><time>2026-08-20T23:18:46Z</time></trkpt><trkpt lat="59.0997775923" lon="30.4601651989"><ele>292.38</ele><time>2026-08-20T23:18:47Z</time></trkpt><trkpt lat="59.0997742396" lon="30.4601426516"><ele>292.38</ele><time>2026-08-20T23:18:48Z</time></trkpt><trkpt lat="59.0997712221" lon="30.4601198528"><ele>292.38</ele><time>2026-08-20T23:18:49Z</time></trkpt><trkpt lat="59.0997675341" lon="30.4600989819"><ele>292.38</ele><time>2026-08-20T23:18:50Z</time></trkpt><trkpt lat="59.0997638460" lon="30.4600776918"><ele>292.38</ele><time>2026-08-20T23:18:51Z</time></trkpt><trkpt lat="59.0997591522" lon="30.4600557312"><ele>292.38</ele><time>2026-08-20T23:18:52Z</time></trkpt><trkpt lat="59.0997566376" lon="30.4600367881"><ele>292.38</ele><time>2026-08-20T23:18:53Z</time></trkpt><trkpt lat="59.0997533686" lon="30.4600193538"><ele>292.38</ele><time>2026-08-20T23:18:54Z</time></trkpt><trkpt lat="59.0997484233" lon="30.4600002430"><ele>292.38</ele><time>2026-08-20T23:18:55Z</time></trkpt><trkpt lat="59.0997449867" lon="30.4599823896"><ele>292.38</ele><time>2026-08-20T23:18:56Z</time></trkpt><trkpt lat="59.0997417178" lon="30.4599593394"><ele>292.38</ele><time>2026-08-20T23:18:57Z</time></trkpt><trkpt lat="59.0997396223" lon="30.4599382170"><ele>292.38</ele><time>2026-08-20T23:18:58Z</time></trkpt><trkpt lat="59.0997370239" lon="30.4599197768"><ele>292.38</ele><time>2026-08-20T23:18:59Z</time></trkpt><trkpt lat="59.0997336712" lon="30.4599010851"><ele>292.38</ele><time>2026-08-20T23:19:00Z</time></trkpt><trkpt lat="59.0997277200" lon="30.4598803818"><ele>292.38</ele><time>2026-08-20T23:19:01Z</time></trkpt><trkpt lat="59.0997225232" lon="30.4598617740"><ele>292.38</ele><time>2026-08-20T23:19:02Z</time></trkpt><trkpt lat="59.0997181647" lon="30.4598468542"><ele>292.38</ele><time>2026-08-20T23:19:03Z</time></trkpt><trkpt lat="59.0997146443" lon="30.4598311801"><ele>292.38</ele><time>2026-08-20T23:19:04Z</time></trkpt><trkpt lat="59.0997131355" lon="30.4598108958"><ele>292.38</ele><time>2026-08-20T23:19:05Z</time></trkpt><trkpt lat="59.0997095313" lon="30.4597908631"><ele>292.38</ele><time>2026-08-20T23:19:06Z</time></trkpt><trkpt lat="59.0997034963" lon="30.4597729258"><ele>292.38</ele><time>2026-08-20T23:19:07Z</time></trkpt><trkpt lat="59.0996943600" lon="30.4597544856"><ele>292.38</ele><time>2026-08-20T23:19:08Z</time></trkpt><trkpt lat="59.0996876545" lon="30.4597403202"><ele>292.38</ele><time>2026-08-20T23:19:09Z</time></trkpt><trkpt lat="59.0996802785" lon="30.4597217962"><ele>292.38</ele><time>2026-08-20T23:19:10Z</time></trkpt><trkpt lat="59.0996735729" lon="30.4597026855"><ele>292.38</ele><time>2026-08-20T23:19:11Z</time></trkpt><trkpt lat="59.0996661969" lon="30.4596827365"><ele>292.38</ele><time>2026-08-20T23:19:12Z</time></trkpt><trkpt lat="59.0996582340" lon="30.4596659727"><ele>292.38</ele><time>2026-08-20T23:19:13Z</time></trkpt><trkpt lat="59.0996486787" lon="30.4596517235"><ele>292.38</ele><time>2026-08-20T23:19:14Z</time></trkpt><trkpt lat="59.0996420570" lon="30.4596354626"><ele>292.38</ele><time>2026-08-20T23:19:15Z</time></trkpt><trkpt lat="59.0996366926" lon="30.4596215487"><ele>292.38</ele><time>2026-08-20T23:19:16Z</time></trkpt><trkpt lat="59.0996320825" lon="30.4596093949"><ele>292.38</ele><time>2026-08-20T23:19:17Z</time></trkpt><trkpt lat="59.0996259637" lon="30.4595960677"><ele>292.38</ele><time>2026-08-20T23:19:18Z</time></trkpt><trkpt lat="59.0996200964" lon="30.4595849197"><ele>292.38</ele><time>2026-08-20T23:19:19Z</time></trkpt><trkpt lat="59.0996169951" lon="30.4595731851"><ele>292.38</ele><time>2026-08-20T23:19:20Z</time></trkpt><trkpt lat="59.0996154863" lon="30.4595595226"><ele>292.38</ele><time>2026-08-20T23:19:21Z</time></trkpt><trkpt lat="59.0996117983" lon="30.4595392384"><ele>292.38</ele><time>2026-08-20T23:19:22Z</time></trkpt><trkpt lat="59.0996063501" lon="30.4595243186"><ele>292.38</ele><time>2026-08-20T23:19:23Z</time></trkpt><trkpt lat="59.0996005666" lon="30.4595131706"><ele>292.38</ele><time>2026-08-20T23:19:24Z</time></trkpt><trkpt lat="59.0995953698" lon="30.4595070519"><ele>292.38</ele><time>2026-08-20T23:19:25Z</time></trkpt><trkpt lat="59.0995875746" lon="30.4594986700"><ele>292.38</ele><time>2026-08-20T23:19:26Z</time></trkpt><trkpt lat="59.0995826293" lon="30.4594857618"><ele>292.38</ele><time>2026-08-20T23:19:27Z</time></trkpt><trkpt lat="59.0995757561" lon="30.4594735242"><ele>292.38</ele><time>2026-08-20T23:19:28Z</time></trkpt><trkpt lat="59.0995691344" lon="30.4594617896"><ele>292.38</ele><time>2026-08-20T23:19:29Z</time></trkpt><trkpt lat="59.0995597467" lon="30.4594477918"><ele>292.38</ele><time>2026-08-20T23:19:30Z</time></trkpt><trkpt lat="59.0995522868" lon="30.4594359733"><ele>292.38</ele><time>2026-08-20T23:19:31Z</time></trkpt><trkpt lat="59.0995479282" lon="30.4594230652"><ele>292.38</ele><time>2026-08-20T23:19:32Z</time></trkpt><trkpt lat="59.0995430667" lon="30.4594082292"><ele>292.38</ele><time>2026-08-20T23:19:33Z</time></trkpt><trkpt lat="59.0995404683" lon="30.4593914654"><ele>292.38</ele><time>2026-08-20T23:19:34Z</time></trkpt><trkpt lat="59.0995389596" lon="30.4593756236"><ele>292.38</ele><time>2026-08-20T23:19:35Z</time></trkpt><trkpt lat="59.0995376185" lon="30.4593575187"><ele>292.38</ele><time>2026-08-20T23:19:36Z</time></trkpt><trkpt lat="59.0995352715" lon="30.4593413416"><ele>292.38</ele><time>2026-08-20T23:19:37Z</time></trkpt><trkpt lat="59.0995344333" lon="30.4593284335"><ele>292.38</ele><time>2026-08-20T23:19:38Z</time></trkpt><trkpt lat="59.0995340981" lon="30.4593128432"><ele>292.38</ele><time>2026-08-20T23:19:39Z</time></trkpt><trkpt lat="59.0995328408" lon="30.4592990968"><ele>292.38</ele><time>2026-08-20T23:19:40Z</time></trkpt><trkpt lat="59.0995309968" lon="30.4592879489"><ele>292.38</ele><time>2026-08-20T23:19:41Z</time></trkpt><trkpt lat="59.0995297395" lon="30.4592785612"><ele>292.38</ele><time>2026-08-20T23:19:42Z</time></trkpt><trkpt lat="59.0995285660" lon="30.4592713527"><ele>292.38</ele><time>2026-08-20T23:19:43Z</time></trkpt><trkpt lat="59.0995276440" lon="30.4592668265"><ele>292.38</ele><time>2026-08-20T23:19:44Z</time></trkpt><trkpt lat="59.0995255485" lon="30.4592609592"><ele>292.38</ele><time>2026-08-20T23:19:45Z</time></trkpt><trkpt lat="59.0995231178" lon="30.4592561815"><ele>292.38</ele><time>2026-08-20T23:19:46Z</time></trkpt><trkpt lat="59.0995231178" lon="30.4592561815"><ele>292.38</ele><time>2026-08-20T23:19:47Z</time></trkpt><trkpt lat="59.0995231178" lon="30.4592561815"><ele>292.38</ele><time>2026-08-20T23:19:48Z</time></trkpt><trkpt lat="59.0995231178" lon="30.4592561815"><ele>292.38</ele><time>2026-08-20T23:19:49Z</time></trkpt><trkpt lat="59.0995231178" lon="30.4592561815"><ele>291.90</ele><time>2026-08-20T23:19:50Z</time></trkpt><trkpt lat="59.0995231178" lon="30.4592561815"><ele>291.90</ele><time>2026-08-20T23:19:51Z</time></trkpt><trkpt lat="59.0995231178" lon="30.4592561815"><ele>291.90</ele><time>2026-08-20T23:19:52Z</time></trkpt><trkpt lat="59.0995231178" lon="30.4592561815"><ele>291.90</ele><time>2026-08-20T23:19:53Z</time></trkpt><trkpt lat="59.0995231178" lon="30.4592561815"><ele>292.38</ele><time>2026-08-20T23:19:54Z</time></trkpt><trkpt lat="59.0995231178" lon="30.4592561815"><ele>292.38</ele><time>2026-08-20T23:19:55Z</time></trkpt><trkpt lat="59.0995231178" lon="30.4592561815"><ele>292.38</ele><time>2026-08-20T23:19:56Z</time></trkpt><trkpt lat="59.0995231178" lon="30.4592561815"><ele>292.38</ele><time>2026-08-20T23:19:57Z</time></trkpt><trkpt lat="59.0995231178" lon="30.4592561815"><ele>292.38</ele><time>2026-08-20T23:19:58Z</time></trkpt><trkpt lat="59.0995231178" lon="30.4592561815"><ele>292.38</ele><time>2026-08-20T23:19:59Z</time></trkpt><trkpt lat="59.0995231178" lon="30.4592561815"><ele>292.38</ele><time>2026-08-20T23:20:00Z</time></trkpt><trkpt lat="59.0995231178" lon="30.4592561815"><ele>292.38</ele><time>2026-08-20T23:20:01Z</time></trkpt><trkpt lat="59.0995231178" lon="30.4592561815"><ele>292.38</ele><time>2026-08-20T23:20:02Z</time></trkpt><trkpt lat="59.0995231178" lon="30.4592561815"><ele>292.38</ele><time>2026-08-20T23:20:03Z</time></trkpt><trkpt lat="59.0995231178" lon="30.4592561815"><ele>292.38</ele><time>2026-08-20T23:20:04Z</time></trkpt><trkpt lat="59.0995231178" lon="30.4592561815"><ele>292.38</ele><time>2026-08-20T23:20:05Z</time></trkpt><trkpt lat="59.0995231178" lon="30.4592561815"><ele>292.38</ele><time>2026-08-20T23:20:06Z</time></trkpt><trkpt lat="59.0995231178" lon="30.4592561815"><ele>292.38</ele><time>2026-08-20T23:20:07Z</time></trkpt><trkpt lat="59.0995231178" lon="30.4592561815"><ele>292.38</ele><time>2026-08-20T23:20:08Z</time></trkpt><trkpt lat="59.0995231178" lon="30.4592561815"><ele>292.38</ele><time>2026-08-20T23:20:09Z</time></trkpt><trkpt lat="59.0995231178" lon="30.4592561815"><ele>292.38</ele><time>2026-08-20T23:20:10Z</time></trkpt><trkpt lat="59.0995231178" lon="30.4592561815"><ele>292.38</ele><time>2026-08-20T23:20:11Z</time></trkpt><trkpt lat="59.0995231178" lon="30.4592561815"><ele>292.38</ele><time>2026-08-20T23:20:12Z</time></trkpt><trkpt lat="59.0995231178" lon="30.4592561815"><ele>292.38</ele><time>2026-08-20T23:20:13Z</time></trkpt><trkpt lat="59.0995231178" lon="30.4592561815"><ele>292.38</ele><time>2026-08-20T23:20:14Z</time></trkpt><trkpt lat="59.0995231178" lon="30.4592561815"><ele>292.38</ele><time>2026-08-20T23:20:15Z</time></trkpt><trkpt lat="59.0995231178" lon="30.4592561815"><ele>292.38</ele><time>2026-08-20T23:20:16Z</time></trkpt><trkpt lat="59.0995231178" lon="30.4592561815"><ele>292.38</ele><time>2026-08-20T23:20:17Z</time></trkpt><trkpt lat="59.0995231178" lon="30.4592561815"><ele>292.38</ele><time>2026-08-20T23:20:18Z</time></trkpt><trkpt lat="59.0995231178" lon="30.4592561815"><ele>292.38</ele><time>2026-08-20T23:20:19Z</time></trkpt><trkpt lat="59.0995231178" lon="30.4592561815"><ele>292.38</ele><time>2026-08-20T23:20:20Z</time></trkpt><trkpt lat="59.0995231178" lon="30.4592561815"><ele>292.38</ele><time>2026-08-20T23:20:21Z</time></trkpt><trkpt lat="59.0995231178" lon="30.4592561815"><ele>292.38</ele><time>2026-08-20T23:20:22Z</time></trkpt><trkpt lat="59.0995231178" lon="30.4592561815"><ele>292.38</ele><time>2026-08-20T23:20:23Z</time></trkpt><trkpt lat="59.0995231178" lon="30.4592561815"><ele>292.38</ele><time>2026-08-20T23:20:24Z</time></trkpt><trkpt lat="59.0995231178" lon="30.4592561815"><ele>292.38</ele><time>2026-08-20T23:20:25Z</time></trkpt><trkpt lat="59.0995231178" lon="30.4592561815"><ele>292.38</ele><time>2026-08-20T23:20:26Z</time></trkpt><trkpt lat="59.0995231178" lon="30.4592561815"><ele>292.38</ele><time>2026-08-20T23:20:27Z</time></trkpt><trkpt lat="59.0995231178" lon="30.4592561815"><ele>292.38</ele><time>2026-08-20T23:20:28Z</time></trkpt><trkpt lat="59.0995231178" lon="30.4592561815"><ele>292.38</ele><time>2026-08-20T23:20:29Z</time></trkpt><trkpt lat="59.0995231178" lon="30.4592561815"><ele>292.38</ele><time>2026-08-20T23:20:30Z</time></trkpt></trkseg></trk></gpx>